<?xml version="1.0" encoding="utf-8"?>
<gpx xmlns:xsi="http://www.w3.org/2001/XMLSchema-instance" xmlns:xsd="http://www.w3.org/2001/XMLSchema" version="1.1" creator="Shapelink.com" xmlns="http://www.topografix.com/GPX/1/1" xmlns:gpxtpx="http://www.garmin.com/xmlschemas/TrackPointExtension/v1">
  <metadata>
    <name>Löpning 50.16 km, 2011-03-23</name>
    <desc></desc>
    <author><name>Jojje Borssén</name></author> 
    <time>2011-03-23T10:04:32Z</time>
  </metadata>
  <trk>
    <name>Löpning 50.16 km, 2011-03-23</name>
    <trkseg>
      <trkpt lat="37.1789226074" lon="-7.44860284381">
        <ele>8.2</ele>
        <time>2011-03-23T10:04:32Z</time>
      </trkpt>
      <trkpt lat="37.178895031" lon="-7.44860653185">
        <ele>8.2</ele>
        <time>2011-03-23T10:04:33Z</time>
      </trkpt>
      <trkpt lat="37.1788009861" lon="-7.44862069726">
        <ele>8.2</ele>
        <time>2011-03-23T10:04:37Z</time>
      </trkpt>
      <trkpt lat="37.1787796961" lon="-7.4486177636">
        <ele>8.2</ele>
        <time>2011-03-23T10:04:38Z</time>
      </trkpt>
      <trkpt lat="37.1787320869" lon="-7.44871004831">
        <ele>8.2</ele>
        <time>2011-03-23T10:04:42Z</time>
      </trkpt>
      <trkpt lat="37.1787261357" lon="-7.44873938496">
        <ele>8.2</ele>
        <time>2011-03-23T10:04:43Z</time>
      </trkpt>
      <trkpt lat="37.1787165803" lon="-7.44881767191">
        <ele>8.2</ele>
        <time>2011-03-23T10:04:46Z</time>
      </trkpt>
      <trkpt lat="37.1787101263" lon="-7.44888279927">
        <ele>8.2</ele>
        <time>2011-03-23T10:04:48Z</time>
      </trkpt>
      <trkpt lat="37.1786947036" lon="-7.449003331">
        <ele>8.2</ele>
        <time>2011-03-23T10:04:53Z</time>
      </trkpt>
      <trkpt lat="37.1786890877" lon="-7.44908564125">
        <ele>8.2</ele>
        <time>2011-03-23T10:04:56Z</time>
      </trkpt>
      <trkpt lat="37.1786794485" lon="-7.44915982107">
        <ele>8.2</ele>
        <time>2011-03-23T10:04:58Z</time>
      </trkpt>
      <trkpt lat="37.1786716534" lon="-7.44924757956">
        <ele>8.2</ele>
        <time>2011-03-23T10:05:02Z</time>
      </trkpt>
      <trkpt lat="37.1786652831" lon="-7.4493231843">
        <ele>8.2</ele>
        <time>2011-03-23T10:05:05Z</time>
      </trkpt>
      <trkpt lat="37.1786545543" lon="-7.44940189034">
        <ele>8.2</ele>
        <time>2011-03-23T10:05:08Z</time>
      </trkpt>
      <trkpt lat="37.1786421491" lon="-7.44952493663">
        <ele>8.2</ele>
        <time>2011-03-23T10:05:13Z</time>
      </trkpt>
      <trkpt lat="37.178636617" lon="-7.44957899989">
        <ele>8.2</ele>
        <time>2011-03-23T10:05:15Z</time>
      </trkpt>
      <trkpt lat="37.1786297439" lon="-7.44965510754">
        <ele>8.2</ele>
        <time>2011-03-23T10:05:18Z</time>
      </trkpt>
      <trkpt lat="37.1786220325" lon="-7.44973850744">
        <ele>8.2</ele>
        <time>2011-03-23T10:05:21Z</time>
      </trkpt>
      <trkpt lat="37.1786133153" lon="-7.44979558818">
        <ele>8.2</ele>
        <time>2011-03-23T10:05:23Z</time>
      </trkpt>
      <trkpt lat="37.1786039276" lon="-7.44987890427">
        <ele>8.2</ele>
        <time>2011-03-23T10:05:26Z</time>
      </trkpt>
      <trkpt lat="37.1786107169" lon="-7.44990346324">
        <ele>8.2</ele>
        <time>2011-03-23T10:05:27Z</time>
      </trkpt>
      <trkpt lat="37.178631085" lon="-7.44994914459">
        <ele>8.2</ele>
        <time>2011-03-23T10:05:28Z</time>
      </trkpt>
      <trkpt lat="37.1786390478" lon="-7.44997311683">
        <ele>8.2</ele>
        <time>2011-03-23T10:05:30Z</time>
      </trkpt>
      <trkpt lat="37.1786142373" lon="-7.45006976013">
        <ele>8.2</ele>
        <time>2011-03-23T10:05:34Z</time>
      </trkpt>
      <trkpt lat="37.1786087891" lon="-7.45009440292">
        <ele>8.2</ele>
        <time>2011-03-23T10:05:35Z</time>
      </trkpt>
      <trkpt lat="37.1786018321" lon="-7.45015148366">
        <ele>8.2</ele>
        <time>2011-03-23T10:05:37Z</time>
      </trkpt>
      <trkpt lat="37.1785886726" lon="-7.45022784277">
        <ele>8.2</ele>
        <time>2011-03-23T10:05:40Z</time>
      </trkpt>
      <trkpt lat="37.1785833081" lon="-7.45028375004">
        <ele>8.2</ele>
        <time>2011-03-23T10:05:42Z</time>
      </trkpt>
      <trkpt lat="37.1785743395" lon="-7.45036497065">
        <ele>8.2</ele>
        <time>2011-03-23T10:05:45Z</time>
      </trkpt>
      <trkpt lat="37.1785655385" lon="-7.45044493398">
        <ele>8.2</ele>
        <time>2011-03-23T10:05:48Z</time>
      </trkpt>
      <trkpt lat="37.1785559831" lon="-7.45052481348">
        <ele>8.2</ele>
        <time>2011-03-23T10:05:51Z</time>
      </trkpt>
      <trkpt lat="37.1785443323" lon="-7.45060008295">
        <ele>8.2</ele>
        <time>2011-03-23T10:05:54Z</time>
      </trkpt>
      <trkpt lat="37.1785391355" lon="-7.45066345011">
        <ele>8.2</ele>
        <time>2011-03-23T10:05:57Z</time>
      </trkpt>
      <trkpt lat="37.1785242996" lon="-7.45074198851">
        <ele>8.2</ele>
        <time>2011-03-23T10:06:00Z</time>
      </trkpt>
      <trkpt lat="37.1785169235" lon="-7.45080284111">
        <ele>8.2</ele>
        <time>2011-03-23T10:06:02Z</time>
      </trkpt>
      <trkpt lat="37.178506949" lon="-7.45088263679">
        <ele>8.2</ele>
        <time>2011-03-23T10:06:05Z</time>
      </trkpt>
      <trkpt lat="37.1784931189" lon="-7.45095857681">
        <ele>8.2</ele>
        <time>2011-03-23T10:06:08Z</time>
      </trkpt>
      <trkpt lat="37.1784871677" lon="-7.4510260511">
        <ele>8.2</ele>
        <time>2011-03-23T10:06:11Z</time>
      </trkpt>
      <trkpt lat="37.1784802108" lon="-7.45105840524">
        <ele>8.2</ele>
        <time>2011-03-23T10:06:12Z</time>
      </trkpt>
      <trkpt lat="37.1784446715" lon="-7.45112755591">
        <ele>8.2</ele>
        <time>2011-03-23T10:06:16Z</time>
      </trkpt>
      <trkpt lat="37.178398152" lon="-7.45115421035">
        <ele>8.2</ele>
        <time>2011-03-23T10:06:19Z</time>
      </trkpt>
      <trkpt lat="37.1783310129" lon="-7.4511636819">
        <ele>8.2</ele>
        <time>2011-03-23T10:06:22Z</time>
      </trkpt>
      <trkpt lat="37.1782725073" lon="-7.45118597776">
        <ele>8.2</ele>
        <time>2011-03-23T10:06:25Z</time>
      </trkpt>
      <trkpt lat="37.1782168515" lon="-7.45122118174">
        <ele>8.2</ele>
        <time>2011-03-23T10:06:28Z</time>
      </trkpt>
      <trkpt lat="37.178182821" lon="-7.45128371071">
        <ele>8.2</ele>
        <time>2011-03-23T10:06:31Z</time>
      </trkpt>
      <trkpt lat="37.1781587649" lon="-7.45135084973">
        <ele>8.2</ele>
        <time>2011-03-23T10:06:34Z</time>
      </trkpt>
      <trkpt lat="37.1781447671" lon="-7.45143466873">
        <ele>8.2</ele>
        <time>2011-03-23T10:06:37Z</time>
      </trkpt>
      <trkpt lat="37.1781455215" lon="-7.45151991265">
        <ele>8.2</ele>
        <time>2011-03-23T10:06:40Z</time>
      </trkpt>
      <trkpt lat="37.1781659733" lon="-7.45159945688">
        <ele>8.2</ele>
        <time>2011-03-23T10:06:43Z</time>
      </trkpt>
      <trkpt lat="37.1781959805" lon="-7.45167698946">
        <ele>8.2</ele>
        <time>2011-03-23T10:06:46Z</time>
      </trkpt>
      <trkpt lat="37.1782368004" lon="-7.45174010516">
        <ele>8.2</ele>
        <time>2011-03-23T10:06:49Z</time>
      </trkpt>
      <trkpt lat="37.1782860021" lon="-7.45179525807">
        <ele>8.2</ele>
        <time>2011-03-23T10:06:52Z</time>
      </trkpt>
      <trkpt lat="37.1783176019" lon="-7.45187170099">
        <ele>8.2</ele>
        <time>2011-03-23T10:06:55Z</time>
      </trkpt>
      <trkpt lat="37.1783476091" lon="-7.45190983864">
        <ele>8.2</ele>
        <time>2011-03-23T10:06:57Z</time>
      </trkpt>
      <trkpt lat="37.178356913" lon="-7.45201888716">
        <ele>8.2</ele>
        <time>2011-03-23T10:07:01Z</time>
      </trkpt>
      <trkpt lat="37.1783472738" lon="-7.45210455018">
        <ele>8.2</ele>
        <time>2011-03-23T10:07:04Z</time>
      </trkpt>
      <trkpt lat="37.1783378861" lon="-7.452188453">
        <ele>8.2</ele>
        <time>2011-03-23T10:07:07Z</time>
      </trkpt>
      <trkpt lat="37.1783329408" lon="-7.45227294255">
        <ele>8.2</ele>
        <time>2011-03-23T10:07:10Z</time>
      </trkpt>
      <trkpt lat="37.1783287498" lon="-7.4523252456">
        <ele>8.2</ele>
        <time>2011-03-23T10:07:12Z</time>
      </trkpt>
      <trkpt lat="37.1783238045" lon="-7.45237671047">
        <ele>8.2</ele>
        <time>2011-03-23T10:07:16Z</time>
      </trkpt>
      <trkpt lat="37.1783214576" lon="-7.45239515065">
        <ele>8.2</ele>
        <time>2011-03-23T10:07:20Z</time>
      </trkpt>
      <trkpt lat="37.178323134" lon="-7.45243831743">
        <ele>8.2</ele>
        <time>2011-03-23T10:07:31Z</time>
      </trkpt>
      <trkpt lat="37.1783244751" lon="-7.4525012655">
        <ele>8.2</ele>
        <time>2011-03-23T10:07:34Z</time>
      </trkpt>
      <trkpt lat="37.1783190268" lon="-7.45256865598">
        <ele>8.2</ele>
        <time>2011-03-23T10:07:37Z</time>
      </trkpt>
      <trkpt lat="37.1783139977" lon="-7.45257863044">
        <ele>8.2</ele>
        <time>2011-03-23T10:07:38Z</time>
      </trkpt>
      <trkpt lat="37.1783063702" lon="-7.45262657491">
        <ele>8.2</ele>
        <time>2011-03-23T10:07:41Z</time>
      </trkpt>
      <trkpt lat="37.1782991617" lon="-7.45268063816">
        <ele>8.2</ele>
        <time>2011-03-23T10:07:44Z</time>
      </trkpt>
      <trkpt lat="37.1782968148" lon="-7.45273084574">
        <ele>8.2</ele>
        <time>2011-03-23T10:07:46Z</time>
      </trkpt>
      <trkpt lat="37.1782918695" lon="-7.45278775884">
        <ele>8.2</ele>
        <time>2011-03-23T10:07:50Z</time>
      </trkpt>
      <trkpt lat="37.1782871756" lon="-7.45283444603">
        <ele>8.2</ele>
        <time>2011-03-23T10:07:52Z</time>
      </trkpt>
      <trkpt lat="37.1782834038" lon="-7.4528991543">
        <ele>8.2</ele>
        <time>2011-03-23T10:07:56Z</time>
      </trkpt>
      <trkpt lat="37.1782777879" lon="-7.45295363665">
        <ele>8.2</ele>
        <time>2011-03-23T10:07:59Z</time>
      </trkpt>
      <trkpt lat="37.1782700765" lon="-7.45300920864">
        <ele>8.2</ele>
        <time>2011-03-23T10:08:02Z</time>
      </trkpt>
      <trkpt lat="37.1782668076" lon="-7.45305966768">
        <ele>8.2</ele>
        <time>2011-03-23T10:08:05Z</time>
      </trkpt>
      <trkpt lat="37.1782643768" lon="-7.45311834098">
        <ele>8.2</ele>
        <time>2011-03-23T10:08:08Z</time>
      </trkpt>
      <trkpt lat="37.1782579228" lon="-7.4531784392">
        <ele>8.2</ele>
        <time>2011-03-23T10:08:11Z</time>
      </trkpt>
      <trkpt lat="37.1782515525" lon="-7.45322831151">
        <ele>8.2</ele>
        <time>2011-03-23T10:08:14Z</time>
      </trkpt>
      <trkpt lat="37.1782537318" lon="-7.4532445724">
        <ele>8.2</ele>
        <time>2011-03-23T10:08:15Z</time>
      </trkpt>
      <trkpt lat="37.1782419133" lon="-7.45331699201">
        <ele>8.2</ele>
        <time>2011-03-23T10:08:19Z</time>
      </trkpt>
      <trkpt lat="37.178238393" lon="-7.45333618656">
        <ele>8</ele>
        <time>2011-03-23T10:08:20Z</time>
      </trkpt>
      <trkpt lat="37.1782312683" lon="-7.45341195894">
        <ele>7.4</ele>
        <time>2011-03-23T10:08:23Z</time>
      </trkpt>
      <trkpt lat="37.1782145884" lon="-7.45350022035">
        <ele>7</ele>
        <time>2011-03-23T10:08:26Z</time>
      </trkpt>
      <trkpt lat="37.1782029375" lon="-7.45355730108">
        <ele>7</ele>
        <time>2011-03-23T10:08:28Z</time>
      </trkpt>
      <trkpt lat="37.1782000877" lon="-7.45362100352">
        <ele>6.8</ele>
        <time>2011-03-23T10:08:30Z</time>
      </trkpt>
      <trkpt lat="37.1781946394" lon="-7.45368126939">
        <ele>6.6</ele>
        <time>2011-03-23T10:08:32Z</time>
      </trkpt>
      <trkpt lat="37.1781861737" lon="-7.45373583555">
        <ele>6.6</ele>
        <time>2011-03-23T10:08:34Z</time>
      </trkpt>
      <trkpt lat="37.1781752772" lon="-7.45381227848">
        <ele>6.4</ele>
        <time>2011-03-23T10:08:37Z</time>
      </trkpt>
      <trkpt lat="37.1781710863" lon="-7.45387036505">
        <ele>6.4</ele>
        <time>2011-03-23T10:08:39Z</time>
      </trkpt>
      <trkpt lat="37.1781648837" lon="-7.4539535135">
        <ele>6.4</ele>
        <time>2011-03-23T10:08:42Z</time>
      </trkpt>
      <trkpt lat="37.1781535681" lon="-7.45402660367">
        <ele>6.2</ele>
        <time>2011-03-23T10:08:45Z</time>
      </trkpt>
      <trkpt lat="37.1781351279" lon="-7.45409994529">
        <ele>6.2</ele>
        <time>2011-03-23T10:08:48Z</time>
      </trkpt>
      <trkpt lat="37.1781282548" lon="-7.45417798078">
        <ele>6.2</ele>
        <time>2011-03-23T10:08:51Z</time>
      </trkpt>
      <trkpt lat="37.1781226389" lon="-7.45421888445">
        <ele>6.2</ele>
        <time>2011-03-23T10:08:52Z</time>
      </trkpt>
      <trkpt lat="37.1781139217" lon="-7.45431594685">
        <ele>6.2</ele>
        <time>2011-03-23T10:08:56Z</time>
      </trkpt>
      <trkpt lat="37.1781052884" lon="-7.45438031985">
        <ele>6.2</ele>
        <time>2011-03-23T10:08:58Z</time>
      </trkpt>
      <trkpt lat="37.1780964874" lon="-7.45446321684">
        <ele>6.2</ele>
        <time>2011-03-23T10:09:01Z</time>
      </trkpt>
      <trkpt lat="37.1780846689" lon="-7.45454359926">
        <ele>6.2</ele>
        <time>2011-03-23T10:09:04Z</time>
      </trkpt>
      <trkpt lat="37.178070252" lon="-7.45462088038">
        <ele>6.2</ele>
        <time>2011-03-23T10:09:07Z</time>
      </trkpt>
      <trkpt lat="37.1780565895" lon="-7.45467997277">
        <ele>6.2</ele>
        <time>2011-03-23T10:09:09Z</time>
      </trkpt>
      <trkpt lat="37.1780404963" lon="-7.45473713733">
        <ele>6.2</ele>
        <time>2011-03-23T10:09:12Z</time>
      </trkpt>
      <trkpt lat="37.1780338746" lon="-7.45479069767">
        <ele>6.2</ele>
        <time>2011-03-23T10:09:15Z</time>
      </trkpt>
      <trkpt lat="37.1780337908" lon="-7.45483855832">
        <ele>6.2</ele>
        <time>2011-03-23T10:09:18Z</time>
      </trkpt>
      <trkpt lat="37.1780409992" lon="-7.45489614197">
        <ele>6.2</ele>
        <time>2011-03-23T10:09:20Z</time>
      </trkpt>
      <trkpt lat="37.178040161" lon="-7.45496269426">
        <ele>6.2</ele>
        <time>2011-03-23T10:09:23Z</time>
      </trkpt>
      <trkpt lat="37.1780338746" lon="-7.45504961456">
        <ele>6.2</ele>
        <time>2011-03-23T10:09:26Z</time>
      </trkpt>
      <trkpt lat="37.1780301866" lon="-7.45513158954">
        <ele>6.2</ele>
        <time>2011-03-23T10:09:28Z</time>
      </trkpt>
      <trkpt lat="37.1780208826" lon="-7.45522018623">
        <ele>6.2</ele>
        <time>2011-03-23T10:09:32Z</time>
      </trkpt>
      <trkpt lat="37.178013758" lon="-7.45527894334">
        <ele>6.2</ele>
        <time>2011-03-23T10:09:34Z</time>
      </trkpt>
      <trkpt lat="37.1780147639" lon="-7.45533702991">
        <ele>6.2</ele>
        <time>2011-03-23T10:09:36Z</time>
      </trkpt>
      <trkpt lat="37.1780053761" lon="-7.45539620613">
        <ele>6.2</ele>
        <time>2011-03-23T10:09:38Z</time>
      </trkpt>
      <trkpt lat="37.1779953179" lon="-7.45548061186">
        <ele>6.2</ele>
        <time>2011-03-23T10:09:41Z</time>
      </trkpt>
      <trkpt lat="37.1779838346" lon="-7.4555708011">
        <ele>6.2</ele>
        <time>2011-03-23T10:09:44Z</time>
      </trkpt>
      <trkpt lat="37.177975788" lon="-7.45563307862">
        <ele>6.2</ele>
        <time>2011-03-23T10:09:46Z</time>
      </trkpt>
      <trkpt lat="37.1779654783" lon="-7.45571899309">
        <ele>6.2</ele>
        <time>2011-03-23T10:09:49Z</time>
      </trkpt>
      <trkpt lat="37.1779622932" lon="-7.45578026478">
        <ele>6.2</ele>
        <time>2011-03-23T10:09:51Z</time>
      </trkpt>
      <trkpt lat="37.1779510614" lon="-7.45586542489">
        <ele>6.2</ele>
        <time>2011-03-23T10:09:54Z</time>
      </trkpt>
      <trkpt lat="37.1779399135" lon="-7.45592921115">
        <ele>6.2</ele>
        <time>2011-03-23T10:09:56Z</time>
      </trkpt>
      <trkpt lat="37.1779343814" lon="-7.45599299741">
        <ele>6.2</ele>
        <time>2011-03-23T10:09:58Z</time>
      </trkpt>
      <trkpt lat="37.177929939" lon="-7.4560534309">
        <ele>6.2</ele>
        <time>2011-03-23T10:10:00Z</time>
      </trkpt>
      <trkpt lat="37.1779254966" lon="-7.45611629515">
        <ele>6.2</ele>
        <time>2011-03-23T10:10:02Z</time>
      </trkpt>
      <trkpt lat="37.1779232335" lon="-7.45616918494">
        <ele>6.2</ele>
        <time>2011-03-23T10:10:04Z</time>
      </trkpt>
      <trkpt lat="37.1779209704" lon="-7.45623548577">
        <ele>6.2</ele>
        <time>2011-03-23T10:10:06Z</time>
      </trkpt>
      <trkpt lat="37.1779129238" lon="-7.45632592647">
        <ele>6.2</ele>
        <time>2011-03-23T10:10:09Z</time>
      </trkpt>
      <trkpt lat="37.1779107445" lon="-7.45639356841">
        <ele>6.2</ele>
        <time>2011-03-23T10:10:11Z</time>
      </trkpt>
      <trkpt lat="37.1779197131" lon="-7.45645978542">
        <ele>6.2</ele>
        <time>2011-03-23T10:10:13Z</time>
      </trkpt>
      <trkpt lat="37.1779424281" lon="-7.45651435159">
        <ele>6.2</ele>
        <time>2011-03-23T10:10:15Z</time>
      </trkpt>
      <trkpt lat="37.177978135" lon="-7.45656179314">
        <ele>6.2</ele>
        <time>2011-03-23T10:10:17Z</time>
      </trkpt>
      <trkpt lat="37.1780177813" lon="-7.45660822886">
        <ele>6.2</ele>
        <time>2011-03-23T10:10:19Z</time>
      </trkpt>
      <trkpt lat="37.1780615349" lon="-7.45664661797">
        <ele>6.2</ele>
        <time>2011-03-23T10:10:21Z</time>
      </trkpt>
      <trkpt lat="37.1781007622" lon="-7.45668022939">
        <ele>6.2</ele>
        <time>2011-03-23T10:10:23Z</time>
      </trkpt>
      <trkpt lat="37.1781430907" lon="-7.45671099096">
        <ele>6.2</ele>
        <time>2011-03-23T10:10:25Z</time>
      </trkpt>
      <trkpt lat="37.1781882692" lon="-7.45674334509">
        <ele>6.2</ele>
        <time>2011-03-23T10:10:27Z</time>
      </trkpt>
      <trkpt lat="37.1782204557" lon="-7.4567848355">
        <ele>6.2</ele>
        <time>2011-03-23T10:10:28Z</time>
      </trkpt>
      <trkpt lat="37.1782472778" lon="-7.45683873111">
        <ele>6.2</ele>
        <time>2011-03-23T10:10:31Z</time>
      </trkpt>
      <trkpt lat="37.1782631196" lon="-7.45689681768">
        <ele>6.2</ele>
        <time>2011-03-23T10:10:33Z</time>
      </trkpt>
      <trkpt lat="37.1782824817" lon="-7.45695289259">
        <ele>6.2</ele>
        <time>2011-03-23T10:10:35Z</time>
      </trkpt>
      <trkpt lat="37.1783016763" lon="-7.45701097916">
        <ele>6.2</ele>
        <time>2011-03-23T10:10:37Z</time>
      </trkpt>
      <trkpt lat="37.178314333" lon="-7.45706814372">
        <ele>6.2</ele>
        <time>2011-03-23T10:10:39Z</time>
      </trkpt>
      <trkpt lat="37.1783245589" lon="-7.45716847506">
        <ele>6.2</ele>
        <time>2011-03-23T10:10:42Z</time>
      </trkpt>
      <trkpt lat="37.178331432" lon="-7.45724592382">
        <ele>6.2</ele>
        <time>2011-03-23T10:10:45Z</time>
      </trkpt>
      <trkpt lat="37.178338389" lon="-7.45729805924">
        <ele>6.2</ele>
        <time>2011-03-23T10:10:46Z</time>
      </trkpt>
      <trkpt lat="37.17834719" lon="-7.45735991766">
        <ele>6.2</ele>
        <time>2011-03-23T10:10:49Z</time>
      </trkpt>
      <trkpt lat="37.1783630318" lon="-7.45741440001">
        <ele>6.2</ele>
        <time>2011-03-23T10:10:51Z</time>
      </trkpt>
      <trkpt lat="37.1783916141" lon="-7.45748572998">
        <ele>6.2</ele>
        <time>2011-03-23T10:10:54Z</time>
      </trkpt>
      <trkpt lat="37.1784144129" lon="-7.45753711102">
        <ele>6.2</ele>
        <time>2011-03-23T10:10:56Z</time>
      </trkpt>
      <trkpt lat="37.1784374631" lon="-7.45759779598">
        <ele>6.2</ele>
        <time>2011-03-23T10:10:58Z</time>
      </trkpt>
      <trkpt lat="37.1784295841" lon="-7.45762554007">
        <ele>6.2</ele>
        <time>2011-03-23T10:11:00Z</time>
      </trkpt>
      <trkpt lat="37.1784103057" lon="-7.45767231107">
        <ele>6.2</ele>
        <time>2011-03-23T10:11:02Z</time>
      </trkpt>
      <trkpt lat="37.178395805" lon="-7.45768748231">
        <ele>6.2</ele>
        <time>2011-03-23T10:11:03Z</time>
      </trkpt>
      <trkpt lat="37.1783720004" lon="-7.45785386302">
        <ele>6.2</ele>
        <time>2011-03-23T10:11:09Z</time>
      </trkpt>
      <trkpt lat="37.1783685639" lon="-7.45793407781">
        <ele>6.2</ele>
        <time>2011-03-23T10:11:12Z</time>
      </trkpt>
      <trkpt lat="37.178361104" lon="-7.45801680716">
        <ele>6.2</ele>
        <time>2011-03-23T10:11:15Z</time>
      </trkpt>
      <trkpt lat="37.1783574159" lon="-7.45809886596">
        <ele>6.2</ele>
        <time>2011-03-23T10:11:18Z</time>
      </trkpt>
      <trkpt lat="37.1783683962" lon="-7.4581877141">
        <ele>6.2</ele>
        <time>2011-03-23T10:11:21Z</time>
      </trkpt>
      <trkpt lat="37.1783786221" lon="-7.4582715331">
        <ele>6.2</ele>
        <time>2011-03-23T10:11:24Z</time>
      </trkpt>
      <trkpt lat="37.178391195" lon="-7.45832618309">
        <ele>6.2</ele>
        <time>2011-03-23T10:11:26Z</time>
      </trkpt>
      <trkpt lat="37.1784020915" lon="-7.45839583668">
        <ele>6.2</ele>
        <time>2011-03-23T10:11:29Z</time>
      </trkpt>
      <trkpt lat="37.1784046898" lon="-7.45842316167">
        <ele>6.2</ele>
        <time>2011-03-23T10:11:30Z</time>
      </trkpt>
      <trkpt lat="37.1784496168" lon="-7.45848619356">
        <ele>6.2</ele>
        <time>2011-03-23T10:11:33Z</time>
      </trkpt>
      <trkpt lat="37.1784806299" lon="-7.45853514386">
        <ele>6.2</ele>
        <time>2011-03-23T10:11:35Z</time>
      </trkpt>
      <trkpt lat="37.1785145766" lon="-7.45857881356">
        <ele>6.2</ele>
        <time>2011-03-23T10:11:37Z</time>
      </trkpt>
      <trkpt lat="37.1785480203" lon="-7.4586200525">
        <ele>6.2</ele>
        <time>2011-03-23T10:11:39Z</time>
      </trkpt>
      <trkpt lat="37.1785874153" lon="-7.45865668141">
        <ele>6.2</ele>
        <time>2011-03-23T10:11:41Z</time>
      </trkpt>
      <trkpt lat="37.1786433225" lon="-7.45869649543">
        <ele>6.2</ele>
        <time>2011-03-23T10:11:44Z</time>
      </trkpt>
      <trkpt lat="37.1786856511" lon="-7.45872675409">
        <ele>6.2</ele>
        <time>2011-03-23T10:11:46Z</time>
      </trkpt>
      <trkpt lat="37.1787487668" lon="-7.4587514807">
        <ele>6.2</ele>
        <time>2011-03-23T10:11:49Z</time>
      </trkpt>
      <trkpt lat="37.1788182528" lon="-7.45875801858">
        <ele>6.2</ele>
        <time>2011-03-23T10:11:52Z</time>
      </trkpt>
      <trkpt lat="37.1788770099" lon="-7.45875290562">
        <ele>6.2</ele>
        <time>2011-03-23T10:11:55Z</time>
      </trkpt>
      <trkpt lat="37.1789211825" lon="-7.45874293116">
        <ele>6.2</ele>
        <time>2011-03-23T10:11:57Z</time>
      </trkpt>
      <trkpt lat="37.1789474179" lon="-7.45874829557">
        <ele>6.2</ele>
        <time>2011-03-23T10:11:59Z</time>
      </trkpt>
      <trkpt lat="37.1789219369" lon="-7.45881426113">
        <ele>6.2</ele>
        <time>2011-03-23T10:12:03Z</time>
      </trkpt>
      <trkpt lat="37.1788936899" lon="-7.4588635467">
        <ele>6.2</ele>
        <time>2011-03-23T10:12:06Z</time>
      </trkpt>
      <trkpt lat="37.1788532053" lon="-7.45891408956">
        <ele>6.2</ele>
        <time>2011-03-23T10:12:09Z</time>
      </trkpt>
      <trkpt lat="37.1788156544" lon="-7.45897167321">
        <ele>6.2</ele>
        <time>2011-03-23T10:12:11Z</time>
      </trkpt>
      <trkpt lat="37.1787818753" lon="-7.45903638148">
        <ele>6.2</ele>
        <time>2011-03-23T10:12:15Z</time>
      </trkpt>
      <trkpt lat="37.1787555562" lon="-7.45911491988">
        <ele>6.2</ele>
        <time>2011-03-23T10:12:18Z</time>
      </trkpt>
      <trkpt lat="37.1787308296" lon="-7.45916722294">
        <ele>6.2</ele>
        <time>2011-03-23T10:12:20Z</time>
      </trkpt>
      <trkpt lat="37.1787071088" lon="-7.45924374968">
        <ele>6.2</ele>
        <time>2011-03-23T10:12:23Z</time>
      </trkpt>
      <trkpt lat="37.1786855673" lon="-7.45932019261">
        <ele>6.2</ele>
        <time>2011-03-23T10:12:26Z</time>
      </trkpt>
      <trkpt lat="37.1786651155" lon="-7.45939462388">
        <ele>6.2</ele>
        <time>2011-03-23T10:12:28Z</time>
      </trkpt>
      <trkpt lat="37.1786474297" lon="-7.45946570239">
        <ele>6.2</ele>
        <time>2011-03-23T10:12:32Z</time>
      </trkpt>
      <trkpt lat="37.1786240442" lon="-7.45953787055">
        <ele>6.2</ele>
        <time>2011-03-23T10:12:35Z</time>
      </trkpt>
      <trkpt lat="37.1786087891" lon="-7.45961188273">
        <ele>6.2</ele>
        <time>2011-03-23T10:12:38Z</time>
      </trkpt>
      <trkpt lat="37.178593115" lon="-7.45968338034">
        <ele>6.2</ele>
        <time>2011-03-23T10:12:41Z</time>
      </trkpt>
      <trkpt lat="37.1785718249" lon="-7.45976183492">
        <ele>6.2</ele>
        <time>2011-03-23T10:12:44Z</time>
      </trkpt>
      <trkpt lat="37.1785590844" lon="-7.45981916712">
        <ele>6.2</ele>
        <time>2011-03-23T10:12:46Z</time>
      </trkpt>
      <trkpt lat="37.1785398061" lon="-7.45988915598">
        <ele>6.2</ele>
        <time>2011-03-23T10:12:49Z</time>
      </trkpt>
      <trkpt lat="37.178517594" lon="-7.45997548955">
        <ele>6.2</ele>
        <time>2011-03-23T10:12:52Z</time>
      </trkpt>
      <trkpt lat="37.178495382" lon="-7.46004614897">
        <ele>6.2</ele>
        <time>2011-03-23T10:12:55Z</time>
      </trkpt>
      <trkpt lat="37.1784879221" lon="-7.4600656788">
        <ele>6.2</ele>
        <time>2011-03-23T10:12:59Z</time>
      </trkpt>
      <trkpt lat="37.1784611839" lon="-7.46015209619">
        <ele>6.2</ele>
        <time>2011-03-23T10:13:13Z</time>
      </trkpt>
      <trkpt lat="37.1784432466" lon="-7.46023842975">
        <ele>6.2</ele>
        <time>2011-03-23T10:13:16Z</time>
      </trkpt>
      <trkpt lat="37.1784304223" lon="-7.46030028818">
        <ele>6.2</ele>
        <time>2011-03-23T10:13:18Z</time>
      </trkpt>
      <trkpt lat="37.1784155025" lon="-7.46037983241">
        <ele>6.2</ele>
        <time>2011-03-23T10:13:21Z</time>
      </trkpt>
      <trkpt lat="37.1783896862" lon="-7.46045099474">
        <ele>6.2</ele>
        <time>2011-03-23T10:13:24Z</time>
      </trkpt>
      <trkpt lat="37.1783651273" lon="-7.4605284435">
        <ele>6.2</ele>
        <time>2011-03-23T10:13:27Z</time>
      </trkpt>
      <trkpt lat="37.1783500399" lon="-7.4605783158">
        <ele>6.2</ele>
        <time>2011-03-23T10:13:28Z</time>
      </trkpt>
      <trkpt lat="37.1783251456" lon="-7.46065836295">
        <ele>6.2</ele>
        <time>2011-03-23T10:13:32Z</time>
      </trkpt>
      <trkpt lat="37.178306454" lon="-7.46073648225">
        <ele>6.2</ele>
        <time>2011-03-23T10:13:35Z</time>
      </trkpt>
      <trkpt lat="37.1782907798" lon="-7.46083128154">
        <ele>6.2</ele>
        <time>2011-03-23T10:13:38Z</time>
      </trkpt>
      <trkpt lat="37.1782880976" lon="-7.46089707946">
        <ele>6.2</ele>
        <time>2011-03-23T10:13:40Z</time>
      </trkpt>
      <trkpt lat="37.1782843258" lon="-7.46097486349">
        <ele>6.2</ele>
        <time>2011-03-23T10:13:42Z</time>
      </trkpt>
      <trkpt lat="37.1782792966" lon="-7.46106002359">
        <ele>6.2</ele>
        <time>2011-03-23T10:13:45Z</time>
      </trkpt>
      <trkpt lat="37.1782735969" lon="-7.46114686008">
        <ele>6.2</ele>
        <time>2011-03-23T10:13:47Z</time>
      </trkpt>
      <trkpt lat="37.1782683163" lon="-7.46122171044">
        <ele>6.2</ele>
        <time>2011-03-23T10:13:50Z</time>
      </trkpt>
      <trkpt lat="37.1782655503" lon="-7.46128247922">
        <ele>6.2</ele>
        <time>2011-03-23T10:13:51Z</time>
      </trkpt>
      <trkpt lat="37.1782637901" lon="-7.46134752276">
        <ele>6.2</ele>
        <time>2011-03-23T10:13:53Z</time>
      </trkpt>
      <trkpt lat="37.1782602697" lon="-7.46141726017">
        <ele>6.2</ele>
        <time>2011-03-23T10:13:55Z</time>
      </trkpt>
      <trkpt lat="37.1782552406" lon="-7.46150216882">
        <ele>6.2</ele>
        <time>2011-03-23T10:13:58Z</time>
      </trkpt>
      <trkpt lat="37.1782507143" lon="-7.46156302141">
        <ele>6.2</ele>
        <time>2011-03-23T10:14:00Z</time>
      </trkpt>
      <trkpt lat="37.1782352078" lon="-7.46165362975">
        <ele>6.2</ele>
        <time>2011-03-23T10:14:03Z</time>
      </trkpt>
      <trkpt lat="37.1782167676" lon="-7.46175580511">
        <ele>6.2</ele>
        <time>2011-03-23T10:14:08Z</time>
      </trkpt>
      <trkpt lat="37.1782061226" lon="-7.46183300241">
        <ele>6.2</ele>
        <time>2011-03-23T10:14:09Z</time>
      </trkpt>
      <trkpt lat="37.178198076" lon="-7.46189846505">
        <ele>6.2</ele>
        <time>2011-03-23T10:14:11Z</time>
      </trkpt>
      <trkpt lat="37.1781912029" lon="-7.46196023965">
        <ele>6.2</ele>
        <time>2011-03-23T10:14:13Z</time>
      </trkpt>
      <trkpt lat="37.1781945556" lon="-7.46205604477">
        <ele>6.2</ele>
        <time>2011-03-23T10:14:16Z</time>
      </trkpt>
      <trkpt lat="37.1781958129" lon="-7.46211337697">
        <ele>6.2</ele>
        <time>2011-03-23T10:14:18Z</time>
      </trkpt>
      <trkpt lat="37.1781991657" lon="-7.46220138692">
        <ele>6.2</ele>
        <time>2011-03-23T10:14:21Z</time>
      </trkpt>
      <trkpt lat="37.1782067094" lon="-7.46226282624">
        <ele>6.2</ele>
        <time>2011-03-23T10:14:23Z</time>
      </trkpt>
      <trkpt lat="37.1782089725" lon="-7.46234647761">
        <ele>6.2</ele>
        <time>2011-03-23T10:14:26Z</time>
      </trkpt>
      <trkpt lat="37.1782143369" lon="-7.46240875512">
        <ele>6.2</ele>
        <time>2011-03-23T10:14:28Z</time>
      </trkpt>
      <trkpt lat="37.1782248981" lon="-7.46247069736">
        <ele>6.2</ele>
        <time>2011-03-23T10:14:30Z</time>
      </trkpt>
      <trkpt lat="37.1782318551" lon="-7.46253523799">
        <ele>6.2</ele>
        <time>2011-03-23T10:14:32Z</time>
      </trkpt>
      <trkpt lat="37.178239315" lon="-7.46259114527">
        <ele>6.2</ele>
        <time>2011-03-23T10:14:34Z</time>
      </trkpt>
      <trkpt lat="37.1782440088" lon="-7.46265493153">
        <ele>6.2</ele>
        <time>2011-03-23T10:14:36Z</time>
      </trkpt>
      <trkpt lat="37.178246691" lon="-7.46271477829">
        <ele>6.2</ele>
        <time>2011-03-23T10:14:38Z</time>
      </trkpt>
      <trkpt lat="37.1782519716" lon="-7.46277579852">
        <ele>6.2</ele>
        <time>2011-03-23T10:14:40Z</time>
      </trkpt>
      <trkpt lat="37.1782623652" lon="-7.46283329836">
        <ele>6.2</ele>
        <time>2011-03-23T10:14:43Z</time>
      </trkpt>
      <trkpt lat="37.1782706633" lon="-7.46289322894">
        <ele>6.2</ele>
        <time>2011-03-23T10:14:45Z</time>
      </trkpt>
      <trkpt lat="37.1782751057" lon="-7.46295198606">
        <ele>6.2</ele>
        <time>2011-03-23T10:14:46Z</time>
      </trkpt>
      <trkpt lat="37.1782799672" lon="-7.46301116228">
        <ele>6.2</ele>
        <time>2011-03-23T10:14:48Z</time>
      </trkpt>
      <trkpt lat="37.1782901931" lon="-7.46308324662">
        <ele>6.2</ele>
        <time>2011-03-23T10:14:51Z</time>
      </trkpt>
      <trkpt lat="37.1783033527" lon="-7.46316144974">
        <ele>6.2</ele>
        <time>2011-03-23T10:14:54Z</time>
      </trkpt>
      <trkpt lat="37.1783150035" lon="-7.46324434673">
        <ele>6.2</ele>
        <time>2011-03-23T10:14:57Z</time>
      </trkpt>
      <trkpt lat="37.1783299233" lon="-7.46330293621">
        <ele>6.2</ele>
        <time>2011-03-23T10:15:00Z</time>
      </trkpt>
      <trkpt lat="37.1783387243" lon="-7.46338013351">
        <ele>6.2</ele>
        <time>2011-03-23T10:15:03Z</time>
      </trkpt>
      <trkpt lat="37.17834258" lon="-7.46346026448">
        <ele>6.2</ele>
        <time>2011-03-23T10:15:05Z</time>
      </trkpt>
      <trkpt lat="37.1783459327" lon="-7.46353620449">
        <ele>6.2</ele>
        <time>2011-03-23T10:15:08Z</time>
      </trkpt>
      <trkpt lat="37.1783414065" lon="-7.46359781146">
        <ele>6.2</ele>
        <time>2011-03-23T10:15:11Z</time>
      </trkpt>
      <trkpt lat="37.1783460165" lon="-7.46369353275">
        <ele>6.2</ele>
        <time>2011-03-23T10:15:15Z</time>
      </trkpt>
      <trkpt lat="37.1783475253" lon="-7.46375379862">
        <ele>6.4</ele>
        <time>2011-03-23T10:15:18Z</time>
      </trkpt>
      <trkpt lat="37.1783561586" lon="-7.46380853242">
        <ele>6.6</ele>
        <time>2011-03-23T10:15:20Z</time>
      </trkpt>
      <trkpt lat="37.1783714137" lon="-7.46388891484">
        <ele>7</ele>
        <time>2011-03-23T10:15:23Z</time>
      </trkpt>
      <trkpt lat="37.1783811367" lon="-7.46396024481">
        <ele>7.4</ele>
        <time>2011-03-23T10:15:26Z</time>
      </trkpt>
      <trkpt lat="37.1783845733" lon="-7.46403559809">
        <ele>7.6</ele>
        <time>2011-03-23T10:15:28Z</time>
      </trkpt>
      <trkpt lat="37.1783867526" lon="-7.46411044846">
        <ele>7.8</ele>
        <time>2011-03-23T10:15:31Z</time>
      </trkpt>
      <trkpt lat="37.1783938772" lon="-7.4641776713">
        <ele>8.2</ele>
        <time>2011-03-23T10:15:34Z</time>
      </trkpt>
      <trkpt lat="37.1784042708" lon="-7.46423072873">
        <ele>8.6</ele>
        <time>2011-03-23T10:15:36Z</time>
      </trkpt>
      <trkpt lat="37.1784076235" lon="-7.46434648276">
        <ele>9.2</ele>
        <time>2011-03-23T10:15:41Z</time>
      </trkpt>
      <trkpt lat="37.1784082941" lon="-7.46437565178">
        <ele>9.4</ele>
        <time>2011-03-23T10:15:42Z</time>
      </trkpt>
      <trkpt lat="37.1784061986" lon="-7.46442820629">
        <ele>9.6</ele>
        <time>2011-03-23T10:15:43Z</time>
      </trkpt>
      <trkpt lat="37.1784223757" lon="-7.46450967836">
        <ele>9.8</ele>
        <time>2011-03-23T10:15:47Z</time>
      </trkpt>
      <trkpt lat="37.1784298355" lon="-7.46453339913">
        <ele>9.8</ele>
        <time>2011-03-23T10:15:48Z</time>
      </trkpt>
      <trkpt lat="37.1784305061" lon="-7.46456064031">
        <ele>9.8</ele>
        <time>2011-03-23T10:15:49Z</time>
      </trkpt>
      <trkpt lat="37.1784422408" lon="-7.46462082235">
        <ele>10</ele>
        <time>2011-03-23T10:15:51Z</time>
      </trkpt>
      <trkpt lat="37.1784554003" lon="-7.46471076014">
        <ele>10</ele>
        <time>2011-03-23T10:15:54Z</time>
      </trkpt>
      <trkpt lat="37.1784652072" lon="-7.46479432768">
        <ele>10.2</ele>
        <time>2011-03-23T10:15:57Z</time>
      </trkpt>
      <trkpt lat="37.1784828092" lon="-7.4648782305">
        <ele>10.4</ele>
        <time>2011-03-23T10:16:00Z</time>
      </trkpt>
      <trkpt lat="37.1784906881" lon="-7.46494050802">
        <ele>10.8</ele>
        <time>2011-03-23T10:16:03Z</time>
      </trkpt>
      <trkpt lat="37.1785027581" lon="-7.46502332119">
        <ele>11.2</ele>
        <time>2011-03-23T10:16:06Z</time>
      </trkpt>
      <trkpt lat="37.1785123973" lon="-7.46510445798">
        <ele>11.4</ele>
        <time>2011-03-23T10:16:08Z</time>
      </trkpt>
      <trkpt lat="37.1785246348" lon="-7.46519196502">
        <ele>11.8</ele>
        <time>2011-03-23T10:16:12Z</time>
      </trkpt>
      <trkpt lat="37.1785378782" lon="-7.46525692474">
        <ele>11.8</ele>
        <time>2011-03-23T10:16:14Z</time>
      </trkpt>
      <trkpt lat="37.1785476851" lon="-7.46535490915">
        <ele>12</ele>
        <time>2011-03-23T10:16:18Z</time>
      </trkpt>
      <trkpt lat="37.1785559831" lon="-7.46544384111">
        <ele>12</ele>
        <time>2011-03-23T10:16:21Z</time>
      </trkpt>
      <trkpt lat="37.1785646165" lon="-7.46552120605">
        <ele>12.2</ele>
        <time>2011-03-23T10:16:23Z</time>
      </trkpt>
      <trkpt lat="37.1785743395" lon="-7.46554149025">
        <ele>12.2</ele>
        <time>2011-03-23T10:16:25Z</time>
      </trkpt>
      <trkpt lat="37.1785862418" lon="-7.46564358179">
        <ele>12.8</ele>
        <time>2011-03-23T10:16:28Z</time>
      </trkpt>
      <trkpt lat="37.1785895107" lon="-7.4656731699">
        <ele>13</ele>
        <time>2011-03-23T10:16:30Z</time>
      </trkpt>
      <trkpt lat="37.1786019998" lon="-7.46576059311">
        <ele>13.4</ele>
        <time>2011-03-23T10:16:33Z</time>
      </trkpt>
      <trkpt lat="37.178614405" lon="-7.4658368684">
        <ele>13.6</ele>
        <time>2011-03-23T10:16:36Z</time>
      </trkpt>
      <trkpt lat="37.1786237927" lon="-7.46592169323">
        <ele>13.8</ele>
        <time>2011-03-23T10:16:38Z</time>
      </trkpt>
      <trkpt lat="37.1786432387" lon="-7.46599905817">
        <ele>14</ele>
        <time>2011-03-23T10:16:42Z</time>
      </trkpt>
      <trkpt lat="37.1786553087" lon="-7.46607466291">
        <ele>14</ele>
        <time>2011-03-23T10:16:45Z</time>
      </trkpt>
      <trkpt lat="37.1786689712" lon="-7.46614632815">
        <ele>14.2</ele>
        <time>2011-03-23T10:16:48Z</time>
      </trkpt>
      <trkpt lat="37.1786909317" lon="-7.46622176525">
        <ele>14.2</ele>
        <time>2011-03-23T10:16:51Z</time>
      </trkpt>
      <trkpt lat="37.178704259" lon="-7.46630390787">
        <ele>14.2</ele>
        <time>2011-03-23T10:16:53Z</time>
      </trkpt>
      <trkpt lat="37.1787243755" lon="-7.46637917733">
        <ele>14.2</ele>
        <time>2011-03-23T10:16:57Z</time>
      </trkpt>
      <trkpt lat="37.1787284826" lon="-7.46646886366">
        <ele>14.4</ele>
        <time>2011-03-23T10:17:00Z</time>
      </trkpt>
      <trkpt lat="37.1787419775" lon="-7.46654614478">
        <ele>14.4</ele>
        <time>2011-03-23T10:17:03Z</time>
      </trkpt>
      <trkpt lat="37.1787641895" lon="-7.46662317444">
        <ele>14.4</ele>
        <time>2011-03-23T10:17:06Z</time>
      </trkpt>
      <trkpt lat="37.1787953702" lon="-7.46668545196">
        <ele>14.4</ele>
        <time>2011-03-23T10:17:08Z</time>
      </trkpt>
      <trkpt lat="37.1788402972" lon="-7.4667390123">
        <ele>14.4</ele>
        <time>2011-03-23T10:17:12Z</time>
      </trkpt>
      <trkpt lat="37.1788909239" lon="-7.46678142471">
        <ele>14.4</ele>
        <time>2011-03-23T10:17:15Z</time>
      </trkpt>
      <trkpt lat="37.1789479208" lon="-7.46680707333">
        <ele>14.4</ele>
        <time>2011-03-23T10:17:18Z</time>
      </trkpt>
      <trkpt lat="37.1790086896" lon="-7.46682048437">
        <ele>14.4</ele>
        <time>2011-03-23T10:17:21Z</time>
      </trkpt>
      <trkpt lat="37.1790558797" lon="-7.46682224457">
        <ele>14.4</ele>
        <time>2011-03-23T10:17:23Z</time>
      </trkpt>
      <trkpt lat="37.1791179057" lon="-7.46683892455">
        <ele>14.4</ele>
        <time>2011-03-23T10:17:26Z</time>
      </trkpt>
      <trkpt lat="37.1791592285" lon="-7.46687999586">
        <ele>14.4</ele>
        <time>2011-03-23T10:17:28Z</time>
      </trkpt>
      <trkpt lat="37.1791745674" lon="-7.46695275075">
        <ele>14.4</ele>
        <time>2011-03-23T10:17:32Z</time>
      </trkpt>
      <trkpt lat="37.1791731424" lon="-7.46704084452">
        <ele>14.4</ele>
        <time>2011-03-23T10:17:35Z</time>
      </trkpt>
      <trkpt lat="37.1791738968" lon="-7.46711879619">
        <ele>14.4</ele>
        <time>2011-03-23T10:17:38Z</time>
      </trkpt>
      <trkpt lat="37.179176579" lon="-7.46719658022">
        <ele>14.4</ele>
        <time>2011-03-23T10:17:41Z</time>
      </trkpt>
      <trkpt lat="37.1791733939" lon="-7.46726807783">
        <ele>14.4</ele>
        <time>2011-03-23T10:17:43Z</time>
      </trkpt>
      <trkpt lat="37.1791764114" lon="-7.46728794293">
        <ele>14.4</ele>
        <time>2011-03-23T10:17:45Z</time>
      </trkpt>
      <trkpt lat="37.1791759923" lon="-7.4673941416">
        <ele>14.8</ele>
        <time>2011-03-23T10:17:48Z</time>
      </trkpt>
      <trkpt lat="37.1791795127" lon="-7.46744736667">
        <ele>15</ele>
        <time>2011-03-23T10:17:51Z</time>
      </trkpt>
      <trkpt lat="37.1791763276" lon="-7.46753135331">
        <ele>15.4</ele>
        <time>2011-03-23T10:17:53Z</time>
      </trkpt>
      <trkpt lat="37.1791760761" lon="-7.46755566082">
        <ele>15.6</ele>
        <time>2011-03-23T10:17:55Z</time>
      </trkpt>
      <trkpt lat="37.1791545346" lon="-7.46766370351">
        <ele>15.8</ele>
        <time>2011-03-23T10:17:58Z</time>
      </trkpt>
      <trkpt lat="37.1791549537" lon="-7.46768851393">
        <ele>15.8</ele>
        <time>2011-03-23T10:18:00Z</time>
      </trkpt>
      <trkpt lat="37.1791474938" lon="-7.46779731099">
        <ele>16</ele>
        <time>2011-03-23T10:18:03Z</time>
      </trkpt>
      <trkpt lat="37.1791478291" lon="-7.4678842313">
        <ele>16.2</ele>
        <time>2011-03-23T10:18:07Z</time>
      </trkpt>
      <trkpt lat="37.1791479967" lon="-7.46796251824">
        <ele>16.2</ele>
        <time>2011-03-23T10:18:09Z</time>
      </trkpt>
      <trkpt lat="37.1791514333" lon="-7.46804256539">
        <ele>16.2</ele>
        <time>2011-03-23T10:18:13Z</time>
      </trkpt>
      <trkpt lat="37.1791559595" lon="-7.46810274743">
        <ele>16.4</ele>
        <time>2011-03-23T10:18:15Z</time>
      </trkpt>
      <trkpt lat="37.1791618269" lon="-7.46814792587">
        <ele>16.4</ele>
        <time>2011-03-23T10:18:17Z</time>
      </trkpt>
      <trkpt lat="37.1791532773" lon="-7.4682697987">
        <ele>16.4</ele>
        <time>2011-03-23T10:18:21Z</time>
      </trkpt>
      <trkpt lat="37.1791513495" lon="-7.46834565489">
        <ele>16.4</ele>
        <time>2011-03-23T10:18:23Z</time>
      </trkpt>
      <trkpt lat="37.1791522715" lon="-7.46842980917">
        <ele>16.8</ele>
        <time>2011-03-23T10:18:27Z</time>
      </trkpt>
      <trkpt lat="37.1791537803" lon="-7.46851019159">
        <ele>17.2</ele>
        <time>2011-03-23T10:18:30Z</time>
      </trkpt>
      <trkpt lat="37.179145566" lon="-7.46859107692">
        <ele>17.6</ele>
        <time>2011-03-23T10:18:33Z</time>
      </trkpt>
      <trkpt lat="37.1791425485" lon="-7.46866408327">
        <ele>17.8</ele>
        <time>2011-03-23T10:18:36Z</time>
      </trkpt>
      <trkpt lat="37.1791309815" lon="-7.46874589062">
        <ele>18</ele>
        <time>2011-03-23T10:18:38Z</time>
      </trkpt>
      <trkpt lat="37.1791216776" lon="-7.4688292067">
        <ele>18.2</ele>
        <time>2011-03-23T10:18:42Z</time>
      </trkpt>
      <trkpt lat="37.1791151397" lon="-7.46890564963">
        <ele>18.2</ele>
        <time>2011-03-23T10:18:45Z</time>
      </trkpt>
      <trkpt lat="37.1791047461" lon="-7.46899349194">
        <ele>18.4</ele>
        <time>2011-03-23T10:18:48Z</time>
      </trkpt>
      <trkpt lat="37.1790954422" lon="-7.46907001869">
        <ele>18.4</ele>
        <time>2011-03-23T10:18:51Z</time>
      </trkpt>
      <trkpt lat="37.1791023154" lon="-7.46914394705">
        <ele>18.6</ele>
        <time>2011-03-23T10:18:53Z</time>
      </trkpt>
      <trkpt lat="37.1791170675" lon="-7.46921636666">
        <ele>19.2</ele>
        <time>2011-03-23T10:18:57Z</time>
      </trkpt>
      <trkpt lat="37.1791157264" lon="-7.46929188758">
        <ele>19.6</ele>
        <time>2011-03-23T10:19:00Z</time>
      </trkpt>
      <trkpt lat="37.179083959" lon="-7.46935785314">
        <ele>19.8</ele>
        <time>2011-03-23T10:19:03Z</time>
      </trkpt>
      <trkpt lat="37.1790428039" lon="-7.46941099438">
        <ele>20</ele>
        <time>2011-03-23T10:19:06Z</time>
      </trkpt>
      <trkpt lat="37.1790161495" lon="-7.46943111094">
        <ele>20.2</ele>
        <time>2011-03-23T10:19:07Z</time>
      </trkpt>
      <trkpt lat="37.1789577276" lon="-7.46948626384">
        <ele>20.2</ele>
        <time>2011-03-23T10:19:11Z</time>
      </trkpt>
      <trkpt lat="37.1789120463" lon="-7.46952993354">
        <ele>20.4</ele>
        <time>2011-03-23T10:19:13Z</time>
      </trkpt>
      <trkpt lat="37.1788711426" lon="-7.46957427379">
        <ele>20.4</ele>
        <time>2011-03-23T10:19:16Z</time>
      </trkpt>
      <trkpt lat="37.1788331726" lon="-7.46961744058">
        <ele>20.4</ele>
        <time>2011-03-23T10:19:18Z</time>
      </trkpt>
      <trkpt lat="37.1787826297" lon="-7.46965960154">
        <ele>20.4</ele>
        <time>2011-03-23T10:19:22Z</time>
      </trkpt>
      <trkpt lat="37.1787333441" lon="-7.46970628872">
        <ele>20.4</ele>
        <time>2011-03-23T10:19:25Z</time>
      </trkpt>
      <trkpt lat="37.1786830527" lon="-7.4697547361">
        <ele>20.6</ele>
        <time>2011-03-23T10:19:28Z</time>
      </trkpt>
      <trkpt lat="37.1786377067" lon="-7.46978750933">
        <ele>20.6</ele>
        <time>2011-03-23T10:19:31Z</time>
      </trkpt>
      <trkpt lat="37.1785812965" lon="-7.46981215212">
        <ele>20.6</ele>
        <time>2011-03-23T10:19:33Z</time>
      </trkpt>
      <trkpt lat="37.1785244672" lon="-7.46983402888">
        <ele>20.6</ele>
        <time>2011-03-23T10:19:37Z</time>
      </trkpt>
      <trkpt lat="37.178471326" lon="-7.46986160533">
        <ele>20.6</ele>
        <time>2011-03-23T10:19:40Z</time>
      </trkpt>
      <trkpt lat="37.1784213698" lon="-7.46989597112">
        <ele>20.6</ele>
        <time>2011-03-23T10:19:43Z</time>
      </trkpt>
      <trkpt lat="37.1783856629" lon="-7.46993159419">
        <ele>20.4</ele>
        <time>2011-03-23T10:19:46Z</time>
      </trkpt>
      <trkpt lat="37.1783636185" lon="-7.46993930554">
        <ele>20.2</ele>
        <time>2011-03-23T10:19:47Z</time>
      </trkpt>
      <trkpt lat="37.1783077113" lon="-7.4699832267">
        <ele>19.8</ele>
        <time>2011-03-23T10:19:50Z</time>
      </trkpt>
      <trkpt lat="37.17826664" lon="-7.47001759249">
        <ele>19.4</ele>
        <time>2011-03-23T10:19:53Z</time>
      </trkpt>
      <trkpt lat="37.1782488703" lon="-7.47004449838">
        <ele>19.2</ele>
        <time>2011-03-23T10:19:57Z</time>
      </trkpt>
      <trkpt lat="37.1782547377" lon="-7.47005480812">
        <ele>18</ele>
        <time>2011-03-23T10:20:03Z</time>
      </trkpt>
      <trkpt lat="37.1782407399" lon="-7.47009629853">
        <ele>17</ele>
        <time>2011-03-23T10:20:16Z</time>
      </trkpt>
      <trkpt lat="37.1782507143" lon="-7.47011616363">
        <ele>15.8</ele>
        <time>2011-03-23T10:20:21Z</time>
      </trkpt>
      <trkpt lat="37.1782574199" lon="-7.47012747919">
        <ele>15.6</ele>
        <time>2011-03-23T10:20:23Z</time>
      </trkpt>
      <trkpt lat="37.1782881814" lon="-7.47017743532">
        <ele>15.2</ele>
        <time>2011-03-23T10:20:27Z</time>
      </trkpt>
      <trkpt lat="37.1783372156" lon="-7.47021255548">
        <ele>15</ele>
        <time>2011-03-23T10:20:30Z</time>
      </trkpt>
      <trkpt lat="37.1783846571" lon="-7.47024247886">
        <ele>14.8</ele>
        <time>2011-03-23T10:20:33Z</time>
      </trkpt>
      <trkpt lat="37.1784394747" lon="-7.47026997149">
        <ele>14.6</ele>
        <time>2011-03-23T10:20:36Z</time>
      </trkpt>
      <trkpt lat="37.1784975613" lon="-7.47029947578">
        <ele>14.6</ele>
        <time>2011-03-23T10:20:39Z</time>
      </trkpt>
      <trkpt lat="37.1785593359" lon="-7.47031112662">
        <ele>14.6</ele>
        <time>2011-03-23T10:20:42Z</time>
      </trkpt>
      <trkpt lat="37.1786160814" lon="-7.47033199755">
        <ele>14.4</ele>
        <time>2011-03-23T10:20:45Z</time>
      </trkpt>
      <trkpt lat="37.1786761796" lon="-7.47034716879">
        <ele>14.4</ele>
        <time>2011-03-23T10:20:48Z</time>
      </trkpt>
      <trkpt lat="37.178732506" lon="-7.47036443551">
        <ele>14.4</ele>
        <time>2011-03-23T10:20:51Z</time>
      </trkpt>
      <trkpt lat="37.1787856472" lon="-7.47038815628">
        <ele>14.4</ele>
        <time>2011-03-23T10:20:53Z</time>
      </trkpt>
      <trkpt lat="37.1788443205" lon="-7.47040483627">
        <ele>14.4</ele>
        <time>2011-03-23T10:20:57Z</time>
      </trkpt>
      <trkpt lat="37.1789004792" lon="-7.47042109715">
        <ele>14.4</ele>
        <time>2011-03-23T10:21:00Z</time>
      </trkpt>
      <trkpt lat="37.1789579791" lon="-7.47044406356">
        <ele>14.4</ele>
        <time>2011-03-23T10:21:03Z</time>
      </trkpt>
      <trkpt lat="37.1790113718" lon="-7.47047306493">
        <ele>14.4</ele>
        <time>2011-03-23T10:21:06Z</time>
      </trkpt>
      <trkpt lat="37.1790604897" lon="-7.47051430388">
        <ele>14.4</ele>
        <time>2011-03-23T10:21:09Z</time>
      </trkpt>
      <trkpt lat="37.1791142177" lon="-7.47056132634">
        <ele>14.4</ele>
        <time>2011-03-23T10:21:12Z</time>
      </trkpt>
      <trkpt lat="37.1791620783" lon="-7.47060826498">
        <ele>14.4</ele>
        <time>2011-03-23T10:21:15Z</time>
      </trkpt>
      <trkpt lat="37.1792077597" lon="-7.47067079395">
        <ele>14.4</ele>
        <time>2011-03-23T10:21:18Z</time>
      </trkpt>
      <trkpt lat="37.1792601466" lon="-7.47072301319">
        <ele>14.4</ele>
        <time>2011-03-23T10:21:21Z</time>
      </trkpt>
      <trkpt lat="37.1793039839" lon="-7.47077858519">
        <ele>14.4</ele>
        <time>2011-03-23T10:21:24Z</time>
      </trkpt>
      <trkpt lat="37.1793462287" lon="-7.47083742612">
        <ele>14.4</ele>
        <time>2011-03-23T10:21:27Z</time>
      </trkpt>
      <trkpt lat="37.179397023" lon="-7.47089174084">
        <ele>14.4</ele>
        <time>2011-03-23T10:21:30Z</time>
      </trkpt>
      <trkpt lat="37.1794435425" lon="-7.47094907303">
        <ele>14.4</ele>
        <time>2011-03-23T10:21:33Z</time>
      </trkpt>
      <trkpt lat="37.1794833566" lon="-7.47100640523">
        <ele>14.4</ele>
        <time>2011-03-23T10:21:36Z</time>
      </trkpt>
      <trkpt lat="37.1795209913" lon="-7.47106348597">
        <ele>14.4</ele>
        <time>2011-03-23T10:21:39Z</time>
      </trkpt>
      <trkpt lat="37.1795517529" lon="-7.47111252008">
        <ele>14.4</ele>
        <time>2011-03-23T10:21:41Z</time>
      </trkpt>
      <trkpt lat="37.1795953387" lon="-7.47116901409">
        <ele>14.4</ele>
        <time>2011-03-23T10:21:44Z</time>
      </trkpt>
      <trkpt lat="37.1796373321" lon="-7.47120916339">
        <ele>14.4</ele>
        <time>2011-03-23T10:21:46Z</time>
      </trkpt>
      <trkpt lat="37.1796789063" lon="-7.47126993216">
        <ele>14.4</ele>
        <time>2011-03-23T10:21:48Z</time>
      </trkpt>
      <trkpt lat="37.1797239171" lon="-7.47133137149">
        <ele>14.4</ele>
        <time>2011-03-23T10:21:52Z</time>
      </trkpt>
      <trkpt lat="37.179774879" lon="-7.47138694349">
        <ele>14.4</ele>
        <time>2011-03-23T10:21:55Z</time>
      </trkpt>
      <trkpt lat="37.1798156989" lon="-7.47144645498">
        <ele>14.4</ele>
        <time>2011-03-23T10:21:57Z</time>
      </trkpt>
      <trkpt lat="37.1798327142" lon="-7.47147134922">
        <ele>14.4</ele>
        <time>2011-03-23T10:21:59Z</time>
      </trkpt>
      <trkpt lat="37.1798949078" lon="-7.47153362674">
        <ele>14.4</ele>
        <time>2011-03-23T10:22:02Z</time>
      </trkpt>
      <trkpt lat="37.1799277649" lon="-7.47159230004">
        <ele>14.4</ele>
        <time>2011-03-23T10:22:05Z</time>
      </trkpt>
      <trkpt lat="37.1799355601" lon="-7.47161627227">
        <ele>14.4</ele>
        <time>2011-03-23T10:22:06Z</time>
      </trkpt>
      <trkpt lat="37.179957353" lon="-7.47166865915">
        <ele>14.4</ele>
        <time>2011-03-23T10:22:08Z</time>
      </trkpt>
      <trkpt lat="37.1799770505" lon="-7.47174686227">
        <ele>14.4</ele>
        <time>2011-03-23T10:22:11Z</time>
      </trkpt>
      <trkpt lat="37.1799851809" lon="-7.47182288611">
        <ele>14.4</ele>
        <time>2011-03-23T10:22:13Z</time>
      </trkpt>
      <trkpt lat="37.1799879469" lon="-7.47190720802">
        <ele>14.4</ele>
        <time>2011-03-23T10:22:17Z</time>
      </trkpt>
      <trkpt lat="37.1799878631" lon="-7.47198733899">
        <ele>14.4</ele>
        <time>2011-03-23T10:22:20Z</time>
      </trkpt>
      <trkpt lat="37.1799761285" lon="-7.47206587739">
        <ele>14.4</ele>
        <time>2011-03-23T10:22:23Z</time>
      </trkpt>
      <trkpt lat="37.1799646453" lon="-7.47212170084">
        <ele>14.4</ele>
        <time>2011-03-23T10:22:25Z</time>
      </trkpt>
      <trkpt lat="37.1799404216" lon="-7.47219764086">
        <ele>14.6</ele>
        <time>2011-03-23T10:22:28Z</time>
      </trkpt>
      <trkpt lat="37.1799276811" lon="-7.47227140158">
        <ele>15</ele>
        <time>2011-03-23T10:22:31Z</time>
      </trkpt>
      <trkpt lat="37.1799125098" lon="-7.47232730885">
        <ele>15.4</ele>
        <time>2011-03-23T10:22:33Z</time>
      </trkpt>
      <trkpt lat="37.1798994341" lon="-7.4723972139">
        <ele>15.6</ele>
        <time>2011-03-23T10:22:36Z</time>
      </trkpt>
      <trkpt lat="37.1798872803" lon="-7.47245597101">
        <ele>15.8</ele>
        <time>2011-03-23T10:22:38Z</time>
      </trkpt>
      <trkpt lat="37.1798726958" lon="-7.47253258158">
        <ele>16</ele>
        <time>2011-03-23T10:22:41Z</time>
      </trkpt>
      <trkpt lat="37.1798608773" lon="-7.47260257045">
        <ele>16</ele>
        <time>2011-03-23T10:22:44Z</time>
      </trkpt>
      <trkpt lat="37.1798506514" lon="-7.47268278523">
        <ele>16.2</ele>
        <time>2011-03-23T10:22:47Z</time>
      </trkpt>
      <trkpt lat="37.1798505676" lon="-7.47275780323">
        <ele>16.2</ele>
        <time>2011-03-23T10:22:50Z</time>
      </trkpt>
      <trkpt lat="37.1798476339" lon="-7.47283516817">
        <ele>16.2</ele>
        <time>2011-03-23T10:22:53Z</time>
      </trkpt>
      <trkpt lat="37.1798536689" lon="-7.47291236547">
        <ele>16.2</ele>
        <time>2011-03-23T10:22:56Z</time>
      </trkpt>
      <trkpt lat="37.1798637272" lon="-7.47298738347">
        <ele>16.4</ele>
        <time>2011-03-23T10:22:59Z</time>
      </trkpt>
      <trkpt lat="37.1798765515" lon="-7.47306969373">
        <ele>16.4</ele>
        <time>2011-03-23T10:23:02Z</time>
      </trkpt>
      <trkpt lat="37.1798969195" lon="-7.47314479556">
        <ele>16.4</ele>
        <time>2011-03-23T10:23:05Z</time>
      </trkpt>
      <trkpt lat="37.1799136833" lon="-7.47322266341">
        <ele>16.4</ele>
        <time>2011-03-23T10:23:08Z</time>
      </trkpt>
      <trkpt lat="37.179933297" lon="-7.47329214936">
        <ele>16.4</ele>
        <time>2011-03-23T10:23:11Z</time>
      </trkpt>
      <trkpt lat="37.1799566825" lon="-7.4733558518">
        <ele>16.4</ele>
        <time>2011-03-23T10:23:14Z</time>
      </trkpt>
      <trkpt lat="37.1799850133" lon="-7.47343506075">
        <ele>16.4</ele>
        <time>2011-03-23T10:23:17Z</time>
      </trkpt>
      <trkpt lat="37.1800144337" lon="-7.47350697746">
        <ele>16.4</ele>
        <time>2011-03-23T10:23:20Z</time>
      </trkpt>
      <trkpt lat="37.1800470393" lon="-7.4735790618">
        <ele>16.4</ele>
        <time>2011-03-23T10:23:23Z</time>
      </trkpt>
      <trkpt lat="37.1800829977" lon="-7.47364653609">
        <ele>16.4</ele>
        <time>2011-03-23T10:23:26Z</time>
      </trkpt>
      <trkpt lat="37.1801210515" lon="-7.47371208255">
        <ele>16.4</ele>
        <time>2011-03-23T10:23:29Z</time>
      </trkpt>
      <trkpt lat="37.1801582671" lon="-7.47377486298">
        <ele>16.4</ele>
        <time>2011-03-23T10:23:32Z</time>
      </trkpt>
      <trkpt lat="37.1801876038" lon="-7.47384007416">
        <ele>16.4</ele>
        <time>2011-03-23T10:23:35Z</time>
      </trkpt>
      <trkpt lat="37.1802165214" lon="-7.47390771609">
        <ele>16.4</ele>
        <time>2011-03-23T10:23:38Z</time>
      </trkpt>
      <trkpt lat="37.1802440978" lon="-7.47397468748">
        <ele>16.4</ele>
        <time>2011-03-23T10:23:41Z</time>
      </trkpt>
      <trkpt lat="37.1802637114" lon="-7.47401927918">
        <ele>16.4</ele>
        <time>2011-03-23T10:23:43Z</time>
      </trkpt>
      <trkpt lat="37.1802948921" lon="-7.47411449757">
        <ele>16.4</ele>
        <time>2011-03-23T10:23:47Z</time>
      </trkpt>
      <trkpt lat="37.180306543" lon="-7.47413905653">
        <ele>16.4</ele>
        <time>2011-03-23T10:23:48Z</time>
      </trkpt>
      <trkpt lat="37.1803456026" lon="-7.4742377115">
        <ele>16.4</ele>
        <time>2011-03-23T10:23:52Z</time>
      </trkpt>
      <trkpt lat="37.1803737658" lon="-7.47431574699">
        <ele>16.4</ele>
        <time>2011-03-23T10:23:55Z</time>
      </trkpt>
      <trkpt lat="37.1804014261" lon="-7.47438255073">
        <ele>16.4</ele>
        <time>2011-03-23T10:23:58Z</time>
      </trkpt>
      <trkpt lat="37.1804327744" lon="-7.47445798783">
        <ele>16.4</ele>
        <time>2011-03-23T10:24:01Z</time>
      </trkpt>
      <trkpt lat="37.1804532262" lon="-7.47451649349">
        <ele>16.4</ele>
        <time>2011-03-23T10:24:03Z</time>
      </trkpt>
      <trkpt lat="37.1804680622" lon="-7.47456787454">
        <ele>16.4</ele>
        <time>2011-03-23T10:24:05Z</time>
      </trkpt>
      <trkpt lat="37.180492705" lon="-7.47464155144">
        <ele>16.4</ele>
        <time>2011-03-23T10:24:08Z</time>
      </trkpt>
      <trkpt lat="37.1805169286" lon="-7.47469242957">
        <ele>16.4</ele>
        <time>2011-03-23T10:24:10Z</time>
      </trkpt>
      <trkpt lat="37.1805369614" lon="-7.47474431353">
        <ele>16.4</ele>
        <time>2011-03-23T10:24:12Z</time>
      </trkpt>
      <trkpt lat="37.1805466006" lon="-7.4747971195">
        <ele>16.4</ele>
        <time>2011-03-23T10:24:14Z</time>
      </trkpt>
      <trkpt lat="37.1805879233" lon="-7.47491203535">
        <ele>16.4</ele>
        <time>2011-03-23T10:24:19Z</time>
      </trkpt>
      <trkpt lat="37.1806157512" lon="-7.47497992874">
        <ele>16.4</ele>
        <time>2011-03-23T10:24:22Z</time>
      </trkpt>
      <trkpt lat="37.1806440821" lon="-7.4750441341">
        <ele>16.4</ele>
        <time>2011-03-23T10:24:25Z</time>
      </trkpt>
      <trkpt lat="37.1806676352" lon="-7.47511219512">
        <ele>16.4</ele>
        <time>2011-03-23T10:24:28Z</time>
      </trkpt>
      <trkpt lat="37.1806925295" lon="-7.47518260308">
        <ele>16.4</ele>
        <time>2011-03-23T10:24:31Z</time>
      </trkpt>
      <trkpt lat="37.1807166693" lon="-7.47524244985">
        <ele>16.4</ele>
        <time>2011-03-23T10:24:33Z</time>
      </trkpt>
      <trkpt lat="37.1807479338" lon="-7.47530631993">
        <ele>16.4</ele>
        <time>2011-03-23T10:24:37Z</time>
      </trkpt>
      <trkpt lat="37.1807817129" lon="-7.47537739844">
        <ele>16.6</ele>
        <time>2011-03-23T10:24:40Z</time>
      </trkpt>
      <trkpt lat="37.1808106304" lon="-7.47544504037">
        <ele>17</ele>
        <time>2011-03-23T10:24:43Z</time>
      </trkpt>
      <trkpt lat="37.1808365305" lon="-7.47550849136">
        <ele>17.4</ele>
        <time>2011-03-23T10:24:45Z</time>
      </trkpt>
      <trkpt lat="37.1808656995" lon="-7.47558292263">
        <ele>17.8</ele>
        <time>2011-03-23T10:24:49Z</time>
      </trkpt>
      <trkpt lat="37.1808949523" lon="-7.47565626425">
        <ele>18</ele>
        <time>2011-03-23T10:24:52Z</time>
      </trkpt>
      <trkpt lat="37.1809226126" lon="-7.47572566639">
        <ele>18</ele>
        <time>2011-03-23T10:24:55Z</time>
      </trkpt>
      <trkpt lat="37.1809412204" lon="-7.47579951092">
        <ele>18.2</ele>
        <time>2011-03-23T10:24:58Z</time>
      </trkpt>
      <trkpt lat="37.1809689645" lon="-7.47586849396">
        <ele>18.2</ele>
        <time>2011-03-23T10:25:01Z</time>
      </trkpt>
      <trkpt lat="37.1809702218" lon="-7.4758938073">
        <ele>18.2</ele>
        <time>2011-03-23T10:25:02Z</time>
      </trkpt>
      <trkpt lat="37.1809988879" lon="-7.47595843175">
        <ele>18.2</ele>
        <time>2011-03-23T10:25:05Z</time>
      </trkpt>
      <trkpt lat="37.18100903" lon="-7.47597812921">
        <ele>18.4</ele>
        <time>2011-03-23T10:25:06Z</time>
      </trkpt>
      <trkpt lat="37.1810304038" lon="-7.47605876309">
        <ele>18.8</ele>
        <time>2011-03-23T10:25:09Z</time>
      </trkpt>
      <trkpt lat="37.1810528673" lon="-7.47613621185">
        <ele>19.4</ele>
        <time>2011-03-23T10:25:12Z</time>
      </trkpt>
      <trkpt lat="37.1810681224" lon="-7.47618600033">
        <ele>19.6</ele>
        <time>2011-03-23T10:25:14Z</time>
      </trkpt>
      <trkpt lat="37.1810888257" lon="-7.47626386818">
        <ele>19.8</ele>
        <time>2011-03-23T10:25:17Z</time>
      </trkpt>
      <trkpt lat="37.1811112892" lon="-7.47631382431">
        <ele>20</ele>
        <time>2011-03-23T10:25:19Z</time>
      </trkpt>
      <trkpt lat="37.1811361834" lon="-7.47639479346">
        <ele>20</ele>
        <time>2011-03-23T10:25:22Z</time>
      </trkpt>
      <trkpt lat="37.1811516061" lon="-7.47644265411">
        <ele>20.2</ele>
        <time>2011-03-23T10:25:24Z</time>
      </trkpt>
      <trkpt lat="37.1811819486" lon="-7.47651113423">
        <ele>20.2</ele>
        <time>2011-03-23T10:25:27Z</time>
      </trkpt>
      <trkpt lat="37.1812081001" lon="-7.47658137456">
        <ele>20.2</ele>
        <time>2011-03-23T10:25:30Z</time>
      </trkpt>
      <trkpt lat="37.181226205" lon="-7.47663242033">
        <ele>20.6</ele>
        <time>2011-03-23T10:25:32Z</time>
      </trkpt>
      <trkpt lat="37.1812525242" lon="-7.47670936617">
        <ele>21</ele>
        <time>2011-03-23T10:25:35Z</time>
      </trkpt>
      <trkpt lat="37.1812703776" lon="-7.47676091485">
        <ele>21.4</ele>
        <time>2011-03-23T10:25:37Z</time>
      </trkpt>
      <trkpt lat="37.1812837049" lon="-7.47680927842">
        <ele>21.6</ele>
        <time>2011-03-23T10:25:39Z</time>
      </trkpt>
      <trkpt lat="37.1812996305" lon="-7.47686795172">
        <ele>21.8</ele>
        <time>2011-03-23T10:25:41Z</time>
      </trkpt>
      <trkpt lat="37.1813243571" lon="-7.47694062279">
        <ele>22.4</ele>
        <time>2011-03-23T10:25:44Z</time>
      </trkpt>
      <trkpt lat="37.181353107" lon="-7.47698228083">
        <ele>22.8</ele>
        <time>2011-03-23T10:25:46Z</time>
      </trkpt>
      <trkpt lat="37.1813842877" lon="-7.47704128941">
        <ele>23.2</ele>
        <time>2011-03-23T10:25:49Z</time>
      </trkpt>
      <trkpt lat="37.1814006324" lon="-7.47709736432">
        <ele>23.6</ele>
        <time>2011-03-23T10:25:51Z</time>
      </trkpt>
      <trkpt lat="37.1814198269" lon="-7.47714128548">
        <ele>23.8</ele>
        <time>2011-03-23T10:25:53Z</time>
      </trkpt>
      <trkpt lat="37.1814388538" lon="-7.4771912416">
        <ele>24.2</ele>
        <time>2011-03-23T10:25:55Z</time>
      </trkpt>
      <trkpt lat="37.1814604791" lon="-7.47726483468">
        <ele>25</ele>
        <time>2011-03-23T10:25:58Z</time>
      </trkpt>
      <trkpt lat="37.1814847028" lon="-7.47734085852">
        <ele>25.4</ele>
        <time>2011-03-23T10:26:01Z</time>
      </trkpt>
      <trkpt lat="37.1815118602" lon="-7.47740498005">
        <ele>25.8</ele>
        <time>2011-03-23T10:26:04Z</time>
      </trkpt>
      <trkpt lat="37.181540191" lon="-7.47747002359">
        <ele>26.6</ele>
        <time>2011-03-23T10:26:07Z</time>
      </trkpt>
      <trkpt lat="37.1815572901" lon="-7.47749801914">
        <ele>27</ele>
        <time>2011-03-23T10:26:08Z</time>
      </trkpt>
      <trkpt lat="37.1815989481" lon="-7.4775684271">
        <ele>27.4</ele>
        <time>2011-03-23T10:26:12Z</time>
      </trkpt>
      <trkpt lat="37.1816438751" lon="-7.47762651367">
        <ele>27.8</ele>
        <time>2011-03-23T10:26:15Z</time>
      </trkpt>
      <trkpt lat="37.1818057296" lon="-7.4777448661">
        <ele>28.2</ele>
        <time>2011-03-23T10:26:24Z</time>
      </trkpt>
      <trkpt lat="37.1818280254" lon="-7.47775886387">
        <ele>28.6</ele>
        <time>2011-03-23T10:26:25Z</time>
      </trkpt>
      <trkpt lat="37.1818819211" lon="-7.4777933973">
        <ele>29.2</ele>
        <time>2011-03-23T10:26:28Z</time>
      </trkpt>
      <trkpt lat="37.1819430251" lon="-7.47781485496">
        <ele>29.6</ele>
        <time>2011-03-23T10:26:31Z</time>
      </trkpt>
      <trkpt lat="37.1820053026" lon="-7.47783547443">
        <ele>29.8</ele>
        <time>2011-03-23T10:26:34Z</time>
      </trkpt>
      <trkpt lat="37.1820626348" lon="-7.47786631983">
        <ele>30.2</ele>
        <time>2011-03-23T10:26:37Z</time>
      </trkpt>
      <trkpt lat="37.1821179554" lon="-7.47789297427">
        <ele>30.2</ele>
        <time>2011-03-23T10:26:40Z</time>
      </trkpt>
      <trkpt lat="37.1821645587" lon="-7.47791652741">
        <ele>30.4</ele>
        <time>2011-03-23T10:26:42Z</time>
      </trkpt>
      <trkpt lat="37.1822169456" lon="-7.47794200838">
        <ele>30.4</ele>
        <time>2011-03-23T10:26:45Z</time>
      </trkpt>
      <trkpt lat="37.1822747807" lon="-7.47797033921">
        <ele>30.6</ele>
        <time>2011-03-23T10:26:48Z</time>
      </trkpt>
      <trkpt lat="37.182332532" lon="-7.47799925676">
        <ele>30.6</ele>
        <time>2011-03-23T10:26:51Z</time>
      </trkpt>
      <trkpt lat="37.1823870982" lon="-7.47802658175">
        <ele>30.6</ele>
        <time>2011-03-23T10:26:54Z</time>
      </trkpt>
      <trkpt lat="37.1824456877" lon="-7.47805709187">
        <ele>30.6</ele>
        <time>2011-03-23T10:26:57Z</time>
      </trkpt>
      <trkpt lat="37.1825021817" lon="-7.47808718289">
        <ele>30.6</ele>
        <time>2011-03-23T10:27:00Z</time>
      </trkpt>
      <trkpt lat="37.1825476954" lon="-7.47810981402">
        <ele>30.6</ele>
        <time>2011-03-23T10:27:02Z</time>
      </trkpt>
      <trkpt lat="37.1825947178" lon="-7.47813780957">
        <ele>30.8</ele>
        <time>2011-03-23T10:27:05Z</time>
      </trkpt>
      <trkpt lat="37.1826394772" lon="-7.47816111125">
        <ele>30.8</ele>
        <time>2011-03-23T10:27:07Z</time>
      </trkpt>
      <trkpt lat="37.182692367" lon="-7.47819421975">
        <ele>30.8</ele>
        <time>2011-03-23T10:27:10Z</time>
      </trkpt>
      <trkpt lat="37.1827841488" lon="-7.47824702572">
        <ele>30.8</ele>
        <time>2011-03-23T10:27:15Z</time>
      </trkpt>
      <trkpt lat="37.1828436603" lon="-7.47827083032">
        <ele>30.8</ele>
        <time>2011-03-23T10:27:18Z</time>
      </trkpt>
      <trkpt lat="37.1828935326" lon="-7.47831257218">
        <ele>30.8</ele>
        <time>2011-03-23T10:27:21Z</time>
      </trkpt>
      <trkpt lat="37.1829450813" lon="-7.47835355967">
        <ele>30.8</ele>
        <time>2011-03-23T10:27:24Z</time>
      </trkpt>
      <trkpt lat="37.183000318" lon="-7.47839094295">
        <ele>30.8</ele>
        <time>2011-03-23T10:27:27Z</time>
      </trkpt>
      <trkpt lat="37.1830440715" lon="-7.47842312944">
        <ele>30.8</ele>
        <time>2011-03-23T10:27:30Z</time>
      </trkpt>
      <trkpt lat="37.1830985538" lon="-7.47845489684">
        <ele>30.8</ele>
        <time>2011-03-23T10:27:33Z</time>
      </trkpt>
      <trkpt lat="37.1831438161" lon="-7.47849295067">
        <ele>30.8</ele>
        <time>2011-03-23T10:27:36Z</time>
      </trkpt>
      <trkpt lat="37.1831877373" lon="-7.47853209414">
        <ele>30.8</ele>
        <time>2011-03-23T10:27:39Z</time>
      </trkpt>
      <trkpt lat="37.1832574747" lon="-7.47856696285">
        <ele>30.8</ele>
        <time>2011-03-23T10:27:42Z</time>
      </trkpt>
      <trkpt lat="37.1833126276" lon="-7.47859110272">
        <ele>30.8</ele>
        <time>2011-03-23T10:27:45Z</time>
      </trkpt>
      <trkpt lat="37.1833774197" lon="-7.47861691897">
        <ele>30.8</ele>
        <time>2011-03-23T10:27:48Z</time>
      </trkpt>
      <trkpt lat="37.1834340813" lon="-7.47864239995">
        <ele>30.8</ele>
        <time>2011-03-23T10:27:51Z</time>
      </trkpt>
      <trkpt lat="37.1834912459" lon="-7.47867383207">
        <ele>30.8</ele>
        <time>2011-03-23T10:27:54Z</time>
      </trkpt>
      <trkpt lat="37.1835530205" lon="-7.47870518038">
        <ele>30.8</ele>
        <time>2011-03-23T10:27:57Z</time>
      </trkpt>
      <trkpt lat="37.1836136216" lon="-7.47874298275">
        <ele>30.8</ele>
        <time>2011-03-23T10:28:00Z</time>
      </trkpt>
      <trkpt lat="37.1836609793" lon="-7.47876812845">
        <ele>30.8</ele>
        <time>2011-03-23T10:28:02Z</time>
      </trkpt>
      <trkpt lat="37.1837141206" lon="-7.47880073404">
        <ele>30.8</ele>
        <time>2011-03-23T10:28:05Z</time>
      </trkpt>
      <trkpt lat="37.1837753085" lon="-7.47883350727">
        <ele>30.8</ele>
        <time>2011-03-23T10:28:08Z</time>
      </trkpt>
      <trkpt lat="37.1838335627" lon="-7.4788662805">
        <ele>30.8</ele>
        <time>2011-03-23T10:28:11Z</time>
      </trkpt>
      <trkpt lat="37.1838872068" lon="-7.47890056247">
        <ele>30.8</ele>
        <time>2011-03-23T10:28:14Z</time>
      </trkpt>
      <trkpt lat="37.1839499872" lon="-7.47893350333">
        <ele>30.8</ele>
        <time>2011-03-23T10:28:17Z</time>
      </trkpt>
      <trkpt lat="37.1839918967" lon="-7.47895429045">
        <ele>30.8</ele>
        <time>2011-03-23T10:28:19Z</time>
      </trkpt>
      <trkpt lat="37.1840345606" lon="-7.47897809504">
        <ele>30.8</ele>
        <time>2011-03-23T10:28:21Z</time>
      </trkpt>
      <trkpt lat="37.1840900488" lon="-7.47900952717">
        <ele>30.8</ele>
        <time>2011-03-23T10:28:24Z</time>
      </trkpt>
      <trkpt lat="37.1841483868" lon="-7.4790489221">
        <ele>30.8</ele>
        <time>2011-03-23T10:28:27Z</time>
      </trkpt>
      <trkpt lat="37.1842091556" lon="-7.47908018658">
        <ele>30.8</ele>
        <time>2011-03-23T10:28:30Z</time>
      </trkpt>
      <trkpt lat="37.1842683318" lon="-7.47910927178">
        <ele>30.8</ele>
        <time>2011-03-23T10:28:33Z</time>
      </trkpt>
      <trkpt lat="37.1843273404" lon="-7.47914036863">
        <ele>30.8</ele>
        <time>2011-03-23T10:28:36Z</time>
      </trkpt>
      <trkpt lat="37.1843898694" lon="-7.47916492759">
        <ele>30.8</ele>
        <time>2011-03-23T10:28:39Z</time>
      </trkpt>
      <trkpt lat="37.1844394902" lon="-7.47918278104">
        <ele>30.8</ele>
        <time>2011-03-23T10:28:41Z</time>
      </trkpt>
      <trkpt lat="37.1845079703" lon="-7.4792015565">
        <ele>30.8</ele>
        <time>2011-03-23T10:28:44Z</time>
      </trkpt>
      <trkpt lat="37.1845582617" lon="-7.47921572191">
        <ele>30.8</ele>
        <time>2011-03-23T10:28:46Z</time>
      </trkpt>
      <trkpt lat="37.1846088046" lon="-7.47922033195">
        <ele>30.8</ele>
        <time>2011-03-23T10:28:48Z</time>
      </trkpt>
      <trkpt lat="37.1846580902" lon="-7.47922049959">
        <ele>30.8</ele>
        <time>2011-03-23T10:28:50Z</time>
      </trkpt>
      <trkpt lat="37.1847050288" lon="-7.4792210025">
        <ele>30.8</ele>
        <time>2011-03-23T10:28:52Z</time>
      </trkpt>
      <trkpt lat="37.1847492852" lon="-7.4792315637">
        <ele>30.8</ele>
        <time>2011-03-23T10:28:54Z</time>
      </trkpt>
      <trkpt lat="37.1848014207" lon="-7.47923600611">
        <ele>30.8</ele>
        <time>2011-03-23T10:28:56Z</time>
      </trkpt>
      <trkpt lat="37.1848677215" lon="-7.47924933333">
        <ele>30.8</ele>
        <time>2011-03-23T10:28:59Z</time>
      </trkpt>
      <trkpt lat="37.184909631" lon="-7.47926676768">
        <ele>30.8</ele>
        <time>2011-03-23T10:29:01Z</time>
      </trkpt>
      <trkpt lat="37.1849557314" lon="-7.47929711016">
        <ele>30.8</ele>
        <time>2011-03-23T10:29:04Z</time>
      </trkpt>
      <trkpt lat="37.1849886723" lon="-7.47933097303">
        <ele>30.8</ele>
        <time>2011-03-23T10:29:07Z</time>
      </trkpt>
      <trkpt lat="37.1850150753" lon="-7.47936047732">
        <ele>30.8</ele>
        <time>2011-03-23T10:29:11Z</time>
      </trkpt>
      <trkpt lat="37.1850342698" lon="-7.47940364411">
        <ele>30.8</ele>
        <time>2011-03-23T10:29:15Z</time>
      </trkpt>
      <trkpt lat="37.1850496925" lon="-7.47943733934">
        <ele>30.8</ele>
        <time>2011-03-23T10:29:18Z</time>
      </trkpt>
      <trkpt lat="37.1850527938" lon="-7.47945016365">
        <ele>30.8</ele>
        <time>2011-03-23T10:29:19Z</time>
      </trkpt>
      <trkpt lat="37.1850677974" lon="-7.47949643174">
        <ele>30.4</ele>
        <time>2011-03-23T10:29:22Z</time>
      </trkpt>
      <trkpt lat="37.1850801188" lon="-7.47951864377">
        <ele>30</ele>
        <time>2011-03-23T10:29:24Z</time>
      </trkpt>
      <trkpt lat="37.1850852318" lon="-7.47957455105">
        <ele>29.6</ele>
        <time>2011-03-23T10:29:28Z</time>
      </trkpt>
      <trkpt lat="37.1850896742" lon="-7.47962056768">
        <ele>29.4</ele>
        <time>2011-03-23T10:29:31Z</time>
      </trkpt>
      <trkpt lat="37.1850859023" lon="-7.47965803477">
        <ele>29.2</ele>
        <time>2011-03-23T10:29:33Z</time>
      </trkpt>
      <trkpt lat="37.185085148" lon="-7.47970673361">
        <ele>29</ele>
        <time>2011-03-23T10:29:37Z</time>
      </trkpt>
      <trkpt lat="37.1850831363" lon="-7.47974629618">
        <ele>29</ele>
        <time>2011-03-23T10:29:40Z</time>
      </trkpt>
      <trkpt lat="37.1850801188" lon="-7.47979214517">
        <ele>28.6</ele>
        <time>2011-03-23T10:29:43Z</time>
      </trkpt>
      <trkpt lat="37.1850783586" lon="-7.47983447376">
        <ele>28.2</ele>
        <time>2011-03-23T10:29:46Z</time>
      </trkpt>
      <trkpt lat="37.1850742515" lon="-7.47988074185">
        <ele>27.8</ele>
        <time>2011-03-23T10:29:49Z</time>
      </trkpt>
      <trkpt lat="37.1850745868" lon="-7.47991913096">
        <ele>27.4</ele>
        <time>2011-03-23T10:29:52Z</time>
      </trkpt>
      <trkpt lat="37.1850690547" lon="-7.4799656505">
        <ele>27.2</ele>
        <time>2011-03-23T10:29:55Z</time>
      </trkpt>
      <trkpt lat="37.1850671269" lon="-7.4800146008">
        <ele>27</ele>
        <time>2011-03-23T10:29:58Z</time>
      </trkpt>
      <trkpt lat="37.185060589" lon="-7.48006782586">
        <ele>27</ele>
        <time>2011-03-23T10:30:01Z</time>
      </trkpt>
      <trkpt lat="37.1850552246" lon="-7.48011719525">
        <ele>26.8</ele>
        <time>2011-03-23T10:30:04Z</time>
      </trkpt>
      <trkpt lat="37.1850442443" lon="-7.48021065344">
        <ele>26.8</ele>
        <time>2011-03-23T10:30:10Z</time>
      </trkpt>
      <trkpt lat="37.1850365329" lon="-7.48026899146">
        <ele>26.8</ele>
        <time>2011-03-23T10:30:14Z</time>
      </trkpt>
      <trkpt lat="37.1850321744" lon="-7.48031760648">
        <ele>26.8</ele>
        <time>2011-03-23T10:30:17Z</time>
      </trkpt>
      <trkpt lat="37.1850243792" lon="-7.48036253347">
        <ele>26.8</ele>
        <time>2011-03-23T10:30:20Z</time>
      </trkpt>
      <trkpt lat="37.1850167517" lon="-7.48041316014">
        <ele>26.6</ele>
        <time>2011-03-23T10:30:23Z</time>
      </trkpt>
      <trkpt lat="37.1850082859" lon="-7.48046177516">
        <ele>26.6</ele>
        <time>2011-03-23T10:30:26Z</time>
      </trkpt>
      <trkpt lat="37.1850018319" lon="-7.48050720506">
        <ele>26.6</ele>
        <time>2011-03-23T10:30:29Z</time>
      </trkpt>
      <trkpt lat="37.1849946234" lon="-7.48055875374">
        <ele>26.6</ele>
        <time>2011-03-23T10:30:32Z</time>
      </trkpt>
      <trkpt lat="37.1849801228" lon="-7.48062212091">
        <ele>26.6</ele>
        <time>2011-03-23T10:30:35Z</time>
      </trkpt>
      <trkpt lat="37.1849709865" lon="-7.48068967902">
        <ele>26.6</ele>
        <time>2011-03-23T10:30:38Z</time>
      </trkpt>
      <trkpt lat="37.1849580784" lon="-7.48075438729">
        <ele>26.6</ele>
        <time>2011-03-23T10:30:41Z</time>
      </trkpt>
      <trkpt lat="37.1849480201" lon="-7.48082001757">
        <ele>26.6</ele>
        <time>2011-03-23T10:30:44Z</time>
      </trkpt>
      <trkpt lat="37.1849355311" lon="-7.48088841387">
        <ele>26.6</ele>
        <time>2011-03-23T10:30:47Z</time>
      </trkpt>
      <trkpt lat="37.1849186834" lon="-7.48095840274">
        <ele>26.6</ele>
        <time>2011-03-23T10:30:50Z</time>
      </trkpt>
      <trkpt lat="37.1849060268" lon="-7.48103207964">
        <ele>26.6</ele>
        <time>2011-03-23T10:30:53Z</time>
      </trkpt>
      <trkpt lat="37.184887838" lon="-7.48110651091">
        <ele>26.6</ele>
        <time>2011-03-23T10:30:56Z</time>
      </trkpt>
      <trkpt lat="37.1848721639" lon="-7.48117859525">
        <ele>26.6</ele>
        <time>2011-03-23T10:30:59Z</time>
      </trkpt>
      <trkpt lat="37.1848554001" lon="-7.48126543173">
        <ele>26.6</ele>
        <time>2011-03-23T10:31:02Z</time>
      </trkpt>
      <trkpt lat="37.1848433302" lon="-7.48132611669">
        <ele>26.6</ele>
        <time>2011-03-23T10:31:05Z</time>
      </trkpt>
      <trkpt lat="37.1848298353" lon="-7.48139602174">
        <ele>26.6</ele>
        <time>2011-03-23T10:31:08Z</time>
      </trkpt>
      <trkpt lat="37.1848135744" lon="-7.48146374749">
        <ele>26.6</ele>
        <time>2011-03-23T10:31:11Z</time>
      </trkpt>
      <trkpt lat="37.1847890993" lon="-7.48153356871">
        <ele>26.6</ele>
        <time>2011-03-23T10:31:14Z</time>
      </trkpt>
      <trkpt lat="37.1847683121" lon="-7.48160925727">
        <ele>26.6</ele>
        <time>2011-03-23T10:31:17Z</time>
      </trkpt>
      <trkpt lat="37.1847461839" lon="-7.4816808387">
        <ele>26.6</ele>
        <time>2011-03-23T10:31:20Z</time>
      </trkpt>
      <trkpt lat="37.1847246424" lon="-7.48175367741">
        <ele>26.6</ele>
        <time>2011-03-23T10:31:23Z</time>
      </trkpt>
      <trkpt lat="37.1847012569" lon="-7.48181838568">
        <ele>26.6</ele>
        <time>2011-03-23T10:31:26Z</time>
      </trkpt>
      <trkpt lat="37.1846825653" lon="-7.48189373896">
        <ele>26.6</ele>
        <time>2011-03-23T10:31:29Z</time>
      </trkpt>
      <trkpt lat="37.1846580902" lon="-7.48196800259">
        <ele>26.6</ele>
        <time>2011-03-23T10:31:32Z</time>
      </trkpt>
      <trkpt lat="37.1846346208" lon="-7.48203212413">
        <ele>26.6</ele>
        <time>2011-03-23T10:31:35Z</time>
      </trkpt>
      <trkpt lat="37.1846061224" lon="-7.48210471138">
        <ele>26.6</ele>
        <time>2011-03-23T10:31:38Z</time>
      </trkpt>
      <trkpt lat="37.1845803899" lon="-7.48217612517">
        <ele>26.6</ele>
        <time>2011-03-23T10:31:41Z</time>
      </trkpt>
      <trkpt lat="37.1845533164" lon="-7.48224846097">
        <ele>26.6</ele>
        <time>2011-03-23T10:31:44Z</time>
      </trkpt>
      <trkpt lat="37.184524818" lon="-7.48232775374">
        <ele>26.6</ele>
        <time>2011-03-23T10:31:47Z</time>
      </trkpt>
      <trkpt lat="37.1844959842" lon="-7.48239380311">
        <ele>26.6</ele>
        <time>2011-03-23T10:31:50Z</time>
      </trkpt>
      <trkpt lat="37.1844777955" lon="-7.48246186414">
        <ele>26.6</ele>
        <time>2011-03-23T10:31:53Z</time>
      </trkpt>
      <trkpt lat="37.1844500514" lon="-7.48253352938">
        <ele>26.6</ele>
        <time>2011-03-23T10:31:56Z</time>
      </trkpt>
      <trkpt lat="37.1844342934" lon="-7.48256688935">
        <ele>26.6</ele>
        <time>2011-03-23T10:31:57Z</time>
      </trkpt>
      <trkpt lat="37.1844000115" lon="-7.48264810996">
        <ele>26.6</ele>
        <time>2011-03-23T10:32:01Z</time>
      </trkpt>
      <trkpt lat="37.1843736085" lon="-7.48271600335">
        <ele>26.6</ele>
        <time>2011-03-23T10:32:03Z</time>
      </trkpt>
      <trkpt lat="37.1843500553" lon="-7.48279001552">
        <ele>26.6</ele>
        <time>2011-03-23T10:32:07Z</time>
      </trkpt>
      <trkpt lat="37.1843286815" lon="-7.4828556458">
        <ele>26.6</ele>
        <time>2011-03-23T10:32:10Z</time>
      </trkpt>
      <trkpt lat="37.1842962435" lon="-7.48292655668">
        <ele>26.6</ele>
        <time>2011-03-23T10:32:13Z</time>
      </trkpt>
      <trkpt lat="37.1842690862" lon="-7.48299218695">
        <ele>26.6</ele>
        <time>2011-03-23T10:32:15Z</time>
      </trkpt>
      <trkpt lat="37.1842407554" lon="-7.4830673726">
        <ele>26.6</ele>
        <time>2011-03-23T10:32:19Z</time>
      </trkpt>
      <trkpt lat="37.1842227343" lon="-7.48314741974">
        <ele>26.6</ele>
        <time>2011-03-23T10:32:22Z</time>
      </trkpt>
      <trkpt lat="37.1842030368" lon="-7.48320248882">
        <ele>26.6</ele>
        <time>2011-03-23T10:32:25Z</time>
      </trkpt>
      <trkpt lat="37.1841972533" lon="-7.48321975554">
        <ele>26.6</ele>
        <time>2011-03-23T10:32:26Z</time>
      </trkpt>
      <trkpt lat="37.1841712694" lon="-7.48328245215">
        <ele>26.6</ele>
        <time>2011-03-23T10:32:30Z</time>
      </trkpt>
      <trkpt lat="37.184152913" lon="-7.4833236911">
        <ele>26.6</ele>
        <time>2011-03-23T10:32:33Z</time>
      </trkpt>
      <trkpt lat="37.1841373227" lon="-7.48337171938">
        <ele>26.6</ele>
        <time>2011-03-23T10:32:36Z</time>
      </trkpt>
      <trkpt lat="37.1841303657" lon="-7.4833801851">
        <ele>26.6</ele>
        <time>2011-03-23T10:32:37Z</time>
      </trkpt>
      <trkpt lat="37.1841198045" lon="-7.4834308956">
        <ele>26.6</ele>
        <time>2011-03-23T10:32:40Z</time>
      </trkpt>
      <trkpt lat="37.1841465428" lon="-7.48347825333">
        <ele>26.6</ele>
        <time>2011-03-23T10:32:43Z</time>
      </trkpt>
      <trkpt lat="37.1841545056" lon="-7.48349535241">
        <ele>26.6</ele>
        <time>2011-03-23T10:32:44Z</time>
      </trkpt>
      <trkpt lat="37.1841798189" lon="-7.48357078951">
        <ele>26.6</ele>
        <time>2011-03-23T10:32:48Z</time>
      </trkpt>
      <trkpt lat="37.184188117" lon="-7.48362761879">
        <ele>26.6</ele>
        <time>2011-03-23T10:32:51Z</time>
      </trkpt>
      <trkpt lat="37.1841975048" lon="-7.48368654355">
        <ele>26.6</ele>
        <time>2011-03-23T10:32:54Z</time>
      </trkpt>
      <trkpt lat="37.1842197168" lon="-7.48376114246">
        <ele>26.6</ele>
        <time>2011-03-23T10:32:57Z</time>
      </trkpt>
      <trkpt lat="37.1842504784" lon="-7.48382635364">
        <ele>26.6</ele>
        <time>2011-03-23T10:33:00Z</time>
      </trkpt>
      <trkpt lat="37.1842850118" lon="-7.48387480102">
        <ele>26.6</ele>
        <time>2011-03-23T10:33:02Z</time>
      </trkpt>
      <trkpt lat="37.1843202158" lon="-7.48393196558">
        <ele>26.6</ele>
        <time>2011-03-23T10:33:05Z</time>
      </trkpt>
      <trkpt lat="37.1843620415" lon="-7.4839907227">
        <ele>26.6</ele>
        <time>2011-03-23T10:33:08Z</time>
      </trkpt>
      <trkpt lat="37.1843941441" lon="-7.48403690697">
        <ele>26.6</ele>
        <time>2011-03-23T10:33:10Z</time>
      </trkpt>
      <trkpt lat="37.1844421724" lon="-7.48410848839">
        <ele>26.6</ele>
        <time>2011-03-23T10:33:14Z</time>
      </trkpt>
      <trkpt lat="37.1844876023" lon="-7.48416590441">
        <ele>26.6</ele>
        <time>2011-03-23T10:33:17Z</time>
      </trkpt>
      <trkpt lat="37.1845389834" lon="-7.48420873592">
        <ele>26.6</ele>
        <time>2011-03-23T10:33:20Z</time>
      </trkpt>
      <trkpt lat="37.1845536517" lon="-7.48422633791">
        <ele>26.6</ele>
        <time>2011-03-23T10:33:21Z</time>
      </trkpt>
      <trkpt lat="37.1846316034" lon="-7.48426875032">
        <ele>26.6</ele>
        <time>2011-03-23T10:33:25Z</time>
      </trkpt>
      <trkpt lat="37.1846901928" lon="-7.48429724878">
        <ele>26.6</ele>
        <time>2011-03-23T10:33:28Z</time>
      </trkpt>
      <trkpt lat="37.1847492014" lon="-7.48433597316">
        <ele>26.6</ele>
        <time>2011-03-23T10:33:31Z</time>
      </trkpt>
      <trkpt lat="37.1848022588" lon="-7.48437017131">
        <ele>26.6</ele>
        <time>2011-03-23T10:33:34Z</time>
      </trkpt>
      <trkpt lat="37.1848589205" lon="-7.48441099117">
        <ele>26.6</ele>
        <time>2011-03-23T10:33:37Z</time>
      </trkpt>
      <trkpt lat="37.1849173423" lon="-7.48443555013">
        <ele>26.6</ele>
        <time>2011-03-23T10:33:40Z</time>
      </trkpt>
      <trkpt lat="37.1849667955" lon="-7.48445910327">
        <ele>26.6</ele>
        <time>2011-03-23T10:33:42Z</time>
      </trkpt>
      <trkpt lat="37.1850166678" lon="-7.48448709882">
        <ele>26.6</ele>
        <time>2011-03-23T10:33:45Z</time>
      </trkpt>
      <trkpt lat="37.1850734133" lon="-7.48452339244">
        <ele>26.6</ele>
        <time>2011-03-23T10:33:48Z</time>
      </trkpt>
      <trkpt lat="37.1851270575" lon="-7.48455633331">
        <ele>26.6</ele>
        <time>2011-03-23T10:33:51Z</time>
      </trkpt>
      <trkpt lat="37.1851873233" lon="-7.48459028001">
        <ele>26.6</ele>
        <time>2011-03-23T10:33:54Z</time>
      </trkpt>
      <trkpt lat="37.1852530374" lon="-7.48461693445">
        <ele>26.6</ele>
        <time>2011-03-23T10:33:57Z</time>
      </trkpt>
      <trkpt lat="37.1853060948" lon="-7.484636129">
        <ele>26.6</ele>
        <time>2011-03-23T10:34:00Z</time>
      </trkpt>
      <trkpt lat="37.185363427" lon="-7.48464492999">
        <ele>26.6</ele>
        <time>2011-03-23T10:34:02Z</time>
      </trkpt>
      <trkpt lat="37.1854309013" lon="-7.48464895331">
        <ele>26.6</ele>
        <time>2011-03-23T10:34:05Z</time>
      </trkpt>
      <trkpt lat="37.1854996329" lon="-7.48466018505">
        <ele>26.6</ele>
        <time>2011-03-23T10:34:08Z</time>
      </trkpt>
      <trkpt lat="37.185571382" lon="-7.48466110706">
        <ele>26.6</ele>
        <time>2011-03-23T10:34:11Z</time>
      </trkpt>
      <trkpt lat="37.1856205837" lon="-7.48466018505">
        <ele>26.6</ele>
        <time>2011-03-23T10:34:13Z</time>
      </trkpt>
      <trkpt lat="37.1856720486" lon="-7.48465674847">
        <ele>26.6</ele>
        <time>2011-03-23T10:34:15Z</time>
      </trkpt>
      <trkpt lat="37.1857451388" lon="-7.48465398245">
        <ele>26.6</ele>
        <time>2011-03-23T10:34:18Z</time>
      </trkpt>
      <trkpt lat="37.1858026386" lon="-7.48464526527">
        <ele>26.6</ele>
        <time>2011-03-23T10:34:21Z</time>
      </trkpt>
      <trkpt lat="37.1858641618" lon="-7.48463512317">
        <ele>26.6</ele>
        <time>2011-03-23T10:34:24Z</time>
      </trkpt>
      <trkpt lat="37.1859095078" lon="-7.4846259869">
        <ele>26.6</ele>
        <time>2011-03-23T10:34:26Z</time>
      </trkpt>
      <trkpt lat="37.1859674268" lon="-7.4846109833">
        <ele>26.6</ele>
        <time>2011-03-23T10:34:29Z</time>
      </trkpt>
      <trkpt lat="37.186032135" lon="-7.48459849427">
        <ele>26.6</ele>
        <time>2011-03-23T10:34:32Z</time>
      </trkpt>
      <trkpt lat="37.1860957536" lon="-7.48457242656">
        <ele>26.6</ele>
        <time>2011-03-23T10:34:35Z</time>
      </trkpt>
      <trkpt lat="37.1861607972" lon="-7.48455549512">
        <ele>26.6</ele>
        <time>2011-03-23T10:34:38Z</time>
      </trkpt>
      <trkpt lat="37.1862276009" lon="-7.48453923424">
        <ele>26.6</ele>
        <time>2011-03-23T10:34:41Z</time>
      </trkpt>
      <trkpt lat="37.1862900461" lon="-7.48452473355">
        <ele>26.6</ele>
        <time>2011-03-23T10:34:44Z</time>
      </trkpt>
      <trkpt lat="37.186359532" lon="-7.48450796975">
        <ele>26.6</ele>
        <time>2011-03-23T10:34:47Z</time>
      </trkpt>
      <trkpt lat="37.1864238212" lon="-7.48448475189">
        <ele>26.6</ele>
        <time>2011-03-23T10:34:50Z</time>
      </trkpt>
      <trkpt lat="37.1864889486" lon="-7.48447326868">
        <ele>26.6</ele>
        <time>2011-03-23T10:34:53Z</time>
      </trkpt>
      <trkpt lat="37.1865575963" lon="-7.48446220457">
        <ele>26.6</ele>
        <time>2011-03-23T10:34:56Z</time>
      </trkpt>
      <trkpt lat="37.186623981" lon="-7.48445625343">
        <ele>26.6</ele>
        <time>2011-03-23T10:34:59Z</time>
      </trkpt>
      <trkpt lat="37.1866731827" lon="-7.48444678188">
        <ele>26.6</ele>
        <time>2011-03-23T10:35:01Z</time>
      </trkpt>
      <trkpt lat="37.1867393998" lon="-7.48443865144">
        <ele>26.6</ele>
        <time>2011-03-23T10:35:04Z</time>
      </trkpt>
      <trkpt lat="37.1868063711" lon="-7.48442448602">
        <ele>26.6</ele>
        <time>2011-03-23T10:35:07Z</time>
      </trkpt>
      <trkpt lat="37.1868672237" lon="-7.48441828342">
        <ele>26.6</ele>
        <time>2011-03-23T10:35:10Z</time>
      </trkpt>
      <trkpt lat="37.1869036012" lon="-7.48441593649">
        <ele>26.6</ele>
        <time>2011-03-23T10:35:11Z</time>
      </trkpt>
      <trkpt lat="37.1869746797" lon="-7.48439531701">
        <ele>26.6</ele>
        <time>2011-03-23T10:35:15Z</time>
      </trkpt>
      <trkpt lat="37.187037963" lon="-7.48439297008">
        <ele>26.6</ele>
        <time>2011-03-23T10:35:18Z</time>
      </trkpt>
      <trkpt lat="37.1870965525" lon="-7.48438324708">
        <ele>26.6</ele>
        <time>2011-03-23T10:35:21Z</time>
      </trkpt>
      <trkpt lat="37.1871581595" lon="-7.48438391763">
        <ele>26.6</ele>
        <time>2011-03-23T10:35:24Z</time>
      </trkpt>
      <trkpt lat="37.1872175033" lon="-7.48438215743">
        <ele>26.6</ele>
        <time>2011-03-23T10:35:27Z</time>
      </trkpt>
      <trkpt lat="37.1872802838" lon="-7.48437796648">
        <ele>26.6</ele>
        <time>2011-03-23T10:35:30Z</time>
      </trkpt>
      <trkpt lat="37.1873404658" lon="-7.48437251824">
        <ele>26.6</ele>
        <time>2011-03-23T10:35:33Z</time>
      </trkpt>
      <trkpt lat="37.1874195071" lon="-7.48436572891">
        <ele>26.6</ele>
        <time>2011-03-23T10:35:36Z</time>
      </trkpt>
      <trkpt lat="37.1874757497" lon="-7.48437679301">
        <ele>26.6</ele>
        <time>2011-03-23T10:35:39Z</time>
      </trkpt>
      <trkpt lat="37.1875184974" lon="-7.48439338918">
        <ele>26.6</ele>
        <time>2011-03-23T10:35:41Z</time>
      </trkpt>
      <trkpt lat="37.187537189" lon="-7.48442096563">
        <ele>26.6</ele>
        <time>2011-03-23T10:35:42Z</time>
      </trkpt>
      <trkpt lat="37.1875668609" lon="-7.4844702512">
        <ele>26.6</ele>
        <time>2011-03-23T10:35:45Z</time>
      </trkpt>
      <trkpt lat="37.1875750752" lon="-7.4844839137">
        <ele>26.6</ele>
        <time>2011-03-23T10:35:46Z</time>
      </trkpt>
      <trkpt lat="37.1875878995" lon="-7.48455708768">
        <ele>26.6</ele>
        <time>2011-03-23T10:35:50Z</time>
      </trkpt>
      <trkpt lat="37.187589995" lon="-7.48460385868">
        <ele>26.6</ele>
        <time>2011-03-23T10:35:53Z</time>
      </trkpt>
      <trkpt lat="37.1875951917" lon="-7.48461651535">
        <ele>26.6</ele>
        <time>2011-03-23T10:35:54Z</time>
      </trkpt>
      <trkpt lat="37.1876176552" lon="-7.4846745181">
        <ele>26.6</ele>
        <time>2011-03-23T10:35:58Z</time>
      </trkpt>
      <trkpt lat="37.1876319883" lon="-7.48470242983">
        <ele>26.6</ele>
        <time>2011-03-23T10:36:00Z</time>
      </trkpt>
      <trkpt lat="37.1876287193" lon="-7.48476395297">
        <ele>26.6</ele>
        <time>2011-03-23T10:36:04Z</time>
      </trkpt>
      <trkpt lat="37.1876359278" lon="-7.48480343172">
        <ele>26.6</ele>
        <time>2011-03-23T10:36:07Z</time>
      </trkpt>
      <trkpt lat="37.1876448126" lon="-7.48485506423">
        <ele>26.6</ele>
        <time>2011-03-23T10:36:10Z</time>
      </trkpt>
      <trkpt lat="37.1876570502" lon="-7.48490837311">
        <ele>26.6</ele>
        <time>2011-03-23T10:36:14Z</time>
      </trkpt>
      <trkpt lat="37.1876666055" lon="-7.48492002395">
        <ele>26.6</ele>
        <time>2011-03-23T10:36:15Z</time>
      </trkpt>
      <trkpt lat="37.1876769991" lon="-7.48495388683">
        <ele>26.6</ele>
        <time>2011-03-23T10:36:18Z</time>
      </trkpt>
      <trkpt lat="37.1876909969" lon="-7.48499914909">
        <ele>27.2</ele>
        <time>2011-03-23T10:36:21Z</time>
      </trkpt>
      <trkpt lat="37.1876994626" lon="-7.48501934947">
        <ele>27.4</ele>
        <time>2011-03-23T10:36:22Z</time>
      </trkpt>
      <trkpt lat="37.1877272905" lon="-7.48507190398">
        <ele>27.8</ele>
        <time>2011-03-23T10:36:26Z</time>
      </trkpt>
      <trkpt lat="37.18774791" lon="-7.48510895198">
        <ele>28</ele>
        <time>2011-03-23T10:36:29Z</time>
      </trkpt>
      <trkpt lat="37.1877689485" lon="-7.48515035856">
        <ele>28.2</ele>
        <time>2011-03-23T10:36:32Z</time>
      </trkpt>
      <trkpt lat="37.1878005483" lon="-7.48519528555">
        <ele>28.4</ele>
        <time>2011-03-23T10:36:35Z</time>
      </trkpt>
      <trkpt lat="37.187829382" lon="-7.48523384229">
        <ele>28.8</ele>
        <time>2011-03-23T10:36:38Z</time>
      </trkpt>
      <trkpt lat="37.1878553659" lon="-7.48526921391">
        <ele>29.4</ele>
        <time>2011-03-23T10:36:41Z</time>
      </trkpt>
      <trkpt lat="37.1878841158" lon="-7.48529804764">
        <ele>29.6</ele>
        <time>2011-03-23T10:36:44Z</time>
      </trkpt>
      <trkpt lat="37.1878875524" lon="-7.48530433407">
        <ele>29.8</ele>
        <time>2011-03-23T10:36:45Z</time>
      </trkpt>
      <trkpt lat="37.1879323956" lon="-7.48535219472">
        <ele>30.2</ele>
        <time>2011-03-23T10:36:49Z</time>
      </trkpt>
      <trkpt lat="37.1879606426" lon="-7.48538714724">
        <ele>30.2</ele>
        <time>2011-03-23T10:36:52Z</time>
      </trkpt>
      <trkpt lat="37.1879901469" lon="-7.48542528488">
        <ele>30.4</ele>
        <time>2011-03-23T10:36:55Z</time>
      </trkpt>
      <trkpt lat="37.1880154602" lon="-7.48546761348">
        <ele>30.4</ele>
        <time>2011-03-23T10:36:58Z</time>
      </trkpt>
      <trkpt lat="37.188040103" lon="-7.4855131272">
        <ele>31</ele>
        <time>2011-03-23T10:37:01Z</time>
      </trkpt>
      <trkpt lat="37.1880631532" lon="-7.4855577189">
        <ele>31.6</ele>
        <time>2011-03-23T10:37:04Z</time>
      </trkpt>
      <trkpt lat="37.1880842756" lon="-7.48560423845">
        <ele>31.8</ele>
        <time>2011-03-23T10:37:07Z</time>
      </trkpt>
      <trkpt lat="37.1881003689" lon="-7.48565704442">
        <ele>32.2</ele>
        <time>2011-03-23T10:37:10Z</time>
      </trkpt>
      <trkpt lat="37.1881107624" lon="-7.48570255814">
        <ele>32.4</ele>
        <time>2011-03-23T10:37:13Z</time>
      </trkpt>
      <trkpt lat="37.1881178032" lon="-7.48574538965">
        <ele>32.4</ele>
        <time>2011-03-23T10:37:16Z</time>
      </trkpt>
      <trkpt lat="37.1881172165" lon="-7.48579014899">
        <ele>32.6</ele>
        <time>2011-03-23T10:37:19Z</time>
      </trkpt>
      <trkpt lat="37.1881188929" lon="-7.48583943456">
        <ele>32.6</ele>
        <time>2011-03-23T10:37:22Z</time>
      </trkpt>
      <trkpt lat="37.188123922" lon="-7.48588997742">
        <ele>32.6</ele>
        <time>2011-03-23T10:37:25Z</time>
      </trkpt>
      <trkpt lat="37.1881244249" lon="-7.48594437595">
        <ele>33</ele>
        <time>2011-03-23T10:37:28Z</time>
      </trkpt>
      <trkpt lat="37.1881255146" lon="-7.48598645309">
        <ele>33.6</ele>
        <time>2011-03-23T10:37:31Z</time>
      </trkpt>
      <trkpt lat="37.188123922" lon="-7.48603775032">
        <ele>33.8</ele>
        <time>2011-03-23T10:37:33Z</time>
      </trkpt>
      <trkpt lat="37.1881266042" lon="-7.48612601172">
        <ele>34.2</ele>
        <time>2011-03-23T10:37:37Z</time>
      </trkpt>
      <trkpt lat="37.1881298731" lon="-7.48620815434">
        <ele>34.4</ele>
        <time>2011-03-23T10:37:40Z</time>
      </trkpt>
      <trkpt lat="37.1881289511" lon="-7.48627495809">
        <ele>34.4</ele>
        <time>2011-03-23T10:37:42Z</time>
      </trkpt>
      <trkpt lat="37.1881255146" lon="-7.48635148483">
        <ele>34.6</ele>
        <time>2011-03-23T10:37:45Z</time>
      </trkpt>
      <trkpt lat="37.1881179708" lon="-7.48641124778">
        <ele>34.6</ele>
        <time>2011-03-23T10:37:47Z</time>
      </trkpt>
      <trkpt lat="37.1881054818" lon="-7.48647059163">
        <ele>34.6</ele>
        <time>2011-03-23T10:37:49Z</time>
      </trkpt>
      <trkpt lat="37.1880885504" lon="-7.48655432681">
        <ele>35.2</ele>
        <time>2011-03-23T10:37:52Z</time>
      </trkpt>
      <trkpt lat="37.1880750555" lon="-7.48661098846">
        <ele>35.6</ele>
        <time>2011-03-23T10:37:54Z</time>
      </trkpt>
      <trkpt lat="37.1880552742" lon="-7.4866949751">
        <ele>35.8</ele>
        <time>2011-03-23T10:37:57Z</time>
      </trkpt>
      <trkpt lat="37.1880344033" lon="-7.48677695008">
        <ele>36.2</ele>
        <time>2011-03-23T10:38:00Z</time>
      </trkpt>
      <trkpt lat="37.1880207408" lon="-7.48684593312">
        <ele>36.2</ele>
        <time>2011-03-23T10:38:02Z</time>
      </trkpt>
      <trkpt lat="37.188005821" lon="-7.48692053203">
        <ele>36.4</ele>
        <time>2011-03-23T10:38:05Z</time>
      </trkpt>
      <trkpt lat="37.187984531" lon="-7.48705095439">
        <ele>36.6</ele>
        <time>2011-03-23T10:38:10Z</time>
      </trkpt>
      <trkpt lat="37.1879681025" lon="-7.48713108535">
        <ele>36.6</ele>
        <time>2011-03-23T10:38:13Z</time>
      </trkpt>
      <trkpt lat="37.1879547752" lon="-7.48717433596">
        <ele>36.6</ele>
        <time>2011-03-23T10:38:14Z</time>
      </trkpt>
      <trkpt lat="37.1879250195" lon="-7.48726955434">
        <ele>36.8</ele>
        <time>2011-03-23T10:38:18Z</time>
      </trkpt>
      <trkpt lat="37.1878927492" lon="-7.48734406943">
        <ele>37</ele>
        <time>2011-03-23T10:38:21Z</time>
      </trkpt>
      <trkpt lat="37.1878688608" lon="-7.48742369748">
        <ele>37.4</ele>
        <time>2011-03-23T10:38:24Z</time>
      </trkpt>
      <trkpt lat="37.1878422063" lon="-7.48747390506">
        <ele>37.8</ele>
        <time>2011-03-23T10:38:26Z</time>
      </trkpt>
      <trkpt lat="37.1878282086" lon="-7.48753467384">
        <ele>38</ele>
        <time>2011-03-23T10:38:28Z</time>
      </trkpt>
      <trkpt lat="37.1877997101" lon="-7.48761430189">
        <ele>38.2</ele>
        <time>2011-03-23T10:38:31Z</time>
      </trkpt>
      <trkpt lat="37.1877692838" lon="-7.48766115671">
        <ele>38.4</ele>
        <time>2011-03-23T10:38:33Z</time>
      </trkpt>
      <trkpt lat="37.1877362591" lon="-7.48772762518">
        <ele>38.6</ele>
        <time>2011-03-23T10:38:36Z</time>
      </trkpt>
      <trkpt lat="37.1877101914" lon="-7.48777674311">
        <ele>38.6</ele>
        <time>2011-03-23T10:38:38Z</time>
      </trkpt>
      <trkpt lat="37.1876868059" lon="-7.4878265316">
        <ele>38.6</ele>
        <time>2011-03-23T10:38:40Z</time>
      </trkpt>
      <trkpt lat="37.1876570502" lon="-7.48788445053">
        <ele>38.6</ele>
        <time>2011-03-23T10:38:42Z</time>
      </trkpt>
      <trkpt lat="37.1876222653" lon="-7.48794924261">
        <ele>38.8</ele>
        <time>2011-03-23T10:38:45Z</time>
      </trkpt>
      <trkpt lat="37.1875962814" lon="-7.48800003693">
        <ele>38.8</ele>
        <time>2011-03-23T10:38:47Z</time>
      </trkpt>
      <trkpt lat="37.1875634243" lon="-7.48806876851">
        <ele>38.8</ele>
        <time>2011-03-23T10:38:50Z</time>
      </trkpt>
      <trkpt lat="37.1875416314" lon="-7.48811855699">
        <ele>38.8</ele>
        <time>2011-03-23T10:38:52Z</time>
      </trkpt>
      <trkpt lat="37.1875014821" lon="-7.48818846204">
        <ele>38.8</ele>
        <time>2011-03-23T10:38:55Z</time>
      </trkpt>
      <trkpt lat="37.1874754982" lon="-7.48823875344">
        <ele>38.8</ele>
        <time>2011-03-23T10:38:57Z</time>
      </trkpt>
      <trkpt lat="37.1874420544" lon="-7.48831368762">
        <ele>38.8</ele>
        <time>2011-03-23T10:39:00Z</time>
      </trkpt>
      <trkpt lat="37.1874202615" lon="-7.48837697097">
        <ele>38.8</ele>
        <time>2011-03-23T10:39:02Z</time>
      </trkpt>
      <trkpt lat="37.1873933556" lon="-7.48844545109">
        <ele>38.8</ele>
        <time>2011-03-23T10:39:05Z</time>
      </trkpt>
      <trkpt lat="37.1873563076" lon="-7.48857235306">
        <ele>38.8</ele>
        <time>2011-03-23T10:39:09Z</time>
      </trkpt>
      <trkpt lat="37.1873446567" lon="-7.48866338049">
        <ele>38.8</ele>
        <time>2011-03-23T10:39:13Z</time>
      </trkpt>
      <trkpt lat="37.1873405496" lon="-7.48872347872">
        <ele>39</ele>
        <time>2011-03-23T10:39:15Z</time>
      </trkpt>
      <trkpt lat="37.1873388732" lon="-7.48878508568">
        <ele>39</ele>
        <time>2011-03-23T10:39:17Z</time>
      </trkpt>
      <trkpt lat="37.187340382" lon="-7.48884233406">
        <ele>39</ele>
        <time>2011-03-23T10:39:19Z</time>
      </trkpt>
      <trkpt lat="37.1873481771" lon="-7.48889874424">
        <ele>39</ele>
        <time>2011-03-23T10:39:21Z</time>
      </trkpt>
      <trkpt lat="37.1873567267" lon="-7.48898373671">
        <ele>39</ele>
        <time>2011-03-23T10:39:24Z</time>
      </trkpt>
      <trkpt lat="37.1873683775" lon="-7.4890635324">
        <ele>39</ele>
        <time>2011-03-23T10:39:27Z</time>
      </trkpt>
      <trkpt lat="37.1873790225" lon="-7.48914500447">
        <ele>39</ele>
        <time>2011-03-23T10:39:30Z</time>
      </trkpt>
      <trkpt lat="37.1873894999" lon="-7.48920409686">
        <ele>39</ele>
        <time>2011-03-23T10:39:32Z</time>
      </trkpt>
      <trkpt lat="37.1874020728" lon="-7.48926268634">
        <ele>39</ele>
        <time>2011-03-23T10:39:34Z</time>
      </trkpt>
      <trkpt lat="37.1874117958" lon="-7.48933535742">
        <ele>39</ele>
        <time>2011-03-23T10:39:37Z</time>
      </trkpt>
      <trkpt lat="37.1874174116" lon="-7.48941565602">
        <ele>39</ele>
        <time>2011-03-23T10:39:40Z</time>
      </trkpt>
      <trkpt lat="37.1874202615" lon="-7.48948539343">
        <ele>39</ele>
        <time>2011-03-23T10:39:42Z</time>
      </trkpt>
      <trkpt lat="37.1874294816" lon="-7.48955680721">
        <ele>39</ele>
        <time>2011-03-23T10:39:45Z</time>
      </trkpt>
      <trkpt lat="37.1874374444" lon="-7.48961522906">
        <ele>39</ele>
        <time>2011-03-23T10:39:47Z</time>
      </trkpt>
      <trkpt lat="37.1874413001" lon="-7.48967633311">
        <ele>39</ele>
        <time>2011-03-23T10:39:49Z</time>
      </trkpt>
      <trkpt lat="37.1874532024" lon="-7.48976065502">
        <ele>39</ele>
        <time>2011-03-23T10:39:52Z</time>
      </trkpt>
      <trkpt lat="37.1874547111" lon="-7.48981916068">
        <ele>39</ele>
        <time>2011-03-23T10:39:54Z</time>
      </trkpt>
      <trkpt lat="37.1874609975" lon="-7.48987531941">
        <ele>39</ele>
        <time>2011-03-23T10:39:56Z</time>
      </trkpt>
      <trkpt lat="37.1874735704" lon="-7.48995830022">
        <ele>39</ele>
        <time>2011-03-23T10:39:59Z</time>
      </trkpt>
      <trkpt lat="37.1874821199" lon="-7.49001999101">
        <ele>39</ele>
        <time>2011-03-23T10:40:01Z</time>
      </trkpt>
      <trkpt lat="37.1874899989" lon="-7.49009668539">
        <ele>39</ele>
        <time>2011-03-23T10:40:04Z</time>
      </trkpt>
      <trkpt lat="37.1874974588" lon="-7.49018209695">
        <ele>39</ele>
        <time>2011-03-23T10:40:07Z</time>
      </trkpt>
      <trkpt lat="37.1875011468" lon="-7.4902639043">
        <ele>39</ele>
        <time>2011-03-23T10:40:10Z</time>
      </trkpt>
      <trkpt lat="37.1875066789" lon="-7.49034143687">
        <ele>39</ele>
        <time>2011-03-23T10:40:13Z</time>
      </trkpt>
      <trkpt lat="37.1875076847" lon="-7.49042089728">
        <ele>39</ele>
        <time>2011-03-23T10:40:16Z</time>
      </trkpt>
      <trkpt lat="37.187517743" lon="-7.49050547066">
        <ele>39</ele>
        <time>2011-03-23T10:40:19Z</time>
      </trkpt>
      <trkpt lat="37.1875246161" lon="-7.49059867738">
        <ele>39</ele>
        <time>2011-03-23T10:40:22Z</time>
      </trkpt>
      <trkpt lat="37.1875309864" lon="-7.49067193519">
        <ele>38.6</ele>
        <time>2011-03-23T10:40:25Z</time>
      </trkpt>
      <trkpt lat="37.1875393683" lon="-7.49073161432">
        <ele>38.2</ele>
        <time>2011-03-23T10:40:27Z</time>
      </trkpt>
      <trkpt lat="37.1875456547" lon="-7.49081551714">
        <ele>37.8</ele>
        <time>2011-03-23T10:40:30Z</time>
      </trkpt>
      <trkpt lat="37.1875415476" lon="-7.49087083768">
        <ele>37.6</ele>
        <time>2011-03-23T10:40:32Z</time>
      </trkpt>
      <trkpt lat="37.1875473311" lon="-7.49094267056">
        <ele>37.4</ele>
        <time>2011-03-23T10:40:34Z</time>
      </trkpt>
      <trkpt lat="37.1875414638" lon="-7.49102967468">
        <ele>37.4</ele>
        <time>2011-03-23T10:40:38Z</time>
      </trkpt>
      <trkpt lat="37.1875379434" lon="-7.49110771017">
        <ele>37.2</ele>
        <time>2011-03-23T10:40:41Z</time>
      </trkpt>
      <trkpt lat="37.1875291424" lon="-7.49118432074">
        <ele>37.2</ele>
        <time>2011-03-23T10:40:44Z</time>
      </trkpt>
      <trkpt lat="37.1875189165" lon="-7.49126637954">
        <ele>36.6</ele>
        <time>2011-03-23T10:40:47Z</time>
      </trkpt>
      <trkpt lat="37.1875086067" lon="-7.49134190046">
        <ele>36.2</ele>
        <time>2011-03-23T10:40:50Z</time>
      </trkpt>
      <trkpt lat="37.1874948604" lon="-7.49141834338">
        <ele>35.8</ele>
        <time>2011-03-23T10:40:53Z</time>
      </trkpt>
      <trkpt lat="37.1874800244" lon="-7.49149453486">
        <ele>35.6</ele>
        <time>2011-03-23T10:40:56Z</time>
      </trkpt>
      <trkpt lat="37.1874676192" lon="-7.49156259588">
        <ele>35.4</ele>
        <time>2011-03-23T10:40:59Z</time>
      </trkpt>
      <trkpt lat="37.1874624224" lon="-7.49164138574">
        <ele>35.2</ele>
        <time>2011-03-23T10:41:02Z</time>
      </trkpt>
      <trkpt lat="37.1874477541" lon="-7.49170709984">
        <ele>35.2</ele>
        <time>2011-03-23T10:41:05Z</time>
      </trkpt>
      <trkpt lat="37.1874338402" lon="-7.49178622498">
        <ele>35</ele>
        <time>2011-03-23T10:41:08Z</time>
      </trkpt>
      <trkpt lat="37.1874073534" lon="-7.49189125018">
        <ele>35</ele>
        <time>2011-03-23T10:41:12Z</time>
      </trkpt>
      <trkpt lat="37.1873932718" lon="-7.49196593291">
        <ele>35</ele>
        <time>2011-03-23T10:41:15Z</time>
      </trkpt>
      <trkpt lat="37.1873800284" lon="-7.49202469003">
        <ele>35</ele>
        <time>2011-03-23T10:41:17Z</time>
      </trkpt>
      <trkpt lat="37.1873642704" lon="-7.49208923066">
        <ele>34.4</ele>
        <time>2011-03-23T10:41:20Z</time>
      </trkpt>
      <trkpt lat="37.1873484286" lon="-7.49214195281">
        <ele>34</ele>
        <time>2011-03-23T10:41:22Z</time>
      </trkpt>
      <trkpt lat="37.187325546" lon="-7.49219786008">
        <ele>33.8</ele>
        <time>2011-03-23T10:41:25Z</time>
      </trkpt>
      <trkpt lat="37.1872910964" lon="-7.49226793277">
        <ele>33.4</ele>
        <time>2011-03-23T10:41:28Z</time>
      </trkpt>
      <trkpt lat="37.1872614245" lon="-7.49231478759">
        <ele>33.4</ele>
        <time>2011-03-23T10:41:30Z</time>
      </trkpt>
      <trkpt lat="37.187215324" lon="-7.49236834793">
        <ele>33.2</ele>
        <time>2011-03-23T10:41:33Z</time>
      </trkpt>
      <trkpt lat="37.1871612608" lon="-7.4924180526">
        <ele>33</ele>
        <time>2011-03-23T10:41:36Z</time>
      </trkpt>
      <trkpt lat="37.187103258" lon="-7.49246800872">
        <ele>33</ele>
        <time>2011-03-23T10:41:39Z</time>
      </trkpt>
      <trkpt lat="37.1870382983" lon="-7.49251679138">
        <ele>33</ele>
        <time>2011-03-23T10:41:42Z</time>
      </trkpt>
      <trkpt lat="37.1869918626" lon="-7.49255786269">
        <ele>33</ele>
        <time>2011-03-23T10:41:45Z</time>
      </trkpt>
      <trkpt lat="37.1869418226" lon="-7.49260605861">
        <ele>32.8</ele>
        <time>2011-03-23T10:41:48Z</time>
      </trkpt>
      <trkpt lat="37.1868872565" lon="-7.49264930922">
        <ele>32.8</ele>
        <time>2011-03-23T10:41:51Z</time>
      </trkpt>
      <trkpt lat="37.1868270744" lon="-7.49269708605">
        <ele>32.8</ele>
        <time>2011-03-23T10:41:54Z</time>
      </trkpt>
      <trkpt lat="37.1867823989" lon="-7.49273539133">
        <ele>32.8</ele>
        <time>2011-03-23T10:41:57Z</time>
      </trkpt>
      <trkpt lat="37.1867269107" lon="-7.49278383871">
        <ele>32.8</ele>
        <time>2011-03-23T10:42:00Z</time>
      </trkpt>
      <trkpt lat="37.1866840792" lon="-7.49282449093">
        <ele>32.8</ele>
        <time>2011-03-23T10:42:03Z</time>
      </trkpt>
      <trkpt lat="37.1866264117" lon="-7.49287545288">
        <ele>32.8</ele>
        <time>2011-03-23T10:42:06Z</time>
      </trkpt>
      <trkpt lat="37.1865825744" lon="-7.49291794911">
        <ele>32.8</ele>
        <time>2011-03-23T10:42:09Z</time>
      </trkpt>
      <trkpt lat="37.186519794" lon="-7.49297251528">
        <ele>32.8</ele>
        <time>2011-03-23T10:42:12Z</time>
      </trkpt>
      <trkpt lat="37.1864763757" lon="-7.49301333514">
        <ele>32.8</ele>
        <time>2011-03-23T10:42:15Z</time>
      </trkpt>
      <trkpt lat="37.1864187921" lon="-7.49307108643">
        <ele>32.8</ele>
        <time>2011-03-23T10:42:18Z</time>
      </trkpt>
      <trkpt lat="37.1863724402" lon="-7.49311442085">
        <ele>32.8</ele>
        <time>2011-03-23T10:42:21Z</time>
      </trkpt>
      <trkpt lat="37.1863324585" lon="-7.49315448633">
        <ele>32.8</ele>
        <time>2011-03-23T10:42:23Z</time>
      </trkpt>
      <trkpt lat="37.1862953267" lon="-7.49318608609">
        <ele>32.8</ele>
        <time>2011-03-23T10:42:25Z</time>
      </trkpt>
      <trkpt lat="37.1862441133" lon="-7.49323268946">
        <ele>32.8</ele>
        <time>2011-03-23T10:42:28Z</time>
      </trkpt>
      <trkpt lat="37.1861929837" lon="-7.49327191675">
        <ele>32.8</ele>
        <time>2011-03-23T10:42:31Z</time>
      </trkpt>
      <trkpt lat="37.1861384175" lon="-7.49331608936">
        <ele>32.8</ele>
        <time>2011-03-23T10:42:34Z</time>
      </trkpt>
      <trkpt lat="37.1860873717" lon="-7.49336981734">
        <ele>32.8</ele>
        <time>2011-03-23T10:42:37Z</time>
      </trkpt>
      <trkpt lat="37.1860348172" lon="-7.49342136603">
        <ele>32.8</ele>
        <time>2011-03-23T10:42:40Z</time>
      </trkpt>
      <trkpt lat="37.1859867051" lon="-7.49347718948">
        <ele>32.8</ele>
        <time>2011-03-23T10:42:43Z</time>
      </trkpt>
      <trkpt lat="37.1859437898" lon="-7.49353150419">
        <ele>32.8</ele>
        <time>2011-03-23T10:42:46Z</time>
      </trkpt>
      <trkpt lat="37.1858965997" lon="-7.49358598654">
        <ele>32.8</ele>
        <time>2011-03-23T10:42:49Z</time>
      </trkpt>
      <trkpt lat="37.1858548578" lon="-7.49364398929">
        <ele>32.8</ele>
        <time>2011-03-23T10:42:52Z</time>
      </trkpt>
      <trkpt lat="37.1858137865" lon="-7.493707105">
        <ele>32.8</ele>
        <time>2011-03-23T10:42:55Z</time>
      </trkpt>
      <trkpt lat="37.1857752298" lon="-7.49377734532">
        <ele>32.8</ele>
        <time>2011-03-23T10:42:58Z</time>
      </trkpt>
      <trkpt lat="37.1857463961" lon="-7.49384599308">
        <ele>32.8</ele>
        <time>2011-03-23T10:43:01Z</time>
      </trkpt>
      <trkpt lat="37.1857210827" lon="-7.49391925089">
        <ele>32.8</ele>
        <time>2011-03-23T10:43:04Z</time>
      </trkpt>
      <trkpt lat="37.1857026425" lon="-7.49398513262">
        <ele>32.8</ele>
        <time>2011-03-23T10:43:07Z</time>
      </trkpt>
      <trkpt lat="37.1856795923" lon="-7.49405487003">
        <ele>32.8</ele>
        <time>2011-03-23T10:43:10Z</time>
      </trkpt>
      <trkpt lat="37.1856515129" lon="-7.4941310615">
        <ele>32.8</ele>
        <time>2011-03-23T10:43:13Z</time>
      </trkpt>
      <trkpt lat="37.1856253614" lon="-7.49420222383">
        <ele>32.8</ele>
        <time>2011-03-23T10:43:16Z</time>
      </trkpt>
      <trkpt lat="37.1855967791" lon="-7.49427078777">
        <ele>32.8</ele>
        <time>2011-03-23T10:43:19Z</time>
      </trkpt>
      <trkpt lat="37.1855772493" lon="-7.49431521184">
        <ele>32.8</ele>
        <time>2011-03-23T10:43:21Z</time>
      </trkpt>
      <trkpt lat="37.1855407042" lon="-7.49438503307">
        <ele>32.8</ele>
        <time>2011-03-23T10:43:24Z</time>
      </trkpt>
      <trkpt lat="37.1855039077" lon="-7.49444261672">
        <ele>32.8</ele>
        <time>2011-03-23T10:43:27Z</time>
      </trkpt>
      <trkpt lat="37.1854677817" lon="-7.4944879628">
        <ele>32.8</ele>
        <time>2011-03-23T10:43:29Z</time>
      </trkpt>
      <trkpt lat="37.1854166521" lon="-7.49453532054">
        <ele>32.8</ele>
        <time>2011-03-23T10:43:32Z</time>
      </trkpt>
      <trkpt lat="37.1853781792" lon="-7.49456507628">
        <ele>32.8</ele>
        <time>2011-03-23T10:43:34Z</time>
      </trkpt>
      <trkpt lat="37.1853162369" lon="-7.49460187282">
        <ele>32.8</ele>
        <time>2011-03-23T10:43:37Z</time>
      </trkpt>
      <trkpt lat="37.1852550491" lon="-7.49463405932">
        <ele>32.8</ele>
        <time>2011-03-23T10:43:40Z</time>
      </trkpt>
      <trkpt lat="37.1851985551" lon="-7.49466834129">
        <ele>32.8</ele>
        <time>2011-03-23T10:43:43Z</time>
      </trkpt>
      <trkpt lat="37.1851399656" lon="-7.49469725885">
        <ele>32.8</ele>
        <time>2011-03-23T10:43:46Z</time>
      </trkpt>
      <trkpt lat="37.1850769337" lon="-7.49472818806">
        <ele>32.8</ele>
        <time>2011-03-23T10:43:49Z</time>
      </trkpt>
      <trkpt lat="37.1850199368" lon="-7.49476347586">
        <ele>32.8</ele>
        <time>2011-03-23T10:43:52Z</time>
      </trkpt>
      <trkpt lat="37.1849607606" lon="-7.49478895683">
        <ele>32.8</ele>
        <time>2011-03-23T10:43:55Z</time>
      </trkpt>
      <trkpt lat="37.1849002433" lon="-7.4948117556">
        <ele>32.8</ele>
        <time>2011-03-23T10:43:58Z</time>
      </trkpt>
      <trkpt lat="37.1848417376" lon="-7.49483933205">
        <ele>32.6</ele>
        <time>2011-03-23T10:44:01Z</time>
      </trkpt>
      <trkpt lat="37.1847801306" lon="-7.49486472921">
        <ele>32.2</ele>
        <time>2011-03-23T10:44:04Z</time>
      </trkpt>
      <trkpt lat="37.1847177693" lon="-7.49488803089">
        <ele>31.8</ele>
        <time>2011-03-23T10:44:07Z</time>
      </trkpt>
      <trkpt lat="37.1846544859" lon="-7.49490906946">
        <ele>31.4</ele>
        <time>2011-03-23T10:44:10Z</time>
      </trkpt>
      <trkpt lat="37.1845890233" lon="-7.49492843165">
        <ele>31.2</ele>
        <time>2011-03-23T10:44:13Z</time>
      </trkpt>
      <trkpt lat="37.1845236445" lon="-7.49494066922">
        <ele>31.2</ele>
        <time>2011-03-23T10:44:16Z</time>
      </trkpt>
      <trkpt lat="37.184472012" lon="-7.49495542137">
        <ele>31</ele>
        <time>2011-03-23T10:44:18Z</time>
      </trkpt>
      <trkpt lat="37.184403448" lon="-7.49497151461">
        <ele>30.6</ele>
        <time>2011-03-23T10:44:21Z</time>
      </trkpt>
      <trkpt lat="37.1843367281" lon="-7.49498140526">
        <ele>30</ele>
        <time>2011-03-23T10:44:24Z</time>
      </trkpt>
      <trkpt lat="37.1842698406" lon="-7.49499624122">
        <ele>29.6</ele>
        <time>2011-03-23T10:44:27Z</time>
      </trkpt>
      <trkpt lat="37.1842035397" lon="-7.4950094008">
        <ele>29.4</ele>
        <time>2011-03-23T10:44:30Z</time>
      </trkpt>
      <trkpt lat="37.1841394182" lon="-7.49501971054">
        <ele>29.2</ele>
        <time>2011-03-23T10:44:33Z</time>
      </trkpt>
      <trkpt lat="37.1840764701" lon="-7.49502918209">
        <ele>29</ele>
        <time>2011-03-23T10:44:36Z</time>
      </trkpt>
      <trkpt lat="37.1840167072" lon="-7.49504753845">
        <ele>28.8</ele>
        <time>2011-03-23T10:44:39Z</time>
      </trkpt>
      <trkpt lat="37.183952418" lon="-7.49507151068">
        <ele>28.2</ele>
        <time>2011-03-23T10:44:42Z</time>
      </trkpt>
      <trkpt lat="37.1839001988" lon="-7.49509472854">
        <ele>27.8</ele>
        <time>2011-03-23T10:44:45Z</time>
      </trkpt>
      <trkpt lat="37.1838566129" lon="-7.49511501274">
        <ele>27.4</ele>
        <time>2011-03-23T10:44:48Z</time>
      </trkpt>
      <trkpt lat="37.1837946706" lon="-7.49514518758">
        <ele>27.2</ele>
        <time>2011-03-23T10:44:51Z</time>
      </trkpt>
      <trkpt lat="37.1837344886" lon="-7.49517326695">
        <ele>27.2</ele>
        <time>2011-03-23T10:44:54Z</time>
      </trkpt>
      <trkpt lat="37.183673636" lon="-7.49519925084">
        <ele>27</ele>
        <time>2011-03-23T10:44:57Z</time>
      </trkpt>
      <trkpt lat="37.1836099336" lon="-7.49523152115">
        <ele>27</ele>
        <time>2011-03-23T10:45:00Z</time>
      </trkpt>
      <trkpt lat="37.1835485781" lon="-7.49525649921">
        <ele>26.8</ele>
        <time>2011-03-23T10:45:03Z</time>
      </trkpt>
      <trkpt lat="37.1834868873" lon="-7.49527435266">
        <ele>26.2</ele>
        <time>2011-03-23T10:45:06Z</time>
      </trkpt>
      <trkpt lat="37.1834385237" lon="-7.49527460412">
        <ele>26</ele>
        <time>2011-03-23T10:45:08Z</time>
      </trkpt>
      <trkpt lat="37.1833733963" lon="-7.4952696588">
        <ele>25.6</ele>
        <time>2011-03-23T10:45:11Z</time>
      </trkpt>
      <trkpt lat="37.1832901641" lon="-7.49525448756">
        <ele>25.4</ele>
        <time>2011-03-23T10:45:15Z</time>
      </trkpt>
      <trkpt lat="37.1832231927" lon="-7.49523646647">
        <ele>25.2</ele>
        <time>2011-03-23T10:45:18Z</time>
      </trkpt>
      <trkpt lat="37.1831563051" lon="-7.49522012177">
        <ele>25</ele>
        <time>2011-03-23T10:45:21Z</time>
      </trkpt>
      <trkpt lat="37.1831090312" lon="-7.49520805183">
        <ele>25</ele>
        <time>2011-03-23T10:45:23Z</time>
      </trkpt>
      <trkpt lat="37.1830417246" lon="-7.49519497607">
        <ele>24.8</ele>
        <time>2011-03-23T10:45:26Z</time>
      </trkpt>
      <trkpt lat="37.1829770163" lon="-7.49517628443">
        <ele>24.8</ele>
        <time>2011-03-23T10:45:29Z</time>
      </trkpt>
      <trkpt lat="37.1829147388" lon="-7.49515742515">
        <ele>24.4</ele>
        <time>2011-03-23T10:45:32Z</time>
      </trkpt>
      <trkpt lat="37.1828507849" lon="-7.49513789533">
        <ele>23.8</ele>
        <time>2011-03-23T10:45:35Z</time>
      </trkpt>
      <trkpt lat="37.1827885074" lon="-7.49511593475">
        <ele>23.6</ele>
        <time>2011-03-23T10:45:38Z</time>
      </trkpt>
      <trkpt lat="37.182729415" lon="-7.49509171106">
        <ele>23.2</ele>
        <time>2011-03-23T10:45:41Z</time>
      </trkpt>
      <trkpt lat="37.182666886" lon="-7.49506304496">
        <ele>23</ele>
        <time>2011-03-23T10:45:44Z</time>
      </trkpt>
      <trkpt lat="37.1826054467" lon="-7.49502591314">
        <ele>22.4</ele>
        <time>2011-03-23T10:45:47Z</time>
      </trkpt>
      <trkpt lat="37.1825476116" lon="-7.49499381047">
        <ele>22</ele>
        <time>2011-03-23T10:45:50Z</time>
      </trkpt>
      <trkpt lat="37.182491369" lon="-7.49496405472">
        <ele>21.4</ele>
        <time>2011-03-23T10:45:53Z</time>
      </trkpt>
      <trkpt lat="37.1824335339" lon="-7.49493186823">
        <ele>21.2</ele>
        <time>2011-03-23T10:45:56Z</time>
      </trkpt>
      <trkpt lat="37.1823758664" lon="-7.49489725098">
        <ele>20.4</ele>
        <time>2011-03-23T10:45:59Z</time>
      </trkpt>
      <trkpt lat="37.1823189533" lon="-7.49486062208">
        <ele>19.8</ele>
        <time>2011-03-23T10:46:02Z</time>
      </trkpt>
      <trkpt lat="37.1822710927" lon="-7.49483698512">
        <ele>19.4</ele>
        <time>2011-03-23T10:46:05Z</time>
      </trkpt>
      <trkpt lat="37.1822245731" lon="-7.49481611419">
        <ele>19.2</ele>
        <time>2011-03-23T10:46:07Z</time>
      </trkpt>
      <trkpt lat="37.1821790594" lon="-7.49478895683">
        <ele>19</ele>
        <time>2011-03-23T10:46:10Z</time>
      </trkpt>
      <trkpt lat="37.1821402512" lon="-7.49477034901">
        <ele>18.6</ele>
        <time>2011-03-23T10:46:13Z</time>
      </trkpt>
      <trkpt lat="37.1821019459" lon="-7.49475283084">
        <ele>17.8</ele>
        <time>2011-03-23T10:46:16Z</time>
      </trkpt>
      <trkpt lat="37.1820611261" lon="-7.49473715669">
        <ele>17.4</ele>
        <time>2011-03-23T10:46:19Z</time>
      </trkpt>
      <trkpt lat="37.1820182108" lon="-7.49472542203">
        <ele>17</ele>
        <time>2011-03-23T10:46:22Z</time>
      </trkpt>
      <trkpt lat="37.1819764689" lon="-7.49471335209">
        <ele>16.8</ele>
        <time>2011-03-23T10:46:25Z</time>
      </trkpt>
      <trkpt lat="37.1819341403" lon="-7.49470438346">
        <ele>16.6</ele>
        <time>2011-03-23T10:46:28Z</time>
      </trkpt>
      <trkpt lat="37.1818915602" lon="-7.49470463492">
        <ele>16.6</ele>
        <time>2011-03-23T10:46:31Z</time>
      </trkpt>
      <trkpt lat="37.1818515786" lon="-7.49471620194">
        <ele>16.4</ele>
        <time>2011-03-23T10:46:34Z</time>
      </trkpt>
      <trkpt lat="37.1818149497" lon="-7.49473439066">
        <ele>16</ele>
        <time>2011-03-23T10:46:37Z</time>
      </trkpt>
      <trkpt lat="37.1817822603" lon="-7.4947614642">
        <ele>15.4</ele>
        <time>2011-03-23T10:46:40Z</time>
      </trkpt>
      <trkpt lat="37.1817632334" lon="-7.49477915001">
        <ele>15.2</ele>
        <time>2011-03-23T10:46:42Z</time>
      </trkpt>
      <trkpt lat="37.1817468048" lon="-7.49481577891">
        <ele>15</ele>
        <time>2011-03-23T10:46:45Z</time>
      </trkpt>
      <trkpt lat="37.1817377524" lon="-7.49488492959">
        <ele>14.6</ele>
        <time>2011-03-23T10:46:49Z</time>
      </trkpt>
      <trkpt lat="37.1817243413" lon="-7.494936143">
        <ele>14.6</ele>
        <time>2011-03-23T10:46:52Z</time>
      </trkpt>
      <trkpt lat="37.1817174682" lon="-7.49498744022">
        <ele>14.4</ele>
        <time>2011-03-23T10:46:55Z</time>
      </trkpt>
      <trkpt lat="37.1817093377" lon="-7.4950411682">
        <ele>14.4</ele>
        <time>2011-03-23T10:46:58Z</time>
      </trkpt>
      <trkpt lat="37.1817040571" lon="-7.49509389035">
        <ele>14.2</ele>
        <time>2011-03-23T10:47:01Z</time>
      </trkpt>
      <trkpt lat="37.1816895565" lon="-7.49514778597">
        <ele>14.2</ele>
        <time>2011-03-23T10:47:04Z</time>
      </trkpt>
      <trkpt lat="37.1816762292" lon="-7.49520285505">
        <ele>14.2</ele>
        <time>2011-03-23T10:47:07Z</time>
      </trkpt>
      <trkpt lat="37.1816660033" lon="-7.49527158663">
        <ele>14.2</ele>
        <time>2011-03-23T10:47:10Z</time>
      </trkpt>
      <trkpt lat="37.1816566156" lon="-7.49532506316">
        <ele>14.2</ele>
        <time>2011-03-23T10:47:12Z</time>
      </trkpt>
      <trkpt lat="37.1816523408" lon="-7.49535314252">
        <ele>14.2</ele>
        <time>2011-03-23T10:47:13Z</time>
      </trkpt>
      <trkpt lat="37.1816370858" lon="-7.49546093375">
        <ele>14.2</ele>
        <time>2011-03-23T10:47:17Z</time>
      </trkpt>
      <trkpt lat="37.1816280333" lon="-7.49554173527">
        <ele>14.2</ele>
        <time>2011-03-23T10:47:20Z</time>
      </trkpt>
      <trkpt lat="37.1816187294" lon="-7.49559529561">
        <ele>14.2</ele>
        <time>2011-03-23T10:47:22Z</time>
      </trkpt>
      <trkpt lat="37.1816101799" lon="-7.49567517512">
        <ele>14.2</ele>
        <time>2011-03-23T10:47:25Z</time>
      </trkpt>
      <trkpt lat="37.1816053184" lon="-7.49573292641">
        <ele>14.2</ele>
        <time>2011-03-23T10:47:27Z</time>
      </trkpt>
      <trkpt lat="37.1815965174" lon="-7.49581649395">
        <ele>14.2</ele>
        <time>2011-03-23T10:47:30Z</time>
      </trkpt>
      <trkpt lat="37.1815874649" lon="-7.49590089969">
        <ele>14.2</ele>
        <time>2011-03-23T10:47:33Z</time>
      </trkpt>
      <trkpt lat="37.1815796697" lon="-7.49597751025">
        <ele>14.2</ele>
        <time>2011-03-23T10:47:36Z</time>
      </trkpt>
      <trkpt lat="37.181575395" lon="-7.49606158071">
        <ele>14.2</ele>
        <time>2011-03-23T10:47:39Z</time>
      </trkpt>
      <trkpt lat="37.1815631574" lon="-7.49614221459">
        <ele>14.2</ele>
        <time>2011-03-23T10:47:42Z</time>
      </trkpt>
      <trkpt lat="37.1815515904" lon="-7.49621756787">
        <ele>14.2</ele>
        <time>2011-03-23T10:47:45Z</time>
      </trkpt>
      <trkpt lat="37.1815446334" lon="-7.49629878848">
        <ele>14.2</ele>
        <time>2011-03-23T10:47:48Z</time>
      </trkpt>
      <trkpt lat="37.1815349942" lon="-7.49638168547">
        <ele>14.2</ele>
        <time>2011-03-23T10:47:51Z</time>
      </trkpt>
      <trkpt lat="37.1815290431" lon="-7.49646416337">
        <ele>14.2</ele>
        <time>2011-03-23T10:47:54Z</time>
      </trkpt>
      <trkpt lat="37.1815228405" lon="-7.49654253413">
        <ele>14.2</ele>
        <time>2011-03-23T10:47:57Z</time>
      </trkpt>
      <trkpt lat="37.1815159673" lon="-7.4966209049">
        <ele>14.2</ele>
        <time>2011-03-23T10:48:00Z</time>
      </trkpt>
      <trkpt lat="37.1815114411" lon="-7.49667555488">
        <ele>14.2</ele>
        <time>2011-03-23T10:48:02Z</time>
      </trkpt>
      <trkpt lat="37.1815021372" lon="-7.4967514949">
        <ele>14.2</ele>
        <time>2011-03-23T10:48:05Z</time>
      </trkpt>
      <trkpt lat="37.1814910731" lon="-7.4968300333">
        <ele>14.2</ele>
        <time>2011-03-23T10:48:08Z</time>
      </trkpt>
      <trkpt lat="37.1814853734" lon="-7.49688200108">
        <ele>14.2</ele>
        <time>2011-03-23T10:48:10Z</time>
      </trkpt>
      <trkpt lat="37.1814770753" lon="-7.49695609708">
        <ele>14.2</ele>
        <time>2011-03-23T10:48:13Z</time>
      </trkpt>
      <trkpt lat="37.1814705374" lon="-7.49701049561">
        <ele>14.2</ele>
        <time>2011-03-23T10:48:15Z</time>
      </trkpt>
      <trkpt lat="37.1814589704" lon="-7.49708936929">
        <ele>14.2</ele>
        <time>2011-03-23T10:48:18Z</time>
      </trkpt>
      <trkpt lat="37.1814523487" lon="-7.49716639895">
        <ele>13.6</ele>
        <time>2011-03-23T10:48:21Z</time>
      </trkpt>
      <trkpt lat="37.1814447212" lon="-7.49724351243">
        <ele>13.2</ele>
        <time>2011-03-23T10:48:24Z</time>
      </trkpt>
      <trkpt lat="37.1814342438" lon="-7.49731962008">
        <ele>13</ele>
        <time>2011-03-23T10:48:27Z</time>
      </trkpt>
      <trkpt lat="37.1814276221" lon="-7.4973982423">
        <ele>12.6</ele>
        <time>2011-03-23T10:48:30Z</time>
      </trkpt>
      <trkpt lat="37.1814212518" lon="-7.49747736744">
        <ele>12.6</ele>
        <time>2011-03-23T10:48:33Z</time>
      </trkpt>
      <trkpt lat="37.181410523" lon="-7.49755691167">
        <ele>12.4</ele>
        <time>2011-03-23T10:48:36Z</time>
      </trkpt>
      <trkpt lat="37.1814052424" lon="-7.49761047201">
        <ele>12.4</ele>
        <time>2011-03-23T10:48:38Z</time>
      </trkpt>
      <trkpt lat="37.1814008838" lon="-7.49768532238">
        <ele>12.4</ele>
        <time>2011-03-23T10:48:41Z</time>
      </trkpt>
      <trkpt lat="37.1813899874" lon="-7.49776402842">
        <ele>12.2</ele>
        <time>2011-03-23T10:48:44Z</time>
      </trkpt>
      <trkpt lat="37.1813824436" lon="-7.49784633868">
        <ele>12.2</ele>
        <time>2011-03-23T10:48:47Z</time>
      </trkpt>
      <trkpt lat="37.1813781689" lon="-7.49792546381">
        <ele>12.2</ele>
        <time>2011-03-23T10:48:50Z</time>
      </trkpt>
      <trkpt lat="37.1813732236" lon="-7.49800609769">
        <ele>12.2</ele>
        <time>2011-03-23T10:48:53Z</time>
      </trkpt>
      <trkpt lat="37.1813692841" lon="-7.49808782121">
        <ele>12.2</ele>
        <time>2011-03-23T10:48:56Z</time>
      </trkpt>
      <trkpt lat="37.1813793423" lon="-7.49817264604">
        <ele>12.2</ele>
        <time>2011-03-23T10:48:59Z</time>
      </trkpt>
      <trkpt lat="37.1814128699" lon="-7.49824380837">
        <ele>12.2</ele>
        <time>2011-03-23T10:49:02Z</time>
      </trkpt>
      <trkpt lat="37.1814271192" lon="-7.4982619971">
        <ele>12.2</ele>
        <time>2011-03-23T10:49:03Z</time>
      </trkpt>
      <trkpt lat="37.1814867983" lon="-7.49830985775">
        <ele>12.2</ele>
        <time>2011-03-23T10:49:07Z</time>
      </trkpt>
      <trkpt lat="37.1815837769" lon="-7.49835704784">
        <ele>12.2</ele>
        <time>2011-03-23T10:49:12Z</time>
      </trkpt>
      <trkpt lat="37.1816279495" lon="-7.49838621685">
        <ele>12.2</ele>
        <time>2011-03-23T10:49:15Z</time>
      </trkpt>
      <trkpt lat="37.1816805878" lon="-7.49843390987">
        <ele>12.2</ele>
        <time>2011-03-23T10:49:18Z</time>
      </trkpt>
      <trkpt lat="37.1817293705" lon="-7.49848705111">
        <ele>12.2</ele>
        <time>2011-03-23T10:49:21Z</time>
      </trkpt>
      <trkpt lat="37.1817840205" lon="-7.4985161363">
        <ele>12.2</ele>
        <time>2011-03-23T10:49:24Z</time>
      </trkpt>
      <trkpt lat="37.1818440349" lon="-7.49853533086">
        <ele>12.2</ele>
        <time>2011-03-23T10:49:27Z</time>
      </trkpt>
      <trkpt lat="37.1819007803" lon="-7.49855544742">
        <ele>12.2</ele>
        <time>2011-03-23T10:49:30Z</time>
      </trkpt>
      <trkpt lat="37.1819587831" lon="-7.49857740799">
        <ele>12.2</ele>
        <time>2011-03-23T10:49:33Z</time>
      </trkpt>
      <trkpt lat="37.1820178755" lon="-7.49860070968">
        <ele>12.2</ele>
        <time>2011-03-23T10:49:36Z</time>
      </trkpt>
      <trkpt lat="37.1820747886" lon="-7.49862107769">
        <ele>12.2</ele>
        <time>2011-03-23T10:49:39Z</time>
      </trkpt>
      <trkpt lat="37.1821337133" lon="-7.49863867968">
        <ele>12.6</ele>
        <time>2011-03-23T10:49:42Z</time>
      </trkpt>
      <trkpt lat="37.1821899559" lon="-7.49865527584">
        <ele>13</ele>
        <time>2011-03-23T10:49:45Z</time>
      </trkpt>
      <trkpt lat="37.1822466175" lon="-7.49866977653">
        <ele>13.4</ele>
        <time>2011-03-23T10:49:48Z</time>
      </trkpt>
      <trkpt lat="37.1823057099" lon="-7.49868922254">
        <ele>13.6</ele>
        <time>2011-03-23T10:49:51Z</time>
      </trkpt>
      <trkpt lat="37.1823627068" lon="-7.4987106802">
        <ele>13.8</ele>
        <time>2011-03-23T10:49:54Z</time>
      </trkpt>
      <trkpt lat="37.1824234756" lon="-7.49872819837">
        <ele>13.8</ele>
        <time>2011-03-23T10:49:57Z</time>
      </trkpt>
      <trkpt lat="37.1824877648" lon="-7.49874747674">
        <ele>14</ele>
        <time>2011-03-23T10:50:00Z</time>
      </trkpt>
      <trkpt lat="37.1825467734" lon="-7.49876910205">
        <ele>14</ele>
        <time>2011-03-23T10:50:03Z</time>
      </trkpt>
      <trkpt lat="37.1826132418" lon="-7.49879055971">
        <ele>14.6</ele>
        <time>2011-03-23T10:50:06Z</time>
      </trkpt>
      <trkpt lat="37.1826778663" lon="-7.49881193356">
        <ele>15</ele>
        <time>2011-03-23T10:50:09Z</time>
      </trkpt>
      <trkpt lat="37.1827378807" lon="-7.4988266857">
        <ele>15.4</ele>
        <time>2011-03-23T10:50:12Z</time>
      </trkpt>
      <trkpt lat="37.182790519" lon="-7.49884294659">
        <ele>15.6</ele>
        <time>2011-03-23T10:50:15Z</time>
      </trkpt>
      <trkpt lat="37.1828512878" lon="-7.49887890494">
        <ele>15.8</ele>
        <time>2011-03-23T10:50:18Z</time>
      </trkpt>
      <trkpt lat="37.1828987294" lon="-7.49890991797">
        <ele>16.4</ele>
        <time>2011-03-23T10:50:21Z</time>
      </trkpt>
      <trkpt lat="37.1829474282" lon="-7.49893439311">
        <ele>16.8</ele>
        <time>2011-03-23T10:50:24Z</time>
      </trkpt>
      <trkpt lat="37.1829908464" lon="-7.49896364595">
        <ele>17.2</ele>
        <time>2011-03-23T10:50:27Z</time>
      </trkpt>
      <trkpt lat="37.183035522" lon="-7.49900304088">
        <ele>17.6</ele>
        <time>2011-03-23T10:50:30Z</time>
      </trkpt>
      <trkpt lat="37.1830801137" lon="-7.49903841249">
        <ele>17.8</ele>
        <time>2011-03-23T10:50:33Z</time>
      </trkpt>
      <trkpt lat="37.1831299022" lon="-7.49907780742">
        <ele>18</ele>
        <time>2011-03-23T10:50:36Z</time>
      </trkpt>
      <trkpt lat="37.1831799421" lon="-7.49911485542">
        <ele>18.6</ele>
        <time>2011-03-23T10:50:39Z</time>
      </trkpt>
      <trkpt lat="37.1832304011" lon="-7.49915735165">
        <ele>19</ele>
        <time>2011-03-23T10:50:42Z</time>
      </trkpt>
      <trkpt lat="37.183280022" lon="-7.49919783623">
        <ele>19.4</ele>
        <time>2011-03-23T10:50:45Z</time>
      </trkpt>
      <trkpt lat="37.1833257033" lon="-7.49924234412">
        <ele>19.6</ele>
        <time>2011-03-23T10:50:48Z</time>
      </trkpt>
      <trkpt lat="37.1833752404" lon="-7.49928651673">
        <ele>19.8</ele>
        <time>2011-03-23T10:50:51Z</time>
      </trkpt>
      <trkpt lat="37.183425867" lon="-7.49932566021">
        <ele>20</ele>
        <time>2011-03-23T10:50:54Z</time>
      </trkpt>
      <trkpt lat="37.1834764937" lon="-7.49936597715">
        <ele>20</ele>
        <time>2011-03-23T10:50:57Z</time>
      </trkpt>
      <trkpt lat="37.1835275395" lon="-7.49940470152">
        <ele>20.2</ele>
        <time>2011-03-23T10:51:00Z</time>
      </trkpt>
      <trkpt lat="37.1835789205" lon="-7.49944174952">
        <ele>20.2</ele>
        <time>2011-03-23T10:51:03Z</time>
      </trkpt>
      <trkpt lat="37.1836358336" lon="-7.49947720496">
        <ele>20.8</ele>
        <time>2011-03-23T10:51:06Z</time>
      </trkpt>
      <trkpt lat="37.1836709538" lon="-7.49950050664">
        <ele>21.2</ele>
        <time>2011-03-23T10:51:08Z</time>
      </trkpt>
      <trkpt lat="37.1837100973" lon="-7.49952229958">
        <ele>21.4</ele>
        <time>2011-03-23T10:51:10Z</time>
      </trkpt>
      <trkpt lat="37.1837650825" lon="-7.49955482135">
        <ele>21.6</ele>
        <time>2011-03-23T10:51:13Z</time>
      </trkpt>
      <trkpt lat="37.1837833551" lon="-7.49956571782">
        <ele>21.8</ele>
        <time>2011-03-23T10:51:14Z</time>
      </trkpt>
      <trkpt lat="37.1838630669" lon="-7.49956814857">
        <ele>22</ele>
        <time>2011-03-23T10:51:18Z</time>
      </trkpt>
      <trkpt lat="37.1839033001" lon="-7.49959941306">
        <ele>22</ele>
        <time>2011-03-23T10:51:20Z</time>
      </trkpt>
      <trkpt lat="37.183951496" lon="-7.49962908499">
        <ele>22.4</ele>
        <time>2011-03-23T10:51:23Z</time>
      </trkpt>
      <trkpt lat="37.1840045534" lon="-7.49967845438">
        <ele>23</ele>
        <time>2011-03-23T10:51:26Z</time>
      </trkpt>
      <trkpt lat="37.1840576947" lon="-7.49972455483">
        <ele>23.4</ele>
        <time>2011-03-23T10:51:29Z</time>
      </trkpt>
      <trkpt lat="37.1841110874" lon="-7.49976034554">
        <ele>23.6</ele>
        <time>2011-03-23T10:51:32Z</time>
      </trkpt>
      <trkpt lat="37.184164061" lon="-7.49979814791">
        <ele>24</ele>
        <time>2011-03-23T10:51:35Z</time>
      </trkpt>
      <trkpt lat="37.1842144362" lon="-7.49983544736">
        <ele>24</ele>
        <time>2011-03-23T10:51:38Z</time>
      </trkpt>
      <trkpt lat="37.1842678289" lon="-7.49987584812">
        <ele>24.2</ele>
        <time>2011-03-23T10:51:41Z</time>
      </trkpt>
      <trkpt lat="37.1843200481" lon="-7.49991708707">
        <ele>24.2</ele>
        <time>2011-03-23T10:51:44Z</time>
      </trkpt>
      <trkpt lat="37.1843723512" lon="-7.49996125968">
        <ele>24.4</ele>
        <time>2011-03-23T10:51:47Z</time>
      </trkpt>
      <trkpt lat="37.1844254924" lon="-7.49999998406">
        <ele>24.4</ele>
        <time>2011-03-23T10:51:50Z</time>
      </trkpt>
      <trkpt lat="37.1844773764" lon="-7.50004122301">
        <ele>24.8</ele>
        <time>2011-03-23T10:51:53Z</time>
      </trkpt>
      <trkpt lat="37.1845288413" lon="-7.5000857309">
        <ele>25.2</ele>
        <time>2011-03-23T10:51:56Z</time>
      </trkpt>
      <trkpt lat="37.1845647158" lon="-7.50011540282">
        <ele>25.6</ele>
        <time>2011-03-23T10:51:58Z</time>
      </trkpt>
      <trkpt lat="37.1846154263" lon="-7.50015974308">
        <ele>25.8</ele>
        <time>2011-03-23T10:52:01Z</time>
      </trkpt>
      <trkpt lat="37.1846679808" lon="-7.50019855127">
        <ele>26</ele>
        <time>2011-03-23T10:52:04Z</time>
      </trkpt>
      <trkpt lat="37.1847166796" lon="-7.50023953876">
        <ele>26.2</ele>
        <time>2011-03-23T10:52:07Z</time>
      </trkpt>
      <trkpt lat="37.1847657138" lon="-7.50028052625">
        <ele>26.2</ele>
        <time>2011-03-23T10:52:10Z</time>
      </trkpt>
      <trkpt lat="37.1848146641" lon="-7.50032142993">
        <ele>26.4</ele>
        <time>2011-03-23T10:52:13Z</time>
      </trkpt>
      <trkpt lat="37.184863782" lon="-7.50036618927">
        <ele>26.4</ele>
        <time>2011-03-23T10:52:16Z</time>
      </trkpt>
      <trkpt lat="37.1849112235" lon="-7.50041212208">
        <ele>26.4</ele>
        <time>2011-03-23T10:52:19Z</time>
      </trkpt>
      <trkpt lat="37.184963359" lon="-7.50045922836">
        <ele>26.4</ele>
        <time>2011-03-23T10:52:22Z</time>
      </trkpt>
      <trkpt lat="37.1850164164" lon="-7.50050231133">
        <ele>26.4</ele>
        <time>2011-03-23T10:52:25Z</time>
      </trkpt>
      <trkpt lat="37.1850524586" lon="-7.50053223471">
        <ele>26.4</ele>
        <time>2011-03-23T10:52:27Z</time>
      </trkpt>
      <trkpt lat="37.1850978885" lon="-7.50057724551">
        <ele>26.6</ele>
        <time>2011-03-23T10:52:30Z</time>
      </trkpt>
      <trkpt lat="37.1851423125" lon="-7.50062762073">
        <ele>26.6</ele>
        <time>2011-03-23T10:52:33Z</time>
      </trkpt>
      <trkpt lat="37.1851837191" lon="-7.50068361182">
        <ele>26.6</ele>
        <time>2011-03-23T10:52:36Z</time>
      </trkpt>
      <trkpt lat="37.1852279755" lon="-7.5007359987">
        <ele>26.6</ele>
        <time>2011-03-23T10:52:39Z</time>
      </trkpt>
      <trkpt lat="37.1852696336" lon="-7.50078771502">
        <ele>26.6</ele>
        <time>2011-03-23T10:52:42Z</time>
      </trkpt>
      <trkpt lat="37.1853118784" lon="-7.50083549185">
        <ele>26.6</ele>
        <time>2011-03-23T10:52:45Z</time>
      </trkpt>
      <trkpt lat="37.1853587332" lon="-7.50087337804">
        <ele>26.6</ele>
        <time>2011-03-23T10:52:48Z</time>
      </trkpt>
      <trkpt lat="37.185402822" lon="-7.50091428171">
        <ele>26.6</ele>
        <time>2011-03-23T10:52:51Z</time>
      </trkpt>
      <trkpt lat="37.1854522752" lon="-7.50095644267">
        <ele>26.6</ele>
        <time>2011-03-23T10:52:54Z</time>
      </trkpt>
      <trkpt lat="37.1855046621" lon="-7.50099550232">
        <ele>26.6</ele>
        <time>2011-03-23T10:52:57Z</time>
      </trkpt>
      <trkpt lat="37.1855583062" lon="-7.50102601244">
        <ele>26.6</ele>
        <time>2011-03-23T10:53:00Z</time>
      </trkpt>
      <trkpt lat="37.1856155546" lon="-7.50105744457">
        <ele>26.6</ele>
        <time>2011-03-23T10:53:03Z</time>
      </trkpt>
      <trkpt lat="37.1856687797" lon="-7.5010845181">
        <ele>26.6</ele>
        <time>2011-03-23T10:53:06Z</time>
      </trkpt>
      <trkpt lat="37.1857038998" lon="-7.50110010844">
        <ele>26.6</ele>
        <time>2011-03-23T10:53:08Z</time>
      </trkpt>
      <trkpt lat="37.1857580469" lon="-7.50114369432">
        <ele>26.6</ele>
        <time>2011-03-23T10:53:11Z</time>
      </trkpt>
      <trkpt lat="37.1858054046" lon="-7.50118493326">
        <ele>26.6</ele>
        <time>2011-03-23T10:53:14Z</time>
      </trkpt>
      <trkpt lat="37.1858333164" lon="-7.50122441201">
        <ele>26.6</ele>
        <time>2011-03-23T10:53:16Z</time>
      </trkpt>
      <trkpt lat="37.1858834401" lon="-7.50130756046">
        <ele>26.6</ele>
        <time>2011-03-23T10:53:20Z</time>
      </trkpt>
      <trkpt lat="37.1859190632" lon="-7.50137587295">
        <ele>26.6</ele>
        <time>2011-03-23T10:53:23Z</time>
      </trkpt>
      <trkpt lat="37.1859486513" lon="-7.50144778965">
        <ele>26.8</ele>
        <time>2011-03-23T10:53:26Z</time>
      </trkpt>
      <trkpt lat="37.1859768145" lon="-7.50152163419">
        <ele>27.2</ele>
        <time>2011-03-23T10:53:29Z</time>
      </trkpt>
      <trkpt lat="37.1860050615" lon="-7.50159497581">
        <ele>27.6</ele>
        <time>2011-03-23T10:53:32Z</time>
      </trkpt>
      <trkpt lat="37.186034482" lon="-7.50166991">
        <ele>27.8</ele>
        <time>2011-03-23T10:53:35Z</time>
      </trkpt>
      <trkpt lat="37.1860611364" lon="-7.50174543092">
        <ele>28</ele>
        <time>2011-03-23T10:53:38Z</time>
      </trkpt>
      <trkpt lat="37.1860873717" lon="-7.50182053274">
        <ele>28.2</ele>
        <time>2011-03-23T10:53:41Z</time>
      </trkpt>
      <trkpt lat="37.1861136909" lon="-7.50189563457">
        <ele>28.2</ele>
        <time>2011-03-23T10:53:44Z</time>
      </trkpt>
      <trkpt lat="37.186138669" lon="-7.50196579107">
        <ele>28.4</ele>
        <time>2011-03-23T10:53:47Z</time>
      </trkpt>
      <trkpt lat="37.1861732024" lon="-7.50203259481">
        <ele>28.4</ele>
        <time>2011-03-23T10:53:50Z</time>
      </trkpt>
      <trkpt lat="37.1861936542" lon="-7.50207877908">
        <ele>28.4</ele>
        <time>2011-03-23T10:53:52Z</time>
      </trkpt>
      <trkpt lat="37.1862228233" lon="-7.50214893558">
        <ele>28.4</ele>
        <time>2011-03-23T10:53:55Z</time>
      </trkpt>
      <trkpt lat="37.1862498968" lon="-7.50221699661">
        <ele>28.4</ele>
        <time>2011-03-23T10:53:58Z</time>
      </trkpt>
      <trkpt lat="37.1862757969" lon="-7.50228597965">
        <ele>28.6</ele>
        <time>2011-03-23T10:54:01Z</time>
      </trkpt>
      <trkpt lat="37.1863031219" lon="-7.50235630379">
        <ele>28.6</ele>
        <time>2011-03-23T10:54:04Z</time>
      </trkpt>
      <trkpt lat="37.1863317041" lon="-7.50242293989">
        <ele>28.6</ele>
        <time>2011-03-23T10:54:07Z</time>
      </trkpt>
      <trkpt lat="37.1863643097" lon="-7.50248999509">
        <ele>28.6</ele>
        <time>2011-03-23T10:54:10Z</time>
      </trkpt>
      <trkpt lat="37.1864037047" lon="-7.50255671502">
        <ele>28.6</ele>
        <time>2011-03-23T10:54:13Z</time>
      </trkpt>
      <trkpt lat="37.186443351" lon="-7.50262251293">
        <ele>28.6</ele>
        <time>2011-03-23T10:54:16Z</time>
      </trkpt>
      <trkpt lat="37.1864819916" lon="-7.50268621537">
        <ele>28.6</ele>
        <time>2011-03-23T10:54:19Z</time>
      </trkpt>
      <trkpt lat="37.1865105739" lon="-7.50275352203">
        <ele>28.6</ele>
        <time>2011-03-23T10:54:22Z</time>
      </trkpt>
      <trkpt lat="37.1865291817" lon="-7.50283172516">
        <ele>28.6</ele>
        <time>2011-03-23T10:54:25Z</time>
      </trkpt>
      <trkpt lat="37.1865443529" lon="-7.50288478258">
        <ele>28.6</ele>
        <time>2011-03-23T10:54:27Z</time>
      </trkpt>
      <trkpt lat="37.1865676546" lon="-7.50296021968">
        <ele>28.6</ele>
        <time>2011-03-23T10:54:30Z</time>
      </trkpt>
      <trkpt lat="37.1865895314" lon="-7.5030343995">
        <ele>29.2</ele>
        <time>2011-03-23T10:54:33Z</time>
      </trkpt>
      <trkpt lat="37.1866094803" lon="-7.50309709611">
        <ele>29.6</ele>
        <time>2011-03-23T10:54:36Z</time>
      </trkpt>
      <trkpt lat="37.1866316923" lon="-7.5031517461">
        <ele>29.8</ele>
        <time>2011-03-23T10:54:39Z</time>
      </trkpt>
      <trkpt lat="37.1866517251" lon="-7.50320664754">
        <ele>30</ele>
        <time>2011-03-23T10:54:42Z</time>
      </trkpt>
      <trkpt lat="37.1866711711" lon="-7.5032593697">
        <ele>30.2</ele>
        <time>2011-03-23T10:54:45Z</time>
      </trkpt>
      <trkpt lat="37.1866917906" lon="-7.50331284622">
        <ele>30.4</ele>
        <time>2011-03-23T10:54:48Z</time>
      </trkpt>
      <trkpt lat="37.1867154275" lon="-7.50336221561">
        <ele>30.4</ele>
        <time>2011-03-23T10:54:51Z</time>
      </trkpt>
      <trkpt lat="37.1867371366" lon="-7.5034032031">
        <ele>30.4</ele>
        <time>2011-03-23T10:54:54Z</time>
      </trkpt>
      <trkpt lat="37.1867631205" lon="-7.50344226275">
        <ele>30.6</ele>
        <time>2011-03-23T10:54:57Z</time>
      </trkpt>
      <trkpt lat="37.1867958938" lon="-7.50347503598">
        <ele>30.6</ele>
        <time>2011-03-23T10:55:00Z</time>
      </trkpt>
      <trkpt lat="37.1868309301" lon="-7.50349775093">
        <ele>30.6</ele>
        <time>2011-03-23T10:55:03Z</time>
      </trkpt>
      <trkpt lat="37.1868753542" lon="-7.50351283835">
        <ele>30.6</ele>
        <time>2011-03-23T10:55:06Z</time>
      </trkpt>
      <trkpt lat="37.1869179342" lon="-7.50352289663">
        <ele>30.6</ele>
        <time>2011-03-23T10:55:09Z</time>
      </trkpt>
      <trkpt lat="37.1869643699" lon="-7.50352440537">
        <ele>30.6</ele>
        <time>2011-03-23T10:55:12Z</time>
      </trkpt>
      <trkpt lat="37.1869798765" lon="-7.50352239372">
        <ele>30.6</ele>
        <time>2011-03-23T10:55:13Z</time>
      </trkpt>
      <trkpt lat="37.1870527152" lon="-7.50353119471">
        <ele>30.6</ele>
        <time>2011-03-23T10:55:17Z</time>
      </trkpt>
      <trkpt lat="37.1871206086" lon="-7.50353429602">
        <ele>30.6</ele>
        <time>2011-03-23T10:55:20Z</time>
      </trkpt>
      <trkpt lat="37.1871693912" lon="-7.50353614003">
        <ele>30.6</ele>
        <time>2011-03-23T10:55:22Z</time>
      </trkpt>
      <trkpt lat="37.1872351053" lon="-7.50353857078">
        <ele>30.6</ele>
        <time>2011-03-23T10:55:25Z</time>
      </trkpt>
      <trkpt lat="37.1872997298" lon="-7.5035368944">
        <ele>30.6</ele>
        <time>2011-03-23T10:55:28Z</time>
      </trkpt>
      <trkpt lat="37.1873701377" lon="-7.50354376756">
        <ele>30.6</ele>
        <time>2011-03-23T10:55:31Z</time>
      </trkpt>
      <trkpt lat="37.1874154" lon="-7.50354929962">
        <ele>30.6</ele>
        <time>2011-03-23T10:55:33Z</time>
      </trkpt>
      <trkpt lat="37.1874833772" lon="-7.50354695268">
        <ele>30.6</ele>
        <time>2011-03-23T10:55:36Z</time>
      </trkpt>
      <trkpt lat="37.1875444812" lon="-7.50354368374">
        <ele>30.6</ele>
        <time>2011-03-23T10:55:39Z</time>
      </trkpt>
      <trkpt lat="37.1875615803" lon="-7.50353882224">
        <ele>30.6</ele>
        <time>2011-03-23T10:55:40Z</time>
      </trkpt>
      <trkpt lat="37.187578847" lon="-7.50354133681">
        <ele>30.6</ele>
        <time>2011-03-23T10:55:44Z</time>
      </trkpt>
      <trkpt lat="37.1876083513" lon="-7.50359565152">
        <ele>30.6</ele>
        <time>2011-03-23T10:55:48Z</time>
      </trkpt>
      <trkpt lat="37.1876013105" lon="-7.50359020329">
        <ele>30.6</ele>
        <time>2011-03-23T10:55:52Z</time>
      </trkpt>
      <trkpt lat="37.187602484" lon="-7.50359565152">
        <ele>30.6</ele>
        <time>2011-03-23T10:55:53Z</time>
      </trkpt>
      <trkpt lat="37.187616817" lon="-7.50358634761">
        <ele>30.6</ele>
        <time>2011-03-23T10:55:55Z</time>
      </trkpt>
      <trkpt lat="37.1876864706" lon="-7.50356547668">
        <ele>30.6</ele>
        <time>2011-03-23T10:55:58Z</time>
      </trkpt>
      <trkpt lat="37.1877438866" lon="-7.50356405176">
        <ele>31</ele>
        <time>2011-03-23T10:56:00Z</time>
      </trkpt>
      <trkpt lat="37.1878037334" lon="-7.50357201457">
        <ele>31.4</ele>
        <time>2011-03-23T10:56:02Z</time>
      </trkpt>
      <trkpt lat="37.1878675197" lon="-7.50358140229">
        <ele>31.8</ele>
        <time>2011-03-23T10:56:05Z</time>
      </trkpt>
      <trkpt lat="37.1879147936" lon="-7.50358794018">
        <ele>31.8</ele>
        <time>2011-03-23T10:56:07Z</time>
      </trkpt>
      <trkpt lat="37.1879375924" lon="-7.50358651525">
        <ele>32</ele>
        <time>2011-03-23T10:56:08Z</time>
      </trkpt>
      <trkpt lat="37.1880064916" lon="-7.50359271786">
        <ele>32.2</ele>
        <time>2011-03-23T10:56:11Z</time>
      </trkpt>
      <trkpt lat="37.188054939" lon="-7.50359808227">
        <ele>32.2</ele>
        <time>2011-03-23T10:56:13Z</time>
      </trkpt>
      <trkpt lat="37.1881030511" lon="-7.50360017775">
        <ele>32.4</ele>
        <time>2011-03-23T10:56:15Z</time>
      </trkpt>
      <trkpt lat="37.1881635684" lon="-7.50360604508">
        <ele>32.4</ele>
        <time>2011-03-23T10:56:18Z</time>
      </trkpt>
      <trkpt lat="37.1882115967" lon="-7.50360931402">
        <ele>32.4</ele>
        <time>2011-03-23T10:56:20Z</time>
      </trkpt>
      <trkpt lat="37.1882726169" lon="-7.50362331179">
        <ele>32.8</ele>
        <time>2011-03-23T10:56:23Z</time>
      </trkpt>
      <trkpt lat="37.1883175439" lon="-7.50363395681">
        <ele>33.2</ele>
        <time>2011-03-23T10:56:25Z</time>
      </trkpt>
      <trkpt lat="37.1883709366" lon="-7.50364577529">
        <ele>33.6</ele>
        <time>2011-03-23T10:56:28Z</time>
      </trkpt>
      <trkpt lat="37.1884148577" lon="-7.50365725849">
        <ele>33.8</ele>
        <time>2011-03-23T10:56:31Z</time>
      </trkpt>
      <trkpt lat="37.1884520734" lon="-7.50367435756">
        <ele>34</ele>
        <time>2011-03-23T10:56:34Z</time>
      </trkpt>
      <trkpt lat="37.1884906301" lon="-7.50369036699">
        <ele>34.2</ele>
        <time>2011-03-23T10:56:37Z</time>
      </trkpt>
      <trkpt lat="37.188525415" lon="-7.50371299812">
        <ele>34.4</ele>
        <time>2011-03-23T10:56:40Z</time>
      </trkpt>
      <trkpt lat="37.1885603675" lon="-7.50373311468">
        <ele>34.4</ele>
        <time>2011-03-23T10:56:43Z</time>
      </trkpt>
      <trkpt lat="37.1886002654" lon="-7.50375440471">
        <ele>34.6</ele>
        <time>2011-03-23T10:56:46Z</time>
      </trkpt>
      <trkpt lat="37.1886415043" lon="-7.50377452127">
        <ele>34.6</ele>
        <time>2011-03-23T10:56:49Z</time>
      </trkpt>
      <trkpt lat="37.1886846711" lon="-7.50379547602">
        <ele>34.6</ele>
        <time>2011-03-23T10:56:52Z</time>
      </trkpt>
      <trkpt lat="37.1887216353" lon="-7.50381400002">
        <ele>34.6</ele>
        <time>2011-03-23T10:56:55Z</time>
      </trkpt>
      <trkpt lat="37.1887559173" lon="-7.50383738552">
        <ele>34.6</ele>
        <time>2011-03-23T10:56:58Z</time>
      </trkpt>
      <trkpt lat="37.1887895287" lon="-7.50385867555">
        <ele>34.6</ele>
        <time>2011-03-23T10:57:01Z</time>
      </trkpt>
      <trkpt lat="37.1888277501" lon="-7.50387678045">
        <ele>34.6</ele>
        <time>2011-03-23T10:57:04Z</time>
      </trkpt>
      <trkpt lat="37.1888637085" lon="-7.50389580736">
        <ele>34.6</ele>
        <time>2011-03-23T10:57:07Z</time>
      </trkpt>
      <trkpt lat="37.1888979905" lon="-7.5039140799">
        <ele>34.6</ele>
        <time>2011-03-23T10:57:10Z</time>
      </trkpt>
      <trkpt lat="37.1889313504" lon="-7.50393377737">
        <ele>34.6</ele>
        <time>2011-03-23T10:57:13Z</time>
      </trkpt>
      <trkpt lat="37.1889678955" lon="-7.50395825252">
        <ele>35.2</ele>
        <time>2011-03-23T10:57:16Z</time>
      </trkpt>
      <trkpt lat="37.189004692" lon="-7.50397954254">
        <ele>35.6</ele>
        <time>2011-03-23T10:57:19Z</time>
      </trkpt>
      <trkpt lat="37.1890401475" lon="-7.50400284422">
        <ele>36</ele>
        <time>2011-03-23T10:57:22Z</time>
      </trkpt>
      <trkpt lat="37.1890750162" lon="-7.50402715174">
        <ele>36.2</ele>
        <time>2011-03-23T10:57:25Z</time>
      </trkpt>
      <trkpt lat="37.1891087952" lon="-7.50405598547">
        <ele>36.2</ele>
        <time>2011-03-23T10:57:28Z</time>
      </trkpt>
      <trkpt lat="37.1891405626" lon="-7.50408850724">
        <ele>36.4</ele>
        <time>2011-03-23T10:57:31Z</time>
      </trkpt>
      <trkpt lat="37.1891732521" lon="-7.5041174248">
        <ele>36.4</ele>
        <time>2011-03-23T10:57:34Z</time>
      </trkpt>
      <trkpt lat="37.1892054385" lon="-7.50414776728">
        <ele>36.6</ele>
        <time>2011-03-23T10:57:37Z</time>
      </trkpt>
      <trkpt lat="37.189236703" lon="-7.50418473146">
        <ele>36.6</ele>
        <time>2011-03-23T10:57:40Z</time>
      </trkpt>
      <trkpt lat="37.1892596694" lon="-7.50422353965">
        <ele>36.6</ele>
        <time>2011-03-23T10:57:43Z</time>
      </trkpt>
      <trkpt lat="37.1892692248" lon="-7.50425069701">
        <ele>36.6</ele>
        <time>2011-03-23T10:57:45Z</time>
      </trkpt>
      <trkpt lat="37.189269141" lon="-7.50430769393">
        <ele>36.6</ele>
        <time>2011-03-23T10:57:49Z</time>
      </trkpt>
      <trkpt lat="37.1892548918" lon="-7.5043583206">
        <ele>36.6</ele>
        <time>2011-03-23T10:57:52Z</time>
      </trkpt>
      <trkpt lat="37.1892239625" lon="-7.50442856093">
        <ele>36.6</ele>
        <time>2011-03-23T10:57:55Z</time>
      </trkpt>
      <trkpt lat="37.1891995712" lon="-7.50447541575">
        <ele>36.6</ele>
        <time>2011-03-23T10:57:57Z</time>
      </trkpt>
      <trkpt lat="37.1891648702" lon="-7.50454691335">
        <ele>36.8</ele>
        <time>2011-03-23T10:58:00Z</time>
      </trkpt>
      <trkpt lat="37.1891408979" lon="-7.50459619893">
        <ele>36.8</ele>
        <time>2011-03-23T10:58:02Z</time>
      </trkpt>
      <trkpt lat="37.1891081247" lon="-7.50466736126">
        <ele>36.8</ele>
        <time>2011-03-23T10:58:05Z</time>
      </trkpt>
      <trkpt lat="37.1890856612" lon="-7.5047191614">
        <ele>36.8</ele>
        <time>2011-03-23T10:58:07Z</time>
      </trkpt>
      <trkpt lat="37.1890487808" lon="-7.50479392795">
        <ele>36.8</ele>
        <time>2011-03-23T10:58:10Z</time>
      </trkpt>
      <trkpt lat="37.1890142474" lon="-7.50486802394">
        <ele>36.8</ele>
        <time>2011-03-23T10:58:13Z</time>
      </trkpt>
      <trkpt lat="37.1889880959" lon="-7.50491621987">
        <ele>36.8</ele>
        <time>2011-03-23T10:58:15Z</time>
      </trkpt>
      <trkpt lat="37.1889625311" lon="-7.50496617599">
        <ele>36.8</ele>
        <time>2011-03-23T10:58:17Z</time>
      </trkpt>
      <trkpt lat="37.1889364634" lon="-7.50501671885">
        <ele>36.8</ele>
        <time>2011-03-23T10:58:19Z</time>
      </trkpt>
      <trkpt lat="37.1889104795" lon="-7.50506533387">
        <ele>36.8</ele>
        <time>2011-03-23T10:58:21Z</time>
      </trkpt>
      <trkpt lat="37.188881059" lon="-7.50511520617">
        <ele>36.8</ele>
        <time>2011-03-23T10:58:23Z</time>
      </trkpt>
      <trkpt lat="37.188839401" lon="-7.5051832672">
        <ele>36.8</ele>
        <time>2011-03-23T10:58:26Z</time>
      </trkpt>
      <trkpt lat="37.1887970724" lon="-7.50524780783">
        <ele>36.8</ele>
        <time>2011-03-23T10:58:29Z</time>
      </trkpt>
      <trkpt lat="37.1887633771" lon="-7.50528753804">
        <ele>36.8</ele>
        <time>2011-03-23T10:58:31Z</time>
      </trkpt>
      <trkpt lat="37.1887281732" lon="-7.50532416694">
        <ele>36.8</ele>
        <time>2011-03-23T10:58:33Z</time>
      </trkpt>
      <trkpt lat="37.1886906223" lon="-7.50535710781">
        <ele>36.8</ele>
        <time>2011-03-23T10:58:35Z</time>
      </trkpt>
      <trkpt lat="37.1886327871" lon="-7.50540035841">
        <ele>36.8</ele>
        <time>2011-03-23T10:58:38Z</time>
      </trkpt>
      <trkpt lat="37.1885729404" lon="-7.50543547857">
        <ele>37.2</ele>
        <time>2011-03-23T10:58:41Z</time>
      </trkpt>
      <trkpt lat="37.188530025" lon="-7.50545718769">
        <ele>37.6</ele>
        <time>2011-03-23T10:58:43Z</time>
      </trkpt>
      <trkpt lat="37.1884685019" lon="-7.50549884574">
        <ele>38</ele>
        <time>2011-03-23T10:58:46Z</time>
      </trkpt>
      <trkpt lat="37.188411505" lon="-7.50554109051">
        <ele>38.2</ele>
        <time>2011-03-23T10:58:49Z</time>
      </trkpt>
      <trkpt lat="37.1883737026" lon="-7.50557017571">
        <ele>38.2</ele>
        <time>2011-03-23T10:58:51Z</time>
      </trkpt>
      <trkpt lat="37.1883379119" lon="-7.50560353567">
        <ele>38.4</ele>
        <time>2011-03-23T10:58:53Z</time>
      </trkpt>
      <trkpt lat="37.1882984332" lon="-7.50563840437">
        <ele>38.4</ele>
        <time>2011-03-23T10:58:55Z</time>
      </trkpt>
      <trkpt lat="37.1882631454" lon="-7.50567109378">
        <ele>38.6</ele>
        <time>2011-03-23T10:58:57Z</time>
      </trkpt>
      <trkpt lat="37.1882041368" lon="-7.5057263305">
        <ele>38.6</ele>
        <time>2011-03-23T10:59:00Z</time>
      </trkpt>
      <trkpt lat="37.1881543483" lon="-7.50578450089">
        <ele>39.2</ele>
        <time>2011-03-23T10:59:03Z</time>
      </trkpt>
      <trkpt lat="37.1881047274" lon="-7.50584124635">
        <ele>39.6</ele>
        <time>2011-03-23T10:59:06Z</time>
      </trkpt>
      <trkpt lat="37.1880643267" lon="-7.50588717916">
        <ele>40</ele>
        <time>2011-03-23T10:59:09Z</time>
      </trkpt>
      <trkpt lat="37.1880092576" lon="-7.5059499596">
        <ele>40.2</ele>
        <time>2011-03-23T10:59:12Z</time>
      </trkpt>
      <trkpt lat="37.1879588824" lon="-7.50600226265">
        <ele>40.4</ele>
        <time>2011-03-23T10:59:15Z</time>
      </trkpt>
      <trkpt lat="37.1879043162" lon="-7.50605355988">
        <ele>40.4</ele>
        <time>2011-03-23T10:59:18Z</time>
      </trkpt>
      <trkpt lat="37.187853941" lon="-7.50610762313">
        <ele>40.6</ele>
        <time>2011-03-23T10:59:21Z</time>
      </trkpt>
      <trkpt lat="37.1877995425" lon="-7.50615187957">
        <ele>40.6</ele>
        <time>2011-03-23T10:59:24Z</time>
      </trkpt>
      <trkpt lat="37.1877603152" lon="-7.50618373079">
        <ele>40.6</ele>
        <time>2011-03-23T10:59:26Z</time>
      </trkpt>
      <trkpt lat="37.1877201659" lon="-7.50621574964">
        <ele>40.6</ele>
        <time>2011-03-23T10:59:28Z</time>
      </trkpt>
      <trkpt lat="37.1876603191" lon="-7.50625288146">
        <ele>40.8</ele>
        <time>2011-03-23T10:59:31Z</time>
      </trkpt>
      <trkpt lat="37.1876128775" lon="-7.50627375239">
        <ele>40.8</ele>
        <time>2011-03-23T10:59:33Z</time>
      </trkpt>
      <trkpt lat="37.187568202" lon="-7.50629353368">
        <ele>40.8</ele>
        <time>2011-03-23T10:59:35Z</time>
      </trkpt>
      <trkpt lat="37.1875221016" lon="-7.50632094249">
        <ele>40.8</ele>
        <time>2011-03-23T10:59:37Z</time>
      </trkpt>
      <trkpt lat="37.1874775937" lon="-7.50634491472">
        <ele>40.8</ele>
        <time>2011-03-23T10:59:39Z</time>
      </trkpt>
      <trkpt lat="37.1874328343" lon="-7.50637115007">
        <ele>40.4</ele>
        <time>2011-03-23T10:59:41Z</time>
      </trkpt>
      <trkpt lat="37.1873890808" lon="-7.50639478703">
        <ele>40</ele>
        <time>2011-03-23T10:59:43Z</time>
      </trkpt>
      <trkpt lat="37.1873449082" lon="-7.5064140654">
        <ele>39.8</ele>
        <time>2011-03-23T10:59:45Z</time>
      </trkpt>
      <trkpt lat="37.187299143" lon="-7.50643300849">
        <ele>39.6</ele>
        <time>2011-03-23T10:59:47Z</time>
      </trkpt>
      <trkpt lat="37.1872519529" lon="-7.50645832183">
        <ele>39.4</ele>
        <time>2011-03-23T10:59:49Z</time>
      </trkpt>
      <trkpt lat="37.1872062716" lon="-7.50647902512">
        <ele>39.4</ele>
        <time>2011-03-23T10:59:51Z</time>
      </trkpt>
      <trkpt lat="37.1871587462" lon="-7.50650635012">
        <ele>39.2</ele>
        <time>2011-03-23T10:59:53Z</time>
      </trkpt>
      <trkpt lat="37.1871068622" lon="-7.50652755632">
        <ele>38.8</ele>
        <time>2011-03-23T10:59:55Z</time>
      </trkpt>
      <trkpt lat="37.1870562356" lon="-7.50654473922">
        <ele>38.4</ele>
        <time>2011-03-23T10:59:57Z</time>
      </trkpt>
      <trkpt lat="37.1870088778" lon="-7.50656586161">
        <ele>38</ele>
        <time>2011-03-23T10:59:59Z</time>
      </trkpt>
      <trkpt lat="37.1869631127" lon="-7.50659117495">
        <ele>37.8</ele>
        <time>2011-03-23T11:00:01Z</time>
      </trkpt>
      <trkpt lat="37.1869205326" lon="-7.50661296789">
        <ele>37.6</ele>
        <time>2011-03-23T11:00:03Z</time>
      </trkpt>
      <trkpt lat="37.1868756056" lon="-7.506633755">
        <ele>37.4</ele>
        <time>2011-03-23T11:00:05Z</time>
      </trkpt>
      <trkpt lat="37.1868321036" lon="-7.50665060262">
        <ele>36.8</ele>
        <time>2011-03-23T11:00:07Z</time>
      </trkpt>
      <trkpt lat="37.1867867575" lon="-7.50667071918">
        <ele>36.4</ele>
        <time>2011-03-23T11:00:09Z</time>
      </trkpt>
      <trkpt lat="37.1867229712" lon="-7.50669829563">
        <ele>36</ele>
        <time>2011-03-23T11:00:12Z</time>
      </trkpt>
      <trkpt lat="37.1866588497" lon="-7.50673014685">
        <ele>35.6</ele>
        <time>2011-03-23T11:00:15Z</time>
      </trkpt>
      <trkpt lat="37.1865974942" lon="-7.50675814239">
        <ele>35.4</ele>
        <time>2011-03-23T11:00:18Z</time>
      </trkpt>
      <trkpt lat="37.1865524834" lon="-7.50676929032">
        <ele>35</ele>
        <time>2011-03-23T11:00:20Z</time>
      </trkpt>
      <trkpt lat="37.1864885295" lon="-7.50678747904">
        <ele>34.4</ele>
        <time>2011-03-23T11:00:23Z</time>
      </trkpt>
      <trkpt lat="37.1864277607" lon="-7.50680407521">
        <ele>33.8</ele>
        <time>2011-03-23T11:00:26Z</time>
      </trkpt>
      <trkpt lat="37.1864071412" lon="-7.50680642214">
        <ele>33.8</ele>
        <time>2011-03-23T11:00:27Z</time>
      </trkpt>
      <trkpt lat="37.1863447799" lon="-7.50681539077">
        <ele>33.4</ele>
        <time>2011-03-23T11:00:30Z</time>
      </trkpt>
      <trkpt lat="37.1862990147" lon="-7.50682578433">
        <ele>33.2</ele>
        <time>2011-03-23T11:00:32Z</time>
      </trkpt>
      <trkpt lat="37.1862363181" lon="-7.50683911155">
        <ele>33.2</ele>
        <time>2011-03-23T11:00:35Z</time>
      </trkpt>
      <trkpt lat="37.186191894" lon="-7.5068446436">
        <ele>33</ele>
        <time>2011-03-23T11:00:37Z</time>
      </trkpt>
      <trkpt lat="37.1861483082" lon="-7.50685093003">
        <ele>33</ele>
        <time>2011-03-23T11:00:39Z</time>
      </trkpt>
      <trkpt lat="37.1861045546" lon="-7.50686224559">
        <ele>32.8</ele>
        <time>2011-03-23T11:00:41Z</time>
      </trkpt>
      <trkpt lat="37.1860439535" lon="-7.50687062749">
        <ele>32.8</ele>
        <time>2011-03-23T11:00:44Z</time>
      </trkpt>
      <trkpt lat="37.1859989427" lon="-7.50687649482">
        <ele>32.8</ele>
        <time>2011-03-23T11:00:46Z</time>
      </trkpt>
      <trkpt lat="37.1859560274" lon="-7.50688663692">
        <ele>32.6</ele>
        <time>2011-03-23T11:00:48Z</time>
      </trkpt>
      <trkpt lat="37.1858917382" lon="-7.50690583147">
        <ele>32.6</ele>
        <time>2011-03-23T11:00:51Z</time>
      </trkpt>
      <trkpt lat="37.1858267785" lon="-7.50692226">
        <ele>32.6</ele>
        <time>2011-03-23T11:00:54Z</time>
      </trkpt>
      <trkpt lat="37.1857846175" lon="-7.50693575485">
        <ele>32.6</ele>
        <time>2011-03-23T11:00:56Z</time>
      </trkpt>
      <trkpt lat="37.1857248546" lon="-7.50695679342">
        <ele>32.6</ele>
        <time>2011-03-23T11:00:59Z</time>
      </trkpt>
      <trkpt lat="37.1856624932" lon="-7.50698545952">
        <ele>32.6</ele>
        <time>2011-03-23T11:01:02Z</time>
      </trkpt>
      <trkpt lat="37.18560843" lon="-7.5070224237">
        <ele>32.6</ele>
        <time>2011-03-23T11:01:05Z</time>
      </trkpt>
      <trkpt lat="37.1855740642" lon="-7.5070475694">
        <ele>32.6</ele>
        <time>2011-03-23T11:01:07Z</time>
      </trkpt>
      <trkpt lat="37.1855249463" lon="-7.50709132292">
        <ele>32.6</ele>
        <time>2011-03-23T11:01:10Z</time>
      </trkpt>
      <trkpt lat="37.1854753254" lon="-7.507136669">
        <ele>32.6</ele>
        <time>2011-03-23T11:01:13Z</time>
      </trkpt>
      <trkpt lat="37.1854245311" lon="-7.50718327236">
        <ele>32.6</ele>
        <time>2011-03-23T11:01:16Z</time>
      </trkpt>
      <trkpt lat="37.1853732339" lon="-7.50723054628">
        <ele>32.6</ele>
        <time>2011-03-23T11:01:19Z</time>
      </trkpt>
      <trkpt lat="37.185325457" lon="-7.50727865838">
        <ele>32.6</ele>
        <time>2011-03-23T11:01:22Z</time>
      </trkpt>
      <trkpt lat="37.1852806139" lon="-7.50732601612">
        <ele>32.6</ele>
        <time>2011-03-23T11:01:25Z</time>
      </trkpt>
      <trkpt lat="37.1852468348" lon="-7.50736021427">
        <ele>32.6</ele>
        <time>2011-03-23T11:01:27Z</time>
      </trkpt>
      <trkpt lat="37.1851892512" lon="-7.50742592837">
        <ele>32.6</ele>
        <time>2011-03-23T11:01:31Z</time>
      </trkpt>
      <trkpt lat="37.1851636864" lon="-7.50746691586">
        <ele>32.6</ele>
        <time>2011-03-23T11:01:33Z</time>
      </trkpt>
      <trkpt lat="37.1851421449" lon="-7.50753229468">
        <ele>32.6</ele>
        <time>2011-03-23T11:01:36Z</time>
      </trkpt>
      <trkpt lat="37.185158741" lon="-7.50760111008">
        <ele>32.6</ele>
        <time>2011-03-23T11:01:39Z</time>
      </trkpt>
      <trkpt lat="37.1852014049" lon="-7.50766129212">
        <ele>32.6</ele>
        <time>2011-03-23T11:01:42Z</time>
      </trkpt>
      <trkpt lat="37.1852423086" lon="-7.50771342754">
        <ele>32.6</ele>
        <time>2011-03-23T11:01:45Z</time>
      </trkpt>
      <trkpt lat="37.1852843019" lon="-7.50775852216">
        <ele>32.6</ele>
        <time>2011-03-23T11:01:48Z</time>
      </trkpt>
      <trkpt lat="37.185318081" lon="-7.50779758181">
        <ele>32.6</ele>
        <time>2011-03-23T11:01:51Z</time>
      </trkpt>
      <trkpt lat="37.1853584817" lon="-7.50783882076">
        <ele>32.6</ele>
        <time>2011-03-23T11:01:54Z</time>
      </trkpt>
      <trkpt lat="37.1853962003" lon="-7.50788500503">
        <ele>32.6</ele>
        <time>2011-03-23T11:01:57Z</time>
      </trkpt>
      <trkpt lat="37.1854349247" lon="-7.50793009965">
        <ele>32.6</ele>
        <time>2011-03-23T11:02:00Z</time>
      </trkpt>
      <trkpt lat="37.1854789296" lon="-7.5079699975">
        <ele>32.6</ele>
        <time>2011-03-23T11:02:03Z</time>
      </trkpt>
      <trkpt lat="37.1855209229" lon="-7.50800788368">
        <ele>32.6</ele>
        <time>2011-03-23T11:02:06Z</time>
      </trkpt>
      <trkpt lat="37.18557046" lon="-7.50805767217">
        <ele>32.6</ele>
        <time>2011-03-23T11:02:09Z</time>
      </trkpt>
      <trkpt lat="37.1856147164" lon="-7.50811307653">
        <ele>32.6</ele>
        <time>2011-03-23T11:02:12Z</time>
      </trkpt>
      <trkpt lat="37.185666768" lon="-7.50816579868">
        <ele>32.6</ele>
        <time>2011-03-23T11:02:15Z</time>
      </trkpt>
      <trkpt lat="37.1857193225" lon="-7.50822070012">
        <ele>32.6</ele>
        <time>2011-03-23T11:02:18Z</time>
      </trkpt>
      <trkpt lat="37.1857698654" lon="-7.50827124298">
        <ele>32.6</ele>
        <time>2011-03-23T11:02:21Z</time>
      </trkpt>
      <trkpt lat="37.1858153791" lon="-7.50832388131">
        <ele>32.6</ele>
        <time>2011-03-23T11:02:24Z</time>
      </trkpt>
      <trkpt lat="37.1858603061" lon="-7.50837425653">
        <ele>32.6</ele>
        <time>2011-03-23T11:02:27Z</time>
      </trkpt>
      <trkpt lat="37.1859020479" lon="-7.50842446411">
        <ele>32.6</ele>
        <time>2011-03-23T11:02:30Z</time>
      </trkpt>
      <trkpt lat="37.1859479808" lon="-7.50847542606">
        <ele>32.6</ele>
        <time>2011-03-23T11:02:33Z</time>
      </trkpt>
      <trkpt lat="37.1859934106" lon="-7.50852622038">
        <ele>32.6</ele>
        <time>2011-03-23T11:02:36Z</time>
      </trkpt>
      <trkpt lat="37.1860318836" lon="-7.50856762697">
        <ele>32.6</ele>
        <time>2011-03-23T11:02:39Z</time>
      </trkpt>
      <trkpt lat="37.1860838514" lon="-7.50861783455">
        <ele>32.6</ele>
        <time>2011-03-23T11:02:42Z</time>
      </trkpt>
      <trkpt lat="37.1861318796" lon="-7.5086617557">
        <ele>32.6</ele>
        <time>2011-03-23T11:02:45Z</time>
      </trkpt>
      <trkpt lat="37.1861841827" lon="-7.50870265937">
        <ele>32.6</ele>
        <time>2011-03-23T11:02:48Z</time>
      </trkpt>
      <trkpt lat="37.186235899" lon="-7.50874314395">
        <ele>32.6</ele>
        <time>2011-03-23T11:02:51Z</time>
      </trkpt>
      <trkpt lat="37.1862887888" lon="-7.50877994049">
        <ele>32.6</ele>
        <time>2011-03-23T11:02:54Z</time>
      </trkpt>
      <trkpt lat="37.1863451152" lon="-7.50881656939">
        <ele>32.6</ele>
        <time>2011-03-23T11:02:57Z</time>
      </trkpt>
      <trkpt lat="37.1864011063" lon="-7.50885361739">
        <ele>32.6</ele>
        <time>2011-03-23T11:03:00Z</time>
      </trkpt>
      <trkpt lat="37.186455421" lon="-7.50889007866">
        <ele>32.6</ele>
        <time>2011-03-23T11:03:03Z</time>
      </trkpt>
      <trkpt lat="37.1865103224" lon="-7.50892729429">
        <ele>32.6</ele>
        <time>2011-03-23T11:03:06Z</time>
      </trkpt>
      <trkpt lat="37.1865689957" lon="-7.50896509666">
        <ele>32.6</ele>
        <time>2011-03-23T11:03:09Z</time>
      </trkpt>
      <trkpt lat="37.1866264956" lon="-7.50899929482">
        <ele>32.6</ele>
        <time>2011-03-23T11:03:12Z</time>
      </trkpt>
      <trkpt lat="37.1866811455" lon="-7.50903558844">
        <ele>32.6</ele>
        <time>2011-03-23T11:03:15Z</time>
      </trkpt>
      <trkpt lat="37.1867374719" lon="-7.50907171443">
        <ele>32.6</ele>
        <time>2011-03-23T11:03:18Z</time>
      </trkpt>
      <trkpt lat="37.1867893559" lon="-7.50911001971">
        <ele>32.6</ele>
        <time>2011-03-23T11:03:21Z</time>
      </trkpt>
      <trkpt lat="37.1868445926" lon="-7.50914924701">
        <ele>32.6</ele>
        <time>2011-03-23T11:03:24Z</time>
      </trkpt>
      <trkpt lat="37.1868963927" lon="-7.50918721701">
        <ele>32.6</ele>
        <time>2011-03-23T11:03:27Z</time>
      </trkpt>
      <trkpt lat="37.1869484443" lon="-7.5092237621">
        <ele>32.6</ele>
        <time>2011-03-23T11:03:30Z</time>
      </trkpt>
      <trkpt lat="37.1870006636" lon="-7.50926047482">
        <ele>32.6</ele>
        <time>2011-03-23T11:03:33Z</time>
      </trkpt>
      <trkpt lat="37.1870559841" lon="-7.50929911538">
        <ele>32.6</ele>
        <time>2011-03-23T11:03:36Z</time>
      </trkpt>
      <trkpt lat="37.1870971392" lon="-7.50932493163">
        <ele>32.6</ele>
        <time>2011-03-23T11:03:38Z</time>
      </trkpt>
      <trkpt lat="37.1871511187" lon="-7.50936214727">
        <ele>32.6</ele>
        <time>2011-03-23T11:03:41Z</time>
      </trkpt>
      <trkpt lat="37.1872086185" lon="-7.50939559105">
        <ele>32.6</ele>
        <time>2011-03-23T11:03:44Z</time>
      </trkpt>
      <trkpt lat="37.1872629332" lon="-7.50942928629">
        <ele>32.6</ele>
        <time>2011-03-23T11:03:47Z</time>
      </trkpt>
      <trkpt lat="37.1873128893" lon="-7.50946390353">
        <ele>32.6</ele>
        <time>2011-03-23T11:03:50Z</time>
      </trkpt>
      <trkpt lat="37.1873618396" lon="-7.50949785023">
        <ele>32.6</ele>
        <time>2011-03-23T11:03:53Z</time>
      </trkpt>
      <trkpt lat="37.1874107061" lon="-7.50953162928">
        <ele>32.6</ele>
        <time>2011-03-23T11:03:56Z</time>
      </trkpt>
      <trkpt lat="37.1874680383" lon="-7.50956649799">
        <ele>32.6</ele>
        <time>2011-03-23T11:03:59Z</time>
      </trkpt>
      <trkpt lat="37.1875221854" lon="-7.50960673111">
        <ele>32.6</ele>
        <time>2011-03-23T11:04:02Z</time>
      </trkpt>
      <trkpt lat="37.1875769192" lon="-7.50964143217">
        <ele>32.6</ele>
        <time>2011-03-23T11:04:05Z</time>
      </trkpt>
      <trkpt lat="37.1876508476" lon="-7.50969767472">
        <ele>32.6</ele>
        <time>2011-03-23T11:04:10Z</time>
      </trkpt>
      <trkpt lat="37.1876985406" lon="-7.50973581237">
        <ele>32.6</ele>
        <time>2011-03-23T11:04:13Z</time>
      </trkpt>
      <trkpt lat="37.1877487481" lon="-7.50977026198">
        <ele>32.6</ele>
        <time>2011-03-23T11:04:16Z</time>
      </trkpt>
      <trkpt lat="37.1877847065" lon="-7.50979490476">
        <ele>32.6</ele>
        <time>2011-03-23T11:04:18Z</time>
      </trkpt>
      <trkpt lat="37.1878371772" lon="-7.50983572462">
        <ele>32.6</ele>
        <time>2011-03-23T11:04:21Z</time>
      </trkpt>
      <trkpt lat="37.1878851217" lon="-7.50988559692">
        <ele>32.6</ele>
        <time>2011-03-23T11:04:24Z</time>
      </trkpt>
      <trkpt lat="37.187930803" lon="-7.5099322841">
        <ele>32.6</ele>
        <time>2011-03-23T11:04:27Z</time>
      </trkpt>
      <trkpt lat="37.1879786637" lon="-7.50997763018">
        <ele>32.6</ele>
        <time>2011-03-23T11:04:30Z</time>
      </trkpt>
      <trkpt lat="37.188021579" lon="-7.51002163516">
        <ele>32.6</ele>
        <time>2011-03-23T11:04:33Z</time>
      </trkpt>
      <trkpt lat="37.188075307" lon="-7.5100734353">
        <ele>32.6</ele>
        <time>2011-03-23T11:04:36Z</time>
      </trkpt>
      <trkpt lat="37.1881233353" lon="-7.51011299787">
        <ele>32.6</ele>
        <time>2011-03-23T11:04:39Z</time>
      </trkpt>
      <trkpt lat="37.1881693519" lon="-7.51016060706">
        <ele>32.6</ele>
        <time>2011-03-23T11:04:42Z</time>
      </trkpt>
      <trkpt lat="37.188216542" lon="-7.51020494731">
        <ele>32.6</ele>
        <time>2011-03-23T11:04:45Z</time>
      </trkpt>
      <trkpt lat="37.1882622233" lon="-7.51025155068">
        <ele>32.6</ele>
        <time>2011-03-23T11:04:48Z</time>
      </trkpt>
      <trkpt lat="37.1883079047" lon="-7.51029848932">
        <ele>32.6</ele>
        <time>2011-03-23T11:04:51Z</time>
      </trkpt>
      <trkpt lat="37.188359621" lon="-7.51033796806">
        <ele>32.6</ele>
        <time>2011-03-23T11:04:54Z</time>
      </trkpt>
      <trkpt lat="37.1884158636" lon="-7.51037325586">
        <ele>32.6</ele>
        <time>2011-03-23T11:04:57Z</time>
      </trkpt>
      <trkpt lat="37.1884705136" lon="-7.51041097441">
        <ele>32.6</ele>
        <time>2011-03-23T11:05:00Z</time>
      </trkpt>
      <trkpt lat="37.1885102438" lon="-7.51043788031">
        <ele>32.6</ele>
        <time>2011-03-23T11:05:02Z</time>
      </trkpt>
      <trkpt lat="37.1885613734" lon="-7.51047844871">
        <ele>32.6</ele>
        <time>2011-03-23T11:05:05Z</time>
      </trkpt>
      <trkpt lat="37.1886097369" lon="-7.51051449088">
        <ele>32.6</ele>
        <time>2011-03-23T11:05:08Z</time>
      </trkpt>
      <trkpt lat="37.188660615" lon="-7.51055044923">
        <ele>32.6</ele>
        <time>2011-03-23T11:05:11Z</time>
      </trkpt>
      <trkpt lat="37.1887161032" lon="-7.51059034707">
        <ele>32.6</ele>
        <time>2011-03-23T11:05:14Z</time>
      </trkpt>
      <trkpt lat="37.1887688254" lon="-7.51063183748">
        <ele>32.6</ele>
        <time>2011-03-23T11:05:17Z</time>
      </trkpt>
      <trkpt lat="37.1888248165" lon="-7.51066804729">
        <ele>32.6</ele>
        <time>2011-03-23T11:05:20Z</time>
      </trkpt>
      <trkpt lat="37.1888670612" lon="-7.51069076224">
        <ele>32.6</ele>
        <time>2011-03-23T11:05:22Z</time>
      </trkpt>
      <trkpt lat="37.1889195319" lon="-7.51072345165">
        <ele>32.6</ele>
        <time>2011-03-23T11:05:25Z</time>
      </trkpt>
      <trkpt lat="37.188956077" lon="-7.51074842971">
        <ele>32.6</ele>
        <time>2011-03-23T11:05:27Z</time>
      </trkpt>
      <trkpt lat="37.1890193604" lon="-7.51080517517">
        <ele>32.6</ele>
        <time>2011-03-23T11:05:31Z</time>
      </trkpt>
      <trkpt lat="37.1890362918" lon="-7.51081833475">
        <ele>32.8</ele>
        <time>2011-03-23T11:05:32Z</time>
      </trkpt>
      <trkpt lat="37.1890852421" lon="-7.510861753">
        <ele>33.2</ele>
        <time>2011-03-23T11:05:35Z</time>
      </trkpt>
      <trkpt lat="37.1891273192" lon="-7.51090232139">
        <ele>33.6</ele>
        <time>2011-03-23T11:05:38Z</time>
      </trkpt>
      <trkpt lat="37.1891708213" lon="-7.51095143933">
        <ele>33.8</ele>
        <time>2011-03-23T11:05:41Z</time>
      </trkpt>
      <trkpt lat="37.189210803" lon="-7.51100525112">
        <ele>34</ele>
        <time>2011-03-23T11:05:44Z</time>
      </trkpt>
      <trkpt lat="37.1892471804" lon="-7.51106082312">
        <ele>34.2</ele>
        <time>2011-03-23T11:05:47Z</time>
      </trkpt>
      <trkpt lat="37.1892883355" lon="-7.5111163113">
        <ele>34.4</ele>
        <time>2011-03-23T11:05:50Z</time>
      </trkpt>
      <trkpt lat="37.1893248806" lon="-7.51117230239">
        <ele>34.4</ele>
        <time>2011-03-23T11:05:53Z</time>
      </trkpt>
      <trkpt lat="37.1893594979" lon="-7.5112230967">
        <ele>34.4</ele>
        <time>2011-03-23T11:05:56Z</time>
      </trkpt>
      <trkpt lat="37.1893838054" lon="-7.51127933925">
        <ele>34.4</ele>
        <time>2011-03-23T11:05:59Z</time>
      </trkpt>
      <trkpt lat="37.1894248767" lon="-7.51134597536">
        <ele>34.6</ele>
        <time>2011-03-23T11:06:02Z</time>
      </trkpt>
      <trkpt lat="37.1894663671" lon="-7.51140691177">
        <ele>34.6</ele>
        <time>2011-03-23T11:06:05Z</time>
      </trkpt>
      <trkpt lat="37.1895067679" lon="-7.51146424397">
        <ele>34.6</ele>
        <time>2011-03-23T11:06:08Z</time>
      </trkpt>
      <trkpt lat="37.1895714761" lon="-7.51157153229">
        <ele>35.2</ele>
        <time>2011-03-23T11:06:13Z</time>
      </trkpt>
      <trkpt lat="37.189616906" lon="-7.51163339071">
        <ele>35.6</ele>
        <time>2011-03-23T11:06:16Z</time>
      </trkpt>
      <trkpt lat="37.1896602404" lon="-7.51169533295">
        <ele>35.8</ele>
        <time>2011-03-23T11:06:19Z</time>
      </trkpt>
      <trkpt lat="37.1897034072" lon="-7.51175844866">
        <ele>36</ele>
        <time>2011-03-23T11:06:22Z</time>
      </trkpt>
      <trkpt lat="37.1897430536" lon="-7.51181695432">
        <ele>36.2</ele>
        <time>2011-03-23T11:06:25Z</time>
      </trkpt>
      <trkpt lat="37.1897839573" lon="-7.51186649135">
        <ele>36.4</ele>
        <time>2011-03-23T11:06:28Z</time>
      </trkpt>
      <trkpt lat="37.189828549" lon="-7.51191586074">
        <ele>36.4</ele>
        <time>2011-03-23T11:06:31Z</time>
      </trkpt>
      <trkpt lat="37.1898715481" lon="-7.51196556541">
        <ele>36.4</ele>
        <time>2011-03-23T11:06:34Z</time>
      </trkpt>
      <trkpt lat="37.1899146311" lon="-7.51201468334">
        <ele>36.4</ele>
        <time>2011-03-23T11:06:37Z</time>
      </trkpt>
      <trkpt lat="37.1899546966" lon="-7.51206388509">
        <ele>37</ele>
        <time>2011-03-23T11:06:40Z</time>
      </trkpt>
      <trkpt lat="37.1900011323" lon="-7.51210990172">
        <ele>37.4</ele>
        <time>2011-03-23T11:06:43Z</time>
      </trkpt>
      <trkpt lat="37.1900435447" lon="-7.51215851674">
        <ele>37.8</ele>
        <time>2011-03-23T11:06:46Z</time>
      </trkpt>
      <trkpt lat="37.1900891423" lon="-7.51220118062">
        <ele>38</ele>
        <time>2011-03-23T11:06:49Z</time>
      </trkpt>
      <trkpt lat="37.190137422" lon="-7.5122443474">
        <ele>38.2</ele>
        <time>2011-03-23T11:06:52Z</time>
      </trkpt>
      <trkpt lat="37.1901813432" lon="-7.5122946388">
        <ele>38.2</ele>
        <time>2011-03-23T11:06:55Z</time>
      </trkpt>
      <trkpt lat="37.1902282818" lon="-7.51234107453">
        <ele>38.4</ele>
        <time>2011-03-23T11:06:58Z</time>
      </trkpt>
      <trkpt lat="37.1902753881" lon="-7.51238583387">
        <ele>38.4</ele>
        <time>2011-03-23T11:07:01Z</time>
      </trkpt>
      <trkpt lat="37.1903200636" lon="-7.51243369452">
        <ele>38.4</ele>
        <time>2011-03-23T11:07:04Z</time>
      </trkpt>
      <trkpt lat="37.190364823" lon="-7.51248482411">
        <ele>38.6</ele>
        <time>2011-03-23T11:07:07Z</time>
      </trkpt>
      <trkpt lat="37.190410169" lon="-7.51253980938">
        <ele>38.6</ele>
        <time>2011-03-23T11:07:10Z</time>
      </trkpt>
      <trkpt lat="37.1904616339" lon="-7.51258993314">
        <ele>38.6</ele>
        <time>2011-03-23T11:07:13Z</time>
      </trkpt>
      <trkpt lat="37.1905068962" lon="-7.51263133972">
        <ele>38.6</ele>
        <time>2011-03-23T11:07:16Z</time>
      </trkpt>
      <trkpt lat="37.190550985" lon="-7.51268129585">
        <ele>38.6</ele>
        <time>2011-03-23T11:07:19Z</time>
      </trkpt>
      <trkpt lat="37.1905949899" lon="-7.51273552674">
        <ele>38.6</ele>
        <time>2011-03-23T11:07:22Z</time>
      </trkpt>
      <trkpt lat="37.1906374023" lon="-7.51278682397">
        <ele>38.6</ele>
        <time>2011-03-23T11:07:25Z</time>
      </trkpt>
      <trkpt lat="37.1906867717" lon="-7.51283569045">
        <ele>38.6</ele>
        <time>2011-03-23T11:07:28Z</time>
      </trkpt>
      <trkpt lat="37.1907280945" lon="-7.51289042425">
        <ele>38.6</ele>
        <time>2011-03-23T11:07:31Z</time>
      </trkpt>
      <trkpt lat="37.1907705069" lon="-7.51294582861">
        <ele>38.6</ele>
        <time>2011-03-23T11:07:34Z</time>
      </trkpt>
      <trkpt lat="37.1908127517" lon="-7.5129987184">
        <ele>38.6</ele>
        <time>2011-03-23T11:07:37Z</time>
      </trkpt>
      <trkpt lat="37.1908612829" lon="-7.51305236256">
        <ele>38.6</ele>
        <time>2011-03-23T11:07:40Z</time>
      </trkpt>
      <trkpt lat="37.1909156814" lon="-7.51309804392">
        <ele>38.6</ele>
        <time>2011-03-23T11:07:43Z</time>
      </trkpt>
      <trkpt lat="37.1909705829" lon="-7.51313911522">
        <ele>38.6</ele>
        <time>2011-03-23T11:07:46Z</time>
      </trkpt>
      <trkpt lat="37.1910239756" lon="-7.51317884543">
        <ele>38.6</ele>
        <time>2011-03-23T11:07:49Z</time>
      </trkpt>
      <trkpt lat="37.1910772845" lon="-7.51320927173">
        <ele>38.6</ele>
        <time>2011-03-23T11:07:52Z</time>
      </trkpt>
      <trkpt lat="37.1911299228" lon="-7.51323768637">
        <ele>38.6</ele>
        <time>2011-03-23T11:07:55Z</time>
      </trkpt>
      <trkpt lat="37.1911849081" lon="-7.51326727448">
        <ele>38.6</ele>
        <time>2011-03-23T11:07:58Z</time>
      </trkpt>
      <trkpt lat="37.1912393066" lon="-7.51329401274">
        <ele>38.6</ele>
        <time>2011-03-23T11:08:01Z</time>
      </trkpt>
      <trkpt lat="37.1912937051" lon="-7.5133158895">
        <ele>38.6</ele>
        <time>2011-03-23T11:08:04Z</time>
      </trkpt>
      <trkpt lat="37.1913415658" lon="-7.51332854617">
        <ele>38.6</ele>
        <time>2011-03-23T11:08:07Z</time>
      </trkpt>
      <trkpt lat="37.1913911866" lon="-7.51334313067">
        <ele>38.6</ele>
        <time>2011-03-23T11:08:09Z</time>
      </trkpt>
      <trkpt lat="37.19147576" lon="-7.51336115176">
        <ele>38.6</ele>
        <time>2011-03-23T11:08:13Z</time>
      </trkpt>
      <trkpt lat="37.191528566" lon="-7.51338763856">
        <ele>38.6</ele>
        <time>2011-03-23T11:08:16Z</time>
      </trkpt>
      <trkpt lat="37.1915696373" lon="-7.51340901241">
        <ele>38.6</ele>
        <time>2011-03-23T11:08:19Z</time>
      </trkpt>
      <trkpt lat="37.1916125526" lon="-7.51342158526">
        <ele>38.6</ele>
        <time>2011-03-23T11:08:22Z</time>
      </trkpt>
      <trkpt lat="37.191654965" lon="-7.51343407429">
        <ele>38.6</ele>
        <time>2011-03-23T11:08:25Z</time>
      </trkpt>
      <trkpt lat="37.1916963716" lon="-7.51344798824">
        <ele>38.6</ele>
        <time>2011-03-23T11:08:28Z</time>
      </trkpt>
      <trkpt lat="37.1917377782" lon="-7.51346257275">
        <ele>38.6</ele>
        <time>2011-03-23T11:08:31Z</time>
      </trkpt>
      <trkpt lat="37.1917814479" lon="-7.51348025856">
        <ele>39.2</ele>
        <time>2011-03-23T11:08:34Z</time>
      </trkpt>
      <trkpt lat="37.1918233574" lon="-7.51349584889">
        <ele>39.6</ele>
        <time>2011-03-23T11:08:37Z</time>
      </trkpt>
      <trkpt lat="37.1918641772" lon="-7.5135064939">
        <ele>39.8</ele>
        <time>2011-03-23T11:08:40Z</time>
      </trkpt>
      <trkpt lat="37.1919090204" lon="-7.51351948585">
        <ele>40.2</ele>
        <time>2011-03-23T11:08:43Z</time>
      </trkpt>
      <trkpt lat="37.191950427" lon="-7.51353046614">
        <ele>40.2</ele>
        <time>2011-03-23T11:08:46Z</time>
      </trkpt>
      <trkpt lat="37.1919935938" lon="-7.51354622411">
        <ele>40.4</ele>
        <time>2011-03-23T11:08:49Z</time>
      </trkpt>
      <trkpt lat="37.1920330725" lon="-7.51356390992">
        <ele>40.4</ele>
        <time>2011-03-23T11:08:52Z</time>
      </trkpt>
      <trkpt lat="37.192074982" lon="-7.51357690186">
        <ele>40.6</ele>
        <time>2011-03-23T11:08:55Z</time>
      </trkpt>
      <trkpt lat="37.1920887283" lon="-7.51358092517">
        <ele>40.6</ele>
        <time>2011-03-23T11:08:56Z</time>
      </trkpt>
      <trkpt lat="37.192132398" lon="-7.51359567732">
        <ele>40.8</ele>
        <time>2011-03-23T11:08:59Z</time>
      </trkpt>
      <trkpt lat="37.1921770736" lon="-7.51361068092">
        <ele>41.4</ele>
        <time>2011-03-23T11:09:02Z</time>
      </trkpt>
      <trkpt lat="37.1922184801" lon="-7.51362493015">
        <ele>41.6</ele>
        <time>2011-03-23T11:09:05Z</time>
      </trkpt>
      <trkpt lat="37.1922570369" lon="-7.5136406043">
        <ele>42</ele>
        <time>2011-03-23T11:09:08Z</time>
      </trkpt>
      <trkpt lat="37.1922918218" lon="-7.51365158459">
        <ele>42.2</ele>
        <time>2011-03-23T11:09:11Z</time>
      </trkpt>
      <trkpt lat="37.1923334798" lon="-7.5136626487">
        <ele>42.4</ele>
        <time>2011-03-23T11:09:14Z</time>
      </trkpt>
      <trkpt lat="37.1923744673" lon="-7.513674551">
        <ele>42.4</ele>
        <time>2011-03-23T11:09:17Z</time>
      </trkpt>
      <trkpt lat="37.1924106771" lon="-7.51368921932">
        <ele>42.6</ele>
        <time>2011-03-23T11:09:20Z</time>
      </trkpt>
      <trkpt lat="37.1924447076" lon="-7.51369952906">
        <ele>42.6</ele>
        <time>2011-03-23T11:09:23Z</time>
      </trkpt>
      <trkpt lat="37.1924831805" lon="-7.51370690513">
        <ele>42.6</ele>
        <time>2011-03-23T11:09:26Z</time>
      </trkpt>
      <trkpt lat="37.1925163729" lon="-7.51372107054">
        <ele>42.6</ele>
        <time>2011-03-23T11:09:29Z</time>
      </trkpt>
      <trkpt lat="37.1925464639" lon="-7.51374831172">
        <ele>42.6</ele>
        <time>2011-03-23T11:09:32Z</time>
      </trkpt>
      <trkpt lat="37.1925551811" lon="-7.51375644216">
        <ele>42.8</ele>
        <time>2011-03-23T11:09:33Z</time>
      </trkpt>
      <trkpt lat="37.1925819193" lon="-7.5138170433">
        <ele>43.6</ele>
        <time>2011-03-23T11:09:37Z</time>
      </trkpt>
      <trkpt lat="37.1926034608" lon="-7.51385828225">
        <ele>43.8</ele>
        <time>2011-03-23T11:09:40Z</time>
      </trkpt>
      <trkpt lat="37.1926266787" lon="-7.51389566552">
        <ele>44.2</ele>
        <time>2011-03-23T11:09:43Z</time>
      </trkpt>
      <trkpt lat="37.1926542551" lon="-7.51393246206">
        <ele>44.2</ele>
        <time>2011-03-23T11:09:46Z</time>
      </trkpt>
      <trkpt lat="37.1926610445" lon="-7.51394394526">
        <ele>44.4</ele>
        <time>2011-03-23T11:09:47Z</time>
      </trkpt>
      <trkpt lat="37.1926762995" lon="-7.5139674984">
        <ele>44.4</ele>
        <time>2011-03-23T11:09:49Z</time>
      </trkpt>
      <trkpt lat="37.192718209" lon="-7.51401393413">
        <ele>44.6</ele>
        <time>2011-03-23T11:09:53Z</time>
      </trkpt>
      <trkpt lat="37.1927285188" lon="-7.51402474678">
        <ele>44.6</ele>
        <time>2011-03-23T11:09:54Z</time>
      </trkpt>
      <trkpt lat="37.1927547541" lon="-7.51405332906">
        <ele>44.6</ele>
        <time>2011-03-23T11:09:57Z</time>
      </trkpt>
      <trkpt lat="37.1927843422" lon="-7.514084845">
        <ele>44.6</ele>
        <time>2011-03-23T11:10:00Z</time>
      </trkpt>
      <trkpt lat="37.1927907125" lon="-7.51410018388">
        <ele>44.6</ele>
        <time>2011-03-23T11:10:01Z</time>
      </trkpt>
      <trkpt lat="37.1927839231" lon="-7.51414787689">
        <ele>44.8</ele>
        <time>2011-03-23T11:10:04Z</time>
      </trkpt>
      <trkpt lat="37.1927742839" lon="-7.51418987021">
        <ele>44.8</ele>
        <time>2011-03-23T11:10:07Z</time>
      </trkpt>
      <trkpt lat="37.1927575201" lon="-7.51423110916">
        <ele>44.8</ele>
        <time>2011-03-23T11:10:10Z</time>
      </trkpt>
      <trkpt lat="37.1927408402" lon="-7.5142727672">
        <ele>45.2</ele>
        <time>2011-03-23T11:10:13Z</time>
      </trkpt>
      <trkpt lat="37.1927231543" lon="-7.51431224595">
        <ele>45.6</ele>
        <time>2011-03-23T11:10:16Z</time>
      </trkpt>
      <trkpt lat="37.192702451" lon="-7.51435683766">
        <ele>46</ele>
        <time>2011-03-23T11:10:19Z</time>
      </trkpt>
      <trkpt lat="37.1926812448" lon="-7.51439732223">
        <ele>46.2</ele>
        <time>2011-03-23T11:10:22Z</time>
      </trkpt>
      <trkpt lat="37.1926600386" lon="-7.51443923173">
        <ele>46.4</ele>
        <time>2011-03-23T11:10:25Z</time>
      </trkpt>
      <trkpt lat="37.1926354797" lon="-7.51447820757">
        <ele>46.4</ele>
        <time>2011-03-23T11:10:28Z</time>
      </trkpt>
      <trkpt lat="37.192614022" lon="-7.5145228831">
        <ele>46.6</ele>
        <time>2011-03-23T11:10:31Z</time>
      </trkpt>
      <trkpt lat="37.1925944922" lon="-7.5145678939">
        <ele>46.6</ele>
        <time>2011-03-23T11:10:34Z</time>
      </trkpt>
      <trkpt lat="37.1925753814" lon="-7.51461273706">
        <ele>46.6</ele>
        <time>2011-03-23T11:10:37Z</time>
      </trkpt>
      <trkpt lat="37.1925504872" lon="-7.51465975952">
        <ele>46.8</ele>
        <time>2011-03-23T11:10:40Z</time>
      </trkpt>
      <trkpt lat="37.1925265988" lon="-7.51470460269">
        <ele>46.8</ele>
        <time>2011-03-23T11:10:43Z</time>
      </trkpt>
      <trkpt lat="37.1925092483" lon="-7.51474810475">
        <ele>46.8</ele>
        <time>2011-03-23T11:10:46Z</time>
      </trkpt>
      <trkpt lat="37.1924805822" lon="-7.51480376056">
        <ele>46.8</ele>
        <time>2011-03-23T11:10:49Z</time>
      </trkpt>
      <trkpt lat="37.1924446238" lon="-7.51486855265">
        <ele>46.8</ele>
        <time>2011-03-23T11:10:52Z</time>
      </trkpt>
      <trkpt lat="37.1924086655" lon="-7.514931836">
        <ele>46.8</ele>
        <time>2011-03-23T11:10:55Z</time>
      </trkpt>
      <trkpt lat="37.1923777362" lon="-7.5149922695">
        <ele>47</ele>
        <time>2011-03-23T11:10:58Z</time>
      </trkpt>
      <trkpt lat="37.1923450468" lon="-7.51505588812">
        <ele>47.6</ele>
        <time>2011-03-23T11:11:01Z</time>
      </trkpt>
      <trkpt lat="37.1923087532" lon="-7.51512143458">
        <ele>47.8</ele>
        <time>2011-03-23T11:11:04Z</time>
      </trkpt>
      <trkpt lat="37.1922730463" lon="-7.51518664576">
        <ele>48.2</ele>
        <time>2011-03-23T11:11:07Z</time>
      </trkpt>
      <trkpt lat="37.1922385967" lon="-7.51525068347">
        <ele>48.4</ele>
        <time>2011-03-23T11:11:10Z</time>
      </trkpt>
      <trkpt lat="37.1922020516" lon="-7.51531555938">
        <ele>48.4</ele>
        <time>2011-03-23T11:11:13Z</time>
      </trkpt>
      <trkpt lat="37.1921675182" lon="-7.51537347831">
        <ele>48.6</ele>
        <time>2011-03-23T11:11:16Z</time>
      </trkpt>
      <trkpt lat="37.1921282909" lon="-7.51544086878">
        <ele>48.6</ele>
        <time>2011-03-23T11:11:19Z</time>
      </trkpt>
      <trkpt lat="37.1920905723" lon="-7.51550465504">
        <ele>49</ele>
        <time>2011-03-23T11:11:22Z</time>
      </trkpt>
      <trkpt lat="37.1920524347" lon="-7.51557036914">
        <ele>49.6</ele>
        <time>2011-03-23T11:11:25Z</time>
      </trkpt>
      <trkpt lat="37.1920110281" lon="-7.51563675379">
        <ele>50</ele>
        <time>2011-03-23T11:11:28Z</time>
      </trkpt>
      <trkpt lat="37.1919704597" lon="-7.51570095914">
        <ele>50.2</ele>
        <time>2011-03-23T11:11:31Z</time>
      </trkpt>
      <trkpt lat="37.1919438053" lon="-7.51574228191">
        <ele>50.4</ele>
        <time>2011-03-23T11:11:33Z</time>
      </trkpt>
      <trkpt lat="37.1919010576" lon="-7.51580657108">
        <ele>50.4</ele>
        <time>2011-03-23T11:11:36Z</time>
      </trkpt>
      <trkpt lat="37.1918601539" lon="-7.51587220136">
        <ele>50.6</ele>
        <time>2011-03-23T11:11:39Z</time>
      </trkpt>
      <trkpt lat="37.1918161489" lon="-7.51593934038">
        <ele>50.6</ele>
        <time>2011-03-23T11:11:42Z</time>
      </trkpt>
      <trkpt lat="37.1917772569" lon="-7.51600337809">
        <ele>50.8</ele>
        <time>2011-03-23T11:11:45Z</time>
      </trkpt>
      <trkpt lat="37.1917339225" lon="-7.51606775109">
        <ele>50.8</ele>
        <time>2011-03-23T11:11:48Z</time>
      </trkpt>
      <trkpt lat="37.1916918454" lon="-7.51613095061">
        <ele>50.8</ele>
        <time>2011-03-23T11:11:51Z</time>
      </trkpt>
      <trkpt lat="37.1916516961" lon="-7.51619280903">
        <ele>50.8</ele>
        <time>2011-03-23T11:11:54Z</time>
      </trkpt>
      <trkpt lat="37.1916245387" lon="-7.51623689783">
        <ele>50.8</ele>
        <time>2011-03-23T11:11:56Z</time>
      </trkpt>
      <trkpt lat="37.1915860658" lon="-7.51629951062">
        <ele>50.8</ele>
        <time>2011-03-23T11:11:59Z</time>
      </trkpt>
      <trkpt lat="37.1915441563" lon="-7.51636153668">
        <ele>50.8</ele>
        <time>2011-03-23T11:12:02Z</time>
      </trkpt>
      <trkpt lat="37.1915064377" lon="-7.5164202938">
        <ele>50.8</ele>
        <time>2011-03-23T11:12:05Z</time>
      </trkpt>
      <trkpt lat="37.1914727425" lon="-7.516478548">
        <ele>50.8</ele>
        <time>2011-03-23T11:12:08Z</time>
      </trkpt>
      <trkpt lat="37.1914508657" lon="-7.51651299761">
        <ele>50.8</ele>
        <time>2011-03-23T11:12:10Z</time>
      </trkpt>
      <trkpt lat="37.1914123928" lon="-7.5165746884">
        <ele>50.8</ele>
        <time>2011-03-23T11:12:13Z</time>
      </trkpt>
      <trkpt lat="37.1913771888" lon="-7.51663168532">
        <ele>50.8</ele>
        <time>2011-03-23T11:12:16Z</time>
      </trkpt>
      <trkpt lat="37.1913369557" lon="-7.51670251237">
        <ele>50.8</ele>
        <time>2011-03-23T11:12:19Z</time>
      </trkpt>
      <trkpt lat="37.1912988181" lon="-7.51676185622">
        <ele>50.8</ele>
        <time>2011-03-23T11:12:22Z</time>
      </trkpt>
      <trkpt lat="37.1912579982" lon="-7.51682581012">
        <ele>50.8</ele>
        <time>2011-03-23T11:12:25Z</time>
      </trkpt>
      <trkpt lat="37.1912169269" lon="-7.51689068603">
        <ele>50.8</ele>
        <time>2011-03-23T11:12:28Z</time>
      </trkpt>
      <trkpt lat="37.1911767776" lon="-7.51695480756">
        <ele>50.8</ele>
        <time>2011-03-23T11:12:31Z</time>
      </trkpt>
      <trkpt lat="37.1911467704" lon="-7.51699663324">
        <ele>50.8</ele>
        <time>2011-03-23T11:12:33Z</time>
      </trkpt>
      <trkpt lat="37.1911082137" lon="-7.5170625988">
        <ele>50.8</ele>
        <time>2011-03-23T11:12:36Z</time>
      </trkpt>
      <trkpt lat="37.1910712495" lon="-7.51712026627">
        <ele>50.8</ele>
        <time>2011-03-23T11:12:39Z</time>
      </trkpt>
      <trkpt lat="37.1910306811" lon="-7.51718069977">
        <ele>50.8</ele>
        <time>2011-03-23T11:12:42Z</time>
      </trkpt>
      <trkpt lat="37.1910020988" lon="-7.51722562675">
        <ele>50.8</ele>
        <time>2011-03-23T11:12:44Z</time>
      </trkpt>
      <trkpt lat="37.1909616981" lon="-7.51729419069">
        <ele>50.8</ele>
        <time>2011-03-23T11:12:47Z</time>
      </trkpt>
      <trkpt lat="37.1909220517" lon="-7.51736225172">
        <ele>50.8</ele>
        <time>2011-03-23T11:12:50Z</time>
      </trkpt>
      <trkpt lat="37.1908827406" lon="-7.51742804964">
        <ele>50.8</ele>
        <time>2011-03-23T11:12:53Z</time>
      </trkpt>
      <trkpt lat="37.19083949" lon="-7.5174914168">
        <ele>50.8</ele>
        <time>2011-03-23T11:12:56Z</time>
      </trkpt>
      <trkpt lat="37.1908127517" lon="-7.5175346674">
        <ele>50.8</ele>
        <time>2011-03-23T11:12:58Z</time>
      </trkpt>
      <trkpt lat="37.1907710098" lon="-7.51760088441">
        <ele>50.8</ele>
        <time>2011-03-23T11:13:01Z</time>
      </trkpt>
      <trkpt lat="37.1907431819" lon="-7.51764505703">
        <ele>50.8</ele>
        <time>2011-03-23T11:13:03Z</time>
      </trkpt>
      <trkpt lat="37.1907005181" lon="-7.51771202841">
        <ele>50.4</ele>
        <time>2011-03-23T11:13:06Z</time>
      </trkpt>
      <trkpt lat="37.1906725225" lon="-7.51775938614">
        <ele>50.2</ele>
        <time>2011-03-23T11:13:08Z</time>
      </trkpt>
      <trkpt lat="37.1906151903" lon="-7.51785032976">
        <ele>49.8</ele>
        <time>2011-03-23T11:13:12Z</time>
      </trkpt>
      <trkpt lat="37.1906003543" lon="-7.51787363144">
        <ele>49.6</ele>
        <time>2011-03-23T11:13:13Z</time>
      </trkpt>
      <trkpt lat="37.1905566008" lon="-7.5179422792">
        <ele>49.4</ele>
        <time>2011-03-23T11:13:16Z</time>
      </trkpt>
      <trkpt lat="37.19052827" lon="-7.51799106186">
        <ele>49.4</ele>
        <time>2011-03-23T11:13:18Z</time>
      </trkpt>
      <trkpt lat="37.1904830916" lon="-7.51805317174">
        <ele>49.2</ele>
        <time>2011-03-23T11:13:21Z</time>
      </trkpt>
      <trkpt lat="37.1904515756" lon="-7.5180980149">
        <ele>49.2</ele>
        <time>2011-03-23T11:13:23Z</time>
      </trkpt>
      <trkpt lat="37.1904229095" lon="-7.51814486972">
        <ele>49</ele>
        <time>2011-03-23T11:13:25Z</time>
      </trkpt>
      <trkpt lat="37.1903932376" lon="-7.5181906349">
        <ele>49</ele>
        <time>2011-03-23T11:13:27Z</time>
      </trkpt>
      <trkpt lat="37.1903486459" lon="-7.51825685191">
        <ele>49</ele>
        <time>2011-03-23T11:13:30Z</time>
      </trkpt>
      <trkpt lat="37.1903188063" lon="-7.51830521547">
        <ele>49</ele>
        <time>2011-03-23T11:13:32Z</time>
      </trkpt>
      <trkpt lat="37.190276813" lon="-7.518368415">
        <ele>49</ele>
        <time>2011-03-23T11:13:35Z</time>
      </trkpt>
      <trkpt lat="37.1902468058" lon="-7.51841250379">
        <ele>49</ele>
        <time>2011-03-23T11:13:37Z</time>
      </trkpt>
      <trkpt lat="37.1902196484" lon="-7.51845751459">
        <ele>49</ele>
        <time>2011-03-23T11:13:39Z</time>
      </trkpt>
      <trkpt lat="37.1901789962" lon="-7.51852297723">
        <ele>48.8</ele>
        <time>2011-03-23T11:13:42Z</time>
      </trkpt>
      <trkpt lat="37.1901317223" lon="-7.51858181817">
        <ele>48.4</ele>
        <time>2011-03-23T11:13:45Z</time>
      </trkpt>
      <trkpt lat="37.1900998711" lon="-7.51862691279">
        <ele>48</ele>
        <time>2011-03-23T11:13:47Z</time>
      </trkpt>
      <trkpt lat="37.1900701154" lon="-7.51867108541">
        <ele>47.8</ele>
        <time>2011-03-23T11:13:49Z</time>
      </trkpt>
      <trkpt lat="37.1900247693" lon="-7.51873654805">
        <ele>47.6</ele>
        <time>2011-03-23T11:13:52Z</time>
      </trkpt>
      <trkpt lat="37.1899824407" lon="-7.51880410616">
        <ele>47.4</ele>
        <time>2011-03-23T11:13:55Z</time>
      </trkpt>
      <trkpt lat="37.1899341609" lon="-7.51886361765">
        <ele>47.2</ele>
        <time>2011-03-23T11:13:58Z</time>
      </trkpt>
      <trkpt lat="37.1898849592" lon="-7.51892371587">
        <ele>46.8</ele>
        <time>2011-03-23T11:14:01Z</time>
      </trkpt>
      <trkpt lat="37.1898488332" lon="-7.51896428427">
        <ele>46.4</ele>
        <time>2011-03-23T11:14:03Z</time>
      </trkpt>
      <trkpt lat="37.1897982903" lon="-7.5190222032">
        <ele>46</ele>
        <time>2011-03-23T11:14:06Z</time>
      </trkpt>
      <trkpt lat="37.1897637569" lon="-7.51906084376">
        <ele>45.8</ele>
        <time>2011-03-23T11:14:08Z</time>
      </trkpt>
      <trkpt lat="37.1897295588" lon="-7.51909956813">
        <ele>45.6</ele>
        <time>2011-03-23T11:14:10Z</time>
      </trkpt>
      <trkpt lat="37.189694271" lon="-7.5191377896">
        <ele>45.4</ele>
        <time>2011-03-23T11:14:12Z</time>
      </trkpt>
      <trkpt lat="37.1896591508" lon="-7.51917902855">
        <ele>45.2</ele>
        <time>2011-03-23T11:14:14Z</time>
      </trkpt>
      <trkpt lat="37.1896228572" lon="-7.51921741765">
        <ele>45.2</ele>
        <time>2011-03-23T11:14:16Z</time>
      </trkpt>
      <trkpt lat="37.189570135" lon="-7.5192697207">
        <ele>44.8</ele>
        <time>2011-03-23T11:14:19Z</time>
      </trkpt>
      <trkpt lat="37.1895361883" lon="-7.51930584669">
        <ele>44.4</ele>
        <time>2011-03-23T11:14:21Z</time>
      </trkpt>
      <trkpt lat="37.1894977992" lon="-7.51934549308">
        <ele>44</ele>
        <time>2011-03-23T11:14:23Z</time>
      </trkpt>
      <trkpt lat="37.1894597454" lon="-7.51938228962">
        <ele>43.8</ele>
        <time>2011-03-23T11:14:25Z</time>
      </trkpt>
      <trkpt lat="37.1894231165" lon="-7.51941841561">
        <ele>43.6</ele>
        <time>2011-03-23T11:14:27Z</time>
      </trkpt>
      <trkpt lat="37.1893682989" lon="-7.51947608308">
        <ele>43.4</ele>
        <time>2011-03-23T11:14:30Z</time>
      </trkpt>
      <trkpt lat="37.1893139003" lon="-7.51953098453">
        <ele>42.6</ele>
        <time>2011-03-23T11:14:33Z</time>
      </trkpt>
      <trkpt lat="37.1892722423" lon="-7.51956744579">
        <ele>42.2</ele>
        <time>2011-03-23T11:14:35Z</time>
      </trkpt>
      <trkpt lat="37.1892316739" lon="-7.51960281741">
        <ele>41.8</ele>
        <time>2011-03-23T11:14:37Z</time>
      </trkpt>
      <trkpt lat="37.189194123" lon="-7.51963751848">
        <ele>41.6</ele>
        <time>2011-03-23T11:14:39Z</time>
      </trkpt>
      <trkpt lat="37.1891122318" lon="-7.51970574714">
        <ele>40.8</ele>
        <time>2011-03-23T11:14:43Z</time>
      </trkpt>
      <trkpt lat="37.189071412" lon="-7.51973961002">
        <ele>40.4</ele>
        <time>2011-03-23T11:14:45Z</time>
      </trkpt>
      <trkpt lat="37.1890295025" lon="-7.51977196415">
        <ele>40</ele>
        <time>2011-03-23T11:14:47Z</time>
      </trkpt>
      <trkpt lat="37.1889860004" lon="-7.51980197135">
        <ele>39.6</ele>
        <time>2011-03-23T11:14:49Z</time>
      </trkpt>
      <trkpt lat="37.1889452644" lon="-7.5198229261">
        <ele>39.4</ele>
        <time>2011-03-23T11:14:51Z</time>
      </trkpt>
      <trkpt lat="37.1888816458" lon="-7.51985108929">
        <ele>38.6</ele>
        <time>2011-03-23T11:14:54Z</time>
      </trkpt>
      <trkpt lat="37.1888366349" lon="-7.51986869128">
        <ele>38.2</ele>
        <time>2011-03-23T11:14:56Z</time>
      </trkpt>
      <trkpt lat="37.1887922109" lon="-7.51988277287">
        <ele>37.8</ele>
        <time>2011-03-23T11:14:58Z</time>
      </trkpt>
      <trkpt lat="37.1887268321" lon="-7.51990381144">
        <ele>37.2</ele>
        <time>2011-03-23T11:15:01Z</time>
      </trkpt>
      <trkpt lat="37.1886838329" lon="-7.51991780921">
        <ele>36.6</ele>
        <time>2011-03-23T11:15:03Z</time>
      </trkpt>
      <trkpt lat="37.1886187055" lon="-7.51994312255">
        <ele>36</ele>
        <time>2011-03-23T11:15:06Z</time>
      </trkpt>
      <trkpt lat="37.1885747006" lon="-7.51996826825">
        <ele>35.6</ele>
        <time>2011-03-23T11:15:08Z</time>
      </trkpt>
      <trkpt lat="37.1885307794" lon="-7.51999961656">
        <ele>35.4</ele>
        <time>2011-03-23T11:15:10Z</time>
      </trkpt>
      <trkpt lat="37.1884976709" lon="-7.52002702537">
        <ele>34.8</ele>
        <time>2011-03-23T11:15:12Z</time>
      </trkpt>
      <trkpt lat="37.1884545041" lon="-7.52006935396">
        <ele>33.8</ele>
        <time>2011-03-23T11:15:16Z</time>
      </trkpt>
      <trkpt lat="37.1884265086" lon="-7.52010883271">
        <ele>33.4</ele>
        <time>2011-03-23T11:15:19Z</time>
      </trkpt>
      <trkpt lat="37.1884195516" lon="-7.52012274667">
        <ele>33.4</ele>
        <time>2011-03-23T11:15:20Z</time>
      </trkpt>
      <trkpt lat="37.1883820007" lon="-7.52016993676">
        <ele>32.8</ele>
        <time>2011-03-23T11:15:24Z</time>
      </trkpt>
      <trkpt lat="37.1883622194" lon="-7.52021536666">
        <ele>32</ele>
        <time>2011-03-23T11:15:27Z</time>
      </trkpt>
      <trkpt lat="37.1883431087" lon="-7.52025518069">
        <ele>31.4</ele>
        <time>2011-03-23T11:15:30Z</time>
      </trkpt>
      <trkpt lat="37.1883224054" lon="-7.52029709019">
        <ele>31</ele>
        <time>2011-03-23T11:15:33Z</time>
      </trkpt>
      <trkpt lat="37.1883017859" lon="-7.52034084371">
        <ele>30.8</ele>
        <time>2011-03-23T11:15:36Z</time>
      </trkpt>
      <trkpt lat="37.1882820046" lon="-7.52038518396">
        <ele>30.6</ele>
        <time>2011-03-23T11:15:39Z</time>
      </trkpt>
      <trkpt lat="37.1882607146" lon="-7.52042843456">
        <ele>30.4</ele>
        <time>2011-03-23T11:15:42Z</time>
      </trkpt>
      <trkpt lat="37.1882394246" lon="-7.5204705117">
        <ele>30.4</ele>
        <time>2011-03-23T11:15:45Z</time>
      </trkpt>
      <trkpt lat="37.1882199786" lon="-7.52051434904">
        <ele>29.8</ele>
        <time>2011-03-23T11:15:48Z</time>
      </trkpt>
      <trkpt lat="37.1882000296" lon="-7.52055810255">
        <ele>29.2</ele>
        <time>2011-03-23T11:15:51Z</time>
      </trkpt>
      <trkpt lat="37.1881791587" lon="-7.52059950914">
        <ele>29</ele>
        <time>2011-03-23T11:15:54Z</time>
      </trkpt>
      <trkpt lat="37.1881610538" lon="-7.52064150246">
        <ele>28.8</ele>
        <time>2011-03-23T11:15:57Z</time>
      </trkpt>
      <trkpt lat="37.1881421945" lon="-7.52068123266">
        <ele>28.6</ele>
        <time>2011-03-23T11:16:00Z</time>
      </trkpt>
      <trkpt lat="37.1881222456" lon="-7.52072247161">
        <ele>28.4</ele>
        <time>2011-03-23T11:16:03Z</time>
      </trkpt>
      <trkpt lat="37.1881010394" lon="-7.52076454875">
        <ele>28.4</ele>
        <time>2011-03-23T11:16:06Z</time>
      </trkpt>
      <trkpt lat="37.1880805876" lon="-7.52080729644">
        <ele>28.2</ele>
        <time>2011-03-23T11:16:09Z</time>
      </trkpt>
      <trkpt lat="37.1880596328" lon="-7.52085054704">
        <ele>28.2</ele>
        <time>2011-03-23T11:16:12Z</time>
      </trkpt>
      <trkpt lat="37.1880365826" lon="-7.520892708">
        <ele>28.2</ele>
        <time>2011-03-23T11:16:15Z</time>
      </trkpt>
      <trkpt lat="37.1880163822" lon="-7.52093470132">
        <ele>28.2</ele>
        <time>2011-03-23T11:16:18Z</time>
      </trkpt>
      <trkpt lat="37.187996098" lon="-7.5209769461">
        <ele>28.2</ele>
        <time>2011-03-23T11:16:21Z</time>
      </trkpt>
      <trkpt lat="37.1879748918" lon="-7.5210170954">
        <ele>28</ele>
        <time>2011-03-23T11:16:24Z</time>
      </trkpt>
      <trkpt lat="37.1879538532" lon="-7.52105825053">
        <ele>28</ele>
        <time>2011-03-23T11:16:27Z</time>
      </trkpt>
      <trkpt lat="37.1879332338" lon="-7.52109974093">
        <ele>28</ele>
        <time>2011-03-23T11:16:30Z</time>
      </trkpt>
      <trkpt lat="37.187908591" lon="-7.52114274008">
        <ele>28</ele>
        <time>2011-03-23T11:16:33Z</time>
      </trkpt>
      <trkpt lat="37.1878878877" lon="-7.52118758324">
        <ele>28</ele>
        <time>2011-03-23T11:16:36Z</time>
      </trkpt>
      <trkpt lat="37.1878681902" lon="-7.52123368369">
        <ele>28</ele>
        <time>2011-03-23T11:16:39Z</time>
      </trkpt>
      <trkpt lat="37.18784514" lon="-7.52127760485">
        <ele>28</ele>
        <time>2011-03-23T11:16:42Z</time>
      </trkpt>
      <trkpt lat="37.1878253587" lon="-7.52132077163">
        <ele>28</ele>
        <time>2011-03-23T11:16:45Z</time>
      </trkpt>
      <trkpt lat="37.1878054098" lon="-7.52136678827">
        <ele>28</ele>
        <time>2011-03-23T11:16:48Z</time>
      </trkpt>
      <trkpt lat="37.1877831978" lon="-7.52140995505">
        <ele>28</ele>
        <time>2011-03-23T11:16:51Z</time>
      </trkpt>
      <trkpt lat="37.1877612372" lon="-7.52145454676">
        <ele>28</ele>
        <time>2011-03-23T11:16:54Z</time>
      </trkpt>
      <trkpt lat="37.1877407015" lon="-7.5214997252">
        <ele>28</ele>
        <time>2011-03-23T11:16:57Z</time>
      </trkpt>
      <trkpt lat="37.1877207526" lon="-7.52154808876">
        <ele>28</ele>
        <time>2011-03-23T11:17:00Z</time>
      </trkpt>
      <trkpt lat="37.1876994626" lon="-7.5215954465">
        <ele>28</ele>
        <time>2011-03-23T11:17:03Z</time>
      </trkpt>
      <trkpt lat="37.1876728081" lon="-7.52164414534">
        <ele>28</ele>
        <time>2011-03-23T11:17:06Z</time>
      </trkpt>
      <trkpt lat="37.1876493388" lon="-7.52169016197">
        <ele>28</ele>
        <time>2011-03-23T11:17:09Z</time>
      </trkpt>
      <trkpt lat="37.1876275459" lon="-7.521730898">
        <ele>28</ele>
        <time>2011-03-23T11:17:12Z</time>
      </trkpt>
      <trkpt lat="37.1876055853" lon="-7.52177155022">
        <ele>28</ele>
        <time>2011-03-23T11:17:15Z</time>
      </trkpt>
      <trkpt lat="37.1875761648" lon="-7.52181320826">
        <ele>28</ele>
        <time>2011-03-23T11:17:18Z</time>
      </trkpt>
      <trkpt lat="37.1875475825" lon="-7.52185503394">
        <ele>28.4</ele>
        <time>2011-03-23T11:17:21Z</time>
      </trkpt>
      <trkpt lat="37.1875169048" lon="-7.52188998646">
        <ele>28.8</ele>
        <time>2011-03-23T11:17:24Z</time>
      </trkpt>
      <trkpt lat="37.1874916753" lon="-7.52192426843">
        <ele>29.2</ele>
        <time>2011-03-23T11:17:27Z</time>
      </trkpt>
      <trkpt lat="37.1874620872" lon="-7.52195779603">
        <ele>29.4</ele>
        <time>2011-03-23T11:17:30Z</time>
      </trkpt>
      <trkpt lat="37.1874259612" lon="-7.52199165891">
        <ele>29.6</ele>
        <time>2011-03-23T11:17:33Z</time>
      </trkpt>
      <trkpt lat="37.1873920983" lon="-7.52202392922">
        <ele>29.8</ele>
        <time>2011-03-23T11:17:36Z</time>
      </trkpt>
      <trkpt lat="37.187357062" lon="-7.52205184095">
        <ele>29.8</ele>
        <time>2011-03-23T11:17:39Z</time>
      </trkpt>
      <trkpt lat="37.1873216903" lon="-7.52207799248">
        <ele>30</ele>
        <time>2011-03-23T11:17:42Z</time>
      </trkpt>
      <trkpt lat="37.1872859834" lon="-7.5221102628">
        <ele>30</ele>
        <time>2011-03-23T11:17:45Z</time>
      </trkpt>
      <trkpt lat="37.1872521206" lon="-7.5221433713">
        <ele>30</ele>
        <time>2011-03-23T11:17:48Z</time>
      </trkpt>
      <trkpt lat="37.1872154917" lon="-7.52217539016">
        <ele>30</ele>
        <time>2011-03-23T11:17:51Z</time>
      </trkpt>
      <trkpt lat="37.1871828023" lon="-7.52220095495">
        <ele>30</ele>
        <time>2011-03-23T11:17:54Z</time>
      </trkpt>
      <trkpt lat="37.187147263" lon="-7.52223045924">
        <ele>30</ele>
        <time>2011-03-23T11:17:57Z</time>
      </trkpt>
      <trkpt lat="37.187135696" lon="-7.5222470554">
        <ele>30</ele>
        <time>2011-03-23T11:17:58Z</time>
      </trkpt>
      <trkpt lat="37.187104683" lon="-7.52227991245">
        <ele>30</ele>
        <time>2011-03-23T11:18:01Z</time>
      </trkpt>
      <trkpt lat="37.1870686408" lon="-7.52231109312">
        <ele>30</ele>
        <time>2011-03-23T11:18:04Z</time>
      </trkpt>
      <trkpt lat="37.1870296649" lon="-7.52234218997">
        <ele>30</ele>
        <time>2011-03-23T11:18:07Z</time>
      </trkpt>
      <trkpt lat="37.1869931199" lon="-7.52237370591">
        <ele>30</ele>
        <time>2011-03-23T11:18:10Z</time>
      </trkpt>
      <trkpt lat="37.1869564071" lon="-7.52240572477">
        <ele>30</ele>
        <time>2011-03-23T11:18:13Z</time>
      </trkpt>
      <trkpt lat="37.1869205326" lon="-7.52242936173">
        <ele>30</ele>
        <time>2011-03-23T11:18:16Z</time>
      </trkpt>
      <trkpt lat="37.1868839037" lon="-7.522457022">
        <ele>30</ele>
        <time>2011-03-23T11:18:19Z</time>
      </trkpt>
      <trkpt lat="37.1868706603" lon="-7.52247018158">
        <ele>30</ele>
        <time>2011-03-23T11:18:20Z</time>
      </trkpt>
      <trkpt lat="37.1868249789" lon="-7.52250387682">
        <ele>30</ele>
        <time>2011-03-23T11:18:24Z</time>
      </trkpt>
      <trkpt lat="37.1867939659" lon="-7.52253120181">
        <ele>30</ele>
        <time>2011-03-23T11:18:27Z</time>
      </trkpt>
      <trkpt lat="37.1867574208" lon="-7.52256129283">
        <ele>30</ele>
        <time>2011-03-23T11:18:30Z</time>
      </trkpt>
      <trkpt lat="37.1867225521" lon="-7.5225911324">
        <ele>30</ele>
        <time>2011-03-23T11:18:33Z</time>
      </trkpt>
      <trkpt lat="37.1866881025" lon="-7.52261510463">
        <ele>30.2</ele>
        <time>2011-03-23T11:18:36Z</time>
      </trkpt>
      <trkpt lat="37.1866537367" lon="-7.5226458662">
        <ele>30.8</ele>
        <time>2011-03-23T11:18:39Z</time>
      </trkpt>
      <trkpt lat="37.1866186166" lon="-7.52267687924">
        <ele>31.2</ele>
        <time>2011-03-23T11:18:42Z</time>
      </trkpt>
      <trkpt lat="37.186586011" lon="-7.52270294694">
        <ele>31.4</ele>
        <time>2011-03-23T11:18:45Z</time>
      </trkpt>
      <trkpt lat="37.1865536568" lon="-7.52273270269">
        <ele>31.6</ele>
        <time>2011-03-23T11:18:48Z</time>
      </trkpt>
      <trkpt lat="37.186515603" lon="-7.52275248397">
        <ele>31.8</ele>
        <time>2011-03-23T11:18:51Z</time>
      </trkpt>
      <trkpt lat="37.1864788903" lon="-7.52276874486">
        <ele>31.8</ele>
        <time>2011-03-23T11:18:54Z</time>
      </trkpt>
      <trkpt lat="37.1864428481" lon="-7.52278584394">
        <ele>32</ele>
        <time>2011-03-23T11:18:57Z</time>
      </trkpt>
      <trkpt lat="37.186405381" lon="-7.52281057054">
        <ele>32</ele>
        <time>2011-03-23T11:19:00Z</time>
      </trkpt>
      <trkpt lat="37.1863681654" lon="-7.5228320282">
        <ele>32</ele>
        <time>2011-03-23T11:19:03Z</time>
      </trkpt>
      <trkpt lat="37.1863348054" lon="-7.52284627743">
        <ele>32</ele>
        <time>2011-03-23T11:19:06Z</time>
      </trkpt>
      <trkpt lat="37.1863016131" lon="-7.52286714837">
        <ele>32</ele>
        <time>2011-03-23T11:19:09Z</time>
      </trkpt>
      <trkpt lat="37.1862836758" lon="-7.5228756979">
        <ele>32</ele>
        <time>2011-03-23T11:19:11Z</time>
      </trkpt>
      <trkpt lat="37.1862378269" lon="-7.52289556301">
        <ele>32.4</ele>
        <time>2011-03-23T11:19:15Z</time>
      </trkpt>
      <trkpt lat="37.1861963364" lon="-7.52291073425">
        <ele>33</ele>
        <time>2011-03-23T11:19:18Z</time>
      </trkpt>
      <trkpt lat="37.1861566062" lon="-7.52292607312">
        <ele>33.2</ele>
        <time>2011-03-23T11:19:21Z</time>
      </trkpt>
      <trkpt lat="37.186120145" lon="-7.52294929099">
        <ele>33.6</ele>
        <time>2011-03-23T11:19:24Z</time>
      </trkpt>
      <trkpt lat="37.1860873717" lon="-7.52298013638">
        <ele>33.6</ele>
        <time>2011-03-23T11:19:27Z</time>
      </trkpt>
      <trkpt lat="37.1860509105" lon="-7.52301349634">
        <ele>33.8</ele>
        <time>2011-03-23T11:19:30Z</time>
      </trkpt>
      <trkpt lat="37.1860191431" lon="-7.52304593429">
        <ele>34</ele>
        <time>2011-03-23T11:19:33Z</time>
      </trkpt>
      <trkpt lat="37.1859884653" lon="-7.52308055154">
        <ele>34</ele>
        <time>2011-03-23T11:19:36Z</time>
      </trkpt>
      <trkpt lat="37.185952507" lon="-7.52311592316">
        <ele>34</ele>
        <time>2011-03-23T11:19:39Z</time>
      </trkpt>
      <trkpt lat="37.1859178897" lon="-7.52315774884">
        <ele>34</ele>
        <time>2011-03-23T11:19:42Z</time>
      </trkpt>
      <trkpt lat="37.1858847812" lon="-7.52319529975">
        <ele>34.4</ele>
        <time>2011-03-23T11:19:45Z</time>
      </trkpt>
      <trkpt lat="37.1858499125" lon="-7.52323385649">
        <ele>34.8</ele>
        <time>2011-03-23T11:19:48Z</time>
      </trkpt>
      <trkpt lat="37.18581496" lon="-7.52326914429">
        <ele>35.2</ele>
        <time>2011-03-23T11:19:51Z</time>
      </trkpt>
      <trkpt lat="37.1857804266" lon="-7.52330200134">
        <ele>35.4</ele>
        <time>2011-03-23T11:19:54Z</time>
      </trkpt>
      <trkpt lat="37.1857413669" lon="-7.52333284673">
        <ele>35.6</ele>
        <time>2011-03-23T11:19:57Z</time>
      </trkpt>
      <trkpt lat="37.185706582" lon="-7.52336377594">
        <ele>35.8</ele>
        <time>2011-03-23T11:20:00Z</time>
      </trkpt>
      <trkpt lat="37.1856712942" lon="-7.52339152003">
        <ele>36</ele>
        <time>2011-03-23T11:20:03Z</time>
      </trkpt>
      <trkpt lat="37.1855992937" lon="-7.52344901986">
        <ele>36.4</ele>
        <time>2011-03-23T11:20:09Z</time>
      </trkpt>
      <trkpt lat="37.1855636706" lon="-7.52348221219">
        <ele>37</ele>
        <time>2011-03-23T11:20:12Z</time>
      </trkpt>
      <trkpt lat="37.1855319871" lon="-7.52352470842">
        <ele>37.2</ele>
        <time>2011-03-23T11:20:15Z</time>
      </trkpt>
      <trkpt lat="37.1855277961" lon="-7.52354080167">
        <ele>37.4</ele>
        <time>2011-03-23T11:20:16Z</time>
      </trkpt>
      <trkpt lat="37.1855288019" lon="-7.52358128625">
        <ele>37.6</ele>
        <time>2011-03-23T11:20:18Z</time>
      </trkpt>
      <trkpt lat="37.1855489185" lon="-7.52364867672">
        <ele>37.8</ele>
        <time>2011-03-23T11:20:22Z</time>
      </trkpt>
      <trkpt lat="37.185566269" lon="-7.52368924512">
        <ele>37.8</ele>
        <time>2011-03-23T11:20:25Z</time>
      </trkpt>
      <trkpt lat="37.1855793448" lon="-7.52373702195">
        <ele>38</ele>
        <time>2011-03-23T11:20:28Z</time>
      </trkpt>
      <trkpt lat="37.1855844577" lon="-7.52378831918">
        <ele>38</ele>
        <time>2011-03-23T11:20:31Z</time>
      </trkpt>
      <trkpt lat="37.1855785904" lon="-7.52384950704">
        <ele>38</ele>
        <time>2011-03-23T11:20:34Z</time>
      </trkpt>
      <trkpt lat="37.1855623295" lon="-7.52392276485">
        <ele>38.2</ele>
        <time>2011-03-23T11:20:37Z</time>
      </trkpt>
      <trkpt lat="37.1855262035" lon="-7.52398512619">
        <ele>38.2</ele>
        <time>2011-03-23T11:20:40Z</time>
      </trkpt>
      <trkpt lat="37.1854776723" lon="-7.52403977617">
        <ele>38.2</ele>
        <time>2011-03-23T11:20:43Z</time>
      </trkpt>
      <trkpt lat="37.1854253693" lon="-7.52408696627">
        <ele>38.2</ele>
        <time>2011-03-23T11:20:46Z</time>
      </trkpt>
      <trkpt lat="37.1853718928" lon="-7.52412761849">
        <ele>38.2</ele>
        <time>2011-03-23T11:20:49Z</time>
      </trkpt>
      <trkpt lat="37.1853146444" lon="-7.52417103673">
        <ele>38.2</ele>
        <time>2011-03-23T11:20:52Z</time>
      </trkpt>
      <trkpt lat="37.1852532051" lon="-7.52421043166">
        <ele>38.2</ele>
        <time>2011-03-23T11:20:55Z</time>
      </trkpt>
      <trkpt lat="37.1851952861" lon="-7.52425284407">
        <ele>38.8</ele>
        <time>2011-03-23T11:20:58Z</time>
      </trkpt>
      <trkpt lat="37.1851375348" lon="-7.52429056262">
        <ele>39.2</ele>
        <time>2011-03-23T11:21:01Z</time>
      </trkpt>
      <trkpt lat="37.1850787777" lon="-7.52432920318">
        <ele>39.4</ele>
        <time>2011-03-23T11:21:04Z</time>
      </trkpt>
      <trkpt lat="37.1850049332" lon="-7.52438075187">
        <ele>39.6</ele>
        <time>2011-03-23T11:21:08Z</time>
      </trkpt>
      <trkpt lat="37.1849469304" lon="-7.52441888951">
        <ele>39.8</ele>
        <time>2011-03-23T11:21:11Z</time>
      </trkpt>
      <trkpt lat="37.1848914423" lon="-7.52444965109">
        <ele>40</ele>
        <time>2011-03-23T11:21:14Z</time>
      </trkpt>
      <trkpt lat="37.184839223" lon="-7.52447756281">
        <ele>40</ele>
        <time>2011-03-23T11:21:17Z</time>
      </trkpt>
      <trkpt lat="37.1847865847" lon="-7.52451301825">
        <ele>40</ele>
        <time>2011-03-23T11:21:20Z</time>
      </trkpt>
      <trkpt lat="37.1847369638" lon="-7.52454679731">
        <ele>40.2</ele>
        <time>2011-03-23T11:21:23Z</time>
      </trkpt>
      <trkpt lat="37.1846849122" lon="-7.52458577314">
        <ele>40.2</ele>
        <time>2011-03-23T11:21:26Z</time>
      </trkpt>
      <trkpt lat="37.1846353752" lon="-7.52462416224">
        <ele>40.2</ele>
        <time>2011-03-23T11:21:29Z</time>
      </trkpt>
      <trkpt lat="37.184578965" lon="-7.52466514973">
        <ele>40.2</ele>
        <time>2011-03-23T11:21:32Z</time>
      </trkpt>
      <trkpt lat="37.1845202079" lon="-7.52470219773">
        <ele>40.2</ele>
        <time>2011-03-23T11:21:35Z</time>
      </trkpt>
      <trkpt lat="37.1844665637" lon="-7.5247364797">
        <ele>40.2</ele>
        <time>2011-03-23T11:21:38Z</time>
      </trkpt>
      <trkpt lat="37.1844082257" lon="-7.52477386298">
        <ele>40.2</ele>
        <time>2011-03-23T11:21:41Z</time>
      </trkpt>
      <trkpt lat="37.1843522346" lon="-7.52480998897">
        <ele>40.2</ele>
        <time>2011-03-23T11:21:44Z</time>
      </trkpt>
      <trkpt lat="37.184297417" lon="-7.5248489648">
        <ele>40.2</ele>
        <time>2011-03-23T11:21:47Z</time>
      </trkpt>
      <trkpt lat="37.1842410068" lon="-7.52488819209">
        <ele>40.2</ele>
        <time>2011-03-23T11:21:50Z</time>
      </trkpt>
      <trkpt lat="37.1841819144" lon="-7.52492725175">
        <ele>40.2</ele>
        <time>2011-03-23T11:21:53Z</time>
      </trkpt>
      <trkpt lat="37.1841401726" lon="-7.52495415765">
        <ele>40.2</ele>
        <time>2011-03-23T11:21:55Z</time>
      </trkpt>
      <trkpt lat="37.1840995203" lon="-7.52498148264">
        <ele>40.2</ele>
        <time>2011-03-23T11:21:57Z</time>
      </trkpt>
      <trkpt lat="37.184043194" lon="-7.52502783455">
        <ele>40.2</ele>
        <time>2011-03-23T11:22:00Z</time>
      </trkpt>
      <trkpt lat="37.1840063974" lon="-7.52506220034">
        <ele>40.2</ele>
        <time>2011-03-23T11:22:02Z</time>
      </trkpt>
      <trkpt lat="37.1839691818" lon="-7.52509346482">
        <ele>40.2</ele>
        <time>2011-03-23T11:22:04Z</time>
      </trkpt>
      <trkpt lat="37.1839182198" lon="-7.52514920446">
        <ele>40.2</ele>
        <time>2011-03-23T11:22:07Z</time>
      </trkpt>
      <trkpt lat="37.183873712" lon="-7.52521148198">
        <ele>40.2</ele>
        <time>2011-03-23T11:22:10Z</time>
      </trkpt>
      <trkpt lat="37.1838434533" lon="-7.52525381057">
        <ele>40.2</ele>
        <time>2011-03-23T11:22:12Z</time>
      </trkpt>
      <trkpt lat="37.1838126079" lon="-7.52530016248">
        <ele>40.2</ele>
        <time>2011-03-23T11:22:14Z</time>
      </trkpt>
      <trkpt lat="37.1837839418" lon="-7.52534559238">
        <ele>40.2</ele>
        <time>2011-03-23T11:22:16Z</time>
      </trkpt>
      <trkpt lat="37.1837550243" lon="-7.52539261484">
        <ele>40.2</ele>
        <time>2011-03-23T11:22:18Z</time>
      </trkpt>
      <trkpt lat="37.1837274478" lon="-7.52543913438">
        <ele>40.2</ele>
        <time>2011-03-23T11:22:20Z</time>
      </trkpt>
      <trkpt lat="37.183698195" lon="-7.5254864083">
        <ele>40.2</ele>
        <time>2011-03-23T11:22:22Z</time>
      </trkpt>
      <trkpt lat="37.1836561178" lon="-7.52555413405">
        <ele>40.2</ele>
        <time>2011-03-23T11:22:25Z</time>
      </trkpt>
      <trkpt lat="37.1836163876" lon="-7.52562244653">
        <ele>40.2</ele>
        <time>2011-03-23T11:22:28Z</time>
      </trkpt>
      <trkpt lat="37.1835794234" lon="-7.52568732244">
        <ele>40.2</ele>
        <time>2011-03-23T11:22:31Z</time>
      </trkpt>
      <trkpt lat="37.1835519308" lon="-7.52573417726">
        <ele>40.2</ele>
        <time>2011-03-23T11:22:33Z</time>
      </trkpt>
      <trkpt lat="37.1835143799" lon="-7.52580232211">
        <ele>40.2</ele>
        <time>2011-03-23T11:22:36Z</time>
      </trkpt>
      <trkpt lat="37.1834876416" lon="-7.52584833874">
        <ele>40.2</ele>
        <time>2011-03-23T11:22:38Z</time>
      </trkpt>
      <trkpt lat="37.1834480791" lon="-7.52591472339">
        <ele>40.2</ele>
        <time>2011-03-23T11:22:41Z</time>
      </trkpt>
      <trkpt lat="37.1834066725" lon="-7.5259822815">
        <ele>40.2</ele>
        <time>2011-03-23T11:22:44Z</time>
      </trkpt>
      <trkpt lat="37.1833654335" lon="-7.52604774414">
        <ele>40.2</ele>
        <time>2011-03-23T11:22:47Z</time>
      </trkpt>
      <trkpt lat="37.1833251166" lon="-7.52611211713">
        <ele>40.2</ele>
        <time>2011-03-23T11:22:50Z</time>
      </trkpt>
      <trkpt lat="37.1832843806" lon="-7.52617590339">
        <ele>40.2</ele>
        <time>2011-03-23T11:22:53Z</time>
      </trkpt>
      <trkpt lat="37.1832480031" lon="-7.52624178512">
        <ele>40.2</ele>
        <time>2011-03-23T11:22:56Z</time>
      </trkpt>
      <trkpt lat="37.1832132182" lon="-7.52630666103">
        <ele>40.2</ele>
        <time>2011-03-23T11:22:59Z</time>
      </trkpt>
      <trkpt lat="37.1831771761" lon="-7.52637153694">
        <ele>40.2</ele>
        <time>2011-03-23T11:23:02Z</time>
      </trkpt>
      <trkpt lat="37.1831386193" lon="-7.52643574229">
        <ele>40.2</ele>
        <time>2011-03-23T11:23:05Z</time>
      </trkpt>
      <trkpt lat="37.1830962069" lon="-7.52649315831">
        <ele>40.2</ele>
        <time>2011-03-23T11:23:08Z</time>
      </trkpt>
      <trkpt lat="37.1830779344" lon="-7.52652526098">
        <ele>40.2</ele>
        <time>2011-03-23T11:23:10Z</time>
      </trkpt>
      <trkpt lat="37.1830581531" lon="-7.52652090239">
        <ele>40.2</ele>
        <time>2011-03-23T11:23:16Z</time>
      </trkpt>
      <trkpt lat="37.1830616735" lon="-7.5265487303">
        <ele>40.2</ele>
        <time>2011-03-23T11:23:45Z</time>
      </trkpt>
      <trkpt lat="37.1830587398" lon="-7.52660086572">
        <ele>40.2</ele>
        <time>2011-03-23T11:23:48Z</time>
      </trkpt>
      <trkpt lat="37.1830378689" lon="-7.52664956456">
        <ele>40.2</ele>
        <time>2011-03-23T11:23:51Z</time>
      </trkpt>
      <trkpt lat="37.183016495" lon="-7.52669725757">
        <ele>40.2</ele>
        <time>2011-03-23T11:23:54Z</time>
      </trkpt>
      <trkpt lat="37.1829833865" lon="-7.52675081791">
        <ele>40.2</ele>
        <time>2011-03-23T11:23:57Z</time>
      </trkpt>
      <trkpt lat="37.1829429858" lon="-7.52681980095">
        <ele>40.2</ele>
        <time>2011-03-23T11:24:00Z</time>
      </trkpt>
      <trkpt lat="37.1829133139" lon="-7.52686648813">
        <ele>40.2</ele>
        <time>2011-03-23T11:24:02Z</time>
      </trkpt>
      <trkpt lat="37.1828825523" lon="-7.52691032547">
        <ele>40.2</ele>
        <time>2011-03-23T11:24:04Z</time>
      </trkpt>
      <trkpt lat="37.1828128987" lon="-7.52701174646">
        <ele>40.2</ele>
        <time>2011-03-23T11:24:09Z</time>
      </trkpt>
      <trkpt lat="37.1827722465" lon="-7.52706807283">
        <ele>40.2</ele>
        <time>2011-03-23T11:24:12Z</time>
      </trkpt>
      <trkpt lat="37.1827232124" lon="-7.52712054352">
        <ele>40.2</ele>
        <time>2011-03-23T11:24:15Z</time>
      </trkpt>
      <trkpt lat="37.182674765" lon="-7.52716773362">
        <ele>40.2</ele>
        <time>2011-03-23T11:24:18Z</time>
      </trkpt>
      <trkpt lat="37.1826241383" lon="-7.52721735447">
        <ele>40.2</ele>
        <time>2011-03-23T11:24:21Z</time>
      </trkpt>
      <trkpt lat="37.1825729249" lon="-7.52726395783">
        <ele>40.2</ele>
        <time>2011-03-23T11:24:24Z</time>
      </trkpt>
      <trkpt lat="37.182524729" lon="-7.52730989064">
        <ele>40.2</ele>
        <time>2011-03-23T11:24:27Z</time>
      </trkpt>
      <trkpt lat="37.1824742699" lon="-7.52735900857">
        <ele>40.2</ele>
        <time>2011-03-23T11:24:30Z</time>
      </trkpt>
      <trkpt lat="37.182422386" lon="-7.52740846179">
        <ele>40.2</ele>
        <time>2011-03-23T11:24:33Z</time>
      </trkpt>
      <trkpt lat="37.1823720108" lon="-7.52745732826">
        <ele>40.2</ele>
        <time>2011-03-23T11:24:36Z</time>
      </trkpt>
      <trkpt lat="37.1823249045" lon="-7.52750761966">
        <ele>40.2</ele>
        <time>2011-03-23T11:24:39Z</time>
      </trkpt>
      <trkpt lat="37.1822821568" lon="-7.52756210201">
        <ele>40.2</ele>
        <time>2011-03-23T11:24:42Z</time>
      </trkpt>
      <trkpt lat="37.1822400796" lon="-7.52761390215">
        <ele>40.2</ele>
        <time>2011-03-23T11:24:45Z</time>
      </trkpt>
      <trkpt lat="37.1821990922" lon="-7.527672324">
        <ele>40.2</ele>
        <time>2011-03-23T11:24:48Z</time>
      </trkpt>
      <trkpt lat="37.1821532432" lon="-7.52772739308">
        <ele>40.2</ele>
        <time>2011-03-23T11:24:51Z</time>
      </trkpt>
      <trkpt lat="37.1821087353" lon="-7.52778036669">
        <ele>40.2</ele>
        <time>2011-03-23T11:24:54Z</time>
      </trkpt>
      <trkpt lat="37.1820706814" lon="-7.52783535195">
        <ele>40.2</ele>
        <time>2011-03-23T11:24:57Z</time>
      </trkpt>
      <trkpt lat="37.1820255868" lon="-7.52789327088">
        <ele>40.2</ele>
        <time>2011-03-23T11:25:00Z</time>
      </trkpt>
      <trkpt lat="37.1819900476" lon="-7.52794649595">
        <ele>40.2</ele>
        <time>2011-03-23T11:25:03Z</time>
      </trkpt>
      <trkpt lat="37.1819468808" lon="-7.52800072684">
        <ele>40.2</ele>
        <time>2011-03-23T11:25:06Z</time>
      </trkpt>
      <trkpt lat="37.1818989363" lon="-7.52805462246">
        <ele>40.2</ele>
        <time>2011-03-23T11:25:09Z</time>
      </trkpt>
      <trkpt lat="37.1818482258" lon="-7.5281029022">
        <ele>40.2</ele>
        <time>2011-03-23T11:25:12Z</time>
      </trkpt>
      <trkpt lat="37.1817931567" lon="-7.5281465719">
        <ele>40.2</ele>
        <time>2011-03-23T11:25:15Z</time>
      </trkpt>
      <trkpt lat="37.1817508281" lon="-7.52817590855">
        <ele>40.2</ele>
        <time>2011-03-23T11:25:17Z</time>
      </trkpt>
      <trkpt lat="37.181694418" lon="-7.52821421383">
        <ele>40.2</ele>
        <time>2011-03-23T11:25:20Z</time>
      </trkpt>
      <trkpt lat="37.1816547716" lon="-7.52823994627">
        <ele>40.2</ele>
        <time>2011-03-23T11:25:22Z</time>
      </trkpt>
      <trkpt lat="37.1815961821" lon="-7.52827833537">
        <ele>40.2</ele>
        <time>2011-03-23T11:25:25Z</time>
      </trkpt>
      <trkpt lat="37.181537425" lon="-7.52831798175">
        <ele>40.2</ele>
        <time>2011-03-23T11:25:28Z</time>
      </trkpt>
      <trkpt lat="37.1814769915" lon="-7.52835637086">
        <ele>40.2</ele>
        <time>2011-03-23T11:25:31Z</time>
      </trkpt>
      <trkpt lat="37.18143877" lon="-7.52838428258">
        <ele>40.2</ele>
        <time>2011-03-23T11:25:33Z</time>
      </trkpt>
      <trkpt lat="37.1813963576" lon="-7.52841286486">
        <ele>40.2</ele>
        <time>2011-03-23T11:25:35Z</time>
      </trkpt>
      <trkpt lat="37.1813546996" lon="-7.5284416986">
        <ele>40.2</ele>
        <time>2011-03-23T11:25:37Z</time>
      </trkpt>
      <trkpt lat="37.1813135444" lon="-7.5284681854">
        <ele>40.2</ele>
        <time>2011-03-23T11:25:39Z</time>
      </trkpt>
      <trkpt lat="37.181251686" lon="-7.52851059782">
        <ele>40.2</ele>
        <time>2011-03-23T11:25:42Z</time>
      </trkpt>
      <trkpt lat="37.1812079325" lon="-7.52853708462">
        <ele>40.2</ele>
        <time>2011-03-23T11:25:44Z</time>
      </trkpt>
      <trkpt lat="37.1811515223" lon="-7.52857639573">
        <ele>40.2</ele>
        <time>2011-03-23T11:25:47Z</time>
      </trkpt>
      <trkpt lat="37.1810929328" lon="-7.52861864051">
        <ele>40.2</ele>
        <time>2011-03-23T11:25:50Z</time>
      </trkpt>
      <trkpt lat="37.181048844" lon="-7.52864361857">
        <ele>40.2</ele>
        <time>2011-03-23T11:25:52Z</time>
      </trkpt>
      <trkpt lat="37.1810054258" lon="-7.52866675261">
        <ele>40.2</ele>
        <time>2011-03-23T11:25:54Z</time>
      </trkpt>
      <trkpt lat="37.1809669529" lon="-7.52869416143">
        <ele>40.2</ele>
        <time>2011-03-23T11:25:56Z</time>
      </trkpt>
      <trkpt lat="37.1809304078" lon="-7.52872115114">
        <ele>40.2</ele>
        <time>2011-03-23T11:25:58Z</time>
      </trkpt>
      <trkpt lat="37.1808750034" lon="-7.52876096517">
        <ele>40.2</ele>
        <time>2011-03-23T11:26:01Z</time>
      </trkpt>
      <trkpt lat="37.1808166654" lon="-7.52880069538">
        <ele>40.2</ele>
        <time>2011-03-23T11:26:04Z</time>
      </trkpt>
      <trkpt lat="37.1807636918" lon="-7.52884076086">
        <ele>40.2</ele>
        <time>2011-03-23T11:26:07Z</time>
      </trkpt>
      <trkpt lat="37.180725135" lon="-7.5288687564">
        <ele>40.2</ele>
        <time>2011-03-23T11:26:09Z</time>
      </trkpt>
      <trkpt lat="37.1806739216" lon="-7.52890831897">
        <ele>40.2</ele>
        <time>2011-03-23T11:26:12Z</time>
      </trkpt>
      <trkpt lat="37.1806183496" lon="-7.5289508152">
        <ele>40.2</ele>
        <time>2011-03-23T11:26:15Z</time>
      </trkpt>
      <trkpt lat="37.1805606822" lon="-7.52899222179">
        <ele>40.2</ele>
        <time>2011-03-23T11:26:18Z</time>
      </trkpt>
      <trkpt lat="37.1805004163" lon="-7.52903211963">
        <ele>40.2</ele>
        <time>2011-03-23T11:26:21Z</time>
      </trkpt>
      <trkpt lat="37.1804378035" lon="-7.52906983818">
        <ele>40.2</ele>
        <time>2011-03-23T11:26:24Z</time>
      </trkpt>
      <trkpt lat="37.1803759451" lon="-7.52910789201">
        <ele>40.2</ele>
        <time>2011-03-23T11:26:27Z</time>
      </trkpt>
      <trkpt lat="37.1803187805" lon="-7.52914385036">
        <ele>40.2</ele>
        <time>2011-03-23T11:26:30Z</time>
      </trkpt>
      <trkpt lat="37.1802633762" lon="-7.52917838379">
        <ele>40.2</ele>
        <time>2011-03-23T11:26:33Z</time>
      </trkpt>
      <trkpt lat="37.1801996737" lon="-7.5292106541">
        <ele>40.2</ele>
        <time>2011-03-23T11:26:36Z</time>
      </trkpt>
      <trkpt lat="37.1801544115" lon="-7.52923957166">
        <ele>40.2</ele>
        <time>2011-03-23T11:26:38Z</time>
      </trkpt>
      <trkpt lat="37.180110658" lon="-7.52925952058">
        <ele>40.2</ele>
        <time>2011-03-23T11:26:40Z</time>
      </trkpt>
      <trkpt lat="37.180070341" lon="-7.52928558829">
        <ele>40.2</ele>
        <time>2011-03-23T11:26:42Z</time>
      </trkpt>
      <trkpt lat="37.180005968" lon="-7.52930478284">
        <ele>40.2</ele>
        <time>2011-03-23T11:26:45Z</time>
      </trkpt>
      <trkpt lat="37.1799473785" lon="-7.52932758161">
        <ele>40.2</ele>
        <time>2011-03-23T11:26:48Z</time>
      </trkpt>
      <trkpt lat="37.1798918904" lon="-7.52935540952">
        <ele>40.2</ele>
        <time>2011-03-23T11:26:51Z</time>
      </trkpt>
      <trkpt lat="37.1798349773" lon="-7.52938692546">
        <ele>40.2</ele>
        <time>2011-03-23T11:26:54Z</time>
      </trkpt>
      <trkpt lat="37.1797908885" lon="-7.52940955659">
        <ele>40.2</ele>
        <time>2011-03-23T11:26:56Z</time>
      </trkpt>
      <trkpt lat="37.1797486437" lon="-7.52943319355">
        <ele>40</ele>
        <time>2011-03-23T11:26:58Z</time>
      </trkpt>
      <trkpt lat="37.1797078238" lon="-7.52946110528">
        <ele>39.6</ele>
        <time>2011-03-23T11:27:00Z</time>
      </trkpt>
      <trkpt lat="37.1796649923" lon="-7.5294859157">
        <ele>39.4</ele>
        <time>2011-03-23T11:27:02Z</time>
      </trkpt>
      <trkpt lat="37.1796252621" lon="-7.52950946884">
        <ele>39.2</ele>
        <time>2011-03-23T11:27:04Z</time>
      </trkpt>
      <trkpt lat="37.1795840232" lon="-7.5295331058">
        <ele>39</ele>
        <time>2011-03-23T11:27:06Z</time>
      </trkpt>
      <trkpt lat="37.1795352405" lon="-7.52955741331">
        <ele>38.8</ele>
        <time>2011-03-23T11:27:08Z</time>
      </trkpt>
      <trkpt lat="37.179473885" lon="-7.52959731115">
        <ele>38.6</ele>
        <time>2011-03-23T11:27:11Z</time>
      </trkpt>
      <trkpt lat="37.1794306344" lon="-7.52961876882">
        <ele>38.6</ele>
        <time>2011-03-23T11:27:13Z</time>
      </trkpt>
      <trkpt lat="37.1793860427" lon="-7.52964567471">
        <ele>38.6</ele>
        <time>2011-03-23T11:27:15Z</time>
      </trkpt>
      <trkpt lat="37.1793453905" lon="-7.52967467609">
        <ele>38.4</ele>
        <time>2011-03-23T11:27:17Z</time>
      </trkpt>
      <trkpt lat="37.1793011341" lon="-7.52970216872">
        <ele>38.4</ele>
        <time>2011-03-23T11:27:19Z</time>
      </trkpt>
      <trkpt lat="37.1792410358" lon="-7.52974147983">
        <ele>38.4</ele>
        <time>2011-03-23T11:27:22Z</time>
      </trkpt>
      <trkpt lat="37.1791838713" lon="-7.52978565244">
        <ele>38.4</ele>
        <time>2011-03-23T11:27:25Z</time>
      </trkpt>
      <trkpt lat="37.1791275449" lon="-7.52983460274">
        <ele>38.4</ele>
        <time>2011-03-23T11:27:28Z</time>
      </trkpt>
      <trkpt lat="37.1790733978" lon="-7.52988053555">
        <ele>38.2</ele>
        <time>2011-03-23T11:27:31Z</time>
      </trkpt>
      <trkpt lat="37.1790356793" lon="-7.52991020748">
        <ele>38.2</ele>
        <time>2011-03-23T11:27:33Z</time>
      </trkpt>
      <trkpt lat="37.1789794367" lon="-7.52995748139">
        <ele>38.2</ele>
        <time>2011-03-23T11:27:36Z</time>
      </trkpt>
      <trkpt lat="37.1789236971" lon="-7.53000442003">
        <ele>38.2</ele>
        <time>2011-03-23T11:27:39Z</time>
      </trkpt>
      <trkpt lat="37.1788682927" lon="-7.53005161013">
        <ele>38.2</ele>
        <time>2011-03-23T11:27:42Z</time>
      </trkpt>
      <trkpt lat="37.1788113796" lon="-7.5301008957">
        <ele>38.2</ele>
        <time>2011-03-23T11:27:45Z</time>
      </trkpt>
      <trkpt lat="37.1787558915" lon="-7.53015001364">
        <ele>38.2</ele>
        <time>2011-03-23T11:27:48Z</time>
      </trkpt>
      <trkpt lat="37.1786978049" lon="-7.5301930966">
        <ele>38.2</ele>
        <time>2011-03-23T11:27:51Z</time>
      </trkpt>
      <trkpt lat="37.1786605893" lon="-7.53022251707">
        <ele>38.2</ele>
        <time>2011-03-23T11:27:53Z</time>
      </trkpt>
      <trkpt lat="37.1786084538" lon="-7.53027021008">
        <ele>38</ele>
        <time>2011-03-23T11:27:56Z</time>
      </trkpt>
      <trkpt lat="37.1785777761" lon="-7.53030432442">
        <ele>37.6</ele>
        <time>2011-03-23T11:27:58Z</time>
      </trkpt>
      <trkpt lat="37.1785271494" lon="-7.53035402908">
        <ele>37.2</ele>
        <time>2011-03-23T11:28:01Z</time>
      </trkpt>
      <trkpt lat="37.178487503" lon="-7.53038663467">
        <ele>37</ele>
        <time>2011-03-23T11:28:03Z</time>
      </trkpt>
      <trkpt lat="37.1784312605" lon="-7.53043256749">
        <ele>36.8</ele>
        <time>2011-03-23T11:28:06Z</time>
      </trkpt>
      <trkpt lat="37.1783928714" lon="-7.53045729409">
        <ele>36.8</ele>
        <time>2011-03-23T11:28:08Z</time>
      </trkpt>
      <trkpt lat="37.1783447593" lon="-7.53049761103">
        <ele>36.6</ele>
        <time>2011-03-23T11:28:11Z</time>
      </trkpt>
      <trkpt lat="37.178288852" lon="-7.53052745059">
        <ele>36.4</ele>
        <time>2011-03-23T11:28:14Z</time>
      </trkpt>
      <trkpt lat="37.1782461043" lon="-7.53055142283">
        <ele>36.4</ele>
        <time>2011-03-23T11:28:16Z</time>
      </trkpt>
      <trkpt lat="37.1782061226" lon="-7.53057388632">
        <ele>36.4</ele>
        <time>2011-03-23T11:28:18Z</time>
      </trkpt>
      <trkpt lat="37.1781432584" lon="-7.53060406116">
        <ele>36.4</ele>
        <time>2011-03-23T11:28:21Z</time>
      </trkpt>
      <trkpt lat="37.1780834954" lon="-7.53063700203">
        <ele>36.2</ele>
        <time>2011-03-23T11:28:24Z</time>
      </trkpt>
      <trkpt lat="37.1780428432" lon="-7.53066164481">
        <ele>36.2</ele>
        <time>2011-03-23T11:28:26Z</time>
      </trkpt>
      <trkpt lat="37.1780011852" lon="-7.53068687433">
        <ele>36.2</ele>
        <time>2011-03-23T11:28:28Z</time>
      </trkpt>
      <trkpt lat="37.1779565935" lon="-7.53070917019">
        <ele>36.2</ele>
        <time>2011-03-23T11:28:30Z</time>
      </trkpt>
      <trkpt lat="37.1779144325" lon="-7.53073247187">
        <ele>36.2</ele>
        <time>2011-03-23T11:28:32Z</time>
      </trkpt>
      <trkpt lat="37.1778536637" lon="-7.53076532892">
        <ele>36.2</ele>
        <time>2011-03-23T11:28:35Z</time>
      </trkpt>
      <trkpt lat="37.177796583" lon="-7.53079885652">
        <ele>36.2</ele>
        <time>2011-03-23T11:28:38Z</time>
      </trkpt>
      <trkpt lat="37.1777551764" lon="-7.53082400222">
        <ele>36.2</ele>
        <time>2011-03-23T11:28:40Z</time>
      </trkpt>
      <trkpt lat="37.1777146918" lon="-7.53084780681">
        <ele>36.2</ele>
        <time>2011-03-23T11:28:42Z</time>
      </trkpt>
      <trkpt lat="37.1776629755" lon="-7.53088368134">
        <ele>36.2</ele>
        <time>2011-03-23T11:28:45Z</time>
      </trkpt>
      <trkpt lat="37.1776047213" lon="-7.5309174604">
        <ele>36.2</ele>
        <time>2011-03-23T11:28:48Z</time>
      </trkpt>
      <trkpt lat="37.1775644044" lon="-7.53094553977">
        <ele>36.2</ele>
        <time>2011-03-23T11:28:50Z</time>
      </trkpt>
      <trkpt lat="37.177506234" lon="-7.53097931882">
        <ele>36.2</ele>
        <time>2011-03-23T11:28:53Z</time>
      </trkpt>
      <trkpt lat="37.1774525898" lon="-7.53102298852">
        <ele>36.2</ele>
        <time>2011-03-23T11:28:56Z</time>
      </trkpt>
      <trkpt lat="37.1773999515" lon="-7.53106263491">
        <ele>36.2</ele>
        <time>2011-03-23T11:28:59Z</time>
      </trkpt>
      <trkpt lat="37.1773449662" lon="-7.53110094019">
        <ele>36.2</ele>
        <time>2011-03-23T11:29:02Z</time>
      </trkpt>
      <trkpt lat="37.1772986981" lon="-7.5311256668">
        <ele>36.2</ele>
        <time>2011-03-23T11:29:04Z</time>
      </trkpt>
      <trkpt lat="37.1772602252" lon="-7.53115735038">
        <ele>36.2</ele>
        <time>2011-03-23T11:29:06Z</time>
      </trkpt>
      <trkpt lat="37.1772122808" lon="-7.53121208419">
        <ele>36.2</ele>
        <time>2011-03-23T11:29:09Z</time>
      </trkpt>
      <trkpt lat="37.1771629952" lon="-7.5312558377">
        <ele>36.2</ele>
        <time>2011-03-23T11:29:12Z</time>
      </trkpt>
      <trkpt lat="37.1771117818" lon="-7.53130587765">
        <ele>36.2</ele>
        <time>2011-03-23T11:29:15Z</time>
      </trkpt>
      <trkpt lat="37.177037602" lon="-7.53139304941">
        <ele>36.2</ele>
        <time>2011-03-23T11:29:20Z</time>
      </trkpt>
      <trkpt lat="37.1770069242" lon="-7.53143001359">
        <ele>36.2</ele>
        <time>2011-03-23T11:29:22Z</time>
      </trkpt>
      <trkpt lat="37.1769594826" lon="-7.53148374157">
        <ele>36.2</ele>
        <time>2011-03-23T11:29:25Z</time>
      </trkpt>
      <trkpt lat="37.1769288887" lon="-7.5315240585">
        <ele>36.2</ele>
        <time>2011-03-23T11:29:27Z</time>
      </trkpt>
      <trkpt lat="37.17687734" lon="-7.53157359553">
        <ele>36.2</ele>
        <time>2011-03-23T11:29:30Z</time>
      </trkpt>
      <trkpt lat="37.1768241988" lon="-7.53162531186">
        <ele>36.2</ele>
        <time>2011-03-23T11:29:33Z</time>
      </trkpt>
      <trkpt lat="37.1767717281" lon="-7.53167727964">
        <ele>36.2</ele>
        <time>2011-03-23T11:29:36Z</time>
      </trkpt>
      <trkpt lat="37.1767219396" lon="-7.53172706812">
        <ele>36.2</ele>
        <time>2011-03-23T11:29:39Z</time>
      </trkpt>
      <trkpt lat="37.1766767612" lon="-7.53177878445">
        <ele>36.2</ele>
        <time>2011-03-23T11:29:42Z</time>
      </trkpt>
      <trkpt lat="37.1766304931" lon="-7.53182890821">
        <ele>36.2</ele>
        <time>2011-03-23T11:29:45Z</time>
      </trkpt>
      <trkpt lat="37.1765873263" lon="-7.53187735559">
        <ele>36.2</ele>
        <time>2011-03-23T11:29:48Z</time>
      </trkpt>
      <trkpt lat="37.1765349394" lon="-7.53192882046">
        <ele>36.2</ele>
        <time>2011-03-23T11:29:51Z</time>
      </trkpt>
      <trkpt lat="37.1764875817" lon="-7.53198053678">
        <ele>36.8</ele>
        <time>2011-03-23T11:29:54Z</time>
      </trkpt>
      <trkpt lat="37.1764380446" lon="-7.53202730778">
        <ele>37.2</ele>
        <time>2011-03-23T11:29:57Z</time>
      </trkpt>
      <trkpt lat="37.176387418" lon="-7.53207642571">
        <ele>37.4</ele>
        <time>2011-03-23T11:30:00Z</time>
      </trkpt>
      <trkpt lat="37.1763396411" lon="-7.53211833521">
        <ele>37.6</ele>
        <time>2011-03-23T11:30:03Z</time>
      </trkpt>
      <trkpt lat="37.1762990727" lon="-7.53215387447">
        <ele>37.8</ele>
        <time>2011-03-23T11:30:06Z</time>
      </trkpt>
      <trkpt lat="37.176278118" lon="-7.5321628431">
        <ele>38</ele>
        <time>2011-03-23T11:30:11Z</time>
      </trkpt>
      <trkpt lat="37.1762675568" lon="-7.53216837516">
        <ele>38</ele>
        <time>2011-03-23T11:30:12Z</time>
      </trkpt>
      <trkpt lat="37.1762294192" lon="-7.53220986556">
        <ele>38</ele>
        <time>2011-03-23T11:30:15Z</time>
      </trkpt>
      <trkpt lat="37.1761760265" lon="-7.53226703012">
        <ele>38</ele>
        <time>2011-03-23T11:30:18Z</time>
      </trkpt>
      <trkpt lat="37.1761353742" lon="-7.53230726324">
        <ele>38.2</ele>
        <time>2011-03-23T11:30:20Z</time>
      </trkpt>
      <trkpt lat="37.1760959793" lon="-7.53234649053">
        <ele>38.2</ele>
        <time>2011-03-23T11:30:22Z</time>
      </trkpt>
      <trkpt lat="37.1760390662" lon="-7.53239921268">
        <ele>38.4</ele>
        <time>2011-03-23T11:30:25Z</time>
      </trkpt>
      <trkpt lat="37.1759893615" lon="-7.53245403031">
        <ele>38.8</ele>
        <time>2011-03-23T11:30:28Z</time>
      </trkpt>
      <trkpt lat="37.1759338734" lon="-7.53247464978">
        <ele>39.2</ele>
        <time>2011-03-23T11:30:31Z</time>
      </trkpt>
      <trkpt lat="37.1758948975" lon="-7.53248638444">
        <ele>39.6</ele>
        <time>2011-03-23T11:30:35Z</time>
      </trkpt>
      <trkpt lat="37.1758824923" lon="-7.53248328314">
        <ele>40</ele>
        <time>2011-03-23T11:30:42Z</time>
      </trkpt>
      <trkpt lat="37.174605426" lon="-7.53355013137">
        <ele>49</ele>
        <time>2011-03-23T11:38:35Z</time>
      </trkpt>
      <trkpt lat="37.1747347588" lon="-7.53375020733">
        <ele>49.4</ele>
        <time>2011-03-23T11:38:38Z</time>
      </trkpt>
      <trkpt lat="37.1747557973" lon="-7.53378557894">
        <ele>49.6</ele>
        <time>2011-03-23T11:38:39Z</time>
      </trkpt>
      <trkpt lat="37.1747441465" lon="-7.53381709489">
        <ele>49.8</ele>
        <time>2011-03-23T11:38:41Z</time>
      </trkpt>
      <trkpt lat="37.1747006444" lon="-7.5338916938">
        <ele>50.4</ele>
        <time>2011-03-23T11:38:45Z</time>
      </trkpt>
      <trkpt lat="37.1746586511" lon="-7.53394793635">
        <ele>50.6</ele>
        <time>2011-03-23T11:38:48Z</time>
      </trkpt>
      <trkpt lat="37.174647587" lon="-7.53397257913">
        <ele>50.6</ele>
        <time>2011-03-23T11:38:49Z</time>
      </trkpt>
      <trkpt lat="37.1746044202" lon="-7.53403519193">
        <ele>50.8</ele>
        <time>2011-03-23T11:38:52Z</time>
      </trkpt>
      <trkpt lat="37.1745733234" lon="-7.5340725752">
        <ele>50.8</ele>
        <time>2011-03-23T11:38:54Z</time>
      </trkpt>
      <trkpt lat="37.1745329226" lon="-7.53411247304">
        <ele>51</ele>
        <time>2011-03-23T11:38:57Z</time>
      </trkpt>
      <trkpt lat="37.1744848105" lon="-7.53415614274">
        <ele>51</ele>
        <time>2011-03-23T11:39:00Z</time>
      </trkpt>
      <trkpt lat="37.1744502771" lon="-7.53420132118">
        <ele>51</ele>
        <time>2011-03-23T11:39:03Z</time>
      </trkpt>
      <trkpt lat="37.1744073617" lon="-7.53426577799">
        <ele>51</ele>
        <time>2011-03-23T11:39:06Z</time>
      </trkpt>
      <trkpt lat="37.1743826351" lon="-7.53429612047">
        <ele>51.2</ele>
        <time>2011-03-23T11:39:08Z</time>
      </trkpt>
      <trkpt lat="37.1743589982" lon="-7.53436795336">
        <ele>51.2</ele>
        <time>2011-03-23T11:39:12Z</time>
      </trkpt>
      <trkpt lat="37.174344246" lon="-7.53437943656">
        <ele>51.2</ele>
        <time>2011-03-23T11:39:13Z</time>
      </trkpt>
      <trkpt lat="37.1742908533" lon="-7.5344396186">
        <ele>51.2</ele>
        <time>2011-03-23T11:39:17Z</time>
      </trkpt>
      <trkpt lat="37.1742514584" lon="-7.53449292748">
        <ele>51.2</ele>
        <time>2011-03-23T11:39:20Z</time>
      </trkpt>
      <trkpt lat="37.174196976" lon="-7.53453944703">
        <ele>51.2</ele>
        <time>2011-03-23T11:39:23Z</time>
      </trkpt>
      <trkpt lat="37.1741501212" lon="-7.53458781059">
        <ele>51.4</ele>
        <time>2011-03-23T11:39:26Z</time>
      </trkpt>
      <trkpt lat="37.1741156716" lon="-7.53462812753">
        <ele>51.8</ele>
        <time>2011-03-23T11:39:29Z</time>
      </trkpt>
      <trkpt lat="37.1740737621" lon="-7.53467766456">
        <ele>52.2</ele>
        <time>2011-03-23T11:39:32Z</time>
      </trkpt>
      <trkpt lat="37.1740364627" lon="-7.53471747859">
        <ele>52.4</ele>
        <time>2011-03-23T11:39:35Z</time>
      </trkpt>
      <trkpt lat="37.1739841596" lon="-7.53475393985">
        <ele>52.6</ele>
        <time>2011-03-23T11:39:38Z</time>
      </trkpt>
      <trkpt lat="37.173941831" lon="-7.53479635226">
        <ele>52.8</ele>
        <time>2011-03-23T11:39:41Z</time>
      </trkpt>
      <trkpt lat="37.1738944733" lon="-7.53485192426">
        <ele>53</ele>
        <time>2011-03-23T11:39:44Z</time>
      </trkpt>
      <trkpt lat="37.1738723451" lon="-7.53487321429">
        <ele>53</ele>
        <time>2011-03-23T11:39:46Z</time>
      </trkpt>
      <trkpt lat="37.1738135041" lon="-7.5349160458">
        <ele>53</ele>
        <time>2011-03-23T11:39:49Z</time>
      </trkpt>
      <trkpt lat="37.1737706726" lon="-7.53496038605">
        <ele>53</ele>
        <time>2011-03-23T11:39:52Z</time>
      </trkpt>
      <trkpt lat="37.1737264162" lon="-7.53500422338">
        <ele>53.4</ele>
        <time>2011-03-23T11:39:55Z</time>
      </trkpt>
      <trkpt lat="37.1736774659" lon="-7.53505711317">
        <ele>53.8</ele>
        <time>2011-03-23T11:39:58Z</time>
      </trkpt>
      <trkpt lat="37.173626923" lon="-7.53510656638">
        <ele>54.2</ele>
        <time>2011-03-23T11:40:02Z</time>
      </trkpt>
      <trkpt lat="37.1735726083" lon="-7.53515149337">
        <ele>54.6</ele>
        <time>2011-03-23T11:40:04Z</time>
      </trkpt>
      <trkpt lat="37.173519048" lon="-7.53519675563">
        <ele>54.8</ele>
        <time>2011-03-23T11:40:07Z</time>
      </trkpt>
      <trkpt lat="37.1734804074" lon="-7.53522651137">
        <ele>54.8</ele>
        <time>2011-03-23T11:40:09Z</time>
      </trkpt>
      <trkpt lat="37.1734248354" lon="-7.53526498429">
        <ele>55</ele>
        <time>2011-03-23T11:40:12Z</time>
      </trkpt>
      <trkpt lat="37.1733880389" lon="-7.53530261902">
        <ele>55</ele>
        <time>2011-03-23T11:40:14Z</time>
      </trkpt>
      <trkpt lat="37.1733370769" lon="-7.53534578581">
        <ele>55</ele>
        <time>2011-03-23T11:40:17Z</time>
      </trkpt>
      <trkpt lat="37.173320816" lon="-7.53536363926">
        <ele>55</ele>
        <time>2011-03-23T11:40:18Z</time>
      </trkpt>
      <trkpt lat="37.1732682615" lon="-7.53541585849">
        <ele>55.2</ele>
        <time>2011-03-23T11:40:22Z</time>
      </trkpt>
      <trkpt lat="37.173254599" lon="-7.53542650351">
        <ele>55.2</ele>
        <time>2011-03-23T11:40:23Z</time>
      </trkpt>
      <trkpt lat="37.1731839396" lon="-7.53547486707">
        <ele>55.2</ele>
        <time>2011-03-23T11:40:27Z</time>
      </trkpt>
      <trkpt lat="37.1731319718" lon="-7.53551191507">
        <ele>55.2</ele>
        <time>2011-03-23T11:40:30Z</time>
      </trkpt>
      <trkpt lat="37.1730749749" lon="-7.53555323783">
        <ele>55.2</ele>
        <time>2011-03-23T11:40:33Z</time>
      </trkpt>
      <trkpt lat="37.1730163016" lon="-7.53559053729">
        <ele>55.2</ele>
        <time>2011-03-23T11:40:36Z</time>
      </trkpt>
      <trkpt lat="37.1730038964" lon="-7.53561006712">
        <ele>55.2</ele>
        <time>2011-03-23T11:40:37Z</time>
      </trkpt>
      <trkpt lat="37.1729541917" lon="-7.53565004878">
        <ele>55.2</ele>
        <time>2011-03-23T11:40:40Z</time>
      </trkpt>
      <trkpt lat="37.1729141263" lon="-7.53568332492">
        <ele>55.2</ele>
        <time>2011-03-23T11:40:42Z</time>
      </trkpt>
      <trkpt lat="37.1728715462" lon="-7.53572095965">
        <ele>55.2</ele>
        <time>2011-03-23T11:40:45Z</time>
      </trkpt>
      <trkpt lat="37.1728121185" lon="-7.53576890412">
        <ele>55.2</ele>
        <time>2011-03-23T11:40:48Z</time>
      </trkpt>
      <trkpt lat="37.1727618271" lon="-7.53582238064">
        <ele>55</ele>
        <time>2011-03-23T11:40:51Z</time>
      </trkpt>
      <trkpt lat="37.1727034891" lon="-7.53586554743">
        <ele>54.6</ele>
        <time>2011-03-23T11:40:54Z</time>
      </trkpt>
      <trkpt lat="37.1726523595" lon="-7.5359130728">
        <ele>54.2</ele>
        <time>2011-03-23T11:40:57Z</time>
      </trkpt>
      <trkpt lat="37.172601649" lon="-7.53595975998">
        <ele>53.8</ele>
        <time>2011-03-23T11:41:00Z</time>
      </trkpt>
      <trkpt lat="37.1725473343" lon="-7.53600770445">
        <ele>53.8</ele>
        <time>2011-03-23T11:41:03Z</time>
      </trkpt>
      <trkpt lat="37.1725103701" lon="-7.53603871748">
        <ele>53.6</ele>
        <time>2011-03-23T11:41:05Z</time>
      </trkpt>
      <trkpt lat="37.1724568936" lon="-7.53608582376">
        <ele>53.4</ele>
        <time>2011-03-23T11:41:08Z</time>
      </trkpt>
      <trkpt lat="37.1724110446" lon="-7.5361362828">
        <ele>53.4</ele>
        <time>2011-03-23T11:41:11Z</time>
      </trkpt>
      <trkpt lat="37.172371063" lon="-7.53618422727">
        <ele>53.4</ele>
        <time>2011-03-23T11:41:14Z</time>
      </trkpt>
      <trkpt lat="37.1723234538" lon="-7.53622622059">
        <ele>53.2</ele>
        <time>2011-03-23T11:41:17Z</time>
      </trkpt>
      <trkpt lat="37.1722763475" lon="-7.5362668728">
        <ele>53.2</ele>
        <time>2011-03-23T11:41:20Z</time>
      </trkpt>
      <trkpt lat="37.1722150758" lon="-7.53632001405">
        <ele>53.2</ele>
        <time>2011-03-23T11:41:23Z</time>
      </trkpt>
      <trkpt lat="37.1721698135" lon="-7.53637835207">
        <ele>53.2</ele>
        <time>2011-03-23T11:41:26Z</time>
      </trkpt>
      <trkpt lat="37.1721430753" lon="-7.5364040845">
        <ele>53.2</ele>
        <time>2011-03-23T11:41:28Z</time>
      </trkpt>
      <trkpt lat="37.1720931191" lon="-7.53648605949">
        <ele>53.2</ele>
        <time>2011-03-23T11:41:32Z</time>
      </trkpt>
      <trkpt lat="37.1720801272" lon="-7.53651263011">
        <ele>53.2</ele>
        <time>2011-03-23T11:41:33Z</time>
      </trkpt>
      <trkpt lat="37.1720248067" lon="-7.53658940831">
        <ele>53.2</ele>
        <time>2011-03-23T11:41:37Z</time>
      </trkpt>
      <trkpt lat="37.1719948833" lon="-7.53664011881">
        <ele>53.2</ele>
        <time>2011-03-23T11:41:40Z</time>
      </trkpt>
      <trkpt lat="37.1719612719" lon="-7.53669208659">
        <ele>53.2</ele>
        <time>2011-03-23T11:41:43Z</time>
      </trkpt>
      <trkpt lat="37.1719413229" lon="-7.53672133942">
        <ele>53.2</ele>
        <time>2011-03-23T11:41:45Z</time>
      </trkpt>
      <trkpt lat="37.1719259002" lon="-7.53673919287">
        <ele>53.2</ele>
        <time>2011-03-23T11:41:46Z</time>
      </trkpt>
      <trkpt lat="37.1718762794" lon="-7.53682745427">
        <ele>53.2</ele>
        <time>2011-03-23T11:41:50Z</time>
      </trkpt>
      <trkpt lat="37.1718695739" lon="-7.53683633909">
        <ele>53.2</ele>
        <time>2011-03-23T11:41:54Z</time>
      </trkpt>
      <trkpt lat="37.1718922888" lon="-7.53680985228">
        <ele>53.2</ele>
        <time>2011-03-23T11:41:58Z</time>
      </trkpt>
      <trkpt lat="37.1719155905" lon="-7.53678898135">
        <ele>53.2</ele>
        <time>2011-03-23T11:42:02Z</time>
      </trkpt>
      <trkpt lat="37.1719314323" lon="-7.53674631748">
        <ele>53</ele>
        <time>2011-03-23T11:42:05Z</time>
      </trkpt>
      <trkpt lat="37.1719506268" lon="-7.5367093533">
        <ele>52.4</ele>
        <time>2011-03-23T11:42:08Z</time>
      </trkpt>
      <trkpt lat="37.1719772813" lon="-7.53666627034">
        <ele>52.2</ele>
        <time>2011-03-23T11:42:11Z</time>
      </trkpt>
      <trkpt lat="37.1720029299" lon="-7.53662293591">
        <ele>51.8</ele>
        <time>2011-03-23T11:42:14Z</time>
      </trkpt>
      <trkpt lat="37.1720298358" lon="-7.53657993677">
        <ele>51.6</ele>
        <time>2011-03-23T11:42:17Z</time>
      </trkpt>
      <trkpt lat="37.1720571608" lon="-7.53654070947">
        <ele>51.6</ele>
        <time>2011-03-23T11:42:20Z</time>
      </trkpt>
      <trkpt lat="37.1720718291" lon="-7.53651799452">
        <ele>51.4</ele>
        <time>2011-03-23T11:42:22Z</time>
      </trkpt>
      <trkpt lat="37.1721280717" lon="-7.53645974032">
        <ele>51.4</ele>
        <time>2011-03-23T11:42:25Z</time>
      </trkpt>
      <trkpt lat="37.1721896786" lon="-7.53639360713">
        <ele>51.4</ele>
        <time>2011-03-23T11:42:27Z</time>
      </trkpt>
      <trkpt lat="37.1722530458" lon="-7.53632973705">
        <ele>51.2</ele>
        <time>2011-03-23T11:42:29Z</time>
      </trkpt>
      <trkpt lat="37.1723126411" lon="-7.53627374596">
        <ele>51.2</ele>
        <time>2011-03-23T11:42:31Z</time>
      </trkpt>
      <trkpt lat="37.1723591607" lon="-7.53621859306">
        <ele>51.2</ele>
        <time>2011-03-23T11:42:33Z</time>
      </trkpt>
      <trkpt lat="37.1723777685" lon="-7.53618380817">
        <ele>51.2</ele>
        <time>2011-03-23T11:42:34Z</time>
      </trkpt>
      <trkpt lat="37.1723750024" lon="-7.53606771886">
        <ele>50.6</ele>
        <time>2011-03-23T11:42:37Z</time>
      </trkpt>
      <trkpt lat="37.1723744995" lon="-7.53597291957">
        <ele>50.4</ele>
        <time>2011-03-23T11:42:39Z</time>
      </trkpt>
      <trkpt lat="37.1723785228" lon="-7.53588021575">
        <ele>50.2</ele>
        <time>2011-03-23T11:42:41Z</time>
      </trkpt>
      <trkpt lat="37.1723891679" lon="-7.5357908647">
        <ele>50</ele>
        <time>2011-03-23T11:42:43Z</time>
      </trkpt>
      <trkpt lat="37.1724016569" lon="-7.53566580675">
        <ele>49.6</ele>
        <time>2011-03-23T11:42:46Z</time>
      </trkpt>
      <trkpt lat="37.172411799" lon="-7.53558676543">
        <ele>49.6</ele>
        <time>2011-03-23T11:42:48Z</time>
      </trkpt>
      <trkpt lat="37.1724175825" lon="-7.53551040633">
        <ele>49.4</ele>
        <time>2011-03-23T11:42:50Z</time>
      </trkpt>
      <trkpt lat="37.1724197618" lon="-7.53543941163">
        <ele>49.4</ele>
        <time>2011-03-23T11:42:52Z</time>
      </trkpt>
      <trkpt lat="37.1724220249" lon="-7.53535299424">
        <ele>49.4</ele>
        <time>2011-03-23T11:42:54Z</time>
      </trkpt>
      <trkpt lat="37.1724276408" lon="-7.53527001343">
        <ele>49.2</ele>
        <time>2011-03-23T11:42:56Z</time>
      </trkpt>
      <trkpt lat="37.172431245" lon="-7.53518812227">
        <ele>49.2</ele>
        <time>2011-03-23T11:42:58Z</time>
      </trkpt>
      <trkpt lat="37.1724408842" lon="-7.53510673402">
        <ele>49.2</ele>
        <time>2011-03-23T11:43:00Z</time>
      </trkpt>
      <trkpt lat="37.1724489308" lon="-7.53501763442">
        <ele>49.2</ele>
        <time>2011-03-23T11:43:02Z</time>
      </trkpt>
      <trkpt lat="37.1724614198" lon="-7.53492677463">
        <ele>49.2</ele>
        <time>2011-03-23T11:43:04Z</time>
      </trkpt>
      <trkpt lat="37.1724704723" lon="-7.53483868086">
        <ele>48.8</ele>
        <time>2011-03-23T11:43:06Z</time>
      </trkpt>
      <trkpt lat="37.1724744118" lon="-7.53475184438">
        <ele>48.4</ele>
        <time>2011-03-23T11:43:08Z</time>
      </trkpt>
      <trkpt lat="37.1724796086" lon="-7.53467280306">
        <ele>48.2</ele>
        <time>2011-03-23T11:43:10Z</time>
      </trkpt>
      <trkpt lat="37.1724882419" lon="-7.53459166627">
        <ele>48</ele>
        <time>2011-03-23T11:43:12Z</time>
      </trkpt>
      <trkpt lat="37.1724867332" lon="-7.53450566797">
        <ele>47.8</ele>
        <time>2011-03-23T11:43:14Z</time>
      </trkpt>
      <trkpt lat="37.1724866494" lon="-7.53442821922">
        <ele>47.6</ele>
        <time>2011-03-23T11:43:16Z</time>
      </trkpt>
      <trkpt lat="37.1724894992" lon="-7.53434750152">
        <ele>47.4</ele>
        <time>2011-03-23T11:43:18Z</time>
      </trkpt>
      <trkpt lat="37.1725010662" lon="-7.53428480491">
        <ele>47.4</ele>
        <time>2011-03-23T11:43:20Z</time>
      </trkpt>
      <trkpt lat="37.1725182491" lon="-7.53421758207">
        <ele>47.4</ele>
        <time>2011-03-23T11:43:22Z</time>
      </trkpt>
      <trkpt lat="37.1725292294" lon="-7.53415522073">
        <ele>47.2</ele>
        <time>2011-03-23T11:43:24Z</time>
      </trkpt>
      <trkpt lat="37.1725202608" lon="-7.53412135786">
        <ele>47</ele>
        <time>2011-03-23T11:43:25Z</time>
      </trkpt>
      <trkpt lat="37.1724602464" lon="-7.53407341339">
        <ele>46.6</ele>
        <time>2011-03-23T11:43:27Z</time>
      </trkpt>
      <trkpt lat="37.1724264673" lon="-7.5340509499">
        <ele>46.4</ele>
        <time>2011-03-23T11:43:28Z</time>
      </trkpt>
      <trkpt lat="37.1723308298" lon="-7.53400158051">
        <ele>46</ele>
        <time>2011-03-23T11:43:31Z</time>
      </trkpt>
      <trkpt lat="37.1722737491" lon="-7.5339688911">
        <ele>45.8</ele>
        <time>2011-03-23T11:43:33Z</time>
      </trkpt>
      <trkpt lat="37.1722192667" lon="-7.53394449977">
        <ele>45.6</ele>
        <time>2011-03-23T11:43:35Z</time>
      </trkpt>
      <trkpt lat="37.1721656226" lon="-7.53392614341">
        <ele>45.6</ele>
        <time>2011-03-23T11:43:37Z</time>
      </trkpt>
      <trkpt lat="37.1721090448" lon="-7.53388440154">
        <ele>45.4</ele>
        <time>2011-03-23T11:43:39Z</time>
      </trkpt>
      <trkpt lat="37.1720337753" lon="-7.5338409833">
        <ele>45.2</ele>
        <time>2011-03-23T11:43:41Z</time>
      </trkpt>
      <trkpt lat="37.1719633673" lon="-7.5337875906">
        <ele>44.6</ele>
        <time>2011-03-23T11:43:43Z</time>
      </trkpt>
      <trkpt lat="37.1718900257" lon="-7.53373335971">
        <ele>44.2</ele>
        <time>2011-03-23T11:43:46Z</time>
      </trkpt>
      <trkpt lat="37.1718549055" lon="-7.53371835611">
        <ele>43.8</ele>
        <time>2011-03-23T11:43:49Z</time>
      </trkpt>
      <trkpt lat="37.1718466075" lon="-7.53371684736">
        <ele>43.4</ele>
        <time>2011-03-23T11:43:54Z</time>
      </trkpt>
      <trkpt lat="37.1718820629" lon="-7.53374400472">
        <ele>42.4</ele>
        <time>2011-03-23T11:44:00Z</time>
      </trkpt>
      <trkpt lat="37.1719425802" lon="-7.53379261974">
        <ele>42</ele>
        <time>2011-03-23T11:44:02Z</time>
      </trkpt>
      <trkpt lat="37.1720107251" lon="-7.53384148622">
        <ele>41.8</ele>
        <time>2011-03-23T11:44:04Z</time>
      </trkpt>
      <trkpt lat="37.1720722482" lon="-7.5338899336">
        <ele>41.6</ele>
        <time>2011-03-23T11:44:06Z</time>
      </trkpt>
      <trkpt lat="37.1721313406" lon="-7.53392622723">
        <ele>41.4</ele>
        <time>2011-03-23T11:44:08Z</time>
      </trkpt>
      <trkpt lat="37.1721902654" lon="-7.53395724026">
        <ele>41.4</ele>
        <time>2011-03-23T11:44:10Z</time>
      </trkpt>
      <trkpt lat="37.1722635232" lon="-7.53400962713">
        <ele>41.2</ele>
        <time>2011-03-23T11:44:12Z</time>
      </trkpt>
      <trkpt lat="37.1723318357" lon="-7.53405656577">
        <ele>41.2</ele>
        <time>2011-03-23T11:44:14Z</time>
      </trkpt>
      <trkpt lat="37.1723972983" lon="-7.53410249858">
        <ele>41.2</ele>
        <time>2011-03-23T11:44:16Z</time>
      </trkpt>
      <trkpt lat="37.1724361903" lon="-7.53416033369">
        <ele>41</ele>
        <time>2011-03-23T11:44:18Z</time>
      </trkpt>
      <trkpt lat="37.1724282275" lon="-7.53420048299">
        <ele>41</ele>
        <time>2011-03-23T11:44:19Z</time>
      </trkpt>
      <trkpt lat="37.1724102064" lon="-7.53430366418">
        <ele>41</ele>
        <time>2011-03-23T11:44:21Z</time>
      </trkpt>
      <trkpt lat="37.1724021598" lon="-7.53441480818">
        <ele>41</ele>
        <time>2011-03-23T11:44:23Z</time>
      </trkpt>
      <trkpt lat="37.1724014054" lon="-7.5345199172">
        <ele>41</ele>
        <time>2011-03-23T11:44:25Z</time>
      </trkpt>
      <trkpt lat="37.1724007349" lon="-7.53462821135">
        <ele>41</ele>
        <time>2011-03-23T11:44:27Z</time>
      </trkpt>
      <trkpt lat="37.1723961248" lon="-7.53474078027">
        <ele>41</ele>
        <time>2011-03-23T11:44:29Z</time>
      </trkpt>
      <trkpt lat="37.1723918501" lon="-7.53484412909">
        <ele>40.8</ele>
        <time>2011-03-23T11:44:31Z</time>
      </trkpt>
      <trkpt lat="37.1723829652" lon="-7.53494462808">
        <ele>40.8</ele>
        <time>2011-03-23T11:44:33Z</time>
      </trkpt>
      <trkpt lat="37.1723729908" lon="-7.5350413552">
        <ele>40.8</ele>
        <time>2011-03-23T11:44:35Z</time>
      </trkpt>
      <trkpt lat="37.1723648603" lon="-7.53514252473">
        <ele>40.8</ele>
        <time>2011-03-23T11:44:37Z</time>
      </trkpt>
      <trkpt lat="37.1723551373" lon="-7.53523824603">
        <ele>40.8</ele>
        <time>2011-03-23T11:44:39Z</time>
      </trkpt>
      <trkpt lat="37.172352958" lon="-7.53528736397">
        <ele>40.8</ele>
        <time>2011-03-23T11:44:40Z</time>
      </trkpt>
      <trkpt lat="37.1723457496" lon="-7.53538702476">
        <ele>40.8</ele>
        <time>2011-03-23T11:44:42Z</time>
      </trkpt>
      <trkpt lat="37.1723357752" lon="-7.53547520235">
        <ele>40.8</ele>
        <time>2011-03-23T11:44:44Z</time>
      </trkpt>
      <trkpt lat="37.1723285667" lon="-7.53555860225">
        <ele>40.8</ele>
        <time>2011-03-23T11:44:46Z</time>
      </trkpt>
      <trkpt lat="37.17232798" lon="-7.53564451673">
        <ele>40.8</ele>
        <time>2011-03-23T11:44:48Z</time>
      </trkpt>
      <trkpt lat="37.1723241243" lon="-7.53572699462">
        <ele>40.8</ele>
        <time>2011-03-23T11:44:50Z</time>
      </trkpt>
      <trkpt lat="37.1723263036" lon="-7.53579555856">
        <ele>40.8</ele>
        <time>2011-03-23T11:44:52Z</time>
      </trkpt>
      <trkpt lat="37.1723213583" lon="-7.53587166622">
        <ele>40.8</ele>
        <time>2011-03-23T11:44:54Z</time>
      </trkpt>
      <trkpt lat="37.1723216097" lon="-7.53596260983">
        <ele>40.6</ele>
        <time>2011-03-23T11:44:56Z</time>
      </trkpt>
      <trkpt lat="37.1723175864" lon="-7.53604005859">
        <ele>40.2</ele>
        <time>2011-03-23T11:44:58Z</time>
      </trkpt>
      <trkpt lat="37.1723107133" lon="-7.53612111156">
        <ele>40</ele>
        <time>2011-03-23T11:45:00Z</time>
      </trkpt>
      <trkpt lat="37.1723233699" lon="-7.53618724475">
        <ele>39.8</ele>
        <time>2011-03-23T11:45:02Z</time>
      </trkpt>
      <trkpt lat="37.1723198495" lon="-7.53620241599">
        <ele>39.6</ele>
        <time>2011-03-23T11:45:03Z</time>
      </trkpt>
      <trkpt lat="37.1723147366" lon="-7.53622923807">
        <ele>39.6</ele>
        <time>2011-03-23T11:45:05Z</time>
      </trkpt>
      <trkpt lat="37.1722822986" lon="-7.53626561552">
        <ele>39.2</ele>
        <time>2011-03-23T11:45:09Z</time>
      </trkpt>
      <trkpt lat="37.1722620144" lon="-7.53629168322">
        <ele>39.2</ele>
        <time>2011-03-23T11:45:11Z</time>
      </trkpt>
      <trkpt lat="37.1722246312" lon="-7.53634088498">
        <ele>39</ele>
        <time>2011-03-23T11:45:15Z</time>
      </trkpt>
      <trkpt lat="37.172215914" lon="-7.53635647531">
        <ele>39</ele>
        <time>2011-03-23T11:45:16Z</time>
      </trkpt>
      <trkpt lat="37.1721879184" lon="-7.53640307868">
        <ele>39</ele>
        <time>2011-03-23T11:45:19Z</time>
      </trkpt>
      <trkpt lat="37.172143662" lon="-7.53645823158">
        <ele>39</ele>
        <time>2011-03-23T11:45:22Z</time>
      </trkpt>
      <trkpt lat="37.1720989865" lon="-7.53651665342">
        <ele>39</ele>
        <time>2011-03-23T11:45:25Z</time>
      </trkpt>
      <trkpt lat="37.172082977" lon="-7.5365337525">
        <ele>39.2</ele>
        <time>2011-03-23T11:45:26Z</time>
      </trkpt>
      <trkpt lat="37.172058921" lon="-7.53661354818">
        <ele>39.8</ele>
        <time>2011-03-23T11:45:30Z</time>
      </trkpt>
      <trkpt lat="37.1720272374" lon="-7.536678927">
        <ele>40</ele>
        <time>2011-03-23T11:45:33Z</time>
      </trkpt>
      <trkpt lat="37.1719912791" lon="-7.53674413819">
        <ele>40.2</ele>
        <time>2011-03-23T11:45:36Z</time>
      </trkpt>
      <trkpt lat="37.1719608528" lon="-7.53681421087">
        <ele>40.8</ele>
        <time>2011-03-23T11:45:39Z</time>
      </trkpt>
      <trkpt lat="37.1719268223" lon="-7.53687648839">
        <ele>41.4</ele>
        <time>2011-03-23T11:45:42Z</time>
      </trkpt>
      <trkpt lat="37.1719005031" lon="-7.53694454942">
        <ele>41.8</ele>
        <time>2011-03-23T11:45:45Z</time>
      </trkpt>
      <trkpt lat="37.1718816438" lon="-7.53697992103">
        <ele>42</ele>
        <time>2011-03-23T11:45:47Z</time>
      </trkpt>
      <trkpt lat="37.1718487029" lon="-7.53703364901">
        <ele>42.2</ele>
        <time>2011-03-23T11:45:49Z</time>
      </trkpt>
      <trkpt lat="37.1718414107" lon="-7.53705845944">
        <ele>42.2</ele>
        <time>2011-03-23T11:45:50Z</time>
      </trkpt>
      <trkpt lat="37.1718135828" lon="-7.53713574055">
        <ele>42.4</ele>
        <time>2011-03-23T11:45:53Z</time>
      </trkpt>
      <trkpt lat="37.1717844138" lon="-7.53720489123">
        <ele>42.6</ele>
        <time>2011-03-23T11:45:56Z</time>
      </trkpt>
      <trkpt lat="37.1717587652" lon="-7.53725409298">
        <ele>42.6</ele>
        <time>2011-03-23T11:45:59Z</time>
      </trkpt>
      <trkpt lat="37.1717318593" lon="-7.53732634496">
        <ele>42.8</ele>
        <time>2011-03-23T11:46:01Z</time>
      </trkpt>
      <trkpt lat="37.1717019359" lon="-7.53739625001">
        <ele>42.8</ele>
        <time>2011-03-23T11:46:04Z</time>
      </trkpt>
      <trkpt lat="37.1716705037" lon="-7.53746716088">
        <ele>42.8</ele>
        <time>2011-03-23T11:46:07Z</time>
      </trkpt>
      <trkpt lat="37.171647705" lon="-7.5375206374">
        <ele>42.8</ele>
        <time>2011-03-23T11:46:09Z</time>
      </trkpt>
      <trkpt lat="37.1716235651" lon="-7.5375744492">
        <ele>42.8</ele>
        <time>2011-03-23T11:46:11Z</time>
      </trkpt>
      <trkpt lat="37.1716025265" lon="-7.5376265008">
        <ele>42.8</ele>
        <time>2011-03-23T11:46:13Z</time>
      </trkpt>
      <trkpt lat="37.1715687475" lon="-7.53769749549">
        <ele>42.8</ele>
        <time>2011-03-23T11:46:16Z</time>
      </trkpt>
      <trkpt lat="37.1715471222" lon="-7.53774845744">
        <ele>42.8</ele>
        <time>2011-03-23T11:46:18Z</time>
      </trkpt>
      <trkpt lat="37.1715122535" lon="-7.53781710521">
        <ele>42.8</ele>
        <time>2011-03-23T11:46:21Z</time>
      </trkpt>
      <trkpt lat="37.1714850961" lon="-7.53786739661">
        <ele>42.8</ele>
        <time>2011-03-23T11:46:23Z</time>
      </trkpt>
      <trkpt lat="37.1714548375" lon="-7.53793914567">
        <ele>43</ele>
        <time>2011-03-23T11:46:26Z</time>
      </trkpt>
      <trkpt lat="37.1714292727" lon="-7.53798700632">
        <ele>43</ele>
        <time>2011-03-23T11:46:28Z</time>
      </trkpt>
      <trkpt lat="37.1714067254" lon="-7.53803377732">
        <ele>43</ele>
        <time>2011-03-23T11:46:30Z</time>
      </trkpt>
      <trkpt lat="37.1713810767" lon="-7.53808691857">
        <ele>43</ele>
        <time>2011-03-23T11:46:32Z</time>
      </trkpt>
      <trkpt lat="37.1713581103" lon="-7.53813327047">
        <ele>43</ele>
        <time>2011-03-23T11:46:34Z</time>
      </trkpt>
      <trkpt lat="37.1713223196" lon="-7.53820384607">
        <ele>43</ele>
        <time>2011-03-23T11:46:37Z</time>
      </trkpt>
      <trkpt lat="37.1712933182" lon="-7.53825438893">
        <ele>43</ele>
        <time>2011-03-23T11:46:39Z</time>
      </trkpt>
      <trkpt lat="37.1712653227" lon="-7.5383067758">
        <ele>43</ele>
        <time>2011-03-23T11:46:41Z</time>
      </trkpt>
      <trkpt lat="37.1712442841" lon="-7.53835773776">
        <ele>43</ele>
        <time>2011-03-23T11:46:43Z</time>
      </trkpt>
      <trkpt lat="37.1712183841" lon="-7.53840995699">
        <ele>43</ele>
        <time>2011-03-23T11:46:45Z</time>
      </trkpt>
      <trkpt lat="37.171198519" lon="-7.53846913321">
        <ele>43</ele>
        <time>2011-03-23T11:46:47Z</time>
      </trkpt>
      <trkpt lat="37.1711684279" lon="-7.53854649814">
        <ele>43</ele>
        <time>2011-03-23T11:46:50Z</time>
      </trkpt>
      <trkpt lat="37.1711395942" lon="-7.53861975595">
        <ele>42.6</ele>
        <time>2011-03-23T11:46:53Z</time>
      </trkpt>
      <trkpt lat="37.171104474" lon="-7.53866426384">
        <ele>42.2</ele>
        <time>2011-03-23T11:46:55Z</time>
      </trkpt>
      <trkpt lat="37.1710499917" lon="-7.5386980429">
        <ele>41.8</ele>
        <time>2011-03-23T11:46:58Z</time>
      </trkpt>
      <trkpt lat="37.1710062382" lon="-7.53872704427">
        <ele>41.6</ele>
        <time>2011-03-23T11:47:01Z</time>
      </trkpt>
      <trkpt lat="37.170997521" lon="-7.53873919802">
        <ele>41.6</ele>
        <time>2011-03-23T11:47:02Z</time>
      </trkpt>
      <trkpt lat="37.1709290409" lon="-7.53875068123">
        <ele>41.2</ele>
        <time>2011-03-23T11:47:06Z</time>
      </trkpt>
      <trkpt lat="37.1708820184" lon="-7.53875361489">
        <ele>41.2</ele>
        <time>2011-03-23T11:47:08Z</time>
      </trkpt>
      <trkpt lat="37.1708357503" lon="-7.53875638092">
        <ele>41.2</ele>
        <time>2011-03-23T11:47:10Z</time>
      </trkpt>
      <trkpt lat="37.1707676055" lon="-7.53876451136">
        <ele>41</ele>
        <time>2011-03-23T11:47:13Z</time>
      </trkpt>
      <trkpt lat="37.170701137" lon="-7.53877255799">
        <ele>41</ele>
        <time>2011-03-23T11:47:16Z</time>
      </trkpt>
      <trkpt lat="37.1706462356" lon="-7.53877289326">
        <ele>41</ele>
        <time>2011-03-23T11:47:18Z</time>
      </trkpt>
      <trkpt lat="37.1705977882" lon="-7.53877599457">
        <ele>41</ele>
        <time>2011-03-23T11:47:20Z</time>
      </trkpt>
      <trkpt lat="37.1705517716" lon="-7.5387814428">
        <ele>41</ele>
        <time>2011-03-23T11:47:22Z</time>
      </trkpt>
      <trkpt lat="37.170503408" lon="-7.53878957324">
        <ele>41</ele>
        <time>2011-03-23T11:47:24Z</time>
      </trkpt>
      <trkpt lat="37.170441801" lon="-7.53880114027">
        <ele>41</ele>
        <time>2011-03-23T11:47:27Z</time>
      </trkpt>
      <trkpt lat="37.1703733209" lon="-7.53880935453">
        <ele>40.8</ele>
        <time>2011-03-23T11:47:30Z</time>
      </trkpt>
      <trkpt lat="37.1703182518" lon="-7.53881287493">
        <ele>40.8</ele>
        <time>2011-03-23T11:47:33Z</time>
      </trkpt>
      <trkpt lat="37.1702679604" lon="-7.53881145">
        <ele>40.8</ele>
        <time>2011-03-23T11:47:36Z</time>
      </trkpt>
      <trkpt lat="37.1702407192" lon="-7.53881161764">
        <ele>40.8</ele>
        <time>2011-03-23T11:47:39Z</time>
      </trkpt>
      <trkpt lat="37.1701818783" lon="-7.53881530568">
        <ele>40.8</ele>
        <time>2011-03-23T11:47:43Z</time>
      </trkpt>
      <trkpt lat="37.1701363646" lon="-7.53882368758">
        <ele>40.8</ele>
        <time>2011-03-23T11:47:45Z</time>
      </trkpt>
      <trkpt lat="37.170085235" lon="-7.53882913581">
        <ele>40.8</ele>
        <time>2011-03-23T11:47:47Z</time>
      </trkpt>
      <trkpt lat="37.1700405595" lon="-7.53883768535">
        <ele>40.8</ele>
        <time>2011-03-23T11:47:49Z</time>
      </trkpt>
      <trkpt lat="37.1699969736" lon="-7.53884967147">
        <ele>40.8</ele>
        <time>2011-03-23T11:47:51Z</time>
      </trkpt>
      <trkpt lat="37.1699299184" lon="-7.53885528734">
        <ele>40.8</ele>
        <time>2011-03-23T11:47:54Z</time>
      </trkpt>
      <trkpt lat="37.1698709098" lon="-7.53884573197">
        <ele>40.8</ele>
        <time>2011-03-23T11:47:57Z</time>
      </trkpt>
      <trkpt lat="37.1697683154" lon="-7.53883667952">
        <ele>40.8</ele>
        <time>2011-03-23T11:48:02Z</time>
      </trkpt>
      <trkpt lat="37.1697174372" lon="-7.53883324294">
        <ele>40.8</ele>
        <time>2011-03-23T11:48:04Z</time>
      </trkpt>
      <trkpt lat="37.1696641283" lon="-7.53883676334">
        <ele>40.8</ele>
        <time>2011-03-23T11:48:06Z</time>
      </trkpt>
      <trkpt lat="37.1696166868" lon="-7.5388405352">
        <ele>40.8</ele>
        <time>2011-03-23T11:48:08Z</time>
      </trkpt>
      <trkpt lat="37.1695503021" lon="-7.53884690544">
        <ele>40.8</ele>
        <time>2011-03-23T11:48:11Z</time>
      </trkpt>
      <trkpt lat="37.169487857" lon="-7.53885486824">
        <ele>40.8</ele>
        <time>2011-03-23T11:48:14Z</time>
      </trkpt>
      <trkpt lat="37.1694399963" lon="-7.53886433979">
        <ele>40.8</ele>
        <time>2011-03-23T11:48:16Z</time>
      </trkpt>
      <trkpt lat="37.1693752043" lon="-7.53888412108">
        <ele>40.8</ele>
        <time>2011-03-23T11:48:19Z</time>
      </trkpt>
      <trkpt lat="37.169310496" lon="-7.53890800949">
        <ele>40.8</ele>
        <time>2011-03-23T11:48:22Z</time>
      </trkpt>
      <trkpt lat="37.1692658205" lon="-7.53893072444">
        <ele>40.8</ele>
        <time>2011-03-23T11:48:24Z</time>
      </trkpt>
      <trkpt lat="37.1692052193" lon="-7.53895662451">
        <ele>40.8</ele>
        <time>2011-03-23T11:48:27Z</time>
      </trkpt>
      <trkpt lat="37.1691433609" lon="-7.53899149321">
        <ele>40.4</ele>
        <time>2011-03-23T11:48:30Z</time>
      </trkpt>
      <trkpt lat="37.1690833465" lon="-7.53902468554">
        <ele>40</ele>
        <time>2011-03-23T11:48:33Z</time>
      </trkpt>
      <trkpt lat="37.1690399283" lon="-7.53904941214">
        <ele>39.8</ele>
        <time>2011-03-23T11:48:35Z</time>
      </trkpt>
      <trkpt lat="37.1689747171" lon="-7.53909014818">
        <ele>39.6</ele>
        <time>2011-03-23T11:48:39Z</time>
      </trkpt>
      <trkpt lat="37.1689191451" lon="-7.53913105185">
        <ele>39.4</ele>
        <time>2011-03-23T11:48:41Z</time>
      </trkpt>
      <trkpt lat="37.1688773194" lon="-7.53915594609">
        <ele>39.2</ele>
        <time>2011-03-23T11:48:43Z</time>
      </trkpt>
      <trkpt lat="37.1688397685" lon="-7.53918310345">
        <ele>39.2</ele>
        <time>2011-03-23T11:48:45Z</time>
      </trkpt>
      <trkpt lat="37.1687970208" lon="-7.53921487085">
        <ele>39</ele>
        <time>2011-03-23T11:48:47Z</time>
      </trkpt>
      <trkpt lat="37.1687433766" lon="-7.53925451724">
        <ele>39</ele>
        <time>2011-03-23T11:48:50Z</time>
      </trkpt>
      <trkpt lat="37.1686933367" lon="-7.53929835457">
        <ele>39</ele>
        <time>2011-03-23T11:48:53Z</time>
      </trkpt>
      <trkpt lat="37.1686373456" lon="-7.53933984498">
        <ele>39</ele>
        <time>2011-03-23T11:48:56Z</time>
      </trkpt>
      <trkpt lat="37.1685926701" lon="-7.5393716962">
        <ele>38.8</ele>
        <time>2011-03-23T11:48:58Z</time>
      </trkpt>
      <trkpt lat="37.1685284647" lon="-7.53940748691">
        <ele>38.8</ele>
        <time>2011-03-23T11:49:01Z</time>
      </trkpt>
      <trkpt lat="37.1684679474" lon="-7.5394484744">
        <ele>38.8</ele>
        <time>2011-03-23T11:49:04Z</time>
      </trkpt>
      <trkpt lat="37.1684078492" lon="-7.53948770169">
        <ele>38.8</ele>
        <time>2011-03-23T11:49:07Z</time>
      </trkpt>
      <trkpt lat="37.1683661911" lon="-7.53951427232">
        <ele>38.8</ele>
        <time>2011-03-23T11:49:09Z</time>
      </trkpt>
      <trkpt lat="37.1683072664" lon="-7.53955190705">
        <ele>38.8</ele>
        <time>2011-03-23T11:49:12Z</time>
      </trkpt>
      <trkpt lat="37.168252784" lon="-7.53959188871">
        <ele>38.8</ele>
        <time>2011-03-23T11:49:15Z</time>
      </trkpt>
      <trkpt lat="37.1681874052" lon="-7.53963413349">
        <ele>38.8</ele>
        <time>2011-03-23T11:49:19Z</time>
      </trkpt>
      <trkpt lat="37.1681257144" lon="-7.53966623616">
        <ele>38.8</ele>
        <time>2011-03-23T11:49:21Z</time>
      </trkpt>
      <trkpt lat="37.1680657" lon="-7.53969666246">
        <ele>38.8</ele>
        <time>2011-03-23T11:49:24Z</time>
      </trkpt>
      <trkpt lat="37.1680133131" lon="-7.53973186644">
        <ele>38.8</ele>
        <time>2011-03-23T11:49:27Z</time>
      </trkpt>
      <trkpt lat="37.1679638599" lon="-7.5397656455">
        <ele>38.8</ele>
        <time>2011-03-23T11:49:30Z</time>
      </trkpt>
      <trkpt lat="37.167909629" lon="-7.5398009333">
        <ele>38.8</ele>
        <time>2011-03-23T11:49:33Z</time>
      </trkpt>
      <trkpt lat="37.1678538056" lon="-7.53983362271">
        <ele>38.8</ele>
        <time>2011-03-23T11:49:36Z</time>
      </trkpt>
      <trkpt lat="37.1678103035" lon="-7.53985826549">
        <ele>38.8</ele>
        <time>2011-03-23T11:49:39Z</time>
      </trkpt>
      <trkpt lat="37.1677604312" lon="-7.53989204455">
        <ele>38.8</ele>
        <time>2011-03-23T11:49:41Z</time>
      </trkpt>
      <trkpt lat="37.1676881792" lon="-7.53993596571">
        <ele>39.6</ele>
        <time>2011-03-23T11:49:46Z</time>
      </trkpt>
      <trkpt lat="37.1676310985" lon="-7.53997075059">
        <ele>39.8</ele>
        <time>2011-03-23T11:49:50Z</time>
      </trkpt>
      <trkpt lat="37.1675782925" lon="-7.5400056193">
        <ele>40.2</ele>
        <time>2011-03-23T11:49:52Z</time>
      </trkpt>
      <trkpt lat="37.1675119917" lon="-7.54004669061">
        <ele>40.4</ele>
        <time>2011-03-23T11:49:55Z</time>
      </trkpt>
      <trkpt lat="37.1674550786" lon="-7.54008650463">
        <ele>40.4</ele>
        <time>2011-03-23T11:49:58Z</time>
      </trkpt>
      <trkpt lat="37.1673981655" lon="-7.54012380409">
        <ele>40.6</ele>
        <time>2011-03-23T11:50:01Z</time>
      </trkpt>
      <trkpt lat="37.1673376482" lon="-7.54016361811">
        <ele>40.6</ele>
        <time>2011-03-23T11:50:04Z</time>
      </trkpt>
      <trkpt lat="37.1673259135" lon="-7.54017971136">
        <ele>40.6</ele>
        <time>2011-03-23T11:50:05Z</time>
      </trkpt>
      <trkpt lat="37.1672497221" lon="-7.54022807492">
        <ele>40.8</ele>
        <time>2011-03-23T11:50:09Z</time>
      </trkpt>
      <trkpt lat="37.1671871931" lon="-7.54026646402">
        <ele>40.8</ele>
        <time>2011-03-23T11:50:12Z</time>
      </trkpt>
      <trkpt lat="37.1671312858" lon="-7.54030435021">
        <ele>40.8</ele>
        <time>2011-03-23T11:50:15Z</time>
      </trkpt>
      <trkpt lat="37.1670730316" lon="-7.54034030856">
        <ele>41.2</ele>
        <time>2011-03-23T11:50:19Z</time>
      </trkpt>
      <trkpt lat="37.1670185492" lon="-7.54037081868">
        <ele>41.6</ele>
        <time>2011-03-23T11:50:21Z</time>
      </trkpt>
      <trkpt lat="37.1669656595" lon="-7.54040233462">
        <ele>42</ele>
        <time>2011-03-23T11:50:24Z</time>
      </trkpt>
      <trkpt lat="37.1669129373" lon="-7.54043368293">
        <ele>42.2</ele>
        <time>2011-03-23T11:50:27Z</time>
      </trkpt>
      <trkpt lat="37.1668615563" lon="-7.54046553415">
        <ele>42.4</ele>
        <time>2011-03-23T11:50:30Z</time>
      </trkpt>
      <trkpt lat="37.1668073254" lon="-7.54049646336">
        <ele>42.6</ele>
        <time>2011-03-23T11:50:33Z</time>
      </trkpt>
      <trkpt lat="37.1667536812" lon="-7.54052538091">
        <ele>42.6</ele>
        <time>2011-03-23T11:50:36Z</time>
      </trkpt>
      <trkpt lat="37.1666960137" lon="-7.54055656158">
        <ele>43.2</ele>
        <time>2011-03-23T11:50:39Z</time>
      </trkpt>
      <trkpt lat="37.1666380948" lon="-7.54058933481">
        <ele>43.6</ele>
        <time>2011-03-23T11:50:42Z</time>
      </trkpt>
      <trkpt lat="37.1665814332" lon="-7.54062261095">
        <ele>44</ele>
        <time>2011-03-23T11:50:45Z</time>
      </trkpt>
      <trkpt lat="37.1665235981" lon="-7.54065789875">
        <ele>44.2</ele>
        <time>2011-03-23T11:50:48Z</time>
      </trkpt>
      <trkpt lat="37.1664099395" lon="-7.54072210411">
        <ele>44.6</ele>
        <time>2011-03-23T11:50:54Z</time>
      </trkpt>
      <trkpt lat="37.1663554571" lon="-7.54075973884">
        <ele>44.6</ele>
        <time>2011-03-23T11:50:57Z</time>
      </trkpt>
      <trkpt lat="37.1662971191" lon="-7.54079687066">
        <ele>44.8</ele>
        <time>2011-03-23T11:51:00Z</time>
      </trkpt>
      <trkpt lat="37.1662438102" lon="-7.5408350083">
        <ele>44.8</ele>
        <time>2011-03-23T11:51:03Z</time>
      </trkpt>
      <trkpt lat="37.166190669" lon="-7.54087960001">
        <ele>45</ele>
        <time>2011-03-23T11:51:06Z</time>
      </trkpt>
      <trkpt lat="37.1661366057" lon="-7.54092511373">
        <ele>45.6</ele>
        <time>2011-03-23T11:51:09Z</time>
      </trkpt>
      <trkpt lat="37.166079525" lon="-7.54097020835">
        <ele>46</ele>
        <time>2011-03-23T11:51:12Z</time>
      </trkpt>
      <trkpt lat="37.1660250426" lon="-7.54101253694">
        <ele>46.2</ele>
        <time>2011-03-23T11:51:15Z</time>
      </trkpt>
      <trkpt lat="37.1659822111" lon="-7.54104623218">
        <ele>46.4</ele>
        <time>2011-03-23T11:51:17Z</time>
      </trkpt>
      <trkpt lat="37.1659298243" lon="-7.54108948278">
        <ele>46.6</ele>
        <time>2011-03-23T11:51:20Z</time>
      </trkpt>
      <trkpt lat="37.1658676306" lon="-7.54113055409">
        <ele>46.6</ele>
        <time>2011-03-23T11:51:23Z</time>
      </trkpt>
      <trkpt lat="37.1658101307" lon="-7.54118109695">
        <ele>46.8</ele>
        <time>2011-03-23T11:51:27Z</time>
      </trkpt>
      <trkpt lat="37.1657668801" lon="-7.54120959541">
        <ele>46.8</ele>
        <time>2011-03-23T11:51:28Z</time>
      </trkpt>
      <trkpt lat="37.165724803" lon="-7.54124303919">
        <ele>46.8</ele>
        <time>2011-03-23T11:51:30Z</time>
      </trkpt>
      <trkpt lat="37.1656845699" lon="-7.54128126066">
        <ele>46.8</ele>
        <time>2011-03-23T11:51:32Z</time>
      </trkpt>
      <trkpt lat="37.1656459293" lon="-7.54131286042">
        <ele>46.8</ele>
        <time>2011-03-23T11:51:34Z</time>
      </trkpt>
      <trkpt lat="37.1656015891" lon="-7.54134605274">
        <ele>46.8</ele>
        <time>2011-03-23T11:51:36Z</time>
      </trkpt>
      <trkpt lat="37.1655588414" lon="-7.54138393893">
        <ele>46.8</ele>
        <time>2011-03-23T11:51:39Z</time>
      </trkpt>
      <trkpt lat="37.1655217934" lon="-7.54141486814">
        <ele>46.8</ele>
        <time>2011-03-23T11:51:40Z</time>
      </trkpt>
      <trkpt lat="37.165478878" lon="-7.54144806047">
        <ele>46.8</ele>
        <time>2011-03-23T11:51:42Z</time>
      </trkpt>
      <trkpt lat="37.1654254015" lon="-7.54149625639">
        <ele>47</ele>
        <time>2011-03-23T11:51:45Z</time>
      </trkpt>
      <trkpt lat="37.1653741043" lon="-7.54153824971">
        <ele>47</ele>
        <time>2011-03-23T11:51:48Z</time>
      </trkpt>
      <trkpt lat="37.1653053727" lon="-7.54159181005">
        <ele>46.8</ele>
        <time>2011-03-23T11:51:52Z</time>
      </trkpt>
      <trkpt lat="37.1652619545" lon="-7.54163447392">
        <ele>46.2</ele>
        <time>2011-03-23T11:51:54Z</time>
      </trkpt>
      <trkpt lat="37.1652171113" lon="-7.54168216693">
        <ele>45.8</ele>
        <time>2011-03-23T11:51:57Z</time>
      </trkpt>
      <trkpt lat="37.1651695021" lon="-7.54173488908">
        <ele>45.6</ele>
        <time>2011-03-23T11:52:00Z</time>
      </trkpt>
      <trkpt lat="37.1651321188" lon="-7.54177135035">
        <ele>45.4</ele>
        <time>2011-03-23T11:52:02Z</time>
      </trkpt>
      <trkpt lat="37.1650822465" lon="-7.54182382104">
        <ele>45.4</ele>
        <time>2011-03-23T11:52:05Z</time>
      </trkpt>
      <trkpt lat="37.1650314522" lon="-7.54187889013">
        <ele>45.2</ele>
        <time>2011-03-23T11:52:08Z</time>
      </trkpt>
      <trkpt lat="37.1649924764" lon="-7.54190931642">
        <ele>45.2</ele>
        <time>2011-03-23T11:52:10Z</time>
      </trkpt>
      <trkpt lat="37.1649378264" lon="-7.5419696661">
        <ele>45</ele>
        <time>2011-03-23T11:52:13Z</time>
      </trkpt>
      <trkpt lat="37.1649307856" lon="-7.54199741019">
        <ele>45</ele>
        <time>2011-03-23T11:52:14Z</time>
      </trkpt>
      <trkpt lat="37.164886613" lon="-7.54205608349">
        <ele>45</ele>
        <time>2011-03-23T11:52:17Z</time>
      </trkpt>
      <trkpt lat="37.1648655744" lon="-7.54207343403">
        <ele>45</ele>
        <time>2011-03-23T11:52:19Z</time>
      </trkpt>
      <trkpt lat="37.1648294484" lon="-7.54210813509">
        <ele>44.8</ele>
        <time>2011-03-23T11:52:20Z</time>
      </trkpt>
      <trkpt lat="37.1647734573" lon="-7.54216253362">
        <ele>44.2</ele>
        <time>2011-03-23T11:52:23Z</time>
      </trkpt>
      <trkpt lat="37.1647371637" lon="-7.54220461076">
        <ele>44</ele>
        <time>2011-03-23T11:52:25Z</time>
      </trkpt>
      <trkpt lat="37.1646997804" lon="-7.54223989856">
        <ele>43.8</ele>
        <time>2011-03-23T11:52:27Z</time>
      </trkpt>
      <trkpt lat="37.1646619781" lon="-7.5422735938">
        <ele>43.6</ele>
        <time>2011-03-23T11:52:29Z</time>
      </trkpt>
      <trkpt lat="37.1646268579" lon="-7.54231500038">
        <ele>43.4</ele>
        <time>2011-03-23T11:52:31Z</time>
      </trkpt>
      <trkpt lat="37.1645866248" lon="-7.5423552335">
        <ele>43.4</ele>
        <time>2011-03-23T11:52:33Z</time>
      </trkpt>
      <trkpt lat="37.1645460564" lon="-7.54239328733">
        <ele>43.2</ele>
        <time>2011-03-23T11:52:35Z</time>
      </trkpt>
      <trkpt lat="37.1645047336" lon="-7.54243410718">
        <ele>43.2</ele>
        <time>2011-03-23T11:52:37Z</time>
      </trkpt>
      <trkpt lat="37.1644667636" lon="-7.54246964644">
        <ele>43.2</ele>
        <time>2011-03-23T11:52:39Z</time>
      </trkpt>
      <trkpt lat="37.1644184839" lon="-7.54252454788">
        <ele>43</ele>
        <time>2011-03-23T11:52:42Z</time>
      </trkpt>
      <trkpt lat="37.1643346649" lon="-7.54260065554">
        <ele>43</ele>
        <time>2011-03-23T11:52:47Z</time>
      </trkpt>
      <trkpt lat="37.1642462358" lon="-7.54267517063">
        <ele>43</ele>
        <time>2011-03-23T11:52:51Z</time>
      </trkpt>
      <trkpt lat="37.1642089364" lon="-7.54271263772">
        <ele>43</ele>
        <time>2011-03-23T11:52:53Z</time>
      </trkpt>
      <trkpt lat="37.1641811923" lon="-7.54273602322">
        <ele>43</ele>
        <time>2011-03-23T11:52:55Z</time>
      </trkpt>
      <trkpt lat="37.1641130474" lon="-7.54279796546">
        <ele>43</ele>
        <time>2011-03-23T11:52:59Z</time>
      </trkpt>
      <trkpt lat="37.1640805257" lon="-7.5428334209">
        <ele>43</ele>
        <time>2011-03-23T11:53:00Z</time>
      </trkpt>
      <trkpt lat="37.164045657" lon="-7.54286820578">
        <ele>43</ele>
        <time>2011-03-23T11:53:02Z</time>
      </trkpt>
      <trkpt lat="37.1640076031" lon="-7.54289905118">
        <ele>43</ele>
        <time>2011-03-23T11:53:04Z</time>
      </trkpt>
      <trkpt lat="37.1639520311" lon="-7.54294691182">
        <ele>42.8</ele>
        <time>2011-03-23T11:53:07Z</time>
      </trkpt>
      <trkpt lat="37.1639170786" lon="-7.54297918214">
        <ele>42.8</ele>
        <time>2011-03-23T11:53:09Z</time>
      </trkpt>
      <trkpt lat="37.163863183" lon="-7.54302955736">
        <ele>42.8</ele>
        <time>2011-03-23T11:53:12Z</time>
      </trkpt>
      <trkpt lat="37.1638237881" lon="-7.54306048657">
        <ele>42.8</ele>
        <time>2011-03-23T11:53:14Z</time>
      </trkpt>
      <trkpt lat="37.163787243" lon="-7.54309082905">
        <ele>42.8</ele>
        <time>2011-03-23T11:53:16Z</time>
      </trkpt>
      <trkpt lat="37.1637480157" lon="-7.54312527866">
        <ele>42.8</ele>
        <time>2011-03-23T11:53:19Z</time>
      </trkpt>
      <trkpt lat="37.1636969699" lon="-7.5431748995">
        <ele>42.8</ele>
        <time>2011-03-23T11:53:21Z</time>
      </trkpt>
      <trkpt lat="37.1636589999" lon="-7.54321010348">
        <ele>42.8</ele>
        <time>2011-03-23T11:53:23Z</time>
      </trkpt>
      <trkpt lat="37.1636218681" lon="-7.54324078124">
        <ele>42.8</ele>
        <time>2011-03-23T11:53:25Z</time>
      </trkpt>
      <trkpt lat="37.1636021706" lon="-7.54325964051">
        <ele>42.8</ele>
        <time>2011-03-23T11:53:26Z</time>
      </trkpt>
      <trkpt lat="37.1635407313" lon="-7.54332409732">
        <ele>42.8</ele>
        <time>2011-03-23T11:53:30Z</time>
      </trkpt>
      <trkpt lat="37.1635062817" lon="-7.54334739901">
        <ele>42.8</ele>
        <time>2011-03-23T11:53:32Z</time>
      </trkpt>
      <trkpt lat="37.1634322695" lon="-7.54340179754">
        <ele>42.6</ele>
        <time>2011-03-23T11:53:36Z</time>
      </trkpt>
      <trkpt lat="37.1633943833" lon="-7.54343524132">
        <ele>42.2</ele>
        <time>2011-03-23T11:53:39Z</time>
      </trkpt>
      <trkpt lat="37.1633550722" lon="-7.54346290159">
        <ele>42</ele>
        <time>2011-03-23T11:53:40Z</time>
      </trkpt>
      <trkpt lat="37.1633155096" lon="-7.54349215442">
        <ele>41.8</ele>
        <time>2011-03-23T11:53:42Z</time>
      </trkpt>
      <trkpt lat="37.1632619493" lon="-7.54352895096">
        <ele>41.6</ele>
        <time>2011-03-23T11:53:45Z</time>
      </trkpt>
      <trkpt lat="37.1632212971" lon="-7.54355610832">
        <ele>41.4</ele>
        <time>2011-03-23T11:53:47Z</time>
      </trkpt>
      <trkpt lat="37.1631612827" lon="-7.54358754044">
        <ele>41.2</ele>
        <time>2011-03-23T11:53:50Z</time>
      </trkpt>
      <trkpt lat="37.1630896174" lon="-7.54361746382">
        <ele>41.2</ele>
        <time>2011-03-23T11:53:53Z</time>
      </trkpt>
      <trkpt lat="37.1630451934" lon="-7.54363179687">
        <ele>41</ele>
        <time>2011-03-23T11:53:55Z</time>
      </trkpt>
      <trkpt lat="37.1629807366" lon="-7.54364462118">
        <ele>41</ele>
        <time>2011-03-23T11:53:59Z</time>
      </trkpt>
      <trkpt lat="37.1629219794" lon="-7.54366021151">
        <ele>41</ele>
        <time>2011-03-23T11:54:01Z</time>
      </trkpt>
      <trkpt lat="37.1629012762" lon="-7.54366054679">
        <ele>41</ele>
        <time>2011-03-23T11:54:02Z</time>
      </trkpt>
      <trkpt lat="37.1628211452" lon="-7.54369524786">
        <ele>40.4</ele>
        <time>2011-03-23T11:54:06Z</time>
      </trkpt>
      <trkpt lat="37.1627593706" lon="-7.54372181848">
        <ele>40</ele>
        <time>2011-03-23T11:54:09Z</time>
      </trkpt>
      <trkpt lat="37.1626990209" lon="-7.54374419815">
        <ele>39.6</ele>
        <time>2011-03-23T11:54:12Z</time>
      </trkpt>
      <trkpt lat="37.1626394256" lon="-7.54376724838">
        <ele>39.4</ele>
        <time>2011-03-23T11:54:15Z</time>
      </trkpt>
      <trkpt lat="37.1625754717" lon="-7.54379365136">
        <ele>39.4</ele>
        <time>2011-03-23T11:54:19Z</time>
      </trkpt>
      <trkpt lat="37.1625127751" lon="-7.54382055726">
        <ele>39.2</ele>
        <time>2011-03-23T11:54:21Z</time>
      </trkpt>
      <trkpt lat="37.1624523416" lon="-7.54384830135">
        <ele>38.8</ele>
        <time>2011-03-23T11:54:24Z</time>
      </trkpt>
      <trkpt lat="37.1623932492" lon="-7.54387428524">
        <ele>38.2</ele>
        <time>2011-03-23T11:54:27Z</time>
      </trkpt>
      <trkpt lat="37.1623321451" lon="-7.54390043677">
        <ele>37.8</ele>
        <time>2011-03-23T11:54:30Z</time>
      </trkpt>
      <trkpt lat="37.1622737233" lon="-7.54393111452">
        <ele>37.6</ele>
        <time>2011-03-23T11:54:33Z</time>
      </trkpt>
      <trkpt lat="37.1622161396" lon="-7.54395726605">
        <ele>36.8</ele>
        <time>2011-03-23T11:54:37Z</time>
      </trkpt>
      <trkpt lat="37.1621562929" lon="-7.54398216029">
        <ele>36.2</ele>
        <time>2011-03-23T11:54:39Z</time>
      </trkpt>
      <trkpt lat="37.1620920875" lon="-7.5440051267">
        <ele>35.8</ele>
        <time>2011-03-23T11:54:43Z</time>
      </trkpt>
      <trkpt lat="37.1620338333" lon="-7.54403521772">
        <ele>35.4</ele>
        <time>2011-03-23T11:54:45Z</time>
      </trkpt>
      <trkpt lat="37.1619706338" lon="-7.5440669013">
        <ele>34.8</ele>
        <time>2011-03-23T11:54:48Z</time>
      </trkpt>
      <trkpt lat="37.1619066799" lon="-7.54410193764">
        <ele>34.2</ele>
        <time>2011-03-23T11:54:52Z</time>
      </trkpt>
      <trkpt lat="37.1618268842" lon="-7.54414300895">
        <ele>33.8</ele>
        <time>2011-03-23T11:54:55Z</time>
      </trkpt>
      <trkpt lat="37.1617855614" lon="-7.54416882521">
        <ele>33.6</ele>
        <time>2011-03-23T11:54:57Z</time>
      </trkpt>
      <trkpt lat="37.1617434005" lon="-7.54419690457">
        <ele>33.4</ele>
        <time>2011-03-23T11:55:00Z</time>
      </trkpt>
      <trkpt lat="37.1616824641" lon="-7.54423688623">
        <ele>32.8</ele>
        <time>2011-03-23T11:55:03Z</time>
      </trkpt>
      <trkpt lat="37.1616251319" lon="-7.54427955011">
        <ele>32.2</ele>
        <time>2011-03-23T11:55:05Z</time>
      </trkpt>
      <trkpt lat="37.1615826356" lon="-7.54431332916">
        <ele>31.8</ele>
        <time>2011-03-23T11:55:08Z</time>
      </trkpt>
      <trkpt lat="37.161522286" lon="-7.54435523866">
        <ele>31.4</ele>
        <time>2011-03-23T11:55:10Z</time>
      </trkpt>
      <trkpt lat="37.1614586673" lon="-7.54439538796">
        <ele>31.2</ele>
        <time>2011-03-23T11:55:14Z</time>
      </trkpt>
      <trkpt lat="37.1613997426" lon="-7.54444039877">
        <ele>31</ele>
        <time>2011-03-23T11:55:16Z</time>
      </trkpt>
      <trkpt lat="37.1613565758" lon="-7.54447107652">
        <ele>30.8</ele>
        <time>2011-03-23T11:55:19Z</time>
      </trkpt>
      <trkpt lat="37.1613167618" lon="-7.54449580313">
        <ele>30.2</ele>
        <time>2011-03-23T11:55:20Z</time>
      </trkpt>
      <trkpt lat="37.1612714995" lon="-7.54452555887">
        <ele>30</ele>
        <time>2011-03-23T11:55:22Z</time>
      </trkpt>
      <trkpt lat="37.1612310149" lon="-7.54455741009">
        <ele>29.6</ele>
        <time>2011-03-23T11:55:25Z</time>
      </trkpt>
      <trkpt lat="37.16117494" lon="-7.5445971403">
        <ele>29.4</ele>
        <time>2011-03-23T11:55:27Z</time>
      </trkpt>
      <trkpt lat="37.1611333658" lon="-7.54462647695">
        <ele>29.2</ele>
        <time>2011-03-23T11:55:30Z</time>
      </trkpt>
      <trkpt lat="37.1610931327" lon="-7.54465204174">
        <ele>29</ele>
        <time>2011-03-23T11:55:31Z</time>
      </trkpt>
      <trkpt lat="37.1610371416" lon="-7.54469470561">
        <ele>28.8</ele>
        <time>2011-03-23T11:55:34Z</time>
      </trkpt>
      <trkpt lat="37.1609947292" lon="-7.54472630538">
        <ele>28.8</ele>
        <time>2011-03-23T11:55:37Z</time>
      </trkpt>
      <trkpt lat="37.1609539093" lon="-7.54475572584">
        <ele>28.6</ele>
        <time>2011-03-23T11:55:39Z</time>
      </trkpt>
      <trkpt lat="37.1609147659" lon="-7.54477927898">
        <ele>28.2</ele>
        <time>2011-03-23T11:55:40Z</time>
      </trkpt>
      <trkpt lat="37.1608743651" lon="-7.54481364477">
        <ele>27.8</ele>
        <time>2011-03-23T11:55:43Z</time>
      </trkpt>
      <trkpt lat="37.1608314498" lon="-7.54484189178">
        <ele>27.6</ele>
        <time>2011-03-23T11:55:45Z</time>
      </trkpt>
      <trkpt lat="37.1607769674" lon="-7.54488430419">
        <ele>27.2</ele>
        <time>2011-03-23T11:55:47Z</time>
      </trkpt>
      <trkpt lat="37.1607209763" lon="-7.54492696806">
        <ele>27</ele>
        <time>2011-03-23T11:55:50Z</time>
      </trkpt>
      <trkpt lat="37.1606806594" lon="-7.54495722672">
        <ele>26.8</ele>
        <time>2011-03-23T11:55:52Z</time>
      </trkpt>
      <trkpt lat="37.1606409292" lon="-7.54498748538">
        <ele>26.8</ele>
        <time>2011-03-23T11:55:54Z</time>
      </trkpt>
      <trkpt lat="37.1605800766" lon="-7.54502503629">
        <ele>26.6</ele>
        <time>2011-03-23T11:55:57Z</time>
      </trkpt>
      <trkpt lat="37.1605351496" lon="-7.54504674541">
        <ele>26.2</ele>
        <time>2011-03-23T11:56:00Z</time>
      </trkpt>
      <trkpt lat="37.1604959223" lon="-7.54507214257">
        <ele>25.8</ele>
        <time>2011-03-23T11:56:02Z</time>
      </trkpt>
      <trkpt lat="37.1604437031" lon="-7.54511044785">
        <ele>25.4</ele>
        <time>2011-03-23T11:56:04Z</time>
      </trkpt>
      <trkpt lat="37.1603845269" lon="-7.5451464062">
        <ele>25.2</ele>
        <time>2011-03-23T11:56:08Z</time>
      </trkpt>
      <trkpt lat="37.1603316371" lon="-7.54518068817">
        <ele>24.8</ele>
        <time>2011-03-23T11:56:10Z</time>
      </trkpt>
      <trkpt lat="37.1602717065" lon="-7.5452253637">
        <ele>24</ele>
        <time>2011-03-23T11:56:14Z</time>
      </trkpt>
      <trkpt lat="37.1602331497" lon="-7.54524757574">
        <ele>23.8</ele>
        <time>2011-03-23T11:56:15Z</time>
      </trkpt>
      <trkpt lat="37.16016819" lon="-7.5452862163">
        <ele>23.4</ele>
        <time>2011-03-23T11:56:19Z</time>
      </trkpt>
      <trkpt lat="37.1601166413" lon="-7.54532586268">
        <ele>22.8</ele>
        <time>2011-03-23T11:56:21Z</time>
      </trkpt>
      <trkpt lat="37.1600695351" lon="-7.54535410969">
        <ele>22.4</ele>
        <time>2011-03-23T11:56:24Z</time>
      </trkpt>
      <trkpt lat="37.1600091854" lon="-7.54538763729">
        <ele>21.8</ele>
        <time>2011-03-23T11:56:27Z</time>
      </trkpt>
      <trkpt lat="37.1599502606" lon="-7.54541387263">
        <ele>21.4</ele>
        <time>2011-03-23T11:56:30Z</time>
      </trkpt>
      <trkpt lat="37.1598921741" lon="-7.54543767723">
        <ele>20.8</ele>
        <time>2011-03-23T11:56:33Z</time>
      </trkpt>
      <trkpt lat="37.1598381946" lon="-7.54546097891">
        <ele>20.2</ele>
        <time>2011-03-23T11:56:35Z</time>
      </trkpt>
      <trkpt lat="37.1597872327" lon="-7.54548444823">
        <ele>19.6</ele>
        <time>2011-03-23T11:56:39Z</time>
      </trkpt>
      <trkpt lat="37.159734762" lon="-7.54549626671">
        <ele>19.2</ele>
        <time>2011-03-23T11:56:42Z</time>
      </trkpt>
      <trkpt lat="37.1596786871" lon="-7.54550054148">
        <ele>19</ele>
        <time>2011-03-23T11:56:45Z</time>
      </trkpt>
      <trkpt lat="37.159637951" lon="-7.54551705382">
        <ele>18.6</ele>
        <time>2011-03-23T11:56:48Z</time>
      </trkpt>
      <trkpt lat="37.1596045072" lon="-7.54553616455">
        <ele>17.8</ele>
        <time>2011-03-23T11:56:50Z</time>
      </trkpt>
      <trkpt lat="37.1595698062" lon="-7.54555628111">
        <ele>17.4</ele>
        <time>2011-03-23T11:56:54Z</time>
      </trkpt>
      <trkpt lat="37.15953653" lon="-7.54558075626">
        <ele>17</ele>
        <time>2011-03-23T11:56:57Z</time>
      </trkpt>
      <trkpt lat="37.1595006555" lon="-7.54560791362">
        <ele>16.8</ele>
        <time>2011-03-23T11:57:00Z</time>
      </trkpt>
      <trkpt lat="37.1594619311" lon="-7.5456343166">
        <ele>16.6</ele>
        <time>2011-03-23T11:57:03Z</time>
      </trkpt>
      <trkpt lat="37.1594334327" lon="-7.54565577427">
        <ele>16.4</ele>
        <time>2011-03-23T11:57:05Z</time>
      </trkpt>
      <trkpt lat="37.1594192673" lon="-7.54567756721">
        <ele>16.4</ele>
        <time>2011-03-23T11:57:08Z</time>
      </trkpt>
      <trkpt lat="37.1593872484" lon="-7.54571662686">
        <ele>16.4</ele>
        <time>2011-03-23T11:57:12Z</time>
      </trkpt>
      <trkpt lat="37.1593665451" lon="-7.54574914863">
        <ele>16.2</ele>
        <time>2011-03-23T11:57:15Z</time>
      </trkpt>
      <trkpt lat="37.1593408127" lon="-7.54578183804">
        <ele>16.2</ele>
        <time>2011-03-23T11:57:18Z</time>
      </trkpt>
      <trkpt lat="37.1593185168" lon="-7.5458173773">
        <ele>16.2</ele>
        <time>2011-03-23T11:57:20Z</time>
      </trkpt>
      <trkpt lat="37.1592982326" lon="-7.54585593404">
        <ele>16.2</ele>
        <time>2011-03-23T11:57:24Z</time>
      </trkpt>
      <trkpt lat="37.1592750148" lon="-7.54588862345">
        <ele>16.2</ele>
        <time>2011-03-23T11:57:27Z</time>
      </trkpt>
      <trkpt lat="37.1592557364" lon="-7.54592156432">
        <ele>16.2</ele>
        <time>2011-03-23T11:57:30Z</time>
      </trkpt>
      <trkpt lat="37.1592361227" lon="-7.54595752267">
        <ele>16.2</ele>
        <time>2011-03-23T11:57:33Z</time>
      </trkpt>
      <trkpt lat="37.1592123181" lon="-7.54598912243">
        <ele>16.2</ele>
        <time>2011-03-23T11:57:35Z</time>
      </trkpt>
      <trkpt lat="37.1591900223" lon="-7.54602843354">
        <ele>16.2</ele>
        <time>2011-03-23T11:57:39Z</time>
      </trkpt>
      <trkpt lat="37.1591664691" lon="-7.54606196114">
        <ele>16.2</ele>
        <time>2011-03-23T11:57:42Z</time>
      </trkpt>
      <trkpt lat="37.159145682" lon="-7.5460935609">
        <ele>16.4</ele>
        <time>2011-03-23T11:57:45Z</time>
      </trkpt>
      <trkpt lat="37.15912347" lon="-7.54613169855">
        <ele>16.8</ele>
        <time>2011-03-23T11:57:47Z</time>
      </trkpt>
      <trkpt lat="37.1591020962" lon="-7.54616857891">
        <ele>17.2</ele>
        <time>2011-03-23T11:57:50Z</time>
      </trkpt>
      <trkpt lat="37.1590754417" lon="-7.54620277706">
        <ele>17.4</ele>
        <time>2011-03-23T11:57:54Z</time>
      </trkpt>
      <trkpt lat="37.1590503798" lon="-7.54624938042">
        <ele>17.6</ele>
        <time>2011-03-23T11:57:58Z</time>
      </trkpt>
      <trkpt lat="37.1590258209" lon="-7.54628315948">
        <ele>18</ele>
        <time>2011-03-23T11:58:00Z</time>
      </trkpt>
      <trkpt lat="37.1590057881" lon="-7.54631651944">
        <ele>18.6</ele>
        <time>2011-03-23T11:58:04Z</time>
      </trkpt>
      <trkpt lat="37.1589784631" lon="-7.54634443117">
        <ele>19</ele>
        <time>2011-03-23T11:58:07Z</time>
      </trkpt>
      <trkpt lat="37.1589509705" lon="-7.5463767853">
        <ele>19.6</ele>
        <time>2011-03-23T11:58:10Z</time>
      </trkpt>
      <trkpt lat="37.1589421695" lon="-7.54640846889">
        <ele>20</ele>
        <time>2011-03-23T11:58:17Z</time>
      </trkpt>
      <trkpt lat="37.1589124976" lon="-7.54643151911">
        <ele>21.4</ele>
        <time>2011-03-23T11:58:25Z</time>
      </trkpt>
      <trkpt lat="37.1589104859" lon="-7.54646689073">
        <ele>21.8</ele>
        <time>2011-03-23T11:58:29Z</time>
      </trkpt>
      <trkpt lat="37.1588917105" lon="-7.546513075">
        <ele>22</ele>
        <time>2011-03-23T11:58:33Z</time>
      </trkpt>
      <trkpt lat="37.1588724321" lon="-7.54656219293">
        <ele>22.2</ele>
        <time>2011-03-23T11:58:37Z</time>
      </trkpt>
      <trkpt lat="37.1588495495" lon="-7.546606617">
        <ele>22.2</ele>
        <time>2011-03-23T11:58:40Z</time>
      </trkpt>
      <trkpt lat="37.1588351326" lon="-7.54664475465">
        <ele>22.2</ele>
        <time>2011-03-23T11:58:44Z</time>
      </trkpt>
      <trkpt lat="37.1588241524" lon="-7.54668523922">
        <ele>22.6</ele>
        <time>2011-03-23T11:58:46Z</time>
      </trkpt>
      <trkpt lat="37.1588138426" lon="-7.54672555616">
        <ele>23.2</ele>
        <time>2011-03-23T11:58:50Z</time>
      </trkpt>
      <trkpt lat="37.1588000125" lon="-7.54677199189">
        <ele>23.6</ele>
        <time>2011-03-23T11:58:53Z</time>
      </trkpt>
      <trkpt lat="37.1587849251" lon="-7.546821026">
        <ele>23.8</ele>
        <time>2011-03-23T11:58:57Z</time>
      </trkpt>
      <trkpt lat="37.1587780519" lon="-7.54686620445">
        <ele>24</ele>
        <time>2011-03-23T11:59:00Z</time>
      </trkpt>
      <trkpt lat="37.1587758726" lon="-7.5469052641">
        <ele>24.2</ele>
        <time>2011-03-23T11:59:03Z</time>
      </trkpt>
      <trkpt lat="37.1587840031" lon="-7.54694952053">
        <ele>24.2</ele>
        <time>2011-03-23T11:59:05Z</time>
      </trkpt>
      <trkpt lat="37.1587955701" lon="-7.54698858019">
        <ele>24.2</ele>
        <time>2011-03-23T11:59:09Z</time>
      </trkpt>
      <trkpt lat="37.1587916306" lon="-7.5470045058">
        <ele>24.2</ele>
        <time>2011-03-23T11:59:10Z</time>
      </trkpt>
      <trkpt lat="37.1587967435" lon="-7.54704708585">
        <ele>24.4</ele>
        <time>2011-03-23T11:59:13Z</time>
      </trkpt>
      <trkpt lat="37.1587991743" lon="-7.54709234811">
        <ele>24.4</ele>
        <time>2011-03-23T11:59:15Z</time>
      </trkpt>
      <trkpt lat="37.1588001801" lon="-7.54710961482">
        <ele>24.4</ele>
        <time>2011-03-23T11:59:17Z</time>
      </trkpt>
      <trkpt lat="37.158803952" lon="-7.54715345216">
        <ele>24.4</ele>
        <time>2011-03-23T11:59:20Z</time>
      </trkpt>
      <trkpt lat="37.1588121662" lon="-7.54719586457">
        <ele>24.4</ele>
        <time>2011-03-23T11:59:23Z</time>
      </trkpt>
      <trkpt lat="37.1588169439" lon="-7.54723634915">
        <ele>24.4</ele>
        <time>2011-03-23T11:59:25Z</time>
      </trkpt>
      <trkpt lat="37.1588221407" lon="-7.54727825865">
        <ele>24.4</ele>
        <time>2011-03-23T11:59:29Z</time>
      </trkpt>
      <trkpt lat="37.1588337077" lon="-7.54733156753">
        <ele>24.4</ele>
        <time>2011-03-23T11:59:33Z</time>
      </trkpt>
      <trkpt lat="37.1588392398" lon="-7.54737607542">
        <ele>24.4</ele>
        <time>2011-03-23T11:59:35Z</time>
      </trkpt>
      <trkpt lat="37.1588432631" lon="-7.54740658554">
        <ele>24.4</ele>
        <time>2011-03-23T11:59:38Z</time>
      </trkpt>
      <trkpt lat="37.1588563388" lon="-7.54746903069">
        <ele>24.4</ele>
        <time>2011-03-23T11:59:42Z</time>
      </trkpt>
      <trkpt lat="37.1588632958" lon="-7.54751555024">
        <ele>24.4</ele>
        <time>2011-03-23T11:59:45Z</time>
      </trkpt>
      <trkpt lat="37.1588677382" lon="-7.54757397208">
        <ele>24.4</ele>
        <time>2011-03-23T11:59:49Z</time>
      </trkpt>
      <trkpt lat="37.1588757849" lon="-7.54763004699">
        <ele>24.4</ele>
        <time>2011-03-23T11:59:52Z</time>
      </trkpt>
      <trkpt lat="37.1588865137" lon="-7.54768327206">
        <ele>24.4</ele>
        <time>2011-03-23T11:59:55Z</time>
      </trkpt>
      <trkpt lat="37.158893303" lon="-7.54773306054">
        <ele>24.4</ele>
        <time>2011-03-23T11:59:58Z</time>
      </trkpt>
      <trkpt lat="37.1588981645" lon="-7.54778125647">
        <ele>24.4</ele>
        <time>2011-03-23T12:00:00Z</time>
      </trkpt>
      <trkpt lat="37.1589057921" lon="-7.54783649319">
        <ele>24.4</ele>
        <time>2011-03-23T12:00:04Z</time>
      </trkpt>
      <trkpt lat="37.1589144254" lon="-7.54788703605">
        <ele>24.4</ele>
        <time>2011-03-23T12:00:07Z</time>
      </trkpt>
      <trkpt lat="37.158918784" lon="-7.54793104102">
        <ele>24.4</ele>
        <time>2011-03-23T12:00:10Z</time>
      </trkpt>
      <trkpt lat="37.1589295128" lon="-7.54796406571">
        <ele>24.4</ele>
        <time>2011-03-23T12:00:12Z</time>
      </trkpt>
      <trkpt lat="37.158947031" lon="-7.548021817">
        <ele>24.4</ele>
        <time>2011-03-23T12:00:15Z</time>
      </trkpt>
      <trkpt lat="37.1589519763" lon="-7.54807353332">
        <ele>24.4</ele>
        <time>2011-03-23T12:00:19Z</time>
      </trkpt>
      <trkpt lat="37.1589560835" lon="-7.5481272613">
        <ele>24.4</ele>
        <time>2011-03-23T12:00:22Z</time>
      </trkpt>
      <trkpt lat="37.1589563349" lon="-7.54814855133">
        <ele>24.4</ele>
        <time>2011-03-23T12:00:23Z</time>
      </trkpt>
      <trkpt lat="37.1589596039" lon="-7.54820051911">
        <ele>24.4</ele>
        <time>2011-03-23T12:00:26Z</time>
      </trkpt>
      <trkpt lat="37.1589672314" lon="-7.54824628428">
        <ele>24.4</ele>
        <time>2011-03-23T12:00:29Z</time>
      </trkpt>
      <trkpt lat="37.1589678181" lon="-7.5482662332">
        <ele>24.4</ele>
        <time>2011-03-23T12:00:30Z</time>
      </trkpt>
      <trkpt lat="37.1589681534" lon="-7.54832188902">
        <ele>24.4</ele>
        <time>2011-03-23T12:00:33Z</time>
      </trkpt>
      <trkpt lat="37.1589708356" lon="-7.54835063894">
        <ele>24.4</ele>
        <time>2011-03-23T12:00:35Z</time>
      </trkpt>
      <trkpt lat="37.1589623699" lon="-7.54841526338">
        <ele>24.4</ele>
        <time>2011-03-23T12:00:39Z</time>
      </trkpt>
      <trkpt lat="37.1589559996" lon="-7.54847938492">
        <ele>24.4</ele>
        <time>2011-03-23T12:00:42Z</time>
      </trkpt>
      <trkpt lat="37.1589553291" lon="-7.54854543429">
        <ele>24.6</ele>
        <time>2011-03-23T12:00:45Z</time>
      </trkpt>
      <trkpt lat="37.1589519763" lon="-7.54861198658">
        <ele>25.2</ele>
        <time>2011-03-23T12:00:48Z</time>
      </trkpt>
      <trkpt lat="37.1589467795" lon="-7.54868155635">
        <ele>25.4</ele>
        <time>2011-03-23T12:00:51Z</time>
      </trkpt>
      <trkpt lat="37.1589399902" lon="-7.54872396876">
        <ele>25.6</ele>
        <time>2011-03-23T12:00:52Z</time>
      </trkpt>
      <trkpt lat="37.158929429" lon="-7.54880720103">
        <ele>25.8</ele>
        <time>2011-03-23T12:00:56Z</time>
      </trkpt>
      <trkpt lat="37.158919706" lon="-7.54888498506">
        <ele>26</ele>
        <time>2011-03-23T12:00:59Z</time>
      </trkpt>
      <trkpt lat="37.158907217" lon="-7.54895924869">
        <ele>26.2</ele>
        <time>2011-03-23T12:01:02Z</time>
      </trkpt>
      <trkpt lat="37.1588887768" lon="-7.54903795474">
        <ele>26.2</ele>
        <time>2011-03-23T12:01:05Z</time>
      </trkpt>
      <trkpt lat="37.1588681573" lon="-7.54911884007">
        <ele>26.2</ele>
        <time>2011-03-23T12:01:08Z</time>
      </trkpt>
      <trkpt lat="37.1588484599" lon="-7.54919545064">
        <ele>26.4</ele>
        <time>2011-03-23T12:01:10Z</time>
      </trkpt>
      <trkpt lat="37.1588295168" lon="-7.54927943727">
        <ele>26.4</ele>
        <time>2011-03-23T12:01:14Z</time>
      </trkpt>
      <trkpt lat="37.1588140941" lon="-7.54935696985">
        <ele>26.4</ele>
        <time>2011-03-23T12:01:17Z</time>
      </trkpt>
      <trkpt lat="37.1588011021" lon="-7.54941664898">
        <ele>26.4</ele>
        <time>2011-03-23T12:01:19Z</time>
      </trkpt>
      <trkpt lat="37.1587850927" lon="-7.54949535502">
        <ele>26.4</ele>
        <time>2011-03-23T12:01:22Z</time>
      </trkpt>
      <trkpt lat="37.1587690833" lon="-7.5495945129">
        <ele>26.4</ele>
        <time>2011-03-23T12:01:25Z</time>
      </trkpt>
      <trkpt lat="37.1587521518" lon="-7.54967984064">
        <ele>26.4</ele>
        <time>2011-03-23T12:01:29Z</time>
      </trkpt>
      <trkpt lat="37.1587384893" lon="-7.54976080979">
        <ele>26.4</ele>
        <time>2011-03-23T12:01:32Z</time>
      </trkpt>
      <trkpt lat="37.1587249107" lon="-7.54983649835">
        <ele>26.4</ele>
        <time>2011-03-23T12:01:35Z</time>
      </trkpt>
      <trkpt lat="37.1587144333" lon="-7.54989517165">
        <ele>26.4</ele>
        <time>2011-03-23T12:01:37Z</time>
      </trkpt>
      <trkpt lat="37.1587023633" lon="-7.54995359349">
        <ele>26.4</ele>
        <time>2011-03-23T12:01:39Z</time>
      </trkpt>
      <trkpt lat="37.158694652" lon="-7.55000874639">
        <ele>26.4</ele>
        <time>2011-03-23T12:01:40Z</time>
      </trkpt>
      <trkpt lat="37.1586859348" lon="-7.55006775497">
        <ele>26.4</ele>
        <time>2011-03-23T12:01:43Z</time>
      </trkpt>
      <trkpt lat="37.1586716856" lon="-7.55014235388">
        <ele>26.4</ele>
        <time>2011-03-23T12:01:45Z</time>
      </trkpt>
      <trkpt lat="37.1586592804" lon="-7.55022717871">
        <ele>26.8</ele>
        <time>2011-03-23T12:01:49Z</time>
      </trkpt>
      <trkpt lat="37.1586454502" lon="-7.55031175208">
        <ele>27.2</ele>
        <time>2011-03-23T12:01:52Z</time>
      </trkpt>
      <trkpt lat="37.1586342185" lon="-7.5503956549">
        <ele>27.6</ele>
        <time>2011-03-23T12:01:55Z</time>
      </trkpt>
      <trkpt lat="37.1586309496" lon="-7.5504772946">
        <ele>27.8</ele>
        <time>2011-03-23T12:01:58Z</time>
      </trkpt>
      <trkpt lat="37.1586236573" lon="-7.55056027541">
        <ele>28</ele>
        <time>2011-03-23T12:02:00Z</time>
      </trkpt>
      <trkpt lat="37.1586136828" lon="-7.55064577079">
        <ele>28.2</ele>
        <time>2011-03-23T12:02:04Z</time>
      </trkpt>
      <trkpt lat="37.1586024511" lon="-7.55072472829">
        <ele>28.2</ele>
        <time>2011-03-23T12:02:07Z</time>
      </trkpt>
      <trkpt lat="37.1586000203" lon="-7.55080058449">
        <ele>28.2</ele>
        <time>2011-03-23T12:02:10Z</time>
      </trkpt>
      <trkpt lat="37.1585939016" lon="-7.55087250119">
        <ele>28.4</ele>
        <time>2011-03-23T12:02:13Z</time>
      </trkpt>
      <trkpt lat="37.1585875313" lon="-7.5509488603">
        <ele>28.4</ele>
        <time>2011-03-23T12:02:15Z</time>
      </trkpt>
      <trkpt lat="37.1585799876" lon="-7.55102404594">
        <ele>28.4</ele>
        <time>2011-03-23T12:02:19Z</time>
      </trkpt>
      <trkpt lat="37.1585732821" lon="-7.55109395099">
        <ele>28.4</ele>
        <time>2011-03-23T12:02:22Z</time>
      </trkpt>
      <trkpt lat="37.1585634753" lon="-7.55117081301">
        <ele>28.4</ele>
        <time>2011-03-23T12:02:25Z</time>
      </trkpt>
      <trkpt lat="37.1585566021" lon="-7.55125790095">
        <ele>28.4</ele>
        <time>2011-03-23T12:02:28Z</time>
      </trkpt>
      <trkpt lat="37.1585529979" lon="-7.55133954066">
        <ele>28.4</ele>
        <time>2011-03-23T12:02:30Z</time>
      </trkpt>
      <trkpt lat="37.1585457056" lon="-7.55141254701">
        <ele>28.4</ele>
        <time>2011-03-23T12:02:34Z</time>
      </trkpt>
      <trkpt lat="37.1585366532" lon="-7.55148966049">
        <ele>28.4</ele>
        <time>2011-03-23T12:02:37Z</time>
      </trkpt>
      <trkpt lat="37.1585190512" lon="-7.55156534904">
        <ele>28.4</ele>
        <time>2011-03-23T12:02:40Z</time>
      </trkpt>
      <trkpt lat="37.1585071489" lon="-7.551635757">
        <ele>28.4</ele>
        <time>2011-03-23T12:02:43Z</time>
      </trkpt>
      <trkpt lat="37.1585014492" lon="-7.55171228375">
        <ele>28.4</ele>
        <time>2011-03-23T12:02:45Z</time>
      </trkpt>
      <trkpt lat="37.1584939893" lon="-7.55178738557">
        <ele>28.4</ele>
        <time>2011-03-23T12:02:49Z</time>
      </trkpt>
      <trkpt lat="37.1584858589" lon="-7.5518691091">
        <ele>28.4</ele>
        <time>2011-03-23T12:02:52Z</time>
      </trkpt>
      <trkpt lat="37.1584834281" lon="-7.55194882097">
        <ele>28.4</ele>
        <time>2011-03-23T12:02:55Z</time>
      </trkpt>
      <trkpt lat="37.1584809135" lon="-7.55202727555">
        <ele>28.4</ele>
        <time>2011-03-23T12:02:58Z</time>
      </trkpt>
      <trkpt lat="37.1584755491" lon="-7.55210564632">
        <ele>28.4</ele>
        <time>2011-03-23T12:03:00Z</time>
      </trkpt>
      <trkpt lat="37.158471442" lon="-7.55217856885">
        <ele>28.4</ele>
        <time>2011-03-23T12:03:04Z</time>
      </trkpt>
      <trkpt lat="37.1584655747" lon="-7.55225576615">
        <ele>28.4</ele>
        <time>2011-03-23T12:03:07Z</time>
      </trkpt>
      <trkpt lat="37.1584577795" lon="-7.55233472364">
        <ele>28.4</ele>
        <time>2011-03-23T12:03:10Z</time>
      </trkpt>
      <trkpt lat="37.1584533371" lon="-7.55241728536">
        <ele>28.4</ele>
        <time>2011-03-23T12:03:13Z</time>
      </trkpt>
      <trkpt lat="37.1584462963" lon="-7.5524959914">
        <ele>28.4</ele>
        <time>2011-03-23T12:03:15Z</time>
      </trkpt>
      <trkpt lat="37.1584487271" lon="-7.55258207351">
        <ele>28.4</ele>
        <time>2011-03-23T12:03:19Z</time>
      </trkpt>
      <trkpt lat="37.1584479727" lon="-7.55266002518">
        <ele>28.2</ele>
        <time>2011-03-23T12:03:22Z</time>
      </trkpt>
      <trkpt lat="37.1584509902" lon="-7.55273588138">
        <ele>27.8</ele>
        <time>2011-03-23T12:03:25Z</time>
      </trkpt>
      <trkpt lat="37.1584530018" lon="-7.55282095766">
        <ele>27.4</ele>
        <time>2011-03-23T12:03:28Z</time>
      </trkpt>
      <trkpt lat="37.1584544267" lon="-7.55290310028">
        <ele>27.2</ele>
        <time>2011-03-23T12:03:30Z</time>
      </trkpt>
      <trkpt lat="37.158460797" lon="-7.55297652573">
        <ele>27</ele>
        <time>2011-03-23T12:03:34Z</time>
      </trkpt>
      <trkpt lat="37.158466329" lon="-7.55305363921">
        <ele>26.8</ele>
        <time>2011-03-23T12:03:37Z</time>
      </trkpt>
      <trkpt lat="37.1584703524" lon="-7.55312362807">
        <ele>26.6</ele>
        <time>2011-03-23T12:03:40Z</time>
      </trkpt>
      <trkpt lat="37.1584763035" lon="-7.55320174738">
        <ele>26.6</ele>
        <time>2011-03-23T12:03:43Z</time>
      </trkpt>
      <trkpt lat="37.1584804945" lon="-7.55328238126">
        <ele>26.6</ele>
        <time>2011-03-23T12:03:45Z</time>
      </trkpt>
      <trkpt lat="37.1584831767" lon="-7.55332747588">
        <ele>26.6</ele>
        <time>2011-03-23T12:03:47Z</time>
      </trkpt>
      <trkpt lat="37.1584914747" lon="-7.55343183053">
        <ele>26.6</ele>
        <time>2011-03-23T12:03:50Z</time>
      </trkpt>
      <trkpt lat="37.158497845" lon="-7.55352755183">
        <ele>26.4</ele>
        <time>2011-03-23T12:03:54Z</time>
      </trkpt>
      <trkpt lat="37.1585102502" lon="-7.55361061646">
        <ele>26.6</ele>
        <time>2011-03-23T12:03:57Z</time>
      </trkpt>
      <trkpt lat="37.158519135" lon="-7.55369711767">
        <ele>27.2</ele>
        <time>2011-03-23T12:04:00Z</time>
      </trkpt>
      <trkpt lat="37.1585219849" lon="-7.55375905991">
        <ele>27.4</ele>
        <time>2011-03-23T12:04:02Z</time>
      </trkpt>
      <trkpt lat="37.1585270978" lon="-7.55382494164">
        <ele>27.6</ele>
        <time>2011-03-23T12:04:04Z</time>
      </trkpt>
      <trkpt lat="37.1585307859" lon="-7.55388663243">
        <ele>27.8</ele>
        <time>2011-03-23T12:04:05Z</time>
      </trkpt>
      <trkpt lat="37.1585363179" lon="-7.55397070289">
        <ele>28</ele>
        <time>2011-03-23T12:04:09Z</time>
      </trkpt>
      <trkpt lat="37.1585389163" lon="-7.55405242641">
        <ele>28.6</ele>
        <time>2011-03-23T12:04:12Z</time>
      </trkpt>
      <trkpt lat="37.1585400898" lon="-7.55413758651">
        <ele>29</ele>
        <time>2011-03-23T12:04:15Z</time>
      </trkpt>
      <trkpt lat="37.1585513215" lon="-7.55421486763">
        <ele>29.4</ele>
        <time>2011-03-23T12:04:18Z</time>
      </trkpt>
      <trkpt lat="37.1585633914" lon="-7.55430405105">
        <ele>29.8</ele>
        <time>2011-03-23T12:04:20Z</time>
      </trkpt>
      <trkpt lat="37.1585705999" lon="-7.55436708294">
        <ele>30</ele>
        <time>2011-03-23T12:04:23Z</time>
      </trkpt>
      <trkpt lat="37.1585845138" lon="-7.55444629189">
        <ele>30</ele>
        <time>2011-03-23T12:04:25Z</time>
      </trkpt>
      <trkpt lat="37.1585942368" lon="-7.55452072316">
        <ele>30.2</ele>
        <time>2011-03-23T12:04:29Z</time>
      </trkpt>
      <trkpt lat="37.158606642" lon="-7.55460085413">
        <ele>30.6</ele>
        <time>2011-03-23T12:04:32Z</time>
      </trkpt>
      <trkpt lat="37.1586203045" lon="-7.5546832482">
        <ele>31.2</ele>
        <time>2011-03-23T12:04:35Z</time>
      </trkpt>
      <trkpt lat="37.1586340509" lon="-7.55476740248">
        <ele>31.6</ele>
        <time>2011-03-23T12:04:38Z</time>
      </trkpt>
      <trkpt lat="37.1586511499" lon="-7.55484334249">
        <ele>31.8</ele>
        <time>2011-03-23T12:04:40Z</time>
      </trkpt>
      <trkpt lat="37.1586723561" lon="-7.55492121035">
        <ele>32</ele>
        <time>2011-03-23T12:04:44Z</time>
      </trkpt>
      <trkpt lat="37.1586846775" lon="-7.55497627943">
        <ele>32.2</ele>
        <time>2011-03-23T12:04:45Z</time>
      </trkpt>
      <trkpt lat="37.1587023633" lon="-7.55505833823">
        <ele>32.2</ele>
        <time>2011-03-23T12:04:49Z</time>
      </trkpt>
      <trkpt lat="37.1587208873" lon="-7.55513394297">
        <ele>32.4</ele>
        <time>2011-03-23T12:04:52Z</time>
      </trkpt>
      <trkpt lat="37.1587549179" lon="-7.55527802783">
        <ele>32.4</ele>
        <time>2011-03-23T12:04:58Z</time>
      </trkpt>
      <trkpt lat="37.1587719331" lon="-7.55535002835">
        <ele>32.4</ele>
        <time>2011-03-23T12:05:00Z</time>
      </trkpt>
      <trkpt lat="37.1587912115" lon="-7.55543259006">
        <ele>32.4</ele>
        <time>2011-03-23T12:05:04Z</time>
      </trkpt>
      <trkpt lat="37.1588028623" lon="-7.55549059281">
        <ele>32.6</ele>
        <time>2011-03-23T12:05:05Z</time>
      </trkpt>
      <trkpt lat="37.1588185365" lon="-7.55557281925">
        <ele>32.6</ele>
        <time>2011-03-23T12:05:09Z</time>
      </trkpt>
      <trkpt lat="37.1588347974" lon="-7.55565881755">
        <ele>32.6</ele>
        <time>2011-03-23T12:05:12Z</time>
      </trkpt>
      <trkpt lat="37.1588530699" lon="-7.55573408701">
        <ele>32.6</ele>
        <time>2011-03-23T12:05:15Z</time>
      </trkpt>
      <trkpt lat="37.1588755334" lon="-7.55580483024">
        <ele>33</ele>
        <time>2011-03-23T12:05:18Z</time>
      </trkpt>
      <trkpt lat="37.1588929678" lon="-7.5558787586">
        <ele>33.4</ele>
        <time>2011-03-23T12:05:20Z</time>
      </trkpt>
      <trkpt lat="37.1589129167" lon="-7.55595411188">
        <ele>33.8</ele>
        <time>2011-03-23T12:05:24Z</time>
      </trkpt>
      <trkpt lat="37.1589302672" lon="-7.55602921371">
        <ele>34</ele>
        <time>2011-03-23T12:05:27Z</time>
      </trkpt>
      <trkpt lat="37.1589480368" lon="-7.55610113041">
        <ele>34.2</ele>
        <time>2011-03-23T12:05:30Z</time>
      </trkpt>
      <trkpt lat="37.1589652197" lon="-7.55618059082">
        <ele>34.2</ele>
        <time>2011-03-23T12:05:33Z</time>
      </trkpt>
      <trkpt lat="37.1589758647" lon="-7.55625443536">
        <ele>34.4</ele>
        <time>2011-03-23T12:05:36Z</time>
      </trkpt>
      <trkpt lat="37.1589908683" lon="-7.55633615888">
        <ele>34.4</ele>
        <time>2011-03-23T12:05:39Z</time>
      </trkpt>
      <trkpt lat="37.1590015972" lon="-7.55640882996">
        <ele>34.4</ele>
        <time>2011-03-23T12:05:42Z</time>
      </trkpt>
      <trkpt lat="37.1590190315" lon="-7.55647789681">
        <ele>34.4</ele>
        <time>2011-03-23T12:05:45Z</time>
      </trkpt>
      <trkpt lat="37.1590329455" lon="-7.55655333391">
        <ele>34.6</ele>
        <time>2011-03-23T12:05:48Z</time>
      </trkpt>
      <trkpt lat="37.1590404892" lon="-7.55663095031">
        <ele>34.6</ele>
        <time>2011-03-23T12:05:51Z</time>
      </trkpt>
      <trkpt lat="37.1590492902" lon="-7.55670580067">
        <ele>34.6</ele>
        <time>2011-03-23T12:05:54Z</time>
      </trkpt>
      <trkpt lat="37.1590538164" lon="-7.55678425526">
        <ele>34.6</ele>
        <time>2011-03-23T12:05:57Z</time>
      </trkpt>
      <trkpt lat="37.1590580074" lon="-7.55690562517">
        <ele>34.6</ele>
        <time>2011-03-23T12:06:02Z</time>
      </trkpt>
      <trkpt lat="37.1590606896" lon="-7.55698290629">
        <ele>34.6</ele>
        <time>2011-03-23T12:06:05Z</time>
      </trkpt>
      <trkpt lat="37.1590613601" lon="-7.55706345635">
        <ele>34.6</ele>
        <time>2011-03-23T12:06:08Z</time>
      </trkpt>
      <trkpt lat="37.1590615278" lon="-7.55714392259">
        <ele>34.6</ele>
        <time>2011-03-23T12:06:10Z</time>
      </trkpt>
      <trkpt lat="37.1590565824" lon="-7.55722464028">
        <ele>34.6</ele>
        <time>2011-03-23T12:06:14Z</time>
      </trkpt>
      <trkpt lat="37.159048452" lon="-7.55730736964">
        <ele>34.6</ele>
        <time>2011-03-23T12:06:17Z</time>
      </trkpt>
      <trkpt lat="37.1590388128" lon="-7.5573892608">
        <ele>35</ele>
        <time>2011-03-23T12:06:20Z</time>
      </trkpt>
      <trkpt lat="37.1590276649" lon="-7.55747224161">
        <ele>35.4</ele>
        <time>2011-03-23T12:06:23Z</time>
      </trkpt>
      <trkpt lat="37.159018361" lon="-7.55755958101">
        <ele>35.8</ele>
        <time>2011-03-23T12:06:26Z</time>
      </trkpt>
      <trkpt lat="37.1590144215" lon="-7.5576438191">
        <ele>36</ele>
        <time>2011-03-23T12:06:29Z</time>
      </trkpt>
      <trkpt lat="37.1590098114" lon="-7.55770576134">
        <ele>36.2</ele>
        <time>2011-03-23T12:06:31Z</time>
      </trkpt>
      <trkpt lat="37.1589920418" lon="-7.55779134054">
        <ele>36.4</ele>
        <time>2011-03-23T12:06:34Z</time>
      </trkpt>
      <trkpt lat="37.158982235" lon="-7.55784825364">
        <ele>36.4</ele>
        <time>2011-03-23T12:06:36Z</time>
      </trkpt>
      <trkpt lat="37.1589665608" lon="-7.5579305639">
        <ele>36.6</ele>
        <time>2011-03-23T12:06:39Z</time>
      </trkpt>
      <trkpt lat="37.1589495456" lon="-7.55800901849">
        <ele>36.6</ele>
        <time>2011-03-23T12:06:42Z</time>
      </trkpt>
      <trkpt lat="37.1589320274" lon="-7.55808956855">
        <ele>36.6</ele>
        <time>2011-03-23T12:06:45Z</time>
      </trkpt>
      <trkpt lat="37.1589235617" lon="-7.55812779001">
        <ele>36.6</ele>
        <time>2011-03-23T12:06:46Z</time>
      </trkpt>
      <trkpt lat="37.1589042833" lon="-7.55822543914">
        <ele>36.6</ele>
        <time>2011-03-23T12:06:50Z</time>
      </trkpt>
      <trkpt lat="37.1588900341" lon="-7.55830347463">
        <ele>36.8</ele>
        <time>2011-03-23T12:06:53Z</time>
      </trkpt>
      <trkpt lat="37.1588668162" lon="-7.55838058811">
        <ele>36.8</ele>
        <time>2011-03-23T12:06:56Z</time>
      </trkpt>
      <trkpt lat="37.1588482084" lon="-7.55843423227">
        <ele>36.8</ele>
        <time>2011-03-23T12:06:58Z</time>
      </trkpt>
      <trkpt lat="37.1588241524" lon="-7.55850153893">
        <ele>36.8</ele>
        <time>2011-03-23T12:07:01Z</time>
      </trkpt>
      <trkpt lat="37.1588049578" lon="-7.558554764">
        <ele>36.8</ele>
        <time>2011-03-23T12:07:03Z</time>
      </trkpt>
      <trkpt lat="37.1587913791" lon="-7.55861150946">
        <ele>36.8</ele>
        <time>2011-03-23T12:07:05Z</time>
      </trkpt>
      <trkpt lat="37.1587777166" lon="-7.55867286497">
        <ele>36.8</ele>
        <time>2011-03-23T12:07:07Z</time>
      </trkpt>
      <trkpt lat="37.1587605337" lon="-7.5587559296">
        <ele>36.8</ele>
        <time>2011-03-23T12:07:10Z</time>
      </trkpt>
      <trkpt lat="37.1587493858" lon="-7.55881049576">
        <ele>36.8</ele>
        <time>2011-03-23T12:07:12Z</time>
      </trkpt>
      <trkpt lat="37.158741423" lon="-7.55886648686">
        <ele>36.8</ele>
        <time>2011-03-23T12:07:14Z</time>
      </trkpt>
      <trkpt lat="37.1587270061" lon="-7.55894971912">
        <ele>36.8</ele>
        <time>2011-03-23T12:07:17Z</time>
      </trkpt>
      <trkpt lat="37.1587153553" lon="-7.55901409212">
        <ele>36.6</ele>
        <time>2011-03-23T12:07:19Z</time>
      </trkpt>
      <trkpt lat="37.1587108291" lon="-7.55907838129">
        <ele>36</ele>
        <time>2011-03-23T12:07:22Z</time>
      </trkpt>
      <trkpt lat="37.1587038721" lon="-7.55916077537">
        <ele>35.6</ele>
        <time>2011-03-23T12:07:25Z</time>
      </trkpt>
      <trkpt lat="37.158700687" lon="-7.55922204705">
        <ele>35.4</ele>
        <time>2011-03-23T12:07:27Z</time>
      </trkpt>
      <trkpt lat="37.1586985915" lon="-7.55930745862">
        <ele>35.2</ele>
        <time>2011-03-23T12:07:30Z</time>
      </trkpt>
      <trkpt lat="37.158699262" lon="-7.55938499119">
        <ele>35</ele>
        <time>2011-03-23T12:07:33Z</time>
      </trkpt>
      <trkpt lat="37.1587060514" lon="-7.55946688235">
        <ele>35</ele>
        <time>2011-03-23T12:07:36Z</time>
      </trkpt>
      <trkpt lat="37.1587147686" lon="-7.55955648486">
        <ele>34.4</ele>
        <time>2011-03-23T12:07:39Z</time>
      </trkpt>
      <trkpt lat="37.1587209712" lon="-7.55962127695">
        <ele>33.8</ele>
        <time>2011-03-23T12:07:42Z</time>
      </trkpt>
      <trkpt lat="37.1587341307" lon="-7.55969512149">
        <ele>33.4</ele>
        <time>2011-03-23T12:07:45Z</time>
      </trkpt>
      <trkpt lat="37.1587488829" lon="-7.55977131296">
        <ele>33.2</ele>
        <time>2011-03-23T12:07:48Z</time>
      </trkpt>
      <trkpt lat="37.1587686642" lon="-7.55984105037">
        <ele>33</ele>
        <time>2011-03-23T12:07:51Z</time>
      </trkpt>
      <trkpt lat="37.1587839192" lon="-7.5599007295">
        <ele>33</ele>
        <time>2011-03-23T12:07:53Z</time>
      </trkpt>
      <trkpt lat="37.1588073047" lon="-7.55997583132">
        <ele>32.8</ele>
        <time>2011-03-23T12:07:56Z</time>
      </trkpt>
      <trkpt lat="37.1588317799" lon="-7.56006224871">
        <ele>32.6</ele>
        <time>2011-03-23T12:07:59Z</time>
      </trkpt>
      <trkpt lat="37.158850723" lon="-7.56012569969">
        <ele>32</ele>
        <time>2011-03-23T12:08:02Z</time>
      </trkpt>
      <trkpt lat="37.1588709234" lon="-7.56020189116">
        <ele>31.6</ele>
        <time>2011-03-23T12:08:05Z</time>
      </trkpt>
      <trkpt lat="37.1588940574" lon="-7.56027716063">
        <ele>31.2</ele>
        <time>2011-03-23T12:08:08Z</time>
      </trkpt>
      <trkpt lat="37.1589147607" lon="-7.56035184336">
        <ele>31</ele>
        <time>2011-03-23T12:08:11Z</time>
      </trkpt>
      <trkpt lat="37.1589223882" lon="-7.56042568789">
        <ele>30.8</ele>
        <time>2011-03-23T12:08:14Z</time>
      </trkpt>
      <trkpt lat="37.1589196222" lon="-7.56049735314">
        <ele>30.8</ele>
        <time>2011-03-23T12:08:17Z</time>
      </trkpt>
      <trkpt lat="37.1589079714" lon="-7.56057253878">
        <ele>30.6</ele>
        <time>2011-03-23T12:08:20Z</time>
      </trkpt>
      <trkpt lat="37.1588930516" lon="-7.56065434613">
        <ele>30.6</ele>
        <time>2011-03-23T12:08:23Z</time>
      </trkpt>
      <trkpt lat="37.1588721806" lon="-7.56073372272">
        <ele>30.6</ele>
        <time>2011-03-23T12:08:26Z</time>
      </trkpt>
      <trkpt lat="37.158857177" lon="-7.56081762554">
        <ele>30.6</ele>
        <time>2011-03-23T12:08:29Z</time>
      </trkpt>
      <trkpt lat="37.158844688" lon="-7.56089800796">
        <ele>30.4</ele>
        <time>2011-03-23T12:08:32Z</time>
      </trkpt>
      <trkpt lat="37.1588311093" lon="-7.56097621109">
        <ele>30.4</ele>
        <time>2011-03-23T12:08:35Z</time>
      </trkpt>
      <trkpt lat="37.1588187879" lon="-7.56105969481">
        <ele>30.4</ele>
        <time>2011-03-23T12:08:38Z</time>
      </trkpt>
      <trkpt lat="37.1588102384" lon="-7.56113655683">
        <ele>30.4</ele>
        <time>2011-03-23T12:08:41Z</time>
      </trkpt>
      <trkpt lat="37.1587968274" lon="-7.56121040137">
        <ele>30.4</ele>
        <time>2011-03-23T12:08:44Z</time>
      </trkpt>
      <trkpt lat="37.1587850927" lon="-7.5612718407">
        <ele>30.4</ele>
        <time>2011-03-23T12:08:46Z</time>
      </trkpt>
      <trkpt lat="37.1587794768" lon="-7.56133981791">
        <ele>30.4</ele>
        <time>2011-03-23T12:08:50Z</time>
      </trkpt>
      <trkpt lat="37.1587658143" lon="-7.56141726666">
        <ele>30.4</ele>
        <time>2011-03-23T12:08:53Z</time>
      </trkpt>
      <trkpt lat="37.1587563428" lon="-7.56149521833">
        <ele>30.4</ele>
        <time>2011-03-23T12:08:56Z</time>
      </trkpt>
      <trkpt lat="37.1587461169" lon="-7.56158624577">
        <ele>30.4</ele>
        <time>2011-03-23T12:08:59Z</time>
      </trkpt>
      <trkpt lat="37.1587438538" lon="-7.56165623463">
        <ele>30.4</ele>
        <time>2011-03-23T12:09:02Z</time>
      </trkpt>
      <trkpt lat="37.1587296045" lon="-7.56173804198">
        <ele>30.4</ele>
        <time>2011-03-23T12:09:05Z</time>
      </trkpt>
      <trkpt lat="37.1587164449" lon="-7.56181641274">
        <ele>30.4</ele>
        <time>2011-03-23T12:09:08Z</time>
      </trkpt>
      <trkpt lat="37.1587057999" lon="-7.56188799417">
        <ele>30.4</ele>
        <time>2011-03-23T12:09:11Z</time>
      </trkpt>
      <trkpt lat="37.1586928918" lon="-7.56196535911">
        <ele>30.4</ele>
        <time>2011-03-23T12:09:14Z</time>
      </trkpt>
      <trkpt lat="37.1586732782" lon="-7.56203652144">
        <ele>30.4</ele>
        <time>2011-03-23T12:09:17Z</time>
      </trkpt>
      <trkpt lat="37.1586581069" lon="-7.56209578147">
        <ele>30.4</ele>
        <time>2011-03-23T12:09:19Z</time>
      </trkpt>
      <trkpt lat="37.1586340509" lon="-7.56215562824">
        <ele>30.4</ele>
        <time>2011-03-23T12:09:22Z</time>
      </trkpt>
      <trkpt lat="37.1586061391" lon="-7.5622269582">
        <ele>30.4</ele>
        <time>2011-03-23T12:09:25Z</time>
      </trkpt>
      <trkpt lat="37.158588118" lon="-7.56229242084">
        <ele>30.4</ele>
        <time>2011-03-23T12:09:28Z</time>
      </trkpt>
      <trkpt lat="37.1585601225" lon="-7.56235704529">
        <ele>30.4</ele>
        <time>2011-03-23T12:09:31Z</time>
      </trkpt>
      <trkpt lat="37.1585433587" lon="-7.56241504804">
        <ele>30.4</ele>
        <time>2011-03-23T12:09:34Z</time>
      </trkpt>
      <trkpt lat="37.1585210628" lon="-7.56248009158">
        <ele>30.4</ele>
        <time>2011-03-23T12:09:37Z</time>
      </trkpt>
      <trkpt lat="37.1585047181" lon="-7.56254848789">
        <ele>30.6</ele>
        <time>2011-03-23T12:09:40Z</time>
      </trkpt>
      <trkpt lat="37.1584812488" lon="-7.56260816702">
        <ele>31.2</ele>
        <time>2011-03-23T12:09:43Z</time>
      </trkpt>
      <trkpt lat="37.1584675025" lon="-7.56264814868">
        <ele>31.4</ele>
        <time>2011-03-23T12:09:45Z</time>
      </trkpt>
      <trkpt lat="37.1584542591" lon="-7.56270003264">
        <ele>31.8</ele>
        <time>2011-03-23T12:09:48Z</time>
      </trkpt>
      <trkpt lat="37.1584431112" lon="-7.56275560464">
        <ele>32</ele>
        <time>2011-03-23T12:09:51Z</time>
      </trkpt>
      <trkpt lat="37.1584338073" lon="-7.56281511613">
        <ele>32</ele>
        <time>2011-03-23T12:09:55Z</time>
      </trkpt>
      <trkpt lat="37.1584247548" lon="-7.56286222241">
        <ele>32.2</ele>
        <time>2011-03-23T12:09:58Z</time>
      </trkpt>
      <trkpt lat="37.1584087454" lon="-7.56291930314">
        <ele>32.2</ele>
        <time>2011-03-23T12:10:02Z</time>
      </trkpt>
      <trkpt lat="37.1583939094" lon="-7.56295928481">
        <ele>32.2</ele>
        <time>2011-03-23T12:10:05Z</time>
      </trkpt>
      <trkpt lat="37.1583809175" lon="-7.56300094285">
        <ele>32.4</ele>
        <time>2011-03-23T12:10:08Z</time>
      </trkpt>
      <trkpt lat="37.1583685961" lon="-7.56305031224">
        <ele>32.4</ele>
        <time>2011-03-23T12:10:11Z</time>
      </trkpt>
      <trkpt lat="37.1583557718" lon="-7.56309431722">
        <ele>32.4</ele>
        <time>2011-03-23T12:10:14Z</time>
      </trkpt>
      <trkpt lat="37.158355688" lon="-7.56310848263">
        <ele>32.4</ele>
        <time>2011-03-23T12:10:15Z</time>
      </trkpt>
      <trkpt lat="37.1583416064" lon="-7.56314963776">
        <ele>32.4</ele>
        <time>2011-03-23T12:10:18Z</time>
      </trkpt>
      <trkpt lat="37.1583358229" lon="-7.56316950286">
        <ele>32.4</ele>
        <time>2011-03-23T12:10:19Z</time>
      </trkpt>
      <trkpt lat="37.1583226633" lon="-7.56320696995">
        <ele>32.4</ele>
        <time>2011-03-23T12:10:22Z</time>
      </trkpt>
      <trkpt lat="37.1583142814" lon="-7.56327612063">
        <ele>32.4</ele>
        <time>2011-03-23T12:10:26Z</time>
      </trkpt>
      <trkpt lat="37.1582980205" lon="-7.56331224662">
        <ele>32.4</ele>
        <time>2011-03-23T12:10:30Z</time>
      </trkpt>
      <trkpt lat="37.1582950868" lon="-7.56332264017">
        <ele>32.4</ele>
        <time>2011-03-23T12:10:31Z</time>
      </trkpt>
      <trkpt lat="37.1582753894" lon="-7.56339212612">
        <ele>32.4</ele>
        <time>2011-03-23T12:10:36Z</time>
      </trkpt>
      <trkpt lat="37.1582717851" lon="-7.56340671063">
        <ele>32.4</ele>
        <time>2011-03-23T12:10:37Z</time>
      </trkpt>
      <trkpt lat="37.1582569492" lon="-7.5634361311">
        <ele>32.4</ele>
        <time>2011-03-23T12:10:40Z</time>
      </trkpt>
      <trkpt lat="37.1582401016" lon="-7.56349933062">
        <ele>32.4</ele>
        <time>2011-03-23T12:10:44Z</time>
      </trkpt>
      <trkpt lat="37.1582238407" lon="-7.56353931229">
        <ele>33</ele>
        <time>2011-03-23T12:10:46Z</time>
      </trkpt>
      <trkpt lat="37.1582047299" lon="-7.56358490982">
        <ele>33.4</ele>
        <time>2011-03-23T12:10:50Z</time>
      </trkpt>
      <trkpt lat="37.1581920733" lon="-7.56364710352">
        <ele>33.8</ele>
        <time>2011-03-23T12:10:55Z</time>
      </trkpt>
      <trkpt lat="37.1581860383" lon="-7.56366118511">
        <ele>33.8</ele>
        <time>2011-03-23T12:10:56Z</time>
      </trkpt>
      <trkpt lat="37.1581612279" lon="-7.56371726002">
        <ele>34</ele>
        <time>2011-03-23T12:11:00Z</time>
      </trkpt>
      <trkpt lat="37.1581505829" lon="-7.56376604268">
        <ele>34.2</ele>
        <time>2011-03-23T12:11:04Z</time>
      </trkpt>
      <trkpt lat="37.1581308854" lon="-7.56383267879">
        <ele>34.2</ele>
        <time>2011-03-23T12:11:08Z</time>
      </trkpt>
      <trkpt lat="37.1581219168" lon="-7.56388263491">
        <ele>34.4</ele>
        <time>2011-03-23T12:11:10Z</time>
      </trkpt>
      <trkpt lat="37.1580977769" lon="-7.56393896128">
        <ele>34.4</ele>
        <time>2011-03-23T12:11:15Z</time>
      </trkpt>
      <trkpt lat="37.158075481" lon="-7.56399620966">
        <ele>34.4</ele>
        <time>2011-03-23T12:11:19Z</time>
      </trkpt>
      <trkpt lat="37.1580623215" lon="-7.56402521103">
        <ele>34.4</ele>
        <time>2011-03-23T12:11:21Z</time>
      </trkpt>
      <trkpt lat="37.1580424564" lon="-7.56407466424">
        <ele>34.4</ele>
        <time>2011-03-23T12:11:26Z</time>
      </trkpt>
      <trkpt lat="37.1580260278" lon="-7.56412445273">
        <ele>34.4</ele>
        <time>2011-03-23T12:11:29Z</time>
      </trkpt>
      <trkpt lat="37.1580166401" lon="-7.56418999918">
        <ele>34.4</ele>
        <time>2011-03-23T12:11:33Z</time>
      </trkpt>
      <trkpt lat="37.1580098508" lon="-7.56420944519">
        <ele>34.4</ele>
        <time>2011-03-23T12:11:34Z</time>
      </trkpt>
      <trkpt lat="37.157994931" lon="-7.56427381818">
        <ele>34.4</ele>
        <time>2011-03-23T12:11:38Z</time>
      </trkpt>
      <trkpt lat="37.1579886446" lon="-7.56429334801">
        <ele>34.4</ele>
        <time>2011-03-23T12:11:39Z</time>
      </trkpt>
      <trkpt lat="37.1579617387" lon="-7.56436509708">
        <ele>34.4</ele>
        <time>2011-03-23T12:11:44Z</time>
      </trkpt>
      <trkpt lat="37.1579417897" lon="-7.56442494384">
        <ele>34.4</ele>
        <time>2011-03-23T12:11:48Z</time>
      </trkpt>
      <trkpt lat="37.157939359" lon="-7.56444028272">
        <ele>34.4</ele>
        <time>2011-03-23T12:11:49Z</time>
      </trkpt>
      <trkpt lat="37.1579235172" lon="-7.5645169771">
        <ele>34.4</ele>
        <time>2011-03-23T12:11:54Z</time>
      </trkpt>
      <trkpt lat="37.1579027301" lon="-7.56459174365">
        <ele>34.4</ele>
        <time>2011-03-23T12:11:58Z</time>
      </trkpt>
      <trkpt lat="37.1578918336" lon="-7.56461823046">
        <ele>34.4</ele>
        <time>2011-03-23T12:11:59Z</time>
      </trkpt>
      <trkpt lat="37.1578750698" lon="-7.56464480108">
        <ele>34.4</ele>
        <time>2011-03-23T12:12:01Z</time>
      </trkpt>
      <trkpt lat="37.1578376027" lon="-7.5647247644">
        <ele>34.4</ele>
        <time>2011-03-23T12:12:05Z</time>
      </trkpt>
      <trkpt lat="37.1578176538" lon="-7.56479031086">
        <ele>34.4</ele>
        <time>2011-03-23T12:12:08Z</time>
      </trkpt>
      <trkpt lat="37.1578058353" lon="-7.56484856507">
        <ele>34.4</ele>
        <time>2011-03-23T12:12:11Z</time>
      </trkpt>
      <trkpt lat="37.1577903288" lon="-7.56489801828">
        <ele>34.4</ele>
        <time>2011-03-23T12:12:14Z</time>
      </trkpt>
      <trkpt lat="37.1577742356" lon="-7.5649479744">
        <ele>34.4</ele>
        <time>2011-03-23T12:12:17Z</time>
      </trkpt>
      <trkpt lat="37.1577586452" lon="-7.56500949755">
        <ele>34.4</ele>
        <time>2011-03-23T12:12:21Z</time>
      </trkpt>
      <trkpt lat="37.1577440607" lon="-7.5650569391">
        <ele>34.4</ele>
        <time>2011-03-23T12:12:24Z</time>
      </trkpt>
      <trkpt lat="37.1577298953" lon="-7.56511175673">
        <ele>34.4</ele>
        <time>2011-03-23T12:12:27Z</time>
      </trkpt>
      <trkpt lat="37.1577162328" lon="-7.56514830181">
        <ele>34.4</ele>
        <time>2011-03-23T12:12:29Z</time>
      </trkpt>
      <trkpt lat="37.157693937" lon="-7.56520278416">
        <ele>34.4</ele>
        <time>2011-03-23T12:12:34Z</time>
      </trkpt>
      <trkpt lat="37.1576698809" lon="-7.5652545843">
        <ele>34.4</ele>
        <time>2011-03-23T12:12:37Z</time>
      </trkpt>
      <trkpt lat="37.157655464" lon="-7.56531820292">
        <ele>34.4</ele>
        <time>2011-03-23T12:12:41Z</time>
      </trkpt>
      <trkpt lat="37.1576399575" lon="-7.56537620567">
        <ele>34.4</ele>
        <time>2011-03-23T12:12:44Z</time>
      </trkpt>
      <trkpt lat="37.1576137222" lon="-7.56543211295">
        <ele>34.4</ele>
        <time>2011-03-23T12:12:47Z</time>
      </trkpt>
      <trkpt lat="37.1575985509" lon="-7.56548123088">
        <ele>34.4</ele>
        <time>2011-03-23T12:12:50Z</time>
      </trkpt>
      <trkpt lat="37.157580446" lon="-7.56553185756">
        <ele>34.4</ele>
        <time>2011-03-23T12:12:53Z</time>
      </trkpt>
      <trkpt lat="37.1575627602" lon="-7.56558566935">
        <ele>34.4</ele>
        <time>2011-03-23T12:12:56Z</time>
      </trkpt>
      <trkpt lat="37.1575589884" lon="-7.56560553446">
        <ele>34.4</ele>
        <time>2011-03-23T12:12:57Z</time>
      </trkpt>
      <trkpt lat="37.157537866" lon="-7.56567091328">
        <ele>34.4</ele>
        <time>2011-03-23T12:13:01Z</time>
      </trkpt>
      <trkpt lat="37.1575178332" lon="-7.56572346779">
        <ele>34.4</ele>
        <time>2011-03-23T12:13:04Z</time>
      </trkpt>
      <trkpt lat="37.157493861" lon="-7.56578448802">
        <ele>34.4</ele>
        <time>2011-03-23T12:13:08Z</time>
      </trkpt>
      <trkpt lat="37.1574757561" lon="-7.56584031148">
        <ele>34.4</ele>
        <time>2011-03-23T12:13:12Z</time>
      </trkpt>
      <trkpt lat="37.1574579027" lon="-7.56588196952">
        <ele>34.4</ele>
        <time>2011-03-23T12:13:15Z</time>
      </trkpt>
      <trkpt lat="37.157441977" lon="-7.565931758">
        <ele>34.4</ele>
        <time>2011-03-23T12:13:18Z</time>
      </trkpt>
      <trkpt lat="37.1574274764" lon="-7.56599185623">
        <ele>34.4</ele>
        <time>2011-03-23T12:13:22Z</time>
      </trkpt>
      <trkpt lat="37.1574077789" lon="-7.5660464224">
        <ele>34.4</ele>
        <time>2011-03-23T12:13:25Z</time>
      </trkpt>
      <trkpt lat="37.1573776879" lon="-7.56611238795">
        <ele>34.4</ele>
        <time>2011-03-23T12:13:29Z</time>
      </trkpt>
      <trkpt lat="37.1573566493" lon="-7.56617148034">
        <ele>34.4</ele>
        <time>2011-03-23T12:13:32Z</time>
      </trkpt>
      <trkpt lat="37.1573395502" lon="-7.56622939927">
        <ele>34.4</ele>
        <time>2011-03-23T12:13:35Z</time>
      </trkpt>
      <trkpt lat="37.1573323418" lon="-7.56629846613">
        <ele>34.4</ele>
        <time>2011-03-23T12:13:38Z</time>
      </trkpt>
      <trkpt lat="37.1573171706" lon="-7.56636342585">
        <ele>35</ele>
        <time>2011-03-23T12:13:41Z</time>
      </trkpt>
      <trkpt lat="37.1573042624" lon="-7.56643710276">
        <ele>35.4</ele>
        <time>2011-03-23T12:13:44Z</time>
      </trkpt>
      <trkpt lat="37.1572925278" lon="-7.56649678188">
        <ele>35.8</ele>
        <time>2011-03-23T12:13:47Z</time>
      </trkpt>
      <trkpt lat="37.1572905161" lon="-7.5665158088">
        <ele>35.8</ele>
        <time>2011-03-23T12:13:48Z</time>
      </trkpt>
      <trkpt lat="37.1572921087" lon="-7.56657640993">
        <ele>36</ele>
        <time>2011-03-23T12:13:52Z</time>
      </trkpt>
      <trkpt lat="37.1572981436" lon="-7.56664690171">
        <ele>36.4</ele>
        <time>2011-03-23T12:13:55Z</time>
      </trkpt>
      <trkpt lat="37.1573064417" lon="-7.56669425945">
        <ele>37</ele>
        <time>2011-03-23T12:13:58Z</time>
      </trkpt>
      <trkpt lat="37.1573196013" lon="-7.56677506096">
        <ele>37.4</ele>
        <time>2011-03-23T12:14:01Z</time>
      </trkpt>
      <trkpt lat="37.1573246304" lon="-7.5668391825">
        <ele>37.8</ele>
        <time>2011-03-23T12:14:03Z</time>
      </trkpt>
      <trkpt lat="37.1573312521" lon="-7.56692224713">
        <ele>38</ele>
        <time>2011-03-23T12:14:06Z</time>
      </trkpt>
      <trkpt lat="37.157344747" lon="-7.56700941889">
        <ele>38.2</ele>
        <time>2011-03-23T12:14:09Z</time>
      </trkpt>
      <trkpt lat="37.157353548" lon="-7.5670923997">
        <ele>38.4</ele>
        <time>2011-03-23T12:14:12Z</time>
      </trkpt>
      <trkpt lat="37.1573631034" lon="-7.5671779789">
        <ele>38.4</ele>
        <time>2011-03-23T12:14:15Z</time>
      </trkpt>
      <trkpt lat="37.1573804539" lon="-7.56725987006">
        <ele>38.4</ele>
        <time>2011-03-23T12:14:18Z</time>
      </trkpt>
      <trkpt lat="37.1573962957" lon="-7.56733254113">
        <ele>38.6</ele>
        <time>2011-03-23T12:14:21Z</time>
      </trkpt>
      <trkpt lat="37.157398475" lon="-7.56739439955">
        <ele>38.6</ele>
        <time>2011-03-23T12:14:23Z</time>
      </trkpt>
      <trkpt lat="37.1574104611" lon="-7.56747922438">
        <ele>38.6</ele>
        <time>2011-03-23T12:14:26Z</time>
      </trkpt>
      <trkpt lat="37.1574178372" lon="-7.56756161846">
        <ele>38.6</ele>
        <time>2011-03-23T12:14:29Z</time>
      </trkpt>
      <trkpt lat="37.1574272249" lon="-7.56763931867">
        <ele>38.6</ele>
        <time>2011-03-23T12:14:32Z</time>
      </trkpt>
      <trkpt lat="37.1574376185" lon="-7.56772129365">
        <ele>38.6</ele>
        <time>2011-03-23T12:14:35Z</time>
      </trkpt>
      <trkpt lat="37.1574472576" lon="-7.56780553175">
        <ele>38.6</ele>
        <time>2011-03-23T12:14:38Z</time>
      </trkpt>
      <trkpt lat="37.1574551366" lon="-7.56787803518">
        <ele>38.6</ele>
        <time>2011-03-23T12:14:41Z</time>
      </trkpt>
      <trkpt lat="37.1574703079" lon="-7.56796344675">
        <ele>38.6</ele>
        <time>2011-03-23T12:14:44Z</time>
      </trkpt>
      <trkpt lat="37.1574827131" lon="-7.5680629399">
        <ele>38.6</ele>
        <time>2011-03-23T12:14:47Z</time>
      </trkpt>
      <trkpt lat="37.1574926875" lon="-7.568138377">
        <ele>38.6</ele>
        <time>2011-03-23T12:14:50Z</time>
      </trkpt>
      <trkpt lat="37.1575121335" lon="-7.56828648517">
        <ele>38.6</ele>
        <time>2011-03-23T12:14:55Z</time>
      </trkpt>
      <trkpt lat="37.1575276401" lon="-7.56836208991">
        <ele>38.6</ele>
        <time>2011-03-23T12:14:58Z</time>
      </trkpt>
      <trkpt lat="37.1575361896" lon="-7.56842738491">
        <ele>38.6</ele>
        <time>2011-03-23T12:15:00Z</time>
      </trkpt>
      <trkpt lat="37.1575485948" lon="-7.5684970385">
        <ele>38.6</ele>
        <time>2011-03-23T12:15:03Z</time>
      </trkpt>
      <trkpt lat="37.1575568929" lon="-7.56857934876">
        <ele>38.6</ele>
        <time>2011-03-23T12:15:06Z</time>
      </trkpt>
      <trkpt lat="37.1575653586" lon="-7.56867046001">
        <ele>38.6</ele>
        <time>2011-03-23T12:15:09Z</time>
      </trkpt>
      <trkpt lat="37.1575721479" lon="-7.56876458875">
        <ele>38.6</ele>
        <time>2011-03-23T12:15:12Z</time>
      </trkpt>
      <trkpt lat="37.1575789373" lon="-7.56883625399">
        <ele>38.6</ele>
        <time>2011-03-23T12:15:15Z</time>
      </trkpt>
      <trkpt lat="37.1575875706" lon="-7.56889978879">
        <ele>38.6</ele>
        <time>2011-03-23T12:15:17Z</time>
      </trkpt>
      <trkpt lat="37.1575936894" lon="-7.56895946792">
        <ele>38.6</ele>
        <time>2011-03-23T12:15:19Z</time>
      </trkpt>
      <trkpt lat="37.1576021552" lon="-7.56902451147">
        <ele>38.6</ele>
        <time>2011-03-23T12:15:22Z</time>
      </trkpt>
      <trkpt lat="37.1576131354" lon="-7.56911394634">
        <ele>39</ele>
        <time>2011-03-23T12:15:25Z</time>
      </trkpt>
      <trkpt lat="37.1576218526" lon="-7.56918653359">
        <ele>39.6</ele>
        <time>2011-03-23T12:15:28Z</time>
      </trkpt>
      <trkpt lat="37.1576322462" lon="-7.56924445252">
        <ele>39.8</ele>
        <time>2011-03-23T12:15:30Z</time>
      </trkpt>
      <trkpt lat="37.1576391193" lon="-7.56931737505">
        <ele>40</ele>
        <time>2011-03-23T12:15:33Z</time>
      </trkpt>
      <trkpt lat="37.1576446514" lon="-7.56937881438">
        <ele>40.2</ele>
        <time>2011-03-23T12:15:35Z</time>
      </trkpt>
      <trkpt lat="37.1576541229" lon="-7.56946472885">
        <ele>40.4</ele>
        <time>2011-03-23T12:15:38Z</time>
      </trkpt>
      <trkpt lat="37.1576639298" lon="-7.56954729057">
        <ele>40.4</ele>
        <time>2011-03-23T12:15:41Z</time>
      </trkpt>
      <trkpt lat="37.1576765026" lon="-7.56963144485">
        <ele>40.6</ele>
        <time>2011-03-23T12:15:44Z</time>
      </trkpt>
      <trkpt lat="37.1576913386" lon="-7.56971283309">
        <ele>40.6</ele>
        <time>2011-03-23T12:15:47Z</time>
      </trkpt>
      <trkpt lat="37.1576966192" lon="-7.56979128768">
        <ele>40.6</ele>
        <time>2011-03-23T12:15:50Z</time>
      </trkpt>
      <trkpt lat="37.1577059231" lon="-7.56987384939">
        <ele>40.6</ele>
        <time>2011-03-23T12:15:53Z</time>
      </trkpt>
      <trkpt lat="37.1577101978" lon="-7.56993470199">
        <ele>40.6</ele>
        <time>2011-03-23T12:15:55Z</time>
      </trkpt>
      <trkpt lat="37.1577201723" lon="-7.57001131255">
        <ele>40.6</ele>
        <time>2011-03-23T12:15:58Z</time>
      </trkpt>
      <trkpt lat="37.1577260396" lon="-7.57008364835">
        <ele>40.6</ele>
        <time>2011-03-23T12:16:00Z</time>
      </trkpt>
      <trkpt lat="37.1577334995" lon="-7.57015707379">
        <ele>40.8</ele>
        <time>2011-03-23T12:16:03Z</time>
      </trkpt>
      <trkpt lat="37.1577465753" lon="-7.57022035714">
        <ele>40.8</ele>
        <time>2011-03-23T12:16:05Z</time>
      </trkpt>
      <trkpt lat="37.157758729" lon="-7.57030501433">
        <ele>40.8</ele>
        <time>2011-03-23T12:16:08Z</time>
      </trkpt>
      <trkpt lat="37.1577697093" lon="-7.57039428156">
        <ele>40.8</ele>
        <time>2011-03-23T12:16:11Z</time>
      </trkpt>
      <trkpt lat="37.157777756" lon="-7.57048455463">
        <ele>40.8</ele>
        <time>2011-03-23T12:16:14Z</time>
      </trkpt>
      <trkpt lat="37.1577870599" lon="-7.57057080438">
        <ele>40.8</ele>
        <time>2011-03-23T12:16:17Z</time>
      </trkpt>
      <trkpt lat="37.1577934301" lon="-7.57065772468">
        <ele>40.8</ele>
        <time>2011-03-23T12:16:20Z</time>
      </trkpt>
      <trkpt lat="37.1578047457" lon="-7.57074405825">
        <ele>40.8</ele>
        <time>2011-03-23T12:16:23Z</time>
      </trkpt>
      <trkpt lat="37.1578143849" lon="-7.57082846398">
        <ele>40.8</ele>
        <time>2011-03-23T12:16:26Z</time>
      </trkpt>
      <trkpt lat="37.1578215095" lon="-7.57091546811">
        <ele>40.8</ele>
        <time>2011-03-23T12:16:29Z</time>
      </trkpt>
      <trkpt lat="37.157824024" lon="-7.57099727545">
        <ele>40.8</ele>
        <time>2011-03-23T12:16:32Z</time>
      </trkpt>
      <trkpt lat="37.1578229344" lon="-7.57108444721">
        <ele>40.8</ele>
        <time>2011-03-23T12:16:35Z</time>
      </trkpt>
      <trkpt lat="37.1578174023" lon="-7.57114588654">
        <ele>40.8</ele>
        <time>2011-03-23T12:16:37Z</time>
      </trkpt>
      <trkpt lat="37.1578117865" lon="-7.57120321873">
        <ele>40.8</ele>
        <time>2011-03-23T12:16:39Z</time>
      </trkpt>
      <trkpt lat="37.1578049133" lon="-7.57125988038">
        <ele>40.8</ele>
        <time>2011-03-23T12:16:41Z</time>
      </trkpt>
      <trkpt lat="37.1578004709" lon="-7.57132240935">
        <ele>40.8</ele>
        <time>2011-03-23T12:16:43Z</time>
      </trkpt>
      <trkpt lat="37.1577956094" lon="-7.57137135965">
        <ele>40.8</ele>
        <time>2011-03-23T12:16:45Z</time>
      </trkpt>
      <trkpt lat="37.1577847129" lon="-7.57145333463">
        <ele>40.8</ele>
        <time>2011-03-23T12:16:48Z</time>
      </trkpt>
      <trkpt lat="37.1577757443" lon="-7.57151703707">
        <ele>40.8</ele>
        <time>2011-03-23T12:16:50Z</time>
      </trkpt>
      <trkpt lat="37.1577673624" lon="-7.57158434373">
        <ele>40.8</ele>
        <time>2011-03-23T12:16:53Z</time>
      </trkpt>
      <trkpt lat="37.1577646802" lon="-7.57163857462">
        <ele>40.8</ele>
        <time>2011-03-23T12:16:56Z</time>
      </trkpt>
      <trkpt lat="37.1577552086" lon="-7.57169414662">
        <ele>40.8</ele>
        <time>2011-03-23T12:16:59Z</time>
      </trkpt>
      <trkpt lat="37.1577391154" lon="-7.57174913188">
        <ele>40.8</ele>
        <time>2011-03-23T12:17:02Z</time>
      </trkpt>
      <trkpt lat="37.1577248662" lon="-7.57180369805">
        <ele>40.8</ele>
        <time>2011-03-23T12:17:05Z</time>
      </trkpt>
      <trkpt lat="37.1577167357" lon="-7.57184024313">
        <ele>40.8</ele>
        <time>2011-03-23T12:17:07Z</time>
      </trkpt>
      <trkpt lat="37.1576944399" lon="-7.57191232747">
        <ele>40.8</ele>
        <time>2011-03-23T12:17:11Z</time>
      </trkpt>
      <trkpt lat="37.1576880696" lon="-7.57196873766">
        <ele>40.8</ele>
        <time>2011-03-23T12:17:14Z</time>
      </trkpt>
      <trkpt lat="37.1576830405" lon="-7.57201274264">
        <ele>40.8</ele>
        <time>2011-03-23T12:17:17Z</time>
      </trkpt>
      <trkpt lat="37.157680945" lon="-7.57202858443">
        <ele>40.8</ele>
        <time>2011-03-23T12:17:18Z</time>
      </trkpt>
      <trkpt lat="37.1576692104" lon="-7.57208650335">
        <ele>40.8</ele>
        <time>2011-03-23T12:17:22Z</time>
      </trkpt>
      <trkpt lat="37.1576592359" lon="-7.57214693685">
        <ele>40.8</ele>
        <time>2011-03-23T12:17:25Z</time>
      </trkpt>
      <trkpt lat="37.1576523627" lon="-7.57219001982">
        <ele>40.8</ele>
        <time>2011-03-23T12:17:28Z</time>
      </trkpt>
      <trkpt lat="37.1576494291" lon="-7.57225011804">
        <ele>40.8</ele>
        <time>2011-03-23T12:17:31Z</time>
      </trkpt>
      <trkpt lat="37.1576462439" lon="-7.57229236282">
        <ele>40.8</ele>
        <time>2011-03-23T12:17:34Z</time>
      </trkpt>
      <trkpt lat="37.1576443161" lon="-7.57235220959">
        <ele>40.8</ele>
        <time>2011-03-23T12:17:37Z</time>
      </trkpt>
      <trkpt lat="37.1576418854" lon="-7.57239604692">
        <ele>40.8</ele>
        <time>2011-03-23T12:17:40Z</time>
      </trkpt>
      <trkpt lat="37.1576371077" lon="-7.57245673188">
        <ele>40.8</ele>
        <time>2011-03-23T12:17:43Z</time>
      </trkpt>
      <trkpt lat="37.1576337549" lon="-7.57250040158">
        <ele>40.8</ele>
        <time>2011-03-23T12:17:46Z</time>
      </trkpt>
      <trkpt lat="37.157624451" lon="-7.57254968715">
        <ele>40.8</ele>
        <time>2011-03-23T12:17:49Z</time>
      </trkpt>
      <trkpt lat="37.1576185837" lon="-7.5725975478">
        <ele>40.8</ele>
        <time>2011-03-23T12:17:52Z</time>
      </trkpt>
      <trkpt lat="37.1576060108" lon="-7.57264817447">
        <ele>40.8</ele>
        <time>2011-03-23T12:17:55Z</time>
      </trkpt>
      <trkpt lat="37.1575998082" lon="-7.57270190245">
        <ele>40.8</ele>
        <time>2011-03-23T12:17:58Z</time>
      </trkpt>
      <trkpt lat="37.1575960364" lon="-7.57275596571">
        <ele>40.8</ele>
        <time>2011-03-23T12:18:01Z</time>
      </trkpt>
      <trkpt lat="37.1575992215" lon="-7.57277541172">
        <ele>40.8</ele>
        <time>2011-03-23T12:18:02Z</time>
      </trkpt>
      <trkpt lat="37.1575874868" lon="-7.57284011998">
        <ele>40.8</ele>
        <time>2011-03-23T12:18:06Z</time>
      </trkpt>
      <trkpt lat="37.1575808651" lon="-7.57287658125">
        <ele>40.8</ele>
        <time>2011-03-23T12:18:08Z</time>
      </trkpt>
      <trkpt lat="37.1575704716" lon="-7.57294941996">
        <ele>40.8</ele>
        <time>2011-03-23T12:18:12Z</time>
      </trkpt>
      <trkpt lat="37.1575603295" lon="-7.57299887317">
        <ele>40.8</ele>
        <time>2011-03-23T12:18:15Z</time>
      </trkpt>
      <trkpt lat="37.1575560547" lon="-7.57304405161">
        <ele>40.8</ele>
        <time>2011-03-23T12:18:18Z</time>
      </trkpt>
      <trkpt lat="37.1575481757" lon="-7.57309886924">
        <ele>40.8</ele>
        <time>2011-03-23T12:18:21Z</time>
      </trkpt>
      <trkpt lat="37.1575453259" lon="-7.57311797997">
        <ele>40.8</ele>
        <time>2011-03-23T12:18:22Z</time>
      </trkpt>
      <trkpt lat="37.1575354352" lon="-7.57318947758">
        <ele>40.8</ele>
        <time>2011-03-23T12:18:26Z</time>
      </trkpt>
      <trkpt lat="37.1575279753" lon="-7.57322878869">
        <ele>40.8</ele>
        <time>2011-03-23T12:18:28Z</time>
      </trkpt>
      <trkpt lat="37.1575163245" lon="-7.5733033876">
        <ele>40.8</ele>
        <time>2011-03-23T12:18:32Z</time>
      </trkpt>
      <trkpt lat="37.157498052" lon="-7.57336424019">
        <ele>40.8</ele>
        <time>2011-03-23T12:18:35Z</time>
      </trkpt>
      <trkpt lat="37.1574869878" lon="-7.57342039892">
        <ele>40.8</ele>
        <time>2011-03-23T12:18:38Z</time>
      </trkpt>
      <trkpt lat="37.1574853115" lon="-7.57347303725">
        <ele>40.8</ele>
        <time>2011-03-23T12:18:41Z</time>
      </trkpt>
      <trkpt lat="37.1574766781" lon="-7.57353062091">
        <ele>40.8</ele>
        <time>2011-03-23T12:18:44Z</time>
      </trkpt>
      <trkpt lat="37.1574647758" lon="-7.57358317542">
        <ele>40.8</ele>
        <time>2011-03-23T12:18:47Z</time>
      </trkpt>
      <trkpt lat="37.157453125" lon="-7.5736466264">
        <ele>41.2</ele>
        <time>2011-03-23T12:18:50Z</time>
      </trkpt>
      <trkpt lat="37.1574356906" lon="-7.57373840821">
        <ele>41.8</ele>
        <time>2011-03-23T12:18:53Z</time>
      </trkpt>
      <trkpt lat="37.1574235369" lon="-7.57382273012">
        <ele>42</ele>
        <time>2011-03-23T12:18:55Z</time>
      </trkpt>
      <trkpt lat="37.1574036718" lon="-7.57392725241">
        <ele>42.2</ele>
        <time>2011-03-23T12:18:59Z</time>
      </trkpt>
      <trkpt lat="37.1573889196" lon="-7.57399841475">
        <ele>42.4</ele>
        <time>2011-03-23T12:19:02Z</time>
      </trkpt>
      <trkpt lat="37.1573747542" lon="-7.57406354211">
        <ele>42.4</ele>
        <time>2011-03-23T12:19:04Z</time>
      </trkpt>
      <trkpt lat="37.1573584095" lon="-7.57415163588">
        <ele>42.6</ele>
        <time>2011-03-23T12:19:07Z</time>
      </trkpt>
      <trkpt lat="37.1573402208" lon="-7.57424308241">
        <ele>42.6</ele>
        <time>2011-03-23T12:19:10Z</time>
      </trkpt>
      <trkpt lat="37.1573289052" lon="-7.57430142043">
        <ele>42.6</ele>
        <time>2011-03-23T12:19:12Z</time>
      </trkpt>
      <trkpt lat="37.1573191822" lon="-7.57439244786">
        <ele>42.6</ele>
        <time>2011-03-23T12:19:15Z</time>
      </trkpt>
      <trkpt lat="37.1573080343" lon="-7.57444978006">
        <ele>42.8</ele>
        <time>2011-03-23T12:19:17Z</time>
      </trkpt>
      <trkpt lat="37.1572971378" lon="-7.57452136149">
        <ele>43</ele>
        <time>2011-03-23T12:19:19Z</time>
      </trkpt>
      <trkpt lat="37.1572886721" lon="-7.57456855158">
        <ele>43.2</ele>
        <time>2011-03-23T12:19:21Z</time>
      </trkpt>
      <trkpt lat="37.15727853" lon="-7.57463300839">
        <ele>43.6</ele>
        <time>2011-03-23T12:19:23Z</time>
      </trkpt>
      <trkpt lat="37.1572652028" lon="-7.57471808468">
        <ele>44</ele>
        <time>2011-03-23T12:19:26Z</time>
      </trkpt>
      <trkpt lat="37.1572569047" lon="-7.57477977546">
        <ele>44</ele>
        <time>2011-03-23T12:19:28Z</time>
      </trkpt>
      <trkpt lat="37.1572483552" lon="-7.57484439991">
        <ele>44.2</ele>
        <time>2011-03-23T12:19:30Z</time>
      </trkpt>
      <trkpt lat="37.1572370396" lon="-7.57489812789">
        <ele>44.4</ele>
        <time>2011-03-23T12:19:32Z</time>
      </trkpt>
      <trkpt lat="37.1572274842" lon="-7.57498320418">
        <ele>44.4</ele>
        <time>2011-03-23T12:19:35Z</time>
      </trkpt>
      <trkpt lat="37.1572118101" lon="-7.57506417333">
        <ele>44.6</ele>
        <time>2011-03-23T12:19:38Z</time>
      </trkpt>
      <trkpt lat="37.1571963874" lon="-7.57514430429">
        <ele>44.6</ele>
        <time>2011-03-23T12:19:41Z</time>
      </trkpt>
      <trkpt lat="37.1571914421" lon="-7.57520457016">
        <ele>44.6</ele>
        <time>2011-03-23T12:19:43Z</time>
      </trkpt>
      <trkpt lat="37.1571806294" lon="-7.57526936224">
        <ele>44.6</ele>
        <time>2011-03-23T12:19:45Z</time>
      </trkpt>
      <trkpt lat="37.1571728342" lon="-7.57533909965">
        <ele>44.8</ele>
        <time>2011-03-23T12:19:48Z</time>
      </trkpt>
      <trkpt lat="37.1571602614" lon="-7.57539953315">
        <ele>44.8</ele>
        <time>2011-03-23T12:19:50Z</time>
      </trkpt>
      <trkpt lat="37.1571500355" lon="-7.57547849065">
        <ele>44.8</ele>
        <time>2011-03-23T12:19:53Z</time>
      </trkpt>
      <trkpt lat="37.1571362891" lon="-7.57553188335">
        <ele>44.8</ele>
        <time>2011-03-23T12:19:55Z</time>
      </trkpt>
      <trkpt lat="37.1571249736" lon="-7.57560824246">
        <ele>44.8</ele>
        <time>2011-03-23T12:19:57Z</time>
      </trkpt>
      <trkpt lat="37.1571193577" lon="-7.57567211254">
        <ele>44.8</ele>
        <time>2011-03-23T12:19:59Z</time>
      </trkpt>
      <trkpt lat="37.157116424" lon="-7.57575148913">
        <ele>44.8</ele>
        <time>2011-03-23T12:20:02Z</time>
      </trkpt>
      <trkpt lat="37.1571093833" lon="-7.57583572723">
        <ele>44.8</ele>
        <time>2011-03-23T12:20:05Z</time>
      </trkpt>
      <trkpt lat="37.1570934576" lon="-7.57589012576">
        <ele>44.8</ele>
        <time>2011-03-23T12:20:07Z</time>
      </trkpt>
      <trkpt lat="37.1570796275" lon="-7.57595047544">
        <ele>44.8</ele>
        <time>2011-03-23T12:20:09Z</time>
      </trkpt>
      <trkpt lat="37.157072" lon="-7.57600328141">
        <ele>44.8</ele>
        <time>2011-03-23T12:20:11Z</time>
      </trkpt>
      <trkpt lat="37.1570626961" lon="-7.57606371491">
        <ele>44.8</ele>
        <time>2011-03-23T12:20:13Z</time>
      </trkpt>
      <trkpt lat="37.1570502909" lon="-7.57613395523">
        <ele>44.8</ele>
        <time>2011-03-23T12:20:16Z</time>
      </trkpt>
      <trkpt lat="37.157035874" lon="-7.57623328074">
        <ele>44.8</ele>
        <time>2011-03-23T12:20:19Z</time>
      </trkpt>
      <trkpt lat="37.157025229" lon="-7.57631014277">
        <ele>44.8</ele>
        <time>2011-03-23T12:20:22Z</time>
      </trkpt>
      <trkpt lat="37.1570168471" lon="-7.57637652741">
        <ele>44.8</ele>
        <time>2011-03-23T12:20:24Z</time>
      </trkpt>
      <trkpt lat="37.1570063697" lon="-7.57645900531">
        <ele>44.8</ele>
        <time>2011-03-23T12:20:27Z</time>
      </trkpt>
      <trkpt lat="37.1570003347" lon="-7.57651298475">
        <ele>44.8</ele>
        <time>2011-03-23T12:20:29Z</time>
      </trkpt>
      <trkpt lat="37.1569889353" lon="-7.57659898304">
        <ele>44.8</ele>
        <time>2011-03-23T12:20:32Z</time>
      </trkpt>
      <trkpt lat="37.1569703275" lon="-7.57668581952">
        <ele>44.8</ele>
        <time>2011-03-23T12:20:35Z</time>
      </trkpt>
      <trkpt lat="37.1569586767" lon="-7.57676771069">
        <ele>44.8</ele>
        <time>2011-03-23T12:20:38Z</time>
      </trkpt>
      <trkpt lat="37.1569445951" lon="-7.57685035622">
        <ele>45.2</ele>
        <time>2011-03-23T12:20:41Z</time>
      </trkpt>
      <trkpt lat="37.1569330281" lon="-7.57693107392">
        <ele>45.6</ele>
        <time>2011-03-23T12:20:44Z</time>
      </trkpt>
      <trkpt lat="37.1569169348" lon="-7.57701162398">
        <ele>46</ele>
        <time>2011-03-23T12:20:47Z</time>
      </trkpt>
      <trkpt lat="37.1569074633" lon="-7.57709091675">
        <ele>46.2</ele>
        <time>2011-03-23T12:20:50Z</time>
      </trkpt>
      <trkpt lat="37.1568971535" lon="-7.57715746904">
        <ele>46.4</ele>
        <time>2011-03-23T12:20:53Z</time>
      </trkpt>
      <trkpt lat="37.1568921244" lon="-7.57722418896">
        <ele>46.4</ele>
        <time>2011-03-23T12:20:55Z</time>
      </trkpt>
      <trkpt lat="37.1568850836" lon="-7.57729308818">
        <ele>46.6</ele>
        <time>2011-03-23T12:20:58Z</time>
      </trkpt>
      <trkpt lat="37.1568735166" lon="-7.5773598081">
        <ele>46.6</ele>
        <time>2011-03-23T12:21:00Z</time>
      </trkpt>
      <trkpt lat="37.1568617819" lon="-7.57743599957">
        <ele>46.6</ele>
        <time>2011-03-23T12:21:03Z</time>
      </trkpt>
      <trkpt lat="37.1568570042" lon="-7.57748469841">
        <ele>46.6</ele>
        <time>2011-03-23T12:21:05Z</time>
      </trkpt>
      <trkpt lat="37.1568445152" lon="-7.57755661511">
        <ele>46.8</ele>
        <time>2011-03-23T12:21:08Z</time>
      </trkpt>
      <trkpt lat="37.1568356304" lon="-7.57763439915">
        <ele>46.8</ele>
        <time>2011-03-23T12:21:11Z</time>
      </trkpt>
      <trkpt lat="37.1568290087" lon="-7.57770857896">
        <ele>46.8</ele>
        <time>2011-03-23T12:21:14Z</time>
      </trkpt>
      <trkpt lat="37.1568276676" lon="-7.57774772243">
        <ele>46.8</ele>
        <time>2011-03-23T12:21:16Z</time>
      </trkpt>
      <trkpt lat="37.1568140051" lon="-7.57784905961">
        <ele>46.8</ele>
        <time>2011-03-23T12:21:19Z</time>
      </trkpt>
      <trkpt lat="37.1568119096" lon="-7.57792173068">
        <ele>46.8</ele>
        <time>2011-03-23T12:21:22Z</time>
      </trkpt>
      <trkpt lat="37.1568036115" lon="-7.57800672314">
        <ele>46.8</ele>
        <time>2011-03-23T12:21:25Z</time>
      </trkpt>
      <trkpt lat="37.1567961516" lon="-7.57807461653">
        <ele>46.8</ele>
        <time>2011-03-23T12:21:28Z</time>
      </trkpt>
      <trkpt lat="37.1568022704" lon="-7.57815642388">
        <ele>46.8</ele>
        <time>2011-03-23T12:21:31Z</time>
      </trkpt>
      <trkpt lat="37.1568090598" lon="-7.57821006804">
        <ele>46.8</ele>
        <time>2011-03-23T12:21:34Z</time>
      </trkpt>
      <trkpt lat="37.1568078863" lon="-7.57830025728">
        <ele>46.8</ele>
        <time>2011-03-23T12:21:37Z</time>
      </trkpt>
      <trkpt lat="37.1567997559" lon="-7.57836831831">
        <ele>46.8</ele>
        <time>2011-03-23T12:21:40Z</time>
      </trkpt>
      <trkpt lat="37.1567939724" lon="-7.57846051921">
        <ele>46.8</ele>
        <time>2011-03-23T12:21:43Z</time>
      </trkpt>
      <trkpt lat="37.1567962355" lon="-7.57851399573">
        <ele>46.8</ele>
        <time>2011-03-23T12:21:45Z</time>
      </trkpt>
      <trkpt lat="37.1567878536" lon="-7.57861692546">
        <ele>46.8</ele>
        <time>2011-03-23T12:21:49Z</time>
      </trkpt>
      <trkpt lat="37.1567796393" lon="-7.57868322629">
        <ele>46.8</ele>
        <time>2011-03-23T12:21:52Z</time>
      </trkpt>
      <trkpt lat="37.1567741911" lon="-7.57876536891">
        <ele>46.8</ele>
        <time>2011-03-23T12:21:55Z</time>
      </trkpt>
      <trkpt lat="37.1567662283" lon="-7.57883041246">
        <ele>46.8</ele>
        <time>2011-03-23T12:21:58Z</time>
      </trkpt>
      <trkpt lat="37.1567613668" lon="-7.57891465055">
        <ele>46.8</ele>
        <time>2011-03-23T12:22:01Z</time>
      </trkpt>
      <trkpt lat="37.1567515599" lon="-7.57898656725">
        <ele>46.8</ele>
        <time>2011-03-23T12:22:04Z</time>
      </trkpt>
      <trkpt lat="37.1567373107" lon="-7.57906778787">
        <ele>46.8</ele>
        <time>2011-03-23T12:22:07Z</time>
      </trkpt>
      <trkpt lat="37.1567264142" lon="-7.57912688026">
        <ele>46.8</ele>
        <time>2011-03-23T12:22:09Z</time>
      </trkpt>
      <trkpt lat="37.1567145958" lon="-7.57918253608">
        <ele>46.8</ele>
        <time>2011-03-23T12:22:11Z</time>
      </trkpt>
      <trkpt lat="37.1566889471" lon="-7.579258979">
        <ele>46.8</ele>
        <time>2011-03-23T12:22:14Z</time>
      </trkpt>
      <trkpt lat="37.156661706" lon="-7.57933466756">
        <ele>46.8</ele>
        <time>2011-03-23T12:22:17Z</time>
      </trkpt>
      <trkpt lat="37.1566490493" lon="-7.57939543634">
        <ele>46.8</ele>
        <time>2011-03-23T12:22:20Z</time>
      </trkpt>
      <trkpt lat="37.1566368117" lon="-7.57944287789">
        <ele>47</ele>
        <time>2011-03-23T12:22:23Z</time>
      </trkpt>
      <trkpt lat="37.1566369794" lon="-7.57946047988">
        <ele>47.2</ele>
        <time>2011-03-23T12:22:24Z</time>
      </trkpt>
      <trkpt lat="37.1566161084" lon="-7.57952803799">
        <ele>47.8</ele>
        <time>2011-03-23T12:22:29Z</time>
      </trkpt>
      <trkpt lat="37.1565993446" lon="-7.57958092778">
        <ele>48.2</ele>
        <time>2011-03-23T12:22:32Z</time>
      </trkpt>
      <trkpt lat="37.1565958242" lon="-7.57959769158">
        <ele>48.2</ele>
        <time>2011-03-23T12:22:33Z</time>
      </trkpt>
      <trkpt lat="37.1565740313" lon="-7.57966022056">
        <ele>48.4</ele>
        <time>2011-03-23T12:22:37Z</time>
      </trkpt>
      <trkpt lat="37.1565689183" lon="-7.57967438597">
        <ele>48.4</ele>
        <time>2011-03-23T12:22:38Z</time>
      </trkpt>
      <trkpt lat="37.156544527" lon="-7.57974890106">
        <ele>48.6</ele>
        <time>2011-03-23T12:22:42Z</time>
      </trkpt>
      <trkpt lat="37.1565298587" lon="-7.57979902482">
        <ele>48.6</ele>
        <time>2011-03-23T12:22:45Z</time>
      </trkpt>
      <trkpt lat="37.1565154418" lon="-7.57984504145">
        <ele>48.8</ele>
        <time>2011-03-23T12:22:48Z</time>
      </trkpt>
      <trkpt lat="37.1565082334" lon="-7.57987714413">
        <ele>48.8</ele>
        <time>2011-03-23T12:22:50Z</time>
      </trkpt>
      <trkpt lat="37.1564939003" lon="-7.57992710025">
        <ele>48.8</ele>
        <time>2011-03-23T12:22:53Z</time>
      </trkpt>
      <trkpt lat="37.1564850155" lon="-7.57994612717">
        <ele>48.8</ele>
        <time>2011-03-23T12:22:54Z</time>
      </trkpt>
      <trkpt lat="37.1564601213" lon="-7.58002868888">
        <ele>48.8</ele>
        <time>2011-03-23T12:22:58Z</time>
      </trkpt>
      <trkpt lat="37.1564326286" lon="-7.58010655673">
        <ele>48.8</ele>
        <time>2011-03-23T12:23:01Z</time>
      </trkpt>
      <trkpt lat="37.1564137694" lon="-7.5801580216">
        <ele>48.8</ele>
        <time>2011-03-23T12:23:03Z</time>
      </trkpt>
      <trkpt lat="37.1563633103" lon="-7.580263885">
        <ele>48.8</ele>
        <time>2011-03-23T12:23:07Z</time>
      </trkpt>
      <trkpt lat="37.1563276873" lon="-7.58033479587">
        <ele>48.8</ele>
        <time>2011-03-23T12:23:10Z</time>
      </trkpt>
      <trkpt lat="37.1562887114" lon="-7.5804046171">
        <ele>48.8</ele>
        <time>2011-03-23T12:23:13Z</time>
      </trkpt>
      <trkpt lat="37.1562554353" lon="-7.58046270366">
        <ele>48.8</ele>
        <time>2011-03-23T12:23:16Z</time>
      </trkpt>
      <trkpt lat="37.1562313792" lon="-7.58050092513">
        <ele>48.8</ele>
        <time>2011-03-23T12:23:19Z</time>
      </trkpt>
      <trkpt lat="37.1562135258" lon="-7.58052615465">
        <ele>48.8</ele>
        <time>2011-03-23T12:23:21Z</time>
      </trkpt>
      <trkpt lat="37.1561702752" lon="-7.58057820625">
        <ele>48.8</ele>
        <time>2011-03-23T12:23:25Z</time>
      </trkpt>
      <trkpt lat="37.1561593787" lon="-7.58059480241">
        <ele>48.8</ele>
        <time>2011-03-23T12:23:26Z</time>
      </trkpt>
      <trkpt lat="37.1561165472" lon="-7.58066261198">
        <ele>49.4</ele>
        <time>2011-03-23T12:23:30Z</time>
      </trkpt>
      <trkpt lat="37.1560940837" lon="-7.58071659141">
        <ele>49.8</ele>
        <time>2011-03-23T12:23:33Z</time>
      </trkpt>
      <trkpt lat="37.156077739" lon="-7.58076470352">
        <ele>50.2</ele>
        <time>2011-03-23T12:23:36Z</time>
      </trkpt>
      <trkpt lat="37.1560613943" lon="-7.58081449201">
        <ele>50.4</ele>
        <time>2011-03-23T12:23:39Z</time>
      </trkpt>
      <trkpt lat="37.1560457201" lon="-7.5808638614">
        <ele>50.4</ele>
        <time>2011-03-23T12:23:42Z</time>
      </trkpt>
      <trkpt lat="37.1560394337" lon="-7.58087702098">
        <ele>50.6</ele>
        <time>2011-03-23T12:23:43Z</time>
      </trkpt>
      <trkpt lat="37.1560167188" lon="-7.5809326768">
        <ele>50.6</ele>
        <time>2011-03-23T12:23:47Z</time>
      </trkpt>
      <trkpt lat="37.1559997873" lon="-7.58097986689">
        <ele>50.8</ele>
        <time>2011-03-23T12:23:50Z</time>
      </trkpt>
      <trkpt lat="37.15599392" lon="-7.58099436758">
        <ele>50.8</ele>
        <time>2011-03-23T12:23:51Z</time>
      </trkpt>
      <trkpt lat="37.1559811795" lon="-7.58102898483">
        <ele>51.2</ele>
        <time>2011-03-23T12:23:54Z</time>
      </trkpt>
      <trkpt lat="37.15597724" lon="-7.58104013275">
        <ele>51.4</ele>
        <time>2011-03-23T12:23:55Z</time>
      </trkpt>
      <trkpt lat="37.1559650024" lon="-7.58109277109">
        <ele>51.8</ele>
        <time>2011-03-23T12:23:59Z</time>
      </trkpt>
      <trkpt lat="37.1559598895" lon="-7.58110542776">
        <ele>52</ele>
        <time>2011-03-23T12:24:00Z</time>
      </trkpt>
      <trkpt lat="37.1559417008" lon="-7.58115999392">
        <ele>52.2</ele>
        <time>2011-03-23T12:24:04Z</time>
      </trkpt>
      <trkpt lat="37.1559233444" lon="-7.58122025979">
        <ele>52.4</ele>
        <time>2011-03-23T12:24:08Z</time>
      </trkpt>
      <trkpt lat="37.1559074188" lon="-7.58127574796">
        <ele>52.6</ele>
        <time>2011-03-23T12:24:11Z</time>
      </trkpt>
      <trkpt lat="37.1558911579" lon="-7.58132771574">
        <ele>52.6</ele>
        <time>2011-03-23T12:24:14Z</time>
      </trkpt>
      <trkpt lat="37.155875819" lon="-7.58138152754">
        <ele>52.8</ele>
        <time>2011-03-23T12:24:17Z</time>
      </trkpt>
      <trkpt lat="37.1558567083" lon="-7.5814250296">
        <ele>52.8</ele>
        <time>2011-03-23T12:24:20Z</time>
      </trkpt>
      <trkpt lat="37.1558365917" lon="-7.58146543036">
        <ele>52.8</ele>
        <time>2011-03-23T12:24:23Z</time>
      </trkpt>
      <trkpt lat="37.1558168105" lon="-7.5815057473">
        <ele>52.8</ele>
        <time>2011-03-23T12:24:26Z</time>
      </trkpt>
      <trkpt lat="37.1557984541" lon="-7.58156014583">
        <ele>52.8</ele>
        <time>2011-03-23T12:24:29Z</time>
      </trkpt>
      <trkpt lat="37.1557826123" lon="-7.58161052105">
        <ele>52.8</ele>
        <time>2011-03-23T12:24:32Z</time>
      </trkpt>
      <trkpt lat="37.1557808521" lon="-7.58162141752">
        <ele>52.8</ele>
        <time>2011-03-23T12:24:33Z</time>
      </trkpt>
      <trkpt lat="37.1557818579" lon="-7.5816248541">
        <ele>52.8</ele>
        <time>2011-03-23T12:24:34Z</time>
      </trkpt>
      <trkpt lat="37.155756796" lon="-7.58169601643">
        <ele>52.8</ele>
        <time>2011-03-23T12:24:38Z</time>
      </trkpt>
      <trkpt lat="37.1557524375" lon="-7.58171563008">
        <ele>52.8</ele>
        <time>2011-03-23T12:24:39Z</time>
      </trkpt>
      <trkpt lat="37.155758221" lon="-7.58171713882">
        <ele>52.8</ele>
        <time>2011-03-23T12:24:43Z</time>
      </trkpt>
      <trkpt lat="37.1557828638" lon="-7.58167816298">
        <ele>52.8</ele>
        <time>2011-03-23T12:24:46Z</time>
      </trkpt>
      <trkpt lat="37.1558050758" lon="-7.58163348745">
        <ele>52.8</ele>
        <time>2011-03-23T12:24:49Z</time>
      </trkpt>
      <trkpt lat="37.1558243542" lon="-7.58157841837">
        <ele>52.8</ele>
        <time>2011-03-23T12:24:52Z</time>
      </trkpt>
      <trkpt lat="37.1558540261" lon="-7.58151018971">
        <ele>52.8</ele>
        <time>2011-03-23T12:24:55Z</time>
      </trkpt>
      <trkpt lat="37.1558728015" lon="-7.58146492745">
        <ele>52.8</ele>
        <time>2011-03-23T12:24:57Z</time>
      </trkpt>
      <trkpt lat="37.155904066" lon="-7.58139519004">
        <ele>52.8</ele>
        <time>2011-03-23T12:25:00Z</time>
      </trkpt>
      <trkpt lat="37.1559341571" lon="-7.58132880539">
        <ele>52.8</ele>
        <time>2011-03-23T12:25:03Z</time>
      </trkpt>
      <trkpt lat="37.1559632422" lon="-7.58126652787">
        <ele>52.8</ele>
        <time>2011-03-23T12:25:06Z</time>
      </trkpt>
      <trkpt lat="37.1559878012" lon="-7.58119989177">
        <ele>52.8</ele>
        <time>2011-03-23T12:25:09Z</time>
      </trkpt>
      <trkpt lat="37.1560131145" lon="-7.58112973527">
        <ele>52.8</ele>
        <time>2011-03-23T12:25:12Z</time>
      </trkpt>
      <trkpt lat="37.1560335664" lon="-7.58105899203">
        <ele>52.8</ele>
        <time>2011-03-23T12:25:15Z</time>
      </trkpt>
      <trkpt lat="37.1560511684" lon="-7.58101004173">
        <ele>52.8</ele>
        <time>2011-03-23T12:25:17Z</time>
      </trkpt>
      <trkpt lat="37.1560763141" lon="-7.58094139397">
        <ele>52.8</ele>
        <time>2011-03-23T12:25:20Z</time>
      </trkpt>
      <trkpt lat="37.1561060698" lon="-7.58087324913">
        <ele>52.8</ele>
        <time>2011-03-23T12:25:23Z</time>
      </trkpt>
      <trkpt lat="37.1561312155" lon="-7.58082471792">
        <ele>52.8</ele>
        <time>2011-03-23T12:25:25Z</time>
      </trkpt>
      <trkpt lat="37.1561595463" lon="-7.58075908765">
        <ele>52.8</ele>
        <time>2011-03-23T12:25:28Z</time>
      </trkpt>
      <trkpt lat="37.1561859493" lon="-7.58070225837">
        <ele>52.8</ele>
        <time>2011-03-23T12:25:31Z</time>
      </trkpt>
      <trkpt lat="37.1561924034" lon="-7.58068013015">
        <ele>52.8</ele>
        <time>2011-03-23T12:25:33Z</time>
      </trkpt>
      <trkpt lat="37.1561605522" lon="-7.58064165723">
        <ele>52.8</ele>
        <time>2011-03-23T12:25:43Z</time>
      </trkpt>
      <trkpt lat="37.1561492366" lon="-7.58062304941">
        <ele>52.8</ele>
        <time>2011-03-23T12:25:45Z</time>
      </trkpt>
      <trkpt lat="37.1561292877" lon="-7.58060703998">
        <ele>52.6</ele>
        <time>2011-03-23T12:25:47Z</time>
      </trkpt>
      <trkpt lat="37.1561146194" lon="-7.5805890189">
        <ele>52.4</ele>
        <time>2011-03-23T12:25:50Z</time>
      </trkpt>
      <trkpt lat="37.1560939999" lon="-7.58058264865">
        <ele>52</ele>
        <time>2011-03-23T12:25:53Z</time>
      </trkpt>
      <trkpt lat="37.1560826005" lon="-7.58057409911">
        <ele>51.8</ele>
        <time>2011-03-23T12:25:55Z</time>
      </trkpt>
      <trkpt lat="37.1560571195" lon="-7.58057317711">
        <ele>51.6</ele>
        <time>2011-03-23T12:25:57Z</time>
      </trkpt>
      <trkpt lat="37.155999033" lon="-7.58054107443">
        <ele>51.4</ele>
        <time>2011-03-23T12:26:01Z</time>
      </trkpt>
      <trkpt lat="37.1559481548" lon="-7.58052573555">
        <ele>51.2</ele>
        <time>2011-03-23T12:26:04Z</time>
      </trkpt>
      <trkpt lat="37.155890655" lon="-7.58050989376">
        <ele>51</ele>
        <time>2011-03-23T12:26:07Z</time>
      </trkpt>
      <trkpt lat="37.155870287" lon="-7.58050436171">
        <ele>51</ele>
        <time>2011-03-23T12:26:08Z</time>
      </trkpt>
      <trkpt lat="37.1558111946" lon="-7.58048717881">
        <ele>51</ele>
        <time>2011-03-23T12:26:11Z</time>
      </trkpt>
      <trkpt lat="37.1557553711" lon="-7.58046806808">
        <ele>51</ele>
        <time>2011-03-23T12:26:14Z</time>
      </trkpt>
      <trkpt lat="37.1556979551" lon="-7.58045029845">
        <ele>50.4</ele>
        <time>2011-03-23T12:26:17Z</time>
      </trkpt>
      <trkpt lat="37.1556340012" lon="-7.58042641004">
        <ele>50</ele>
        <time>2011-03-23T12:26:20Z</time>
      </trkpt>
      <trkpt lat="37.1555722266" lon="-7.58040679639">
        <ele>49.6</ele>
        <time>2011-03-23T12:26:23Z</time>
      </trkpt>
      <trkpt lat="37.1555052552" lon="-7.58038282416">
        <ele>49.4</ele>
        <time>2011-03-23T12:26:26Z</time>
      </trkpt>
      <trkpt lat="37.1554573108" lon="-7.58036463543">
        <ele>49.2</ele>
        <time>2011-03-23T12:26:28Z</time>
      </trkpt>
      <trkpt lat="37.1554123" lon="-7.58034518943">
        <ele>49.2</ele>
        <time>2011-03-23T12:26:30Z</time>
      </trkpt>
      <trkpt lat="37.1553533752" lon="-7.58032113337">
        <ele>49</ele>
        <time>2011-03-23T12:26:33Z</time>
      </trkpt>
      <trkpt lat="37.1553008207" lon="-7.58029330546">
        <ele>49</ele>
        <time>2011-03-23T12:26:36Z</time>
      </trkpt>
      <trkpt lat="37.1552469251" lon="-7.58027075815">
        <ele>49</ele>
        <time>2011-03-23T12:26:39Z</time>
      </trkpt>
      <trkpt lat="37.1551851505" lon="-7.58024460663">
        <ele>49</ele>
        <time>2011-03-23T12:26:42Z</time>
      </trkpt>
      <trkpt lat="37.1551174247" lon="-7.58021937711">
        <ele>48.8</ele>
        <time>2011-03-23T12:26:45Z</time>
      </trkpt>
      <trkpt lat="37.1550553987" lon="-7.58019255503">
        <ele>48.8</ele>
        <time>2011-03-23T12:26:48Z</time>
      </trkpt>
      <trkpt lat="37.1549953004" lon="-7.58016095526">
        <ele>48.8</ele>
        <time>2011-03-23T12:26:51Z</time>
      </trkpt>
      <trkpt lat="37.1549284967" lon="-7.58012994223">
        <ele>48.8</ele>
        <time>2011-03-23T12:26:54Z</time>
      </trkpt>
      <trkpt lat="37.1548668059" lon="-7.58009867775">
        <ele>48.4</ele>
        <time>2011-03-23T12:26:57Z</time>
      </trkpt>
      <trkpt lat="37.1548051989" lon="-7.58006967637">
        <ele>48</ele>
        <time>2011-03-23T12:27:00Z</time>
      </trkpt>
      <trkpt lat="37.1547357968" lon="-7.58003455621">
        <ele>47.6</ele>
        <time>2011-03-23T12:27:03Z</time>
      </trkpt>
      <trkpt lat="37.1546746928" lon="-7.58000832086">
        <ele>47.4</ele>
        <time>2011-03-23T12:27:06Z</time>
      </trkpt>
      <trkpt lat="37.1546092301" lon="-7.57997881658">
        <ele>47.2</ele>
        <time>2011-03-23T12:27:09Z</time>
      </trkpt>
      <trkpt lat="37.1545442704" lon="-7.57995207832">
        <ele>47.2</ele>
        <time>2011-03-23T12:27:12Z</time>
      </trkpt>
      <trkpt lat="37.1544839207" lon="-7.5799202271">
        <ele>47</ele>
        <time>2011-03-23T12:27:15Z</time>
      </trkpt>
      <trkpt lat="37.1544214756" lon="-7.57989650632">
        <ele>47</ele>
        <time>2011-03-23T12:27:18Z</time>
      </trkpt>
      <trkpt lat="37.1543619641" lon="-7.57986750494">
        <ele>47</ele>
        <time>2011-03-23T12:27:21Z</time>
      </trkpt>
      <trkpt lat="37.1543030393" lon="-7.57984235924">
        <ele>46.8</ele>
        <time>2011-03-23T12:27:24Z</time>
      </trkpt>
      <trkpt lat="37.1542509877" lon="-7.57981939284">
        <ele>46.8</ele>
        <time>2011-03-23T12:27:27Z</time>
      </trkpt>
      <trkpt lat="37.1541911409" lon="-7.57979860573">
        <ele>46.8</ele>
        <time>2011-03-23T12:27:30Z</time>
      </trkpt>
      <trkpt lat="37.1541319647" lon="-7.57977320857">
        <ele>46.8</ele>
        <time>2011-03-23T12:27:33Z</time>
      </trkpt>
      <trkpt lat="37.1540844394" lon="-7.57975250528">
        <ele>46.8</ele>
        <time>2011-03-23T12:27:35Z</time>
      </trkpt>
      <trkpt lat="37.154021156" lon="-7.57972635375">
        <ele>46.8</ele>
        <time>2011-03-23T12:27:38Z</time>
      </trkpt>
      <trkpt lat="37.1539625665" lon="-7.57969961549">
        <ele>46.8</ele>
        <time>2011-03-23T12:27:41Z</time>
      </trkpt>
      <trkpt lat="37.1539038932" lon="-7.57967245813">
        <ele>46.8</ele>
        <time>2011-03-23T12:27:44Z</time>
      </trkpt>
      <trkpt lat="37.153847986" lon="-7.57964211565">
        <ele>46.8</ele>
        <time>2011-03-23T12:27:47Z</time>
      </trkpt>
      <trkpt lat="37.1537924978" lon="-7.57961588031">
        <ele>46.8</ele>
        <time>2011-03-23T12:27:50Z</time>
      </trkpt>
      <trkpt lat="37.1536916635" lon="-7.57957330025">
        <ele>46.8</ele>
        <time>2011-03-23T12:27:55Z</time>
      </trkpt>
      <trkpt lat="37.1536355886" lon="-7.57955326751">
        <ele>46.8</ele>
        <time>2011-03-23T12:27:58Z</time>
      </trkpt>
      <trkpt lat="37.1535763286" lon="-7.57952569106">
        <ele>46.8</ele>
        <time>2011-03-23T12:28:01Z</time>
      </trkpt>
      <trkpt lat="37.1535090219" lon="-7.57949383984">
        <ele>46.8</ele>
        <time>2011-03-23T12:28:04Z</time>
      </trkpt>
      <trkpt lat="37.1534448166" lon="-7.57947137635">
        <ele>46.8</ele>
        <time>2011-03-23T12:28:07Z</time>
      </trkpt>
      <trkpt lat="37.1533983808" lon="-7.57945612129">
        <ele>46.8</ele>
        <time>2011-03-23T12:28:10Z</time>
      </trkpt>
      <trkpt lat="37.1533376121" lon="-7.57943332252">
        <ele>46.8</ele>
        <time>2011-03-23T12:28:13Z</time>
      </trkpt>
      <trkpt lat="37.153270054" lon="-7.57941312215">
        <ele>46.2</ele>
        <time>2011-03-23T12:28:16Z</time>
      </trkpt>
      <trkpt lat="37.1532072735" lon="-7.57938797645">
        <ele>45.8</ele>
        <time>2011-03-23T12:28:19Z</time>
      </trkpt>
      <trkpt lat="37.1531665375" lon="-7.57937154792">
        <ele>45.6</ele>
        <time>2011-03-23T12:28:21Z</time>
      </trkpt>
      <trkpt lat="37.1530846463" lon="-7.57934355238">
        <ele>45.4</ele>
        <time>2011-03-23T12:28:25Z</time>
      </trkpt>
      <trkpt lat="37.153060255" lon="-7.57933802032">
        <ele>45.2</ele>
        <time>2011-03-23T12:28:26Z</time>
      </trkpt>
      <trkpt lat="37.1530128973" lon="-7.57932678857">
        <ele>45.2</ele>
        <time>2011-03-23T12:28:28Z</time>
      </trkpt>
      <trkpt lat="37.152925474" lon="-7.57931647884">
        <ele>45</ele>
        <time>2011-03-23T12:28:32Z</time>
      </trkpt>
      <trkpt lat="37.1528572454" lon="-7.57932393873">
        <ele>45</ele>
        <time>2011-03-23T12:28:35Z</time>
      </trkpt>
      <trkpt lat="37.1527871727" lon="-7.57933014134">
        <ele>45</ele>
        <time>2011-03-23T12:28:38Z</time>
      </trkpt>
      <trkpt lat="37.1527336124" lon="-7.57933081189">
        <ele>44.8</ele>
        <time>2011-03-23T12:28:40Z</time>
      </trkpt>
      <trkpt lat="37.152660606" lon="-7.5793317339">
        <ele>44.8</ele>
        <time>2011-03-23T12:28:43Z</time>
      </trkpt>
      <trkpt lat="37.1525931317" lon="-7.57932921933">
        <ele>44.8</ele>
        <time>2011-03-23T12:28:46Z</time>
      </trkpt>
      <trkpt lat="37.1525278367" lon="-7.57930507945">
        <ele>44.8</ele>
        <time>2011-03-23T12:28:49Z</time>
      </trkpt>
      <trkpt lat="37.1524766233" lon="-7.57927775446">
        <ele>44.8</ele>
        <time>2011-03-23T12:28:52Z</time>
      </trkpt>
      <trkpt lat="37.1524279245" lon="-7.57921597986">
        <ele>44.8</ele>
        <time>2011-03-23T12:28:55Z</time>
      </trkpt>
      <trkpt lat="37.1523873561" lon="-7.57915713892">
        <ele>44.8</ele>
        <time>2011-03-23T12:28:58Z</time>
      </trkpt>
      <trkpt lat="37.1523394116" lon="-7.57909553195">
        <ele>44.8</ele>
        <time>2011-03-23T12:29:01Z</time>
      </trkpt>
      <trkpt lat="37.1522889526" lon="-7.57903543373">
        <ele>44.8</ele>
        <time>2011-03-23T12:29:04Z</time>
      </trkpt>
      <trkpt lat="37.1522732784" lon="-7.57901858611">
        <ele>44.8</ele>
        <time>2011-03-23T12:29:05Z</time>
      </trkpt>
      <trkpt lat="37.1521953267" lon="-7.57895521895">
        <ele>44.4</ele>
        <time>2011-03-23T12:29:09Z</time>
      </trkpt>
      <trkpt lat="37.1521767189" lon="-7.57894423866">
        <ele>44.2</ele>
        <time>2011-03-23T12:29:10Z</time>
      </trkpt>
      <trkpt lat="37.1521378269" lon="-7.57890936996">
        <ele>44</ele>
        <time>2011-03-23T12:29:12Z</time>
      </trkpt>
      <trkpt lat="37.1520830093" lon="-7.57885622871">
        <ele>43.6</ele>
        <time>2011-03-23T12:29:15Z</time>
      </trkpt>
      <trkpt lat="37.1520355677" lon="-7.57880711078">
        <ele>43.4</ele>
        <time>2011-03-23T12:29:18Z</time>
      </trkpt>
      <trkpt lat="37.1519912275" lon="-7.57875933395">
        <ele>43.2</ele>
        <time>2011-03-23T12:29:21Z</time>
      </trkpt>
      <trkpt lat="37.1519424448" lon="-7.57871356877">
        <ele>43.2</ele>
        <time>2011-03-23T12:29:24Z</time>
      </trkpt>
      <trkpt lat="37.1519310454" lon="-7.57870074446">
        <ele>43</ele>
        <time>2011-03-23T12:29:25Z</time>
      </trkpt>
      <trkpt lat="37.1518990266" lon="-7.57867115636">
        <ele>43</ele>
        <time>2011-03-23T12:29:29Z</time>
      </trkpt>
      <trkpt lat="37.15185762" lon="-7.57863938896">
        <ele>42.8</ele>
        <time>2011-03-23T12:29:47Z</time>
      </trkpt>
      <trkpt lat="37.1518582905" lon="-7.57864726794">
        <ele>42.8</ele>
        <time>2011-03-23T12:29:54Z</time>
      </trkpt>
      <trkpt lat="37.1518280319" lon="-7.57863117469">
        <ele>42.8</ele>
        <time>2011-03-23T12:30:00Z</time>
      </trkpt>
      <trkpt lat="37.1517893913" lon="-7.57861474617">
        <ele>42.8</ele>
        <time>2011-03-23T12:30:03Z</time>
      </trkpt>
      <trkpt lat="37.1517803389" lon="-7.57861273451">
        <ele>42.8</ele>
        <time>2011-03-23T12:30:04Z</time>
      </trkpt>
      <trkpt lat="37.1517691909" lon="-7.57860292769">
        <ele>42.8</ele>
        <time>2011-03-23T12:30:09Z</time>
      </trkpt>
      <trkpt lat="37.1517222523" lon="-7.57856998682">
        <ele>42.8</ele>
        <time>2011-03-23T12:30:13Z</time>
      </trkpt>
      <trkpt lat="37.1516878027" lon="-7.57854509258">
        <ele>42.8</ele>
        <time>2011-03-23T12:30:16Z</time>
      </trkpt>
      <trkpt lat="37.1516604777" lon="-7.57851801904">
        <ele>42.8</ele>
        <time>2011-03-23T12:30:19Z</time>
      </trkpt>
      <trkpt lat="37.1516286265" lon="-7.57848750893">
        <ele>42.8</ele>
        <time>2011-03-23T12:30:22Z</time>
      </trkpt>
      <trkpt lat="37.1516189035" lon="-7.57847535517">
        <ele>42.8</ele>
        <time>2011-03-23T12:30:23Z</time>
      </trkpt>
      <trkpt lat="37.1515738927" lon="-7.5784410732">
        <ele>42.8</ele>
        <time>2011-03-23T12:30:27Z</time>
      </trkpt>
      <trkpt lat="37.1515312288" lon="-7.57841777152">
        <ele>42.8</ele>
        <time>2011-03-23T12:30:30Z</time>
      </trkpt>
      <trkpt lat="37.1514720526" lon="-7.57837862805">
        <ele>42.8</ele>
        <time>2011-03-23T12:30:33Z</time>
      </trkpt>
      <trkpt lat="37.1514145528" lon="-7.57834015513">
        <ele>42.8</ele>
        <time>2011-03-23T12:30:36Z</time>
      </trkpt>
      <trkpt lat="37.1513586455" lon="-7.57830495115">
        <ele>42.6</ele>
        <time>2011-03-23T12:30:39Z</time>
      </trkpt>
      <trkpt lat="37.1513014809" lon="-7.57826530476">
        <ele>42</ele>
        <time>2011-03-23T12:30:42Z</time>
      </trkpt>
      <trkpt lat="37.1512414665" lon="-7.57822247325">
        <ele>41.8</ele>
        <time>2011-03-23T12:30:45Z</time>
      </trkpt>
      <trkpt lat="37.1511816198" lon="-7.57818508998">
        <ele>41.4</ele>
        <time>2011-03-23T12:30:48Z</time>
      </trkpt>
      <trkpt lat="37.1511440688" lon="-7.57816053101">
        <ele>41.2</ele>
        <time>2011-03-23T12:30:50Z</time>
      </trkpt>
      <trkpt lat="37.1510714816" lon="-7.57811233508">
        <ele>41</ele>
        <time>2011-03-23T12:30:54Z</time>
      </trkpt>
      <trkpt lat="37.1510201844" lon="-7.57806975503">
        <ele>41</ele>
        <time>2011-03-23T12:30:57Z</time>
      </trkpt>
      <trkpt lat="37.1509636065" lon="-7.57802734262">
        <ele>41</ele>
        <time>2011-03-23T12:31:00Z</time>
      </trkpt>
      <trkpt lat="37.1509041789" lon="-7.57798576839">
        <ele>40.8</ele>
        <time>2011-03-23T12:31:03Z</time>
      </trkpt>
      <trkpt lat="37.1508470981" lon="-7.57794494854">
        <ele>40.8</ele>
        <time>2011-03-23T12:31:06Z</time>
      </trkpt>
      <trkpt lat="37.1508097987" lon="-7.57791410315">
        <ele>40.8</ele>
        <time>2011-03-23T12:31:08Z</time>
      </trkpt>
      <trkpt lat="37.1507737565" lon="-7.57788686197">
        <ele>40.8</ele>
        <time>2011-03-23T12:31:10Z</time>
      </trkpt>
      <trkpt lat="37.1507147479" lon="-7.5778481376">
        <ele>40.8</ele>
        <time>2011-03-23T12:31:13Z</time>
      </trkpt>
      <trkpt lat="37.1506629478" lon="-7.57782056115">
        <ele>40.8</ele>
        <time>2011-03-23T12:31:16Z</time>
      </trkpt>
      <trkpt lat="37.15060637" lon="-7.57778041184">
        <ele>40.8</ele>
        <time>2011-03-23T12:31:19Z</time>
      </trkpt>
      <trkpt lat="37.150554486" lon="-7.57774554314">
        <ele>40.8</ele>
        <time>2011-03-23T12:31:22Z</time>
      </trkpt>
      <trkpt lat="37.1504969023" lon="-7.57770631585">
        <ele>40.8</ele>
        <time>2011-03-23T12:31:25Z</time>
      </trkpt>
      <trkpt lat="37.1504440964" lon="-7.57766365198">
        <ele>40.8</ele>
        <time>2011-03-23T12:31:28Z</time>
      </trkpt>
      <trkpt lat="37.1503885244" lon="-7.57762350268">
        <ele>40.8</ele>
        <time>2011-03-23T12:31:31Z</time>
      </trkpt>
      <trkpt lat="37.1503362213" lon="-7.57758637086">
        <ele>40.8</ele>
        <time>2011-03-23T12:31:34Z</time>
      </trkpt>
      <trkpt lat="37.1502799788" lon="-7.5775494905">
        <ele>40.8</ele>
        <time>2011-03-23T12:31:37Z</time>
      </trkpt>
      <trkpt lat="37.1502205511" lon="-7.57751311305">
        <ele>40.8</ele>
        <time>2011-03-23T12:31:40Z</time>
      </trkpt>
      <trkpt lat="37.1501722714" lon="-7.57747983691">
        <ele>40.8</ele>
        <time>2011-03-23T12:31:43Z</time>
      </trkpt>
      <trkpt lat="37.1501246622" lon="-7.57745125463">
        <ele>40.8</ele>
        <time>2011-03-23T12:31:45Z</time>
      </trkpt>
      <trkpt lat="37.150065905" lon="-7.57741462573">
        <ele>40.8</ele>
        <time>2011-03-23T12:31:48Z</time>
      </trkpt>
      <trkpt lat="37.1500221515" lon="-7.57738621109">
        <ele>40.8</ele>
        <time>2011-03-23T12:31:50Z</time>
      </trkpt>
      <trkpt lat="37.1499556831" lon="-7.57734220611">
        <ele>40.8</ele>
        <time>2011-03-23T12:31:53Z</time>
      </trkpt>
      <trkpt lat="37.1499131868" lon="-7.57731421057">
        <ele>40.8</ele>
        <time>2011-03-23T12:31:55Z</time>
      </trkpt>
      <trkpt lat="37.1498522504" lon="-7.57727079232">
        <ele>40.8</ele>
        <time>2011-03-23T12:31:58Z</time>
      </trkpt>
      <trkpt lat="37.1497863687" lon="-7.57722905046">
        <ele>40.8</ele>
        <time>2011-03-23T12:32:01Z</time>
      </trkpt>
      <trkpt lat="37.1497439563" lon="-7.57719426558">
        <ele>40.8</ele>
        <time>2011-03-23T12:32:03Z</time>
      </trkpt>
      <trkpt lat="37.1496845286" lon="-7.57716191144">
        <ele>40.8</ele>
        <time>2011-03-23T12:32:06Z</time>
      </trkpt>
      <trkpt lat="37.1496407751" lon="-7.5771356761">
        <ele>40.8</ele>
        <time>2011-03-23T12:32:08Z</time>
      </trkpt>
      <trkpt lat="37.1495969377" lon="-7.57710474689">
        <ele>40.8</ele>
        <time>2011-03-23T12:32:10Z</time>
      </trkpt>
      <trkpt lat="37.1495317266" lon="-7.57705713769">
        <ele>40.8</ele>
        <time>2011-03-23T12:32:13Z</time>
      </trkpt>
      <trkpt lat="37.1494871348" lon="-7.57702813632">
        <ele>40.8</ele>
        <time>2011-03-23T12:32:15Z</time>
      </trkpt>
      <trkpt lat="37.1494388551" lon="-7.57699888349">
        <ele>40.8</ele>
        <time>2011-03-23T12:32:17Z</time>
      </trkpt>
      <trkpt lat="37.1493914135" lon="-7.57696150021">
        <ele>40.8</ele>
        <time>2011-03-23T12:32:19Z</time>
      </trkpt>
      <trkpt lat="37.1493466542" lon="-7.57693132537">
        <ele>40.8</ele>
        <time>2011-03-23T12:32:21Z</time>
      </trkpt>
      <trkpt lat="37.1493003023" lon="-7.57690165345">
        <ele>41</ele>
        <time>2011-03-23T12:32:23Z</time>
      </trkpt>
      <trkpt lat="37.1492534475" lon="-7.57686770675">
        <ele>41.2</ele>
        <time>2011-03-23T12:32:25Z</time>
      </trkpt>
      <trkpt lat="37.1492090234" lon="-7.57683895684">
        <ele>41.6</ele>
        <time>2011-03-23T12:32:27Z</time>
      </trkpt>
      <trkpt lat="37.1491625877" lon="-7.57680777617">
        <ele>41.8</ele>
        <time>2011-03-23T12:32:29Z</time>
      </trkpt>
      <trkpt lat="37.1491132183" lon="-7.57677450003">
        <ele>42</ele>
        <time>2011-03-23T12:32:31Z</time>
      </trkpt>
      <trkpt lat="37.14906519" lon="-7.57674256499">
        <ele>42.2</ele>
        <time>2011-03-23T12:32:33Z</time>
      </trkpt>
      <trkpt lat="37.1490210174" lon="-7.576706439">
        <ele>42.2</ele>
        <time>2011-03-23T12:32:35Z</time>
      </trkpt>
      <trkpt lat="37.1489735758" lon="-7.57667198939">
        <ele>42.4</ele>
        <time>2011-03-23T12:32:37Z</time>
      </trkpt>
      <trkpt lat="37.148926721" lon="-7.5766376236">
        <ele>42.4</ele>
        <time>2011-03-23T12:32:39Z</time>
      </trkpt>
      <trkpt lat="37.1488626833" lon="-7.57659873158">
        <ele>42.6</ele>
        <time>2011-03-23T12:32:42Z</time>
      </trkpt>
      <trkpt lat="37.1488247133" lon="-7.57656268941">
        <ele>42.6</ele>
        <time>2011-03-23T12:32:44Z</time>
      </trkpt>
      <trkpt lat="37.1488019145" lon="-7.57654726672">
        <ele>42.6</ele>
        <time>2011-03-23T12:32:45Z</time>
      </trkpt>
      <trkpt lat="37.1487786967" lon="-7.57653536442">
        <ele>42.6</ele>
        <time>2011-03-23T12:32:46Z</time>
      </trkpt>
      <trkpt lat="37.1487113062" lon="-7.57649236527">
        <ele>42.6</ele>
        <time>2011-03-23T12:32:49Z</time>
      </trkpt>
      <trkpt lat="37.1486669659" lon="-7.57645867003">
        <ele>42.6</ele>
        <time>2011-03-23T12:32:51Z</time>
      </trkpt>
      <trkpt lat="37.1486112263" lon="-7.57642849519">
        <ele>42.8</ele>
        <time>2011-03-23T12:32:54Z</time>
      </trkpt>
      <trkpt lat="37.1485600129" lon="-7.57639547051">
        <ele>42.8</ele>
        <time>2011-03-23T12:32:56Z</time>
      </trkpt>
      <trkpt lat="37.1485062011" lon="-7.57636387074">
        <ele>42.8</ele>
        <time>2011-03-23T12:32:59Z</time>
      </trkpt>
      <trkpt lat="37.1484667223" lon="-7.57635372865">
        <ele>42.8</ele>
        <time>2011-03-23T12:33:02Z</time>
      </trkpt>
      <trkpt lat="37.1484559097" lon="-7.57635129789">
        <ele>42.8</ele>
        <time>2011-03-23T12:33:03Z</time>
      </trkpt>
      <trkpt lat="37.1484277465" lon="-7.57635364483">
        <ele>42.8</ele>
        <time>2011-03-23T12:33:05Z</time>
      </trkpt>
      <trkpt lat="37.1483860885" lon="-7.57639647634">
        <ele>42.8</ele>
        <time>2011-03-23T12:33:09Z</time>
      </trkpt>
      <trkpt lat="37.148365469" lon="-7.57643712855">
        <ele>42.8</ele>
        <time>2011-03-23T12:33:12Z</time>
      </trkpt>
      <trkpt lat="37.1483556622" lon="-7.57648741995">
        <ele>42.8</ele>
        <time>2011-03-23T12:33:15Z</time>
      </trkpt>
      <trkpt lat="37.1483405747" lon="-7.57653243075">
        <ele>42.8</ele>
        <time>2011-03-23T12:33:18Z</time>
      </trkpt>
      <trkpt lat="37.1483267446" lon="-7.57657869884">
        <ele>42.8</ele>
        <time>2011-03-23T12:33:21Z</time>
      </trkpt>
      <trkpt lat="37.1483143394" lon="-7.57662496693">
        <ele>42.8</ele>
        <time>2011-03-23T12:33:24Z</time>
      </trkpt>
      <trkpt lat="37.1482946419" lon="-7.57666637352">
        <ele>42.8</ele>
        <time>2011-03-23T12:33:27Z</time>
      </trkpt>
      <trkpt lat="37.1482911215" lon="-7.57667609652">
        <ele>42.8</ele>
        <time>2011-03-23T12:33:28Z</time>
      </trkpt>
      <trkpt lat="37.148268658" lon="-7.57670828302">
        <ele>42.8</ele>
        <time>2011-03-23T12:33:31Z</time>
      </trkpt>
      <trkpt lat="37.1482590189" lon="-7.57671976622">
        <ele>42.8</ele>
        <time>2011-03-23T12:33:32Z</time>
      </trkpt>
      <trkpt lat="37.148227922" lon="-7.57675488638">
        <ele>42.8</ele>
        <time>2011-03-23T12:33:35Z</time>
      </trkpt>
      <trkpt lat="37.1481933886" lon="-7.57678472594">
        <ele>42.8</ele>
        <time>2011-03-23T12:33:38Z</time>
      </trkpt>
      <trkpt lat="37.1481524849" lon="-7.57679889135">
        <ele>42.8</ele>
        <time>2011-03-23T12:33:41Z</time>
      </trkpt>
      <trkpt lat="37.1481125032" lon="-7.57681213476">
        <ele>42.8</ele>
        <time>2011-03-23T12:33:44Z</time>
      </trkpt>
      <trkpt lat="37.1480995113" lon="-7.57682462379">
        <ele>42.8</ele>
        <time>2011-03-23T12:33:49Z</time>
      </trkpt>
      <trkpt lat="37.1480939792" lon="-7.57682789273">
        <ele>42.8</ele>
        <time>2011-03-23T12:33:59Z</time>
      </trkpt>
      <trkpt lat="37.1481384033" lon="-7.57681666098">
        <ele>41.8</ele>
        <time>2011-03-23T12:34:10Z</time>
      </trkpt>
      <trkpt lat="37.148176038" lon="-7.57678447449">
        <ele>41.4</ele>
        <time>2011-03-23T12:34:13Z</time>
      </trkpt>
      <trkpt lat="37.1482099847" lon="-7.57674859995">
        <ele>41.2</ele>
        <time>2011-03-23T12:34:16Z</time>
      </trkpt>
      <trkpt lat="37.1482440153" lon="-7.5767015775">
        <ele>41</ele>
        <time>2011-03-23T12:34:19Z</time>
      </trkpt>
      <trkpt lat="37.1482716755" lon="-7.57665380067">
        <ele>41</ele>
        <time>2011-03-23T12:34:22Z</time>
      </trkpt>
      <trkpt lat="37.1482968212" lon="-7.57660015651">
        <ele>41</ele>
        <time>2011-03-23T12:34:25Z</time>
      </trkpt>
      <trkpt lat="37.1483190333" lon="-7.5765489431">
        <ele>40.8</ele>
        <time>2011-03-23T12:34:28Z</time>
      </trkpt>
      <trkpt lat="37.1483254035" lon="-7.57650409993">
        <ele>40.8</ele>
        <time>2011-03-23T12:34:31Z</time>
      </trkpt>
      <trkpt lat="37.1483268284" lon="-7.57645783184">
        <ele>40.2</ele>
        <time>2011-03-23T12:34:34Z</time>
      </trkpt>
      <trkpt lat="37.1483248168" lon="-7.57641181521">
        <ele>39.8</ele>
        <time>2011-03-23T12:34:37Z</time>
      </trkpt>
      <trkpt lat="37.148324733" lon="-7.57636772642">
        <ele>39.6</ele>
        <time>2011-03-23T12:34:40Z</time>
      </trkpt>
      <trkpt lat="37.1483202905" lon="-7.57633176807">
        <ele>39.2</ele>
        <time>2011-03-23T12:34:43Z</time>
      </trkpt>
      <trkpt lat="37.1482933008" lon="-7.57628801455">
        <ele>39</ele>
        <time>2011-03-23T12:34:47Z</time>
      </trkpt>
      <trkpt lat="37.1482573425" lon="-7.57627183748">
        <ele>39</ele>
        <time>2011-03-23T12:34:50Z</time>
      </trkpt>
      <trkpt lat="37.1482477033" lon="-7.57626035428">
        <ele>39</ele>
        <time>2011-03-23T12:34:51Z</time>
      </trkpt>
      <trkpt lat="37.1482156006" lon="-7.57621291273">
        <ele>38.8</ele>
        <time>2011-03-23T12:34:55Z</time>
      </trkpt>
      <trkpt lat="37.1481907064" lon="-7.57619145506">
        <ele>38.8</ele>
        <time>2011-03-23T12:34:59Z</time>
      </trkpt>
      <trkpt lat="37.1481641358" lon="-7.57617234433">
        <ele>38.8</ele>
        <time>2011-03-23T12:35:02Z</time>
      </trkpt>
      <trkpt lat="37.1481518982" lon="-7.57614820446">
        <ele>38.4</ele>
        <time>2011-03-23T12:35:05Z</time>
      </trkpt>
      <trkpt lat="37.1481242379" lon="-7.57614107984">
        <ele>36.8</ele>
        <time>2011-03-23T12:35:29Z</time>
      </trkpt>
      <trkpt lat="37.1481041213" lon="-7.57614610898">
        <ele>36.6</ele>
        <time>2011-03-23T12:35:38Z</time>
      </trkpt>
      <trkpt lat="37.1481204661" lon="-7.57614158276">
        <ele>36.6</ele>
        <time>2011-03-23T12:36:13Z</time>
      </trkpt>
      <trkpt lat="37.1480731083" lon="-7.57612976428">
        <ele>36.6</ele>
        <time>2011-03-23T12:36:36Z</time>
      </trkpt>
      <trkpt lat="37.148048717" lon="-7.57611350339">
        <ele>36.6</ele>
        <time>2011-03-23T12:36:39Z</time>
      </trkpt>
      <trkpt lat="37.1480090706" lon="-7.57609313537">
        <ele>36.6</ele>
        <time>2011-03-23T12:36:43Z</time>
      </trkpt>
      <trkpt lat="37.1480017783" lon="-7.57608810623">
        <ele>36.6</ele>
        <time>2011-03-23T12:36:44Z</time>
      </trkpt>
      <trkpt lat="37.1479813265" lon="-7.5760711748">
        <ele>36.6</ele>
        <time>2011-03-23T12:36:52Z</time>
      </trkpt>
      <trkpt lat="37.1479555103" lon="-7.57605248316">
        <ele>36.6</ele>
        <time>2011-03-23T12:36:56Z</time>
      </trkpt>
      <trkpt lat="37.147915361" lon="-7.5760257449">
        <ele>36.6</ele>
        <time>2011-03-23T12:37:01Z</time>
      </trkpt>
      <trkpt lat="37.1479027043" lon="-7.5760191232">
        <ele>36.6</ele>
        <time>2011-03-23T12:37:02Z</time>
      </trkpt>
      <trkpt lat="37.1478566877" lon="-7.57598417067">
        <ele>36.6</ele>
        <time>2011-03-23T12:37:06Z</time>
      </trkpt>
      <trkpt lat="37.1478442824" lon="-7.57597746515">
        <ele>36.6</ele>
        <time>2011-03-23T12:37:07Z</time>
      </trkpt>
      <trkpt lat="37.1478168736" lon="-7.57596422175">
        <ele>36.6</ele>
        <time>2011-03-23T12:37:09Z</time>
      </trkpt>
      <trkpt lat="37.1477733716" lon="-7.57592273135">
        <ele>36.6</ele>
        <time>2011-03-23T12:37:13Z</time>
      </trkpt>
      <trkpt lat="37.1477641515" lon="-7.57591309216">
        <ele>36.6</ele>
        <time>2011-03-23T12:37:14Z</time>
      </trkpt>
      <trkpt lat="37.1477131057" lon="-7.57587881019">
        <ele>36.6</ele>
        <time>2011-03-23T12:37:18Z</time>
      </trkpt>
      <trkpt lat="37.1476887144" lon="-7.57585249103">
        <ele>36.6</ele>
        <time>2011-03-23T12:37:20Z</time>
      </trkpt>
      <trkpt lat="37.1476325557" lon="-7.57581502393">
        <ele>36.6</ele>
        <time>2011-03-23T12:37:24Z</time>
      </trkpt>
      <trkpt lat="37.1475906462" lon="-7.57579440446">
        <ele>36.6</ele>
        <time>2011-03-23T12:37:27Z</time>
      </trkpt>
      <trkpt lat="37.147550413" lon="-7.57577629955">
        <ele>36.6</ele>
        <time>2011-03-23T12:37:30Z</time>
      </trkpt>
      <trkpt lat="37.1475225013" lon="-7.57574201758">
        <ele>36.6</ele>
        <time>2011-03-23T12:37:33Z</time>
      </trkpt>
      <trkpt lat="37.1475090903" lon="-7.57573271367">
        <ele>36.6</ele>
        <time>2011-03-23T12:37:34Z</time>
      </trkpt>
      <trkpt lat="37.1474544403" lon="-7.575700611">
        <ele>36.6</ele>
        <time>2011-03-23T12:37:38Z</time>
      </trkpt>
      <trkpt lat="37.1474138719" lon="-7.57566792159">
        <ele>36.2</ele>
        <time>2011-03-23T12:37:41Z</time>
      </trkpt>
      <trkpt lat="37.1473775783" lon="-7.57563950695">
        <ele>35.8</ele>
        <time>2011-03-23T12:37:44Z</time>
      </trkpt>
      <trkpt lat="37.1473334895" lon="-7.57562198878">
        <ele>35.4</ele>
        <time>2011-03-23T12:37:47Z</time>
      </trkpt>
      <trkpt lat="37.1472966929" lon="-7.57560279422">
        <ele>35.2</ele>
        <time>2011-03-23T12:37:49Z</time>
      </trkpt>
      <trkpt lat="37.1472362594" lon="-7.57556532713">
        <ele>35</ele>
        <time>2011-03-23T12:37:53Z</time>
      </trkpt>
      <trkpt lat="37.1471985409" lon="-7.57553045843">
        <ele>35</ele>
        <time>2011-03-23T12:37:56Z</time>
      </trkpt>
      <trkpt lat="37.1471863871" lon="-7.57552190889">
        <ele>35</ele>
        <time>2011-03-23T12:37:57Z</time>
      </trkpt>
      <trkpt lat="37.147137353" lon="-7.57546499579">
        <ele>34.8</ele>
        <time>2011-03-23T12:38:01Z</time>
      </trkpt>
      <trkpt lat="37.1471159792" lon="-7.57544772907">
        <ele>34.8</ele>
        <time>2011-03-23T12:38:03Z</time>
      </trkpt>
      <trkpt lat="37.1470609939" lon="-7.57541763805">
        <ele>34.8</ele>
        <time>2011-03-23T12:38:07Z</time>
      </trkpt>
      <trkpt lat="37.1470307352" lon="-7.5753918218">
        <ele>34.8</ele>
        <time>2011-03-23T12:38:10Z</time>
      </trkpt>
      <trkpt lat="37.1469905021" lon="-7.57536407771">
        <ele>34.6</ele>
        <time>2011-03-23T12:38:13Z</time>
      </trkpt>
      <trkpt lat="37.1469487603" lon="-7.57533960256">
        <ele>34.6</ele>
        <time>2011-03-23T12:38:16Z</time>
      </trkpt>
      <trkpt lat="37.1469108741" lon="-7.57530657788">
        <ele>34.6</ele>
        <time>2011-03-23T12:38:19Z</time>
      </trkpt>
      <trkpt lat="37.1468770112" lon="-7.5752744752">
        <ele>34.6</ele>
        <time>2011-03-23T12:38:22Z</time>
      </trkpt>
      <trkpt lat="37.1468648574" lon="-7.57526709913">
        <ele>34.6</ele>
        <time>2011-03-23T12:38:23Z</time>
      </trkpt>
      <trkpt lat="37.1468180864" lon="-7.57525452628">
        <ele>34</ele>
        <time>2011-03-23T12:38:26Z</time>
      </trkpt>
      <trkpt lat="37.1467760931" lon="-7.57523600228">
        <ele>33.6</ele>
        <time>2011-03-23T12:38:29Z</time>
      </trkpt>
      <trkpt lat="37.1467583235" lon="-7.57523499645">
        <ele>33.6</ele>
        <time>2011-03-23T12:38:30Z</time>
      </trkpt>
      <trkpt lat="37.1467078644" lon="-7.57522502199">
        <ele>33.4</ele>
        <time>2011-03-23T12:38:33Z</time>
      </trkpt>
      <trkpt lat="37.1466615964" lon="-7.5752228427">
        <ele>33.2</ele>
        <time>2011-03-23T12:38:36Z</time>
      </trkpt>
      <trkpt lat="37.1466190163" lon="-7.57521429316">
        <ele>33</ele>
        <time>2011-03-23T12:38:39Z</time>
      </trkpt>
      <trkpt lat="37.1465741731" lon="-7.57521026985">
        <ele>32.8</ele>
        <time>2011-03-23T12:38:42Z</time>
      </trkpt>
      <trkpt lat="37.1465291623" lon="-7.57521907084">
        <ele>32.4</ele>
        <time>2011-03-23T12:38:45Z</time>
      </trkpt>
      <trkpt lat="37.1464849059" lon="-7.57522627928">
        <ele>32</ele>
        <time>2011-03-23T12:38:48Z</time>
      </trkpt>
      <trkpt lat="37.1464497857" lon="-7.57522150159">
        <ele>31.6</ele>
        <time>2011-03-23T12:38:51Z</time>
      </trkpt>
      <trkpt lat="37.1463994105" lon="-7.57521840029">
        <ele>31.2</ele>
        <time>2011-03-23T12:38:55Z</time>
      </trkpt>
      <trkpt lat="37.1463576687" lon="-7.57521110804">
        <ele>31</ele>
        <time>2011-03-23T12:38:58Z</time>
      </trkpt>
      <trkpt lat="37.1463480295" lon="-7.57520909638">
        <ele>31</ele>
        <time>2011-03-23T12:38:59Z</time>
      </trkpt>
      <trkpt lat="37.1463098918" lon="-7.57519937338">
        <ele>30.8</ele>
        <time>2011-03-23T12:39:03Z</time>
      </trkpt>
      <trkpt lat="37.146285249" lon="-7.57521161095">
        <ele>30.6</ele>
        <time>2011-03-23T12:39:23Z</time>
      </trkpt>
      <trkpt lat="37.146250548" lon="-7.57520557598">
        <ele>30.6</ele>
        <time>2011-03-23T12:39:26Z</time>
      </trkpt>
      <trkpt lat="37.1462255699" lon="-7.57519325459">
        <ele>30.6</ele>
        <time>2011-03-23T12:39:32Z</time>
      </trkpt>
      <trkpt lat="37.1462218819" lon="-7.57521974139">
        <ele>30.6</ele>
        <time>2011-03-23T12:40:10Z</time>
      </trkpt>
      <trkpt lat="37.1462453512" lon="-7.57524564147">
        <ele>30.6</ele>
        <time>2011-03-23T12:40:14Z</time>
      </trkpt>
      <trkpt lat="37.1462572535" lon="-7.57528612604">
        <ele>30.6</ele>
        <time>2011-03-23T12:40:18Z</time>
      </trkpt>
      <trkpt lat="37.1462540684" lon="-7.57533474106">
        <ele>30.6</ele>
        <time>2011-03-23T12:40:22Z</time>
      </trkpt>
      <trkpt lat="37.1462392324" lon="-7.57537715348">
        <ele>30.6</ele>
        <time>2011-03-23T12:40:25Z</time>
      </trkpt>
      <trkpt lat="37.1462140867" lon="-7.57541730278">
        <ele>30.6</ele>
        <time>2011-03-23T12:40:28Z</time>
      </trkpt>
      <trkpt lat="37.1462084708" lon="-7.57543163583">
        <ele>30.6</ele>
        <time>2011-03-23T12:40:29Z</time>
      </trkpt>
      <trkpt lat="37.1461767034" lon="-7.57547538934">
        <ele>30.6</ele>
        <time>2011-03-23T12:40:33Z</time>
      </trkpt>
      <trkpt lat="37.1461596882" lon="-7.57551805322">
        <ele>30.6</ele>
        <time>2011-03-23T12:40:36Z</time>
      </trkpt>
      <trkpt lat="37.1461480373" lon="-7.57554789278">
        <ele>30.6</ele>
        <time>2011-03-23T12:40:38Z</time>
      </trkpt>
      <trkpt lat="37.1461621189" lon="-7.57554697077">
        <ele>31.4</ele>
        <time>2011-03-23T12:40:43Z</time>
      </trkpt>
      <trkpt lat="37.14619221" lon="-7.57552224417">
        <ele>31.6</ele>
        <time>2011-03-23T12:40:46Z</time>
      </trkpt>
      <trkpt lat="37.1461992508" lon="-7.57551956196">
        <ele>31.8</ele>
        <time>2011-03-23T12:40:47Z</time>
      </trkpt>
      <trkpt lat="37.1462030226" lon="-7.57551352699">
        <ele>31.8</ele>
        <time>2011-03-23T12:40:48Z</time>
      </trkpt>
      <trkpt lat="37.1462001728" lon="-7.57551319171">
        <ele>32.2</ele>
        <time>2011-03-23T12:40:54Z</time>
      </trkpt>
      <trkpt lat="37.1461708361" lon="-7.57552534547">
        <ele>32.4</ele>
        <time>2011-03-23T12:41:03Z</time>
      </trkpt>
      <trkpt lat="37.1461536532" lon="-7.57553900797">
        <ele>32.4</ele>
        <time>2011-03-23T12:41:04Z</time>
      </trkpt>
      <trkpt lat="37.1461202094" lon="-7.57559432851">
        <ele>32.4</ele>
        <time>2011-03-23T12:41:06Z</time>
      </trkpt>
      <trkpt lat="37.1461082233" lon="-7.57562953249">
        <ele>32.4</ele>
        <time>2011-03-23T12:41:07Z</time>
      </trkpt>
      <trkpt lat="37.1460760368" lon="-7.57573363568">
        <ele>32.4</ele>
        <time>2011-03-23T12:41:10Z</time>
      </trkpt>
      <trkpt lat="37.1460628772" lon="-7.5758113359">
        <ele>32.6</ele>
        <time>2011-03-23T12:41:13Z</time>
      </trkpt>
      <trkpt lat="37.1460501368" lon="-7.57584813244">
        <ele>32.6</ele>
        <time>2011-03-23T12:41:17Z</time>
      </trkpt>
      <trkpt lat="37.1460498015" lon="-7.57586573443">
        <ele>32.6</ele>
        <time>2011-03-23T12:41:28Z</time>
      </trkpt>
      <trkpt lat="37.1460401623" lon="-7.57587805582">
        <ele>32.6</ele>
        <time>2011-03-23T12:41:30Z</time>
      </trkpt>
      <trkpt lat="37.1460268351" lon="-7.57592432391">
        <ele>32.6</ele>
        <time>2011-03-23T12:41:35Z</time>
      </trkpt>
      <trkpt lat="37.1460186208" lon="-7.57593505274">
        <ele>32.6</ele>
        <time>2011-03-23T12:41:39Z</time>
      </trkpt>
      <trkpt lat="37.1459962411" lon="-7.57597277129">
        <ele>32.6</ele>
        <time>2011-03-23T12:41:44Z</time>
      </trkpt>
      <trkpt lat="37.1459803155" lon="-7.57595718096">
        <ele>32.6</ele>
        <time>2011-03-23T12:41:52Z</time>
      </trkpt>
      <trkpt lat="37.145959277" lon="-7.57595550458">
        <ele>32.6</ele>
        <time>2011-03-23T12:41:54Z</time>
      </trkpt>
      <trkpt lat="37.1459506436" lon="-7.57591158342">
        <ele>32.6</ele>
        <time>2011-03-23T12:41:59Z</time>
      </trkpt>
      <trkpt lat="37.1459529905" lon="-7.57586665644">
        <ele>32.4</ele>
        <time>2011-03-23T12:42:03Z</time>
      </trkpt>
      <trkpt lat="37.1459555051" lon="-7.57584385767">
        <ele>32.2</ele>
        <time>2011-03-23T12:42:04Z</time>
      </trkpt>
      <trkpt lat="37.1459679941" lon="-7.57578459764">
        <ele>31.8</ele>
        <time>2011-03-23T12:42:07Z</time>
      </trkpt>
      <trkpt lat="37.1459679941" lon="-7.57577546136">
        <ele>31.6</ele>
        <time>2011-03-23T12:42:08Z</time>
      </trkpt>
      <trkpt lat="37.1459634679" lon="-7.5757592843">
        <ele>31.4</ele>
        <time>2011-03-23T12:42:10Z</time>
      </trkpt>
      <trkpt lat="37.1459546669" lon="-7.57575165677">
        <ele>31.2</ele>
        <time>2011-03-23T12:42:12Z</time>
      </trkpt>
      <trkpt lat="37.1459151043" lon="-7.57571821299">
        <ele>30.8</ele>
        <time>2011-03-23T12:42:21Z</time>
      </trkpt>
      <trkpt lat="37.1459025315" lon="-7.57571310003">
        <ele>30.8</ele>
        <time>2011-03-23T12:42:22Z</time>
      </trkpt>
      <trkpt lat="37.1458695906" lon="-7.57571586606">
        <ele>30.8</ele>
        <time>2011-03-23T12:42:25Z</time>
      </trkpt>
      <trkpt lat="37.145831453" lon="-7.5757235774">
        <ele>30</ele>
        <time>2011-03-23T12:42:29Z</time>
      </trkpt>
      <trkpt lat="37.1458228196" lon="-7.57572542142">
        <ele>29.8</ele>
        <time>2011-03-23T12:42:30Z</time>
      </trkpt>
      <trkpt lat="37.1458329617" lon="-7.57569608477">
        <ele>29.2</ele>
        <time>2011-03-23T12:42:36Z</time>
      </trkpt>
      <trkpt lat="37.1458432715" lon="-7.57566825686">
        <ele>28.4</ele>
        <time>2011-03-23T12:42:40Z</time>
      </trkpt>
      <trkpt lat="37.1458389129" lon="-7.57568275755">
        <ele>27.6</ele>
        <time>2011-03-23T12:42:45Z</time>
      </trkpt>
      <trkpt lat="37.145852743" lon="-7.5757222363">
        <ele>27.2</ele>
        <time>2011-03-23T12:42:49Z</time>
      </trkpt>
      <trkpt lat="37.1458816606" lon="-7.57572039228">
        <ele>26.8</ele>
        <time>2011-03-23T12:42:54Z</time>
      </trkpt>
      <trkpt lat="37.1459104105" lon="-7.57573606643">
        <ele>26.8</ele>
        <time>2011-03-23T12:42:57Z</time>
      </trkpt>
      <trkpt lat="37.1459371487" lon="-7.57575241114">
        <ele>26.6</ele>
        <time>2011-03-23T12:43:00Z</time>
      </trkpt>
      <trkpt lat="37.1459449439" lon="-7.5757610445">
        <ele>26.6</ele>
        <time>2011-03-23T12:43:01Z</time>
      </trkpt>
      <trkpt lat="37.1459576844" lon="-7.57579792486">
        <ele>26.6</ele>
        <time>2011-03-23T12:43:05Z</time>
      </trkpt>
      <trkpt lat="37.1459609533" lon="-7.5758307819">
        <ele>26.4</ele>
        <time>2011-03-23T12:43:09Z</time>
      </trkpt>
      <trkpt lat="37.1459508951" lon="-7.57585877745">
        <ele>26.4</ele>
        <time>2011-03-23T12:43:14Z</time>
      </trkpt>
      <trkpt lat="37.145946285" lon="-7.57588073803">
        <ele>26.4</ele>
        <time>2011-03-23T12:43:19Z</time>
      </trkpt>
      <trkpt lat="37.1459506436" lon="-7.57592063587">
        <ele>26.4</ele>
        <time>2011-03-23T12:43:25Z</time>
      </trkpt>
      <trkpt lat="37.1459485481" lon="-7.57596288065">
        <ele>26.4</ele>
        <time>2011-03-23T12:43:29Z</time>
      </trkpt>
      <trkpt lat="37.1459432675" lon="-7.57600906492">
        <ele>26.4</ele>
        <time>2011-03-23T12:43:33Z</time>
      </trkpt>
      <trkpt lat="37.1459389089" lon="-7.57602247596">
        <ele>26.4</ele>
        <time>2011-03-23T12:43:34Z</time>
      </trkpt>
      <trkpt lat="37.1459218099" lon="-7.57606690003">
        <ele>26.4</ele>
        <time>2011-03-23T12:43:37Z</time>
      </trkpt>
      <trkpt lat="37.1459065548" lon="-7.57608659749">
        <ele>26.4</ele>
        <time>2011-03-23T12:43:38Z</time>
      </trkpt>
      <trkpt lat="37.1458617955" lon="-7.57616446534">
        <ele>26.4</ele>
        <time>2011-03-23T12:43:41Z</time>
      </trkpt>
      <trkpt lat="37.1458397511" lon="-7.57621785805">
        <ele>26.4</ele>
        <time>2011-03-23T12:43:43Z</time>
      </trkpt>
      <trkpt lat="37.1458161141" lon="-7.57626437759">
        <ele>26.4</ele>
        <time>2011-03-23T12:43:45Z</time>
      </trkpt>
      <trkpt lat="37.1457755457" lon="-7.57631483663">
        <ele>26.4</ele>
        <time>2011-03-23T12:43:47Z</time>
      </trkpt>
      <trkpt lat="37.14571243" lon="-7.57641156376">
        <ele>26.4</ele>
        <time>2011-03-23T12:43:50Z</time>
      </trkpt>
      <trkpt lat="37.1456797406" lon="-7.57648867723">
        <ele>26.4</ele>
        <time>2011-03-23T12:43:52Z</time>
      </trkpt>
      <trkpt lat="37.1456509907" lon="-7.57655145767">
        <ele>26.4</ele>
        <time>2011-03-23T12:43:54Z</time>
      </trkpt>
      <trkpt lat="37.1456224084" lon="-7.5766274815">
        <ele>26.8</ele>
        <time>2011-03-23T12:43:56Z</time>
      </trkpt>
      <trkpt lat="37.1455937423" lon="-7.57670400825">
        <ele>27</ele>
        <time>2011-03-23T12:43:58Z</time>
      </trkpt>
      <trkpt lat="37.1455592089" lon="-7.57677265601">
        <ele>27.4</ele>
        <time>2011-03-23T12:44:00Z</time>
      </trkpt>
      <trkpt lat="37.1455245916" lon="-7.57684331542">
        <ele>27.6</ele>
        <time>2011-03-23T12:44:02Z</time>
      </trkpt>
      <trkpt lat="37.1454913155" lon="-7.57691707614">
        <ele>27.8</ele>
        <time>2011-03-23T12:44:04Z</time>
      </trkpt>
      <trkpt lat="37.145456363" lon="-7.57698245496">
        <ele>28</ele>
        <time>2011-03-23T12:44:06Z</time>
      </trkpt>
      <trkpt lat="37.1454234221" lon="-7.57704464866">
        <ele>28.6</ele>
        <time>2011-03-23T12:44:08Z</time>
      </trkpt>
      <trkpt lat="37.1453816802" lon="-7.57710441161">
        <ele>28.8</ele>
        <time>2011-03-23T12:44:10Z</time>
      </trkpt>
      <trkpt lat="37.1453407766" lon="-7.57716518038">
        <ele>29.2</ele>
        <time>2011-03-23T12:44:12Z</time>
      </trkpt>
      <trkpt lat="37.1453015493" lon="-7.57722485951">
        <ele>29.4</ele>
        <time>2011-03-23T12:44:14Z</time>
      </trkpt>
      <trkpt lat="37.1452515931" lon="-7.57727531855">
        <ele>29.8</ele>
        <time>2011-03-23T12:44:16Z</time>
      </trkpt>
      <trkpt lat="37.145204403" lon="-7.57732133518">
        <ele>30.4</ele>
        <time>2011-03-23T12:44:18Z</time>
      </trkpt>
      <trkpt lat="37.1451604819" lon="-7.57737330296">
        <ele>30.8</ele>
        <time>2011-03-23T12:44:20Z</time>
      </trkpt>
      <trkpt lat="37.1451209193" lon="-7.57742921023">
        <ele>31</ele>
        <time>2011-03-23T12:44:22Z</time>
      </trkpt>
      <trkpt lat="37.1450878946" lon="-7.57749073338">
        <ele>31.4</ele>
        <time>2011-03-23T12:44:24Z</time>
      </trkpt>
      <trkpt lat="37.1450528583" lon="-7.57754689211">
        <ele>31.6</ele>
        <time>2011-03-23T12:44:26Z</time>
      </trkpt>
      <trkpt lat="37.145009943" lon="-7.57759584241">
        <ele>32</ele>
        <time>2011-03-23T12:44:28Z</time>
      </trkpt>
      <trkpt lat="37.1449723082" lon="-7.57765434807">
        <ele>32.4</ele>
        <time>2011-03-23T12:44:30Z</time>
      </trkpt>
      <trkpt lat="37.1449454023" lon="-7.57772081654">
        <ele>32.8</ele>
        <time>2011-03-23T12:44:32Z</time>
      </trkpt>
      <trkpt lat="37.1449343382" lon="-7.57779415816">
        <ele>33.2</ele>
        <time>2011-03-23T12:44:34Z</time>
      </trkpt>
      <trkpt lat="37.1449335839" lon="-7.57786808652">
        <ele>33.4</ele>
        <time>2011-03-23T12:44:36Z</time>
      </trkpt>
      <trkpt lat="37.1449336677" lon="-7.57795081587">
        <ele>33.6</ele>
        <time>2011-03-23T12:44:38Z</time>
      </trkpt>
      <trkpt lat="37.1449196699" lon="-7.57803195266">
        <ele>33.8</ele>
        <time>2011-03-23T12:44:40Z</time>
      </trkpt>
      <trkpt lat="37.1448937698" lon="-7.57810336645">
        <ele>34.4</ele>
        <time>2011-03-23T12:44:42Z</time>
      </trkpt>
      <trkpt lat="37.1448295645" lon="-7.57823035224">
        <ele>35</ele>
        <time>2011-03-23T12:44:46Z</time>
      </trkpt>
      <trkpt lat="37.1447957016" lon="-7.57827653651">
        <ele>35.4</ele>
        <time>2011-03-23T12:44:48Z</time>
      </trkpt>
      <trkpt lat="37.1447646886" lon="-7.57832154731">
        <ele>35.6</ele>
        <time>2011-03-23T12:44:50Z</time>
      </trkpt>
      <trkpt lat="37.1447497688" lon="-7.57834199914">
        <ele>35.8</ele>
        <time>2011-03-23T12:44:51Z</time>
      </trkpt>
      <trkpt lat="37.1446947835" lon="-7.57837636493">
        <ele>36</ele>
        <time>2011-03-23T12:44:56Z</time>
      </trkpt>
      <trkpt lat="37.1446549695" lon="-7.57839011125">
        <ele>36.2</ele>
        <time>2011-03-23T12:44:59Z</time>
      </trkpt>
      <trkpt lat="37.1446185921" lon="-7.57839639768">
        <ele>36.2</ele>
        <time>2011-03-23T12:45:02Z</time>
      </trkpt>
      <trkpt lat="37.144586657" lon="-7.57840427666">
        <ele>36.4</ele>
        <time>2011-03-23T12:45:05Z</time>
      </trkpt>
      <trkpt lat="37.144580622" lon="-7.57840519867">
        <ele>36.4</ele>
        <time>2011-03-23T12:45:06Z</time>
      </trkpt>
      <trkpt lat="37.1445791133" lon="-7.5784428334">
        <ele>36.4</ele>
        <time>2011-03-23T12:45:11Z</time>
      </trkpt>
      <trkpt lat="37.1445794486" lon="-7.57845683117">
        <ele>36.4</ele>
        <time>2011-03-23T12:45:12Z</time>
      </trkpt>
      <trkpt lat="37.1445767664" lon="-7.57849999796">
        <ele>36.4</ele>
        <time>2011-03-23T12:45:15Z</time>
      </trkpt>
      <trkpt lat="37.1446044266" lon="-7.57848214451">
        <ele>36.6</ele>
        <time>2011-03-23T12:45:29Z</time>
      </trkpt>
      <trkpt lat="37.1446506947" lon="-7.57843378095">
        <ele>36.6</ele>
        <time>2011-03-23T12:45:31Z</time>
      </trkpt>
      <trkpt lat="37.1446986392" lon="-7.57837955006">
        <ele>36.6</ele>
        <time>2011-03-23T12:45:33Z</time>
      </trkpt>
      <trkpt lat="37.1447475895" lon="-7.57832154731">
        <ele>36.6</ele>
        <time>2011-03-23T12:45:35Z</time>
      </trkpt>
      <trkpt lat="37.1447865653" lon="-7.57826974717">
        <ele>36.6</ele>
        <time>2011-03-23T12:45:37Z</time>
      </trkpt>
      <trkpt lat="37.1448198415" lon="-7.57821928813">
        <ele>36.6</ele>
        <time>2011-03-23T12:45:39Z</time>
      </trkpt>
      <trkpt lat="37.1448542911" lon="-7.57814661706">
        <ele>36.6</ele>
        <time>2011-03-23T12:45:42Z</time>
      </trkpt>
      <trkpt lat="37.1448847174" lon="-7.57814611414">
        <ele>36.6</ele>
        <time>2011-03-23T12:45:53Z</time>
      </trkpt>
      <trkpt lat="37.1449034928" lon="-7.5782028596">
        <ele>36.6</ele>
        <time>2011-03-23T12:45:56Z</time>
      </trkpt>
      <trkpt lat="37.144921011" lon="-7.57826237109">
        <ele>36.6</ele>
        <time>2011-03-23T12:45:59Z</time>
      </trkpt>
      <trkpt lat="37.1449355955" lon="-7.57831157285">
        <ele>36.6</ele>
        <time>2011-03-23T12:46:02Z</time>
      </trkpt>
      <trkpt lat="37.1449497609" lon="-7.57836228334">
        <ele>36.6</ele>
        <time>2011-03-23T12:46:05Z</time>
      </trkpt>
      <trkpt lat="37.1449660218" lon="-7.57841542459">
        <ele>36.6</ele>
        <time>2011-03-23T12:46:08Z</time>
      </trkpt>
      <trkpt lat="37.1449804387" lon="-7.57846940402">
        <ele>36.6</ele>
        <time>2011-03-23T12:46:11Z</time>
      </trkpt>
      <trkpt lat="37.1449971187" lon="-7.57851575593">
        <ele>36.6</ele>
        <time>2011-03-23T12:46:14Z</time>
      </trkpt>
      <trkpt lat="37.1450141339" lon="-7.57856018">
        <ele>36.6</ele>
        <time>2011-03-23T12:46:17Z</time>
      </trkpt>
      <trkpt lat="37.1450324065" lon="-7.57859177976">
        <ele>36.6</ele>
        <time>2011-03-23T12:46:20Z</time>
      </trkpt>
      <trkpt lat="37.145084039" lon="-7.57861181251">
        <ele>36.6</ele>
        <time>2011-03-23T12:46:24Z</time>
      </trkpt>
      <trkpt lat="37.1451219251" lon="-7.57862497209">
        <ele>36.6</ele>
        <time>2011-03-23T12:46:27Z</time>
      </trkpt>
      <trkpt lat="37.1451373478" lon="-7.57863972423">
        <ele>36.6</ele>
        <time>2011-03-23T12:46:29Z</time>
      </trkpt>
      <trkpt lat="37.1451813528" lon="-7.57863486273">
        <ele>36.6</ele>
        <time>2011-03-23T12:46:34Z</time>
      </trkpt>
      <trkpt lat="37.1451893156" lon="-7.57863016887">
        <ele>36.6</ele>
        <time>2011-03-23T12:46:35Z</time>
      </trkpt>
      <trkpt lat="37.1452023914" lon="-7.57863125851">
        <ele>36.6</ele>
        <time>2011-03-23T12:46:37Z</time>
      </trkpt>
      <trkpt lat="37.1452474022" lon="-7.57866713305">
        <ele>36.6</ele>
        <time>2011-03-23T12:46:40Z</time>
      </trkpt>
      <trkpt lat="37.1452931674" lon="-7.57870669561">
        <ele>36.6</ele>
        <time>2011-03-23T12:46:42Z</time>
      </trkpt>
      <trkpt lat="37.145334993" lon="-7.57876419545">
        <ele>36.6</ele>
        <time>2011-03-23T12:46:44Z</time>
      </trkpt>
      <trkpt lat="37.1453577918" lon="-7.57878791622">
        <ele>36.6</ele>
        <time>2011-03-23T12:46:45Z</time>
      </trkpt>
      <trkpt lat="37.1453940016" lon="-7.57883342994">
        <ele>36.6</ele>
        <time>2011-03-23T12:46:47Z</time>
      </trkpt>
      <trkpt lat="37.1454141182" lon="-7.57884985847">
        <ele>36.6</ele>
        <time>2011-03-23T12:46:48Z</time>
      </trkpt>
      <trkpt lat="37.1454654992" lon="-7.57888145823">
        <ele>36.6</ele>
        <time>2011-03-23T12:46:50Z</time>
      </trkpt>
      <trkpt lat="37.1455157068" lon="-7.57890266444">
        <ele>36.6</ele>
        <time>2011-03-23T12:46:52Z</time>
      </trkpt>
      <trkpt lat="37.1455629807" lon="-7.57892822923">
        <ele>36.6</ele>
        <time>2011-03-23T12:46:54Z</time>
      </trkpt>
      <trkpt lat="37.145604974" lon="-7.57895664387">
        <ele>36.6</ele>
        <time>2011-03-23T12:46:56Z</time>
      </trkpt>
      <trkpt lat="37.1456530861" lon="-7.57898187339">
        <ele>36.6</ele>
        <time>2011-03-23T12:46:58Z</time>
      </trkpt>
      <trkpt lat="37.1457188841" lon="-7.57900668381">
        <ele>36.6</ele>
        <time>2011-03-23T12:47:01Z</time>
      </trkpt>
      <trkpt lat="37.1457836762" lon="-7.57902713565">
        <ele>36.6</ele>
        <time>2011-03-23T12:47:04Z</time>
      </trkpt>
      <trkpt lat="37.1458354763" lon="-7.57902587836">
        <ele>36.6</ele>
        <time>2011-03-23T12:47:06Z</time>
      </trkpt>
      <trkpt lat="37.1458850971" lon="-7.5790198434">
        <ele>36.6</ele>
        <time>2011-03-23T12:47:08Z</time>
      </trkpt>
      <trkpt lat="37.1459462012" lon="-7.5790401276">
        <ele>36.6</ele>
        <time>2011-03-23T12:47:11Z</time>
      </trkpt>
      <trkpt lat="37.1459944809" lon="-7.5790745772">
        <ele>36.6</ele>
        <time>2011-03-23T12:47:13Z</time>
      </trkpt>
      <trkpt lat="37.1460488795" lon="-7.57910064491">
        <ele>36.6</ele>
        <time>2011-03-23T12:47:15Z</time>
      </trkpt>
      <trkpt lat="37.1460983327" lon="-7.57912084529">
        <ele>36.6</ele>
        <time>2011-03-23T12:47:17Z</time>
      </trkpt>
      <trkpt lat="37.1461506357" lon="-7.57913358578">
        <ele>36.6</ele>
        <time>2011-03-23T12:47:19Z</time>
      </trkpt>
      <trkpt lat="37.1461979935" lon="-7.5791583962">
        <ele>36.6</ele>
        <time>2011-03-23T12:47:21Z</time>
      </trkpt>
      <trkpt lat="37.14625608" lon="-7.57919946751">
        <ele>36.6</ele>
        <time>2011-03-23T12:47:24Z</time>
      </trkpt>
      <trkpt lat="37.1463048627" lon="-7.57923106728">
        <ele>36.6</ele>
        <time>2011-03-23T12:47:26Z</time>
      </trkpt>
      <trkpt lat="37.146353813" lon="-7.57925973338">
        <ele>36.6</ele>
        <time>2011-03-23T12:47:28Z</time>
      </trkpt>
      <trkpt lat="37.146432519" lon="-7.57925747026">
        <ele>36.6</ele>
        <time>2011-03-23T12:47:31Z</time>
      </trkpt>
      <trkpt lat="37.1464712434" lon="-7.57924372395">
        <ele>36.6</ele>
        <time>2011-03-23T12:47:33Z</time>
      </trkpt>
      <trkpt lat="37.1465224568" lon="-7.57925294404">
        <ele>36.6</ele>
        <time>2011-03-23T12:47:38Z</time>
      </trkpt>
      <trkpt lat="37.1465932839" lon="-7.57927909556">
        <ele>36.6</ele>
        <time>2011-03-23T12:47:41Z</time>
      </trkpt>
      <trkpt lat="37.1466558967" lon="-7.57929946358">
        <ele>36.6</ele>
        <time>2011-03-23T12:47:43Z</time>
      </trkpt>
      <trkpt lat="37.1467109657" lon="-7.57932477692">
        <ele>36.6</ele>
        <time>2011-03-23T12:47:45Z</time>
      </trkpt>
      <trkpt lat="37.146750696" lon="-7.57934833006">
        <ele>36.6</ele>
        <time>2011-03-23T12:47:47Z</time>
      </trkpt>
      <trkpt lat="37.1468323357" lon="-7.57937138028">
        <ele>36.6</ele>
        <time>2011-03-23T12:47:50Z</time>
      </trkpt>
      <trkpt lat="37.1468568108" lon="-7.57937749907">
        <ele>36</ele>
        <time>2011-03-23T12:47:55Z</time>
      </trkpt>
      <trkpt lat="37.146847926" lon="-7.57935721487">
        <ele>35.2</ele>
        <time>2011-03-23T12:48:02Z</time>
      </trkpt>
      <trkpt lat="37.1468290667" lon="-7.57933517048">
        <ele>35</ele>
        <time>2011-03-23T12:48:06Z</time>
      </trkpt>
      <trkpt lat="37.1468045078" lon="-7.57930407363">
        <ele>34.8</ele>
        <time>2011-03-23T12:48:10Z</time>
      </trkpt>
      <trkpt lat="37.1467938627" lon="-7.57929200369">
        <ele>34.8</ele>
        <time>2011-03-23T12:48:11Z</time>
      </trkpt>
      <trkpt lat="37.1467612571" lon="-7.57926945638">
        <ele>34.8</ele>
        <time>2011-03-23T12:48:14Z</time>
      </trkpt>
      <trkpt lat="37.1467493549" lon="-7.5792593981">
        <ele>34.6</ele>
        <time>2011-03-23T12:48:22Z</time>
      </trkpt>
      <trkpt lat="37.1467185933" lon="-7.57924364013">
        <ele>34.6</ele>
        <time>2011-03-23T12:48:28Z</time>
      </trkpt>
      <trkpt lat="37.1466815453" lon="-7.57922343975">
        <ele>34.6</ele>
        <time>2011-03-23T12:48:31Z</time>
      </trkpt>
      <trkpt lat="37.1466449164" lon="-7.57921463875">
        <ele>34.6</ele>
        <time>2011-03-23T12:48:34Z</time>
      </trkpt>
      <trkpt lat="37.1466028392" lon="-7.57920466429">
        <ele>34.6</ele>
        <time>2011-03-23T12:48:37Z</time>
      </trkpt>
      <trkpt lat="37.1465661265" lon="-7.57919125325">
        <ele>34.6</ele>
        <time>2011-03-23T12:48:40Z</time>
      </trkpt>
      <trkpt lat="37.1465539728" lon="-7.57918479919">
        <ele>34.6</ele>
        <time>2011-03-23T12:48:41Z</time>
      </trkpt>
      <trkpt lat="37.1465178468" lon="-7.57916359298">
        <ele>34.6</ele>
        <time>2011-03-23T12:48:44Z</time>
      </trkpt>
      <trkpt lat="37.1464807988" lon="-7.57914297351">
        <ele>34.6</ele>
        <time>2011-03-23T12:48:47Z</time>
      </trkpt>
      <trkpt lat="37.1464488637" lon="-7.57912830518">
        <ele>34.6</ele>
        <time>2011-03-23T12:48:50Z</time>
      </trkpt>
      <trkpt lat="37.146413073" lon="-7.57911665434">
        <ele>34.6</ele>
        <time>2011-03-23T12:48:53Z</time>
      </trkpt>
      <trkpt lat="37.1463997458" lon="-7.57911196048">
        <ele>34.6</ele>
        <time>2011-03-23T12:48:54Z</time>
      </trkpt>
      <trkpt lat="37.1463587583" lon="-7.5790820371">
        <ele>34.6</ele>
        <time>2011-03-23T12:48:58Z</time>
      </trkpt>
      <trkpt lat="37.1463483648" lon="-7.57907709177">
        <ele>34.6</ele>
        <time>2011-03-23T12:48:59Z</time>
      </trkpt>
      <trkpt lat="37.1463177708" lon="-7.57906460274">
        <ele>34.6</ele>
        <time>2011-03-23T12:49:02Z</time>
      </trkpt>
      <trkpt lat="37.1462701616" lon="-7.57908932935">
        <ele>34.6</ele>
        <time>2011-03-23T12:49:06Z</time>
      </trkpt>
      <trkpt lat="37.1462351253" lon="-7.57910081255">
        <ele>34.6</ele>
        <time>2011-03-23T12:49:09Z</time>
      </trkpt>
      <trkpt lat="37.1461894439" lon="-7.57909569959">
        <ele>34.6</ele>
        <time>2011-03-23T12:49:13Z</time>
      </trkpt>
      <trkpt lat="37.1461574251" lon="-7.57908723387">
        <ele>34.6</ele>
        <time>2011-03-23T12:49:16Z</time>
      </trkpt>
      <trkpt lat="37.1461233946" lon="-7.57908111509">
        <ele>34.6</ele>
        <time>2011-03-23T12:49:19Z</time>
      </trkpt>
      <trkpt lat="37.1460825747" lon="-7.57907616976">
        <ele>34.6</ele>
        <time>2011-03-23T12:49:22Z</time>
      </trkpt>
      <trkpt lat="37.1460539086" lon="-7.5790763374">
        <ele>34.6</ele>
        <time>2011-03-23T12:49:25Z</time>
      </trkpt>
      <trkpt lat="37.146038905" lon="-7.57906879369">
        <ele>34.6</ele>
        <time>2011-03-23T12:49:27Z</time>
      </trkpt>
      <trkpt lat="37.1460017732" lon="-7.57903560137">
        <ele>34.6</ele>
        <time>2011-03-23T12:49:31Z</time>
      </trkpt>
      <trkpt lat="37.1459625459" lon="-7.57902084923">
        <ele>34.6</ele>
        <time>2011-03-23T12:49:34Z</time>
      </trkpt>
      <trkpt lat="37.1459496378" lon="-7.57902076541">
        <ele>34.6</ele>
        <time>2011-03-23T12:49:35Z</time>
      </trkpt>
      <trkpt lat="37.1459285154" lon="-7.57902948258">
        <ele>34.6</ele>
        <time>2011-03-23T12:49:37Z</time>
      </trkpt>
      <trkpt lat="37.1458933952" lon="-7.57904021141">
        <ele>34.6</ele>
        <time>2011-03-23T12:49:42Z</time>
      </trkpt>
      <trkpt lat="37.1458795651" lon="-7.57904364799">
        <ele>34.6</ele>
        <time>2011-03-23T12:49:56Z</time>
      </trkpt>
      <trkpt lat="37.1458639748" lon="-7.57906569239">
        <ele>34.6</ele>
        <time>2011-03-23T12:50:06Z</time>
      </trkpt>
      <trkpt lat="37.1458601191" lon="-7.579053371">
        <ele>34.6</ele>
        <time>2011-03-23T12:50:35Z</time>
      </trkpt>
      <trkpt lat="37.1458436067" lon="-7.57906368073">
        <ele>34.6</ele>
        <time>2011-03-23T12:50:54Z</time>
      </trkpt>
      <trkpt lat="37.1458394158" lon="-7.57906845842">
        <ele>34.6</ele>
        <time>2011-03-23T12:51:03Z</time>
      </trkpt>
      <trkpt lat="37.1458309501" lon="-7.57907893579">
        <ele>34.6</ele>
        <time>2011-03-23T12:51:12Z</time>
      </trkpt>
      <trkpt lat="37.1458052176" lon="-7.57912998156">
        <ele>34.6</ele>
        <time>2011-03-23T12:51:16Z</time>
      </trkpt>
      <trkpt lat="37.1457767192" lon="-7.57916124605">
        <ele>34.6</ele>
        <time>2011-03-23T12:51:19Z</time>
      </trkpt>
      <trkpt lat="37.145763392" lon="-7.57918521828">
        <ele>34.6</ele>
        <time>2011-03-23T12:51:21Z</time>
      </trkpt>
      <trkpt lat="37.1457537528" lon="-7.57921254328">
        <ele>34.6</ele>
        <time>2011-03-23T12:51:23Z</time>
      </trkpt>
      <trkpt lat="37.1457497295" lon="-7.5792192488">
        <ele>34.6</ele>
        <time>2011-03-23T12:51:24Z</time>
      </trkpt>
      <trkpt lat="37.1457380786" lon="-7.57926266704">
        <ele>34.6</ele>
        <time>2011-03-23T12:51:30Z</time>
      </trkpt>
      <trkpt lat="37.1457288585" lon="-7.57929963122">
        <ele>34.6</ele>
        <time>2011-03-23T12:51:33Z</time>
      </trkpt>
      <trkpt lat="37.14571243" lon="-7.5793551194">
        <ele>34.6</ele>
        <time>2011-03-23T12:51:36Z</time>
      </trkpt>
      <trkpt lat="37.1456976779" lon="-7.57940339914">
        <ele>34.6</ele>
        <time>2011-03-23T12:51:39Z</time>
      </trkpt>
      <trkpt lat="37.1456900503" lon="-7.57943583709">
        <ele>34.6</ele>
        <time>2011-03-23T12:51:43Z</time>
      </trkpt>
      <trkpt lat="37.1456830095" lon="-7.57946743686">
        <ele>34.6</ele>
        <time>2011-03-23T12:51:48Z</time>
      </trkpt>
      <trkpt lat="37.1456729513" lon="-7.57951068746">
        <ele>34.6</ele>
        <time>2011-03-23T12:51:52Z</time>
      </trkpt>
      <trkpt lat="37.1456636473" lon="-7.57954983093">
        <ele>34.6</ele>
        <time>2011-03-23T12:51:56Z</time>
      </trkpt>
      <trkpt lat="37.1456588697" lon="-7.57957019895">
        <ele>34.6</ele>
        <time>2011-03-23T12:51:58Z</time>
      </trkpt>
      <trkpt lat="37.1456519965" lon="-7.57960598966">
        <ele>34.6</ele>
        <time>2011-03-23T12:52:03Z</time>
      </trkpt>
      <trkpt lat="37.1456438661" lon="-7.57964236711">
        <ele>34.6</ele>
        <time>2011-03-23T12:52:07Z</time>
      </trkpt>
      <trkpt lat="37.1456385016" lon="-7.57966952447">
        <ele>34.6</ele>
        <time>2011-03-23T12:52:12Z</time>
      </trkpt>
      <trkpt lat="37.145635568" lon="-7.57968721028">
        <ele>34.6</ele>
        <time>2011-03-23T12:52:22Z</time>
      </trkpt>
      <trkpt lat="37.1456364062" lon="-7.57972358772">
        <ele>34.6</ele>
        <time>2011-03-23T12:52:35Z</time>
      </trkpt>
      <trkpt lat="37.1456334725" lon="-7.57975376256">
        <ele>34.6</ele>
        <time>2011-03-23T12:52:40Z</time>
      </trkpt>
      <trkpt lat="37.145625845" lon="-7.5797927384">
        <ele>34.6</ele>
        <time>2011-03-23T12:52:45Z</time>
      </trkpt>
      <trkpt lat="37.1456381664" lon="-7.57981796791">
        <ele>34.6</ele>
        <time>2011-03-23T12:52:50Z</time>
      </trkpt>
      <trkpt lat="37.1456603784" lon="-7.57984428708">
        <ele>34.6</ele>
        <time>2011-03-23T12:52:58Z</time>
      </trkpt>
      <trkpt lat="37.1456775613" lon="-7.57987605448">
        <ele>34.6</ele>
        <time>2011-03-23T12:53:03Z</time>
      </trkpt>
      <trkpt lat="37.1456720292" lon="-7.57990396621">
        <ele>34.6</ele>
        <time>2011-03-23T12:53:07Z</time>
      </trkpt>
      <trkpt lat="37.145663815" lon="-7.57994218767">
        <ele>34.6</ele>
        <time>2011-03-23T12:53:11Z</time>
      </trkpt>
      <trkpt lat="37.1456571095" lon="-7.57998149878">
        <ele>34.6</ele>
        <time>2011-03-23T12:53:15Z</time>
      </trkpt>
      <trkpt lat="37.1456476379" lon="-7.5800190497">
        <ele>34.6</ele>
        <time>2011-03-23T12:53:19Z</time>
      </trkpt>
      <trkpt lat="37.1456431117" lon="-7.58005475659">
        <ele>34.6</ele>
        <time>2011-03-23T12:53:22Z</time>
      </trkpt>
      <trkpt lat="37.1456105061" lon="-7.58009591172">
        <ele>34.6</ele>
        <time>2011-03-23T12:53:26Z</time>
      </trkpt>
      <trkpt lat="37.1456183013" lon="-7.58013924614">
        <ele>34.6</ele>
        <time>2011-03-23T12:53:29Z</time>
      </trkpt>
      <trkpt lat="37.1456410162" lon="-7.58015777014">
        <ele>34.6</ele>
        <time>2011-03-23T12:53:31Z</time>
      </trkpt>
      <trkpt lat="37.1456870328" lon="-7.58018652006">
        <ele>34.6</ele>
        <time>2011-03-23T12:53:35Z</time>
      </trkpt>
      <trkpt lat="37.1457110051" lon="-7.58021258777">
        <ele>34.6</ele>
        <time>2011-03-23T12:53:38Z</time>
      </trkpt>
      <trkpt lat="37.1457252543" lon="-7.58024904903">
        <ele>34.6</ele>
        <time>2011-03-23T12:53:41Z</time>
      </trkpt>
      <trkpt lat="37.1457265954" lon="-7.58030428575">
        <ele>34.6</ele>
        <time>2011-03-23T12:53:44Z</time>
      </trkpt>
      <trkpt lat="37.1457201413" lon="-7.58035910338">
        <ele>34.6</ele>
        <time>2011-03-23T12:53:47Z</time>
      </trkpt>
      <trkpt lat="37.1457237456" lon="-7.58037234678">
        <ele>34.6</ele>
        <time>2011-03-23T12:53:48Z</time>
      </trkpt>
      <trkpt lat="37.1457266792" lon="-7.58041517829">
        <ele>34.6</ele>
        <time>2011-03-23T12:53:51Z</time>
      </trkpt>
      <trkpt lat="37.1457246676" lon="-7.58042297346">
        <ele>34.6</ele>
        <time>2011-03-23T12:53:52Z</time>
      </trkpt>
      <trkpt lat="37.1457158666" lon="-7.5804699121">
        <ele>34.6</ele>
        <time>2011-03-23T12:53:56Z</time>
      </trkpt>
      <trkpt lat="37.1457084067" lon="-7.5805083012">
        <ele>34.6</ele>
        <time>2011-03-23T12:54:00Z</time>
      </trkpt>
      <trkpt lat="37.1457024555" lon="-7.58054685794">
        <ele>34.6</ele>
        <time>2011-03-23T12:54:04Z</time>
      </trkpt>
      <trkpt lat="37.1456858594" lon="-7.58058717488">
        <ele>34.6</ele>
        <time>2011-03-23T12:54:08Z</time>
      </trkpt>
      <trkpt lat="37.1456633121" lon="-7.5806207863">
        <ele>33.8</ele>
        <time>2011-03-23T12:54:12Z</time>
      </trkpt>
      <trkpt lat="37.1456265993" lon="-7.58063411352">
        <ele>33.4</ele>
        <time>2011-03-23T12:54:16Z</time>
      </trkpt>
      <trkpt lat="37.1455877911" lon="-7.58062933584">
        <ele>33</ele>
        <time>2011-03-23T12:54:20Z</time>
      </trkpt>
      <trkpt lat="37.1455491506" lon="-7.58062447433">
        <ele>33</ele>
        <time>2011-03-23T12:54:23Z</time>
      </trkpt>
      <trkpt lat="37.145506822" lon="-7.58063243714">
        <ele>32.8</ele>
        <time>2011-03-23T12:54:26Z</time>
      </trkpt>
      <trkpt lat="37.1454650801" lon="-7.58064509381">
        <ele>32.8</ele>
        <time>2011-03-23T12:54:29Z</time>
      </trkpt>
      <trkpt lat="37.1454261881" lon="-7.58067208353">
        <ele>32.6</ele>
        <time>2011-03-23T12:54:32Z</time>
      </trkpt>
      <trkpt lat="37.1454162137" lon="-7.58068675185">
        <ele>32.6</ele>
        <time>2011-03-23T12:54:33Z</time>
      </trkpt>
      <trkpt lat="37.1454055686" lon="-7.5807460957">
        <ele>32.6</ele>
        <time>2011-03-23T12:54:36Z</time>
      </trkpt>
      <trkpt lat="37.1454019644" lon="-7.58078683174">
        <ele>32.6</ele>
        <time>2011-03-23T12:54:38Z</time>
      </trkpt>
      <trkpt lat="37.1453862903" lon="-7.58085698824">
        <ele>32.6</ele>
        <time>2011-03-23T12:54:42Z</time>
      </trkpt>
      <trkpt lat="37.1453772378" lon="-7.58090292105">
        <ele>32.4</ele>
        <time>2011-03-23T12:54:45Z</time>
      </trkpt>
      <trkpt lat="37.1453731307" lon="-7.5809490215">
        <ele>31.8</ele>
        <time>2011-03-23T12:54:48Z</time>
      </trkpt>
      <trkpt lat="37.1453670957" lon="-7.5810059346">
        <ele>31.4</ele>
        <time>2011-03-23T12:54:51Z</time>
      </trkpt>
      <trkpt lat="37.1453597196" lon="-7.58106318298">
        <ele>31.2</ele>
        <time>2011-03-23T12:54:54Z</time>
      </trkpt>
      <trkpt lat="37.1453499128" lon="-7.581121521">
        <ele>31</ele>
        <time>2011-03-23T12:54:57Z</time>
      </trkpt>
      <trkpt lat="37.1453413633" lon="-7.5811784341">
        <ele>30.8</ele>
        <time>2011-03-23T12:55:00Z</time>
      </trkpt>
      <trkpt lat="37.145327617" lon="-7.5812357663">
        <ele>30.8</ele>
        <time>2011-03-23T12:55:03Z</time>
      </trkpt>
      <trkpt lat="37.1453134516" lon="-7.58128421368">
        <ele>30.8</ele>
        <time>2011-03-23T12:55:06Z</time>
      </trkpt>
      <trkpt lat="37.1453126972" lon="-7.58130483316">
        <ele>30.6</ele>
        <time>2011-03-23T12:55:07Z</time>
      </trkpt>
      <trkpt lat="37.1452986994" lon="-7.58135051451">
        <ele>30.6</ele>
        <time>2011-03-23T12:55:09Z</time>
      </trkpt>
      <trkpt lat="37.1452811812" lon="-7.58139351366">
        <ele>30.2</ele>
        <time>2011-03-23T12:55:12Z</time>
      </trkpt>
      <trkpt lat="37.1452752301" lon="-7.58140994218">
        <ele>30</ele>
        <time>2011-03-23T12:55:13Z</time>
      </trkpt>
      <trkpt lat="37.1452658424" lon="-7.5814457329">
        <ele>29.8</ele>
        <time>2011-03-23T12:55:15Z</time>
      </trkpt>
      <trkpt lat="37.1452485757" lon="-7.58151505121">
        <ele>29.4</ele>
        <time>2011-03-23T12:55:19Z</time>
      </trkpt>
      <trkpt lat="37.1452415349" lon="-7.58153005481">
        <ele>29.2</ele>
        <time>2011-03-23T12:55:20Z</time>
      </trkpt>
      <trkpt lat="37.1452127011" lon="-7.58161739421">
        <ele>29</ele>
        <time>2011-03-23T12:55:24Z</time>
      </trkpt>
      <trkpt lat="37.1451876392" lon="-7.58170154848">
        <ele>28.8</ele>
        <time>2011-03-23T12:55:27Z</time>
      </trkpt>
      <trkpt lat="37.1451624097" lon="-7.58178813351">
        <ele>28.8</ele>
        <time>2011-03-23T12:55:30Z</time>
      </trkpt>
      <trkpt lat="37.1451438019" lon="-7.58184404078">
        <ele>28.8</ele>
        <time>2011-03-23T12:55:32Z</time>
      </trkpt>
      <trkpt lat="37.1451287983" lon="-7.58190212735">
        <ele>28.6</ele>
        <time>2011-03-23T12:55:34Z</time>
      </trkpt>
      <trkpt lat="37.1451130403" lon="-7.58196306376">
        <ele>28.6</ele>
        <time>2011-03-23T12:55:36Z</time>
      </trkpt>
      <trkpt lat="37.1450904092" lon="-7.58204604457">
        <ele>28.6</ele>
        <time>2011-03-23T12:55:39Z</time>
      </trkpt>
      <trkpt lat="37.1450741483" lon="-7.58210211948">
        <ele>28.6</ele>
        <time>2011-03-23T12:55:41Z</time>
      </trkpt>
      <trkpt lat="37.1450505114" lon="-7.5821780595">
        <ele>28.6</ele>
        <time>2011-03-23T12:55:44Z</time>
      </trkpt>
      <trkpt lat="37.145035843" lon="-7.58223472114">
        <ele>28.6</ele>
        <time>2011-03-23T12:55:46Z</time>
      </trkpt>
      <trkpt lat="37.1450140501" lon="-7.58231485211">
        <ele>28.6</ele>
        <time>2011-03-23T12:55:49Z</time>
      </trkpt>
      <trkpt lat="37.1449920895" lon="-7.58239087594">
        <ele>28.6</ele>
        <time>2011-03-23T12:55:52Z</time>
      </trkpt>
      <trkpt lat="37.1449636749" lon="-7.58247050399">
        <ele>28.6</ele>
        <time>2011-03-23T12:55:55Z</time>
      </trkpt>
      <trkpt lat="37.1449412114" lon="-7.58252951257">
        <ele>28.6</ele>
        <time>2011-03-23T12:55:57Z</time>
      </trkpt>
      <trkpt lat="37.144921933" lon="-7.58259204154">
        <ele>28.6</ele>
        <time>2011-03-23T12:55:59Z</time>
      </trkpt>
      <trkpt lat="37.1448982961" lon="-7.58267183723">
        <ele>28.6</ele>
        <time>2011-03-23T12:56:02Z</time>
      </trkpt>
      <trkpt lat="37.1448850527" lon="-7.58272849887">
        <ele>28.6</ele>
        <time>2011-03-23T12:56:04Z</time>
      </trkpt>
      <trkpt lat="37.1448727313" lon="-7.58278884855">
        <ele>28.6</ele>
        <time>2011-03-23T12:56:06Z</time>
      </trkpt>
      <trkpt lat="37.1448602422" lon="-7.58284802477">
        <ele>28.6</ele>
        <time>2011-03-23T12:56:08Z</time>
      </trkpt>
      <trkpt lat="37.1448510221" lon="-7.58290829063">
        <ele>28.6</ele>
        <time>2011-03-23T12:56:10Z</time>
      </trkpt>
      <trkpt lat="37.144851106" lon="-7.58297132251">
        <ele>28.6</ele>
        <time>2011-03-23T12:56:12Z</time>
      </trkpt>
      <trkpt lat="37.1448656066" lon="-7.58303175601">
        <ele>28.6</ele>
        <time>2011-03-23T12:56:14Z</time>
      </trkpt>
      <trkpt lat="37.1448972902" lon="-7.58307861083">
        <ele>28.6</ele>
        <time>2011-03-23T12:56:16Z</time>
      </trkpt>
      <trkpt lat="37.144953449" lon="-7.58312487892">
        <ele>28.6</ele>
        <time>2011-03-23T12:56:19Z</time>
      </trkpt>
      <trkpt lat="37.1450143015" lon="-7.58315438321">
        <ele>28.6</ele>
        <time>2011-03-23T12:56:22Z</time>
      </trkpt>
      <trkpt lat="37.1450769143" lon="-7.58318045092">
        <ele>28.6</ele>
        <time>2011-03-23T12:56:25Z</time>
      </trkpt>
      <trkpt lat="37.1451412035" lon="-7.58320735682">
        <ele>28.6</ele>
        <time>2011-03-23T12:56:28Z</time>
      </trkpt>
      <trkpt lat="37.145184035" lon="-7.58322604846">
        <ele>28.6</ele>
        <time>2011-03-23T12:56:30Z</time>
      </trkpt>
      <trkpt lat="37.145242876" lon="-7.58325169707">
        <ele>28.8</ele>
        <time>2011-03-23T12:56:33Z</time>
      </trkpt>
      <trkpt lat="37.1453074166" lon="-7.58327625604">
        <ele>29.2</ele>
        <time>2011-03-23T12:56:36Z</time>
      </trkpt>
      <trkpt lat="37.1453686045" lon="-7.58331037037">
        <ele>29.6</ele>
        <time>2011-03-23T12:56:39Z</time>
      </trkpt>
      <trkpt lat="37.1454255176" lon="-7.58333685717">
        <ele>29.8</ele>
        <time>2011-03-23T12:56:42Z</time>
      </trkpt>
      <trkpt lat="37.1454682653" lon="-7.58335705755">
        <ele>30</ele>
        <time>2011-03-23T12:56:44Z</time>
      </trkpt>
      <trkpt lat="37.1455347337" lon="-7.58338748385">
        <ele>30.2</ele>
        <time>2011-03-23T12:56:47Z</time>
      </trkpt>
      <trkpt lat="37.1455951672" lon="-7.58341841306">
        <ele>30.2</ele>
        <time>2011-03-23T12:56:50Z</time>
      </trkpt>
      <trkpt lat="37.1456558522" lon="-7.58345185684">
        <ele>30.4</ele>
        <time>2011-03-23T12:56:53Z</time>
      </trkpt>
      <trkpt lat="37.1457163695" lon="-7.58348571972">
        <ele>30.4</ele>
        <time>2011-03-23T12:56:56Z</time>
      </trkpt>
      <trkpt lat="37.145778647" lon="-7.5835156431">
        <ele>30.4</ele>
        <time>2011-03-23T12:56:59Z</time>
      </trkpt>
      <trkpt lat="37.1458377394" lon="-7.58353793895">
        <ele>30.4</ele>
        <time>2011-03-23T12:57:02Z</time>
      </trkpt>
      <trkpt lat="37.1458982567" lon="-7.58355629532">
        <ele>30.4</ele>
        <time>2011-03-23T12:57:05Z</time>
      </trkpt>
      <trkpt lat="37.1459581035" lon="-7.58357616042">
        <ele>30.4</ele>
        <time>2011-03-23T12:57:08Z</time>
      </trkpt>
      <trkpt lat="37.1460160224" lon="-7.58359518733">
        <ele>30.4</ele>
        <time>2011-03-23T12:57:11Z</time>
      </trkpt>
      <trkpt lat="37.1460695828" lon="-7.58361672881">
        <ele>30.6</ele>
        <time>2011-03-23T12:57:14Z</time>
      </trkpt>
      <trkpt lat="37.1461241489" lon="-7.58364053341">
        <ele>30.6</ele>
        <time>2011-03-23T12:57:17Z</time>
      </trkpt>
      <trkpt lat="37.1461681539" lon="-7.58365570465">
        <ele>30.6</ele>
        <time>2011-03-23T12:57:19Z</time>
      </trkpt>
      <trkpt lat="37.146219954" lon="-7.5836885617">
        <ele>30.6</ele>
        <time>2011-03-23T12:57:22Z</time>
      </trkpt>
      <trkpt lat="37.1462696587" lon="-7.58371312066">
        <ele>30.6</ele>
        <time>2011-03-23T12:57:25Z</time>
      </trkpt>
      <trkpt lat="37.1463297569" lon="-7.58374321169">
        <ele>30.6</ele>
        <time>2011-03-23T12:57:28Z</time>
      </trkpt>
      <trkpt lat="37.1463944652" lon="-7.58376651337">
        <ele>30.6</ele>
        <time>2011-03-23T12:57:31Z</time>
      </trkpt>
      <trkpt lat="37.1464384702" lon="-7.58378378008">
        <ele>30.8</ele>
        <time>2011-03-23T12:57:33Z</time>
      </trkpt>
      <trkpt lat="37.1464818046" lon="-7.58380146589">
        <ele>31</ele>
        <time>2011-03-23T12:57:35Z</time>
      </trkpt>
      <trkpt lat="37.1465406455" lon="-7.58382510285">
        <ele>31.4</ele>
        <time>2011-03-23T12:57:38Z</time>
      </trkpt>
      <trkpt lat="37.146597391" lon="-7.58385100292">
        <ele>31.8</ele>
        <time>2011-03-23T12:57:41Z</time>
      </trkpt>
      <trkpt lat="37.146640474" lon="-7.58386508451">
        <ele>32</ele>
        <time>2011-03-23T12:57:43Z</time>
      </trkpt>
      <trkpt lat="37.1466828026" lon="-7.58388151304">
        <ele>32</ele>
        <time>2011-03-23T12:57:45Z</time>
      </trkpt>
      <trkpt lat="37.1467482652" lon="-7.58390850275">
        <ele>32.2</ele>
        <time>2011-03-23T12:57:48Z</time>
      </trkpt>
      <trkpt lat="37.1467898394" lon="-7.58392266816">
        <ele>32.2</ele>
        <time>2011-03-23T12:57:50Z</time>
      </trkpt>
      <trkpt lat="37.1468504406" lon="-7.5839462213">
        <ele>32.4</ele>
        <time>2011-03-23T12:57:53Z</time>
      </trkpt>
      <trkpt lat="37.1468912604" lon="-7.5839647453">
        <ele>32.4</ele>
        <time>2011-03-23T12:57:55Z</time>
      </trkpt>
      <trkpt lat="37.1469444017" lon="-7.58400405641">
        <ele>32.4</ele>
        <time>2011-03-23T12:57:58Z</time>
      </trkpt>
      <trkpt lat="37.1469720619" lon="-7.58406289735">
        <ele>32.4</ele>
        <time>2011-03-23T12:58:01Z</time>
      </trkpt>
      <trkpt lat="37.1469733192" lon="-7.58413087456">
        <ele>32.6</ele>
        <time>2011-03-23T12:58:04Z</time>
      </trkpt>
      <trkpt lat="37.1469561363" lon="-7.58419901941">
        <ele>32.6</ele>
        <time>2011-03-23T12:58:07Z</time>
      </trkpt>
      <trkpt lat="37.1469314097" lon="-7.58426993028">
        <ele>32.6</ele>
        <time>2011-03-23T12:58:10Z</time>
      </trkpt>
      <trkpt lat="37.146908108" lon="-7.58434100879">
        <ele>32.6</ele>
        <time>2011-03-23T12:58:13Z</time>
      </trkpt>
      <trkpt lat="37.1468806154" lon="-7.58441820609">
        <ele>32.6</ele>
        <time>2011-03-23T12:58:16Z</time>
      </trkpt>
      <trkpt lat="37.146859493" lon="-7.58448869787">
        <ele>32.8</ele>
        <time>2011-03-23T12:58:19Z</time>
      </trkpt>
      <trkpt lat="37.1468429807" lon="-7.58454217439">
        <ele>33.2</ele>
        <time>2011-03-23T12:58:21Z</time>
      </trkpt>
      <trkpt lat="37.1468195952" lon="-7.58461769531">
        <ele>33.6</ele>
        <time>2011-03-23T12:58:24Z</time>
      </trkpt>
      <trkpt lat="37.1467930245" lon="-7.58469866447">
        <ele>33.8</ele>
        <time>2011-03-23T12:58:27Z</time>
      </trkpt>
      <trkpt lat="37.1467757578" lon="-7.58475499083">
        <ele>34</ele>
        <time>2011-03-23T12:58:29Z</time>
      </trkpt>
      <trkpt lat="37.1467508636" lon="-7.58483495416">
        <ele>34.2</ele>
        <time>2011-03-23T12:58:32Z</time>
      </trkpt>
      <trkpt lat="37.1467333454" lon="-7.58488817923">
        <ele>34.2</ele>
        <time>2011-03-23T12:58:34Z</time>
      </trkpt>
      <trkpt lat="37.1467176713" lon="-7.58493914118">
        <ele>34.4</ele>
        <time>2011-03-23T12:58:36Z</time>
      </trkpt>
      <trkpt lat="37.1467010751" lon="-7.5849921986">
        <ele>34.4</ele>
        <time>2011-03-23T12:58:38Z</time>
      </trkpt>
      <trkpt lat="37.1466871612" lon="-7.58504508839">
        <ele>34.4</ele>
        <time>2011-03-23T12:58:40Z</time>
      </trkpt>
      <trkpt lat="37.1466596685" lon="-7.58512119605">
        <ele>34.4</ele>
        <time>2011-03-23T12:58:43Z</time>
      </trkpt>
      <trkpt lat="37.1466323435" lon="-7.58519671696">
        <ele>34.6</ele>
        <time>2011-03-23T12:58:46Z</time>
      </trkpt>
      <trkpt lat="37.1466076169" lon="-7.585274501">
        <ele>34.6</ele>
        <time>2011-03-23T12:58:49Z</time>
      </trkpt>
      <trkpt lat="37.1465833094" lon="-7.58535086011">
        <ele>34.6</ele>
        <time>2011-03-23T12:58:52Z</time>
      </trkpt>
      <trkpt lat="37.1465652883" lon="-7.58540442045">
        <ele>34.6</ele>
        <time>2011-03-23T12:58:54Z</time>
      </trkpt>
      <trkpt lat="37.1465476025" lon="-7.58545756169">
        <ele>34.6</ele>
        <time>2011-03-23T12:58:56Z</time>
      </trkpt>
      <trkpt lat="37.1465247199" lon="-7.58553928522">
        <ele>34.6</ele>
        <time>2011-03-23T12:58:59Z</time>
      </trkpt>
      <trkpt lat="37.1465022564" lon="-7.58561530905">
        <ele>34.6</ele>
        <time>2011-03-23T12:59:02Z</time>
      </trkpt>
      <trkpt lat="37.1464806311" lon="-7.58569024324">
        <ele>34.6</ele>
        <time>2011-03-23T12:59:05Z</time>
      </trkpt>
      <trkpt lat="37.1464572456" lon="-7.58576853018">
        <ele>34.6</ele>
        <time>2011-03-23T12:59:08Z</time>
      </trkpt>
      <trkpt lat="37.1464414877" lon="-7.58582276108">
        <ele>34.6</ele>
        <time>2011-03-23T12:59:10Z</time>
      </trkpt>
      <trkpt lat="37.1464203653" lon="-7.58589627034">
        <ele>34.6</ele>
        <time>2011-03-23T12:59:13Z</time>
      </trkpt>
      <trkpt lat="37.1463997458" lon="-7.58596533719">
        <ele>34.6</ele>
        <time>2011-03-23T12:59:16Z</time>
      </trkpt>
      <trkpt lat="37.1463773661" lon="-7.58604270213">
        <ele>34.6</ele>
        <time>2011-03-23T12:59:19Z</time>
      </trkpt>
      <trkpt lat="37.1463615243" lon="-7.58610137543">
        <ele>34.6</ele>
        <time>2011-03-23T12:59:21Z</time>
      </trkpt>
      <trkpt lat="37.1463527233" lon="-7.58616189275">
        <ele>34.6</ele>
        <time>2011-03-23T12:59:23Z</time>
      </trkpt>
      <trkpt lat="37.1463559923" lon="-7.58618930156">
        <ele>34.6</ele>
        <time>2011-03-23T12:59:24Z</time>
      </trkpt>
      <trkpt lat="37.1464053617" lon="-7.58624621466">
        <ele>34.6</ele>
        <time>2011-03-23T12:59:27Z</time>
      </trkpt>
      <trkpt lat="37.1464493666" lon="-7.58626205645">
        <ele>34.6</ele>
        <time>2011-03-23T12:59:29Z</time>
      </trkpt>
      <trkpt lat="37.1464947965" lon="-7.58627622186">
        <ele>34.6</ele>
        <time>2011-03-23T12:59:31Z</time>
      </trkpt>
      <trkpt lat="37.1465437468" lon="-7.58628921381">
        <ele>34.6</ele>
        <time>2011-03-23T12:59:33Z</time>
      </trkpt>
      <trkpt lat="37.1465947088" lon="-7.58629969119">
        <ele>34.6</ele>
        <time>2011-03-23T12:59:35Z</time>
      </trkpt>
      <trkpt lat="37.1466630213" lon="-7.58631134203">
        <ele>34.6</ele>
        <time>2011-03-23T12:59:38Z</time>
      </trkpt>
      <trkpt lat="37.1467281486" lon="-7.58631804755">
        <ele>34.6</ele>
        <time>2011-03-23T12:59:41Z</time>
      </trkpt>
      <trkpt lat="37.146794198" lon="-7.58633162622">
        <ele>34.6</ele>
        <time>2011-03-23T12:59:44Z</time>
      </trkpt>
      <trkpt lat="37.1468378677" lon="-7.58634193596">
        <ele>34.6</ele>
        <time>2011-03-23T12:59:46Z</time>
      </trkpt>
      <trkpt lat="37.1468839682" lon="-7.58634931203">
        <ele>34.6</ele>
        <time>2011-03-23T12:59:48Z</time>
      </trkpt>
      <trkpt lat="37.1469267159" lon="-7.5863584483">
        <ele>34.6</ele>
        <time>2011-03-23T12:59:50Z</time>
      </trkpt>
      <trkpt lat="37.1469910888" lon="-7.58636926096">
        <ele>34.6</ele>
        <time>2011-03-23T12:59:53Z</time>
      </trkpt>
      <trkpt lat="37.147036854" lon="-7.58637839723">
        <ele>34.6</ele>
        <time>2011-03-23T12:59:55Z</time>
      </trkpt>
      <trkpt lat="37.1470818648" lon="-7.58638334255">
        <ele>34.6</ele>
        <time>2011-03-23T12:59:57Z</time>
      </trkpt>
      <trkpt lat="37.1471482495" lon="-7.58639809469">
        <ele>34.6</ele>
        <time>2011-03-23T13:00:00Z</time>
      </trkpt>
      <trkpt lat="37.1472157238" lon="-7.58640396202">
        <ele>34.6</ele>
        <time>2011-03-23T13:00:03Z</time>
      </trkpt>
      <trkpt lat="37.147278588" lon="-7.5864210611">
        <ele>34.6</ele>
        <time>2011-03-23T13:00:06Z</time>
      </trkpt>
      <trkpt lat="37.1473414523" lon="-7.58643028119">
        <ele>34.6</ele>
        <time>2011-03-23T13:00:09Z</time>
      </trkpt>
      <trkpt lat="37.1474069987" lon="-7.58643924982">
        <ele>34.6</ele>
        <time>2011-03-23T13:00:12Z</time>
      </trkpt>
      <trkpt lat="37.1474723775" lon="-7.58644989483">
        <ele>34.6</ele>
        <time>2011-03-23T13:00:15Z</time>
      </trkpt>
      <trkpt lat="37.1475201544" lon="-7.58645769">
        <ele>34.6</ele>
        <time>2011-03-23T13:00:18Z</time>
      </trkpt>
      <trkpt lat="37.1475670092" lon="-7.58646489843">
        <ele>34.6</ele>
        <time>2011-03-23T13:00:21Z</time>
      </trkpt>
      <trkpt lat="37.1476052307" lon="-7.58646833501">
        <ele>34.6</ele>
        <time>2011-03-23T13:00:24Z</time>
      </trkpt>
      <trkpt lat="37.1476400155" lon="-7.58647805802">
        <ele>34.6</ele>
        <time>2011-03-23T13:00:27Z</time>
      </trkpt>
      <trkpt lat="37.1476749681" lon="-7.58649901277">
        <ele>34.6</ele>
        <time>2011-03-23T13:00:30Z</time>
      </trkpt>
      <trkpt lat="37.1477048076" lon="-7.58652030279">
        <ele>34.6</ele>
        <time>2011-03-23T13:00:33Z</time>
      </trkpt>
      <trkpt lat="37.1477146983" lon="-7.5865282656">
        <ele>34.6</ele>
        <time>2011-03-23T13:00:34Z</time>
      </trkpt>
      <trkpt lat="37.147746298" lon="-7.58658945347">
        <ele>34.6</ele>
        <time>2011-03-23T13:00:39Z</time>
      </trkpt>
      <trkpt lat="37.1477507404" lon="-7.58660479235">
        <ele>34.6</ele>
        <time>2011-03-23T13:00:40Z</time>
      </trkpt>
      <trkpt lat="37.1477535065" lon="-7.58666271127">
        <ele>34.6</ele>
        <time>2011-03-23T13:00:43Z</time>
      </trkpt>
      <trkpt lat="37.1477528359" lon="-7.58672264186">
        <ele>34.6</ele>
        <time>2011-03-23T13:00:46Z</time>
      </trkpt>
      <trkpt lat="37.1477459628" lon="-7.58679833042">
        <ele>34.6</ele>
        <time>2011-03-23T13:00:49Z</time>
      </trkpt>
      <trkpt lat="37.1477410174" lon="-7.58685792572">
        <ele>34.6</ele>
        <time>2011-03-23T13:00:51Z</time>
      </trkpt>
      <trkpt lat="37.1477366589" lon="-7.58691400064">
        <ele>34.6</ele>
        <time>2011-03-23T13:00:53Z</time>
      </trkpt>
      <trkpt lat="37.1477313783" lon="-7.58696932118">
        <ele>34.6</ele>
        <time>2011-03-23T13:00:55Z</time>
      </trkpt>
      <trkpt lat="37.1477295342" lon="-7.58704324953">
        <ele>34.6</ele>
        <time>2011-03-23T13:00:58Z</time>
      </trkpt>
      <trkpt lat="37.1477296181" lon="-7.58711483096">
        <ele>34.6</ele>
        <time>2011-03-23T13:01:01Z</time>
      </trkpt>
      <trkpt lat="37.1477243375" lon="-7.58718984897">
        <ele>34.6</ele>
        <time>2011-03-23T13:01:04Z</time>
      </trkpt>
      <trkpt lat="37.1477111779" lon="-7.58725782617">
        <ele>34.6</ele>
        <time>2011-03-23T13:01:07Z</time>
      </trkpt>
      <trkpt lat="37.147700952" lon="-7.58733309564">
        <ele>34.6</ele>
        <time>2011-03-23T13:01:10Z</time>
      </trkpt>
      <trkpt lat="37.1476896364" lon="-7.58741817192">
        <ele>34.6</ele>
        <time>2011-03-23T13:01:13Z</time>
      </trkpt>
      <trkpt lat="37.1476825118" lon="-7.58748153909">
        <ele>34.6</ele>
        <time>2011-03-23T13:01:15Z</time>
      </trkpt>
      <trkpt lat="37.1476779856" lon="-7.58754616353">
        <ele>34.6</ele>
        <time>2011-03-23T13:01:17Z</time>
      </trkpt>
      <trkpt lat="37.1476713639" lon="-7.58761590094">
        <ele>34.6</ele>
        <time>2011-03-23T13:01:19Z</time>
      </trkpt>
      <trkpt lat="37.1476656642" lon="-7.58767868137">
        <ele>34.6</ele>
        <time>2011-03-23T13:01:21Z</time>
      </trkpt>
      <trkpt lat="37.1476573661" lon="-7.58773903105">
        <ele>34.6</ele>
        <time>2011-03-23T13:01:23Z</time>
      </trkpt>
      <trkpt lat="37.1476475593" lon="-7.58779946455">
        <ele>34.6</ele>
        <time>2011-03-23T13:01:25Z</time>
      </trkpt>
      <trkpt lat="37.1476426139" lon="-7.58785562328">
        <ele>34.4</ele>
        <time>2011-03-23T13:01:27Z</time>
      </trkpt>
      <trkpt lat="37.1476371657" lon="-7.58791622442">
        <ele>34</ele>
        <time>2011-03-23T13:01:29Z</time>
      </trkpt>
      <trkpt lat="37.1476291191" lon="-7.58800674894">
        <ele>33.6</ele>
        <time>2011-03-23T13:01:32Z</time>
      </trkpt>
      <trkpt lat="37.1476295382" lon="-7.58808076112">
        <ele>33.4</ele>
        <time>2011-03-23T13:01:35Z</time>
      </trkpt>
      <trkpt lat="37.1476317175" lon="-7.58816022153">
        <ele>33.2</ele>
        <time>2011-03-23T13:01:38Z</time>
      </trkpt>
      <trkpt lat="37.1476310469" lon="-7.58824571691">
        <ele>33</ele>
        <time>2011-03-23T13:01:41Z</time>
      </trkpt>
      <trkpt lat="37.1476307955" lon="-7.58831830416">
        <ele>33</ele>
        <time>2011-03-23T13:01:44Z</time>
      </trkpt>
      <trkpt lat="37.1476261016" lon="-7.58839348981">
        <ele>32.8</ele>
        <time>2011-03-23T13:01:47Z</time>
      </trkpt>
      <trkpt lat="37.1476211563" lon="-7.58846808872">
        <ele>32.8</ele>
        <time>2011-03-23T13:01:50Z</time>
      </trkpt>
      <trkpt lat="37.1476141993" lon="-7.58853346754">
        <ele>32.8</ele>
        <time>2011-03-23T13:01:53Z</time>
      </trkpt>
      <trkpt lat="37.147601375" lon="-7.58860261821">
        <ele>32.8</ele>
        <time>2011-03-23T13:01:56Z</time>
      </trkpt>
      <trkpt lat="37.1475908138" lon="-7.58865936367">
        <ele>32.6</ele>
        <time>2011-03-23T13:01:58Z</time>
      </trkpt>
      <trkpt lat="37.1475815099" lon="-7.58874687071">
        <ele>32.6</ele>
        <time>2011-03-23T13:02:01Z</time>
      </trkpt>
      <trkpt lat="37.1475781571" lon="-7.58880437054">
        <ele>32.6</ele>
        <time>2011-03-23T13:02:03Z</time>
      </trkpt>
      <trkpt lat="37.1475629021" lon="-7.58888919537">
        <ele>32.6</ele>
        <time>2011-03-23T13:02:06Z</time>
      </trkpt>
      <trkpt lat="37.1475535143" lon="-7.58895113761">
        <ele>32.6</ele>
        <time>2011-03-23T13:02:08Z</time>
      </trkpt>
      <trkpt lat="37.1475452163" lon="-7.58901567824">
        <ele>33</ele>
        <time>2011-03-23T13:02:10Z</time>
      </trkpt>
      <trkpt lat="37.1475368344" lon="-7.58909823996">
        <ele>33.4</ele>
        <time>2011-03-23T13:02:13Z</time>
      </trkpt>
      <trkpt lat="37.1475233395" lon="-7.58917627545">
        <ele>33.8</ele>
        <time>2011-03-23T13:02:16Z</time>
      </trkpt>
      <trkpt lat="37.1475147061" lon="-7.5892369604">
        <ele>34</ele>
        <time>2011-03-23T13:02:18Z</time>
      </trkpt>
      <trkpt lat="37.1475058213" lon="-7.58929714244">
        <ele>34.2</ele>
        <time>2011-03-23T13:02:20Z</time>
      </trkpt>
      <trkpt lat="37.1474897281" lon="-7.58937643522">
        <ele>34.2</ele>
        <time>2011-03-23T13:02:23Z</time>
      </trkpt>
      <trkpt lat="37.1474769038" lon="-7.58943100139">
        <ele>34.4</ele>
        <time>2011-03-23T13:02:25Z</time>
      </trkpt>
      <trkpt lat="37.1474616487" lon="-7.58951079708">
        <ele>34.4</ele>
        <time>2011-03-23T13:02:28Z</time>
      </trkpt>
      <trkpt lat="37.147447148" lon="-7.58958958694">
        <ele>34.4</ele>
        <time>2011-03-23T13:02:31Z</time>
      </trkpt>
      <trkpt lat="37.1474323121" lon="-7.58966636514">
        <ele>34.6</ele>
        <time>2011-03-23T13:02:34Z</time>
      </trkpt>
      <trkpt lat="37.1474096809" lon="-7.5897447359">
        <ele>34.6</ele>
        <time>2011-03-23T13:02:37Z</time>
      </trkpt>
      <trkpt lat="37.1473910731" lon="-7.5898307342">
        <ele>34.6</ele>
        <time>2011-03-23T13:02:40Z</time>
      </trkpt>
      <trkpt lat="37.1473760695" lon="-7.58992008525">
        <ele>34.6</ele>
        <time>2011-03-23T13:02:43Z</time>
      </trkpt>
      <trkpt lat="37.1473648378" lon="-7.58997833946">
        <ele>34.6</ele>
        <time>2011-03-23T13:02:45Z</time>
      </trkpt>
      <trkpt lat="37.1473484092" lon="-7.59005989534">
        <ele>34.6</ele>
        <time>2011-03-23T13:02:48Z</time>
      </trkpt>
      <trkpt lat="37.1473363393" lon="-7.59011479679">
        <ele>34.6</ele>
        <time>2011-03-23T13:02:50Z</time>
      </trkpt>
      <trkpt lat="37.1473249399" lon="-7.59017204517">
        <ele>34.6</ele>
        <time>2011-03-23T13:02:52Z</time>
      </trkpt>
      <trkpt lat="37.1473111098" lon="-7.59023331686">
        <ele>34.6</ele>
        <time>2011-03-23T13:02:54Z</time>
      </trkpt>
      <trkpt lat="37.147299878" lon="-7.59029626492">
        <ele>34.6</ele>
        <time>2011-03-23T13:02:56Z</time>
      </trkpt>
      <trkpt lat="37.1472890654" lon="-7.59037664735">
        <ele>34.6</ele>
        <time>2011-03-23T13:02:59Z</time>
      </trkpt>
      <trkpt lat="37.1472749" lon="-7.59043708084">
        <ele>34.6</ele>
        <time>2011-03-23T13:03:01Z</time>
      </trkpt>
      <trkpt lat="37.1472547834" lon="-7.5905211513">
        <ele>34.6</ele>
        <time>2011-03-23T13:03:04Z</time>
      </trkpt>
      <trkpt lat="37.1472399475" lon="-7.59060413211">
        <ele>34.6</ele>
        <time>2011-03-23T13:03:07Z</time>
      </trkpt>
      <trkpt lat="37.1472339963" lon="-7.59068870548">
        <ele>35.2</ele>
        <time>2011-03-23T13:03:10Z</time>
      </trkpt>
      <trkpt lat="37.1472267879" lon="-7.59076783062">
        <ele>35.6</ele>
        <time>2011-03-23T13:03:13Z</time>
      </trkpt>
      <trkpt lat="37.1472293863" lon="-7.59083413145">
        <ele>36</ele>
        <time>2011-03-23T13:03:16Z</time>
      </trkpt>
      <trkpt lat="37.1472305597" lon="-7.59085810368">
        <ele>36</ele>
        <time>2011-03-23T13:03:17Z</time>
      </trkpt>
      <trkpt lat="37.1472255306" lon="-7.59093924047">
        <ele>36.2</ele>
        <time>2011-03-23T13:03:20Z</time>
      </trkpt>
      <trkpt lat="37.1472278775" lon="-7.59099690795">
        <ele>36.2</ele>
        <time>2011-03-23T13:03:22Z</time>
      </trkpt>
      <trkpt lat="37.1472289672" lon="-7.59108366061">
        <ele>36.4</ele>
        <time>2011-03-23T13:03:25Z</time>
      </trkpt>
      <trkpt lat="37.147223938" lon="-7.59117602915">
        <ele>36.4</ele>
        <time>2011-03-23T13:03:28Z</time>
      </trkpt>
      <trkpt lat="37.1472223455" lon="-7.59125423228">
        <ele>36.6</ele>
        <time>2011-03-23T13:03:31Z</time>
      </trkpt>
      <trkpt lat="37.1472226807" lon="-7.59132572988">
        <ele>36.6</ele>
        <time>2011-03-23T13:03:34Z</time>
      </trkpt>
      <trkpt lat="37.1472183222" lon="-7.59140636376">
        <ele>36.6</ele>
        <time>2011-03-23T13:03:37Z</time>
      </trkpt>
      <trkpt lat="37.1472135445" lon="-7.59149093713">
        <ele>36.6</ele>
        <time>2011-03-23T13:03:40Z</time>
      </trkpt>
      <trkpt lat="37.1472125386" lon="-7.59157232538">
        <ele>36.6</ele>
        <time>2011-03-23T13:03:43Z</time>
      </trkpt>
      <trkpt lat="37.1472152209" lon="-7.59163133396">
        <ele>36.6</ele>
        <time>2011-03-23T13:03:45Z</time>
      </trkpt>
      <trkpt lat="37.1472168134" lon="-7.59171238693">
        <ele>36.6</ele>
        <time>2011-03-23T13:03:48Z</time>
      </trkpt>
      <trkpt lat="37.1472158914" lon="-7.59178530946">
        <ele>36.6</ele>
        <time>2011-03-23T13:03:51Z</time>
      </trkpt>
      <trkpt lat="37.1472122872" lon="-7.59185228084">
        <ele>36.6</ele>
        <time>2011-03-23T13:03:53Z</time>
      </trkpt>
      <trkpt lat="37.1472095212" lon="-7.59191858167">
        <ele>36.8</ele>
        <time>2011-03-23T13:03:55Z</time>
      </trkpt>
      <trkpt lat="37.1472096888" lon="-7.59197943426">
        <ele>37.2</ele>
        <time>2011-03-23T13:03:57Z</time>
      </trkpt>
      <trkpt lat="37.1472087668" lon="-7.59204246615">
        <ele>37.6</ele>
        <time>2011-03-23T13:03:59Z</time>
      </trkpt>
      <trkpt lat="37.1472033186" lon="-7.59212184274">
        <ele>37.8</ele>
        <time>2011-03-23T13:04:02Z</time>
      </trkpt>
      <trkpt lat="37.1472066713" lon="-7.59220323099">
        <ele>38</ele>
        <time>2011-03-23T13:04:05Z</time>
      </trkpt>
      <trkpt lat="37.1472049111" lon="-7.59226550851">
        <ele>38.2</ele>
        <time>2011-03-23T13:04:07Z</time>
      </trkpt>
      <trkpt lat="37.1472061684" lon="-7.59232082905">
        <ele>38.2</ele>
        <time>2011-03-23T13:04:09Z</time>
      </trkpt>
      <trkpt lat="37.1472056655" lon="-7.59238302275">
        <ele>38.4</ele>
        <time>2011-03-23T13:04:11Z</time>
      </trkpt>
      <trkpt lat="37.147209605" lon="-7.59247212235">
        <ele>38.4</ele>
        <time>2011-03-23T13:04:14Z</time>
      </trkpt>
      <trkpt lat="37.1472143827" lon="-7.59253356167">
        <ele>38.6</ele>
        <time>2011-03-23T13:04:16Z</time>
      </trkpt>
      <trkpt lat="37.1472194956" lon="-7.59259558773">
        <ele>38.6</ele>
        <time>2011-03-23T13:04:18Z</time>
      </trkpt>
      <trkpt lat="37.1472276261" lon="-7.59266004454">
        <ele>38.6</ele>
        <time>2011-03-23T13:04:20Z</time>
      </trkpt>
      <trkpt lat="37.1472469044" lon="-7.59273916968">
        <ele>38.6</ele>
        <time>2011-03-23T13:04:23Z</time>
      </trkpt>
      <trkpt lat="37.1472640035" lon="-7.59280899091">
        <ele>38.6</ele>
        <time>2011-03-23T13:04:26Z</time>
      </trkpt>
      <trkpt lat="37.1472650932" lon="-7.5928283531">
        <ele>38.6</ele>
        <time>2011-03-23T13:04:27Z</time>
      </trkpt>
      <trkpt lat="37.1472481617" lon="-7.59286171306">
        <ele>38.6</ele>
        <time>2011-03-23T13:04:30Z</time>
      </trkpt>
      <trkpt lat="37.1472522689" lon="-7.5928711846">
        <ele>38.6</ele>
        <time>2011-03-23T13:04:37Z</time>
      </trkpt>
      <trkpt lat="37.1472640035" lon="-7.5928711846">
        <ele>37.8</ele>
        <time>2011-03-23T13:04:53Z</time>
      </trkpt>
      <trkpt lat="37.1472324876" lon="-7.59288618821">
        <ele>34.8</ele>
        <time>2011-03-23T13:05:50Z</time>
      </trkpt>
      <trkpt lat="37.147189237" lon="-7.59289272609">
        <ele>34.6</ele>
        <time>2011-03-23T13:06:03Z</time>
      </trkpt>
      <trkpt lat="37.1471654324" lon="-7.59289289373">
        <ele>34.6</ele>
        <time>2011-03-23T13:06:05Z</time>
      </trkpt>
      <trkpt lat="37.1471219303" lon="-7.59290496366">
        <ele>34.2</ele>
        <time>2011-03-23T13:06:09Z</time>
      </trkpt>
      <trkpt lat="37.1471094413" lon="-7.59291401611">
        <ele>34</ele>
        <time>2011-03-23T13:06:10Z</time>
      </trkpt>
      <trkpt lat="37.147057222" lon="-7.59294318513">
        <ele>33.6</ele>
        <time>2011-03-23T13:06:13Z</time>
      </trkpt>
      <trkpt lat="37.1470212637" lon="-7.59296397224">
        <ele>33.4</ele>
        <time>2011-03-23T13:06:15Z</time>
      </trkpt>
      <trkpt lat="37.1469489279" lon="-7.59298065222">
        <ele>33.2</ele>
        <time>2011-03-23T13:06:19Z</time>
      </trkpt>
      <trkpt lat="37.1468864827" lon="-7.5929990924">
        <ele>33</ele>
        <time>2011-03-23T13:06:22Z</time>
      </trkpt>
      <trkpt lat="37.146832168" lon="-7.59301493419">
        <ele>32.6</ele>
        <time>2011-03-23T13:06:25Z</time>
      </trkpt>
      <trkpt lat="37.1468125544" lon="-7.59302893196">
        <ele>32.4</ele>
        <time>2011-03-23T13:06:26Z</time>
      </trkpt>
      <trkpt lat="37.1467416435" lon="-7.59305793334">
        <ele>31.6</ele>
        <time>2011-03-23T13:06:30Z</time>
      </trkpt>
      <trkpt lat="37.1466734148" lon="-7.5930811512">
        <ele>31.4</ele>
        <time>2011-03-23T13:06:33Z</time>
      </trkpt>
      <trkpt lat="37.1466358639" lon="-7.59310428524">
        <ele>31.2</ele>
        <time>2011-03-23T13:06:35Z</time>
      </trkpt>
      <trkpt lat="37.1465521287" lon="-7.59315206207">
        <ele>31</ele>
        <time>2011-03-23T13:06:39Z</time>
      </trkpt>
      <trkpt lat="37.1464890969" lon="-7.59318542204">
        <ele>30.4</ele>
        <time>2011-03-23T13:06:42Z</time>
      </trkpt>
      <trkpt lat="37.1464300883" lon="-7.59322632571">
        <ele>30</ele>
        <time>2011-03-23T13:06:45Z</time>
      </trkpt>
      <trkpt lat="37.1463684813" lon="-7.59326798375">
        <ele>29.6</ele>
        <time>2011-03-23T13:06:48Z</time>
      </trkpt>
      <trkpt lat="37.1463098918" lon="-7.59330830069">
        <ele>29.2</ele>
        <time>2011-03-23T13:06:51Z</time>
      </trkpt>
      <trkpt lat="37.1462737658" lon="-7.59333897844">
        <ele>29.2</ele>
        <time>2011-03-23T13:06:53Z</time>
      </trkpt>
      <trkpt lat="37.14621811" lon="-7.59337669699">
        <ele>29</ele>
        <time>2011-03-23T13:06:56Z</time>
      </trkpt>
      <trkpt lat="37.1461607778" lon="-7.59341240389">
        <ele>28.8</ele>
        <time>2011-03-23T13:06:59Z</time>
      </trkpt>
      <trkpt lat="37.1461040324" lon="-7.59344517712">
        <ele>28.8</ele>
        <time>2011-03-23T13:07:02Z</time>
      </trkpt>
      <trkpt lat="37.1460463649" lon="-7.59347183156">
        <ele>28.6</ele>
        <time>2011-03-23T13:07:05Z</time>
      </trkpt>
      <trkpt lat="37.1459786391" lon="-7.59349446269">
        <ele>28</ele>
        <time>2011-03-23T13:07:08Z</time>
      </trkpt>
      <trkpt lat="37.1459125898" lon="-7.59350519152">
        <ele>27.6</ele>
        <time>2011-03-23T13:07:11Z</time>
      </trkpt>
      <trkpt lat="37.1458679981" lon="-7.59352086567">
        <ele>27.4</ele>
        <time>2011-03-23T13:07:13Z</time>
      </trkpt>
      <trkpt lat="37.1458083189" lon="-7.59353712656">
        <ele>27.2</ele>
        <time>2011-03-23T13:07:16Z</time>
      </trkpt>
      <trkpt lat="37.1457414314" lon="-7.59355598583">
        <ele>27</ele>
        <time>2011-03-23T13:07:19Z</time>
      </trkpt>
      <trkpt lat="37.1456949956" lon="-7.59356579266">
        <ele>26.8</ele>
        <time>2011-03-23T13:07:21Z</time>
      </trkpt>
      <trkpt lat="37.1456097517" lon="-7.59358666359">
        <ele>26.8</ele>
        <time>2011-03-23T13:07:25Z</time>
      </trkpt>
      <trkpt lat="37.1455421098" lon="-7.59360585814">
        <ele>26.6</ele>
        <time>2011-03-23T13:07:28Z</time>
      </trkpt>
      <trkpt lat="37.1455187243" lon="-7.59361298275">
        <ele>26.6</ele>
        <time>2011-03-23T13:07:29Z</time>
      </trkpt>
      <trkpt lat="37.1454259367" lon="-7.59363628444">
        <ele>26.6</ele>
        <time>2011-03-23T13:07:33Z</time>
      </trkpt>
      <trkpt lat="37.1453761482" lon="-7.5936427385">
        <ele>26.6</ele>
        <time>2011-03-23T13:07:35Z</time>
      </trkpt>
      <trkpt lat="37.1453037286" lon="-7.59366067577">
        <ele>26.6</ele>
        <time>2011-03-23T13:07:38Z</time>
      </trkpt>
      <trkpt lat="37.1452550297" lon="-7.59367475736">
        <ele>26.6</ele>
        <time>2011-03-23T13:07:40Z</time>
      </trkpt>
      <trkpt lat="37.1452050736" lon="-7.5936881684">
        <ele>26.6</ele>
        <time>2011-03-23T13:07:42Z</time>
      </trkpt>
      <trkpt lat="37.1451359229" lon="-7.59370618948">
        <ele>26.6</ele>
        <time>2011-03-23T13:07:45Z</time>
      </trkpt>
      <trkpt lat="37.1450648444" lon="-7.59372923971">
        <ele>26.6</ele>
        <time>2011-03-23T13:07:48Z</time>
      </trkpt>
      <trkpt lat="37.1450197498" lon="-7.59374407567">
        <ele>26.6</ele>
        <time>2011-03-23T13:07:50Z</time>
      </trkpt>
      <trkpt lat="37.1449579752" lon="-7.59377483724">
        <ele>26.6</ele>
        <time>2011-03-23T13:07:53Z</time>
      </trkpt>
      <trkpt lat="37.144894608" lon="-7.59379344506">
        <ele>26.4</ele>
        <time>2011-03-23T13:07:56Z</time>
      </trkpt>
      <trkpt lat="37.1448528662" lon="-7.59380132405">
        <ele>26.4</ele>
        <time>2011-03-23T13:07:58Z</time>
      </trkpt>
      <trkpt lat="37.1447899181" lon="-7.59380585027">
        <ele>26.4</ele>
        <time>2011-03-23T13:08:01Z</time>
      </trkpt>
      <trkpt lat="37.1447423927" lon="-7.59382370372">
        <ele>26.4</ele>
        <time>2011-03-23T13:08:03Z</time>
      </trkpt>
      <trkpt lat="37.1446957055" lon="-7.59384608339">
        <ele>26.4</ele>
        <time>2011-03-23T13:08:05Z</time>
      </trkpt>
      <trkpt lat="37.1446320031" lon="-7.59387516859">
        <ele>26.4</ele>
        <time>2011-03-23T13:08:08Z</time>
      </trkpt>
      <trkpt lat="37.1445724078" lon="-7.59390467287">
        <ele>26.4</ele>
        <time>2011-03-23T13:08:11Z</time>
      </trkpt>
      <trkpt lat="37.1445139859" lon="-7.59392856129">
        <ele>26.4</ele>
        <time>2011-03-23T13:08:14Z</time>
      </trkpt>
      <trkpt lat="37.1444556479" lon="-7.59394423544">
        <ele>26.4</ele>
        <time>2011-03-23T13:08:17Z</time>
      </trkpt>
      <trkpt lat="37.1443969746" lon="-7.59396041251">
        <ele>26.4</ele>
        <time>2011-03-23T13:08:20Z</time>
      </trkpt>
      <trkpt lat="37.1443331884" lon="-7.59398044525">
        <ele>26</ele>
        <time>2011-03-23T13:08:23Z</time>
      </trkpt>
      <trkpt lat="37.1442685639" lon="-7.59400215437">
        <ele>25.4</ele>
        <time>2011-03-23T13:08:26Z</time>
      </trkpt>
      <trkpt lat="37.1442039395" lon="-7.59402637806">
        <ele>25.2</ele>
        <time>2011-03-23T13:08:29Z</time>
      </trkpt>
      <trkpt lat="37.1441425001" lon="-7.5940415493">
        <ele>25</ele>
        <time>2011-03-23T13:08:32Z</time>
      </trkpt>
      <trkpt lat="37.1440965673" lon="-7.59405269723">
        <ele>24.8</ele>
        <time>2011-03-23T13:08:34Z</time>
      </trkpt>
      <trkpt lat="37.1440241477" lon="-7.59405856456">
        <ele>24.8</ele>
        <time>2011-03-23T13:08:37Z</time>
      </trkpt>
      <trkpt lat="37.1439556676" lon="-7.59405789401">
        <ele>24.6</ele>
        <time>2011-03-23T13:08:40Z</time>
      </trkpt>
      <trkpt lat="37.1438872713" lon="-7.59405353542">
        <ele>24.6</ele>
        <time>2011-03-23T13:08:43Z</time>
      </trkpt>
      <trkpt lat="37.1438388239" lon="-7.59404926065">
        <ele>24.6</ele>
        <time>2011-03-23T13:08:45Z</time>
      </trkpt>
      <trkpt lat="37.1437716011" lon="-7.59403467614">
        <ele>24.4</ele>
        <time>2011-03-23T13:08:48Z</time>
      </trkpt>
      <trkpt lat="37.1437017798" lon="-7.59402428259">
        <ele>24.4</ele>
        <time>2011-03-23T13:08:51Z</time>
      </trkpt>
      <trkpt lat="37.1436384127" lon="-7.59401598451">
        <ele>24.4</ele>
        <time>2011-03-23T13:08:54Z</time>
      </trkpt>
      <trkpt lat="37.1435698487" lon="-7.59400860843">
        <ele>24.4</ele>
        <time>2011-03-23T13:08:57Z</time>
      </trkpt>
      <trkpt lat="37.143498854" lon="-7.59399544885">
        <ele>23.8</ele>
        <time>2011-03-23T13:09:00Z</time>
      </trkpt>
      <trkpt lat="37.1434260153" lon="-7.59398136726">
        <ele>23.4</ele>
        <time>2011-03-23T13:09:03Z</time>
      </trkpt>
      <trkpt lat="37.1433553559" lon="-7.59397239863">
        <ele>23.2</ele>
        <time>2011-03-23T13:09:06Z</time>
      </trkpt>
      <trkpt lat="37.143306238" lon="-7.59397457792">
        <ele>23</ele>
        <time>2011-03-23T13:09:08Z</time>
      </trkpt>
      <trkpt lat="37.1432507498" lon="-7.59397969088">
        <ele>22.8</ele>
        <time>2011-03-23T13:09:11Z</time>
      </trkpt>
      <trkpt lat="37.1431800066" lon="-7.59397340445">
        <ele>22.6</ele>
        <time>2011-03-23T13:09:14Z</time>
      </trkpt>
      <trkpt lat="37.143129799" lon="-7.59396804004">
        <ele>22.6</ele>
        <time>2011-03-23T13:09:16Z</time>
      </trkpt>
      <trkpt lat="37.1430527693" lon="-7.59395488046">
        <ele>22.6</ele>
        <time>2011-03-23T13:09:19Z</time>
      </trkpt>
      <trkpt lat="37.1429790086" lon="-7.59395203061">
        <ele>22.4</ele>
        <time>2011-03-23T13:09:22Z</time>
      </trkpt>
      <trkpt lat="37.1429082654" lon="-7.59396535783">
        <ele>22.4</ele>
        <time>2011-03-23T13:09:25Z</time>
      </trkpt>
      <trkpt lat="37.1428407911" lon="-7.59399234755">
        <ele>22.4</ele>
        <time>2011-03-23T13:09:28Z</time>
      </trkpt>
      <trkpt lat="37.1427745741" lon="-7.59401497868">
        <ele>22.4</ele>
        <time>2011-03-23T13:09:31Z</time>
      </trkpt>
      <trkpt lat="37.1427050881" lon="-7.59404180076">
        <ele>22.4</ele>
        <time>2011-03-23T13:09:34Z</time>
      </trkpt>
      <trkpt lat="37.1426428944" lon="-7.59407071831">
        <ele>22.4</ele>
        <time>2011-03-23T13:09:37Z</time>
      </trkpt>
      <trkpt lat="37.1425879091" lon="-7.59409016432">
        <ele>22.4</ele>
        <time>2011-03-23T13:09:40Z</time>
      </trkpt>
      <trkpt lat="37.1425323371" lon="-7.59410575466">
        <ele>22.4</ele>
        <time>2011-03-23T13:09:43Z</time>
      </trkpt>
      <trkpt lat="37.1424783577" lon="-7.5941156453">
        <ele>22.4</ele>
        <time>2011-03-23T13:09:46Z</time>
      </trkpt>
      <trkpt lat="37.1424180918" lon="-7.59413693532">
        <ele>22.4</ele>
        <time>2011-03-23T13:09:49Z</time>
      </trkpt>
      <trkpt lat="37.1423575745" lon="-7.59416501469">
        <ele>22.4</ele>
        <time>2011-03-23T13:09:52Z</time>
      </trkpt>
      <trkpt lat="37.1422997394" lon="-7.5941906633">
        <ele>22.4</ele>
        <time>2011-03-23T13:09:55Z</time>
      </trkpt>
      <trkpt lat="37.1422579976" lon="-7.59420658891">
        <ele>22.4</ele>
        <time>2011-03-23T13:09:57Z</time>
      </trkpt>
      <trkpt lat="37.142179543" lon="-7.59423735049">
        <ele>22.4</ele>
        <time>2011-03-23T13:10:01Z</time>
      </trkpt>
      <trkpt lat="37.1421396451" lon="-7.59425553921">
        <ele>22.4</ele>
        <time>2011-03-23T13:10:03Z</time>
      </trkpt>
      <trkpt lat="37.1420561614" lon="-7.59427423085">
        <ele>22.4</ele>
        <time>2011-03-23T13:10:07Z</time>
      </trkpt>
      <trkpt lat="37.1419932972" lon="-7.5942930063">
        <ele>22.4</ele>
        <time>2011-03-23T13:10:10Z</time>
      </trkpt>
      <trkpt lat="37.1419301814" lon="-7.5943000471">
        <ele>22.4</ele>
        <time>2011-03-23T13:10:13Z</time>
      </trkpt>
      <trkpt lat="37.141884081" lon="-7.59430474096">
        <ele>22.4</ele>
        <time>2011-03-23T13:10:15Z</time>
      </trkpt>
      <trkpt lat="37.1418181993" lon="-7.59431438015">
        <ele>22.4</ele>
        <time>2011-03-23T13:10:18Z</time>
      </trkpt>
      <trkpt lat="37.1417497191" lon="-7.59432100185">
        <ele>22.4</ele>
        <time>2011-03-23T13:10:21Z</time>
      </trkpt>
      <trkpt lat="37.141682161" lon="-7.59432234295">
        <ele>22.4</ele>
        <time>2011-03-23T13:10:24Z</time>
      </trkpt>
      <trkpt lat="37.1416141838" lon="-7.59432133712">
        <ele>22.4</ele>
        <time>2011-03-23T13:10:27Z</time>
      </trkpt>
      <trkpt lat="37.1415492241" lon="-7.59432251059">
        <ele>22.4</ele>
        <time>2011-03-23T13:10:30Z</time>
      </trkpt>
      <trkpt lat="37.1414848511" lon="-7.5943296352">
        <ele>22.4</ele>
        <time>2011-03-23T13:10:33Z</time>
      </trkpt>
      <trkpt lat="37.1414182988" lon="-7.59432645008">
        <ele>22.4</ele>
        <time>2011-03-23T13:10:36Z</time>
      </trkpt>
      <trkpt lat="37.1413513274" lon="-7.5943203313">
        <ele>22.4</ele>
        <time>2011-03-23T13:10:39Z</time>
      </trkpt>
      <trkpt lat="37.1412853619" lon="-7.59431790054">
        <ele>22.4</ele>
        <time>2011-03-23T13:10:42Z</time>
      </trkpt>
      <trkpt lat="37.1412149539" lon="-7.59432795882">
        <ele>22.4</ele>
        <time>2011-03-23T13:10:45Z</time>
      </trkpt>
      <trkpt lat="37.1411435401" lon="-7.59433147922">
        <ele>22.4</ele>
        <time>2011-03-23T13:10:48Z</time>
      </trkpt>
      <trkpt lat="37.1410941707" lon="-7.5943313954">
        <ele>22.4</ele>
        <time>2011-03-23T13:10:50Z</time>
      </trkpt>
      <trkpt lat="37.1410462263" lon="-7.5943318145">
        <ele>22.4</ele>
        <time>2011-03-23T13:10:52Z</time>
      </trkpt>
      <trkpt lat="37.1409792549" lon="-7.59433173068">
        <ele>22.4</ele>
        <time>2011-03-23T13:10:55Z</time>
      </trkpt>
      <trkpt lat="37.1409107748" lon="-7.59433508344">
        <ele>22.4</ele>
        <time>2011-03-23T13:10:58Z</time>
      </trkpt>
      <trkpt lat="37.1408429652" lon="-7.59433458053">
        <ele>22.4</ele>
        <time>2011-03-23T13:11:01Z</time>
      </trkpt>
      <trkpt lat="37.1407950207" lon="-7.59433223359">
        <ele>22.4</ele>
        <time>2011-03-23T13:11:03Z</time>
      </trkpt>
      <trkpt lat="37.1407303125" lon="-7.59433516726">
        <ele>22.4</ele>
        <time>2011-03-23T13:11:06Z</time>
      </trkpt>
      <trkpt lat="37.1406632573" lon="-7.59432955138">
        <ele>22.4</ele>
        <time>2011-03-23T13:11:09Z</time>
      </trkpt>
      <trkpt lat="37.1405928493" lon="-7.59431471542">
        <ele>22.4</ele>
        <time>2011-03-23T13:11:12Z</time>
      </trkpt>
      <trkpt lat="37.1405469165" lon="-7.59430641734">
        <ele>22.4</ele>
        <time>2011-03-23T13:11:14Z</time>
      </trkpt>
      <trkpt lat="37.140499894" lon="-7.59430063383">
        <ele>22.4</ele>
        <time>2011-03-23T13:11:16Z</time>
      </trkpt>
      <trkpt lat="37.1404261333" lon="-7.59429845454">
        <ele>22.4</ele>
        <time>2011-03-23T13:11:19Z</time>
      </trkpt>
      <trkpt lat="37.1403571503" lon="-7.59429325776">
        <ele>22.4</ele>
        <time>2011-03-23T13:11:22Z</time>
      </trkpt>
      <trkpt lat="37.1402881672" lon="-7.5942850435">
        <ele>22.4</ele>
        <time>2011-03-23T13:11:25Z</time>
      </trkpt>
      <trkpt lat="37.1402422344" lon="-7.5942731412">
        <ele>22.4</ele>
        <time>2011-03-23T13:11:27Z</time>
      </trkpt>
      <trkpt lat="37.1401726647" lon="-7.59425998162">
        <ele>22.4</ele>
        <time>2011-03-23T13:11:30Z</time>
      </trkpt>
      <trkpt lat="37.1401041845" lon="-7.59424858223">
        <ele>22.2</ele>
        <time>2011-03-23T13:11:33Z</time>
      </trkpt>
      <trkpt lat="37.140036375" lon="-7.59423366245">
        <ele>21.6</ele>
        <time>2011-03-23T13:11:36Z</time>
      </trkpt>
      <trkpt lat="37.1399704932" lon="-7.59421656337">
        <ele>21.2</ele>
        <time>2011-03-23T13:11:39Z</time>
      </trkpt>
      <trkpt lat="37.1399106465" lon="-7.59419896138">
        <ele>21</ele>
        <time>2011-03-23T13:11:42Z</time>
      </trkpt>
      <trkpt lat="37.1398459382" lon="-7.59418110794">
        <ele>20.8</ele>
        <time>2011-03-23T13:11:45Z</time>
      </trkpt>
      <trkpt lat="37.1397828225" lon="-7.59416216484">
        <ele>20.6</ele>
        <time>2011-03-23T13:11:48Z</time>
      </trkpt>
      <trkpt lat="37.1397182819" lon="-7.59414347321">
        <ele>20.6</ele>
        <time>2011-03-23T13:11:51Z</time>
      </trkpt>
      <trkpt lat="37.1396508914" lon="-7.59412461393">
        <ele>20.6</ele>
        <time>2011-03-23T13:11:54Z</time>
      </trkpt>
      <trkpt lat="37.1395832494" lon="-7.59410793395">
        <ele>20.4</ele>
        <time>2011-03-23T13:11:57Z</time>
      </trkpt>
      <trkpt lat="37.1395388254" lon="-7.59409293035">
        <ele>20.4</ele>
        <time>2011-03-23T13:11:59Z</time>
      </trkpt>
      <trkpt lat="37.1394747038" lon="-7.59407281379">
        <ele>20.4</ele>
        <time>2011-03-23T13:12:02Z</time>
      </trkpt>
      <trkpt lat="37.1394298607" lon="-7.59405705582">
        <ele>20.4</ele>
        <time>2011-03-23T13:12:04Z</time>
      </trkpt>
      <trkpt lat="37.1393611291" lon="-7.59403702308">
        <ele>20.4</ele>
        <time>2011-03-23T13:12:07Z</time>
      </trkpt>
      <trkpt lat="37.1393011147" lon="-7.59401271557">
        <ele>20.4</ele>
        <time>2011-03-23T13:12:10Z</time>
      </trkpt>
      <trkpt lat="37.139238921" lon="-7.5939934372">
        <ele>20.4</ele>
        <time>2011-03-23T13:12:13Z</time>
      </trkpt>
      <trkpt lat="37.1391722011" lon="-7.59397692485">
        <ele>20.4</ele>
        <time>2011-03-23T13:12:16Z</time>
      </trkpt>
      <trkpt lat="37.1390991947" lon="-7.59395697593">
        <ele>20.4</ele>
        <time>2011-03-23T13:12:19Z</time>
      </trkpt>
      <trkpt lat="37.1390328101" lon="-7.59394063123">
        <ele>20.4</ele>
        <time>2011-03-23T13:12:22Z</time>
      </trkpt>
      <trkpt lat="37.1389660063" lon="-7.59392437034">
        <ele>20.4</ele>
        <time>2011-03-23T13:12:25Z</time>
      </trkpt>
      <trkpt lat="37.1389006275" lon="-7.59390224212">
        <ele>20.4</ele>
        <time>2011-03-23T13:12:28Z</time>
      </trkpt>
      <trkpt lat="37.13883835" lon="-7.59388975309">
        <ele>20.4</ele>
        <time>2011-03-23T13:12:31Z</time>
      </trkpt>
      <trkpt lat="37.138780012" lon="-7.5938677087">
        <ele>20.4</ele>
        <time>2011-03-23T13:12:34Z</time>
      </trkpt>
      <trkpt lat="37.1387186565" lon="-7.59384499375">
        <ele>20.4</ele>
        <time>2011-03-23T13:12:37Z</time>
      </trkpt>
      <trkpt lat="37.1386728075" lon="-7.59383133125">
        <ele>20.4</ele>
        <time>2011-03-23T13:12:39Z</time>
      </trkpt>
      <trkpt lat="37.1386121225" lon="-7.59380786193">
        <ele>20.4</ele>
        <time>2011-03-23T13:12:42Z</time>
      </trkpt>
      <trkpt lat="37.1385512699" lon="-7.59379042758">
        <ele>20.4</ele>
        <time>2011-03-23T13:12:45Z</time>
      </trkpt>
      <trkpt lat="37.1384857235" lon="-7.5937737476">
        <ele>20.4</ele>
        <time>2011-03-23T13:12:48Z</time>
      </trkpt>
      <trkpt lat="37.1384381981" lon="-7.59376134238">
        <ele>20.4</ele>
        <time>2011-03-23T13:12:50Z</time>
      </trkpt>
      <trkpt lat="37.1383713105" lon="-7.59374809898">
        <ele>20.2</ele>
        <time>2011-03-23T13:12:53Z</time>
      </trkpt>
      <trkpt lat="37.1383034171" lon="-7.59374365658">
        <ele>19.6</ele>
        <time>2011-03-23T13:12:56Z</time>
      </trkpt>
      <trkpt lat="37.1382831329" lon="-7.59373636432">
        <ele>19.4</ele>
        <time>2011-03-23T13:12:57Z</time>
      </trkpt>
      <trkpt lat="37.1382379545" lon="-7.59372253419">
        <ele>19.2</ele>
        <time>2011-03-23T13:12:59Z</time>
      </trkpt>
      <trkpt lat="37.1381713184" lon="-7.5936983105">
        <ele>19</ele>
        <time>2011-03-23T13:13:02Z</time>
      </trkpt>
      <trkpt lat="37.1381284031" lon="-7.59367852921">
        <ele>18.8</ele>
        <time>2011-03-23T13:13:04Z</time>
      </trkpt>
      <trkpt lat="37.1380636948" lon="-7.59365120422">
        <ele>18.8</ele>
        <time>2011-03-23T13:13:07Z</time>
      </trkpt>
      <trkpt lat="37.1380021716" lon="-7.59362848927">
        <ele>18.6</ele>
        <time>2011-03-23T13:13:10Z</time>
      </trkpt>
      <trkpt lat="37.1379583343" lon="-7.59360694779">
        <ele>18.6</ele>
        <time>2011-03-23T13:13:12Z</time>
      </trkpt>
      <trkpt lat="37.1379146646" lon="-7.59358632831">
        <ele>18.4</ele>
        <time>2011-03-23T13:13:14Z</time>
      </trkpt>
      <trkpt lat="37.1378485314" lon="-7.59356520592">
        <ele>18.4</ele>
        <time>2011-03-23T13:13:17Z</time>
      </trkpt>
      <trkpt lat="37.1377822306" lon="-7.59354978323">
        <ele>18.4</ele>
        <time>2011-03-23T13:13:20Z</time>
      </trkpt>
      <trkpt lat="37.1377197854" lon="-7.59356956451">
        <ele>18.4</ele>
        <time>2011-03-23T13:13:23Z</time>
      </trkpt>
      <trkpt lat="37.1376717572" lon="-7.59362622616">
        <ele>18.4</ele>
        <time>2011-03-23T13:13:26Z</time>
      </trkpt>
      <trkpt lat="37.1376295962" lon="-7.59368909041">
        <ele>18.4</ele>
        <time>2011-03-23T13:13:29Z</time>
      </trkpt>
      <trkpt lat="37.1375868485" lon="-7.59374524914">
        <ele>18.4</ele>
        <time>2011-03-23T13:13:32Z</time>
      </trkpt>
      <trkpt lat="37.1375427597" lon="-7.5938068561">
        <ele>18.4</ele>
        <time>2011-03-23T13:13:35Z</time>
      </trkpt>
      <trkpt lat="37.1374996767" lon="-7.59387298929">
        <ele>18.4</ele>
        <time>2011-03-23T13:13:38Z</time>
      </trkpt>
      <trkpt lat="37.1374632155" lon="-7.59393593736">
        <ele>17.8</ele>
        <time>2011-03-23T13:13:41Z</time>
      </trkpt>
      <trkpt lat="37.1374242396" lon="-7.59399754433">
        <ele>17.4</ele>
        <time>2011-03-23T13:13:44Z</time>
      </trkpt>
      <trkpt lat="37.1373784745" lon="-7.59406795229">
        <ele>17</ele>
        <time>2011-03-23T13:13:47Z</time>
      </trkpt>
      <trkpt lat="37.1373382413" lon="-7.59413316347">
        <ele>16.8</ele>
        <time>2011-03-23T13:13:50Z</time>
      </trkpt>
      <trkpt lat="37.1372988464" lon="-7.59419569244">
        <ele>16.6</ele>
        <time>2011-03-23T13:13:53Z</time>
      </trkpt>
      <trkpt lat="37.137276802" lon="-7.59424170907">
        <ele>16.6</ele>
        <time>2011-03-23T13:13:55Z</time>
      </trkpt>
      <trkpt lat="37.1372273488" lon="-7.59433173068">
        <ele>16.4</ele>
        <time>2011-03-23T13:13:59Z</time>
      </trkpt>
      <trkpt lat="37.1371899655" lon="-7.59440004316">
        <ele>15.8</ele>
        <time>2011-03-23T13:14:02Z</time>
      </trkpt>
      <trkpt lat="37.1371511573" lon="-7.59446651163">
        <ele>15.4</ele>
        <time>2011-03-23T13:14:05Z</time>
      </trkpt>
      <trkpt lat="37.1371092478" lon="-7.59453163899">
        <ele>15</ele>
        <time>2011-03-23T13:14:08Z</time>
      </trkpt>
      <trkpt lat="37.1370768937" lon="-7.59459425179">
        <ele>14.8</ele>
        <time>2011-03-23T13:14:11Z</time>
      </trkpt>
      <trkpt lat="37.1370521671" lon="-7.59466717432">
        <ele>14.6</ele>
        <time>2011-03-23T13:14:14Z</time>
      </trkpt>
      <trkpt lat="37.1370390075" lon="-7.59475317261">
        <ele>14.6</ele>
        <time>2011-03-23T13:14:17Z</time>
      </trkpt>
      <trkpt lat="37.1370265185" lon="-7.59483497996">
        <ele>14.4</ele>
        <time>2011-03-23T13:14:20Z</time>
      </trkpt>
      <trkpt lat="37.1369949187" lon="-7.59491293163">
        <ele>14.4</ele>
        <time>2011-03-23T13:14:23Z</time>
      </trkpt>
      <trkpt lat="37.1369695216" lon="-7.59496900654">
        <ele>14</ele>
        <time>2011-03-23T13:14:25Z</time>
      </trkpt>
      <trkpt lat="37.1369315516" lon="-7.59503648083">
        <ele>13.4</ele>
        <time>2011-03-23T13:14:28Z</time>
      </trkpt>
      <trkpt lat="37.1369104292" lon="-7.59509163373">
        <ele>13.2</ele>
        <time>2011-03-23T13:14:30Z</time>
      </trkpt>
      <trkpt lat="37.136875309" lon="-7.59514829538">
        <ele>13</ele>
        <time>2011-03-23T13:14:33Z</time>
      </trkpt>
      <trkpt lat="37.1368644125" lon="-7.5951695854">
        <ele>12.8</ele>
        <time>2011-03-23T13:14:34Z</time>
      </trkpt>
      <trkpt lat="37.1368352435" lon="-7.59525097365">
        <ele>12.6</ele>
        <time>2011-03-23T13:14:37Z</time>
      </trkpt>
      <trkpt lat="37.1368114389" lon="-7.59530461781">
        <ele>12.6</ele>
        <time>2011-03-23T13:14:39Z</time>
      </trkpt>
      <trkpt lat="37.1367920767" lon="-7.59535214318">
        <ele>12.4</ele>
        <time>2011-03-23T13:14:41Z</time>
      </trkpt>
      <trkpt lat="37.1367561184" lon="-7.59544568519">
        <ele>12.4</ele>
        <time>2011-03-23T13:14:45Z</time>
      </trkpt>
      <trkpt lat="37.1367296316" lon="-7.59551776953">
        <ele>12.4</ele>
        <time>2011-03-23T13:14:48Z</time>
      </trkpt>
      <trkpt lat="37.1367008817" lon="-7.5955855791">
        <ele>12.2</ele>
        <time>2011-03-23T13:14:51Z</time>
      </trkpt>
      <trkpt lat="37.1366728861" lon="-7.59566001037">
        <ele>12.2</ele>
        <time>2011-03-23T13:14:54Z</time>
      </trkpt>
      <trkpt lat="37.1366402805" lon="-7.5957368724">
        <ele>12.2</ele>
        <time>2011-03-23T13:14:57Z</time>
      </trkpt>
      <trkpt lat="37.136610441" lon="-7.5958136506">
        <ele>12.2</ele>
        <time>2011-03-23T13:15:00Z</time>
      </trkpt>
      <trkpt lat="37.1365929228" lon="-7.59587148571">
        <ele>12.2</ele>
        <time>2011-03-23T13:15:02Z</time>
      </trkpt>
      <trkpt lat="37.1365644243" lon="-7.59594792864">
        <ele>12.2</ele>
        <time>2011-03-23T13:15:05Z</time>
      </trkpt>
      <trkpt lat="37.1365458165" lon="-7.59600635048">
        <ele>12.2</ele>
        <time>2011-03-23T13:15:07Z</time>
      </trkpt>
      <trkpt lat="37.1365244427" lon="-7.59608270959">
        <ele>12.2</ele>
        <time>2011-03-23T13:15:10Z</time>
      </trkpt>
      <trkpt lat="37.1365035717" lon="-7.59614347836">
        <ele>12.2</ele>
        <time>2011-03-23T13:15:13Z</time>
      </trkpt>
      <trkpt lat="37.136473816" lon="-7.59621145557">
        <ele>12.2</ele>
        <time>2011-03-23T13:15:16Z</time>
      </trkpt>
      <trkpt lat="37.1364277156" lon="-7.59627507419">
        <ele>12.2</ele>
        <time>2011-03-23T13:15:19Z</time>
      </trkpt>
      <trkpt lat="37.1363680364" lon="-7.59631187074">
        <ele>12.2</ele>
        <time>2011-03-23T13:15:22Z</time>
      </trkpt>
      <trkpt lat="37.1363058427" lon="-7.59632955654">
        <ele>12.2</ele>
        <time>2011-03-23T13:15:25Z</time>
      </trkpt>
      <trkpt lat="37.1362420565" lon="-7.59634414105">
        <ele>12.2</ele>
        <time>2011-03-23T13:15:28Z</time>
      </trkpt>
      <trkpt lat="37.1361998117" lon="-7.59636593399">
        <ele>12.2</ele>
        <time>2011-03-23T13:15:30Z</time>
      </trkpt>
      <trkpt lat="37.1361794437" lon="-7.59638303307">
        <ele>12.2</ele>
        <time>2011-03-23T13:15:31Z</time>
      </trkpt>
      <trkpt lat="37.1361532083" lon="-7.59642871442">
        <ele>12.2</ele>
        <time>2011-03-23T13:15:33Z</time>
      </trkpt>
      <trkpt lat="37.1361273083" lon="-7.59650138549">
        <ele>12.2</ele>
        <time>2011-03-23T13:15:36Z</time>
      </trkpt>
      <trkpt lat="37.1361125561" lon="-7.59656114844">
        <ele>12.2</ele>
        <time>2011-03-23T13:15:38Z</time>
      </trkpt>
      <trkpt lat="37.1360967143" lon="-7.59661504406">
        <ele>12.2</ele>
        <time>2011-03-23T13:15:40Z</time>
      </trkpt>
      <trkpt lat="37.1360795314" lon="-7.59667589665">
        <ele>12.2</ele>
        <time>2011-03-23T13:15:42Z</time>
      </trkpt>
      <trkpt lat="37.1360663718" lon="-7.5967338994">
        <ele>12.2</ele>
        <time>2011-03-23T13:15:44Z</time>
      </trkpt>
      <trkpt lat="37.1360495242" lon="-7.59678603482">
        <ele>12.2</ele>
        <time>2011-03-23T13:15:46Z</time>
      </trkpt>
      <trkpt lat="37.1360224507" lon="-7.59686851271">
        <ele>12.6</ele>
        <time>2011-03-23T13:15:49Z</time>
      </trkpt>
      <trkpt lat="37.1360063574" lon="-7.59692207306">
        <ele>13</ele>
        <time>2011-03-23T13:15:51Z</time>
      </trkpt>
      <trkpt lat="37.135993617" lon="-7.59697571722">
        <ele>13.2</ele>
        <time>2011-03-23T13:15:53Z</time>
      </trkpt>
      <trkpt lat="37.1359725784" lon="-7.59704453261">
        <ele>13.4</ele>
        <time>2011-03-23T13:15:56Z</time>
      </trkpt>
      <trkpt lat="37.1359610114" lon="-7.59709708713">
        <ele>13.6</ele>
        <time>2011-03-23T13:15:59Z</time>
      </trkpt>
      <trkpt lat="37.135956988" lon="-7.59713631442">
        <ele>13.8</ele>
        <time>2011-03-23T13:16:03Z</time>
      </trkpt>
      <trkpt lat="37.1359586644" lon="-7.5971428523">
        <ele>13.8</ele>
        <time>2011-03-23T13:16:04Z</time>
      </trkpt>
      <trkpt lat="37.1359554793" lon="-7.59715944846">
        <ele>14.2</ele>
        <time>2011-03-23T13:16:27Z</time>
      </trkpt>
      <trkpt lat="37.1359385479" lon="-7.59718383979">
        <ele>14.2</ele>
        <time>2011-03-23T13:16:51Z</time>
      </trkpt>
      <trkpt lat="37.1359247177" lon="-7.59722231271">
        <ele>14.2</ele>
        <time>2011-03-23T13:16:54Z</time>
      </trkpt>
      <trkpt lat="37.1352776351" lon="-7.59958693052">
        <ele>14.6</ele>
        <time>2011-03-23T13:56:52Z</time>
      </trkpt>
      <trkpt lat="37.1352639726" lon="-7.59963085168">
        <ele>14.6</ele>
        <time>2011-03-23T13:56:55Z</time>
      </trkpt>
      <trkpt lat="37.1352514835" lon="-7.59967041425">
        <ele>14.6</ele>
        <time>2011-03-23T13:56:58Z</time>
      </trkpt>
      <trkpt lat="37.1352480469" lon="-7.59968441202">
        <ele>14.6</ele>
        <time>2011-03-23T13:56:59Z</time>
      </trkpt>
      <trkpt lat="37.1352382401" lon="-7.59973218885">
        <ele>14.6</ele>
        <time>2011-03-23T13:57:02Z</time>
      </trkpt>
      <trkpt lat="37.1352307802" lon="-7.59977753493">
        <ele>14.6</ele>
        <time>2011-03-23T13:57:05Z</time>
      </trkpt>
      <trkpt lat="37.1352224822" lon="-7.59982573085">
        <ele>14.6</ele>
        <time>2011-03-23T13:57:09Z</time>
      </trkpt>
      <trkpt lat="37.135214687" lon="-7.5998669698">
        <ele>14.6</ele>
        <time>2011-03-23T13:57:11Z</time>
      </trkpt>
      <trkpt lat="37.1352022818" lon="-7.59991298643">
        <ele>14.6</ele>
        <time>2011-03-23T13:57:14Z</time>
      </trkpt>
      <trkpt lat="37.1351858532" lon="-7.59996252346">
        <ele>14.6</ele>
        <time>2011-03-23T13:57:17Z</time>
      </trkpt>
      <trkpt lat="37.1351701791" lon="-7.6000098812">
        <ele>14</ele>
        <time>2011-03-23T13:57:20Z</time>
      </trkpt>
      <trkpt lat="37.1351676645" lon="-7.60002882429">
        <ele>14</ele>
        <time>2011-03-23T13:57:21Z</time>
      </trkpt>
      <trkpt lat="37.1351636412" lon="-7.6000716558">
        <ele>13.4</ele>
        <time>2011-03-23T13:57:26Z</time>
      </trkpt>
      <trkpt lat="37.135164647" lon="-7.60007391891">
        <ele>13.2</ele>
        <time>2011-03-23T13:57:28Z</time>
      </trkpt>
      <trkpt lat="37.1351700115" lon="-7.60007911569">
        <ele>13</ele>
        <time>2011-03-23T13:57:32Z</time>
      </trkpt>
      <trkpt lat="37.1351286887" lon="-7.60012043846">
        <ele>12.8</ele>
        <time>2011-03-23T13:57:36Z</time>
      </trkpt>
      <trkpt lat="37.1351223184" lon="-7.60013720226">
        <ele>12.8</ele>
        <time>2011-03-23T13:57:37Z</time>
      </trkpt>
      <trkpt lat="37.1351067281" lon="-7.60018472763">
        <ele>12.8</ele>
        <time>2011-03-23T13:57:40Z</time>
      </trkpt>
      <trkpt lat="37.1350944905" lon="-7.60023719832">
        <ele>12.8</ele>
        <time>2011-03-23T13:57:43Z</time>
      </trkpt>
      <trkpt lat="37.1350897967" lon="-7.60028380169">
        <ele>12.6</ele>
        <time>2011-03-23T13:57:46Z</time>
      </trkpt>
      <trkpt lat="37.1350794031" lon="-7.6003429779">
        <ele>12.6</ele>
        <time>2011-03-23T13:57:49Z</time>
      </trkpt>
      <trkpt lat="37.1350659921" lon="-7.6003734042">
        <ele>12.6</ele>
        <time>2011-03-23T13:57:51Z</time>
      </trkpt>
      <trkpt lat="37.1350431095" lon="-7.60042294123">
        <ele>12.6</ele>
        <time>2011-03-23T13:57:56Z</time>
      </trkpt>
      <trkpt lat="37.1350397567" lon="-7.60043601699">
        <ele>12.6</ele>
        <time>2011-03-23T13:57:57Z</time>
      </trkpt>
      <trkpt lat="37.1350229929" lon="-7.60050458093">
        <ele>12.6</ele>
        <time>2011-03-23T13:58:01Z</time>
      </trkpt>
      <trkpt lat="37.1350101686" lon="-7.60055042993">
        <ele>12.6</ele>
        <time>2011-03-23T13:58:04Z</time>
      </trkpt>
      <trkpt lat="37.1349939077" lon="-7.60059569219">
        <ele>12.6</ele>
        <time>2011-03-23T13:58:07Z</time>
      </trkpt>
      <trkpt lat="37.1349794071" lon="-7.60064531304">
        <ele>12.6</ele>
        <time>2011-03-23T13:58:10Z</time>
      </trkpt>
      <trkpt lat="37.1349652416" lon="-7.6006905753">
        <ele>12.6</ele>
        <time>2011-03-23T13:58:13Z</time>
      </trkpt>
      <trkpt lat="37.1349567759" lon="-7.60073851976">
        <ele>12.6</ele>
        <time>2011-03-23T13:58:16Z</time>
      </trkpt>
      <trkpt lat="37.1349437002" lon="-7.60078143509">
        <ele>12.6</ele>
        <time>2011-03-23T13:58:19Z</time>
      </trkpt>
      <trkpt lat="37.1349310435" lon="-7.60082083002">
        <ele>12.6</ele>
        <time>2011-03-23T13:58:22Z</time>
      </trkpt>
      <trkpt lat="37.1349241703" lon="-7.60082870901">
        <ele>12.6</ele>
        <time>2011-03-23T13:58:23Z</time>
      </trkpt>
      <trkpt lat="37.1348990246" lon="-7.60086232043">
        <ele>12.6</ele>
        <time>2011-03-23T13:58:27Z</time>
      </trkpt>
      <trkpt lat="37.1348799977" lon="-7.60089785968">
        <ele>12</ele>
        <time>2011-03-23T13:58:30Z</time>
      </trkpt>
      <trkpt lat="37.1348540138" lon="-7.60095401841">
        <ele>11.6</ele>
        <time>2011-03-23T13:58:34Z</time>
      </trkpt>
      <trkpt lat="37.1348457157" lon="-7.60096575307">
        <ele>11.4</ele>
        <time>2011-03-23T13:58:35Z</time>
      </trkpt>
      <trkpt lat="37.1348287005" lon="-7.60100196288">
        <ele>11.2</ele>
        <time>2011-03-23T13:58:38Z</time>
      </trkpt>
      <trkpt lat="37.1348173849" lon="-7.60104563258">
        <ele>11</ele>
        <time>2011-03-23T13:58:41Z</time>
      </trkpt>
      <trkpt lat="37.1348044768" lon="-7.60108536279">
        <ele>11</ele>
        <time>2011-03-23T13:58:44Z</time>
      </trkpt>
      <trkpt lat="37.1347984418" lon="-7.60109818709">
        <ele>10.8</ele>
        <time>2011-03-23T13:58:45Z</time>
      </trkpt>
      <trkpt lat="37.1347841926" lon="-7.6011396775">
        <ele>10.8</ele>
        <time>2011-03-23T13:58:49Z</time>
      </trkpt>
      <trkpt lat="37.1347757269" lon="-7.6011864485">
        <ele>10.8</ele>
        <time>2011-03-23T13:58:51Z</time>
      </trkpt>
      <trkpt lat="37.1347656686" lon="-7.60123481206">
        <ele>10.6</ele>
        <time>2011-03-23T13:58:54Z</time>
      </trkpt>
      <trkpt lat="37.1347564485" lon="-7.60126833966">
        <ele>10.6</ele>
        <time>2011-03-23T13:58:56Z</time>
      </trkpt>
      <trkpt lat="37.1347403553" lon="-7.60132910844">
        <ele>10.2</ele>
        <time>2011-03-23T13:59:00Z</time>
      </trkpt>
      <trkpt lat="37.1347315543" lon="-7.60135509233">
        <ele>10</ele>
        <time>2011-03-23T13:59:01Z</time>
      </trkpt>
      <trkpt lat="37.1347070791" lon="-7.60143622912">
        <ele>9.6</ele>
        <time>2011-03-23T13:59:05Z</time>
      </trkpt>
      <trkpt lat="37.1346795027" lon="-7.60149121438">
        <ele>9.2</ele>
        <time>2011-03-23T13:59:09Z</time>
      </trkpt>
      <trkpt lat="37.1346499984" lon="-7.6015455291">
        <ele>9</ele>
        <time>2011-03-23T13:59:11Z</time>
      </trkpt>
      <trkpt lat="37.1346230087" lon="-7.60160638169">
        <ele>9</ele>
        <time>2011-03-23T13:59:14Z</time>
      </trkpt>
      <trkpt lat="37.134593672" lon="-7.60168315989">
        <ele>8.8</ele>
        <time>2011-03-23T13:59:18Z</time>
      </trkpt>
      <trkpt lat="37.1345743936" lon="-7.60174267138">
        <ele>8.8</ele>
        <time>2011-03-23T13:59:20Z</time>
      </trkpt>
      <trkpt lat="37.1345534389" lon="-7.60180964276">
        <ele>8.8</ele>
        <time>2011-03-23T13:59:23Z</time>
      </trkpt>
      <trkpt lat="37.1345318136" lon="-7.60187845816">
        <ele>8.6</ele>
        <time>2011-03-23T13:59:26Z</time>
      </trkpt>
      <trkpt lat="37.1345157203" lon="-7.60194107096">
        <ele>8.6</ele>
        <time>2011-03-23T13:59:29Z</time>
      </trkpt>
      <trkpt lat="37.134501052" lon="-7.60200368375">
        <ele>8.6</ele>
        <time>2011-03-23T13:59:31Z</time>
      </trkpt>
      <trkpt lat="37.1344798458" lon="-7.60208004286">
        <ele>8.6</ele>
        <time>2011-03-23T13:59:34Z</time>
      </trkpt>
      <trkpt lat="37.1344562089" lon="-7.60215690488">
        <ele>8.6</ele>
        <time>2011-03-23T13:59:37Z</time>
      </trkpt>
      <trkpt lat="37.1344315661" lon="-7.6022227028">
        <ele>8.6</ele>
        <time>2011-03-23T13:59:40Z</time>
      </trkpt>
      <trkpt lat="37.1344042411" lon="-7.60229160201">
        <ele>9</ele>
        <time>2011-03-23T13:59:43Z</time>
      </trkpt>
      <trkpt lat="37.1343875611" lon="-7.60237039187">
        <ele>9.4</ele>
        <time>2011-03-23T13:59:46Z</time>
      </trkpt>
      <trkpt lat="37.1343865553" lon="-7.60242839462">
        <ele>9.6</ele>
        <time>2011-03-23T13:59:49Z</time>
      </trkpt>
      <trkpt lat="37.1343835378" lon="-7.60248581064">
        <ele>9.8</ele>
        <time>2011-03-23T13:59:50Z</time>
      </trkpt>
      <trkpt lat="37.1343781734" lon="-7.60256342703">
        <ele>10</ele>
        <time>2011-03-23T13:59:53Z</time>
      </trkpt>
      <trkpt lat="37.1343683665" lon="-7.60264196543">
        <ele>10.2</ele>
        <time>2011-03-23T13:59:56Z</time>
      </trkpt>
      <trkpt lat="37.1343567157" lon="-7.60272368896">
        <ele>10.4</ele>
        <time>2011-03-23T13:59:59Z</time>
      </trkpt>
      <trkpt lat="37.1343507646" lon="-7.60278462537">
        <ele>10.6</ele>
        <time>2011-03-23T14:00:01Z</time>
      </trkpt>
      <trkpt lat="37.1343460707" lon="-7.60284623234">
        <ele>11</ele>
        <time>2011-03-23T14:00:03Z</time>
      </trkpt>
      <trkpt lat="37.1343467412" lon="-7.60290850985">
        <ele>11.4</ele>
        <time>2011-03-23T14:00:05Z</time>
      </trkpt>
      <trkpt lat="37.1343513513" lon="-7.60297011682">
        <ele>11.6</ele>
        <time>2011-03-23T14:00:07Z</time>
      </trkpt>
      <trkpt lat="37.1343613257" lon="-7.60302552118">
        <ele>11.8</ele>
        <time>2011-03-23T14:00:09Z</time>
      </trkpt>
      <trkpt lat="37.1343870582" lon="-7.60307363328">
        <ele>12</ele>
        <time>2011-03-23T14:00:11Z</time>
      </trkpt>
      <trkpt lat="37.1344208372" lon="-7.60311730298">
        <ele>12.4</ele>
        <time>2011-03-23T14:00:13Z</time>
      </trkpt>
      <trkpt lat="37.1344702904" lon="-7.6031694384">
        <ele>13</ele>
        <time>2011-03-23T14:00:16Z</time>
      </trkpt>
      <trkpt lat="37.1345147983" lon="-7.60322643532">
        <ele>13.6</ele>
        <time>2011-03-23T14:00:19Z</time>
      </trkpt>
      <trkpt lat="37.1345604797" lon="-7.60328494098">
        <ele>14</ele>
        <time>2011-03-23T14:00:22Z</time>
      </trkpt>
      <trkpt lat="37.1345962704" lon="-7.60332089933">
        <ele>14</ele>
        <time>2011-03-23T14:00:24Z</time>
      </trkpt>
      <trkpt lat="37.1346463942" lon="-7.6033789859">
        <ele>14.2</ele>
        <time>2011-03-23T14:00:27Z</time>
      </trkpt>
      <trkpt lat="37.1346990325" lon="-7.60343170805">
        <ele>15</ele>
        <time>2011-03-23T14:00:30Z</time>
      </trkpt>
      <trkpt lat="37.1347510841" lon="-7.60348493312">
        <ele>15.6</ele>
        <time>2011-03-23T14:00:33Z</time>
      </trkpt>
      <trkpt lat="37.1348012917" lon="-7.60354016984">
        <ele>16</ele>
        <time>2011-03-23T14:00:36Z</time>
      </trkpt>
      <trkpt lat="37.1348400161" lon="-7.60357596055">
        <ele>16.2</ele>
        <time>2011-03-23T14:00:38Z</time>
      </trkpt>
      <trkpt lat="37.1348918162" lon="-7.60363186782">
        <ele>16.4</ele>
        <time>2011-03-23T14:00:41Z</time>
      </trkpt>
      <trkpt lat="37.1349445383" lon="-7.60367645953">
        <ele>17</ele>
        <time>2011-03-23T14:00:44Z</time>
      </trkpt>
      <trkpt lat="37.1349764734" lon="-7.60371971014">
        <ele>17.4</ele>
        <time>2011-03-23T14:00:46Z</time>
      </trkpt>
      <trkpt lat="37.1350089113" lon="-7.60375566849">
        <ele>17.8</ele>
        <time>2011-03-23T14:00:49Z</time>
      </trkpt>
      <trkpt lat="37.1350457917" lon="-7.603789699">
        <ele>18</ele>
        <time>2011-03-23T14:00:50Z</time>
      </trkpt>
      <trkpt lat="37.135090132" lon="-7.6038435108">
        <ele>18.2</ele>
        <time>2011-03-23T14:00:53Z</time>
      </trkpt>
      <trkpt lat="37.1351242463" lon="-7.60389966953">
        <ele>18.4</ele>
        <time>2011-03-23T14:00:57Z</time>
      </trkpt>
      <trkpt lat="37.1351731128" lon="-7.60395566062">
        <ele>19.2</ele>
        <time>2011-03-23T14:00:59Z</time>
      </trkpt>
      <trkpt lat="37.1352130106" lon="-7.60399497173">
        <ele>19.6</ele>
        <time>2011-03-23T14:01:02Z</time>
      </trkpt>
      <trkpt lat="37.1352482984" lon="-7.60403428284">
        <ele>19.8</ele>
        <time>2011-03-23T14:01:04Z</time>
      </trkpt>
      <trkpt lat="37.1353046248" lon="-7.60408113766">
        <ele>20.2</ele>
        <time>2011-03-23T14:01:07Z</time>
      </trkpt>
      <trkpt lat="37.1353424271" lon="-7.60411206688">
        <ele>20.4</ele>
        <time>2011-03-23T14:01:09Z</time>
      </trkpt>
      <trkpt lat="37.1353840852" lon="-7.60413880514">
        <ele>20.4</ele>
        <time>2011-03-23T14:01:10Z</time>
      </trkpt>
      <trkpt lat="37.1354250727" lon="-7.60416621395">
        <ele>20.6</ele>
        <time>2011-03-23T14:01:13Z</time>
      </trkpt>
      <trkpt lat="37.135475867" lon="-7.60419437713">
        <ele>20.8</ele>
        <time>2011-03-23T14:01:15Z</time>
      </trkpt>
      <trkpt lat="37.135549963" lon="-7.60424022613">
        <ele>20.8</ele>
        <time>2011-03-23T14:01:19Z</time>
      </trkpt>
      <trkpt lat="37.1356123243" lon="-7.60427903432">
        <ele>21</ele>
        <time>2011-03-23T14:01:22Z</time>
      </trkpt>
      <trkpt lat="37.1356691536" lon="-7.60431457358">
        <ele>21.6</ele>
        <time>2011-03-23T14:01:24Z</time>
      </trkpt>
      <trkpt lat="37.1357173495" lon="-7.60434558661">
        <ele>22</ele>
        <time>2011-03-23T14:01:27Z</time>
      </trkpt>
      <trkpt lat="37.1357885119" lon="-7.60439101651">
        <ele>22.4</ele>
        <time>2011-03-23T14:01:31Z</time>
      </trkpt>
      <trkpt lat="37.1358307566" lon="-7.60441272563">
        <ele>22.4</ele>
        <time>2011-03-23T14:01:33Z</time>
      </trkpt>
      <trkpt lat="37.1358972251" lon="-7.60444264901">
        <ele>22.6</ele>
        <time>2011-03-23T14:01:36Z</time>
      </trkpt>
      <trkpt lat="37.1359632745" lon="-7.60446754325">
        <ele>22.8</ele>
        <time>2011-03-23T14:01:39Z</time>
      </trkpt>
      <trkpt lat="37.1360296591" lon="-7.60448824655">
        <ele>22.8</ele>
        <time>2011-03-23T14:01:42Z</time>
      </trkpt>
      <trkpt lat="37.1360939483" lon="-7.60450534562">
        <ele>23</ele>
        <time>2011-03-23T14:01:44Z</time>
      </trkpt>
      <trkpt lat="37.1361593271" lon="-7.60452101978">
        <ele>23</ele>
        <time>2011-03-23T14:01:48Z</time>
      </trkpt>
      <trkpt lat="37.136223281" lon="-7.6045378674">
        <ele>23</ele>
        <time>2011-03-23T14:01:51Z</time>
      </trkpt>
      <trkpt lat="37.1362871511" lon="-7.60455588848">
        <ele>23</ele>
        <time>2011-03-23T14:01:54Z</time>
      </trkpt>
      <trkpt lat="37.1363499315" lon="-7.60456938334">
        <ele>23</ele>
        <time>2011-03-23T14:01:57Z</time>
      </trkpt>
      <trkpt lat="37.1364127958" lon="-7.60458572804">
        <ele>23</ele>
        <time>2011-03-23T14:01:59Z</time>
      </trkpt>
      <trkpt lat="37.1364768335" lon="-7.60459972582">
        <ele>23</ele>
        <time>2011-03-23T14:02:03Z</time>
      </trkpt>
      <trkpt lat="37.1365388595" lon="-7.60461548379">
        <ele>23</ele>
        <time>2011-03-23T14:02:06Z</time>
      </trkpt>
      <trkpt lat="37.1365985387" lon="-7.6046327505">
        <ele>23</ele>
        <time>2011-03-23T14:02:09Z</time>
      </trkpt>
      <trkpt lat="37.1366607324" lon="-7.6046499334">
        <ele>23</ele>
        <time>2011-03-23T14:02:12Z</time>
      </trkpt>
      <trkpt lat="37.1367176455" lon="-7.60466820594">
        <ele>23.2</ele>
        <time>2011-03-23T14:02:14Z</time>
      </trkpt>
      <trkpt lat="37.136779001" lon="-7.60468077879">
        <ele>23.2</ele>
        <time>2011-03-23T14:02:18Z</time>
      </trkpt>
      <trkpt lat="37.1368100978" lon="-7.60468756813">
        <ele>23.2</ele>
        <time>2011-03-23T14:02:19Z</time>
      </trkpt>
      <trkpt lat="37.1368846967" lon="-7.60469938661">
        <ele>23.2</ele>
        <time>2011-03-23T14:02:22Z</time>
      </trkpt>
      <trkpt lat="37.1369502432" lon="-7.60470676268">
        <ele>23.2</ele>
        <time>2011-03-23T14:02:26Z</time>
      </trkpt>
      <trkpt lat="37.1370027977" lon="-7.6047165695">
        <ele>23.2</ele>
        <time>2011-03-23T14:02:28Z</time>
      </trkpt>
      <trkpt lat="37.1370533406" lon="-7.60472419703">
        <ele>23.2</ele>
        <time>2011-03-23T14:02:31Z</time>
      </trkpt>
      <trkpt lat="37.1371139417" lon="-7.60472939381">
        <ele>23.2</ele>
        <time>2011-03-23T14:02:34Z</time>
      </trkpt>
      <trkpt lat="37.1371730341" lon="-7.60473408767">
        <ele>23.2</ele>
        <time>2011-03-23T14:02:37Z</time>
      </trkpt>
      <trkpt lat="37.1372352278" lon="-7.60473953591">
        <ele>23.2</ele>
        <time>2011-03-23T14:02:39Z</time>
      </trkpt>
      <trkpt lat="37.1372973377" lon="-7.60474640907">
        <ele>23.2</ele>
        <time>2011-03-23T14:02:43Z</time>
      </trkpt>
      <trkpt lat="37.1373546699" lon="-7.60475470715">
        <ele>23.2</ele>
        <time>2011-03-23T14:02:46Z</time>
      </trkpt>
      <trkpt lat="37.1374151872" lon="-7.60475831137">
        <ele>23.2</ele>
        <time>2011-03-23T14:02:49Z</time>
      </trkpt>
      <trkpt lat="37.1374732738" lon="-7.60475688644">
        <ele>23.2</ele>
        <time>2011-03-23T14:02:52Z</time>
      </trkpt>
      <trkpt lat="37.1375283428" lon="-7.60475805991">
        <ele>23.2</ele>
        <time>2011-03-23T14:02:55Z</time>
      </trkpt>
      <trkpt lat="37.1375754491" lon="-7.60475236022">
        <ele>23.2</ele>
        <time>2011-03-23T14:02:57Z</time>
      </trkpt>
      <trkpt lat="37.1376114913" lon="-7.60474473269">
        <ele>23.2</ele>
        <time>2011-03-23T14:02:59Z</time>
      </trkpt>
      <trkpt lat="37.1376899459" lon="-7.60474598997">
        <ele>22.4</ele>
        <time>2011-03-23T14:03:03Z</time>
      </trkpt>
      <trkpt lat="37.1377090566" lon="-7.60474456505">
        <ele>22.2</ele>
        <time>2011-03-23T14:03:04Z</time>
      </trkpt>
      <trkpt lat="37.1377731781" lon="-7.60474691198">
        <ele>22</ele>
        <time>2011-03-23T14:03:07Z</time>
      </trkpt>
      <trkpt lat="37.1378259003" lon="-7.60474506796">
        <ele>21.6</ele>
        <time>2011-03-23T14:03:10Z</time>
      </trkpt>
      <trkpt lat="37.1378881778" lon="-7.60474909127">
        <ele>21.6</ele>
        <time>2011-03-23T14:03:13Z</time>
      </trkpt>
      <trkpt lat="37.1379390559" lon="-7.6047505162">
        <ele>21.4</ele>
        <time>2011-03-23T14:03:15Z</time>
      </trkpt>
      <trkpt lat="37.1380118108" lon="-7.60474557088">
        <ele>21.2</ele>
        <time>2011-03-23T14:03:19Z</time>
      </trkpt>
      <trkpt lat="37.1380676343" lon="-7.60473744043">
        <ele>21.2</ele>
        <time>2011-03-23T14:03:22Z</time>
      </trkpt>
      <trkpt lat="37.1381208594" lon="-7.60473098637">
        <ele>21.2</ele>
        <time>2011-03-23T14:03:25Z</time>
      </trkpt>
      <trkpt lat="37.1381823825" lon="-7.60472176628">
        <ele>21.2</ele>
        <time>2011-03-23T14:03:28Z</time>
      </trkpt>
      <trkpt lat="37.1382423131" lon="-7.60472302357">
        <ele>21.2</ele>
        <time>2011-03-23T14:03:31Z</time>
      </trkpt>
      <trkpt lat="37.138303501" lon="-7.60471547986">
        <ele>21</ele>
        <time>2011-03-23T14:03:34Z</time>
      </trkpt>
      <trkpt lat="37.1383600788" lon="-7.60470726559">
        <ele>20.6</ele>
        <time>2011-03-23T14:03:37Z</time>
      </trkpt>
      <trkpt lat="37.1384190874" lon="-7.60469938661">
        <ele>20.2</ele>
        <time>2011-03-23T14:03:39Z</time>
      </trkpt>
      <trkpt lat="37.1384782636" lon="-7.60469427365">
        <ele>20</ele>
        <time>2011-03-23T14:03:43Z</time>
      </trkpt>
      <trkpt lat="37.1385388647" lon="-7.60468857396">
        <ele>19.6</ele>
        <time>2011-03-23T14:03:46Z</time>
      </trkpt>
      <trkpt lat="37.1385979571" lon="-7.60468421537">
        <ele>19.4</ele>
        <time>2011-03-23T14:03:49Z</time>
      </trkpt>
      <trkpt lat="37.1386603184" lon="-7.60468186844">
        <ele>19.4</ele>
        <time>2011-03-23T14:03:52Z</time>
      </trkpt>
      <trkpt lat="37.1387192432" lon="-7.60468756813">
        <ele>19.2</ele>
        <time>2011-03-23T14:03:54Z</time>
      </trkpt>
      <trkpt lat="37.1387841191" lon="-7.60467826422">
        <ele>19.2</ele>
        <time>2011-03-23T14:03:58Z</time>
      </trkpt>
      <trkpt lat="37.1388447202" lon="-7.60466720011">
        <ele>19.2</ele>
        <time>2011-03-23T14:04:01Z</time>
      </trkpt>
      <trkpt lat="37.138908758" lon="-7.60465915349">
        <ele>19.2</ele>
        <time>2011-03-23T14:04:04Z</time>
      </trkpt>
      <trkpt lat="37.1389695267" lon="-7.60465957258">
        <ele>19</ele>
        <time>2011-03-23T14:04:07Z</time>
      </trkpt>
      <trkpt lat="37.1390150404" lon="-7.60466259007">
        <ele>19</ele>
        <time>2011-03-23T14:04:09Z</time>
      </trkpt>
      <trkpt lat="37.1390807545" lon="-7.60467591729">
        <ele>19</ele>
        <time>2011-03-23T14:04:12Z</time>
      </trkpt>
      <trkpt lat="37.139145379" lon="-7.60469326782">
        <ele>19</ele>
        <time>2011-03-23T14:04:14Z</time>
      </trkpt>
      <trkpt lat="37.1392135238" lon="-7.6047086067">
        <ele>19</ele>
        <time>2011-03-23T14:04:18Z</time>
      </trkpt>
      <trkpt lat="37.1392566068" lon="-7.60471640187">
        <ele>19</ele>
        <time>2011-03-23T14:04:19Z</time>
      </trkpt>
      <trkpt lat="37.1393261766" lon="-7.60472805271">
        <ele>19</ele>
        <time>2011-03-23T14:04:23Z</time>
      </trkpt>
      <trkpt lat="37.1393902981" lon="-7.60473425531">
        <ele>18.6</ele>
        <time>2011-03-23T14:04:26Z</time>
      </trkpt>
      <trkpt lat="37.1394490552" lon="-7.60474816927">
        <ele>18.2</ele>
        <time>2011-03-23T14:04:29Z</time>
      </trkpt>
      <trkpt lat="37.1395109975" lon="-7.60476451397">
        <ele>17.8</ele>
        <time>2011-03-23T14:04:32Z</time>
      </trkpt>
      <trkpt lat="37.1395728559" lon="-7.60477499135">
        <ele>17.6</ele>
        <time>2011-03-23T14:04:34Z</time>
      </trkpt>
      <trkpt lat="37.139641336" lon="-7.60478261888">
        <ele>17.4</ele>
        <time>2011-03-23T14:04:38Z</time>
      </trkpt>
      <trkpt lat="37.1397026915" lon="-7.60479586228">
        <ele>17.4</ele>
        <time>2011-03-23T14:04:40Z</time>
      </trkpt>
      <trkpt lat="37.1397679027" lon="-7.60480776458">
        <ele>17.2</ele>
        <time>2011-03-23T14:04:44Z</time>
      </trkpt>
      <trkpt lat="37.1398299288" lon="-7.60481874486">
        <ele>17.2</ele>
        <time>2011-03-23T14:04:47Z</time>
      </trkpt>
      <trkpt lat="37.1398917034" lon="-7.60482033743">
        <ele>17.2</ele>
        <time>2011-03-23T14:04:50Z</time>
      </trkpt>
      <trkpt lat="37.1399485326" lon="-7.60482151089">
        <ele>17</ele>
        <time>2011-03-23T14:04:52Z</time>
      </trkpt>
      <trkpt lat="37.1400159231" lon="-7.60482519893">
        <ele>17</ele>
        <time>2011-03-23T14:04:56Z</time>
      </trkpt>
      <trkpt lat="37.1400766081" lon="-7.60483282646">
        <ele>17</ele>
        <time>2011-03-23T14:04:59Z</time>
      </trkpt>
      <trkpt lat="37.1401377121" lon="-7.60483735268">
        <ele>17</ele>
        <time>2011-03-23T14:05:02Z</time>
      </trkpt>
      <trkpt lat="37.1401994867" lon="-7.60484456112">
        <ele>17</ele>
        <time>2011-03-23T14:05:04Z</time>
      </trkpt>
      <trkpt lat="37.1402638597" lon="-7.60485093136">
        <ele>17</ele>
        <time>2011-03-23T14:05:08Z</time>
      </trkpt>
      <trkpt lat="37.1403233712" lon="-7.60485855889">
        <ele>17</ele>
        <time>2011-03-23T14:05:11Z</time>
      </trkpt>
      <trkpt lat="37.1403857326" lon="-7.60486459386">
        <ele>17</ele>
        <time>2011-03-23T14:05:14Z</time>
      </trkpt>
      <trkpt lat="37.1404489321" lon="-7.60487180229">
        <ele>17</ele>
        <time>2011-03-23T14:05:17Z</time>
      </trkpt>
      <trkpt lat="37.1405439828" lon="-7.60488546479">
        <ele>17</ele>
        <time>2011-03-23T14:05:22Z</time>
      </trkpt>
      <trkpt lat="37.1405988004" lon="-7.60489644508">
        <ele>17</ele>
        <time>2011-03-23T14:05:24Z</time>
      </trkpt>
      <trkpt lat="37.1406565517" lon="-7.60490734155">
        <ele>17</ele>
        <time>2011-03-23T14:05:28Z</time>
      </trkpt>
      <trkpt lat="37.1407112855" lon="-7.60491337652">
        <ele>17</ele>
        <time>2011-03-23T14:05:31Z</time>
      </trkpt>
      <trkpt lat="37.1407696236" lon="-7.60491999822">
        <ele>17</ele>
        <time>2011-03-23T14:05:34Z</time>
      </trkpt>
      <trkpt lat="37.1408308953" lon="-7.60492511118">
        <ele>17</ele>
        <time>2011-03-23T14:05:37Z</time>
      </trkpt>
      <trkpt lat="37.1408910773" lon="-7.6049331578">
        <ele>17</ele>
        <time>2011-03-23T14:05:39Z</time>
      </trkpt>
      <trkpt lat="37.1409380998" lon="-7.60493064323">
        <ele>17</ele>
        <time>2011-03-23T14:05:42Z</time>
      </trkpt>
      <trkpt lat="37.1409987847" lon="-7.60492687137">
        <ele>17</ele>
        <time>2011-03-23T14:05:44Z</time>
      </trkpt>
      <trkpt lat="37.1410533509" lon="-7.60491580727">
        <ele>17</ele>
        <time>2011-03-23T14:05:48Z</time>
      </trkpt>
      <trkpt lat="37.1411137844" lon="-7.6049031506">
        <ele>17</ele>
        <time>2011-03-23T14:05:51Z</time>
      </trkpt>
      <trkpt lat="37.141174637" lon="-7.60488479424">
        <ele>17</ele>
        <time>2011-03-23T14:05:54Z</time>
      </trkpt>
      <trkpt lat="37.1412239226" lon="-7.60486895245">
        <ele>17</ele>
        <time>2011-03-23T14:05:57Z</time>
      </trkpt>
      <trkpt lat="37.1412784049" lon="-7.60485369739">
        <ele>17</ele>
        <time>2011-03-23T14:06:00Z</time>
      </trkpt>
      <trkpt lat="37.1413395928" lon="-7.60483793942">
        <ele>17</ele>
        <time>2011-03-23T14:06:03Z</time>
      </trkpt>
      <trkpt lat="37.1413918958" lon="-7.60481287753">
        <ele>17</ele>
        <time>2011-03-23T14:06:06Z</time>
      </trkpt>
      <trkpt lat="37.1414526646" lon="-7.6047889053">
        <ele>17</ele>
        <time>2011-03-23T14:06:09Z</time>
      </trkpt>
      <trkpt lat="37.1415131819" lon="-7.60477532662">
        <ele>17</ele>
        <time>2011-03-23T14:06:12Z</time>
      </trkpt>
      <trkpt lat="37.1415743698" lon="-7.60479938267">
        <ele>17</ele>
        <time>2011-03-23T14:06:14Z</time>
      </trkpt>
      <trkpt lat="37.1416282654" lon="-7.60481656557">
        <ele>17</ele>
        <time>2011-03-23T14:06:17Z</time>
      </trkpt>
      <trkpt lat="37.1416717675" lon="-7.60483131771">
        <ele>17</ele>
        <time>2011-03-23T14:06:20Z</time>
      </trkpt>
      <trkpt lat="37.1417057142" lon="-7.60485369739">
        <ele>17</ele>
        <time>2011-03-23T14:06:22Z</time>
      </trkpt>
      <trkpt lat="37.1417162754" lon="-7.60485478703">
        <ele>17</ele>
        <time>2011-03-23T14:06:27Z</time>
      </trkpt>
      <trkpt lat="37.1417541615" lon="-7.60485981617">
        <ele>20.8</ele>
        <time>2011-03-23T14:07:19Z</time>
      </trkpt>
      <trkpt lat="37.1417954843" lon="-7.60482603712">
        <ele>21</ele>
        <time>2011-03-23T14:07:23Z</time>
      </trkpt>
      <trkpt lat="37.1418560016" lon="-7.60479452117">
        <ele>21</ele>
        <time>2011-03-23T14:07:27Z</time>
      </trkpt>
      <trkpt lat="37.1419068798" lon="-7.60476526834">
        <ele>21</ele>
        <time>2011-03-23T14:07:30Z</time>
      </trkpt>
      <trkpt lat="37.1419684029" lon="-7.60472939381">
        <ele>21</ele>
        <time>2011-03-23T14:07:33Z</time>
      </trkpt>
      <trkpt lat="37.1420098095" lon="-7.6047086067">
        <ele>21</ele>
        <time>2011-03-23T14:07:34Z</time>
      </trkpt>
      <trkpt lat="37.1420721708" lon="-7.60467667166">
        <ele>21</ele>
        <time>2011-03-23T14:07:38Z</time>
      </trkpt>
      <trkpt lat="37.1421125716" lon="-7.6046547949">
        <ele>21</ele>
        <time>2011-03-23T14:07:39Z</time>
      </trkpt>
      <trkpt lat="37.1421599293" lon="-7.60462587735">
        <ele>21</ele>
        <time>2011-03-23T14:07:41Z</time>
      </trkpt>
      <trkpt lat="37.1422039343" lon="-7.60460366531">
        <ele>21</ele>
        <time>2011-03-23T14:07:43Z</time>
      </trkpt>
      <trkpt lat="37.1422656251" lon="-7.6045661144">
        <ele>21</ele>
        <time>2011-03-23T14:07:46Z</time>
      </trkpt>
      <trkpt lat="37.1423225382" lon="-7.60453350881">
        <ele>21</ele>
        <time>2011-03-23T14:07:49Z</time>
      </trkpt>
      <trkpt lat="37.1423803733" lon="-7.60449939447">
        <ele>21</ele>
        <time>2011-03-23T14:07:52Z</time>
      </trkpt>
      <trkpt lat="37.1424445786" lon="-7.60445782025">
        <ele>21</ele>
        <time>2011-03-23T14:07:55Z</time>
      </trkpt>
      <trkpt lat="37.1425111309" lon="-7.60441884442">
        <ele>21</ele>
        <time>2011-03-23T14:07:58Z</time>
      </trkpt>
      <trkpt lat="37.1425604165" lon="-7.60439814112">
        <ele>21</ele>
        <time>2011-03-23T14:08:00Z</time>
      </trkpt>
      <trkpt lat="37.1426048406" lon="-7.6043817126">
        <ele>21</ele>
        <time>2011-03-23T14:08:02Z</time>
      </trkpt>
      <trkpt lat="37.1426511925" lon="-7.60437182196">
        <ele>21</ele>
        <time>2011-03-23T14:08:04Z</time>
      </trkpt>
      <trkpt lat="37.1427051719" lon="-7.60436771482">
        <ele>21</ele>
        <time>2011-03-23T14:08:06Z</time>
      </trkpt>
      <trkpt lat="37.1427634261" lon="-7.60434709535">
        <ele>21</ele>
        <time>2011-03-23T14:08:09Z</time>
      </trkpt>
      <trkpt lat="37.1428323253" lon="-7.60433611506">
        <ele>21</ele>
        <time>2011-03-23T14:08:12Z</time>
      </trkpt>
      <trkpt lat="37.1428955249" lon="-7.60433603124">
        <ele>21</ele>
        <time>2011-03-23T14:08:15Z</time>
      </trkpt>
      <trkpt lat="37.1429623286" lon="-7.60434089275">
        <ele>21</ele>
        <time>2011-03-23T14:08:18Z</time>
      </trkpt>
      <trkpt lat="37.1430231812" lon="-7.60434131184">
        <ele>21</ele>
        <time>2011-03-23T14:08:21Z</time>
      </trkpt>
      <trkpt lat="37.1430850396" lon="-7.60434097656">
        <ele>21</ele>
        <time>2011-03-23T14:08:24Z</time>
      </trkpt>
      <trkpt lat="37.1431494126" lon="-7.60433192411">
        <ele>21</ele>
        <time>2011-03-23T14:08:27Z</time>
      </trkpt>
      <trkpt lat="37.1431974409" lon="-7.6043292419">
        <ele>21</ele>
        <time>2011-03-23T14:08:29Z</time>
      </trkpt>
      <trkpt lat="37.1432666754" lon="-7.6043345225">
        <ele>21.4</ele>
        <time>2011-03-23T14:08:33Z</time>
      </trkpt>
      <trkpt lat="37.1433132788" lon="-7.60434625716">
        <ele>21.8</ele>
        <time>2011-03-23T14:08:34Z</time>
      </trkpt>
      <trkpt lat="37.143380334" lon="-7.60435338178">
        <ele>22.2</ele>
        <time>2011-03-23T14:08:37Z</time>
      </trkpt>
      <trkpt lat="37.1434466348" lon="-7.60434424551">
        <ele>22.4</ele>
        <time>2011-03-23T14:08:40Z</time>
      </trkpt>
      <trkpt lat="37.1435093314" lon="-7.60432739789">
        <ele>22.6</ele>
        <time>2011-03-23T14:08:43Z</time>
      </trkpt>
      <trkpt lat="37.1435695973" lon="-7.60431574705">
        <ele>22.8</ele>
        <time>2011-03-23T14:08:46Z</time>
      </trkpt>
      <trkpt lat="37.143617877" lon="-7.6043164176">
        <ele>23.2</ele>
        <time>2011-03-23T14:08:49Z</time>
      </trkpt>
      <trkpt lat="37.143680406" lon="-7.60432136292">
        <ele>23.8</ele>
        <time>2011-03-23T14:08:51Z</time>
      </trkpt>
      <trkpt lat="37.1437316194" lon="-7.60432605678">
        <ele>24</ele>
        <time>2011-03-23T14:08:54Z</time>
      </trkpt>
      <trkpt lat="37.1437955733" lon="-7.60432027327">
        <ele>24.4</ele>
        <time>2011-03-23T14:08:57Z</time>
      </trkpt>
      <trkpt lat="37.1438562582" lon="-7.60431490886">
        <ele>24.6</ele>
        <time>2011-03-23T14:08:59Z</time>
      </trkpt>
      <trkpt lat="37.1439039513" lon="-7.60431876453">
        <ele>24.6</ele>
        <time>2011-03-23T14:09:02Z</time>
      </trkpt>
      <trkpt lat="37.143949465" lon="-7.60432588914">
        <ele>24.8</ele>
        <time>2011-03-23T14:09:03Z</time>
      </trkpt>
      <trkpt lat="37.144006881" lon="-7.60434097656">
        <ele>24.8</ele>
        <time>2011-03-23T14:09:06Z</time>
      </trkpt>
      <trkpt lat="37.1440504669" lon="-7.60435279504">
        <ele>25</ele>
        <time>2011-03-23T14:09:09Z</time>
      </trkpt>
      <trkpt lat="37.1441114033" lon="-7.60436285332">
        <ele>25</ele>
        <time>2011-03-23T14:09:11Z</time>
      </trkpt>
      <trkpt lat="37.1441602698" lon="-7.60437014558">
        <ele>25</ele>
        <time>2011-03-23T14:09:14Z</time>
      </trkpt>
      <trkpt lat="37.1442124052" lon="-7.60438649028">
        <ele>25</ele>
        <time>2011-03-23T14:09:17Z</time>
      </trkpt>
      <trkpt lat="37.1442715814" lon="-7.60440434373">
        <ele>25</ele>
        <time>2011-03-23T14:09:20Z</time>
      </trkpt>
      <trkpt lat="37.1443388042" lon="-7.60441716804">
        <ele>25.2</ele>
        <time>2011-03-23T14:09:23Z</time>
      </trkpt>
      <trkpt lat="37.1444056918" lon="-7.60443091435">
        <ele>25.2</ele>
        <time>2011-03-23T14:09:26Z</time>
      </trkpt>
      <trkpt lat="37.1444697295" lon="-7.60444491212">
        <ele>25.2</ele>
        <time>2011-03-23T14:09:29Z</time>
      </trkpt>
      <trkpt lat="37.1445341025" lon="-7.60446611833">
        <ele>25.2</ele>
        <time>2011-03-23T14:09:32Z</time>
      </trkpt>
      <trkpt lat="37.1446000681" lon="-7.60448925238">
        <ele>25.2</ele>
        <time>2011-03-23T14:09:35Z</time>
      </trkpt>
      <trkpt lat="37.1446614236" lon="-7.60450266342">
        <ele>25.2</ele>
        <time>2011-03-23T14:09:38Z</time>
      </trkpt>
      <trkpt lat="37.1447193425" lon="-7.60451640973">
        <ele>25.2</ele>
        <time>2011-03-23T14:09:41Z</time>
      </trkpt>
      <trkpt lat="37.1447775129" lon="-7.60453208388">
        <ele>25.2</ele>
        <time>2011-03-23T14:09:44Z</time>
      </trkpt>
      <trkpt lat="37.1448363538" lon="-7.60454398618">
        <ele>25.2</ele>
        <time>2011-03-23T14:09:47Z</time>
      </trkpt>
      <trkpt lat="37.1448961168" lon="-7.60455831923">
        <ele>25.2</ele>
        <time>2011-03-23T14:09:50Z</time>
      </trkpt>
      <trkpt lat="37.144962669" lon="-7.60456695259">
        <ele>25.2</ele>
        <time>2011-03-23T14:09:53Z</time>
      </trkpt>
      <trkpt lat="37.145010865" lon="-7.60457206555">
        <ele>25.2</ele>
        <time>2011-03-23T14:09:55Z</time>
      </trkpt>
      <trkpt lat="37.1450796804" lon="-7.6045912601">
        <ele>25.2</ele>
        <time>2011-03-23T14:09:58Z</time>
      </trkpt>
      <trkpt lat="37.145124775" lon="-7.60460458732">
        <ele>25.2</ele>
        <time>2011-03-23T14:10:00Z</time>
      </trkpt>
      <trkpt lat="37.1451713784" lon="-7.60463115794">
        <ele>25.2</ele>
        <time>2011-03-23T14:10:02Z</time>
      </trkpt>
      <trkpt lat="37.1452158024" lon="-7.6046415515">
        <ele>25.2</ele>
        <time>2011-03-23T14:10:04Z</time>
      </trkpt>
      <trkpt lat="37.1452805107" lon="-7.60465102305">
        <ele>25.2</ele>
        <time>2011-03-23T14:10:07Z</time>
      </trkpt>
      <trkpt lat="37.145349829" lon="-7.60466150042">
        <ele>25.2</ele>
        <time>2011-03-23T14:10:10Z</time>
      </trkpt>
      <trkpt lat="37.1454166327" lon="-7.60467491146">
        <ele>25.2</ele>
        <time>2011-03-23T14:10:13Z</time>
      </trkpt>
      <trkpt lat="37.1454608054" lon="-7.60468228753">
        <ele>25.2</ele>
        <time>2011-03-23T14:10:15Z</time>
      </trkpt>
      <trkpt lat="37.1455749668" lon="-7.60470056007">
        <ele>25.2</ele>
        <time>2011-03-23T14:10:20Z</time>
      </trkpt>
      <trkpt lat="37.1456206482" lon="-7.60470433193">
        <ele>25.2</ele>
        <time>2011-03-23T14:10:22Z</time>
      </trkpt>
      <trkpt lat="37.1456811655" lon="-7.60472168246">
        <ele>25.2</ele>
        <time>2011-03-23T14:10:25Z</time>
      </trkpt>
      <trkpt lat="37.1457246676" lon="-7.60473718898">
        <ele>25.2</ele>
        <time>2011-03-23T14:10:27Z</time>
      </trkpt>
      <trkpt lat="37.145792561" lon="-7.60476099357">
        <ele>25.2</ele>
        <time>2011-03-23T14:10:30Z</time>
      </trkpt>
      <trkpt lat="37.1458400863" lon="-7.60476912402">
        <ele>25.2</ele>
        <time>2011-03-23T14:10:32Z</time>
      </trkpt>
      <trkpt lat="37.1459058843" lon="-7.60477616481">
        <ele>25.2</ele>
        <time>2011-03-23T14:10:35Z</time>
      </trkpt>
      <trkpt lat="37.145970844" lon="-7.60477683536">
        <ele>25.2</ele>
        <time>2011-03-23T14:10:38Z</time>
      </trkpt>
      <trkpt lat="37.1460266674" lon="-7.60477138713">
        <ele>25.2</ele>
        <time>2011-03-23T14:10:41Z</time>
      </trkpt>
      <trkpt lat="37.1460836644" lon="-7.60477004603">
        <ele>25.2</ele>
        <time>2011-03-23T14:10:44Z</time>
      </trkpt>
      <trkpt lat="37.146135716" lon="-7.60476836965">
        <ele>25.2</ele>
        <time>2011-03-23T14:10:47Z</time>
      </trkpt>
      <trkpt lat="37.1461805591" lon="-7.6047668609">
        <ele>25.2</ele>
        <time>2011-03-23T14:10:51Z</time>
      </trkpt>
      <trkpt lat="37.1462337842" lon="-7.60477406934">
        <ele>25.2</ele>
        <time>2011-03-23T14:10:54Z</time>
      </trkpt>
      <trkpt lat="37.1462841594" lon="-7.60478597164">
        <ele>25.4</ele>
        <time>2011-03-23T14:10:56Z</time>
      </trkpt>
      <trkpt lat="37.1463296731" lon="-7.6047977063">
        <ele>25.8</ele>
        <time>2011-03-23T14:10:59Z</time>
      </trkpt>
      <trkpt lat="37.1463753545" lon="-7.60481279372">
        <ele>26.2</ele>
        <time>2011-03-23T14:11:02Z</time>
      </trkpt>
      <trkpt lat="37.1464234666" lon="-7.6048321559">
        <ele>26.6</ele>
        <time>2011-03-23T14:11:05Z</time>
      </trkpt>
      <trkpt lat="37.1464729198" lon="-7.60484590222">
        <ele>27.2</ele>
        <time>2011-03-23T14:11:09Z</time>
      </trkpt>
      <trkpt lat="37.146515416" lon="-7.60486115728">
        <ele>27.8</ele>
        <time>2011-03-23T14:11:11Z</time>
      </trkpt>
      <trkpt lat="37.1465553139" lon="-7.60486794662">
        <ele>28.4</ele>
        <time>2011-03-23T14:11:14Z</time>
      </trkpt>
      <trkpt lat="37.1465673" lon="-7.60487238902">
        <ele>28.8</ele>
        <time>2011-03-23T14:11:15Z</time>
      </trkpt>
      <trkpt lat="37.1466125622" lon="-7.60487490359">
        <ele>29.4</ele>
        <time>2011-03-23T14:11:18Z</time>
      </trkpt>
      <trkpt lat="37.1466513704" lon="-7.6048797651">
        <ele>30</ele>
        <time>2011-03-23T14:11:21Z</time>
      </trkpt>
      <trkpt lat="37.1466650329" lon="-7.60488135766">
        <ele>30</ele>
        <time>2011-03-23T14:11:23Z</time>
      </trkpt>
      <trkpt lat="37.1467061042" lon="-7.60488714117">
        <ele>31</ele>
        <time>2011-03-23T14:11:26Z</time>
      </trkpt>
      <trkpt lat="37.1467548869" lon="-7.60489594216">
        <ele>31.8</ele>
        <time>2011-03-23T14:11:29Z</time>
      </trkpt>
      <trkpt lat="37.1467665377" lon="-7.60490390497">
        <ele>32</ele>
        <time>2011-03-23T14:11:31Z</time>
      </trkpt>
      <trkpt lat="37.1468076929" lon="-7.60491253833">
        <ele>32.4</ele>
        <time>2011-03-23T14:11:33Z</time>
      </trkpt>
      <trkpt lat="37.1468222774" lon="-7.60491513671">
        <ele>32.6</ele>
        <time>2011-03-23T14:11:34Z</time>
      </trkpt>
      <trkpt lat="37.1468801963" lon="-7.60492444062">
        <ele>33.6</ele>
        <time>2011-03-23T14:11:38Z</time>
      </trkpt>
      <trkpt lat="37.1469239498" lon="-7.60493399599">
        <ele>34.2</ele>
        <time>2011-03-23T14:11:41Z</time>
      </trkpt>
      <trkpt lat="37.1469630095" lon="-7.60494187498">
        <ele>34.6</ele>
        <time>2011-03-23T14:11:44Z</time>
      </trkpt>
      <trkpt lat="37.1470117083" lon="-7.6049512627">
        <ele>35.4</ele>
        <time>2011-03-23T14:11:47Z</time>
      </trkpt>
      <trkpt lat="37.147062335" lon="-7.60495377727">
        <ele>36</ele>
        <time>2011-03-23T14:11:50Z</time>
      </trkpt>
      <trkpt lat="37.1471119558" lon="-7.60495402873">
        <ele>36.4</ele>
        <time>2011-03-23T14:11:53Z</time>
      </trkpt>
      <trkpt lat="37.1471525242" lon="-7.60495293908">
        <ele>37.2</ele>
        <time>2011-03-23T14:11:56Z</time>
      </trkpt>
      <trkpt lat="37.1471991276" lon="-7.60495453164">
        <ele>37.8</ele>
        <time>2011-03-23T14:11:59Z</time>
      </trkpt>
      <trkpt lat="37.1472313979" lon="-7.60495017306">
        <ele>38.2</ele>
        <time>2011-03-23T14:12:02Z</time>
      </trkpt>
      <trkpt lat="37.1472930049" lon="-7.60497238509">
        <ele>38.8</ele>
        <time>2011-03-23T14:12:06Z</time>
      </trkpt>
      <trkpt lat="37.1473272869" lon="-7.60497498348">
        <ele>39.4</ele>
        <time>2011-03-23T14:12:08Z</time>
      </trkpt>
      <trkpt lat="37.1473867145" lon="-7.60497699514">
        <ele>40.2</ele>
        <time>2011-03-23T14:12:12Z</time>
      </trkpt>
      <trkpt lat="37.1474322282" lon="-7.60496928379">
        <ele>40.6</ele>
        <time>2011-03-23T14:12:14Z</time>
      </trkpt>
      <trkpt lat="37.1474752274" lon="-7.60496559575">
        <ele>41</ele>
        <time>2011-03-23T14:12:18Z</time>
      </trkpt>
      <trkpt lat="37.1474976909" lon="-7.60496224299">
        <ele>41.2</ele>
        <time>2011-03-23T14:12:19Z</time>
      </trkpt>
      <trkpt lat="37.1475098446" lon="-7.6049666854">
        <ele>41.4</ele>
        <time>2011-03-23T14:12:21Z</time>
      </trkpt>
      <trkpt lat="37.147542534" lon="-7.60501504896">
        <ele>41.6</ele>
        <time>2011-03-23T14:12:26Z</time>
      </trkpt>
      <trkpt lat="37.1475800011" lon="-7.60506559182">
        <ele>41.6</ele>
        <time>2011-03-23T14:12:29Z</time>
      </trkpt>
      <trkpt lat="37.1476119362" lon="-7.60510314273">
        <ele>41.8</ele>
        <time>2011-03-23T14:12:32Z</time>
      </trkpt>
      <trkpt lat="37.1476437874" lon="-7.60512703115">
        <ele>41.8</ele>
        <time>2011-03-23T14:12:35Z</time>
      </trkpt>
      <trkpt lat="37.1476533428" lon="-7.60513801144">
        <ele>41.8</ele>
        <time>2011-03-23T14:12:36Z</time>
      </trkpt>
      <trkpt lat="37.1476820089" lon="-7.60520406081">
        <ele>41.8</ele>
        <time>2011-03-23T14:12:40Z</time>
      </trkpt>
      <trkpt lat="37.1477148659" lon="-7.60524010298">
        <ele>41.8</ele>
        <time>2011-03-23T14:12:43Z</time>
      </trkpt>
      <trkpt lat="37.1477314621" lon="-7.60524337192">
        <ele>41.8</ele>
        <time>2011-03-23T14:12:44Z</time>
      </trkpt>
      <trkpt lat="37.1477535065" lon="-7.60525418457">
        <ele>41.8</ele>
        <time>2011-03-23T14:12:46Z</time>
      </trkpt>
      <trkpt lat="37.1477932367" lon="-7.60525225673">
        <ele>41.8</ele>
        <time>2011-03-23T14:12:50Z</time>
      </trkpt>
      <trkpt lat="37.147844953" lon="-7.605241947">
        <ele>41.8</ele>
        <time>2011-03-23T14:12:54Z</time>
      </trkpt>
      <trkpt lat="37.1479029557" lon="-7.60520330644">
        <ele>41.8</ele>
        <time>2011-03-23T14:12:57Z</time>
      </trkpt>
      <trkpt lat="37.1479214797" lon="-7.60518126204">
        <ele>41.8</ele>
        <time>2011-03-23T14:12:58Z</time>
      </trkpt>
      <trkpt lat="37.1479577734" lon="-7.60510473529">
        <ele>41.8</ele>
        <time>2011-03-23T14:13:01Z</time>
      </trkpt>
      <trkpt lat="37.1479644789" lon="-7.60504513998">
        <ele>41.8</ele>
        <time>2011-03-23T14:13:03Z</time>
      </trkpt>
      <trkpt lat="37.1479749563" lon="-7.60501731208">
        <ele>41.8</ele>
        <time>2011-03-23T14:13:04Z</time>
      </trkpt>
      <trkpt lat="37.1479732799" lon="-7.60492259661">
        <ele>41.8</ele>
        <time>2011-03-23T14:13:07Z</time>
      </trkpt>
      <trkpt lat="37.1479694242" lon="-7.60487708289">
        <ele>42</ele>
        <time>2011-03-23T14:13:09Z</time>
      </trkpt>
      <trkpt lat="37.1479654009" lon="-7.60480206488">
        <ele>42</ele>
        <time>2011-03-23T14:13:13Z</time>
      </trkpt>
      <trkpt lat="37.1479679155" lon="-7.60479250952">
        <ele>42</ele>
        <time>2011-03-23T14:13:23Z</time>
      </trkpt>
      <trkpt lat="37.1479785605" lon="-7.60472771743">
        <ele>42</ele>
        <time>2011-03-23T14:13:29Z</time>
      </trkpt>
      <trkpt lat="37.1479915524" lon="-7.60466476936">
        <ele>42</ele>
        <time>2011-03-23T14:13:31Z</time>
      </trkpt>
      <trkpt lat="37.1480089868" lon="-7.60461347213">
        <ele>42</ele>
        <time>2011-03-23T14:13:33Z</time>
      </trkpt>
      <trkpt lat="37.1480134292" lon="-7.60459293648">
        <ele>42</ele>
        <time>2011-03-23T14:13:34Z</time>
      </trkpt>
      <trkpt lat="37.1480495552" lon="-7.60454826095">
        <ele>42</ele>
        <time>2011-03-23T14:13:36Z</time>
      </trkpt>
      <trkpt lat="37.1480687497" lon="-7.6044637714">
        <ele>42</ele>
        <time>2011-03-23T14:13:39Z</time>
      </trkpt>
      <trkpt lat="37.1480800653" lon="-7.60440417609">
        <ele>42</ele>
        <time>2011-03-23T14:13:41Z</time>
      </trkpt>
      <trkpt lat="37.1481009362" lon="-7.60432689497">
        <ele>42</ele>
        <time>2011-03-23T14:13:44Z</time>
      </trkpt>
      <trkpt lat="37.1481261657" lon="-7.60424944622">
        <ele>41.4</ele>
        <time>2011-03-23T14:13:47Z</time>
      </trkpt>
      <trkpt lat="37.1481390739" lon="-7.6041739253">
        <ele>41</ele>
        <time>2011-03-23T14:13:50Z</time>
      </trkpt>
      <trkpt lat="37.1481622079" lon="-7.60409312378">
        <ele>40.6</ele>
        <time>2011-03-23T14:13:53Z</time>
      </trkpt>
      <trkpt lat="37.1481739426" lon="-7.60403377993">
        <ele>40.6</ele>
        <time>2011-03-23T14:13:55Z</time>
      </trkpt>
      <trkpt lat="37.14818903" lon="-7.60397954904">
        <ele>40.4</ele>
        <time>2011-03-23T14:13:57Z</time>
      </trkpt>
      <trkpt lat="37.1482006808" lon="-7.60392179775">
        <ele>40.2</ele>
        <time>2011-03-23T14:13:59Z</time>
      </trkpt>
      <trkpt lat="37.1482147624" lon="-7.60386320826">
        <ele>40.2</ele>
        <time>2011-03-23T14:14:01Z</time>
      </trkpt>
      <trkpt lat="37.1482295146" lon="-7.60380964792">
        <ele>40.2</ele>
        <time>2011-03-23T14:14:03Z</time>
      </trkpt>
      <trkpt lat="37.1482509722" lon="-7.60372205707">
        <ele>40</ele>
        <time>2011-03-23T14:14:06Z</time>
      </trkpt>
      <trkpt lat="37.1482639642" lon="-7.603659109">
        <ele>40</ele>
        <time>2011-03-23T14:14:09Z</time>
      </trkpt>
      <trkpt lat="37.148284416" lon="-7.60360295027">
        <ele>40</ele>
        <time>2011-03-23T14:14:10Z</time>
      </trkpt>
      <trkpt lat="37.1483000902" lon="-7.60354628863">
        <ele>40</ele>
        <time>2011-03-23T14:14:12Z</time>
      </trkpt>
      <trkpt lat="37.1483113219" lon="-7.60348895643">
        <ele>40</ele>
        <time>2011-03-23T14:14:14Z</time>
      </trkpt>
      <trkpt lat="37.1483266608" lon="-7.6034177941">
        <ele>40</ele>
        <time>2011-03-23T14:14:17Z</time>
      </trkpt>
      <trkpt lat="37.1483535667" lon="-7.60332048024">
        <ele>40</ele>
        <time>2011-03-23T14:14:20Z</time>
      </trkpt>
      <trkpt lat="37.1483678159" lon="-7.60326222603">
        <ele>40</ele>
        <time>2011-03-23T14:14:22Z</time>
      </trkpt>
      <trkpt lat="37.1483863399" lon="-7.60320522911">
        <ele>40</ele>
        <time>2011-03-23T14:14:24Z</time>
      </trkpt>
      <trkpt lat="37.1484037743" lon="-7.60314395743">
        <ele>39.8</ele>
        <time>2011-03-23T14:14:26Z</time>
      </trkpt>
      <trkpt lat="37.1484203704" lon="-7.60308260192">
        <ele>39.8</ele>
        <time>2011-03-23T14:14:29Z</time>
      </trkpt>
      <trkpt lat="37.1484351226" lon="-7.60302501826">
        <ele>39.8</ele>
        <time>2011-03-23T14:14:30Z</time>
      </trkpt>
      <trkpt lat="37.1484514673" lon="-7.60296844044">
        <ele>39.8</ele>
        <time>2011-03-23T14:14:32Z</time>
      </trkpt>
      <trkpt lat="37.1484637049" lon="-7.6029113597">
        <ele>39.8</ele>
        <time>2011-03-23T14:14:34Z</time>
      </trkpt>
      <trkpt lat="37.1484764453" lon="-7.60285008801">
        <ele>39.8</ele>
        <time>2011-03-23T14:14:36Z</time>
      </trkpt>
      <trkpt lat="37.1484919519" lon="-7.60279317491">
        <ele>39.8</ele>
        <time>2011-03-23T14:14:38Z</time>
      </trkpt>
      <trkpt lat="37.1485042733" lon="-7.60273215468">
        <ele>39.8</ele>
        <time>2011-03-23T14:14:41Z</time>
      </trkpt>
      <trkpt lat="37.1485222943" lon="-7.60264992824">
        <ele>39.8</ele>
        <time>2011-03-23T14:14:44Z</time>
      </trkpt>
      <trkpt lat="37.1485466857" lon="-7.6025708031">
        <ele>39.8</ele>
        <time>2011-03-23T14:14:47Z</time>
      </trkpt>
      <trkpt lat="37.1485611025" lon="-7.60251271654">
        <ele>39.8</ele>
        <time>2011-03-23T14:14:49Z</time>
      </trkpt>
      <trkpt lat="37.1485831469" lon="-7.60243526778">
        <ele>39.8</ele>
        <time>2011-03-23T14:14:51Z</time>
      </trkpt>
      <trkpt lat="37.1486006651" lon="-7.60235748375">
        <ele>39.8</ele>
        <time>2011-03-23T14:14:54Z</time>
      </trkpt>
      <trkpt lat="37.1486212008" lon="-7.60228498031">
        <ele>39.8</ele>
        <time>2011-03-23T14:14:57Z</time>
      </trkpt>
      <trkpt lat="37.148639138" lon="-7.60220619045">
        <ele>39.8</ele>
        <time>2011-03-23T14:15:00Z</time>
      </trkpt>
      <trkpt lat="37.1486561533" lon="-7.60213385466">
        <ele>39.8</ele>
        <time>2011-03-23T14:15:03Z</time>
      </trkpt>
      <trkpt lat="37.1486784491" lon="-7.60205431043">
        <ele>39.8</ele>
        <time>2011-03-23T14:15:06Z</time>
      </trkpt>
      <trkpt lat="37.1486921955" lon="-7.60199974426">
        <ele>39.8</ele>
        <time>2011-03-23T14:15:09Z</time>
      </trkpt>
      <trkpt lat="37.1487055227" lon="-7.6019474412">
        <ele>39.8</ele>
        <time>2011-03-23T14:15:10Z</time>
      </trkpt>
      <trkpt lat="37.1487168382" lon="-7.60188893554">
        <ele>39.8</ele>
        <time>2011-03-23T14:15:12Z</time>
      </trkpt>
      <trkpt lat="37.1487325962" lon="-7.60183596193">
        <ele>39.8</ele>
        <time>2011-03-23T14:15:14Z</time>
      </trkpt>
      <trkpt lat="37.1487476836" lon="-7.60177938411">
        <ele>39.8</ele>
        <time>2011-03-23T14:15:16Z</time>
      </trkpt>
      <trkpt lat="37.1487606756" lon="-7.60173739079">
        <ele>39.6</ele>
        <time>2011-03-23T14:15:18Z</time>
      </trkpt>
      <trkpt lat="37.1487889226" lon="-7.60164820737">
        <ele>39.2</ele>
        <time>2011-03-23T14:15:21Z</time>
      </trkpt>
      <trkpt lat="37.1488112184" lon="-7.60157318937">
        <ele>38.8</ele>
        <time>2011-03-23T14:15:24Z</time>
      </trkpt>
      <trkpt lat="37.1488305806" lon="-7.60149230403">
        <ele>38.6</ele>
        <time>2011-03-23T14:15:27Z</time>
      </trkpt>
      <trkpt lat="37.1488519545" lon="-7.60141250834">
        <ele>38.4</ele>
        <time>2011-03-23T14:15:31Z</time>
      </trkpt>
      <trkpt lat="37.1488641082" lon="-7.60135752308">
        <ele>38.2</ele>
        <time>2011-03-23T14:15:33Z</time>
      </trkpt>
      <trkpt lat="37.1488889186" lon="-7.60128166688">
        <ele>38.2</ele>
        <time>2011-03-23T14:15:36Z</time>
      </trkpt>
      <trkpt lat="37.1489090352" lon="-7.60120514014">
        <ele>38</ele>
        <time>2011-03-23T14:15:39Z</time>
      </trkpt>
      <trkpt lat="37.1489289003" lon="-7.60112945158">
        <ele>38</ele>
        <time>2011-03-23T14:15:42Z</time>
      </trkpt>
      <trkpt lat="37.1489500227" lon="-7.60104512967">
        <ele>38</ele>
        <time>2011-03-23T14:15:44Z</time>
      </trkpt>
      <trkpt lat="37.148968882" lon="-7.6009667589">
        <ele>38</ele>
        <time>2011-03-23T14:15:48Z</time>
      </trkpt>
      <trkpt lat="37.1489915131" lon="-7.60088796904">
        <ele>38</ele>
        <time>2011-03-23T14:15:51Z</time>
      </trkpt>
      <trkpt lat="37.1490149824" lon="-7.60080825717">
        <ele>38</ele>
        <time>2011-03-23T14:15:54Z</time>
      </trkpt>
      <trkpt lat="37.149040631" lon="-7.60073198188">
        <ele>38</ele>
        <time>2011-03-23T14:15:57Z</time>
      </trkpt>
      <trkpt lat="37.149067034" lon="-7.60065587423">
        <ele>37.8</ele>
        <time>2011-03-23T14:15:59Z</time>
      </trkpt>
      <trkpt lat="37.149095281" lon="-7.60058286788">
        <ele>37.8</ele>
        <time>2011-03-23T14:16:02Z</time>
      </trkpt>
      <trkpt lat="37.1491146432" lon="-7.60053056482">
        <ele>37.8</ele>
        <time>2011-03-23T14:16:04Z</time>
      </trkpt>
      <trkpt lat="37.1491427226" lon="-7.60045747466">
        <ele>37.8</ele>
        <time>2011-03-23T14:16:07Z</time>
      </trkpt>
      <trkpt lat="37.1491700476" lon="-7.60039092237">
        <ele>37.8</ele>
        <time>2011-03-23T14:16:10Z</time>
      </trkpt>
      <trkpt lat="37.1491949418" lon="-7.60031749693">
        <ele>37.8</ele>
        <time>2011-03-23T14:16:13Z</time>
      </trkpt>
      <trkpt lat="37.1492132982" lon="-7.60026703789">
        <ele>37.8</ele>
        <time>2011-03-23T14:16:15Z</time>
      </trkpt>
      <trkpt lat="37.1492422157" lon="-7.60018715838">
        <ele>37.8</ele>
        <time>2011-03-23T14:16:19Z</time>
      </trkpt>
      <trkpt lat="37.1492743184" lon="-7.60011289475">
        <ele>37.8</ele>
        <time>2011-03-23T14:16:21Z</time>
      </trkpt>
      <trkpt lat="37.1493065887" lon="-7.60003703855">
        <ele>37.8</ele>
        <time>2011-03-23T14:16:24Z</time>
      </trkpt>
      <trkpt lat="37.1493318182" lon="-7.59998456786">
        <ele>37.8</ele>
        <time>2011-03-23T14:16:27Z</time>
      </trkpt>
      <trkpt lat="37.1493644238" lon="-7.59991022041">
        <ele>37.8</ele>
        <time>2011-03-23T14:16:29Z</time>
      </trkpt>
      <trkpt lat="37.1493925032" lon="-7.59985774971">
        <ele>37.8</ele>
        <time>2011-03-23T14:16:32Z</time>
      </trkpt>
      <trkpt lat="37.1494132903" lon="-7.59981055961">
        <ele>37.8</ele>
        <time>2011-03-23T14:16:33Z</time>
      </trkpt>
      <trkpt lat="37.1494411182" lon="-7.59975758601">
        <ele>37.8</ele>
        <time>2011-03-23T14:16:36Z</time>
      </trkpt>
      <trkpt lat="37.149481519" lon="-7.59968516639">
        <ele>37.8</ele>
        <time>2011-03-23T14:16:39Z</time>
      </trkpt>
      <trkpt lat="37.1495081734" lon="-7.59963294715">
        <ele>37.8</ele>
        <time>2011-03-23T14:16:41Z</time>
      </trkpt>
      <trkpt lat="37.1495303016" lon="-7.59957988973">
        <ele>37.8</ele>
        <time>2011-03-23T14:16:43Z</time>
      </trkpt>
      <trkpt lat="37.1495525975" lon="-7.59953228053">
        <ele>37.8</ele>
        <time>2011-03-23T14:16:44Z</time>
      </trkpt>
      <trkpt lat="37.1495789167" lon="-7.59947813346">
        <ele>37.8</ele>
        <time>2011-03-23T14:16:47Z</time>
      </trkpt>
      <trkpt lat="37.1496116061" lon="-7.5994090666">
        <ele>37.8</ele>
        <time>2011-03-23T14:16:49Z</time>
      </trkpt>
      <trkpt lat="37.14964681" lon="-7.5993340486">
        <ele>37.8</ele>
        <time>2011-03-23T14:16:53Z</time>
      </trkpt>
      <trkpt lat="37.1496809244" lon="-7.59926137753">
        <ele>37.4</ele>
        <time>2011-03-23T14:16:56Z</time>
      </trkpt>
      <trkpt lat="37.1497016277" lon="-7.59917948636">
        <ele>37</ele>
        <time>2011-03-23T14:16:59Z</time>
      </trkpt>
      <trkpt lat="37.1497236721" lon="-7.59912810532">
        <ele>36.8</ele>
        <time>2011-03-23T14:17:01Z</time>
      </trkpt>
      <trkpt lat="37.149758876" lon="-7.59906037956">
        <ele>36.4</ele>
        <time>2011-03-23T14:17:03Z</time>
      </trkpt>
      <trkpt lat="37.1497944153" lon="-7.59898821141">
        <ele>36.4</ele>
        <time>2011-03-23T14:17:07Z</time>
      </trkpt>
      <trkpt lat="37.1498173817" lon="-7.59894035076">
        <ele>36.2</ele>
        <time>2011-03-23T14:17:09Z</time>
      </trkpt>
      <trkpt lat="37.1498403481" lon="-7.59889399885">
        <ele>36.2</ele>
        <time>2011-03-23T14:17:11Z</time>
      </trkpt>
      <trkpt lat="37.1498746301" lon="-7.59882040577">
        <ele>36</ele>
        <time>2011-03-23T14:17:14Z</time>
      </trkpt>
      <trkpt lat="37.1498976803" lon="-7.59877455677">
        <ele>36</ele>
        <time>2011-03-23T14:17:15Z</time>
      </trkpt>
      <trkpt lat="37.1499213173" lon="-7.59872552266">
        <ele>36</ele>
        <time>2011-03-23T14:17:18Z</time>
      </trkpt>
      <trkpt lat="37.1499429426" lon="-7.59867506362">
        <ele>36</ele>
        <time>2011-03-23T14:17:19Z</time>
      </trkpt>
      <trkpt lat="37.1499767216" lon="-7.59859526793">
        <ele>36</ele>
        <time>2011-03-23T14:17:23Z</time>
      </trkpt>
      <trkpt lat="37.1500011968" lon="-7.59854732347">
        <ele>36</ele>
        <time>2011-03-23T14:17:24Z</time>
      </trkpt>
      <trkpt lat="37.1500208104" lon="-7.59851061074">
        <ele>36</ele>
        <time>2011-03-23T14:17:26Z</time>
      </trkpt>
      <trkpt lat="37.1500545895" lon="-7.59844757886">
        <ele>36</ele>
        <time>2011-03-23T14:17:29Z</time>
      </trkpt>
      <trkpt lat="37.1500819145" lon="-7.598406759">
        <ele>36</ele>
        <time>2011-03-23T14:17:31Z</time>
      </trkpt>
      <trkpt lat="37.1501195492" lon="-7.59833291446">
        <ele>35.8</ele>
        <time>2011-03-23T14:17:33Z</time>
      </trkpt>
      <trkpt lat="37.1501420127" lon="-7.59828153342">
        <ele>35.8</ele>
        <time>2011-03-23T14:17:36Z</time>
      </trkpt>
      <trkpt lat="37.1501677451" lon="-7.5982329184">
        <ele>35.8</ele>
        <time>2011-03-23T14:17:38Z</time>
      </trkpt>
      <trkpt lat="37.1501917174" lon="-7.5981892487">
        <ele>35.8</ele>
        <time>2011-03-23T14:17:39Z</time>
      </trkpt>
      <trkpt lat="37.1502304417" lon="-7.59811951129">
        <ele>35.8</ele>
        <time>2011-03-23T14:17:43Z</time>
      </trkpt>
      <trkpt lat="37.1502624606" lon="-7.59807936199">
        <ele>35.8</ele>
        <time>2011-03-23T14:17:44Z</time>
      </trkpt>
      <trkpt lat="37.1503200443" lon="-7.59804767841">
        <ele>35.8</ele>
        <time>2011-03-23T14:17:48Z</time>
      </trkpt>
      <trkpt lat="37.1503839143" lon="-7.59806385547">
        <ele>35.8</ele>
        <time>2011-03-23T14:17:51Z</time>
      </trkpt>
      <trkpt lat="37.1504278355" lon="-7.59808229565">
        <ele>35.8</ele>
        <time>2011-03-23T14:17:53Z</time>
      </trkpt>
      <trkpt lat="37.1504876823" lon="-7.59811833782">
        <ele>35.8</ele>
        <time>2011-03-23T14:17:56Z</time>
      </trkpt>
      <trkpt lat="37.1505300108" lon="-7.59814432171">
        <ele>35.8</ele>
        <time>2011-03-23T14:17:57Z</time>
      </trkpt>
      <trkpt lat="37.1505906958" lon="-7.59818061534">
        <ele>35.8</ele>
        <time>2011-03-23T14:18:01Z</time>
      </trkpt>
      <trkpt lat="37.1506534762" lon="-7.59821095782">
        <ele>35.8</ele>
        <time>2011-03-23T14:18:03Z</time>
      </trkpt>
      <trkpt lat="37.1507170949" lon="-7.59824641326">
        <ele>35.8</ele>
        <time>2011-03-23T14:18:07Z</time>
      </trkpt>
      <trkpt lat="37.1507607646" lon="-7.59825999193">
        <ele>35.8</ele>
        <time>2011-03-23T14:18:09Z</time>
      </trkpt>
      <trkpt lat="37.1508180129" lon="-7.59829192697">
        <ele>35.8</ele>
        <time>2011-03-23T14:18:12Z</time>
      </trkpt>
      <trkpt lat="37.150875848" lon="-7.59833894943">
        <ele>35.8</ele>
        <time>2011-03-23T14:18:14Z</time>
      </trkpt>
      <trkpt lat="37.1509324259" lon="-7.59838940847">
        <ele>35.8</ele>
        <time>2011-03-23T14:18:18Z</time>
      </trkpt>
      <trkpt lat="37.1509895066" lon="-7.5984367662">
        <ele>35.8</ele>
        <time>2011-03-23T14:18:21Z</time>
      </trkpt>
      <trkpt lat="37.1510418935" lon="-7.59848051972">
        <ele>35.8</ele>
        <time>2011-03-23T14:18:24Z</time>
      </trkpt>
      <trkpt lat="37.1510876587" lon="-7.59851270622">
        <ele>35.8</ele>
        <time>2011-03-23T14:18:26Z</time>
      </trkpt>
      <trkpt lat="37.1511365251" lon="-7.5985576332">
        <ele>35.8</ele>
        <time>2011-03-23T14:18:29Z</time>
      </trkpt>
      <trkpt lat="37.1511890796" lon="-7.59861404339">
        <ele>35.8</ele>
        <time>2011-03-23T14:18:32Z</time>
      </trkpt>
      <trkpt lat="37.1512283069" lon="-7.59864597843">
        <ele>35.8</ele>
        <time>2011-03-23T14:18:33Z</time>
      </trkpt>
      <trkpt lat="37.1512844657" lon="-7.59869434199">
        <ele>35.8</ele>
        <time>2011-03-23T14:18:37Z</time>
      </trkpt>
      <trkpt lat="37.1513371878" lon="-7.59873884988">
        <ele>35.8</ele>
        <time>2011-03-23T14:18:39Z</time>
      </trkpt>
      <trkpt lat="37.1513986271" lon="-7.59878402832">
        <ele>35.8</ele>
        <time>2011-03-23T14:18:43Z</time>
      </trkpt>
      <trkpt lat="37.1514373515" lon="-7.59881512517">
        <ele>35.8</ele>
        <time>2011-03-23T14:18:44Z</time>
      </trkpt>
      <trkpt lat="37.151486218" lon="-7.59885963306">
        <ele>35.8</ele>
        <time>2011-03-23T14:18:48Z</time>
      </trkpt>
      <trkpt lat="37.1515414547" lon="-7.59890539823">
        <ele>35.8</ele>
        <time>2011-03-23T14:18:51Z</time>
      </trkpt>
      <trkpt lat="37.1515795085" lon="-7.59894093749">
        <ele>35.8</ele>
        <time>2011-03-23T14:18:53Z</time>
      </trkpt>
      <trkpt lat="37.1516166404" lon="-7.59897035796">
        <ele>36.2</ele>
        <time>2011-03-23T14:18:54Z</time>
      </trkpt>
      <trkpt lat="37.1516548618" lon="-7.59900279591">
        <ele>36.6</ele>
        <time>2011-03-23T14:18:57Z</time>
      </trkpt>
      <trkpt lat="37.1517090927" lon="-7.59904403486">
        <ele>37</ele>
        <time>2011-03-23T14:18:59Z</time>
      </trkpt>
      <trkpt lat="37.151763156" lon="-7.59908803983">
        <ele>37.2</ele>
        <time>2011-03-23T14:19:03Z</time>
      </trkpt>
      <trkpt lat="37.1518157943" lon="-7.59912609366">
        <ele>37.4</ele>
        <time>2011-03-23T14:19:06Z</time>
      </trkpt>
      <trkpt lat="37.1518732103" lon="-7.59916582387">
        <ele>37.6</ele>
        <time>2011-03-23T14:19:09Z</time>
      </trkpt>
      <trkpt lat="37.1519345658" lon="-7.59919004756">
        <ele>37.6</ele>
        <time>2011-03-23T14:19:12Z</time>
      </trkpt>
      <trkpt lat="37.1519802472" lon="-7.59920136312">
        <ele>37.8</ele>
        <time>2011-03-23T14:19:14Z</time>
      </trkpt>
      <trkpt lat="37.1520429438" lon="-7.59920848774">
        <ele>37.8</ele>
        <time>2011-03-23T14:19:17Z</time>
      </trkpt>
      <trkpt lat="37.1520918103" lon="-7.59920764955">
        <ele>37.8</ele>
        <time>2011-03-23T14:19:19Z</time>
      </trkpt>
      <trkpt lat="37.1521493939" lon="-7.59920044111">
        <ele>37.8</ele>
        <time>2011-03-23T14:19:22Z</time>
      </trkpt>
      <trkpt lat="37.1521955782" lon="-7.59919264595">
        <ele>37.8</ele>
        <time>2011-03-23T14:19:24Z</time>
      </trkpt>
      <trkpt lat="37.152256347" lon="-7.5991845155">
        <ele>37.8</ele>
        <time>2011-03-23T14:19:27Z</time>
      </trkpt>
      <trkpt lat="37.1523196303" lon="-7.59917420577">
        <ele>38</ele>
        <time>2011-03-23T14:19:31Z</time>
      </trkpt>
      <trkpt lat="37.1523814049" lon="-7.59916724879">
        <ele>38</ele>
        <time>2011-03-23T14:19:33Z</time>
      </trkpt>
      <trkpt lat="37.1524301876" lon="-7.5991646504">
        <ele>38</ele>
        <time>2011-03-23T14:19:36Z</time>
      </trkpt>
      <trkpt lat="37.1524975781" lon="-7.59915769342">
        <ele>38</ele>
        <time>2011-03-23T14:19:39Z</time>
      </trkpt>
      <trkpt lat="37.1525518089" lon="-7.59914729987">
        <ele>38</ele>
        <time>2011-03-23T14:19:42Z</time>
      </trkpt>
      <trkpt lat="37.1526146732" lon="-7.59914369565">
        <ele>38</ele>
        <time>2011-03-23T14:19:44Z</time>
      </trkpt>
      <trkpt lat="37.152680974" lon="-7.59914168399">
        <ele>38</ele>
        <time>2011-03-23T14:19:48Z</time>
      </trkpt>
      <trkpt lat="37.1527464367" lon="-7.59914319274">
        <ele>38</ele>
        <time>2011-03-23T14:19:51Z</time>
      </trkpt>
      <trkpt lat="37.1527942973" lon="-7.59914428238">
        <ele>38</ele>
        <time>2011-03-23T14:19:53Z</time>
      </trkpt>
      <trkpt lat="37.1528600114" lon="-7.5991465455">
        <ele>38</ele>
        <time>2011-03-23T14:19:56Z</time>
      </trkpt>
      <trkpt lat="37.1529255579" lon="-7.59914419856">
        <ele>38</ele>
        <time>2011-03-23T14:19:59Z</time>
      </trkpt>
      <trkpt lat="37.1529909367" lon="-7.59913875033">
        <ele>38</ele>
        <time>2011-03-23T14:20:02Z</time>
      </trkpt>
      <trkpt lat="37.1530571537" lon="-7.59914025907">
        <ele>38</ele>
        <time>2011-03-23T14:20:05Z</time>
      </trkpt>
      <trkpt lat="37.1531197665" lon="-7.59913967234">
        <ele>38</ele>
        <time>2011-03-23T14:20:08Z</time>
      </trkpt>
      <trkpt lat="37.1531506119" lon="-7.59914201927">
        <ele>38</ele>
        <time>2011-03-23T14:20:09Z</time>
      </trkpt>
      <trkpt lat="37.153213979" lon="-7.59915040117">
        <ele>38.2</ele>
        <time>2011-03-23T14:20:12Z</time>
      </trkpt>
      <trkpt lat="37.1532878236" lon="-7.59916004036">
        <ele>38.6</ele>
        <time>2011-03-23T14:20:16Z</time>
      </trkpt>
      <trkpt lat="37.1533511069" lon="-7.59916364457">
        <ele>39</ele>
        <time>2011-03-23T14:20:19Z</time>
      </trkpt>
      <trkpt lat="37.153412211" lon="-7.59916741643">
        <ele>39.2</ele>
        <time>2011-03-23T14:20:22Z</time>
      </trkpt>
      <trkpt lat="37.1534744047" lon="-7.59916666206">
        <ele>39.4</ele>
        <time>2011-03-23T14:20:25Z</time>
      </trkpt>
      <trkpt lat="37.1535320721" lon="-7.59916682969">
        <ele>39.6</ele>
        <time>2011-03-23T14:20:28Z</time>
      </trkpt>
      <trkpt lat="37.1535928409" lon="-7.59916423131">
        <ele>39.8</ele>
        <time>2011-03-23T14:20:31Z</time>
      </trkpt>
      <trkpt lat="37.1536541126" lon="-7.59915786106">
        <ele>39.8</ele>
        <time>2011-03-23T14:20:34Z</time>
      </trkpt>
      <trkpt lat="37.1537246044" lon="-7.59915576559">
        <ele>39.8</ele>
        <time>2011-03-23T14:20:37Z</time>
      </trkpt>
      <trkpt lat="37.1537881392" lon="-7.59914906007">
        <ele>40.2</ele>
        <time>2011-03-23T14:20:39Z</time>
      </trkpt>
      <trkpt lat="37.1538573737" lon="-7.59914227073">
        <ele>40.8</ele>
        <time>2011-03-23T14:20:43Z</time>
      </trkpt>
      <trkpt lat="37.153924848" lon="-7.5991430251">
        <ele>41.2</ele>
        <time>2011-03-23T14:20:46Z</time>
      </trkpt>
      <trkpt lat="37.1539867064" lon="-7.5991430251">
        <ele>41.4</ele>
        <time>2011-03-23T14:20:49Z</time>
      </trkpt>
      <trkpt lat="37.1540343156" lon="-7.59915308338">
        <ele>41.6</ele>
        <time>2011-03-23T14:20:51Z</time>
      </trkpt>
      <trkpt lat="37.1540800808" lon="-7.59916372839">
        <ele>41.6</ele>
        <time>2011-03-23T14:20:53Z</time>
      </trkpt>
      <trkpt lat="37.1541448729" lon="-7.59917772616">
        <ele>41.8</ele>
        <time>2011-03-23T14:20:56Z</time>
      </trkpt>
      <trkpt lat="37.1542079047" lon="-7.59919675308">
        <ele>41.8</ele>
        <time>2011-03-23T14:20:59Z</time>
      </trkpt>
      <trkpt lat="37.1542297815" lon="-7.599198178">
        <ele>41.8</ele>
        <time>2011-03-23T14:21:00Z</time>
      </trkpt>
      <trkpt lat="37.1543093257" lon="-7.59923388489">
        <ele>42</ele>
        <time>2011-03-23T14:21:04Z</time>
      </trkpt>
      <trkpt lat="37.1543619641" lon="-7.59926229954">
        <ele>42</ele>
        <time>2011-03-23T14:21:07Z</time>
      </trkpt>
      <trkpt lat="37.1544086513" lon="-7.59928325428">
        <ele>42</ele>
        <time>2011-03-23T14:21:09Z</time>
      </trkpt>
      <trkpt lat="37.1544669055" lon="-7.59930974109">
        <ele>42</ele>
        <time>2011-03-23T14:21:12Z</time>
      </trkpt>
      <trkpt lat="37.1545181189" lon="-7.5993221463">
        <ele>42</ele>
        <time>2011-03-23T14:21:15Z</time>
      </trkpt>
      <trkpt lat="37.1545810669" lon="-7.59933396478">
        <ele>42</ele>
        <time>2011-03-23T14:21:18Z</time>
      </trkpt>
      <trkpt lat="37.1546278379" lon="-7.59932784599">
        <ele>42</ele>
        <time>2011-03-23T14:21:20Z</time>
      </trkpt>
      <trkpt lat="37.1546946417" lon="-7.59931158511">
        <ele>42</ele>
        <time>2011-03-23T14:21:23Z</time>
      </trkpt>
      <trkpt lat="37.1547528959" lon="-7.59927629731">
        <ele>42</ele>
        <time>2011-03-23T14:21:26Z</time>
      </trkpt>
      <trkpt lat="37.154800086" lon="-7.59922039004">
        <ele>42</ele>
        <time>2011-03-23T14:21:29Z</time>
      </trkpt>
      <trkpt lat="37.1548388942" lon="-7.59917806144">
        <ele>42</ele>
        <time>2011-03-23T14:21:32Z</time>
      </trkpt>
      <trkpt lat="37.1548684823" lon="-7.5991492277">
        <ele>42</ele>
        <time>2011-03-23T14:21:35Z</time>
      </trkpt>
      <trkpt lat="37.1548975675" lon="-7.59911989105">
        <ele>42</ele>
        <time>2011-03-23T14:21:38Z</time>
      </trkpt>
      <trkpt lat="37.1549299216" lon="-7.59908577672">
        <ele>42</ele>
        <time>2011-03-23T14:21:41Z</time>
      </trkpt>
      <trkpt lat="37.1549548997" lon="-7.59904948309">
        <ele>42</ele>
        <time>2011-03-23T14:21:44Z</time>
      </trkpt>
      <trkpt lat="37.1549879244" lon="-7.59901209982">
        <ele>42</ele>
        <time>2011-03-23T14:21:47Z</time>
      </trkpt>
      <trkpt lat="37.1550196079" lon="-7.59897765021">
        <ele>42</ele>
        <time>2011-03-23T14:21:50Z</time>
      </trkpt>
      <trkpt lat="37.1550485255" lon="-7.5989436197">
        <ele>42</ele>
        <time>2011-03-23T14:21:53Z</time>
      </trkpt>
      <trkpt lat="37.155078868" lon="-7.59890992446">
        <ele>42</ele>
        <time>2011-03-23T14:21:56Z</time>
      </trkpt>
      <trkpt lat="37.1551097972" lon="-7.59887270882">
        <ele>42</ele>
        <time>2011-03-23T14:21:59Z</time>
      </trkpt>
      <trkpt lat="37.1551366193" lon="-7.59883884595">
        <ele>42</ele>
        <time>2011-03-23T14:22:02Z</time>
      </trkpt>
      <trkpt lat="37.155167297" lon="-7.59880816819">
        <ele>42</ele>
        <time>2011-03-23T14:22:05Z</time>
      </trkpt>
      <trkpt lat="37.1552046803" lon="-7.59878251958">
        <ele>42</ele>
        <time>2011-03-23T14:22:08Z</time>
      </trkpt>
      <trkpt lat="37.1552443267" lon="-7.59875653569">
        <ele>42</ele>
        <time>2011-03-23T14:22:11Z</time>
      </trkpt>
      <trkpt lat="37.1552825481" lon="-7.59873440747">
        <ele>42</ele>
        <time>2011-03-23T14:22:14Z</time>
      </trkpt>
      <trkpt lat="37.1553229489" lon="-7.59871680548">
        <ele>42</ele>
        <time>2011-03-23T14:22:17Z</time>
      </trkpt>
      <trkpt lat="37.1553573147" lon="-7.59871278217">
        <ele>42</ele>
        <time>2011-03-23T14:22:20Z</time>
      </trkpt>
      <trkpt lat="37.1553976316" lon="-7.5987001255">
        <ele>42</ele>
        <time>2011-03-23T14:22:23Z</time>
      </trkpt>
      <trkpt lat="37.155432668" lon="-7.59869685656">
        <ele>42</ele>
        <time>2011-03-23T14:22:25Z</time>
      </trkpt>
      <trkpt lat="37.1554827079" lon="-7.59869367144">
        <ele>42</ele>
        <time>2011-03-23T14:22:29Z</time>
      </trkpt>
      <trkpt lat="37.1555256232" lon="-7.59870104751">
        <ele>42</ele>
        <time>2011-03-23T14:22:32Z</time>
      </trkpt>
      <trkpt lat="37.1555645991" lon="-7.59870817213">
        <ele>42</ele>
        <time>2011-03-23T14:22:35Z</time>
      </trkpt>
      <trkpt lat="37.1556060895" lon="-7.59871772749">
        <ele>42</ele>
        <time>2011-03-23T14:22:38Z</time>
      </trkpt>
      <trkpt lat="37.1556494239" lon="-7.598723511">
        <ele>42</ele>
        <time>2011-03-23T14:22:41Z</time>
      </trkpt>
      <trkpt lat="37.1556880645" lon="-7.59873164145">
        <ele>42</ele>
        <time>2011-03-23T14:22:44Z</time>
      </trkpt>
      <trkpt lat="37.1557271241" lon="-7.59873910134">
        <ele>42</ele>
        <time>2011-03-23T14:22:47Z</time>
      </trkpt>
      <trkpt lat="37.1557699556" lon="-7.59874790233">
        <ele>42</ele>
        <time>2011-03-23T14:22:50Z</time>
      </trkpt>
      <trkpt lat="37.155810524" lon="-7.59875770916">
        <ele>42</ele>
        <time>2011-03-23T14:22:53Z</time>
      </trkpt>
      <trkpt lat="37.1558493322" lon="-7.59876902472">
        <ele>42</ele>
        <time>2011-03-23T14:22:56Z</time>
      </trkpt>
      <trkpt lat="37.1558892301" lon="-7.59877665225">
        <ele>42.4</ele>
        <time>2011-03-23T14:22:59Z</time>
      </trkpt>
      <trkpt lat="37.1559289603" lon="-7.59878000501">
        <ele>43</ele>
        <time>2011-03-23T14:23:02Z</time>
      </trkpt>
      <trkpt lat="37.1559687743" lon="-7.59879006329">
        <ele>43.2</ele>
        <time>2011-03-23T14:23:05Z</time>
      </trkpt>
      <trkpt lat="37.156007331" lon="-7.5988024685">
        <ele>43.6</ele>
        <time>2011-03-23T14:23:08Z</time>
      </trkpt>
      <trkpt lat="37.1560484862" lon="-7.59881210769">
        <ele>43.6</ele>
        <time>2011-03-23T14:23:11Z</time>
      </trkpt>
      <trkpt lat="37.1560923235" lon="-7.59882199833">
        <ele>43.8</ele>
        <time>2011-03-23T14:23:14Z</time>
      </trkpt>
      <trkpt lat="37.1561039743" lon="-7.59881587954">
        <ele>43.8</ele>
        <time>2011-03-23T14:23:15Z</time>
      </trkpt>
      <trkpt lat="37.1561354903" lon="-7.59881797502">
        <ele>44.4</ele>
        <time>2011-03-23T14:23:17Z</time>
      </trkpt>
      <trkpt lat="37.1561664195" lon="-7.5988157119">
        <ele>44.6</ele>
        <time>2011-03-23T14:23:20Z</time>
      </trkpt>
      <trkpt lat="37.1562181358" lon="-7.59882367471">
        <ele>45.2</ele>
        <time>2011-03-23T14:23:24Z</time>
      </trkpt>
      <trkpt lat="37.1562579498" lon="-7.59884530001">
        <ele>45.6</ele>
        <time>2011-03-23T14:23:27Z</time>
      </trkpt>
      <trkpt lat="37.1562938244" lon="-7.5988593816">
        <ele>45.8</ele>
        <time>2011-03-23T14:23:29Z</time>
      </trkpt>
      <trkpt lat="37.1563323811" lon="-7.59886943988">
        <ele>45.8</ele>
        <time>2011-03-23T14:23:33Z</time>
      </trkpt>
      <trkpt lat="37.1563696806" lon="-7.59887748651">
        <ele>46</ele>
        <time>2011-03-23T14:23:35Z</time>
      </trkpt>
      <trkpt lat="37.1564101652" lon="-7.5988893888">
        <ele>46</ele>
        <time>2011-03-23T14:23:39Z</time>
      </trkpt>
      <trkpt lat="37.1564470455" lon="-7.59890070437">
        <ele>46.2</ele>
        <time>2011-03-23T14:23:42Z</time>
      </trkpt>
      <trkpt lat="37.1564887036" lon="-7.59890958918">
        <ele>46.4</ele>
        <time>2011-03-23T14:23:45Z</time>
      </trkpt>
      <trkpt lat="37.1565341335" lon="-7.59891545651">
        <ele>46.8</ele>
        <time>2011-03-23T14:23:48Z</time>
      </trkpt>
      <trkpt lat="37.1565677449" lon="-7.59892098857">
        <ele>47.2</ele>
        <time>2011-03-23T14:23:51Z</time>
      </trkpt>
      <trkpt lat="37.1566008534" lon="-7.59893456725">
        <ele>47.6</ele>
        <time>2011-03-23T14:23:54Z</time>
      </trkpt>
      <trkpt lat="37.1566395778" lon="-7.59894118895">
        <ele>47.8</ele>
        <time>2011-03-23T14:23:57Z</time>
      </trkpt>
      <trkpt lat="37.1566824093" lon="-7.59894227859">
        <ele>48</ele>
        <time>2011-03-23T14:24:00Z</time>
      </trkpt>
      <trkpt lat="37.1567113268" lon="-7.59894697246">
        <ele>48</ele>
        <time>2011-03-23T14:24:02Z</time>
      </trkpt>
      <trkpt lat="37.1567572596" lon="-7.59896809485">
        <ele>48.2</ele>
        <time>2011-03-23T14:24:06Z</time>
      </trkpt>
      <trkpt lat="37.1568135022" lon="-7.59897027414">
        <ele>48.8</ele>
        <time>2011-03-23T14:24:09Z</time>
      </trkpt>
      <trkpt lat="37.1568732651" lon="-7.59897681202">
        <ele>49.4</ele>
        <time>2011-03-23T14:24:14Z</time>
      </trkpt>
      <trkpt lat="37.1569149232" lon="-7.59898058388">
        <ele>49.6</ele>
        <time>2011-03-23T14:24:17Z</time>
      </trkpt>
      <trkpt lat="37.1569554916" lon="-7.598983769">
        <ele>49.8</ele>
        <time>2011-03-23T14:24:20Z</time>
      </trkpt>
      <trkpt lat="37.1569982393" lon="-7.59898745703">
        <ele>50</ele>
        <time>2011-03-23T14:24:23Z</time>
      </trkpt>
      <trkpt lat="37.1570417413" lon="-7.59899189944">
        <ele>50</ele>
        <time>2011-03-23T14:24:26Z</time>
      </trkpt>
      <trkpt lat="37.1570841537" lon="-7.59899776677">
        <ele>50.2</ele>
        <time>2011-03-23T14:24:29Z</time>
      </trkpt>
      <trkpt lat="37.1571254765" lon="-7.5989987726">
        <ele>50.2</ele>
        <time>2011-03-23T14:24:32Z</time>
      </trkpt>
      <trkpt lat="37.1571678051" lon="-7.59899961079">
        <ele>50.2</ele>
        <time>2011-03-23T14:24:35Z</time>
      </trkpt>
      <trkpt lat="37.1572122292" lon="-7.59900120335">
        <ele>50.8</ele>
        <time>2011-03-23T14:24:38Z</time>
      </trkpt>
      <trkpt lat="37.157255815" lon="-7.59900531048">
        <ele>51.2</ele>
        <time>2011-03-23T14:24:41Z</time>
      </trkpt>
      <trkpt lat="37.1572823857" lon="-7.59900321501">
        <ele>51.4</ele>
        <time>2011-03-23T14:24:43Z</time>
      </trkpt>
      <trkpt lat="37.1573269774" lon="-7.59900296355">
        <ele>51.8</ele>
        <time>2011-03-23T14:24:47Z</time>
      </trkpt>
      <trkpt lat="37.1573850639" lon="-7.59900883088">
        <ele>52</ele>
        <time>2011-03-23T14:24:51Z</time>
      </trkpt>
      <trkpt lat="37.1574264705" lon="-7.59901386002">
        <ele>52</ele>
        <time>2011-03-23T14:24:54Z</time>
      </trkpt>
      <trkpt lat="37.1574681286" lon="-7.5990186377">
        <ele>52.2</ele>
        <time>2011-03-23T14:24:57Z</time>
      </trkpt>
      <trkpt lat="37.1575102895" lon="-7.59902199046">
        <ele>52.2</ele>
        <time>2011-03-23T14:25:00Z</time>
      </trkpt>
      <trkpt lat="37.1575539592" lon="-7.59902023026">
        <ele>52.2</ele>
        <time>2011-03-23T14:25:03Z</time>
      </trkpt>
      <trkpt lat="37.1575946114" lon="-7.59902140373">
        <ele>52.2</ele>
        <time>2011-03-23T14:25:06Z</time>
      </trkpt>
      <trkpt lat="37.1576364371" lon="-7.59902819307">
        <ele>52.2</ele>
        <time>2011-03-23T14:25:09Z</time>
      </trkpt>
      <trkpt lat="37.1576713896" lon="-7.59903908954">
        <ele>52.4</ele>
        <time>2011-03-23T14:25:12Z</time>
      </trkpt>
      <trkpt lat="37.1577107008" lon="-7.59905291967">
        <ele>52.4</ele>
        <time>2011-03-23T14:25:15Z</time>
      </trkpt>
      <trkpt lat="37.1577519397" lon="-7.59906146921">
        <ele>52.8</ele>
        <time>2011-03-23T14:25:18Z</time>
      </trkpt>
      <trkpt lat="37.1577968667" lon="-7.5990609663">
        <ele>53.2</ele>
        <time>2011-03-23T14:25:20Z</time>
      </trkpt>
      <trkpt lat="37.1578417937" lon="-7.59906373232">
        <ele>53.6</ele>
        <time>2011-03-23T14:25:24Z</time>
      </trkpt>
      <trkpt lat="37.157882865" lon="-7.59906658217">
        <ele>53.8</ele>
        <time>2011-03-23T14:25:27Z</time>
      </trkpt>
      <trkpt lat="37.1579246907" lon="-7.59907010257">
        <ele>54</ele>
        <time>2011-03-23T14:25:30Z</time>
      </trkpt>
      <trkpt lat="37.1579708749" lon="-7.59907529935">
        <ele>54</ele>
        <time>2011-03-23T14:25:33Z</time>
      </trkpt>
      <trkpt lat="37.1580127006" lon="-7.59908225632">
        <ele>54.2</ele>
        <time>2011-03-23T14:25:36Z</time>
      </trkpt>
      <trkpt lat="37.158054191" lon="-7.59908862657">
        <ele>54.2</ele>
        <time>2011-03-23T14:25:39Z</time>
      </trkpt>
      <trkpt lat="37.1580929154" lon="-7.59908728546">
        <ele>54.2</ele>
        <time>2011-03-23T14:25:42Z</time>
      </trkpt>
      <trkpt lat="37.1581330647" lon="-7.59908871039">
        <ele>54.4</ele>
        <time>2011-03-23T14:25:45Z</time>
      </trkpt>
      <trkpt lat="37.1581735493" lon="-7.59909482917">
        <ele>54.4</ele>
        <time>2011-03-23T14:25:48Z</time>
      </trkpt>
      <trkpt lat="37.1582242598" lon="-7.59909063822">
        <ele>54.6</ele>
        <time>2011-03-23T14:25:51Z</time>
      </trkpt>
      <trkpt lat="37.1582865373" lon="-7.59909415862">
        <ele>55</ele>
        <time>2011-03-23T14:25:54Z</time>
      </trkpt>
      <trkpt lat="37.1583539278" lon="-7.59909642173">
        <ele>55.4</ele>
        <time>2011-03-23T14:25:57Z</time>
      </trkpt>
      <trkpt lat="37.1584188875" lon="-7.59909826575">
        <ele>55.8</ele>
        <time>2011-03-23T14:26:00Z</time>
      </trkpt>
      <trkpt lat="37.1584844339" lon="-7.59910153469">
        <ele>56</ele>
        <time>2011-03-23T14:26:03Z</time>
      </trkpt>
      <trkpt lat="37.1585466276" lon="-7.59910681529">
        <ele>56</ele>
        <time>2011-03-23T14:26:06Z</time>
      </trkpt>
      <trkpt lat="37.1586131799" lon="-7.59912215417">
        <ele>56.2</ele>
        <time>2011-03-23T14:26:09Z</time>
      </trkpt>
      <trkpt lat="37.1586767147" lon="-7.59914461766">
        <ele>56.2</ele>
        <time>2011-03-23T14:26:12Z</time>
      </trkpt>
      <trkpt lat="37.1587374835" lon="-7.59917722325">
        <ele>56.4</ele>
        <time>2011-03-23T14:26:15Z</time>
      </trkpt>
      <trkpt lat="37.1587919659" lon="-7.59922357516">
        <ele>56.4</ele>
        <time>2011-03-23T14:26:18Z</time>
      </trkpt>
      <trkpt lat="37.1588412514" lon="-7.59927487239">
        <ele>56.4</ele>
        <time>2011-03-23T14:26:21Z</time>
      </trkpt>
      <trkpt lat="37.1588842506" lon="-7.59934058648">
        <ele>56.4</ele>
        <time>2011-03-23T14:26:24Z</time>
      </trkpt>
      <trkpt lat="37.158913671" lon="-7.59938777658">
        <ele>56.4</ele>
        <time>2011-03-23T14:26:26Z</time>
      </trkpt>
      <trkpt lat="37.1589532336" lon="-7.59945642434">
        <ele>56.4</ele>
        <time>2011-03-23T14:26:29Z</time>
      </trkpt>
      <trkpt lat="37.1589880185" lon="-7.59952012678">
        <ele>56.4</ele>
        <time>2011-03-23T14:26:32Z</time>
      </trkpt>
      <trkpt lat="37.1590254856" lon="-7.59958625997">
        <ele>56.4</ele>
        <time>2011-03-23T14:26:35Z</time>
      </trkpt>
      <trkpt lat="37.159066976" lon="-7.59964929186">
        <ele>56.4</ele>
        <time>2011-03-23T14:26:38Z</time>
      </trkpt>
      <trkpt lat="37.159112825" lon="-7.5997081328">
        <ele>56.4</ele>
        <time>2011-03-23T14:26:41Z</time>
      </trkpt>
      <trkpt lat="37.1591664691" lon="-7.59975725073">
        <ele>56.4</ele>
        <time>2011-03-23T14:26:44Z</time>
      </trkpt>
      <trkpt lat="37.1592262321" lon="-7.59979387963">
        <ele>57</ele>
        <time>2011-03-23T14:26:47Z</time>
      </trkpt>
      <trkpt lat="37.1592700694" lon="-7.59981877388">
        <ele>57.2</ele>
        <time>2011-03-23T14:26:49Z</time>
      </trkpt>
      <trkpt lat="37.159334191" lon="-7.59983922571">
        <ele>57.6</ele>
        <time>2011-03-23T14:26:52Z</time>
      </trkpt>
      <trkpt lat="37.159382806" lon="-7.59985028982">
        <ele>57.8</ele>
        <time>2011-03-23T14:26:54Z</time>
      </trkpt>
      <trkpt lat="37.1594287388" lon="-7.59986546106">
        <ele>57.8</ele>
        <time>2011-03-23T14:26:56Z</time>
      </trkpt>
      <trkpt lat="37.1594725761" lon="-7.59987367532">
        <ele>58</ele>
        <time>2011-03-23T14:26:58Z</time>
      </trkpt>
      <trkpt lat="37.1595358595" lon="-7.59989446243">
        <ele>58.2</ele>
        <time>2011-03-23T14:27:01Z</time>
      </trkpt>
      <trkpt lat="37.1595931079" lon="-7.59991969195">
        <ele>58.2</ele>
        <time>2011-03-23T14:27:04Z</time>
      </trkpt>
      <trkpt lat="37.1596575647" lon="-7.59994718458">
        <ele>58.2</ele>
        <time>2011-03-23T14:27:07Z</time>
      </trkpt>
      <trkpt lat="37.1597128852" lon="-7.59997015099">
        <ele>58.4</ele>
        <time>2011-03-23T14:27:10Z</time>
      </trkpt>
      <trkpt lat="37.1597613326" lon="-7.59998339439">
        <ele>58.4</ele>
        <time>2011-03-23T14:27:12Z</time>
      </trkpt>
      <trkpt lat="37.1598206764" lon="-7.60000434914">
        <ele>58.4</ele>
        <time>2011-03-23T14:27:15Z</time>
      </trkpt>
      <trkpt lat="37.1599448962" lon="-7.60004257061">
        <ele>58.4</ele>
        <time>2011-03-23T14:27:20Z</time>
      </trkpt>
      <trkpt lat="37.1600096045" lon="-7.60006671048">
        <ele>58.4</ele>
        <time>2011-03-23T14:27:24Z</time>
      </trkpt>
      <trkpt lat="37.1600695351" lon="-7.60009076653">
        <ele>58.4</ele>
        <time>2011-03-23T14:27:27Z</time>
      </trkpt>
      <trkpt lat="37.1601269511" lon="-7.60011289475">
        <ele>58.4</ele>
        <time>2011-03-23T14:27:30Z</time>
      </trkpt>
      <trkpt lat="37.1601914917" lon="-7.60013234076">
        <ele>58.8</ele>
        <time>2011-03-23T14:27:33Z</time>
      </trkpt>
      <trkpt lat="37.1602532663" lon="-7.60015011038">
        <ele>59.2</ele>
        <time>2011-03-23T14:27:36Z</time>
      </trkpt>
      <trkpt lat="37.1603142027" lon="-7.60016578454">
        <ele>59.6</ele>
        <time>2011-03-23T14:27:39Z</time>
      </trkpt>
      <trkpt lat="37.1603731275" lon="-7.60017911176">
        <ele>59.8</ele>
        <time>2011-03-23T14:27:42Z</time>
      </trkpt>
      <trkpt lat="37.1604353212" lon="-7.60019537264">
        <ele>60</ele>
        <time>2011-03-23T14:27:45Z</time>
      </trkpt>
      <trkpt lat="37.1605022087" lon="-7.60020802931">
        <ele>60.2</ele>
        <time>2011-03-23T14:27:48Z</time>
      </trkpt>
      <trkpt lat="37.1605658274" lon="-7.60021951252">
        <ele>60.2</ele>
        <time>2011-03-23T14:27:51Z</time>
      </trkpt>
      <trkpt lat="37.1606312062" lon="-7.60023082808">
        <ele>60.4</ele>
        <time>2011-03-23T14:27:54Z</time>
      </trkpt>
      <trkpt lat="37.1606959983" lon="-7.60024625078">
        <ele>60.4</ele>
        <time>2011-03-23T14:27:57Z</time>
      </trkpt>
      <trkpt lat="37.160754923" lon="-7.60025396212">
        <ele>60.4</ele>
        <time>2011-03-23T14:28:00Z</time>
      </trkpt>
      <trkpt lat="37.1608198827" lon="-7.60026846281">
        <ele>60.4</ele>
        <time>2011-03-23T14:28:03Z</time>
      </trkpt>
      <trkpt lat="37.1608816573" lon="-7.60028145476">
        <ele>60.4</ele>
        <time>2011-03-23T14:28:06Z</time>
      </trkpt>
      <trkpt lat="37.1609433481" lon="-7.60029536871">
        <ele>60.4</ele>
        <time>2011-03-23T14:28:09Z</time>
      </trkpt>
      <trkpt lat="37.1610039493" lon="-7.60030861211">
        <ele>60.4</ele>
        <time>2011-03-23T14:28:12Z</time>
      </trkpt>
      <trkpt lat="37.1610523966" lon="-7.60031699401">
        <ele>60.4</ele>
        <time>2011-03-23T14:28:14Z</time>
      </trkpt>
      <trkpt lat="37.1611124949" lon="-7.60033291962">
        <ele>60.6</ele>
        <time>2011-03-23T14:28:17Z</time>
      </trkpt>
      <trkpt lat="37.1611704976" lon="-7.6003566404">
        <ele>60.6</ele>
        <time>2011-03-23T14:28:20Z</time>
      </trkpt>
      <trkpt lat="37.1612702422" lon="-7.60044129759">
        <ele>60.6</ele>
        <time>2011-03-23T14:28:26Z</time>
      </trkpt>
      <trkpt lat="37.1613153369" lon="-7.60049921652">
        <ele>60.6</ele>
        <time>2011-03-23T14:28:29Z</time>
      </trkpt>
      <trkpt lat="37.1613373812" lon="-7.60053022955">
        <ele>60.6</ele>
        <time>2011-03-23T14:28:31Z</time>
      </trkpt>
      <trkpt lat="37.1613567434" lon="-7.6004792676">
        <ele>60.8</ele>
        <time>2011-03-23T14:28:35Z</time>
      </trkpt>
      <trkpt lat="37.1613183543" lon="-7.60043283187">
        <ele>61.2</ele>
        <time>2011-03-23T14:28:37Z</time>
      </trkpt>
      <trkpt lat="37.1613032669" lon="-7.60041606807">
        <ele>61.4</ele>
        <time>2011-03-23T14:28:38Z</time>
      </trkpt>
      <trkpt lat="37.1612877604" lon="-7.60038832398">
        <ele>61.6</ele>
        <time>2011-03-23T14:28:41Z</time>
      </trkpt>
      <trkpt lat="37.16130092" lon="-7.6004100331">
        <ele>62.4</ele>
        <time>2011-03-23T14:29:05Z</time>
      </trkpt>
      <trkpt lat="37.1613474395" lon="-7.60046728148">
        <ele>62.4</ele>
        <time>2011-03-23T14:29:09Z</time>
      </trkpt>
      <trkpt lat="37.1613879241" lon="-7.60052084182">
        <ele>62.6</ele>
        <time>2011-03-23T14:29:14Z</time>
      </trkpt>
      <trkpt lat="37.1614155844" lon="-7.60056543353">
        <ele>62.6</ele>
        <time>2011-03-23T14:29:17Z</time>
      </trkpt>
      <trkpt lat="37.161439389" lon="-7.60061010906">
        <ele>62.6</ele>
        <time>2011-03-23T14:29:20Z</time>
      </trkpt>
      <trkpt lat="37.1614631936" lon="-7.60066425613">
        <ele>63</ele>
        <time>2011-03-23T14:29:23Z</time>
      </trkpt>
      <trkpt lat="37.1614811308" lon="-7.60071873848">
        <ele>63.4</ele>
        <time>2011-03-23T14:29:26Z</time>
      </trkpt>
      <trkpt lat="37.1614969726" lon="-7.60077347229">
        <ele>63.6</ele>
        <time>2011-03-23T14:29:29Z</time>
      </trkpt>
      <trkpt lat="37.1615102998" lon="-7.60082569152">
        <ele>64</ele>
        <time>2011-03-23T14:29:32Z</time>
      </trkpt>
      <trkpt lat="37.1615191847" lon="-7.60088034151">
        <ele>64</ele>
        <time>2011-03-23T14:29:35Z</time>
      </trkpt>
      <trkpt lat="37.1615233756" lon="-7.60093507532">
        <ele>64.2</ele>
        <time>2011-03-23T14:29:38Z</time>
      </trkpt>
      <trkpt lat="37.1615193523" lon="-7.60098603727">
        <ele>64.4</ele>
        <time>2011-03-23T14:29:41Z</time>
      </trkpt>
      <trkpt lat="37.1615185979" lon="-7.6010435371">
        <ele>64.4</ele>
        <time>2011-03-23T14:29:44Z</time>
      </trkpt>
      <trkpt lat="37.1615148261" lon="-7.60109533725">
        <ele>64.4</ele>
        <time>2011-03-23T14:29:47Z</time>
      </trkpt>
      <trkpt lat="37.161510216" lon="-7.60114009659">
        <ele>64.4</ele>
        <time>2011-03-23T14:29:50Z</time>
      </trkpt>
      <trkpt lat="37.1615082044" lon="-7.60119063945">
        <ele>64.4</ele>
        <time>2011-03-23T14:29:53Z</time>
      </trkpt>
      <trkpt lat="37.1615118086" lon="-7.60123833246">
        <ele>64.6</ele>
        <time>2011-03-23T14:29:58Z</time>
      </trkpt>
      <trkpt lat="37.1614916082" lon="-7.60126624419">
        <ele>64.6</ele>
        <time>2011-03-23T14:30:06Z</time>
      </trkpt>
      <trkpt lat="37.1614904347" lon="-7.60130421419">
        <ele>64.6</ele>
        <time>2011-03-23T14:30:15Z</time>
      </trkpt>
      <trkpt lat="37.1614726651" lon="-7.60134235184">
        <ele>64.6</ele>
        <time>2011-03-23T14:30:18Z</time>
      </trkpt>
      <trkpt lat="37.16144819" lon="-7.60139649891">
        <ele>64.6</ele>
        <time>2011-03-23T14:30:22Z</time>
      </trkpt>
      <trkpt lat="37.1614269838" lon="-7.60143933042">
        <ele>64.6</ele>
        <time>2011-03-23T14:30:25Z</time>
      </trkpt>
      <trkpt lat="37.1614096332" lon="-7.60149096293">
        <ele>64.6</ele>
        <time>2011-03-23T14:30:28Z</time>
      </trkpt>
      <trkpt lat="37.1613910254" lon="-7.60153999704">
        <ele>64.6</ele>
        <time>2011-03-23T14:30:31Z</time>
      </trkpt>
      <trkpt lat="37.1613732558" lon="-7.6015874386">
        <ele>64.6</ele>
        <time>2011-03-23T14:30:34Z</time>
      </trkpt>
      <trkpt lat="37.161354648" lon="-7.60163370668">
        <ele>64.6</ele>
        <time>2011-03-23T14:30:37Z</time>
      </trkpt>
      <trkpt lat="37.161336124" lon="-7.60167678965">
        <ele>64.6</ele>
        <time>2011-03-23T14:30:40Z</time>
      </trkpt>
      <trkpt lat="37.1613198631" lon="-7.60173244547">
        <ele>64.6</ele>
        <time>2011-03-23T14:30:43Z</time>
      </trkpt>
      <trkpt lat="37.1613094695" lon="-7.60177737245">
        <ele>64.6</ele>
        <time>2011-03-23T14:30:46Z</time>
      </trkpt>
      <trkpt lat="37.1613040213" lon="-7.60179195696">
        <ele>64.6</ele>
        <time>2011-03-23T14:30:47Z</time>
      </trkpt>
      <trkpt lat="37.1612728406" lon="-7.60185046262">
        <ele>64.6</ele>
        <time>2011-03-23T14:30:51Z</time>
      </trkpt>
      <trkpt lat="37.1612521373" lon="-7.60190368768">
        <ele>64.6</ele>
        <time>2011-03-23T14:30:54Z</time>
      </trkpt>
      <trkpt lat="37.1612471082" lon="-7.60191735018">
        <ele>64.6</ele>
        <time>2011-03-23T14:30:55Z</time>
      </trkpt>
      <trkpt lat="37.1612282489" lon="-7.60196294772">
        <ele>64.6</ele>
        <time>2011-03-23T14:30:58Z</time>
      </trkpt>
      <trkpt lat="37.1612084676" lon="-7.60200594686">
        <ele>64.6</ele>
        <time>2011-03-23T14:31:01Z</time>
      </trkpt>
      <trkpt lat="37.1611829028" lon="-7.60205498098">
        <ele>64.6</ele>
        <time>2011-03-23T14:31:04Z</time>
      </trkpt>
      <trkpt lat="37.161157841" lon="-7.60209705812">
        <ele>64.6</ele>
        <time>2011-03-23T14:31:07Z</time>
      </trkpt>
      <trkpt lat="37.1611328629" lon="-7.60212999898">
        <ele>64.6</ele>
        <time>2011-03-23T14:31:10Z</time>
      </trkpt>
      <trkpt lat="37.1611052864" lon="-7.60216721462">
        <ele>64.6</ele>
        <time>2011-03-23T14:31:13Z</time>
      </trkpt>
      <trkpt lat="37.1610769556" lon="-7.6021993173">
        <ele>64.6</ele>
        <time>2011-03-23T14:31:16Z</time>
      </trkpt>
      <trkpt lat="37.1610440147" lon="-7.60222463063">
        <ele>64.6</ele>
        <time>2011-03-23T14:31:19Z</time>
      </trkpt>
      <trkpt lat="37.1610122473" lon="-7.60224499865">
        <ele>64.6</ele>
        <time>2011-03-23T14:31:22Z</time>
      </trkpt>
      <trkpt lat="37.1609875207" lon="-7.60226980907">
        <ele>64.6</ele>
        <time>2011-03-23T14:31:24Z</time>
      </trkpt>
      <trkpt lat="37.1609466171" lon="-7.60230945546">
        <ele>64.6</ele>
        <time>2011-03-23T14:31:28Z</time>
      </trkpt>
      <trkpt lat="37.160915604" lon="-7.60233686427">
        <ele>64.6</ele>
        <time>2011-03-23T14:31:31Z</time>
      </trkpt>
      <trkpt lat="37.1608816573" lon="-7.60236259671">
        <ele>64.6</ele>
        <time>2011-03-23T14:31:34Z</time>
      </trkpt>
      <trkpt lat="37.1608501414" lon="-7.6023952023">
        <ele>64.6</ele>
        <time>2011-03-23T14:31:37Z</time>
      </trkpt>
      <trkpt lat="37.1608129258" lon="-7.60242588005">
        <ele>64.6</ele>
        <time>2011-03-23T14:31:40Z</time>
      </trkpt>
      <trkpt lat="37.1607770512" lon="-7.60245856946">
        <ele>64.6</ele>
        <time>2011-03-23T14:31:43Z</time>
      </trkpt>
      <trkpt lat="37.1607431045" lon="-7.60249184561">
        <ele>64.6</ele>
        <time>2011-03-23T14:31:46Z</time>
      </trkpt>
      <trkpt lat="37.1607113371" lon="-7.60252805541">
        <ele>64.6</ele>
        <time>2011-03-23T14:31:49Z</time>
      </trkpt>
      <trkpt lat="37.1606770552" lon="-7.60256384613">
        <ele>64.6</ele>
        <time>2011-03-23T14:31:52Z</time>
      </trkpt>
      <trkpt lat="37.160644701" lon="-7.6026012294">
        <ele>64.6</ele>
        <time>2011-03-23T14:31:55Z</time>
      </trkpt>
      <trkpt lat="37.1606158673" lon="-7.60263668484">
        <ele>64.6</ele>
        <time>2011-03-23T14:31:58Z</time>
      </trkpt>
      <trkpt lat="37.1605877879" lon="-7.60267239173">
        <ele>64.6</ele>
        <time>2011-03-23T14:32:01Z</time>
      </trkpt>
      <trkpt lat="37.1605539251" lon="-7.60271296013">
        <ele>64.6</ele>
        <time>2011-03-23T14:32:04Z</time>
      </trkpt>
      <trkpt lat="37.1605295337" lon="-7.60275486963">
        <ele>64.4</ele>
        <time>2011-03-23T14:32:07Z</time>
      </trkpt>
      <trkpt lat="37.1605031307" lon="-7.60279166617">
        <ele>63.8</ele>
        <time>2011-03-23T14:32:10Z</time>
      </trkpt>
      <trkpt lat="37.1604717824" lon="-7.60283441386">
        <ele>63.4</ele>
        <time>2011-03-23T14:32:13Z</time>
      </trkpt>
      <trkpt lat="37.160445128" lon="-7.60288436998">
        <ele>63.2</ele>
        <time>2011-03-23T14:32:16Z</time>
      </trkpt>
      <trkpt lat="37.1604220778" lon="-7.60292309436">
        <ele>63</ele>
        <time>2011-03-23T14:32:18Z</time>
      </trkpt>
      <trkpt lat="37.1603968482" lon="-7.60298176766">
        <ele>62.8</ele>
        <time>2011-03-23T14:32:22Z</time>
      </trkpt>
      <trkpt lat="37.1603709482" lon="-7.60303038268">
        <ele>62.8</ele>
        <time>2011-03-23T14:32:25Z</time>
      </trkpt>
      <trkpt lat="37.160348317" lon="-7.60307279509">
        <ele>62.6</ele>
        <time>2011-03-23T14:32:27Z</time>
      </trkpt>
      <trkpt lat="37.160320573" lon="-7.60313331241">
        <ele>62.6</ele>
        <time>2011-03-23T14:32:31Z</time>
      </trkpt>
      <trkpt lat="37.1602945053" lon="-7.60318058633">
        <ele>62.6</ele>
        <time>2011-03-23T14:32:34Z</time>
      </trkpt>
      <trkpt lat="37.1602693595" lon="-7.603231213">
        <ele>62.6</ele>
        <time>2011-03-23T14:32:37Z</time>
      </trkpt>
      <trkpt lat="37.160245052" lon="-7.60327681054">
        <ele>62.6</ele>
        <time>2011-03-23T14:32:40Z</time>
      </trkpt>
      <trkpt lat="37.1602185652" lon="-7.60332718576">
        <ele>62.6</ele>
        <time>2011-03-23T14:32:43Z</time>
      </trkpt>
      <trkpt lat="37.160199706" lon="-7.60337194511">
        <ele>62.4</ele>
        <time>2011-03-23T14:32:46Z</time>
      </trkpt>
      <trkpt lat="37.1601900668" lon="-7.603389128">
        <ele>62.4</ele>
        <time>2011-03-23T14:32:47Z</time>
      </trkpt>
      <trkpt lat="37.1601631609" lon="-7.60346037415">
        <ele>62.4</ele>
        <time>2011-03-23T14:32:52Z</time>
      </trkpt>
      <trkpt lat="37.1601401107" lon="-7.60349230919">
        <ele>62.4</ele>
        <time>2011-03-23T14:32:54Z</time>
      </trkpt>
      <trkpt lat="37.1600979497" lon="-7.60358216316">
        <ele>62</ele>
        <time>2011-03-23T14:32:57Z</time>
      </trkpt>
      <trkpt lat="37.1600768273" lon="-7.60365919282">
        <ele>61.6</ele>
        <time>2011-03-23T14:33:00Z</time>
      </trkpt>
      <trkpt lat="37.1600613208" lon="-7.60374351473">
        <ele>61.2</ele>
        <time>2011-03-23T14:33:03Z</time>
      </trkpt>
      <trkpt lat="37.1600575489" lon="-7.6038280881">
        <ele>61</ele>
        <time>2011-03-23T14:33:06Z</time>
      </trkpt>
      <trkpt lat="37.1600702056" lon="-7.60391609805">
        <ele>60.8</ele>
        <time>2011-03-23T14:33:09Z</time>
      </trkpt>
      <trkpt lat="37.1600894002" lon="-7.60396949076">
        <ele>60.8</ele>
        <time>2011-03-23T14:33:11Z</time>
      </trkpt>
      <trkpt lat="37.1601229278" lon="-7.60403671359">
        <ele>60.6</ele>
        <time>2011-03-23T14:33:14Z</time>
      </trkpt>
      <trkpt lat="37.1601688606" lon="-7.60409287232">
        <ele>60.6</ele>
        <time>2011-03-23T14:33:17Z</time>
      </trkpt>
      <trkpt lat="37.1602186491" lon="-7.60412891449">
        <ele>60.6</ele>
        <time>2011-03-23T14:33:20Z</time>
      </trkpt>
      <trkpt lat="37.1602676832" lon="-7.60417157837">
        <ele>60.6</ele>
        <time>2011-03-23T14:33:23Z</time>
      </trkpt>
      <trkpt lat="37.1603203215" lon="-7.60421223058">
        <ele>60.4</ele>
        <time>2011-03-23T14:33:26Z</time>
      </trkpt>
      <trkpt lat="37.1603820123" lon="-7.60424374652">
        <ele>60.4</ele>
        <time>2011-03-23T14:33:29Z</time>
      </trkpt>
      <trkpt lat="37.1604411047" lon="-7.60428364437">
        <ele>60</ele>
        <time>2011-03-23T14:33:32Z</time>
      </trkpt>
      <trkpt lat="37.1605006162" lon="-7.60431616614">
        <ele>59.6</ele>
        <time>2011-03-23T14:33:35Z</time>
      </trkpt>
      <trkpt lat="37.1605408493" lon="-7.60434567043">
        <ele>59.2</ele>
        <time>2011-03-23T14:33:37Z</time>
      </trkpt>
      <trkpt lat="37.1605825912" lon="-7.60437031321">
        <ele>59.2</ele>
        <time>2011-03-23T14:33:39Z</time>
      </trkpt>
      <trkpt lat="37.1606492273" lon="-7.60441071397">
        <ele>59</ele>
        <time>2011-03-23T14:33:42Z</time>
      </trkpt>
      <trkpt lat="37.1606948248" lon="-7.60443661404">
        <ele>58.8</ele>
        <time>2011-03-23T14:33:44Z</time>
      </trkpt>
      <trkpt lat="37.1607392489" lon="-7.60446075392">
        <ele>58.8</ele>
        <time>2011-03-23T14:33:46Z</time>
      </trkpt>
      <trkpt lat="37.1607967487" lon="-7.60450710582">
        <ele>58.6</ele>
        <time>2011-03-23T14:33:49Z</time>
      </trkpt>
      <trkpt lat="37.1608500576" lon="-7.60455706195">
        <ele>58.6</ele>
        <time>2011-03-23T14:33:52Z</time>
      </trkpt>
      <trkpt lat="37.1609063839" lon="-7.60460961646">
        <ele>58</ele>
        <time>2011-03-23T14:33:55Z</time>
      </trkpt>
      <trkpt lat="37.1609658954" lon="-7.60466694866">
        <ele>57.6</ele>
        <time>2011-03-23T14:33:58Z</time>
      </trkpt>
      <trkpt lat="37.1610021052" lon="-7.60470693032">
        <ele>57.4</ele>
        <time>2011-03-23T14:34:00Z</time>
      </trkpt>
      <trkpt lat="37.1610366387" lon="-7.60475655117">
        <ele>57.2</ele>
        <time>2011-03-23T14:34:02Z</time>
      </trkpt>
      <trkpt lat="37.1610727647" lon="-7.60480231634">
        <ele>57</ele>
        <time>2011-03-23T14:34:04Z</time>
      </trkpt>
      <trkpt lat="37.1611103994" lon="-7.60484690805">
        <ele>56.8</ele>
        <time>2011-03-23T14:34:06Z</time>
      </trkpt>
      <trkpt lat="37.1611450166" lon="-7.60489577453">
        <ele>56.8</ele>
        <time>2011-03-23T14:34:08Z</time>
      </trkpt>
      <trkpt lat="37.1611818132" lon="-7.60493818694">
        <ele>56.6</ele>
        <time>2011-03-23T14:34:10Z</time>
      </trkpt>
      <trkpt lat="37.1612177715" lon="-7.60498101845">
        <ele>56.6</ele>
        <time>2011-03-23T14:34:12Z</time>
      </trkpt>
      <trkpt lat="37.1612661351" lon="-7.60503768009">
        <ele>56.6</ele>
        <time>2011-03-23T14:34:15Z</time>
      </trkpt>
      <trkpt lat="37.1613021773" lon="-7.60508369672">
        <ele>56.2</ele>
        <time>2011-03-23T14:34:17Z</time>
      </trkpt>
      <trkpt lat="37.1613887623" lon="-7.60519911549">
        <ele>55.4</ele>
        <time>2011-03-23T14:34:22Z</time>
      </trkpt>
      <trkpt lat="37.1614382155" lon="-7.6052587108">
        <ele>55</ele>
        <time>2011-03-23T14:34:25Z</time>
      </trkpt>
      <trkpt lat="37.1614854056" lon="-7.60532199414">
        <ele>54.8</ele>
        <time>2011-03-23T14:34:28Z</time>
      </trkpt>
      <trkpt lat="37.1615361999" lon="-7.60538502603">
        <ele>54.8</ele>
        <time>2011-03-23T14:34:31Z</time>
      </trkpt>
      <trkpt lat="37.1615710686" lon="-7.60543028829">
        <ele>54.6</ele>
        <time>2011-03-23T14:34:33Z</time>
      </trkpt>
      <trkpt lat="37.1616227011" lon="-7.60549440982">
        <ele>54.6</ele>
        <time>2011-03-23T14:34:36Z</time>
      </trkpt>
      <trkpt lat="37.1616594977" lon="-7.60553564877">
        <ele>54.6</ele>
        <time>2011-03-23T14:34:38Z</time>
      </trkpt>
      <trkpt lat="37.1616920194" lon="-7.60557278059">
        <ele>54.4</ele>
        <time>2011-03-23T14:34:40Z</time>
      </trkpt>
      <trkpt lat="37.1617270558" lon="-7.6056156121">
        <ele>54.4</ele>
        <time>2011-03-23T14:34:42Z</time>
      </trkpt>
      <trkpt lat="37.1617641876" lon="-7.60565651577">
        <ele>54.4</ele>
        <time>2011-03-23T14:34:44Z</time>
      </trkpt>
      <trkpt lat="37.1617998107" lon="-7.60569842527">
        <ele>54.4</ele>
        <time>2011-03-23T14:34:46Z</time>
      </trkpt>
      <trkpt lat="37.1618345956" lon="-7.60574293316">
        <ele>54.4</ele>
        <time>2011-03-23T14:34:48Z</time>
      </trkpt>
      <trkpt lat="37.1618898323" lon="-7.60580236083">
        <ele>54.4</ele>
        <time>2011-03-23T14:34:51Z</time>
      </trkpt>
      <trkpt lat="37.1619226055" lon="-7.60584091757">
        <ele>54</ele>
        <time>2011-03-23T14:34:53Z</time>
      </trkpt>
      <trkpt lat="37.1619740704" lon="-7.60589439409">
        <ele>53.6</ele>
        <time>2011-03-23T14:34:56Z</time>
      </trkpt>
      <trkpt lat="37.1620111184" lon="-7.6059301848">
        <ele>53.2</ele>
        <time>2011-03-23T14:34:58Z</time>
      </trkpt>
      <trkpt lat="37.1620457356" lon="-7.60596924446">
        <ele>53</ele>
        <time>2011-03-23T14:35:00Z</time>
      </trkpt>
      <trkpt lat="37.1620640082" lon="-7.60598382896">
        <ele>53</ele>
        <time>2011-03-23T14:35:01Z</time>
      </trkpt>
      <trkpt lat="37.1621162274" lon="-7.60605222527">
        <ele>52.8</ele>
        <time>2011-03-23T14:35:05Z</time>
      </trkpt>
      <trkpt lat="37.1621524372" lon="-7.6060863396">
        <ele>52.6</ele>
        <time>2011-03-23T14:35:07Z</time>
      </trkpt>
      <trkpt lat="37.1622301374" lon="-7.60615909449">
        <ele>52.6</ele>
        <time>2011-03-23T14:35:11Z</time>
      </trkpt>
      <trkpt lat="37.162263665" lon="-7.60619756741">
        <ele>52.4</ele>
        <time>2011-03-23T14:35:13Z</time>
      </trkpt>
      <trkpt lat="37.1623050716" lon="-7.60622967009">
        <ele>52.4</ele>
        <time>2011-03-23T14:35:15Z</time>
      </trkpt>
      <trkpt lat="37.1623477355" lon="-7.60626386824">
        <ele>52.4</ele>
        <time>2011-03-23T14:35:17Z</time>
      </trkpt>
      <trkpt lat="37.1623867113" lon="-7.60630007805">
        <ele>52.4</ele>
        <time>2011-03-23T14:35:19Z</time>
      </trkpt>
      <trkpt lat="37.1624240108" lon="-7.60633092344">
        <ele>52.2</ele>
        <time>2011-03-23T14:35:21Z</time>
      </trkpt>
      <trkpt lat="37.1624775711" lon="-7.60637585043">
        <ele>51.6</ele>
        <time>2011-03-23T14:35:24Z</time>
      </trkpt>
      <trkpt lat="37.1625305447" lon="-7.60641901721">
        <ele>51.2</ele>
        <time>2011-03-23T14:35:27Z</time>
      </trkpt>
      <trkpt lat="37.1625711131" lon="-7.60645983707">
        <ele>51</ele>
        <time>2011-03-23T14:35:29Z</time>
      </trkpt>
      <trkpt lat="37.1626260146" lon="-7.60649261029">
        <ele>50.8</ele>
        <time>2011-03-23T14:35:32Z</time>
      </trkpt>
      <trkpt lat="37.1626667506" lon="-7.60651607961">
        <ele>50.8</ele>
        <time>2011-03-23T14:35:34Z</time>
      </trkpt>
      <trkpt lat="37.1627260944" lon="-7.60654399134">
        <ele>50.6</ele>
        <time>2011-03-23T14:35:37Z</time>
      </trkpt>
      <trkpt lat="37.1627686745" lon="-7.60657165161">
        <ele>50.6</ele>
        <time>2011-03-23T14:35:39Z</time>
      </trkpt>
      <trkpt lat="37.1628255038" lon="-7.60661272292">
        <ele>50.2</ele>
        <time>2011-03-23T14:35:42Z</time>
      </trkpt>
      <trkpt lat="37.1628801538" lon="-7.60665136348">
        <ele>49.8</ele>
        <time>2011-03-23T14:35:45Z</time>
      </trkpt>
      <trkpt lat="37.16292265" lon="-7.6066801134">
        <ele>49.4</ele>
        <time>2011-03-23T14:35:47Z</time>
      </trkpt>
      <trkpt lat="37.1629676608" lon="-7.60672177144">
        <ele>49.2</ele>
        <time>2011-03-23T14:35:49Z</time>
      </trkpt>
      <trkpt lat="37.1630197962" lon="-7.6067656926">
        <ele>49</ele>
        <time>2011-03-23T14:35:52Z</time>
      </trkpt>
      <trkpt lat="37.1630609513" lon="-7.60679746">
        <ele>48.8</ele>
        <time>2011-03-23T14:35:54Z</time>
      </trkpt>
      <trkpt lat="37.1631136735" lon="-7.60684322517">
        <ele>48.6</ele>
        <time>2011-03-23T14:35:57Z</time>
      </trkpt>
      <trkpt lat="37.1631665633" lon="-7.60688454794">
        <ele>48.6</ele>
        <time>2011-03-23T14:36:00Z</time>
      </trkpt>
      <trkpt lat="37.1632056229" lon="-7.60692126066">
        <ele>48.4</ele>
        <time>2011-03-23T14:36:02Z</time>
      </trkpt>
      <trkpt lat="37.163244934" lon="-7.60695059731">
        <ele>48.4</ele>
        <time>2011-03-23T14:36:04Z</time>
      </trkpt>
      <trkpt lat="37.1632871788" lon="-7.60698303526">
        <ele>48</ele>
        <time>2011-03-23T14:36:06Z</time>
      </trkpt>
      <trkpt lat="37.1633231372" lon="-7.60702117291">
        <ele>47.6</ele>
        <time>2011-03-23T14:36:08Z</time>
      </trkpt>
      <trkpt lat="37.1633582573" lon="-7.60705964583">
        <ele>47.4</ele>
        <time>2011-03-23T14:36:10Z</time>
      </trkpt>
      <trkpt lat="37.163401005" lon="-7.60709677765">
        <ele>47.2</ele>
        <time>2011-03-23T14:36:12Z</time>
      </trkpt>
      <trkpt lat="37.1634582534" lon="-7.60714623086">
        <ele>47</ele>
        <time>2011-03-23T14:36:15Z</time>
      </trkpt>
      <trkpt lat="37.1635069522" lon="-7.60719065493">
        <ele>46.8</ele>
        <time>2011-03-23T14:36:18Z</time>
      </trkpt>
      <trkpt lat="37.1635590877" lon="-7.60724488582">
        <ele>46.6</ele>
        <time>2011-03-23T14:36:21Z</time>
      </trkpt>
      <trkpt lat="37.1635935373" lon="-7.60728704678">
        <ele>46.6</ele>
        <time>2011-03-23T14:36:23Z</time>
      </trkpt>
      <trkpt lat="37.1636393863" lon="-7.60735175504">
        <ele>46.4</ele>
        <time>2011-03-23T14:36:26Z</time>
      </trkpt>
      <trkpt lat="37.1636798708" lon="-7.60742861707">
        <ele>46.4</ele>
        <time>2011-03-23T14:36:29Z</time>
      </trkpt>
      <trkpt lat="37.1637109677" lon="-7.60748888293">
        <ele>46.4</ele>
        <time>2011-03-23T14:36:32Z</time>
      </trkpt>
      <trkpt lat="37.1637454173" lon="-7.6075637333">
        <ele>46.2</ele>
        <time>2011-03-23T14:36:35Z</time>
      </trkpt>
      <trkpt lat="37.1637908472" lon="-7.60762978267">
        <ele>46.2</ele>
        <time>2011-03-23T14:36:38Z</time>
      </trkpt>
      <trkpt lat="37.1638276437" lon="-7.6077062256">
        <ele>46.2</ele>
        <time>2011-03-23T14:36:41Z</time>
      </trkpt>
      <trkpt lat="37.1638554716" lon="-7.60775525971">
        <ele>46.2</ele>
        <time>2011-03-23T14:36:43Z</time>
      </trkpt>
      <trkpt lat="37.1638765102" lon="-7.60780312036">
        <ele>45.8</ele>
        <time>2011-03-23T14:36:45Z</time>
      </trkpt>
      <trkpt lat="37.1639110436" lon="-7.60787059465">
        <ele>45.4</ele>
        <time>2011-03-23T14:36:48Z</time>
      </trkpt>
      <trkpt lat="37.1639496842" lon="-7.60794083498">
        <ele>45</ele>
        <time>2011-03-23T14:36:51Z</time>
      </trkpt>
      <trkpt lat="37.1639920966" lon="-7.60800562706">
        <ele>44.8</ele>
        <time>2011-03-23T14:36:54Z</time>
      </trkpt>
      <trkpt lat="37.1640287255" lon="-7.60804225597">
        <ele>44.8</ele>
        <time>2011-03-23T14:36:56Z</time>
      </trkpt>
      <trkpt lat="37.1640850519" lon="-7.60808098034">
        <ele>44.6</ele>
        <time>2011-03-23T14:36:59Z</time>
      </trkpt>
      <trkpt lat="37.1641451501" lon="-7.60810051017">
        <ele>44.4</ele>
        <time>2011-03-23T14:37:02Z</time>
      </trkpt>
      <trkpt lat="37.1642101937" lon="-7.60809690595">
        <ele>44.4</ele>
        <time>2011-03-23T14:37:05Z</time>
      </trkpt>
      <trkpt lat="37.1642744828" lon="-7.60807142498">
        <ele>44.4</ele>
        <time>2011-03-23T14:37:08Z</time>
      </trkpt>
      <trkpt lat="37.1643260315" lon="-7.60803010221">
        <ele>44.2</ele>
        <time>2011-03-23T14:37:11Z</time>
      </trkpt>
      <trkpt lat="37.1643738083" lon="-7.60798819271">
        <ele>44.2</ele>
        <time>2011-03-23T14:37:14Z</time>
      </trkpt>
      <trkpt lat="37.1644276201" lon="-7.6079457803">
        <ele>44.2</ele>
        <time>2011-03-23T14:37:17Z</time>
      </trkpt>
      <trkpt lat="37.1644688591" lon="-7.60789456689">
        <ele>44.2</ele>
        <time>2011-03-23T14:37:20Z</time>
      </trkpt>
      <trkpt lat="37.164502722" lon="-7.60786103929">
        <ele>44.2</ele>
        <time>2011-03-23T14:37:23Z</time>
      </trkpt>
      <trkpt lat="37.1645421169" lon="-7.60783933017">
        <ele>44.2</ele>
        <time>2011-03-23T14:37:26Z</time>
      </trkpt>
      <trkpt lat="37.1645825177" lon="-7.60781451974">
        <ele>44.2</ele>
        <time>2011-03-23T14:37:29Z</time>
      </trkpt>
      <trkpt lat="37.1646126925" lon="-7.60779398409">
        <ele>44.2</ele>
        <time>2011-03-23T14:37:32Z</time>
      </trkpt>
      <trkpt lat="37.1646437893" lon="-7.60778241707">
        <ele>44.2</ele>
        <time>2011-03-23T14:37:35Z</time>
      </trkpt>
      <trkpt lat="37.164678658" lon="-7.60776548563">
        <ele>44.2</ele>
        <time>2011-03-23T14:37:38Z</time>
      </trkpt>
      <trkpt lat="37.1647095873" lon="-7.60774696163">
        <ele>44.2</ele>
        <time>2011-03-23T14:37:41Z</time>
      </trkpt>
      <trkpt lat="37.1647441207" lon="-7.60773019783">
        <ele>44.2</ele>
        <time>2011-03-23T14:37:44Z</time>
      </trkpt>
      <trkpt lat="37.1647785703" lon="-7.6077146075">
        <ele>44.2</ele>
        <time>2011-03-23T14:37:47Z</time>
      </trkpt>
      <trkpt lat="37.1648142772" lon="-7.60770429776">
        <ele>44.2</ele>
        <time>2011-03-23T14:37:50Z</time>
      </trkpt>
      <trkpt lat="37.1648555161" lon="-7.60769063526">
        <ele>44.2</ele>
        <time>2011-03-23T14:37:53Z</time>
      </trkpt>
      <trkpt lat="37.1648941567" lon="-7.60767705658">
        <ele>44.2</ele>
        <time>2011-03-23T14:37:56Z</time>
      </trkpt>
      <trkpt lat="37.1649326296" lon="-7.60766129861">
        <ele>44.2</ele>
        <time>2011-03-23T14:37:59Z</time>
      </trkpt>
      <trkpt lat="37.1649712702" lon="-7.60764528918">
        <ele>44.2</ele>
        <time>2011-03-23T14:38:02Z</time>
      </trkpt>
      <trkpt lat="37.1650084858" lon="-7.60763062086">
        <ele>44.2</ele>
        <time>2011-03-23T14:38:05Z</time>
      </trkpt>
      <trkpt lat="37.1650457014" lon="-7.60761804801">
        <ele>44.2</ele>
        <time>2011-03-23T14:38:08Z</time>
      </trkpt>
      <trkpt lat="37.1650835038" lon="-7.60760773827">
        <ele>44.2</ele>
        <time>2011-03-23T14:38:11Z</time>
      </trkpt>
      <trkpt lat="37.1651212224" lon="-7.60758971719">
        <ele>44.2</ele>
        <time>2011-03-23T14:38:14Z</time>
      </trkpt>
      <trkpt lat="37.1652030297" lon="-7.6075562734">
        <ele>44.2</ele>
        <time>2011-03-23T14:38:20Z</time>
      </trkpt>
      <trkpt lat="37.1652403292" lon="-7.60754546075">
        <ele>44.2</ele>
        <time>2011-03-23T14:38:23Z</time>
      </trkpt>
      <trkpt lat="37.1652757008" lon="-7.60752945132">
        <ele>44.2</ele>
        <time>2011-03-23T14:38:26Z</time>
      </trkpt>
      <trkpt lat="37.1653218851" lon="-7.60751545355">
        <ele>44.2</ele>
        <time>2011-03-23T14:38:29Z</time>
      </trkpt>
      <trkpt lat="37.1653595198" lon="-7.60750070141">
        <ele>44.2</ele>
        <time>2011-03-23T14:38:32Z</time>
      </trkpt>
      <trkpt lat="37.1653995014" lon="-7.60748117158">
        <ele>44.2</ele>
        <time>2011-03-23T14:38:35Z</time>
      </trkpt>
      <trkpt lat="37.1654400698" lon="-7.60746708999">
        <ele>44.2</ele>
        <time>2011-03-23T14:38:38Z</time>
      </trkpt>
      <trkpt lat="37.1654925405" lon="-7.60744403976">
        <ele>44.2</ele>
        <time>2011-03-23T14:38:41Z</time>
      </trkpt>
      <trkpt lat="37.1655507947" lon="-7.60741336201">
        <ele>44.2</ele>
        <time>2011-03-23T14:38:44Z</time>
      </trkpt>
      <trkpt lat="37.1656095519" lon="-7.60738721048">
        <ele>44.2</ele>
        <time>2011-03-23T14:38:47Z</time>
      </trkpt>
      <trkpt lat="37.1656548141" lon="-7.60736181332">
        <ele>44.2</ele>
        <time>2011-03-23T14:38:49Z</time>
      </trkpt>
      <trkpt lat="37.1657050217" lon="-7.60733717054">
        <ele>44.2</ele>
        <time>2011-03-23T14:38:52Z</time>
      </trkpt>
      <trkpt lat="37.1657610966" lon="-7.6073122763">
        <ele>44.2</ele>
        <time>2011-03-23T14:38:55Z</time>
      </trkpt>
      <trkpt lat="37.1658219492" lon="-7.60728889079">
        <ele>44.2</ele>
        <time>2011-03-23T14:38:58Z</time>
      </trkpt>
      <trkpt lat="37.1658546386" lon="-7.60727237845">
        <ele>44.2</ele>
        <time>2011-03-23T14:39:00Z</time>
      </trkpt>
      <trkpt lat="37.1658776888" lon="-7.60729844616">
        <ele>44.2</ele>
        <time>2011-03-23T14:39:04Z</time>
      </trkpt>
      <trkpt lat="37.1658910999" lon="-7.6072646671">
        <ele>44.2</ele>
        <time>2011-03-23T14:39:28Z</time>
      </trkpt>
      <trkpt lat="37.1659501085" lon="-7.60720046175">
        <ele>44.2</ele>
        <time>2011-03-23T14:39:32Z</time>
      </trkpt>
      <trkpt lat="37.1660117992" lon="-7.60715310401">
        <ele>44.2</ele>
        <time>2011-03-23T14:39:35Z</time>
      </trkpt>
      <trkpt lat="37.1660508589" lon="-7.60712427028">
        <ele>44.2</ele>
        <time>2011-03-23T14:39:37Z</time>
      </trkpt>
      <trkpt lat="37.1661368572" lon="-7.60708764138">
        <ele>44</ele>
        <time>2011-03-23T14:39:41Z</time>
      </trkpt>
      <trkpt lat="37.166202236" lon="-7.60705654453">
        <ele>43.4</ele>
        <time>2011-03-23T14:39:44Z</time>
      </trkpt>
      <trkpt lat="37.1662483365" lon="-7.60703332666">
        <ele>43.2</ele>
        <time>2011-03-23T14:39:46Z</time>
      </trkpt>
      <trkpt lat="37.1663178224" lon="-7.60700415765">
        <ele>43</ele>
        <time>2011-03-23T14:39:49Z</time>
      </trkpt>
      <trkpt lat="37.1663271263" lon="-7.60699669776">
        <ele>42.8</ele>
        <time>2011-03-23T14:39:50Z</time>
      </trkpt>
      <trkpt lat="37.1663947683" lon="-7.60696803166">
        <ele>42.6</ele>
        <time>2011-03-23T14:39:53Z</time>
      </trkpt>
      <trkpt lat="37.1664536092" lon="-7.60692897201">
        <ele>42.6</ele>
        <time>2011-03-23T14:39:56Z</time>
      </trkpt>
      <trkpt lat="37.1665146294" lon="-7.60689133728">
        <ele>42.4</ele>
        <time>2011-03-23T14:39:59Z</time>
      </trkpt>
      <trkpt lat="37.1665696985" lon="-7.6068574744">
        <ele>42.4</ele>
        <time>2011-03-23T14:40:02Z</time>
      </trkpt>
      <trkpt lat="37.166583361" lon="-7.6068424708">
        <ele>42.4</ele>
        <time>2011-03-23T14:40:03Z</time>
      </trkpt>
      <trkpt lat="37.1666691917" lon="-7.60680634481">
        <ele>42.2</ele>
        <time>2011-03-23T14:40:07Z</time>
      </trkpt>
      <trkpt lat="37.1667142025" lon="-7.60678212112">
        <ele>42.2</ele>
        <time>2011-03-23T14:40:09Z</time>
      </trkpt>
      <trkpt lat="37.1667760609" lon="-7.60675940617">
        <ele>42.2</ele>
        <time>2011-03-23T14:40:12Z</time>
      </trkpt>
      <trkpt lat="37.166839009" lon="-7.60672881224">
        <ele>42.2</ele>
        <time>2011-03-23T14:40:15Z</time>
      </trkpt>
      <trkpt lat="37.1669094169" lon="-7.60669981086">
        <ele>42.2</ele>
        <time>2011-03-23T14:40:18Z</time>
      </trkpt>
      <trkpt lat="37.1669756339" lon="-7.60667399461">
        <ele>42.2</ele>
        <time>2011-03-23T14:40:21Z</time>
      </trkpt>
      <trkpt lat="37.1670196389" lon="-7.60665614116">
        <ele>41.8</ele>
        <time>2011-03-23T14:40:23Z</time>
      </trkpt>
      <trkpt lat="37.1670878676" lon="-7.60663568933">
        <ele>41.4</ele>
        <time>2011-03-23T14:40:26Z</time>
      </trkpt>
      <trkpt lat="37.1671618797" lon="-7.60661146564">
        <ele>41</ele>
        <time>2011-03-23T14:40:29Z</time>
      </trkpt>
      <trkpt lat="37.1672142666" lon="-7.6065910138">
        <ele>40.8</ele>
        <time>2011-03-23T14:40:32Z</time>
      </trkpt>
      <trkpt lat="37.167257601" lon="-7.60657567492">
        <ele>40.6</ele>
        <time>2011-03-23T14:40:34Z</time>
      </trkpt>
      <trkpt lat="37.1673185375" lon="-7.60655681565">
        <ele>40.4</ele>
        <time>2011-03-23T14:40:37Z</time>
      </trkpt>
      <trkpt lat="37.1673665657" lon="-7.606537202">
        <ele>40.4</ele>
        <time>2011-03-23T14:40:39Z</time>
      </trkpt>
      <trkpt lat="37.1674311902" lon="-7.60651549288">
        <ele>40.4</ele>
        <time>2011-03-23T14:40:42Z</time>
      </trkpt>
      <trkpt lat="37.1674954794" lon="-7.60649428667">
        <ele>40.2</ele>
        <time>2011-03-23T14:40:45Z</time>
      </trkpt>
      <trkpt lat="37.1675599362" lon="-7.60647324811">
        <ele>40.2</ele>
        <time>2011-03-23T14:40:48Z</time>
      </trkpt>
      <trkpt lat="37.1676244768" lon="-7.60644835386">
        <ele>40.2</ele>
        <time>2011-03-23T14:40:51Z</time>
      </trkpt>
      <trkpt lat="37.1676891851" lon="-7.60642899167">
        <ele>40.2</ele>
        <time>2011-03-23T14:40:54Z</time>
      </trkpt>
      <trkpt lat="37.1677505406" lon="-7.60640719873">
        <ele>40.2</ele>
        <time>2011-03-23T14:40:57Z</time>
      </trkpt>
      <trkpt lat="37.1677979821" lon="-7.6063916084">
        <ele>40.2</ele>
        <time>2011-03-23T14:40:59Z</time>
      </trkpt>
      <trkpt lat="37.1678462619" lon="-7.60637710771">
        <ele>40.2</ele>
        <time>2011-03-23T14:41:01Z</time>
      </trkpt>
      <trkpt lat="37.1679093776" lon="-7.60635598532">
        <ele>40.2</ele>
        <time>2011-03-23T14:41:04Z</time>
      </trkpt>
      <trkpt lat="37.1679745049" lon="-7.60631801532">
        <ele>40.2</ele>
        <time>2011-03-23T14:41:07Z</time>
      </trkpt>
      <trkpt lat="37.1680139837" lon="-7.60629303726">
        <ele>39.8</ele>
        <time>2011-03-23T14:41:09Z</time>
      </trkpt>
      <trkpt lat="37.168068466" lon="-7.60624995429">
        <ele>39.4</ele>
        <time>2011-03-23T14:41:12Z</time>
      </trkpt>
      <trkpt lat="37.1681195956" lon="-7.60621190046">
        <ele>39</ele>
        <time>2011-03-23T14:41:15Z</time>
      </trkpt>
      <trkpt lat="37.1681638521" lon="-7.60617937869">
        <ele>38.8</ele>
        <time>2011-03-23T14:41:17Z</time>
      </trkpt>
      <trkpt lat="37.1682091143" lon="-7.60613772065">
        <ele>38.6</ele>
        <time>2011-03-23T14:41:20Z</time>
      </trkpt>
      <trkpt lat="37.1682454918" lon="-7.60609849336">
        <ele>38.6</ele>
        <time>2011-03-23T14:41:22Z</time>
      </trkpt>
      <trkpt lat="37.1682899997" lon="-7.60605180617">
        <ele>38.4</ele>
        <time>2011-03-23T14:41:24Z</time>
      </trkpt>
      <trkpt lat="37.1683345914" lon="-7.60600143095">
        <ele>38.4</ele>
        <time>2011-03-23T14:41:27Z</time>
      </trkpt>
      <trkpt lat="37.168366694" lon="-7.60595759362">
        <ele>38.2</ele>
        <time>2011-03-23T14:41:29Z</time>
      </trkpt>
      <trkpt lat="37.1683992996" lon="-7.60590763749">
        <ele>38.2</ele>
        <time>2011-03-23T14:41:31Z</time>
      </trkpt>
      <trkpt lat="37.1684349227" lon="-7.60584871274">
        <ele>37.6</ele>
        <time>2011-03-23T14:41:34Z</time>
      </trkpt>
      <trkpt lat="37.1684592302" lon="-7.60578827924">
        <ele>37.2</ele>
        <time>2011-03-23T14:41:36Z</time>
      </trkpt>
      <trkpt lat="37.1684799335" lon="-7.60573589236">
        <ele>37</ele>
        <time>2011-03-23T14:41:38Z</time>
      </trkpt>
      <trkpt lat="37.1685090187" lon="-7.60565785687">
        <ele>36.8</ele>
        <time>2011-03-23T14:41:41Z</time>
      </trkpt>
      <trkpt lat="37.1685341644" lon="-7.60558158158">
        <ele>36.6</ele>
        <time>2011-03-23T14:41:44Z</time>
      </trkpt>
      <trkpt lat="37.1685586396" lon="-7.60550245645">
        <ele>36.4</ele>
        <time>2011-03-23T14:41:47Z</time>
      </trkpt>
      <trkpt lat="37.1685758225" lon="-7.60544839319">
        <ele>36.2</ele>
        <time>2011-03-23T14:41:49Z</time>
      </trkpt>
      <trkpt lat="37.1686005491" lon="-7.60537312373">
        <ele>36</ele>
        <time>2011-03-23T14:41:52Z</time>
      </trkpt>
      <trkpt lat="37.1686241022" lon="-7.60532593363">
        <ele>35.6</ele>
        <time>2011-03-23T14:41:54Z</time>
      </trkpt>
      <trkpt lat="37.1686586356" lon="-7.60526482958">
        <ele>35.2</ele>
        <time>2011-03-23T14:41:57Z</time>
      </trkpt>
      <trkpt lat="37.1686905707" lon="-7.60521537637">
        <ele>35</ele>
        <time>2011-03-23T14:41:59Z</time>
      </trkpt>
      <trkpt lat="37.1687179795" lon="-7.60516810246">
        <ele>34.8</ele>
        <time>2011-03-23T14:42:01Z</time>
      </trkpt>
      <trkpt lat="37.1687613977" lon="-7.60511261428">
        <ele>34.6</ele>
        <time>2011-03-23T14:42:04Z</time>
      </trkpt>
      <trkpt lat="37.1687929975" lon="-7.60507104005">
        <ele>34.4</ele>
        <time>2011-03-23T14:42:06Z</time>
      </trkpt>
      <trkpt lat="37.1688387627" lon="-7.60501362404">
        <ele>34.2</ele>
        <time>2011-03-23T14:42:09Z</time>
      </trkpt>
      <trkpt lat="37.1688841926" lon="-7.60496241063">
        <ele>34.2</ele>
        <time>2011-03-23T14:42:12Z</time>
      </trkpt>
      <trkpt lat="37.1689226655" lon="-7.60491664546">
        <ele>34.2</ele>
        <time>2011-03-23T14:42:15Z</time>
      </trkpt>
      <trkpt lat="37.1689473083" lon="-7.60489728327">
        <ele>34</ele>
        <time>2011-03-23T14:42:16Z</time>
      </trkpt>
      <trkpt lat="37.1690039699" lon="-7.60485051227">
        <ele>34</ele>
        <time>2011-03-23T14:42:19Z</time>
      </trkpt>
      <trkpt lat="37.1690587875" lon="-7.60480717784">
        <ele>33.8</ele>
        <time>2011-03-23T14:42:22Z</time>
      </trkpt>
      <trkpt lat="37.1691157844" lon="-7.60477046512">
        <ele>33.2</ele>
        <time>2011-03-23T14:42:25Z</time>
      </trkpt>
      <trkpt lat="37.1691716917" lon="-7.60473098637">
        <ele>32.8</ele>
        <time>2011-03-23T14:42:28Z</time>
      </trkpt>
      <trkpt lat="37.1692258388" lon="-7.60469050179">
        <ele>32.6</ele>
        <time>2011-03-23T14:42:31Z</time>
      </trkpt>
      <trkpt lat="37.1692804888" lon="-7.60464976576">
        <ele>32.4</ele>
        <time>2011-03-23T14:42:34Z</time>
      </trkpt>
      <trkpt lat="37.1693320375" lon="-7.60460576079">
        <ele>32.2</ele>
        <time>2011-03-23T14:42:37Z</time>
      </trkpt>
      <trkpt lat="37.1693880286" lon="-7.60456854515">
        <ele>32.2</ele>
        <time>2011-03-23T14:42:40Z</time>
      </trkpt>
      <trkpt lat="37.169443852" lon="-7.60452697093">
        <ele>32</ele>
        <time>2011-03-23T14:42:43Z</time>
      </trkpt>
      <trkpt lat="37.1694697521" lon="-7.60449713136">
        <ele>32</ele>
        <time>2011-03-23T14:42:45Z</time>
      </trkpt>
      <trkpt lat="37.1695358015" lon="-7.60445606005">
        <ele>32</ele>
        <time>2011-03-23T14:42:48Z</time>
      </trkpt>
      <trkpt lat="37.1695749449" lon="-7.60442974089">
        <ele>32</ele>
        <time>2011-03-23T14:42:50Z</time>
      </trkpt>
      <trkpt lat="37.1696526451" lon="-7.60437986858">
        <ele>31.6</ele>
        <time>2011-03-23T14:42:54Z</time>
      </trkpt>
      <trkpt lat="37.1696973207" lon="-7.60434307204">
        <ele>31</ele>
        <time>2011-03-23T14:42:57Z</time>
      </trkpt>
      <trkpt lat="37.1697497075" lon="-7.604319938">
        <ele>30.8</ele>
        <time>2011-03-23T14:42:59Z</time>
      </trkpt>
      <trkpt lat="37.1697956404" lon="-7.60429780978">
        <ele>30.6</ele>
        <time>2011-03-23T14:43:01Z</time>
      </trkpt>
      <trkpt lat="37.1698516314" lon="-7.60425866631">
        <ele>30.4</ele>
        <time>2011-03-23T14:43:04Z</time>
      </trkpt>
      <trkpt lat="37.1698678923" lon="-7.60424290833">
        <ele>30.4</ele>
        <time>2011-03-23T14:43:05Z</time>
      </trkpt>
      <trkpt lat="37.1699167588" lon="-7.6041924493">
        <ele>30.2</ele>
        <time>2011-03-23T14:43:08Z</time>
      </trkpt>
      <trkpt lat="37.1699697324" lon="-7.60415179708">
        <ele>30</ele>
        <time>2011-03-23T14:43:11Z</time>
      </trkpt>
      <trkpt lat="37.1700232928" lon="-7.60411424617">
        <ele>29.4</ele>
        <time>2011-03-23T14:43:14Z</time>
      </trkpt>
      <trkpt lat="37.1700674654" lon="-7.60409329142">
        <ele>29</ele>
        <time>2011-03-23T14:43:16Z</time>
      </trkpt>
      <trkpt lat="37.1701138173" lon="-7.60407527033">
        <ele>28.8</ele>
        <time>2011-03-23T14:43:18Z</time>
      </trkpt>
      <trkpt lat="37.1701733288" lon="-7.60405347739">
        <ele>28.6</ele>
        <time>2011-03-23T14:43:21Z</time>
      </trkpt>
      <trkpt lat="37.1702039227" lon="-7.60404719097">
        <ele>28.4</ele>
        <time>2011-03-23T14:43:22Z</time>
      </trkpt>
      <trkpt lat="37.1702989735" lon="-7.60402808024">
        <ele>27.8</ele>
        <time>2011-03-23T14:43:26Z</time>
      </trkpt>
      <trkpt lat="37.1703474208" lon="-7.6040230511">
        <ele>27.4</ele>
        <time>2011-03-23T14:43:28Z</time>
      </trkpt>
      <trkpt lat="37.1704221036" lon="-7.60402330255">
        <ele>27</ele>
        <time>2011-03-23T14:43:31Z</time>
      </trkpt>
      <trkpt lat="37.1704920924" lon="-7.60403235501">
        <ele>26.6</ele>
        <time>2011-03-23T14:43:34Z</time>
      </trkpt>
      <trkpt lat="37.1705387796" lon="-7.6040442573">
        <ele>26.4</ele>
        <time>2011-03-23T14:43:36Z</time>
      </trkpt>
      <trkpt lat="37.1705862212" lon="-7.60405934472">
        <ele>26.2</ele>
        <time>2011-03-23T14:43:38Z</time>
      </trkpt>
      <trkpt lat="37.1706328245" lon="-7.60407585707">
        <ele>26.2</ele>
        <time>2011-03-23T14:43:40Z</time>
      </trkpt>
      <trkpt lat="37.170679847" lon="-7.60408859756">
        <ele>26</ele>
        <time>2011-03-23T14:43:42Z</time>
      </trkpt>
      <trkpt lat="37.1707240196" lon="-7.60410234387">
        <ele>26</ele>
        <time>2011-03-23T14:43:44Z</time>
      </trkpt>
      <trkpt lat="37.1707665997" lon="-7.60412178988">
        <ele>26</ele>
        <time>2011-03-23T14:43:46Z</time>
      </trkpt>
      <trkpt lat="37.1708105208" lon="-7.6041351171">
        <ele>25.8</ele>
        <time>2011-03-23T14:43:48Z</time>
      </trkpt>
      <trkpt lat="37.1708860417" lon="-7.60416747123">
        <ele>25.8</ele>
        <time>2011-03-23T14:43:52Z</time>
      </trkpt>
      <trkpt lat="37.17094614" lon="-7.6041867496">
        <ele>25.8</ele>
        <time>2011-03-23T14:43:55Z</time>
      </trkpt>
      <trkpt lat="37.1710084175" lon="-7.60420669853">
        <ele>25.8</ele>
        <time>2011-03-23T14:43:58Z</time>
      </trkpt>
      <trkpt lat="37.1710733772" lon="-7.6042220374">
        <ele>25.8</ele>
        <time>2011-03-23T14:44:01Z</time>
      </trkpt>
      <trkpt lat="37.1711318829" lon="-7.60424131577">
        <ele>25.8</ele>
        <time>2011-03-23T14:44:04Z</time>
      </trkpt>
      <trkpt lat="37.1712001953" lon="-7.60424383034">
        <ele>25.6</ele>
        <time>2011-03-23T14:44:07Z</time>
      </trkpt>
      <trkpt lat="37.1712470502" lon="-7.60423075458">
        <ele>25.6</ele>
        <time>2011-03-23T14:44:09Z</time>
      </trkpt>
      <trkpt lat="37.1712846011" lon="-7.60421977429">
        <ele>25.6</ele>
        <time>2011-03-23T14:44:11Z</time>
      </trkpt>
      <trkpt lat="37.1713421847" lon="-7.60417945735">
        <ele>25.6</ele>
        <time>2011-03-23T14:44:14Z</time>
      </trkpt>
      <trkpt lat="37.1713776402" lon="-7.60415221618">
        <ele>25.6</ele>
        <time>2011-03-23T14:44:16Z</time>
      </trkpt>
      <trkpt lat="37.1714182924" lon="-7.60412128697">
        <ele>25.6</ele>
        <time>2011-03-23T14:44:19Z</time>
      </trkpt>
      <trkpt lat="37.1714562624" lon="-7.60408901665">
        <ele>25.6</ele>
        <time>2011-03-23T14:44:22Z</time>
      </trkpt>
      <trkpt lat="37.171496747" lon="-7.60405691397">
        <ele>25.6</ele>
        <time>2011-03-23T14:44:25Z</time>
      </trkpt>
      <trkpt lat="37.1715327053" lon="-7.60402774496">
        <ele>25.6</ele>
        <time>2011-03-23T14:44:28Z</time>
      </trkpt>
      <trkpt lat="37.171579141" lon="-7.60398868531">
        <ele>25.6</ele>
        <time>2011-03-23T14:44:31Z</time>
      </trkpt>
      <trkpt lat="37.1716125848" lon="-7.60395851047">
        <ele>25.6</ele>
        <time>2011-03-23T14:44:34Z</time>
      </trkpt>
      <trkpt lat="37.1716538238" lon="-7.60392230066">
        <ele>25.6</ele>
        <time>2011-03-23T14:44:37Z</time>
      </trkpt>
      <trkpt lat="37.1716964038" lon="-7.60389170672">
        <ele>25.6</ele>
        <time>2011-03-23T14:44:40Z</time>
      </trkpt>
      <trkpt lat="37.1717335356" lon="-7.60386739921">
        <ele>25.6</ele>
        <time>2011-03-23T14:44:43Z</time>
      </trkpt>
      <trkpt lat="37.1717689073" lon="-7.60383965513">
        <ele>25.6</ele>
        <time>2011-03-23T14:44:46Z</time>
      </trkpt>
      <trkpt lat="37.1718145886" lon="-7.60380520552">
        <ele>25.6</ele>
        <time>2011-03-23T14:44:49Z</time>
      </trkpt>
      <trkpt lat="37.1718457693" lon="-7.60377436012">
        <ele>25.6</ele>
        <time>2011-03-23T14:44:52Z</time>
      </trkpt>
      <trkpt lat="37.1718600185" lon="-7.60376153582">
        <ele>25.6</ele>
        <time>2011-03-23T14:44:53Z</time>
      </trkpt>
      <trkpt lat="37.1719025147" lon="-7.60372163797">
        <ele>25.6</ele>
        <time>2011-03-23T14:44:57Z</time>
      </trkpt>
      <trkpt lat="37.1719507107" lon="-7.60368358415">
        <ele>25.6</ele>
        <time>2011-03-23T14:45:00Z</time>
      </trkpt>
      <trkpt lat="37.1719813046" lon="-7.60365181675">
        <ele>25.6</ele>
        <time>2011-03-23T14:45:03Z</time>
      </trkpt>
      <trkpt lat="37.1720274051" lon="-7.60362013316">
        <ele>25.6</ele>
        <time>2011-03-23T14:45:06Z</time>
      </trkpt>
      <trkpt lat="37.1720688116" lon="-7.60358970687">
        <ele>25.6</ele>
        <time>2011-03-23T14:45:09Z</time>
      </trkpt>
      <trkpt lat="37.1721082066" lon="-7.60356011876">
        <ele>25.6</ele>
        <time>2011-03-23T14:45:12Z</time>
      </trkpt>
      <trkpt lat="37.1721430753" lon="-7.60353405105">
        <ele>25.6</ele>
        <time>2011-03-23T14:45:15Z</time>
      </trkpt>
      <trkpt lat="37.1721847333" lon="-7.60350287038">
        <ele>25.6</ele>
        <time>2011-03-23T14:45:18Z</time>
      </trkpt>
      <trkpt lat="37.1722194344" lon="-7.60347143826">
        <ele>25.6</ele>
        <time>2011-03-23T14:45:21Z</time>
      </trkpt>
      <trkpt lat="37.1722621821" lon="-7.60343908412">
        <ele>25.6</ele>
        <time>2011-03-23T14:45:24Z</time>
      </trkpt>
      <trkpt lat="37.1722981404" lon="-7.60341033421">
        <ele>25.6</ele>
        <time>2011-03-23T14:45:27Z</time>
      </trkpt>
      <trkpt lat="37.1723389603" lon="-7.60337923736">
        <ele>25.6</ele>
        <time>2011-03-23T14:45:30Z</time>
      </trkpt>
      <trkpt lat="37.172371985" lon="-7.60335400784">
        <ele>25.6</ele>
        <time>2011-03-23T14:45:33Z</time>
      </trkpt>
      <trkpt lat="37.1724003158" lon="-7.60333011942">
        <ele>25.6</ele>
        <time>2011-03-23T14:45:35Z</time>
      </trkpt>
      <trkpt lat="37.1724430635" lon="-7.60329600509">
        <ele>25.6</ele>
        <time>2011-03-23T14:45:39Z</time>
      </trkpt>
      <trkpt lat="37.1724809497" lon="-7.60327027266">
        <ele>25.6</ele>
        <time>2011-03-23T14:45:42Z</time>
      </trkpt>
      <trkpt lat="37.1725107892" lon="-7.60324537842">
        <ele>25.6</ele>
        <time>2011-03-23T14:45:45Z</time>
      </trkpt>
      <trkpt lat="37.1725506871" lon="-7.60321335956">
        <ele>25.6</ele>
        <time>2011-03-23T14:45:48Z</time>
      </trkpt>
      <trkpt lat="37.172584969" lon="-7.60318586693">
        <ele>25.6</ele>
        <time>2011-03-23T14:45:51Z</time>
      </trkpt>
      <trkpt lat="37.1726298122" lon="-7.60314982476">
        <ele>25.6</ele>
        <time>2011-03-23T14:45:54Z</time>
      </trkpt>
      <trkpt lat="37.172663256" lon="-7.60312048811">
        <ele>25.6</ele>
        <time>2011-03-23T14:45:57Z</time>
      </trkpt>
      <trkpt lat="37.1727062551" lon="-7.60308595468">
        <ele>25.6</ele>
        <time>2011-03-23T14:46:00Z</time>
      </trkpt>
      <trkpt lat="37.1727412915" lon="-7.6030587135">
        <ele>25.6</ele>
        <time>2011-03-23T14:46:03Z</time>
      </trkpt>
      <trkpt lat="37.1727861346" lon="-7.60302635937">
        <ele>25.6</ele>
        <time>2011-03-23T14:46:06Z</time>
      </trkpt>
      <trkpt lat="37.1728258648" lon="-7.60299593307">
        <ele>25.6</ele>
        <time>2011-03-23T14:46:09Z</time>
      </trkpt>
      <trkpt lat="37.172865176" lon="-7.60296466858">
        <ele>25.6</ele>
        <time>2011-03-23T14:46:12Z</time>
      </trkpt>
      <trkpt lat="37.1729011343" lon="-7.60293985816">
        <ele>25.6</ele>
        <time>2011-03-23T14:46:15Z</time>
      </trkpt>
      <trkpt lat="37.1729502522" lon="-7.6029095995">
        <ele>25.6</ele>
        <time>2011-03-23T14:46:18Z</time>
      </trkpt>
      <trkpt lat="37.1729891443" lon="-7.60288436998">
        <ele>25.6</ele>
        <time>2011-03-23T14:46:21Z</time>
      </trkpt>
      <trkpt lat="37.1730305508" lon="-7.6028628285">
        <ele>25.6</ele>
        <time>2011-03-23T14:46:24Z</time>
      </trkpt>
      <trkpt lat="37.1730665092" lon="-7.60284631616">
        <ele>25.6</ele>
        <time>2011-03-23T14:46:26Z</time>
      </trkpt>
      <trkpt lat="37.1731074129" lon="-7.60282695397">
        <ele>25.6</ele>
        <time>2011-03-23T14:46:29Z</time>
      </trkpt>
      <trkpt lat="37.1731463887" lon="-7.60280734032">
        <ele>25.6</ele>
        <time>2011-03-23T14:46:32Z</time>
      </trkpt>
      <trkpt lat="37.1731867056" lon="-7.60279166617">
        <ele>25.6</ele>
        <time>2011-03-23T14:46:35Z</time>
      </trkpt>
      <trkpt lat="37.1732221611" lon="-7.60277347744">
        <ele>25.6</ele>
        <time>2011-03-23T14:46:38Z</time>
      </trkpt>
      <trkpt lat="37.1732634" lon="-7.60275277415">
        <ele>25.6</ele>
        <time>2011-03-23T14:46:41Z</time>
      </trkpt>
      <trkpt lat="37.173307405" lon="-7.60273542362">
        <ele>26</ele>
        <time>2011-03-23T14:46:44Z</time>
      </trkpt>
      <trkpt lat="37.173352332" lon="-7.60271924655">
        <ele>26.6</ele>
        <time>2011-03-23T14:46:47Z</time>
      </trkpt>
      <trkpt lat="37.1733953311" lon="-7.60270399149">
        <ele>26.8</ele>
        <time>2011-03-23T14:46:50Z</time>
      </trkpt>
      <trkpt lat="37.1734408448" lon="-7.60268689242">
        <ele>27</ele>
        <time>2011-03-23T14:46:53Z</time>
      </trkpt>
      <trkpt lat="37.1734835925" lon="-7.60266744641">
        <ele>27.2</ele>
        <time>2011-03-23T14:46:56Z</time>
      </trkpt>
      <trkpt lat="37.1735273461" lon="-7.60264858714">
        <ele>28</ele>
        <time>2011-03-23T14:46:59Z</time>
      </trkpt>
      <trkpt lat="37.173571351" lon="-7.60263207479">
        <ele>28.4</ele>
        <time>2011-03-23T14:47:02Z</time>
      </trkpt>
      <trkpt lat="37.1736143502" lon="-7.60261153914">
        <ele>28.8</ele>
        <time>2011-03-23T14:47:05Z</time>
      </trkpt>
      <trkpt lat="37.1736558406" lon="-7.60258899183">
        <ele>29</ele>
        <time>2011-03-23T14:47:08Z</time>
      </trkpt>
      <trkpt lat="37.1736923857" lon="-7.60257457496">
        <ele>29.2</ele>
        <time>2011-03-23T14:47:11Z</time>
      </trkpt>
      <trkpt lat="37.1737311939" lon="-7.60255177619">
        <ele>29.6</ele>
        <time>2011-03-23T14:47:14Z</time>
      </trkpt>
      <trkpt lat="37.1737700021" lon="-7.60252763632">
        <ele>30.2</ele>
        <time>2011-03-23T14:47:17Z</time>
      </trkpt>
      <trkpt lat="37.1737958183" lon="-7.60250785503">
        <ele>30.6</ele>
        <time>2011-03-23T14:47:19Z</time>
      </trkpt>
      <trkpt lat="37.1738383145" lon="-7.6024640177">
        <ele>31</ele>
        <time>2011-03-23T14:47:23Z</time>
      </trkpt>
      <trkpt lat="37.1738685732" lon="-7.6024221082">
        <ele>31.2</ele>
        <time>2011-03-23T14:47:26Z</time>
      </trkpt>
      <trkpt lat="37.1738939704" lon="-7.60237508574">
        <ele>31.4</ele>
        <time>2011-03-23T14:47:29Z</time>
      </trkpt>
      <trkpt lat="37.1739103989" lon="-7.60232806328">
        <ele>31.4</ele>
        <time>2011-03-23T14:47:32Z</time>
      </trkpt>
      <trkpt lat="37.173918697" lon="-7.60228003499">
        <ele>31.6</ele>
        <time>2011-03-23T14:47:35Z</time>
      </trkpt>
      <trkpt lat="37.1739291743" lon="-7.6022359462">
        <ele>31.6</ele>
        <time>2011-03-23T14:47:38Z</time>
      </trkpt>
      <trkpt lat="37.1739305993" lon="-7.60217769199">
        <ele>31.6</ele>
        <time>2011-03-23T14:47:41Z</time>
      </trkpt>
      <trkpt lat="37.1739305154" lon="-7.6021185996">
        <ele>31.8</ele>
        <time>2011-03-23T14:47:44Z</time>
      </trkpt>
      <trkpt lat="37.1739331138" lon="-7.60206336288">
        <ele>31.8</ele>
        <time>2011-03-23T14:47:47Z</time>
      </trkpt>
      <trkpt lat="37.1739404899" lon="-7.60200343229">
        <ele>31.8</ele>
        <time>2011-03-23T14:47:50Z</time>
      </trkpt>
      <trkpt lat="37.1739522246" lon="-7.60195012341">
        <ele>31.8</ele>
        <time>2011-03-23T14:47:53Z</time>
      </trkpt>
      <trkpt lat="37.1739672282" lon="-7.60189748508">
        <ele>31.8</ele>
        <time>2011-03-23T14:47:56Z</time>
      </trkpt>
      <trkpt lat="37.1739870095" lon="-7.60185113317">
        <ele>31.8</ele>
        <time>2011-03-23T14:47:59Z</time>
      </trkpt>
      <trkpt lat="37.1740147535" lon="-7.60180553563">
        <ele>31.8</ele>
        <time>2011-03-23T14:48:02Z</time>
      </trkpt>
      <trkpt lat="37.1740451798" lon="-7.6017661407">
        <ele>31.8</ele>
        <time>2011-03-23T14:48:05Z</time>
      </trkpt>
      <trkpt lat="37.1740725048" lon="-7.60173294838">
        <ele>32</ele>
        <time>2011-03-23T14:48:08Z</time>
      </trkpt>
      <trkpt lat="37.1741020091" lon="-7.60170168389">
        <ele>32.6</ele>
        <time>2011-03-23T14:48:11Z</time>
      </trkpt>
      <trkpt lat="37.1741274063" lon="-7.6016690783">
        <ele>32.8</ele>
        <time>2011-03-23T14:48:14Z</time>
      </trkpt>
      <trkpt lat="37.1741596766" lon="-7.60163806527">
        <ele>33.2</ele>
        <time>2011-03-23T14:48:17Z</time>
      </trkpt>
      <trkpt lat="37.1741885941" lon="-7.60161325485">
        <ele>33.4</ele>
        <time>2011-03-23T14:48:20Z</time>
      </trkpt>
      <trkpt lat="37.1742197748" lon="-7.60158777387">
        <ele>33.4</ele>
        <time>2011-03-23T14:48:23Z</time>
      </trkpt>
      <trkpt lat="37.1742532186" lon="-7.60155994596">
        <ele>33.8</ele>
        <time>2011-03-23T14:48:26Z</time>
      </trkpt>
      <trkpt lat="37.1742916915" lon="-7.60152717273">
        <ele>34.4</ele>
        <time>2011-03-23T14:48:29Z</time>
      </trkpt>
      <trkpt lat="37.1743253868" lon="-7.60150102121">
        <ele>34.8</ele>
        <time>2011-03-23T14:48:32Z</time>
      </trkpt>
      <trkpt lat="37.1743589144" lon="-7.60147612696">
        <ele>35</ele>
        <time>2011-03-23T14:48:35Z</time>
      </trkpt>
      <trkpt lat="37.174389173" lon="-7.601451568">
        <ele>35.6</ele>
        <time>2011-03-23T14:48:38Z</time>
      </trkpt>
      <trkpt lat="37.1743952918" lon="-7.60144553303">
        <ele>35.8</ele>
        <time>2011-03-23T14:48:39Z</time>
      </trkpt>
      <trkpt lat="37.1744506123" lon="-7.60141460382">
        <ele>36.6</ele>
        <time>2011-03-23T14:48:43Z</time>
      </trkpt>
      <trkpt lat="37.174461425" lon="-7.60140630574">
        <ele>36.6</ele>
        <time>2011-03-23T14:48:44Z</time>
      </trkpt>
      <trkpt lat="37.1745112135" lon="-7.60136699463">
        <ele>37.4</ele>
        <time>2011-03-23T14:48:48Z</time>
      </trkpt>
      <trkpt lat="37.1745480938" lon="-7.60134092692">
        <ele>38.2</ele>
        <time>2011-03-23T14:48:51Z</time>
      </trkpt>
      <trkpt lat="37.1745830464" lon="-7.60131670323">
        <ele>38.6</ele>
        <time>2011-03-23T14:48:54Z</time>
      </trkpt>
      <trkpt lat="37.1746183342" lon="-7.60128644457">
        <ele>39.2</ele>
        <time>2011-03-23T14:48:57Z</time>
      </trkpt>
      <trkpt lat="37.174653119" lon="-7.60125870048">
        <ele>40</ele>
        <time>2011-03-23T14:49:00Z</time>
      </trkpt>
      <trkpt lat="37.1746894965" lon="-7.60122978292">
        <ele>40.6</ele>
        <time>2011-03-23T14:49:03Z</time>
      </trkpt>
      <trkpt lat="37.1747247005" lon="-7.60119952426">
        <ele>41.2</ele>
        <time>2011-03-23T14:49:06Z</time>
      </trkpt>
      <trkpt lat="37.1747617485" lon="-7.60117035525">
        <ele>42</ele>
        <time>2011-03-23T14:49:09Z</time>
      </trkpt>
      <trkpt lat="37.1747943541" lon="-7.60114303026">
        <ele>42.6</ele>
        <time>2011-03-23T14:49:12Z</time>
      </trkpt>
      <trkpt lat="37.1748285522" lon="-7.60111319069">
        <ele>43.4</ele>
        <time>2011-03-23T14:49:15Z</time>
      </trkpt>
      <trkpt lat="37.174893931" lon="-7.60105619377">
        <ele>44.8</ele>
        <time>2011-03-23T14:49:21Z</time>
      </trkpt>
      <trkpt lat="37.1749276263" lon="-7.60102174416">
        <ele>45.6</ele>
        <time>2011-03-23T14:49:24Z</time>
      </trkpt>
      <trkpt lat="37.1749593937" lon="-7.60098109195">
        <ele>46.4</ele>
        <time>2011-03-23T14:49:27Z</time>
      </trkpt>
      <trkpt lat="37.1749937595" lon="-7.60093658406">
        <ele>47</ele>
        <time>2011-03-23T14:49:30Z</time>
      </trkpt>
      <trkpt lat="37.1750246049" lon="-7.60089341728">
        <ele>47.6</ele>
        <time>2011-03-23T14:49:33Z</time>
      </trkpt>
      <trkpt lat="37.1750547797" lon="-7.60085108868">
        <ele>48.4</ele>
        <time>2011-03-23T14:49:36Z</time>
      </trkpt>
      <trkpt lat="37.1750857089" lon="-7.60080666461">
        <ele>49</ele>
        <time>2011-03-23T14:49:39Z</time>
      </trkpt>
      <trkpt lat="37.1751131177" lon="-7.60076458747">
        <ele>49.4</ele>
        <time>2011-03-23T14:49:42Z</time>
      </trkpt>
      <trkpt lat="37.1751428735" lon="-7.60071756501">
        <ele>49.8</ele>
        <time>2011-03-23T14:49:45Z</time>
      </trkpt>
      <trkpt lat="37.1751797538" lon="-7.60068101993">
        <ele>50.4</ele>
        <time>2011-03-23T14:49:48Z</time>
      </trkpt>
      <trkpt lat="37.1752162151" lon="-7.60065143182">
        <ele>51</ele>
        <time>2011-03-23T14:49:51Z</time>
      </trkpt>
      <trkpt lat="37.1752478149" lon="-7.60061706603">
        <ele>51.4</ele>
        <time>2011-03-23T14:49:54Z</time>
      </trkpt>
      <trkpt lat="37.175282013" lon="-7.60058613682">
        <ele>51.8</ele>
        <time>2011-03-23T14:49:57Z</time>
      </trkpt>
      <trkpt lat="37.175313948" lon="-7.6005595662">
        <ele>52</ele>
        <time>2011-03-23T14:50:00Z</time>
      </trkpt>
      <trkpt lat="37.1753463022" lon="-7.60053333085">
        <ele>52.6</ele>
        <time>2011-03-23T14:50:03Z</time>
      </trkpt>
      <trkpt lat="37.1753836016" lon="-7.60050877188">
        <ele>53.2</ele>
        <time>2011-03-23T14:50:06Z</time>
      </trkpt>
      <trkpt lat="37.1754244215" lon="-7.60048220126">
        <ele>53.6</ele>
        <time>2011-03-23T14:50:09Z</time>
      </trkpt>
      <trkpt lat="37.1754622239" lon="-7.60046141415">
        <ele>53.8</ele>
        <time>2011-03-23T14:50:12Z</time>
      </trkpt>
      <trkpt lat="37.1755042172" lon="-7.60044414744">
        <ele>54</ele>
        <time>2011-03-23T14:50:15Z</time>
      </trkpt>
      <trkpt lat="37.1755435283" lon="-7.60042981439">
        <ele>54.2</ele>
        <time>2011-03-23T14:50:18Z</time>
      </trkpt>
      <trkpt lat="37.1755858569" lon="-7.6004170739">
        <ele>54.4</ele>
        <time>2011-03-23T14:50:21Z</time>
      </trkpt>
      <trkpt lat="37.1756307" lon="-7.60041229622">
        <ele>55</ele>
        <time>2011-03-23T14:50:24Z</time>
      </trkpt>
      <trkpt lat="37.1756673289" lon="-7.60040802145">
        <ele>55.6</ele>
        <time>2011-03-23T14:50:27Z</time>
      </trkpt>
      <trkpt lat="37.1757210569" lon="-7.60040860818">
        <ele>56</ele>
        <time>2011-03-23T14:50:31Z</time>
      </trkpt>
      <trkpt lat="37.1757656486" lon="-7.60040575833">
        <ele>56.4</ele>
        <time>2011-03-23T14:50:34Z</time>
      </trkpt>
      <trkpt lat="37.1758120844" lon="-7.60040542306">
        <ele>57.2</ele>
        <time>2011-03-23T14:50:37Z</time>
      </trkpt>
      <trkpt lat="37.1758568437" lon="-7.60041078747">
        <ele>57.6</ele>
        <time>2011-03-23T14:50:40Z</time>
      </trkpt>
      <trkpt lat="37.1758959872" lon="-7.60042109721">
        <ele>58</ele>
        <time>2011-03-23T14:50:43Z</time>
      </trkpt>
      <trkpt lat="37.1759212167" lon="-7.60043174222">
        <ele>58.2</ele>
        <time>2011-03-23T14:50:45Z</time>
      </trkpt>
      <trkpt lat="37.1759850868" lon="-7.60044498563">
        <ele>59.2</ele>
        <time>2011-03-23T14:50:49Z</time>
      </trkpt>
      <trkpt lat="37.1760100648" lon="-7.60045638501">
        <ele>59.6</ele>
        <time>2011-03-23T14:50:51Z</time>
      </trkpt>
      <trkpt lat="37.1760601886" lon="-7.60047943523">
        <ele>60</ele>
        <time>2011-03-23T14:50:55Z</time>
      </trkpt>
      <trkpt lat="37.1760932971" lon="-7.60049276246">
        <ele>60.2</ele>
        <time>2011-03-23T14:50:57Z</time>
      </trkpt>
      <trkpt lat="37.1761435885" lon="-7.60052218292">
        <ele>61</ele>
        <time>2011-03-23T14:51:01Z</time>
      </trkpt>
      <trkpt lat="37.1761913653" lon="-7.60054271858">
        <ele>61.6</ele>
        <time>2011-03-23T14:51:04Z</time>
      </trkpt>
      <trkpt lat="37.176217936" lon="-7.60055537525">
        <ele>61.8</ele>
        <time>2011-03-23T14:51:06Z</time>
      </trkpt>
      <trkpt lat="37.1766878253" lon="-7.60067238657">
        <ele>66.2</ele>
        <time>2011-03-23T14:51:33Z</time>
      </trkpt>
      <trkpt lat="37.1766970454" lon="-7.60069401187">
        <ele>66.6</ele>
        <time>2011-03-23T14:51:34Z</time>
      </trkpt>
      <trkpt lat="37.1767252085" lon="-7.60071387698">
        <ele>67.2</ele>
        <time>2011-03-23T14:51:37Z</time>
      </trkpt>
      <trkpt lat="37.1767754999" lon="-7.60072209124">
        <ele>67.8</ele>
        <time>2011-03-23T14:51:41Z</time>
      </trkpt>
      <trkpt lat="37.1768081894" lon="-7.60072049868">
        <ele>68.2</ele>
        <time>2011-03-23T14:51:44Z</time>
      </trkpt>
      <trkpt lat="37.1768422199" lon="-7.60071362552">
        <ele>68.4</ele>
        <time>2011-03-23T14:51:47Z</time>
      </trkpt>
      <trkpt lat="37.17687734" lon="-7.60070088503">
        <ele>68.6</ele>
        <time>2011-03-23T14:51:50Z</time>
      </trkpt>
      <trkpt lat="37.1769119573" lon="-7.6006888151">
        <ele>68.8</ele>
        <time>2011-03-23T14:51:53Z</time>
      </trkpt>
      <trkpt lat="37.1769454849" lon="-7.60066165774">
        <ele>69.2</ele>
        <time>2011-03-23T14:51:56Z</time>
      </trkpt>
      <trkpt lat="37.1769698762" lon="-7.60063030943">
        <ele>69.8</ele>
        <time>2011-03-23T14:51:59Z</time>
      </trkpt>
      <trkpt lat="37.177006086" lon="-7.60059418345">
        <ele>70.2</ele>
        <time>2011-03-23T14:52:03Z</time>
      </trkpt>
      <trkpt lat="37.1770344168" lon="-7.60055864419">
        <ele>70.6</ele>
        <time>2011-03-23T14:52:06Z</time>
      </trkpt>
      <trkpt lat="37.1770592273" lon="-7.60052670915">
        <ele>70.6</ele>
        <time>2011-03-23T14:52:09Z</time>
      </trkpt>
      <trkpt lat="37.1770884801" lon="-7.60049225954">
        <ele>70.8</ele>
        <time>2011-03-23T14:52:12Z</time>
      </trkpt>
      <trkpt lat="37.1771206666" lon="-7.60045496009">
        <ele>71</ele>
        <time>2011-03-23T14:52:15Z</time>
      </trkpt>
      <trkpt lat="37.1771544456" lon="-7.60041405641">
        <ele>71.2</ele>
        <time>2011-03-23T14:52:19Z</time>
      </trkpt>
      <trkpt lat="37.1771812677" lon="-7.6003835463">
        <ele>71.8</ele>
        <time>2011-03-23T14:52:22Z</time>
      </trkpt>
      <trkpt lat="37.1771888114" lon="-7.60037290129">
        <ele>71.8</ele>
        <time>2011-03-23T14:52:23Z</time>
      </trkpt>
      <trkpt lat="37.1772251889" lon="-7.60032705229">
        <ele>72.4</ele>
        <time>2011-03-23T14:52:27Z</time>
      </trkpt>
      <trkpt lat="37.1772521786" lon="-7.60029830238">
        <ele>72.6</ele>
        <time>2011-03-23T14:52:30Z</time>
      </trkpt>
      <trkpt lat="37.1772800903" lon="-7.60026636734">
        <ele>72.8</ele>
        <time>2011-03-23T14:52:33Z</time>
      </trkpt>
      <trkpt lat="37.177308505" lon="-7.60023292356">
        <ele>73.2</ele>
        <time>2011-03-23T14:52:36Z</time>
      </trkpt>
      <trkpt lat="37.1773362491" lon="-7.60019587556">
        <ele>73.8</ele>
        <time>2011-03-23T14:52:39Z</time>
      </trkpt>
      <trkpt lat="37.1773650828" lon="-7.60016067158">
        <ele>74.2</ele>
        <time>2011-03-23T14:52:42Z</time>
      </trkpt>
      <trkpt lat="37.1773912343" lon="-7.60012907181">
        <ele>74.4</ele>
        <time>2011-03-23T14:52:45Z</time>
      </trkpt>
      <trkpt lat="37.1774188108" lon="-7.60009529276">
        <ele>74.6</ele>
        <time>2011-03-23T14:52:48Z</time>
      </trkpt>
      <trkpt lat="37.1774452138" lon="-7.60006059169">
        <ele>75.2</ele>
        <time>2011-03-23T14:52:51Z</time>
      </trkpt>
      <trkpt lat="37.1774723711" lon="-7.60002379515">
        <ele>75.8</ele>
        <time>2011-03-23T14:52:54Z</time>
      </trkpt>
      <trkpt lat="37.1775002828" lon="-7.59999110574">
        <ele>76.2</ele>
        <time>2011-03-23T14:52:57Z</time>
      </trkpt>
      <trkpt lat="37.177530793" lon="-7.59995665613">
        <ele>76.4</ele>
        <time>2011-03-23T14:53:00Z</time>
      </trkpt>
      <trkpt lat="37.1775404321" lon="-7.59994668167">
        <ele>76.6</ele>
        <time>2011-03-23T14:53:01Z</time>
      </trkpt>
      <trkpt lat="37.1775709423" lon="-7.59991893758">
        <ele>76.8</ele>
        <time>2011-03-23T14:53:04Z</time>
      </trkpt>
      <trkpt lat="37.1775799947" lon="-7.59990971749">
        <ele>76.8</ele>
        <time>2011-03-23T14:53:05Z</time>
      </trkpt>
      <trkpt lat="37.177598854" lon="-7.59989320515">
        <ele>76.8</ele>
        <time>2011-03-23T14:53:07Z</time>
      </trkpt>
      <trkpt lat="37.1776279392" lon="-7.59983989626">
        <ele>77</ele>
        <time>2011-03-23T14:53:12Z</time>
      </trkpt>
      <trkpt lat="37.1776507379" lon="-7.59980326736">
        <ele>77.2</ele>
        <time>2011-03-23T14:53:15Z</time>
      </trkpt>
      <trkpt lat="37.1776555994" lon="-7.59979186798">
        <ele>77.2</ele>
        <time>2011-03-23T14:53:16Z</time>
      </trkpt>
      <trkpt lat="37.1776814157" lon="-7.59974727627">
        <ele>77.2</ele>
        <time>2011-03-23T14:53:19Z</time>
      </trkpt>
      <trkpt lat="37.1776962517" lon="-7.59972850081">
        <ele>77.2</ele>
        <time>2011-03-23T14:53:20Z</time>
      </trkpt>
      <trkpt lat="37.1777371553" lon="-7.5996746052">
        <ele>77.2</ele>
        <time>2011-03-23T14:53:23Z</time>
      </trkpt>
      <trkpt lat="37.1777745386" lon="-7.59963085168">
        <ele>77.2</ele>
        <time>2011-03-23T14:53:25Z</time>
      </trkpt>
      <trkpt lat="37.1778183759" lon="-7.59957276511">
        <ele>77.2</ele>
        <time>2011-03-23T14:53:28Z</time>
      </trkpt>
      <trkpt lat="37.1778574356" lon="-7.5995153491">
        <ele>77.2</ele>
        <time>2011-03-23T14:53:31Z</time>
      </trkpt>
      <trkpt lat="37.1778946512" lon="-7.59946841046">
        <ele>77.2</ele>
        <time>2011-03-23T14:53:33Z</time>
      </trkpt>
      <trkpt lat="37.1779418413" lon="-7.59940822841">
        <ele>77.2</ele>
        <time>2011-03-23T14:53:36Z</time>
      </trkpt>
      <trkpt lat="37.1779912107" lon="-7.59934846547">
        <ele>77.2</ele>
        <time>2011-03-23T14:53:39Z</time>
      </trkpt>
      <trkpt lat="37.1780400772" lon="-7.59929054654">
        <ele>77.4</ele>
        <time>2011-03-23T14:53:42Z</time>
      </trkpt>
      <trkpt lat="37.1780845013" lon="-7.59923002922">
        <ele>78</ele>
        <time>2011-03-23T14:53:45Z</time>
      </trkpt>
      <trkpt lat="37.1781250697" lon="-7.59917546305">
        <ele>78.4</ele>
        <time>2011-03-23T14:53:48Z</time>
      </trkpt>
      <trkpt lat="37.178173098" lon="-7.59911452664">
        <ele>78.6</ele>
        <time>2011-03-23T14:53:51Z</time>
      </trkpt>
      <trkpt lat="37.1782197013" lon="-7.59905828409">
        <ele>78.8</ele>
        <time>2011-03-23T14:53:54Z</time>
      </trkpt>
      <trkpt lat="37.1782660532" lon="-7.59899910788">
        <ele>79</ele>
        <time>2011-03-23T14:53:57Z</time>
      </trkpt>
      <trkpt lat="37.1783156741" lon="-7.59894227859">
        <ele>79</ele>
        <time>2011-03-23T14:54:00Z</time>
      </trkpt>
      <trkpt lat="37.1783521353" lon="-7.59889978236">
        <ele>79</ele>
        <time>2011-03-23T14:54:02Z</time>
      </trkpt>
      <trkpt lat="37.1783978167" lon="-7.59884362363">
        <ele>79.6</ele>
        <time>2011-03-23T14:54:05Z</time>
      </trkpt>
      <trkpt lat="37.1784480243" lon="-7.59878729726">
        <ele>80.2</ele>
        <time>2011-03-23T14:54:08Z</time>
      </trkpt>
      <trkpt lat="37.1784911072" lon="-7.59872560648">
        <ele>80.4</ele>
        <time>2011-03-23T14:54:11Z</time>
      </trkpt>
      <trkpt lat="37.1785362019" lon="-7.59866726845">
        <ele>80.6</ele>
        <time>2011-03-23T14:54:14Z</time>
      </trkpt>
      <trkpt lat="37.1785850683" lon="-7.59860608058">
        <ele>80.8</ele>
        <time>2011-03-23T14:54:17Z</time>
      </trkpt>
      <trkpt lat="37.1786279837" lon="-7.59854698819">
        <ele>81</ele>
        <time>2011-03-23T14:54:20Z</time>
      </trkpt>
      <trkpt lat="37.1787004033" lon="-7.59844531574">
        <ele>82</ele>
        <time>2011-03-23T14:54:25Z</time>
      </trkpt>
      <trkpt lat="37.1787403849" lon="-7.59838479842">
        <ele>82.4</ele>
        <time>2011-03-23T14:54:28Z</time>
      </trkpt>
      <trkpt lat="37.1787807857" lon="-7.59832813678">
        <ele>82.6</ele>
        <time>2011-03-23T14:54:31Z</time>
      </trkpt>
      <trkpt lat="37.1788068534" lon="-7.59828815512">
        <ele>82.8</ele>
        <time>2011-03-23T14:54:33Z</time>
      </trkpt>
      <trkpt lat="37.1788466674" lon="-7.59823392422">
        <ele>83</ele>
        <time>2011-03-23T14:54:36Z</time>
      </trkpt>
      <trkpt lat="37.178891343" lon="-7.59817810077">
        <ele>83.2</ele>
        <time>2011-03-23T14:54:39Z</time>
      </trkpt>
      <trkpt lat="37.1789404609" lon="-7.59812160676">
        <ele>83.8</ele>
        <time>2011-03-23T14:54:42Z</time>
      </trkpt>
      <trkpt lat="37.1789932669" lon="-7.59806745969">
        <ele>84.4</ele>
        <time>2011-03-23T14:54:45Z</time>
      </trkpt>
      <trkpt lat="37.1790416304" lon="-7.59801029513">
        <ele>84.6</ele>
        <time>2011-03-23T14:54:48Z</time>
      </trkpt>
      <trkpt lat="37.1790958613" lon="-7.59796042283">
        <ele>84.8</ele>
        <time>2011-03-23T14:54:51Z</time>
      </trkpt>
      <trkpt lat="37.1791310653" lon="-7.59792832015">
        <ele>85</ele>
        <time>2011-03-23T14:54:53Z</time>
      </trkpt>
      <trkpt lat="37.1791847095" lon="-7.59788523718">
        <ele>85</ele>
        <time>2011-03-23T14:54:56Z</time>
      </trkpt>
      <trkpt lat="37.1792390242" lon="-7.59784408206">
        <ele>85.2</ele>
        <time>2011-03-23T14:54:59Z</time>
      </trkpt>
      <trkpt lat="37.1792889803" lon="-7.59780703406">
        <ele>85.2</ele>
        <time>2011-03-23T14:55:02Z</time>
      </trkpt>
      <trkpt lat="37.1793476536" lon="-7.59777157862">
        <ele>85.4</ele>
        <time>2011-03-23T14:55:05Z</time>
      </trkpt>
      <trkpt lat="37.1794049858" lon="-7.59774073323">
        <ele>85.4</ele>
        <time>2011-03-23T14:55:08Z</time>
      </trkpt>
      <trkpt lat="37.1794619827" lon="-7.59770854673">
        <ele>85.4</ele>
        <time>2011-03-23T14:55:11Z</time>
      </trkpt>
      <trkpt lat="37.1795225" lon="-7.59767535441">
        <ele>85.4</ele>
        <time>2011-03-23T14:55:14Z</time>
      </trkpt>
      <trkpt lat="37.1795840232" lon="-7.59765171745">
        <ele>85.4</ele>
        <time>2011-03-23T14:55:17Z</time>
      </trkpt>
      <trkpt lat="37.1796473903" lon="-7.5976276614">
        <ele>85.4</ele>
        <time>2011-03-23T14:55:20Z</time>
      </trkpt>
      <trkpt lat="37.1796648247" lon="-7.59762263226">
        <ele>85.4</ele>
        <time>2011-03-23T14:55:21Z</time>
      </trkpt>
      <trkpt lat="37.1797391721" lon="-7.5975857519">
        <ele>85.4</ele>
        <time>2011-03-23T14:55:25Z</time>
      </trkpt>
      <trkpt lat="37.1797936545" lon="-7.59755892982">
        <ele>85.4</ele>
        <time>2011-03-23T14:55:28Z</time>
      </trkpt>
      <trkpt lat="37.1798451194" lon="-7.59752573749">
        <ele>85.4</ele>
        <time>2011-03-23T14:55:31Z</time>
      </trkpt>
      <trkpt lat="37.1799028707" lon="-7.59749598175">
        <ele>85.4</ele>
        <time>2011-03-23T14:55:34Z</time>
      </trkpt>
      <trkpt lat="37.1799613763" lon="-7.59746245415">
        <ele>85.4</ele>
        <time>2011-03-23T14:55:37Z</time>
      </trkpt>
      <trkpt lat="37.1800143499" lon="-7.59742456796">
        <ele>85.4</ele>
        <time>2011-03-23T14:55:40Z</time>
      </trkpt>
      <trkpt lat="37.1800692514" lon="-7.59738492157">
        <ele>85.4</ele>
        <time>2011-03-23T14:55:43Z</time>
      </trkpt>
      <trkpt lat="37.1801244881" lon="-7.59734804121">
        <ele>85.4</ele>
        <time>2011-03-23T14:55:46Z</time>
      </trkpt>
      <trkpt lat="37.1801621228" lon="-7.59731719582">
        <ele>85.4</ele>
        <time>2011-03-23T14:55:48Z</time>
      </trkpt>
      <trkpt lat="37.1802070498" lon="-7.59727126301">
        <ele>85.4</ele>
        <time>2011-03-23T14:55:51Z</time>
      </trkpt>
      <trkpt lat="37.1802567545" lon="-7.59722901823">
        <ele>85.4</ele>
        <time>2011-03-23T14:55:54Z</time>
      </trkpt>
      <trkpt lat="37.180308387" lon="-7.59717981648">
        <ele>85.4</ele>
        <time>2011-03-23T14:55:57Z</time>
      </trkpt>
      <trkpt lat="37.1803558285" lon="-7.59713019563">
        <ele>85.4</ele>
        <time>2011-03-23T14:56:00Z</time>
      </trkpt>
      <trkpt lat="37.1804005879" lon="-7.59707914986">
        <ele>85.4</ele>
        <time>2011-03-23T14:56:03Z</time>
      </trkpt>
      <trkpt lat="37.1804478618" lon="-7.59702156621">
        <ele>85.4</ele>
        <time>2011-03-23T14:56:06Z</time>
      </trkpt>
      <trkpt lat="37.1804924535" lon="-7.59696255763">
        <ele>85.4</ele>
        <time>2011-03-23T14:56:09Z</time>
      </trkpt>
      <trkpt lat="37.180538973" lon="-7.59691067367">
        <ele>85.4</ele>
        <time>2011-03-23T14:56:12Z</time>
      </trkpt>
      <trkpt lat="37.1805905217" lon="-7.59685417967">
        <ele>85.4</ele>
        <time>2011-03-23T14:56:15Z</time>
      </trkpt>
      <trkpt lat="37.1806380471" lon="-7.59680154133">
        <ele>85.4</ele>
        <time>2011-03-23T14:56:18Z</time>
      </trkpt>
      <trkpt lat="37.1806836446" lon="-7.59674865154">
        <ele>85.4</ele>
        <time>2011-03-23T14:56:21Z</time>
      </trkpt>
      <trkpt lat="37.1807199383" lon="-7.59670028798">
        <ele>85.4</ele>
        <time>2011-03-23T14:56:24Z</time>
      </trkpt>
      <trkpt lat="37.1807725766" lon="-7.59664798493">
        <ele>85.4</ele>
        <time>2011-03-23T14:56:27Z</time>
      </trkpt>
      <trkpt lat="37.18082379" lon="-7.59659936991">
        <ele>85.4</ele>
        <time>2011-03-23T14:56:30Z</time>
      </trkpt>
      <trkpt lat="37.1808352732" lon="-7.59657916953">
        <ele>85.4</ele>
        <time>2011-03-23T14:56:31Z</time>
      </trkpt>
      <trkpt lat="37.1808790267" lon="-7.59653021923">
        <ele>85.4</ele>
        <time>2011-03-23T14:56:34Z</time>
      </trkpt>
      <trkpt lat="37.1809308269" lon="-7.59648713626">
        <ele>85.4</ele>
        <time>2011-03-23T14:56:37Z</time>
      </trkpt>
      <trkpt lat="37.1809814535" lon="-7.59643818597">
        <ele>85.4</ele>
        <time>2011-03-23T14:56:40Z</time>
      </trkpt>
      <trkpt lat="37.1810301524" lon="-7.59639283989">
        <ele>85.4</ele>
        <time>2011-03-23T14:56:43Z</time>
      </trkpt>
      <trkpt lat="37.1810649373" lon="-7.59636015048">
        <ele>85.4</ele>
        <time>2011-03-23T14:56:45Z</time>
      </trkpt>
      <trkpt lat="37.1811185814" lon="-7.59631421767">
        <ele>85.4</ele>
        <time>2011-03-23T14:56:48Z</time>
      </trkpt>
      <trkpt lat="37.1811701301" lon="-7.59627180525">
        <ele>85.4</ele>
        <time>2011-03-23T14:56:51Z</time>
      </trkpt>
      <trkpt lat="37.181216482" lon="-7.59622637536">
        <ele>85.4</ele>
        <time>2011-03-23T14:56:54Z</time>
      </trkpt>
      <trkpt lat="37.1812530271" lon="-7.59619586524">
        <ele>85.4</ele>
        <time>2011-03-23T14:56:56Z</time>
      </trkpt>
      <trkpt lat="37.181290578" lon="-7.59616686387">
        <ele>85.4</ele>
        <time>2011-03-23T14:56:58Z</time>
      </trkpt>
      <trkpt lat="37.1813418752" lon="-7.59612579256">
        <ele>85.4</ele>
        <time>2011-03-23T14:57:01Z</time>
      </trkpt>
      <trkpt lat="37.1813888139" lon="-7.5960814523">
        <ele>85.4</ele>
        <time>2011-03-23T14:57:04Z</time>
      </trkpt>
      <trkpt lat="37.1814373451" lon="-7.59604197356">
        <ele>85.4</ele>
        <time>2011-03-23T14:57:07Z</time>
      </trkpt>
      <trkpt lat="37.1814872174" lon="-7.59600710485">
        <ele>85.4</ele>
        <time>2011-03-23T14:57:10Z</time>
      </trkpt>
      <trkpt lat="37.1815409454" lon="-7.59596770992">
        <ele>85.4</ele>
        <time>2011-03-23T14:57:13Z</time>
      </trkpt>
      <trkpt lat="37.1815973556" lon="-7.5959305781">
        <ele>85.4</ele>
        <time>2011-03-23T14:57:16Z</time>
      </trkpt>
      <trkpt lat="37.1816541848" lon="-7.59589604468">
        <ele>85.4</ele>
        <time>2011-03-23T14:57:19Z</time>
      </trkpt>
      <trkpt lat="37.1816946694" lon="-7.59587156953">
        <ele>85.4</ele>
        <time>2011-03-23T14:57:21Z</time>
      </trkpt>
      <trkpt lat="37.1817383391" lon="-7.59585480573">
        <ele>85.8</ele>
        <time>2011-03-23T14:57:23Z</time>
      </trkpt>
      <trkpt lat="37.181800449" lon="-7.59582521762">
        <ele>86.2</ele>
        <time>2011-03-23T14:57:26Z</time>
      </trkpt>
      <trkpt lat="37.1818592061" lon="-7.59579571333">
        <ele>86.4</ele>
        <time>2011-03-23T14:57:29Z</time>
      </trkpt>
      <trkpt lat="37.1819195558" lon="-7.59576117991">
        <ele>86.8</ele>
        <time>2011-03-23T14:57:32Z</time>
      </trkpt>
      <trkpt lat="37.1819641475" lon="-7.59573276526">
        <ele>86.8</ele>
        <time>2011-03-23T14:57:34Z</time>
      </trkpt>
      <trkpt lat="37.1820080687" lon="-7.59570502118">
        <ele>87</ele>
        <time>2011-03-23T14:57:36Z</time>
      </trkpt>
      <trkpt lat="37.182047715" lon="-7.59567308614">
        <ele>87</ele>
        <time>2011-03-23T14:57:38Z</time>
      </trkpt>
      <trkpt lat="37.1820872776" lon="-7.59563754688">
        <ele>87.2</ele>
        <time>2011-03-23T14:57:40Z</time>
      </trkpt>
      <trkpt lat="37.1821239903" lon="-7.59559697848">
        <ele>87.2</ele>
        <time>2011-03-23T14:57:42Z</time>
      </trkpt>
      <trkpt lat="37.1821774669" lon="-7.59553813755">
        <ele>87.2</ele>
        <time>2011-03-23T14:57:45Z</time>
      </trkpt>
      <trkpt lat="37.1822291832" lon="-7.5954814759">
        <ele>87.4</ele>
        <time>2011-03-23T14:57:48Z</time>
      </trkpt>
      <trkpt lat="37.1822840846" lon="-7.59542087477">
        <ele>87.4</ele>
        <time>2011-03-23T14:57:51Z</time>
      </trkpt>
      <trkpt lat="37.1823249045" lon="-7.59538432968">
        <ele>87.4</ele>
        <time>2011-03-23T14:57:53Z</time>
      </trkpt>
      <trkpt lat="37.1823660596" lon="-7.59534820369">
        <ele>87.2</ele>
        <time>2011-03-23T14:57:55Z</time>
      </trkpt>
      <trkpt lat="37.1824067118" lon="-7.59531014987">
        <ele>86.8</ele>
        <time>2011-03-23T14:57:57Z</time>
      </trkpt>
      <trkpt lat="37.1824437598" lon="-7.59526949765">
        <ele>86.6</ele>
        <time>2011-03-23T14:57:59Z</time>
      </trkpt>
      <trkpt lat="37.1824936321" lon="-7.59520847742">
        <ele>86.2</ele>
        <time>2011-03-23T14:58:02Z</time>
      </trkpt>
      <trkpt lat="37.1825449294" lon="-7.59515089377">
        <ele>86</ele>
        <time>2011-03-23T14:58:05Z</time>
      </trkpt>
      <trkpt lat="37.1825860007" lon="-7.59509180137">
        <ele>85.8</ele>
        <time>2011-03-23T14:58:08Z</time>
      </trkpt>
      <trkpt lat="37.1826201988" lon="-7.59502684165">
        <ele>85.8</ele>
        <time>2011-03-23T14:58:11Z</time>
      </trkpt>
      <trkpt lat="37.1826507927" lon="-7.59495660132">
        <ele>85.6</ele>
        <time>2011-03-23T14:58:14Z</time>
      </trkpt>
      <trkpt lat="37.1826737592" lon="-7.59490413063">
        <ele>85.6</ele>
        <time>2011-03-23T14:58:16Z</time>
      </trkpt>
      <trkpt lat="37.1826901877" lon="-7.59483732689">
        <ele>85.6</ele>
        <time>2011-03-23T14:58:19Z</time>
      </trkpt>
      <trkpt lat="37.1827141599" lon="-7.59476364999">
        <ele>85.4</ele>
        <time>2011-03-23T14:58:22Z</time>
      </trkpt>
      <trkpt lat="37.1827248887" lon="-7.59471528642">
        <ele>85.4</ele>
        <time>2011-03-23T14:58:24Z</time>
      </trkpt>
      <trkpt lat="37.182743748" lon="-7.59461881075">
        <ele>85.4</ele>
        <time>2011-03-23T14:58:28Z</time>
      </trkpt>
      <trkpt lat="37.1827592545" lon="-7.59454890571">
        <ele>85.4</ele>
        <time>2011-03-23T14:58:31Z</time>
      </trkpt>
      <trkpt lat="37.1827658762" lon="-7.59452350855">
        <ele>85.4</ele>
        <time>2011-03-23T14:58:33Z</time>
      </trkpt>
      <trkpt lat="37.1827742581" lon="-7.59446198541">
        <ele>85.4</ele>
        <time>2011-03-23T14:58:37Z</time>
      </trkpt>
      <trkpt lat="37.1827859928" lon="-7.59441764515">
        <ele>85.4</ele>
        <time>2011-03-23T14:58:40Z</time>
      </trkpt>
      <trkpt lat="37.1827959673" lon="-7.59437079033">
        <ele>85.4</ele>
        <time>2011-03-23T14:58:43Z</time>
      </trkpt>
      <trkpt lat="37.1828014993" lon="-7.59432745591">
        <ele>85.4</ele>
        <time>2011-03-23T14:58:46Z</time>
      </trkpt>
      <trkpt lat="37.1828041815" lon="-7.59431085975">
        <ele>85.4</ele>
        <time>2011-03-23T14:58:47Z</time>
      </trkpt>
      <trkpt lat="37.182816" lon="-7.5942458162">
        <ele>85.4</ele>
        <time>2011-03-23T14:58:51Z</time>
      </trkpt>
      <trkpt lat="37.1828280699" lon="-7.59420499635">
        <ele>85.4</ele>
        <time>2011-03-23T14:58:54Z</time>
      </trkpt>
      <trkpt lat="37.1828394693" lon="-7.59416308685">
        <ele>85.4</ele>
        <time>2011-03-23T14:58:57Z</time>
      </trkpt>
      <trkpt lat="37.1828498629" lon="-7.59413039744">
        <ele>85.4</ele>
        <time>2011-03-23T14:58:59Z</time>
      </trkpt>
      <trkpt lat="37.1828733322" lon="-7.5940785973">
        <ele>85.4</ele>
        <time>2011-03-23T14:59:03Z</time>
      </trkpt>
      <trkpt lat="37.1828971368" lon="-7.59403266449">
        <ele>85.4</ele>
        <time>2011-03-23T14:59:07Z</time>
      </trkpt>
      <trkpt lat="37.1829144035" lon="-7.59399310192">
        <ele>85.4</ele>
        <time>2011-03-23T14:59:10Z</time>
      </trkpt>
      <trkpt lat="37.1829318379" lon="-7.59395362317">
        <ele>85.4</ele>
        <time>2011-03-23T14:59:13Z</time>
      </trkpt>
      <trkpt lat="37.1829531279" lon="-7.59391523407">
        <ele>85.4</ele>
        <time>2011-03-23T14:59:16Z</time>
      </trkpt>
      <trkpt lat="37.1829677962" lon="-7.59389318967">
        <ele>85.4</ele>
        <time>2011-03-23T14:59:18Z</time>
      </trkpt>
      <trkpt lat="37.1830036707" lon="-7.59385195072">
        <ele>85.4</ele>
        <time>2011-03-23T14:59:22Z</time>
      </trkpt>
      <trkpt lat="37.1830122203" lon="-7.59384340119">
        <ele>85.4</ele>
        <time>2011-03-23T14:59:23Z</time>
      </trkpt>
      <trkpt lat="37.1830454126" lon="-7.59380517972">
        <ele>85.4</ele>
        <time>2011-03-23T14:59:27Z</time>
      </trkpt>
      <trkpt lat="37.1830552194" lon="-7.59379830656">
        <ele>85.4</ele>
        <time>2011-03-23T14:59:28Z</time>
      </trkpt>
      <trkpt lat="37.1830934409" lon="-7.59375622943">
        <ele>85.4</ele>
        <time>2011-03-23T14:59:32Z</time>
      </trkpt>
      <trkpt lat="37.1831257112" lon="-7.5937296588">
        <ele>85.4</ele>
        <time>2011-03-23T14:59:35Z</time>
      </trkpt>
      <trkpt lat="37.1831516113" lon="-7.5936961312">
        <ele>85.4</ele>
        <time>2011-03-23T14:59:38Z</time>
      </trkpt>
      <trkpt lat="37.1831788524" lon="-7.59366268742">
        <ele>85.4</ele>
        <time>2011-03-23T14:59:41Z</time>
      </trkpt>
      <trkpt lat="37.1832084406" lon="-7.59362371159">
        <ele>85.4</ele>
        <time>2011-03-23T14:59:44Z</time>
      </trkpt>
      <trkpt lat="37.183234173" lon="-7.59358456811">
        <ele>85.4</ele>
        <time>2011-03-23T14:59:47Z</time>
      </trkpt>
      <trkpt lat="37.1832611627" lon="-7.59353938967">
        <ele>85.4</ele>
        <time>2011-03-23T14:59:50Z</time>
      </trkpt>
      <trkpt lat="37.1832892421" lon="-7.59349295395">
        <ele>85.4</ele>
        <time>2011-03-23T14:59:53Z</time>
      </trkpt>
      <trkpt lat="37.1833077661" lon="-7.59344660204">
        <ele>85.4</ele>
        <time>2011-03-23T14:59:56Z</time>
      </trkpt>
      <trkpt lat="37.1833187464" lon="-7.59341399645">
        <ele>85.4</ele>
        <time>2011-03-23T14:59:58Z</time>
      </trkpt>
      <trkpt lat="37.1833495079" lon="-7.59334249884">
        <ele>85.4</ele>
        <time>2011-03-23T15:00:02Z</time>
      </trkpt>
      <trkpt lat="37.1833534474" lon="-7.59332028681">
        <ele>85.4</ele>
        <time>2011-03-23T15:00:03Z</time>
      </trkpt>
      <trkpt lat="37.1833696245" lon="-7.59324308951">
        <ele>85.4</ele>
        <time>2011-03-23T15:00:06Z</time>
      </trkpt>
      <trkpt lat="37.1833818621" lon="-7.59316890969">
        <ele>85.4</ele>
        <time>2011-03-23T15:00:09Z</time>
      </trkpt>
      <trkpt lat="37.183396698" lon="-7.59310009429">
        <ele>86</ele>
        <time>2011-03-23T15:00:12Z</time>
      </trkpt>
      <trkpt lat="37.1834207541" lon="-7.59302566302">
        <ele>86.4</ele>
        <time>2011-03-23T15:00:15Z</time>
      </trkpt>
      <trkpt lat="37.1834359253" lon="-7.59294821427">
        <ele>86.6</ele>
        <time>2011-03-23T15:00:18Z</time>
      </trkpt>
      <trkpt lat="37.1834503422" lon="-7.59289247463">
        <ele>86.8</ele>
        <time>2011-03-23T15:00:20Z</time>
      </trkpt>
      <trkpt lat="37.1834781701" lon="-7.59281318186">
        <ele>87</ele>
        <time>2011-03-23T15:00:23Z</time>
      </trkpt>
      <trkpt lat="37.1834994601" lon="-7.59273833149">
        <ele>87</ele>
        <time>2011-03-23T15:00:26Z</time>
      </trkpt>
      <trkpt lat="37.1835195767" lon="-7.59268728572">
        <ele>87</ele>
        <time>2011-03-23T15:00:28Z</time>
      </trkpt>
      <trkpt lat="37.1835515955" lon="-7.5926152852">
        <ele>87.2</ele>
        <time>2011-03-23T15:00:31Z</time>
      </trkpt>
      <trkpt lat="37.1835751487" lon="-7.59256390415">
        <ele>87.2</ele>
        <time>2011-03-23T15:00:33Z</time>
      </trkpt>
      <trkpt lat="37.1836158009" lon="-7.59246625502">
        <ele>87.2</ele>
        <time>2011-03-23T15:00:37Z</time>
      </trkpt>
      <trkpt lat="37.1836459757" lon="-7.592390315">
        <ele>87.2</ele>
        <time>2011-03-23T15:00:40Z</time>
      </trkpt>
      <trkpt lat="37.1836671819" lon="-7.59233574883">
        <ele>87.4</ele>
        <time>2011-03-23T15:00:42Z</time>
      </trkpt>
      <trkpt lat="37.1836928306" lon="-7.59227975774">
        <ele>87.4</ele>
        <time>2011-03-23T15:00:44Z</time>
      </trkpt>
      <trkpt lat="37.1837151264" lon="-7.59222343137">
        <ele>87.4</ele>
        <time>2011-03-23T15:00:46Z</time>
      </trkpt>
      <trkpt lat="37.1837344886" lon="-7.59216920048">
        <ele>87.4</ele>
        <time>2011-03-23T15:00:48Z</time>
      </trkpt>
      <trkpt lat="37.1837498275" lon="-7.5921119521">
        <ele>87.4</ele>
        <time>2011-03-23T15:00:50Z</time>
      </trkpt>
      <trkpt lat="37.1837648311" lon="-7.59205445227">
        <ele>87.4</ele>
        <time>2011-03-23T15:00:52Z</time>
      </trkpt>
      <trkpt lat="37.1837812596" lon="-7.59199779062">
        <ele>87.4</ele>
        <time>2011-03-23T15:00:54Z</time>
      </trkpt>
      <trkpt lat="37.1837945868" lon="-7.59194096134">
        <ele>87.4</ele>
        <time>2011-03-23T15:00:56Z</time>
      </trkpt>
      <trkpt lat="37.1838063215" lon="-7.59188044402">
        <ele>87.4</ele>
        <time>2011-03-23T15:00:58Z</time>
      </trkpt>
      <trkpt lat="37.1838192296" lon="-7.59182277655">
        <ele>87.4</ele>
        <time>2011-03-23T15:01:00Z</time>
      </trkpt>
      <trkpt lat="37.183832473" lon="-7.59176502526">
        <ele>87.4</ele>
        <time>2011-03-23T15:01:02Z</time>
      </trkpt>
      <trkpt lat="37.1838452973" lon="-7.59170626814">
        <ele>87.4</ele>
        <time>2011-03-23T15:01:04Z</time>
      </trkpt>
      <trkpt lat="37.1838647433" lon="-7.59162169477">
        <ele>87.4</ele>
        <time>2011-03-23T15:01:07Z</time>
      </trkpt>
      <trkpt lat="37.1838779867" lon="-7.59156436258">
        <ele>87.4</ele>
        <time>2011-03-23T15:01:09Z</time>
      </trkpt>
      <trkpt lat="37.1838939123" lon="-7.59150937731">
        <ele>87.4</ele>
        <time>2011-03-23T15:01:11Z</time>
      </trkpt>
      <trkpt lat="37.1839089159" lon="-7.59145615225">
        <ele>87.4</ele>
        <time>2011-03-23T15:01:13Z</time>
      </trkpt>
      <trkpt lat="37.1839345646" lon="-7.59140896215">
        <ele>87.4</ele>
        <time>2011-03-23T15:01:15Z</time>
      </trkpt>
      <trkpt lat="37.1839767255" lon="-7.5913412364">
        <ele>87.4</ele>
        <time>2011-03-23T15:01:18Z</time>
      </trkpt>
      <trkpt lat="37.1840183836" lon="-7.59127711486">
        <ele>87.2</ele>
        <time>2011-03-23T15:01:21Z</time>
      </trkpt>
      <trkpt lat="37.1840578623" lon="-7.59120603635">
        <ele>86.6</ele>
        <time>2011-03-23T15:01:24Z</time>
      </trkpt>
      <trkpt lat="37.1840939045" lon="-7.59115130254">
        <ele>86.4</ele>
        <time>2011-03-23T15:01:27Z</time>
      </trkpt>
      <trkpt lat="37.1841194693" lon="-7.59110000531">
        <ele>86</ele>
        <time>2011-03-23T15:01:30Z</time>
      </trkpt>
      <trkpt lat="37.1841440282" lon="-7.59106748354">
        <ele>85.8</ele>
        <time>2011-03-23T15:01:33Z</time>
      </trkpt>
      <trkpt lat="37.1841705989" lon="-7.59104988155">
        <ele>85.6</ele>
        <time>2011-03-23T15:01:37Z</time>
      </trkpt>
      <trkpt lat="37.1841670785" lon="-7.59101383938">
        <ele>85.6</ele>
        <time>2011-03-23T15:01:42Z</time>
      </trkpt>
      <trkpt lat="37.1841772206" lon="-7.59095357352">
        <ele>85.4</ele>
        <time>2011-03-23T15:01:45Z</time>
      </trkpt>
      <trkpt lat="37.1841868597" lon="-7.59090420413">
        <ele>85</ele>
        <time>2011-03-23T15:01:48Z</time>
      </trkpt>
      <trkpt lat="37.1841886199" lon="-7.59088450667">
        <ele>84.8</ele>
        <time>2011-03-23T15:01:49Z</time>
      </trkpt>
      <trkpt lat="37.1841970018" lon="-7.59084234571">
        <ele>84.4</ele>
        <time>2011-03-23T15:01:52Z</time>
      </trkpt>
      <trkpt lat="37.1842019472" lon="-7.59079037793">
        <ele>84</ele>
        <time>2011-03-23T15:01:55Z</time>
      </trkpt>
      <trkpt lat="37.1842073954" lon="-7.59075257556">
        <ele>84</ele>
        <time>2011-03-23T15:01:57Z</time>
      </trkpt>
      <trkpt lat="37.1842139333" lon="-7.59071963469">
        <ele>83.8</ele>
        <time>2011-03-23T15:01:59Z</time>
      </trkpt>
      <trkpt lat="37.1842213932" lon="-7.59062726616">
        <ele>83.4</ele>
        <time>2011-03-23T15:02:04Z</time>
      </trkpt>
      <trkpt lat="37.1842240754" lon="-7.59057253235">
        <ele>82.8</ele>
        <time>2011-03-23T15:02:07Z</time>
      </trkpt>
      <trkpt lat="37.1842312838" lon="-7.59052173803">
        <ele>82.4</ele>
        <time>2011-03-23T15:02:10Z</time>
      </trkpt>
      <trkpt lat="37.1842362291" lon="-7.59047463176">
        <ele>82</ele>
        <time>2011-03-23T15:02:13Z</time>
      </trkpt>
      <trkpt lat="37.1842412583" lon="-7.59042249634">
        <ele>81.8</ele>
        <time>2011-03-23T15:02:16Z</time>
      </trkpt>
      <trkpt lat="37.1842488858" lon="-7.59037212112">
        <ele>81.6</ele>
        <time>2011-03-23T15:02:19Z</time>
      </trkpt>
      <trkpt lat="37.1842480476" lon="-7.59031579475">
        <ele>81.6</ele>
        <time>2011-03-23T15:02:22Z</time>
      </trkpt>
      <trkpt lat="37.1842459521" lon="-7.59029819276">
        <ele>81.4</ele>
        <time>2011-03-23T15:02:23Z</time>
      </trkpt>
      <trkpt lat="37.1842433537" lon="-7.59022862299">
        <ele>81.2</ele>
        <time>2011-03-23T15:02:27Z</time>
      </trkpt>
      <trkpt lat="37.184236732" lon="-7.59017472737">
        <ele>80.6</ele>
        <time>2011-03-23T15:02:30Z</time>
      </trkpt>
      <trkpt lat="37.1842338822" lon="-7.59012535798">
        <ele>80.2</ele>
        <time>2011-03-23T15:02:33Z</time>
      </trkpt>
      <trkpt lat="37.1842327087" lon="-7.59007481513">
        <ele>80</ele>
        <time>2011-03-23T15:02:36Z</time>
      </trkpt>
      <trkpt lat="37.1842333793" lon="-7.59002678684">
        <ele>79.8</ele>
        <time>2011-03-23T15:02:39Z</time>
      </trkpt>
      <trkpt lat="37.1842282663" lon="-7.58997800418">
        <ele>79.6</ele>
        <time>2011-03-23T15:02:42Z</time>
      </trkpt>
      <trkpt lat="37.184227009" lon="-7.58992100726">
        <ele>79.4</ele>
        <time>2011-03-23T15:02:46Z</time>
      </trkpt>
      <trkpt lat="37.1842246621" lon="-7.58986417798">
        <ele>79.4</ele>
        <time>2011-03-23T15:02:49Z</time>
      </trkpt>
      <trkpt lat="37.1842283501" lon="-7.58983417078">
        <ele>79.4</ele>
        <time>2011-03-23T15:02:51Z</time>
      </trkpt>
      <trkpt lat="37.1842248298" lon="-7.58976661266">
        <ele>79.2</ele>
        <time>2011-03-23T15:02:55Z</time>
      </trkpt>
      <trkpt lat="37.184218208" lon="-7.58970860992">
        <ele>79.2</ele>
        <time>2011-03-23T15:02:58Z</time>
      </trkpt>
      <trkpt lat="37.1842120054" lon="-7.58965379229">
        <ele>79.2</ele>
        <time>2011-03-23T15:03:01Z</time>
      </trkpt>
      <trkpt lat="37.1842116702" lon="-7.58960408762">
        <ele>79.2</ele>
        <time>2011-03-23T15:03:04Z</time>
      </trkpt>
      <trkpt lat="37.184202953" lon="-7.58954910236">
        <ele>79.4</ele>
        <time>2011-03-23T15:03:07Z</time>
      </trkpt>
      <trkpt lat="37.1841876141" lon="-7.58948757921">
        <ele>79.8</ele>
        <time>2011-03-23T15:03:10Z</time>
      </trkpt>
      <trkpt lat="37.1841777235" lon="-7.58943519234">
        <ele>80.2</ele>
        <time>2011-03-23T15:03:13Z</time>
      </trkpt>
      <trkpt lat="37.1841673299" lon="-7.58938741551">
        <ele>80.6</ele>
        <time>2011-03-23T15:03:16Z</time>
      </trkpt>
      <trkpt lat="37.1841664917" lon="-7.58935598338">
        <ele>80.6</ele>
        <time>2011-03-23T15:03:18Z</time>
      </trkpt>
      <trkpt lat="37.1841489736" lon="-7.58926990127">
        <ele>80.8</ele>
        <time>2011-03-23T15:03:22Z</time>
      </trkpt>
      <trkpt lat="37.1841421842" lon="-7.58921835258">
        <ele>81</ele>
        <time>2011-03-23T15:03:25Z</time>
      </trkpt>
      <trkpt lat="37.1841270968" lon="-7.58916705536">
        <ele>81</ele>
        <time>2011-03-23T15:03:28Z</time>
      </trkpt>
      <trkpt lat="37.184112177" lon="-7.58911349502">
        <ele>81.4</ele>
        <time>2011-03-23T15:03:31Z</time>
      </trkpt>
      <trkpt lat="37.1841077346" lon="-7.5890997487">
        <ele>81.6</ele>
        <time>2011-03-23T15:03:32Z</time>
      </trkpt>
      <trkpt lat="37.1840912223" lon="-7.58906664019">
        <ele>82</ele>
        <time>2011-03-23T15:03:34Z</time>
      </trkpt>
      <trkpt lat="37.1840753805" lon="-7.58898114481">
        <ele>82.4</ele>
        <time>2011-03-23T15:03:38Z</time>
      </trkpt>
      <trkpt lat="37.1840467144" lon="-7.58890235495">
        <ele>82.6</ele>
        <time>2011-03-23T15:03:41Z</time>
      </trkpt>
      <trkpt lat="37.1840385839" lon="-7.58888081347">
        <ele>82.8</ele>
        <time>2011-03-23T15:03:42Z</time>
      </trkpt>
      <trkpt lat="37.18400799" lon="-7.58880311326">
        <ele>82.8</ele>
        <time>2011-03-23T15:03:45Z</time>
      </trkpt>
      <trkpt lat="37.1839883764" lon="-7.58873429786">
        <ele>83</ele>
        <time>2011-03-23T15:03:48Z</time>
      </trkpt>
      <trkpt lat="37.1839647394" lon="-7.58865156851">
        <ele>83</ele>
        <time>2011-03-23T15:03:51Z</time>
      </trkpt>
      <trkpt lat="37.1839452096" lon="-7.58857336538">
        <ele>83.2</ele>
        <time>2011-03-23T15:03:54Z</time>
      </trkpt>
      <trkpt lat="37.1839251768" lon="-7.58849683863">
        <ele>83.2</ele>
        <time>2011-03-23T15:03:57Z</time>
      </trkpt>
      <trkpt lat="37.1839031324" lon="-7.58841218144">
        <ele>83.2</ele>
        <time>2011-03-23T15:04:00Z</time>
      </trkpt>
      <trkpt lat="37.1838789087" lon="-7.58832542878">
        <ele>83.2</ele>
        <time>2011-03-23T15:04:03Z</time>
      </trkpt>
      <trkpt lat="37.1838638213" lon="-7.58830028308">
        <ele>83.2</ele>
        <time>2011-03-23T15:04:04Z</time>
      </trkpt>
      <trkpt lat="37.1838378374" lon="-7.58819986792">
        <ele>83.2</ele>
        <time>2011-03-23T15:04:08Z</time>
      </trkpt>
      <trkpt lat="37.1838110153" lon="-7.58811546218">
        <ele>83.2</ele>
        <time>2011-03-23T15:04:11Z</time>
      </trkpt>
      <trkpt lat="37.1837929104" lon="-7.58806081219">
        <ele>83</ele>
        <time>2011-03-23T15:04:13Z</time>
      </trkpt>
      <trkpt lat="37.1837717042" lon="-7.58800314472">
        <ele>82.8</ele>
        <time>2011-03-23T15:04:15Z</time>
      </trkpt>
      <trkpt lat="37.1837520906" lon="-7.58794958438">
        <ele>82.4</ele>
        <time>2011-03-23T15:04:17Z</time>
      </trkpt>
      <trkpt lat="37.1837137015" lon="-7.58784296661">
        <ele>82</ele>
        <time>2011-03-23T15:04:21Z</time>
      </trkpt>
      <trkpt lat="37.1836867118" lon="-7.58776333856">
        <ele>81.8</ele>
        <time>2011-03-23T15:04:24Z</time>
      </trkpt>
      <trkpt lat="37.1836647512" lon="-7.5876827885">
        <ele>81.6</ele>
        <time>2011-03-23T15:04:27Z</time>
      </trkpt>
      <trkpt lat="37.1836468977" lon="-7.58762445048">
        <ele>81.6</ele>
        <time>2011-03-23T15:04:29Z</time>
      </trkpt>
      <trkpt lat="37.1836243504" lon="-7.58754490625">
        <ele>81.4</ele>
        <time>2011-03-23T15:04:32Z</time>
      </trkpt>
      <trkpt lat="37.1836136216" lon="-7.58748254491">
        <ele>81.4</ele>
        <time>2011-03-23T15:04:35Z</time>
      </trkpt>
      <trkpt lat="37.1835969416" lon="-7.58743334316">
        <ele>81.4</ele>
        <time>2011-03-23T15:04:38Z</time>
      </trkpt>
      <trkpt lat="37.1835792558" lon="-7.58737466986">
        <ele>81.4</ele>
        <time>2011-03-23T15:04:41Z</time>
      </trkpt>
      <trkpt lat="37.1835638331" lon="-7.58732211535">
        <ele>81.4</ele>
        <time>2011-03-23T15:04:44Z</time>
      </trkpt>
      <trkpt lat="37.1835489133" lon="-7.58727123721">
        <ele>81.2</ele>
        <time>2011-03-23T15:04:47Z</time>
      </trkpt>
      <trkpt lat="37.1835315628" lon="-7.58722371184">
        <ele>81.2</ele>
        <time>2011-03-23T15:04:50Z</time>
      </trkpt>
      <trkpt lat="37.1835163916" lon="-7.58717157642">
        <ele>81.2</ele>
        <time>2011-03-23T15:04:54Z</time>
      </trkpt>
      <trkpt lat="37.1834993763" lon="-7.587118519">
        <ele>81.2</ele>
        <time>2011-03-23T15:04:57Z</time>
      </trkpt>
      <trkpt lat="37.1834779186" lon="-7.58706789232">
        <ele>81.2</ele>
        <time>2011-03-23T15:05:00Z</time>
      </trkpt>
      <trkpt lat="37.1834644238" lon="-7.58702003167">
        <ele>81.2</ele>
        <time>2011-03-23T15:05:03Z</time>
      </trkpt>
      <trkpt lat="37.1834465703" lon="-7.58696445967">
        <ele>81.2</ele>
        <time>2011-03-23T15:05:06Z</time>
      </trkpt>
      <trkpt lat="37.1834260347" lon="-7.58690804949">
        <ele>81.2</ele>
        <time>2011-03-23T15:05:09Z</time>
      </trkpt>
      <trkpt lat="37.1834098576" lon="-7.58685264513">
        <ele>81.2</ele>
        <time>2011-03-23T15:05:12Z</time>
      </trkpt>
      <trkpt lat="37.1834005537" lon="-7.5868000068">
        <ele>81.2</ele>
        <time>2011-03-23T15:05:15Z</time>
      </trkpt>
      <trkpt lat="37.1833963628" lon="-7.58674954776">
        <ele>81.2</ele>
        <time>2011-03-23T15:05:18Z</time>
      </trkpt>
      <trkpt lat="37.1833928424" lon="-7.58669330521">
        <ele>81.8</ele>
        <time>2011-03-23T15:05:21Z</time>
      </trkpt>
      <trkpt lat="37.1833926747" lon="-7.58663982869">
        <ele>82.2</ele>
        <time>2011-03-23T15:05:24Z</time>
      </trkpt>
      <trkpt lat="37.1833945187" lon="-7.58659456643">
        <ele>82.6</ele>
        <time>2011-03-23T15:05:27Z</time>
      </trkpt>
      <trkpt lat="37.1834019786" lon="-7.58654310156">
        <ele>82.8</ele>
        <time>2011-03-23T15:05:30Z</time>
      </trkpt>
      <trkpt lat="37.1834109473" lon="-7.58648400917">
        <ele>83</ele>
        <time>2011-03-23T15:05:33Z</time>
      </trkpt>
      <trkpt lat="37.1834156411" lon="-7.58643086792">
        <ele>83.6</ele>
        <time>2011-03-23T15:05:36Z</time>
      </trkpt>
      <trkpt lat="37.1834148029" lon="-7.58638292345">
        <ele>84</ele>
        <time>2011-03-23T15:05:39Z</time>
      </trkpt>
      <trkpt lat="37.1834183233" lon="-7.58633137477">
        <ele>84.4</ele>
        <time>2011-03-23T15:05:42Z</time>
      </trkpt>
      <trkpt lat="37.1834247774" lon="-7.58628125101">
        <ele>84.6</ele>
        <time>2011-03-23T15:05:45Z</time>
      </trkpt>
      <trkpt lat="37.183427292" lon="-7.58622542755">
        <ele>84.8</ele>
        <time>2011-03-23T15:05:48Z</time>
      </trkpt>
      <trkpt lat="37.1834321535" lon="-7.58617723163">
        <ele>85</ele>
        <time>2011-03-23T15:05:51Z</time>
      </trkpt>
      <trkpt lat="37.1834380208" lon="-7.58612777842">
        <ele>85.2</ele>
        <time>2011-03-23T15:05:54Z</time>
      </trkpt>
      <trkpt lat="37.1834411221" lon="-7.58607455335">
        <ele>85.2</ele>
        <time>2011-03-23T15:05:57Z</time>
      </trkpt>
      <trkpt lat="37.1834464027" lon="-7.58602610597">
        <ele>85.2</ele>
        <time>2011-03-23T15:06:00Z</time>
      </trkpt>
      <trkpt lat="37.1834560419" lon="-7.58598260391">
        <ele>85.2</ele>
        <time>2011-03-23T15:06:03Z</time>
      </trkpt>
      <trkpt lat="37.1834645076" lon="-7.58593147432">
        <ele>85.8</ele>
        <time>2011-03-23T15:06:06Z</time>
      </trkpt>
      <trkpt lat="37.1834716322" lon="-7.58588277548">
        <ele>86.2</ele>
        <time>2011-03-23T15:06:09Z</time>
      </trkpt>
      <trkpt lat="37.1834872225" lon="-7.58583843523">
        <ele>86.6</ele>
        <time>2011-03-23T15:06:12Z</time>
      </trkpt>
      <trkpt lat="37.1834964426" lon="-7.58578914966">
        <ele>86.8</ele>
        <time>2011-03-23T15:06:15Z</time>
      </trkpt>
      <trkpt lat="37.1834997116" lon="-7.58575470005">
        <ele>87</ele>
        <time>2011-03-23T15:06:17Z</time>
      </trkpt>
      <trkpt lat="37.1835085964" lon="-7.58568269953">
        <ele>87</ele>
        <time>2011-03-23T15:06:21Z</time>
      </trkpt>
      <trkpt lat="37.1835187385" lon="-7.58563341395">
        <ele>87.2</ele>
        <time>2011-03-23T15:06:24Z</time>
      </trkpt>
      <trkpt lat="37.1835301379" lon="-7.58557909924">
        <ele>87.2</ele>
        <time>2011-03-23T15:06:27Z</time>
      </trkpt>
      <trkpt lat="37.1835343288" lon="-7.58556116198">
        <ele>87.4</ele>
        <time>2011-03-23T15:06:28Z</time>
      </trkpt>
      <trkpt lat="37.1835626597" lon="-7.58550097993">
        <ele>88.2</ele>
        <time>2011-03-23T15:06:32Z</time>
      </trkpt>
      <trkpt lat="37.1835673535" lon="-7.58548262357">
        <ele>88.2</ele>
        <time>2011-03-23T15:06:33Z</time>
      </trkpt>
      <trkpt lat="37.1835793396" lon="-7.58542973378">
        <ele>88.6</ele>
        <time>2011-03-23T15:06:36Z</time>
      </trkpt>
      <trkpt lat="37.18359493" lon="-7.58538028057">
        <ele>88.8</ele>
        <time>2011-03-23T15:06:39Z</time>
      </trkpt>
      <trkpt lat="37.1836079219" lon="-7.58533367721">
        <ele>89</ele>
        <time>2011-03-23T15:06:42Z</time>
      </trkpt>
      <trkpt lat="37.183621333" lon="-7.58528313435">
        <ele>89.2</ele>
        <time>2011-03-23T15:06:45Z</time>
      </trkpt>
      <trkpt lat="37.1836380968" lon="-7.58523267532">
        <ele>89.2</ele>
        <time>2011-03-23T15:06:48Z</time>
      </trkpt>
      <trkpt lat="37.1836542738" lon="-7.58518582049">
        <ele>89.2</ele>
        <time>2011-03-23T15:06:51Z</time>
      </trkpt>
      <trkpt lat="37.1836766535" lon="-7.58514474918">
        <ele>89.4</ele>
        <time>2011-03-23T15:06:54Z</time>
      </trkpt>
      <trkpt lat="37.183700039" lon="-7.58510342642">
        <ele>90</ele>
        <time>2011-03-23T15:06:57Z</time>
      </trkpt>
      <trkpt lat="37.1837284536" lon="-7.58506621078">
        <ele>90.4</ele>
        <time>2011-03-23T15:07:00Z</time>
      </trkpt>
      <trkpt lat="37.1837576226" lon="-7.58503008479">
        <ele>90.6</ele>
        <time>2011-03-23T15:07:03Z</time>
      </trkpt>
      <trkpt lat="37.1837867078" lon="-7.58499655719">
        <ele>90.8</ele>
        <time>2011-03-23T15:07:06Z</time>
      </trkpt>
      <trkpt lat="37.18381814" lon="-7.58496101794">
        <ele>91</ele>
        <time>2011-03-23T15:07:09Z</time>
      </trkpt>
      <trkpt lat="37.1838499074" lon="-7.58492992109">
        <ele>91.2</ele>
        <time>2011-03-23T15:07:12Z</time>
      </trkpt>
      <trkpt lat="37.183880166" lon="-7.58489991389">
        <ele>91.2</ele>
        <time>2011-03-23T15:07:15Z</time>
      </trkpt>
      <trkpt lat="37.1839049764" lon="-7.58486814648">
        <ele>91.4</ele>
        <time>2011-03-23T15:07:18Z</time>
      </trkpt>
      <trkpt lat="37.183912604" lon="-7.58485616037">
        <ele>91.4</ele>
        <time>2011-03-23T15:07:19Z</time>
      </trkpt>
      <trkpt lat="37.183946383" lon="-7.58482347096">
        <ele>91.4</ele>
        <time>2011-03-23T15:07:23Z</time>
      </trkpt>
      <trkpt lat="37.1839820899" lon="-7.58478491422">
        <ele>91.4</ele>
        <time>2011-03-23T15:07:27Z</time>
      </trkpt>
      <trkpt lat="37.1840115104" lon="-7.58475021315">
        <ele>91.4</ele>
        <time>2011-03-23T15:07:30Z</time>
      </trkpt>
      <trkpt lat="37.1840421881" lon="-7.58471182405">
        <ele>91.4</ele>
        <time>2011-03-23T15:07:33Z</time>
      </trkpt>
      <trkpt lat="37.1840722792" lon="-7.58467653625">
        <ele>91.4</ele>
        <time>2011-03-23T15:07:36Z</time>
      </trkpt>
      <trkpt lat="37.1841037113" lon="-7.58464300865">
        <ele>91.4</ele>
        <time>2011-03-23T15:07:39Z</time>
      </trkpt>
      <trkpt lat="37.1841373227" lon="-7.58461199562">
        <ele>91.4</ele>
        <time>2011-03-23T15:07:42Z</time>
      </trkpt>
      <trkpt lat="37.1841675814" lon="-7.58458257515">
        <ele>91.4</ele>
        <time>2011-03-23T15:07:45Z</time>
      </trkpt>
      <trkpt lat="37.1841876141" lon="-7.58456296151">
        <ele>91.6</ele>
        <time>2011-03-23T15:07:47Z</time>
      </trkpt>
      <trkpt lat="37.1842281825" lon="-7.58454049801">
        <ele>91.8</ele>
        <time>2011-03-23T15:07:51Z</time>
      </trkpt>
      <trkpt lat="37.1842663202" lon="-7.58452180638">
        <ele>92.4</ele>
        <time>2011-03-23T15:07:54Z</time>
      </trkpt>
      <trkpt lat="37.1842995963" lon="-7.58450521021">
        <ele>92.6</ele>
        <time>2011-03-23T15:07:57Z</time>
      </trkpt>
      <trkpt lat="37.1843376501" lon="-7.5844914639">
        <ele>92.8</ele>
        <time>2011-03-23T15:08:00Z</time>
      </trkpt>
      <trkpt lat="37.1843754525" lon="-7.58448283054">
        <ele>93</ele>
        <time>2011-03-23T15:08:03Z</time>
      </trkpt>
      <trkpt lat="37.1844193736" lon="-7.58448065125">
        <ele>93.2</ele>
        <time>2011-03-23T15:08:06Z</time>
      </trkpt>
      <trkpt lat="37.1844634624" lon="-7.58448576421">
        <ele>93.2</ele>
        <time>2011-03-23T15:08:09Z</time>
      </trkpt>
      <trkpt lat="37.1845034441" lon="-7.5844910448">
        <ele>93.4</ele>
        <time>2011-03-23T15:08:12Z</time>
      </trkpt>
      <trkpt lat="37.1845465271" lon="-7.58449833706">
        <ele>93.4</ele>
        <time>2011-03-23T15:08:15Z</time>
      </trkpt>
      <trkpt lat="37.1845902806" lon="-7.58450688659">
        <ele>93.4</ele>
        <time>2011-03-23T15:08:18Z</time>
      </trkpt>
      <trkpt lat="37.1846340341" lon="-7.58451753161">
        <ele>93.4</ele>
        <time>2011-03-23T15:08:21Z</time>
      </trkpt>
      <trkpt lat="37.1846722556" lon="-7.58452725461">
        <ele>93.4</ele>
        <time>2011-03-23T15:08:24Z</time>
      </trkpt>
      <trkpt lat="37.1847135783" lon="-7.58453454686">
        <ele>93.4</ele>
        <time>2011-03-23T15:08:27Z</time>
      </trkpt>
      <trkpt lat="37.1847556555" lon="-7.58453798344">
        <ele>93.4</ele>
        <time>2011-03-23T15:08:30Z</time>
      </trkpt>
      <trkpt lat="37.1847976488" lon="-7.58453806726">
        <ele>93.4</ele>
        <time>2011-03-23T15:08:33Z</time>
      </trkpt>
      <trkpt lat="37.1848400612" lon="-7.58453144556">
        <ele>93.6</ele>
        <time>2011-03-23T15:08:36Z</time>
      </trkpt>
      <trkpt lat="37.1848874189" lon="-7.58451811834">
        <ele>93.6</ele>
        <time>2011-03-23T15:08:40Z</time>
      </trkpt>
      <trkpt lat="37.1849260595" lon="-7.5844945652">
        <ele>93.6</ele>
        <time>2011-03-23T15:08:43Z</time>
      </trkpt>
      <trkpt lat="37.1849654544" lon="-7.58446623438">
        <ele>93.8</ele>
        <time>2011-03-23T15:08:46Z</time>
      </trkpt>
      <trkpt lat="37.1850044303" lon="-7.58443069512">
        <ele>94.4</ele>
        <time>2011-03-23T15:08:49Z</time>
      </trkpt>
      <trkpt lat="37.1850350242" lon="-7.58438861799">
        <ele>94.6</ele>
        <time>2011-03-23T15:08:52Z</time>
      </trkpt>
      <trkpt lat="37.1850584097" lon="-7.5843419308">
        <ele>95</ele>
        <time>2011-03-23T15:08:55Z</time>
      </trkpt>
      <trkpt lat="37.1850771852" lon="-7.58428702936">
        <ele>95</ele>
        <time>2011-03-23T15:08:58Z</time>
      </trkpt>
      <trkpt lat="37.185081879" lon="-7.58427060083">
        <ele>95.2</ele>
        <time>2011-03-23T15:08:59Z</time>
      </trkpt>
      <trkpt lat="37.185094871" lon="-7.58421217899">
        <ele>95.2</ele>
        <time>2011-03-23T15:09:02Z</time>
      </trkpt>
      <trkpt lat="37.1850999001" lon="-7.58413716099">
        <ele>95.4</ele>
        <time>2011-03-23T15:09:05Z</time>
      </trkpt>
      <trkpt lat="37.1850883331" lon="-7.58407002197">
        <ele>95.4</ele>
        <time>2011-03-23T15:09:08Z</time>
      </trkpt>
      <trkpt lat="37.1850584097" lon="-7.58399592597">
        <ele>95.4</ele>
        <time>2011-03-23T15:09:11Z</time>
      </trkpt>
      <trkpt lat="37.1850199368" lon="-7.58393507338">
        <ele>95.4</ele>
        <time>2011-03-23T15:09:14Z</time>
      </trkpt>
      <trkpt lat="37.1849897619" lon="-7.5838945888">
        <ele>95.4</ele>
        <time>2011-03-23T15:09:16Z</time>
      </trkpt>
      <trkpt lat="37.1849100501" lon="-7.58381093744">
        <ele>95.4</ele>
        <time>2011-03-23T15:09:21Z</time>
      </trkpt>
      <trkpt lat="37.1848724153" lon="-7.58377523054">
        <ele>95.6</ele>
        <time>2011-03-23T15:09:23Z</time>
      </trkpt>
      <trkpt lat="37.184817011" lon="-7.58372963301">
        <ele>95.6</ele>
        <time>2011-03-23T15:09:26Z</time>
      </trkpt>
      <trkpt lat="37.184780885" lon="-7.58369468048">
        <ele>95.6</ele>
        <time>2011-03-23T15:09:28Z</time>
      </trkpt>
      <trkpt lat="37.1847355389" lon="-7.58364279652">
        <ele>95.6</ele>
        <time>2011-03-23T15:09:31Z</time>
      </trkpt>
      <trkpt lat="37.1846958925" lon="-7.5835844585">
        <ele>95.6</ele>
        <time>2011-03-23T15:09:34Z</time>
      </trkpt>
      <trkpt lat="37.1846613591" lon="-7.5835275454">
        <ele>95.6</ele>
        <time>2011-03-23T15:09:37Z</time>
      </trkpt>
      <trkpt lat="37.1846320225" lon="-7.58346862064">
        <ele>95.6</ele>
        <time>2011-03-23T15:09:40Z</time>
      </trkpt>
      <trkpt lat="37.1846181923" lon="-7.58339536284">
        <ele>95.8</ele>
        <time>2011-03-23T15:09:43Z</time>
      </trkpt>
      <trkpt lat="37.1846097266" lon="-7.58332537397">
        <ele>96.2</ele>
        <time>2011-03-23T15:09:46Z</time>
      </trkpt>
      <trkpt lat="37.1846079664" lon="-7.58324599738">
        <ele>96.6</ele>
        <time>2011-03-23T15:09:49Z</time>
      </trkpt>
      <trkpt lat="37.184616935" lon="-7.58316745897">
        <ele>96.8</ele>
        <time>2011-03-23T15:09:52Z</time>
      </trkpt>
      <trkpt lat="37.1846307652" lon="-7.5830885853">
        <ele>97</ele>
        <time>2011-03-23T15:09:55Z</time>
      </trkpt>
      <trkpt lat="37.1846467746" lon="-7.58301046599">
        <ele>97.2</ele>
        <time>2011-03-23T15:09:58Z</time>
      </trkpt>
      <trkpt lat="37.1846740158" lon="-7.58293410688">
        <ele>97.6</ele>
        <time>2011-03-23T15:10:01Z</time>
      </trkpt>
      <trkpt lat="37.184699832" lon="-7.58288758733">
        <ele>98</ele>
        <time>2011-03-23T15:10:03Z</time>
      </trkpt>
      <trkpt lat="37.1847336949" lon="-7.5828217056">
        <ele>98.4</ele>
        <time>2011-03-23T15:10:06Z</time>
      </trkpt>
      <trkpt lat="37.1847726707" lon="-7.58275649442">
        <ele>98.8</ele>
        <time>2011-03-23T15:10:09Z</time>
      </trkpt>
      <trkpt lat="37.1848122333" lon="-7.58269036123">
        <ele>99</ele>
        <time>2011-03-23T15:10:12Z</time>
      </trkpt>
      <trkpt lat="37.1848405641" lon="-7.58264308731">
        <ele>99.2</ele>
        <time>2011-03-23T15:10:14Z</time>
      </trkpt>
      <trkpt lat="37.1848842338" lon="-7.58257812759">
        <ele>99.4</ele>
        <time>2011-03-23T15:10:17Z</time>
      </trkpt>
      <trkpt lat="37.1849301666" lon="-7.58252020866">
        <ele>99.4</ele>
        <time>2011-03-23T15:10:20Z</time>
      </trkpt>
      <trkpt lat="37.1849691425" lon="-7.58245935606">
        <ele>99.6</ele>
        <time>2011-03-23T15:10:23Z</time>
      </trkpt>
      <trkpt lat="37.1850152429" lon="-7.58240520899">
        <ele>99.6</ele>
        <time>2011-03-23T15:10:26Z</time>
      </trkpt>
      <trkpt lat="37.1850456692" lon="-7.58236329949">
        <ele>99.6</ele>
        <time>2011-03-23T15:10:28Z</time>
      </trkpt>
      <trkpt lat="37.1850970503" lon="-7.58230429091">
        <ele>99.6</ele>
        <time>2011-03-23T15:10:31Z</time>
      </trkpt>
      <trkpt lat="37.1851339306" lon="-7.58226891929">
        <ele>99.6</ele>
        <time>2011-03-23T15:10:33Z</time>
      </trkpt>
      <trkpt lat="37.1851881615" lon="-7.58222214829">
        <ele>99.6</ele>
        <time>2011-03-23T15:10:36Z</time>
      </trkpt>
      <trkpt lat="37.1852383691" lon="-7.58217294654">
        <ele>99.6</ele>
        <time>2011-03-23T15:10:39Z</time>
      </trkpt>
      <trkpt lat="37.1852920133" lon="-7.58212785192">
        <ele>99.6</ele>
        <time>2011-03-23T15:10:42Z</time>
      </trkpt>
      <trkpt lat="37.1853392034" lon="-7.58208334403">
        <ele>99.6</ele>
        <time>2011-03-23T15:10:45Z</time>
      </trkpt>
      <trkpt lat="37.1853884889" lon="-7.58203858468">
        <ele>99.8</ele>
        <time>2011-03-23T15:10:48Z</time>
      </trkpt>
      <trkpt lat="37.1854288059" lon="-7.58200782311">
        <ele>99.8</ele>
        <time>2011-03-23T15:10:50Z</time>
      </trkpt>
      <trkpt lat="37.1854642613" lon="-7.58197136184">
        <ele>99.8</ele>
        <time>2011-03-23T15:10:52Z</time>
      </trkpt>
      <trkpt lat="37.1855013931" lon="-7.58190589921">
        <ele>99.8</ele>
        <time>2011-03-23T15:10:55Z</time>
      </trkpt>
      <trkpt lat="37.1855319032" lon="-7.5818322223">
        <ele>99.8</ele>
        <time>2011-03-23T15:10:58Z</time>
      </trkpt>
      <trkpt lat="37.185549589" lon="-7.58175158843">
        <ele>99.8</ele>
        <time>2011-03-23T15:11:01Z</time>
      </trkpt>
      <trkpt lat="37.185557468" lon="-7.58169635171">
        <ele>99.8</ele>
        <time>2011-03-23T15:11:03Z</time>
      </trkpt>
      <trkpt lat="37.1855689512" lon="-7.58161152688">
        <ele>100.2</ele>
        <time>2011-03-23T15:11:06Z</time>
      </trkpt>
      <trkpt lat="37.1855717173" lon="-7.58155067428">
        <ele>100.6</ele>
        <time>2011-03-23T15:11:08Z</time>
      </trkpt>
      <trkpt lat="37.1855796801" lon="-7.58146995659">
        <ele>100.8</ele>
        <time>2011-03-23T15:11:11Z</time>
      </trkpt>
      <trkpt lat="37.1855709629" lon="-7.58141564187">
        <ele>101</ele>
        <time>2011-03-23T15:11:13Z</time>
      </trkpt>
      <trkpt lat="37.1855730584" lon="-7.58133894749">
        <ele>101.2</ele>
        <time>2011-03-23T15:11:16Z</time>
      </trkpt>
      <trkpt lat="37.1855726393" lon="-7.58126786898">
        <ele>101.4</ele>
        <time>2011-03-23T15:11:19Z</time>
      </trkpt>
      <trkpt lat="37.1855759082" lon="-7.58119176133">
        <ele>101.6</ele>
        <time>2011-03-23T15:11:22Z</time>
      </trkpt>
      <trkpt lat="37.1855782551" lon="-7.58116753763">
        <ele>102</ele>
        <time>2011-03-23T15:11:23Z</time>
      </trkpt>
      <trkpt lat="37.1856032332" lon="-7.58098422548">
        <ele>103</ele>
        <time>2011-03-23T15:11:30Z</time>
      </trkpt>
      <trkpt lat="37.1856198294" lon="-7.58093016223">
        <ele>103</ele>
        <time>2011-03-23T15:11:32Z</time>
      </trkpt>
      <trkpt lat="37.1856505909" lon="-7.5808599219">
        <ele>103.2</ele>
        <time>2011-03-23T15:11:35Z</time>
      </trkpt>
      <trkpt lat="37.185686214" lon="-7.58079336962">
        <ele>103.6</ele>
        <time>2011-03-23T15:11:38Z</time>
      </trkpt>
      <trkpt lat="37.1857243517" lon="-7.58072564387">
        <ele>104.2</ele>
        <time>2011-03-23T15:11:41Z</time>
      </trkpt>
      <trkpt lat="37.1857595556" lon="-7.58065506827">
        <ele>104.8</ele>
        <time>2011-03-23T15:11:44Z</time>
      </trkpt>
      <trkpt lat="37.185791323" lon="-7.58058524704">
        <ele>105</ele>
        <time>2011-03-23T15:11:47Z</time>
      </trkpt>
      <trkpt lat="37.1858238448" lon="-7.58051970058">
        <ele>105.2</ele>
        <time>2011-03-23T15:11:50Z</time>
      </trkpt>
      <trkpt lat="37.1858555284" lon="-7.58044686187">
        <ele>105.4</ele>
        <time>2011-03-23T15:11:53Z</time>
      </trkpt>
      <trkpt lat="37.1858841945" lon="-7.58037528045">
        <ele>105.6</ele>
        <time>2011-03-23T15:11:56Z</time>
      </trkpt>
      <trkpt lat="37.1859136988" lon="-7.58029950807">
        <ele>105.6</ele>
        <time>2011-03-23T15:11:59Z</time>
      </trkpt>
      <trkpt lat="37.1859383416" lon="-7.58024519336">
        <ele>105.8</ele>
        <time>2011-03-23T15:12:01Z</time>
      </trkpt>
      <trkpt lat="37.1859633196" lon="-7.58018995664">
        <ele>105.8</ele>
        <time>2011-03-23T15:12:03Z</time>
      </trkpt>
      <trkpt lat="37.185994165" lon="-7.58011845903">
        <ele>105.8</ele>
        <time>2011-03-23T15:12:06Z</time>
      </trkpt>
      <trkpt lat="37.1860245075" lon="-7.58004268665">
        <ele>105.8</ele>
        <time>2011-03-23T15:12:09Z</time>
      </trkpt>
      <trkpt lat="37.1860564425" lon="-7.57996146604">
        <ele>105.8</ele>
        <time>2011-03-23T15:12:12Z</time>
      </trkpt>
      <trkpt lat="37.1860851925" lon="-7.57988334674">
        <ele>105.8</ele>
        <time>2011-03-23T15:12:15Z</time>
      </trkpt>
      <trkpt lat="37.1861148644" lon="-7.57980413778">
        <ele>106</ele>
        <time>2011-03-23T15:12:18Z</time>
      </trkpt>
      <trkpt lat="37.1861406806" lon="-7.57972777867">
        <ele>106</ele>
        <time>2011-03-23T15:12:21Z</time>
      </trkpt>
      <trkpt lat="37.1861552651" lon="-7.57964161274">
        <ele>106</ele>
        <time>2011-03-23T15:12:24Z</time>
      </trkpt>
      <trkpt lat="37.1861592885" lon="-7.57958126306">
        <ele>106</ele>
        <time>2011-03-23T15:12:26Z</time>
      </trkpt>
      <trkpt lat="37.1861664969" lon="-7.57952418232">
        <ele>106</ele>
        <time>2011-03-23T15:12:28Z</time>
      </trkpt>
      <trkpt lat="37.186172448" lon="-7.57944128533">
        <ele>106</ele>
        <time>2011-03-23T15:12:31Z</time>
      </trkpt>
      <trkpt lat="37.1861693467" lon="-7.5794098532">
        <ele>106</ele>
        <time>2011-03-23T15:12:32Z</time>
      </trkpt>
      <trkpt lat="37.1861732862" lon="-7.57932536365">
        <ele>106</ele>
        <time>2011-03-23T15:12:36Z</time>
      </trkpt>
      <trkpt lat="37.1861726995" lon="-7.57930600146">
        <ele>106</ele>
        <time>2011-03-23T15:12:37Z</time>
      </trkpt>
      <trkpt lat="37.1861727833" lon="-7.57923098346">
        <ele>106</ele>
        <time>2011-03-23T15:12:41Z</time>
      </trkpt>
      <trkpt lat="37.1861770581" lon="-7.579174238">
        <ele>106</ele>
        <time>2011-03-23T15:12:44Z</time>
      </trkpt>
      <trkpt lat="37.1861763037" lon="-7.57911405595">
        <ele>106</ele>
        <time>2011-03-23T15:12:47Z</time>
      </trkpt>
      <trkpt lat="37.1861770581" lon="-7.5790547121">
        <ele>106</ele>
        <time>2011-03-23T15:12:50Z</time>
      </trkpt>
      <trkpt lat="37.1861813328" lon="-7.57899310514">
        <ele>106</ele>
        <time>2011-03-23T15:12:53Z</time>
      </trkpt>
      <trkpt lat="37.1861846018" lon="-7.57897500023">
        <ele>106</ele>
        <time>2011-03-23T15:12:54Z</time>
      </trkpt>
      <trkpt lat="37.1861831769" lon="-7.57892361919">
        <ele>106</ele>
        <time>2011-03-23T15:12:57Z</time>
      </trkpt>
      <trkpt lat="37.186178483" lon="-7.57886938829">
        <ele>106</ele>
        <time>2011-03-23T15:13:00Z</time>
      </trkpt>
      <trkpt lat="37.1861773095" lon="-7.57884927173">
        <ele>106</ele>
        <time>2011-03-23T15:13:01Z</time>
      </trkpt>
      <trkpt lat="37.1861809138" lon="-7.57878179744">
        <ele>106</ele>
        <time>2011-03-23T15:13:05Z</time>
      </trkpt>
      <trkpt lat="37.1861778125" lon="-7.57872639308">
        <ele>106</ele>
        <time>2011-03-23T15:13:08Z</time>
      </trkpt>
      <trkpt lat="37.1861779801" lon="-7.57866830651">
        <ele>106</ele>
        <time>2011-03-23T15:13:11Z</time>
      </trkpt>
      <trkpt lat="37.1861734539" lon="-7.57860829211">
        <ele>106</ele>
        <time>2011-03-23T15:13:14Z</time>
      </trkpt>
      <trkpt lat="37.1861670836" lon="-7.57854718806">
        <ele>106</ele>
        <time>2011-03-23T15:13:17Z</time>
      </trkpt>
      <trkpt lat="37.1861601266" lon="-7.5784917837">
        <ele>106</ele>
        <time>2011-03-23T15:13:20Z</time>
      </trkpt>
      <trkpt lat="37.1861583664" lon="-7.57842975764">
        <ele>106</ele>
        <time>2011-03-23T15:13:23Z</time>
      </trkpt>
      <trkpt lat="37.1861530858" lon="-7.57837141961">
        <ele>106</ele>
        <time>2011-03-23T15:13:26Z</time>
      </trkpt>
      <trkpt lat="37.1861530858" lon="-7.57835230888">
        <ele>106</ele>
        <time>2011-03-23T15:13:27Z</time>
      </trkpt>
      <trkpt lat="37.1861381661" lon="-7.57826522094">
        <ele>106</ele>
        <time>2011-03-23T15:13:31Z</time>
      </trkpt>
      <trkpt lat="37.1861354839" lon="-7.57824543966">
        <ele>106</ele>
        <time>2011-03-23T15:13:32Z</time>
      </trkpt>
      <trkpt lat="37.1861315444" lon="-7.57818416797">
        <ele>106</ele>
        <time>2011-03-23T15:13:35Z</time>
      </trkpt>
      <trkpt lat="37.1861285269" lon="-7.57816463814">
        <ele>106</ele>
        <time>2011-03-23T15:13:36Z</time>
      </trkpt>
      <trkpt lat="37.1861250065" lon="-7.5781441863">
        <ele>106</ele>
        <time>2011-03-23T15:13:37Z</time>
      </trkpt>
      <trkpt lat="37.1861288622" lon="-7.57808014859">
        <ele>106</ele>
        <time>2011-03-23T15:13:41Z</time>
      </trkpt>
      <trkpt lat="37.1861255094" lon="-7.57802005037">
        <ele>106</ele>
        <time>2011-03-23T15:13:44Z</time>
      </trkpt>
      <trkpt lat="37.1861213184" lon="-7.57796514892">
        <ele>106</ele>
        <time>2011-03-23T15:13:47Z</time>
      </trkpt>
      <trkpt lat="37.1861179657" lon="-7.57790890637">
        <ele>106</ele>
        <time>2011-03-23T15:13:50Z</time>
      </trkpt>
      <trkpt lat="37.1861100029" lon="-7.57785509457">
        <ele>106</ele>
        <time>2011-03-23T15:13:53Z</time>
      </trkpt>
      <trkpt lat="37.1861048899" lon="-7.57779910348">
        <ele>106</ele>
        <time>2011-03-23T15:13:56Z</time>
      </trkpt>
      <trkpt lat="37.1860919818" lon="-7.57773456285">
        <ele>106</ele>
        <time>2011-03-23T15:13:59Z</time>
      </trkpt>
      <trkpt lat="37.1860735416" lon="-7.57767253679">
        <ele>105.4</ele>
        <time>2011-03-23T15:14:02Z</time>
      </trkpt>
      <trkpt lat="37.1860684287" lon="-7.5776553539">
        <ele>105.2</ele>
        <time>2011-03-23T15:14:03Z</time>
      </trkpt>
      <trkpt lat="37.1860448755" lon="-7.57758813106">
        <ele>104.6</ele>
        <time>2011-03-23T15:14:08Z</time>
      </trkpt>
      <trkpt lat="37.1860274412" lon="-7.57754094096">
        <ele>104.4</ele>
        <time>2011-03-23T15:14:11Z</time>
      </trkpt>
      <trkpt lat="37.1860151198" lon="-7.5774872968">
        <ele>104.4</ele>
        <time>2011-03-23T15:14:14Z</time>
      </trkpt>
      <trkpt lat="37.186009001" lon="-7.57746709642">
        <ele>104.2</ele>
        <time>2011-03-23T15:14:15Z</time>
      </trkpt>
      <trkpt lat="37.1859910637" lon="-7.5774118597">
        <ele>104.2</ele>
        <time>2011-03-23T15:14:18Z</time>
      </trkpt>
      <trkpt lat="37.1859859508" lon="-7.57739593409">
        <ele>104.2</ele>
        <time>2011-03-23T15:14:19Z</time>
      </trkpt>
      <trkpt lat="37.1859715339" lon="-7.57734731907">
        <ele>104</ele>
        <time>2011-03-23T15:14:22Z</time>
      </trkpt>
      <trkpt lat="37.1859665048" lon="-7.57733382421">
        <ele>104</ele>
        <time>2011-03-23T15:14:23Z</time>
      </trkpt>
      <trkpt lat="37.1859532613" lon="-7.57728034769">
        <ele>104</ele>
        <time>2011-03-23T15:14:27Z</time>
      </trkpt>
      <trkpt lat="37.1859480646" lon="-7.57727733021">
        <ele>104</ele>
        <time>2011-03-23T15:14:28Z</time>
      </trkpt>
      <trkpt lat="37.1859451309" lon="-7.57727305544">
        <ele>104</ele>
        <time>2011-03-23T15:14:29Z</time>
      </trkpt>
      <trkpt lat="37.1859268584" lon="-7.5772274579">
        <ele>104</ele>
        <time>2011-03-23T15:14:32Z</time>
      </trkpt>
      <trkpt lat="37.1859082505" lon="-7.57717146681">
        <ele>104</ele>
        <time>2011-03-23T15:14:35Z</time>
      </trkpt>
      <trkpt lat="37.185872376" lon="-7.57711522426">
        <ele>104</ele>
        <time>2011-03-23T15:14:38Z</time>
      </trkpt>
      <trkpt lat="37.1858553608" lon="-7.57706560341">
        <ele>104</ele>
        <time>2011-03-23T15:14:40Z</time>
      </trkpt>
      <trkpt lat="37.1858152953" lon="-7.57696057821">
        <ele>104</ele>
        <time>2011-03-23T15:14:44Z</time>
      </trkpt>
      <trkpt lat="37.1857924127" lon="-7.57690207254">
        <ele>104</ele>
        <time>2011-03-23T15:14:46Z</time>
      </trkpt>
      <trkpt lat="37.1857624055" lon="-7.5768202652">
        <ele>104</ele>
        <time>2011-03-23T15:14:49Z</time>
      </trkpt>
      <trkpt lat="37.1857416184" lon="-7.5767651123">
        <ele>104</ele>
        <time>2011-03-23T15:14:51Z</time>
      </trkpt>
      <trkpt lat="37.1857222562" lon="-7.57670794774">
        <ele>104</ele>
        <time>2011-03-23T15:14:53Z</time>
      </trkpt>
      <trkpt lat="37.1857003794" lon="-7.57664944208">
        <ele>104</ele>
        <time>2011-03-23T15:14:55Z</time>
      </trkpt>
      <trkpt lat="37.1856815202" lon="-7.57658892476">
        <ele>104</ele>
        <time>2011-03-23T15:14:57Z</time>
      </trkpt>
      <trkpt lat="37.185664924" lon="-7.57652740161">
        <ele>103.6</ele>
        <time>2011-03-23T15:14:59Z</time>
      </trkpt>
      <trkpt lat="37.1856412032" lon="-7.57646411827">
        <ele>103.2</ele>
        <time>2011-03-23T15:15:01Z</time>
      </trkpt>
      <trkpt lat="37.1856230983" lon="-7.57640058347">
        <ele>103</ele>
        <time>2011-03-23T15:15:03Z</time>
      </trkpt>
      <trkpt lat="37.1856080947" lon="-7.57633830595">
        <ele>102.8</ele>
        <time>2011-03-23T15:15:05Z</time>
      </trkpt>
      <trkpt lat="37.1855831166" lon="-7.5762569177">
        <ele>102.6</ele>
        <time>2011-03-23T15:15:08Z</time>
      </trkpt>
      <trkpt lat="37.1855609046" lon="-7.57617184142">
        <ele>102.4</ele>
        <time>2011-03-23T15:15:11Z</time>
      </trkpt>
      <trkpt lat="37.1855354236" lon="-7.57608827387">
        <ele>102.2</ele>
        <time>2011-03-23T15:15:14Z</time>
      </trkpt>
      <trkpt lat="37.1855151394" lon="-7.57603069022">
        <ele>102.2</ele>
        <time>2011-03-23T15:15:16Z</time>
      </trkpt>
      <trkpt lat="37.1854949391" lon="-7.57597411239">
        <ele>102.2</ele>
        <time>2011-03-23T15:15:18Z</time>
      </trkpt>
      <trkpt lat="37.1854725594" lon="-7.57589213741">
        <ele>102</ele>
        <time>2011-03-23T15:15:21Z</time>
      </trkpt>
      <trkpt lat="37.1854516885" lon="-7.57581259318">
        <ele>102</ele>
        <time>2011-03-23T15:15:24Z</time>
      </trkpt>
      <trkpt lat="37.1854218489" lon="-7.57574511889">
        <ele>101.4</ele>
        <time>2011-03-23T15:15:27Z</time>
      </trkpt>
      <trkpt lat="37.1853965356" lon="-7.57567043616">
        <ele>101</ele>
        <time>2011-03-23T15:15:30Z</time>
      </trkpt>
      <trkpt lat="37.1853877346" lon="-7.57564319498">
        <ele>100.8</ele>
        <time>2011-03-23T15:15:31Z</time>
      </trkpt>
      <trkpt lat="37.1853661931" lon="-7.57559131102">
        <ele>100.8</ele>
        <time>2011-03-23T15:15:33Z</time>
      </trkpt>
      <trkpt lat="37.1853422208" lon="-7.57551243734">
        <ele>100.4</ele>
        <time>2011-03-23T15:15:36Z</time>
      </trkpt>
      <trkpt lat="37.1853273849" lon="-7.57545870936">
        <ele>100.4</ele>
        <time>2011-03-23T15:15:38Z</time>
      </trkpt>
      <trkpt lat="37.1853067654" lon="-7.5753865412">
        <ele>100.2</ele>
        <time>2011-03-23T15:15:41Z</time>
      </trkpt>
      <trkpt lat="37.1852887443" lon="-7.57532174912">
        <ele>100.2</ele>
        <time>2011-03-23T15:15:44Z</time>
      </trkpt>
      <trkpt lat="37.1852706394" lon="-7.57527229591">
        <ele>100</ele>
        <time>2011-03-23T15:15:47Z</time>
      </trkpt>
      <trkpt lat="37.185257396" lon="-7.57522150159">
        <ele>100</ele>
        <time>2011-03-23T15:15:50Z</time>
      </trkpt>
      <trkpt lat="37.1852489303" lon="-7.57517095874">
        <ele>100</ele>
        <time>2011-03-23T15:15:53Z</time>
      </trkpt>
      <trkpt lat="37.1852361898" lon="-7.57512016442">
        <ele>100</ele>
        <time>2011-03-23T15:15:56Z</time>
      </trkpt>
      <trkpt lat="37.1852177496" lon="-7.57506408951">
        <ele>100</ele>
        <time>2011-03-23T15:15:59Z</time>
      </trkpt>
      <trkpt lat="37.1852025784" lon="-7.5750132952">
        <ele>100</ele>
        <time>2011-03-23T15:16:02Z</time>
      </trkpt>
      <trkpt lat="37.1851878262" lon="-7.57496417726">
        <ele>99.8</ele>
        <time>2011-03-23T15:16:05Z</time>
      </trkpt>
      <trkpt lat="37.1851645246" lon="-7.57491237712">
        <ele>99.8</ele>
        <time>2011-03-23T15:16:08Z</time>
      </trkpt>
      <trkpt lat="37.1851390436" lon="-7.57486568994">
        <ele>99.8</ele>
        <time>2011-03-23T15:16:11Z</time>
      </trkpt>
      <trkpt lat="37.1851114671" lon="-7.57482143351">
        <ele>99.8</ele>
        <time>2011-03-23T15:16:14Z</time>
      </trkpt>
      <trkpt lat="37.1850794483" lon="-7.57478237385">
        <ele>99.8</ele>
        <time>2011-03-23T15:16:17Z</time>
      </trkpt>
      <trkpt lat="37.1850487705" lon="-7.57473870415">
        <ele>99.8</ele>
        <time>2011-03-23T15:16:20Z</time>
      </trkpt>
      <trkpt lat="37.1850206912" lon="-7.57469972832">
        <ele>99.8</ele>
        <time>2011-03-23T15:16:23Z</time>
      </trkpt>
      <trkpt lat="37.1849923603" lon="-7.57466527871">
        <ele>99.8</ele>
        <time>2011-03-23T15:16:26Z</time>
      </trkpt>
      <trkpt lat="37.1849612635" lon="-7.57463451714">
        <ele>99.8</ele>
        <time>2011-03-23T15:16:29Z</time>
      </trkpt>
      <trkpt lat="37.1849316754" lon="-7.57460090572">
        <ele>99.8</ele>
        <time>2011-03-23T15:16:32Z</time>
      </trkpt>
      <trkpt lat="37.1848993212" lon="-7.57456285189">
        <ele>99.8</ele>
        <time>2011-03-23T15:16:35Z</time>
      </trkpt>
      <trkpt lat="37.1848636143" lon="-7.57451943365">
        <ele>99.8</ele>
        <time>2011-03-23T15:16:38Z</time>
      </trkpt>
      <trkpt lat="37.1848257282" lon="-7.57447961962">
        <ele>99.8</ele>
        <time>2011-03-23T15:16:41Z</time>
      </trkpt>
      <trkpt lat="37.1847905242" lon="-7.57444072761">
        <ele>99.8</ele>
        <time>2011-03-23T15:16:44Z</time>
      </trkpt>
      <trkpt lat="37.1847585891" lon="-7.57440292524">
        <ele>99.8</ele>
        <time>2011-03-23T15:16:47Z</time>
      </trkpt>
      <trkpt lat="37.1847269056" lon="-7.57436285976">
        <ele>99.8</ele>
        <time>2011-03-23T15:16:50Z</time>
      </trkpt>
      <trkpt lat="37.1846954734" lon="-7.57432128553">
        <ele>99.8</ele>
        <time>2011-03-23T15:16:53Z</time>
      </trkpt>
      <trkpt lat="37.1846674779" lon="-7.57427971131">
        <ele>99.8</ele>
        <time>2011-03-23T15:16:56Z</time>
      </trkpt>
      <trkpt lat="37.1846435895" lon="-7.5742382209">
        <ele>99.8</ele>
        <time>2011-03-23T15:16:59Z</time>
      </trkpt>
      <trkpt lat="37.1846231376" lon="-7.57419974798">
        <ele>99.8</ele>
        <time>2011-03-23T15:17:02Z</time>
      </trkpt>
      <trkpt lat="37.1846103133" lon="-7.57416915405">
        <ele>99.8</ele>
        <time>2011-03-23T15:17:04Z</time>
      </trkpt>
      <trkpt lat="37.1846005903" lon="-7.57410670889">
        <ele>99.8</ele>
        <time>2011-03-23T15:17:08Z</time>
      </trkpt>
      <trkpt lat="37.1845969861" lon="-7.57405876443">
        <ele>99.8</ele>
        <time>2011-03-23T15:17:11Z</time>
      </trkpt>
      <trkpt lat="37.1845888557" lon="-7.5740074672">
        <ele>100</ele>
        <time>2011-03-23T15:17:14Z</time>
      </trkpt>
      <trkpt lat="37.1845866764" lon="-7.57394845862">
        <ele>100.6</ele>
        <time>2011-03-23T15:17:17Z</time>
      </trkpt>
      <trkpt lat="37.18458961" lon="-7.57389330572">
        <ele>101</ele>
        <time>2011-03-23T15:17:20Z</time>
      </trkpt>
      <trkpt lat="37.1845900291" lon="-7.57383915865">
        <ele>101.2</ele>
        <time>2011-03-23T15:17:23Z</time>
      </trkpt>
      <trkpt lat="37.1845953935" lon="-7.57379012453">
        <ele>101.4</ele>
        <time>2011-03-23T15:17:26Z</time>
      </trkpt>
      <trkpt lat="37.1846052004" lon="-7.57374259916">
        <ele>101.6</ele>
        <time>2011-03-23T15:17:29Z</time>
      </trkpt>
      <trkpt lat="37.1846188629" lon="-7.57368836826">
        <ele>101.6</ele>
        <time>2011-03-23T15:17:32Z</time>
      </trkpt>
      <trkpt lat="37.184636381" lon="-7.57363438883">
        <ele>101.6</ele>
        <time>2011-03-23T15:17:35Z</time>
      </trkpt>
      <trkpt lat="37.1846524743" lon="-7.57357864919">
        <ele>102.2</ele>
        <time>2011-03-23T15:17:38Z</time>
      </trkpt>
      <trkpt lat="37.1846736805" lon="-7.57352634614">
        <ele>102.8</ele>
        <time>2011-03-23T15:17:41Z</time>
      </trkpt>
      <trkpt lat="37.1846927074" lon="-7.57347680911">
        <ele>103</ele>
        <time>2011-03-23T15:17:44Z</time>
      </trkpt>
      <trkpt lat="37.1847120696" lon="-7.57342324877">
        <ele>103.2</ele>
        <time>2011-03-23T15:17:47Z</time>
      </trkpt>
      <trkpt lat="37.1847307612" lon="-7.57336742531">
        <ele>103.4</ele>
        <time>2011-03-23T15:17:50Z</time>
      </trkpt>
      <trkpt lat="37.1847533924" lon="-7.57331562517">
        <ele>103.6</ele>
        <time>2011-03-23T15:17:53Z</time>
      </trkpt>
      <trkpt lat="37.1847689827" lon="-7.57326717779">
        <ele>103.6</ele>
        <time>2011-03-23T15:17:56Z</time>
      </trkpt>
      <trkpt lat="37.1847922006" lon="-7.57321965242">
        <ele>103.8</ele>
        <time>2011-03-23T15:17:59Z</time>
      </trkpt>
      <trkpt lat="37.1848166757" lon="-7.57316684645">
        <ele>103.8</ele>
        <time>2011-03-23T15:18:02Z</time>
      </trkpt>
      <trkpt lat="37.1848414861" lon="-7.57311756087">
        <ele>103.8</ele>
        <time>2011-03-23T15:18:05Z</time>
      </trkpt>
      <trkpt lat="37.1848652907" lon="-7.5730717957">
        <ele>103.8</ele>
        <time>2011-03-23T15:18:08Z</time>
      </trkpt>
      <trkpt lat="37.1848854073" lon="-7.57302494088">
        <ele>103.8</ele>
        <time>2011-03-23T15:18:11Z</time>
      </trkpt>
      <trkpt lat="37.1849047695" lon="-7.57297984626">
        <ele>103.8</ele>
        <time>2011-03-23T15:18:14Z</time>
      </trkpt>
      <trkpt lat="37.1849474333" lon="-7.57287783853">
        <ele>104</ele>
        <time>2011-03-23T15:18:20Z</time>
      </trkpt>
      <trkpt lat="37.1849693939" lon="-7.57282553548">
        <ele>104</ele>
        <time>2011-03-23T15:18:23Z</time>
      </trkpt>
      <trkpt lat="37.1849928632" lon="-7.57277465735">
        <ele>104</ele>
        <time>2011-03-23T15:18:26Z</time>
      </trkpt>
      <trkpt lat="37.1850140695" lon="-7.57272864071">
        <ele>104</ele>
        <time>2011-03-23T15:18:29Z</time>
      </trkpt>
      <trkpt lat="37.1850356948" lon="-7.57268455192">
        <ele>104</ele>
        <time>2011-03-23T15:18:32Z</time>
      </trkpt>
      <trkpt lat="37.1850597508" lon="-7.57263954112">
        <ele>104.4</ele>
        <time>2011-03-23T15:18:35Z</time>
      </trkpt>
      <trkpt lat="37.1850847289" lon="-7.57258807625">
        <ele>104.8</ele>
        <time>2011-03-23T15:18:38Z</time>
      </trkpt>
      <trkpt lat="37.1851070247" lon="-7.57253493501">
        <ele>105.2</ele>
        <time>2011-03-23T15:18:41Z</time>
      </trkpt>
      <trkpt lat="37.1851276442" lon="-7.57248975656">
        <ele>105.4</ele>
        <time>2011-03-23T15:18:44Z</time>
      </trkpt>
      <trkpt lat="37.1851483475" lon="-7.57244038717">
        <ele>105.6</ele>
        <time>2011-03-23T15:18:47Z</time>
      </trkpt>
      <trkpt lat="37.185168967" lon="-7.57239068251">
        <ele>105.6</ele>
        <time>2011-03-23T15:18:50Z</time>
      </trkpt>
      <trkpt lat="37.1851887482" lon="-7.57233670307">
        <ele>105.8</ele>
        <time>2011-03-23T15:18:53Z</time>
      </trkpt>
      <trkpt lat="37.1852062664" lon="-7.57228289127">
        <ele>106.2</ele>
        <time>2011-03-23T15:18:56Z</time>
      </trkpt>
      <trkpt lat="37.1852209347" lon="-7.57223377334">
        <ele>106.8</ele>
        <time>2011-03-23T15:18:59Z</time>
      </trkpt>
      <trkpt lat="37.185231915" lon="-7.5721846554">
        <ele>107.2</ele>
        <time>2011-03-23T15:19:02Z</time>
      </trkpt>
      <trkpt lat="37.1852475054" lon="-7.5721396446">
        <ele>107.4</ele>
        <time>2011-03-23T15:19:05Z</time>
      </trkpt>
      <trkpt lat="37.1852519478" lon="-7.57212589829">
        <ele>107.4</ele>
        <time>2011-03-23T15:19:06Z</time>
      </trkpt>
      <trkpt lat="37.185269885" lon="-7.57207820527">
        <ele>107.6</ele>
        <time>2011-03-23T15:19:10Z</time>
      </trkpt>
      <trkpt lat="37.185274998" lon="-7.57205297576">
        <ele>107.8</ele>
        <time>2011-03-23T15:19:15Z</time>
      </trkpt>
      <trkpt lat="37.1852673705" lon="-7.57204844953">
        <ele>108</ele>
        <time>2011-03-23T15:19:21Z</time>
      </trkpt>
      <trkpt lat="37.1853969546" lon="-7.57200033742">
        <ele>109.4</ele>
        <time>2011-03-23T15:21:20Z</time>
      </trkpt>
      <trkpt lat="37.1854393671" lon="-7.5720006727">
        <ele>109.6</ele>
        <time>2011-03-23T15:21:22Z</time>
      </trkpt>
      <trkpt lat="37.1855012255" lon="-7.57199648175">
        <ele>109.8</ele>
        <time>2011-03-23T15:21:25Z</time>
      </trkpt>
      <trkpt lat="37.1855507625" lon="-7.57198240016">
        <ele>109.8</ele>
        <time>2011-03-23T15:21:27Z</time>
      </trkpt>
      <trkpt lat="37.185597785" lon="-7.57196446289">
        <ele>109.8</ele>
        <time>2011-03-23T15:21:29Z</time>
      </trkpt>
      <trkpt lat="37.1856609845" lon="-7.57193730554">
        <ele>110</ele>
        <time>2011-03-23T15:21:32Z</time>
      </trkpt>
      <trkpt lat="37.185706582" lon="-7.57191693752">
        <ele>110</ele>
        <time>2011-03-23T15:21:34Z</time>
      </trkpt>
      <trkpt lat="37.1857476533" lon="-7.57188701414">
        <ele>110</ele>
        <time>2011-03-23T15:21:36Z</time>
      </trkpt>
      <trkpt lat="37.1857860424" lon="-7.57185097197">
        <ele>110</ele>
        <time>2011-03-23T15:21:38Z</time>
      </trkpt>
      <trkpt lat="37.1858216655" lon="-7.57181149322">
        <ele>110</ele>
        <time>2011-03-23T15:21:40Z</time>
      </trkpt>
      <trkpt lat="37.1858572048" lon="-7.57177033809">
        <ele>110</ele>
        <time>2011-03-23T15:21:42Z</time>
      </trkpt>
      <trkpt lat="37.1858951748" lon="-7.57172381854">
        <ele>110</ele>
        <time>2011-03-23T15:21:44Z</time>
      </trkpt>
      <trkpt lat="37.1859313008" lon="-7.57167972975">
        <ele>110</ele>
        <time>2011-03-23T15:21:46Z</time>
      </trkpt>
      <trkpt lat="37.1859642416" lon="-7.57163103091">
        <ele>110</ele>
        <time>2011-03-23T15:21:48Z</time>
      </trkpt>
      <trkpt lat="37.1859991942" lon="-7.57158233207">
        <ele>110</ele>
        <time>2011-03-23T15:21:50Z</time>
      </trkpt>
      <trkpt lat="37.1860303748" lon="-7.57153271122">
        <ele>110</ele>
        <time>2011-03-23T15:21:52Z</time>
      </trkpt>
      <trkpt lat="37.1860607173" lon="-7.57148510203">
        <ele>110</ele>
        <time>2011-03-23T15:21:54Z</time>
      </trkpt>
      <trkpt lat="37.1860908083" lon="-7.5714338048">
        <ele>110.2</ele>
        <time>2011-03-23T15:21:56Z</time>
      </trkpt>
      <trkpt lat="37.1861208155" lon="-7.57138552506">
        <ele>110.2</ele>
        <time>2011-03-23T15:21:58Z</time>
      </trkpt>
      <trkpt lat="37.1861643176" lon="-7.57132416955">
        <ele>110.2</ele>
        <time>2011-03-23T15:22:01Z</time>
      </trkpt>
      <trkpt lat="37.1861965041" lon="-7.57128075131">
        <ele>110.2</ele>
        <time>2011-03-23T15:22:03Z</time>
      </trkpt>
      <trkpt lat="37.1862512379" lon="-7.5712264366">
        <ele>110.2</ele>
        <time>2011-03-23T15:22:06Z</time>
      </trkpt>
      <trkpt lat="37.1863089054" lon="-7.57118209635">
        <ele>110.2</ele>
        <time>2011-03-23T15:22:09Z</time>
      </trkpt>
      <trkpt lat="37.1863674948" lon="-7.57114814965">
        <ele>110.2</ele>
        <time>2011-03-23T15:22:12Z</time>
      </trkpt>
      <trkpt lat="37.1864109969" lon="-7.57112535088">
        <ele>110.2</ele>
        <time>2011-03-23T15:22:14Z</time>
      </trkpt>
      <trkpt lat="37.1864743641" lon="-7.57110230066">
        <ele>110.2</ele>
        <time>2011-03-23T15:22:17Z</time>
      </trkpt>
      <trkpt lat="37.1865224762" lon="-7.57108897344">
        <ele>110.2</ele>
        <time>2011-03-23T15:22:20Z</time>
      </trkpt>
      <trkpt lat="37.1865820715" lon="-7.57107749023">
        <ele>110.2</ele>
        <time>2011-03-23T15:22:22Z</time>
      </trkpt>
      <trkpt lat="37.1866249868" lon="-7.57106961125">
        <ele>110.2</ele>
        <time>2011-03-23T15:22:24Z</time>
      </trkpt>
      <trkpt lat="37.1866875158" lon="-7.57106164844">
        <ele>110.2</ele>
        <time>2011-03-23T15:22:27Z</time>
      </trkpt>
      <trkpt lat="37.1867349573" lon="-7.5710570384">
        <ele>110.2</ele>
        <time>2011-03-23T15:22:29Z</time>
      </trkpt>
      <trkpt lat="37.1867789623" lon="-7.57105150634">
        <ele>110.2</ele>
        <time>2011-03-23T15:22:31Z</time>
      </trkpt>
      <trkpt lat="37.1868216262" lon="-7.57104454937">
        <ele>110.2</ele>
        <time>2011-03-23T15:22:33Z</time>
      </trkpt>
      <trkpt lat="37.1868876756" lon="-7.57103918495">
        <ele>110.2</ele>
        <time>2011-03-23T15:22:36Z</time>
      </trkpt>
      <trkpt lat="37.1869466841" lon="-7.57102845612">
        <ele>110.2</ele>
        <time>2011-03-23T15:22:39Z</time>
      </trkpt>
      <trkpt lat="37.1870108895" lon="-7.57101387161">
        <ele>110.2</ele>
        <time>2011-03-23T15:22:42Z</time>
      </trkpt>
      <trkpt lat="37.1870706524" lon="-7.57100205313">
        <ele>110.4</ele>
        <time>2011-03-23T15:22:45Z</time>
      </trkpt>
      <trkpt lat="37.1871170882" lon="-7.57099526379">
        <ele>110.8</ele>
        <time>2011-03-23T15:22:47Z</time>
      </trkpt>
      <trkpt lat="37.1871825508" lon="-7.5709732194">
        <ele>111.2</ele>
        <time>2011-03-23T15:22:50Z</time>
      </trkpt>
      <trkpt lat="37.1872274778" lon="-7.57095930544">
        <ele>111.4</ele>
        <time>2011-03-23T15:22:52Z</time>
      </trkpt>
      <trkpt lat="37.187291264" lon="-7.57093139372">
        <ele>111.6</ele>
        <time>2011-03-23T15:22:55Z</time>
      </trkpt>
      <trkpt lat="37.1873356881" lon="-7.57091110952">
        <ele>111.6</ele>
        <time>2011-03-23T15:22:57Z</time>
      </trkpt>
      <trkpt lat="37.1874003964" lon="-7.57087791719">
        <ele>111.8</ele>
        <time>2011-03-23T15:23:00Z</time>
      </trkpt>
      <trkpt lat="37.1874420544" lon="-7.57085210094">
        <ele>112.2</ele>
        <time>2011-03-23T15:23:02Z</time>
      </trkpt>
      <trkpt lat="37.187485305" lon="-7.57082812871">
        <ele>112.6</ele>
        <time>2011-03-23T15:23:04Z</time>
      </trkpt>
      <trkpt lat="37.187546912" lon="-7.57080155809">
        <ele>113</ele>
        <time>2011-03-23T15:23:07Z</time>
      </trkpt>
      <trkpt lat="37.1876087704" lon="-7.57077322726">
        <ele>113.4</ele>
        <time>2011-03-23T15:23:10Z</time>
      </trkpt>
      <trkpt lat="37.1876507637" lon="-7.57075285925">
        <ele>113.4</ele>
        <time>2011-03-23T15:23:12Z</time>
      </trkpt>
      <trkpt lat="37.1877150529" lon="-7.57072737827">
        <ele>113.6</ele>
        <time>2011-03-23T15:23:15Z</time>
      </trkpt>
      <trkpt lat="37.1877603152" lon="-7.57071086593">
        <ele>114.2</ele>
        <time>2011-03-23T15:23:17Z</time>
      </trkpt>
      <trkpt lat="37.1878061642" lon="-7.5706948565">
        <ele>114.6</ele>
        <time>2011-03-23T15:23:19Z</time>
      </trkpt>
      <trkpt lat="37.1878504206" lon="-7.57067750597">
        <ele>114.8</ele>
        <time>2011-03-23T15:23:21Z</time>
      </trkpt>
      <trkpt lat="37.1878974431" lon="-7.57065328227">
        <ele>115.2</ele>
        <time>2011-03-23T15:23:24Z</time>
      </trkpt>
      <trkpt lat="37.1879362513" lon="-7.57063115406">
        <ele>115.8</ele>
        <time>2011-03-23T15:23:27Z</time>
      </trkpt>
      <trkpt lat="37.1879807591" lon="-7.57060248796">
        <ele>116.4</ele>
        <time>2011-03-23T15:23:30Z</time>
      </trkpt>
      <trkpt lat="37.1880287874" lon="-7.57057734226">
        <ele>117</ele>
        <time>2011-03-23T15:23:33Z</time>
      </trkpt>
      <trkpt lat="37.1880840241" lon="-7.57055228038">
        <ele>117.4</ele>
        <time>2011-03-23T15:23:36Z</time>
      </trkpt>
      <trkpt lat="37.188142446" lon="-7.57052428483">
        <ele>117.6</ele>
        <time>2011-03-23T15:23:39Z</time>
      </trkpt>
      <trkpt lat="37.1882019575" lon="-7.57049561874">
        <ele>117.8</ele>
        <time>2011-03-23T15:23:42Z</time>
      </trkpt>
      <trkpt lat="37.1882639835" lon="-7.57046301314">
        <ele>118</ele>
        <time>2011-03-23T15:23:45Z</time>
      </trkpt>
      <trkpt lat="37.1883273507" lon="-7.57043401177">
        <ele>118.2</ele>
        <time>2011-03-23T15:23:48Z</time>
      </trkpt>
      <trkpt lat="37.188386024" lon="-7.57040559713">
        <ele>118.2</ele>
        <time>2011-03-23T15:23:51Z</time>
      </trkpt>
      <trkpt lat="37.1884469604" lon="-7.57037743395">
        <ele>118.6</ele>
        <time>2011-03-23T15:23:54Z</time>
      </trkpt>
      <trkpt lat="37.1884878641" lon="-7.5703542999">
        <ele>119</ele>
        <time>2011-03-23T15:23:56Z</time>
      </trkpt>
      <trkpt lat="37.1885288516" lon="-7.57033418334">
        <ele>119.2</ele>
        <time>2011-03-23T15:23:58Z</time>
      </trkpt>
      <trkpt lat="37.188589788" lon="-7.57030375704">
        <ele>119.6</ele>
        <time>2011-03-23T15:24:01Z</time>
      </trkpt>
      <trkpt lat="37.1886306078" lon="-7.57027919808">
        <ele>119.8</ele>
        <time>2011-03-23T15:24:03Z</time>
      </trkpt>
      <trkpt lat="37.1886761216" lon="-7.57025757278">
        <ele>119.8</ele>
        <time>2011-03-23T15:24:05Z</time>
      </trkpt>
      <trkpt lat="37.1887368065" lon="-7.57022630829">
        <ele>120</ele>
        <time>2011-03-23T15:24:08Z</time>
      </trkpt>
      <trkpt lat="37.1887946416" lon="-7.57019747455">
        <ele>120.2</ele>
        <time>2011-03-23T15:24:11Z</time>
      </trkpt>
      <trkpt lat="37.1888346233" lon="-7.57017953729">
        <ele>120.2</ele>
        <time>2011-03-23T15:24:13Z</time>
      </trkpt>
      <trkpt lat="37.1888902791" lon="-7.5701513741">
        <ele>120.2</ele>
        <time>2011-03-23T15:24:16Z</time>
      </trkpt>
      <trkpt lat="37.1889520537" lon="-7.57011667304">
        <ele>120.4</ele>
        <time>2011-03-23T15:24:19Z</time>
      </trkpt>
      <trkpt lat="37.1890091345" lon="-7.57008440272">
        <ele>120.4</ele>
        <time>2011-03-23T15:24:22Z</time>
      </trkpt>
      <trkpt lat="37.1890715796" lon="-7.57005146185">
        <ele>120.4</ele>
        <time>2011-03-23T15:24:25Z</time>
      </trkpt>
      <trkpt lat="37.1891289118" lon="-7.57001399476">
        <ele>120.4</ele>
        <time>2011-03-23T15:24:28Z</time>
      </trkpt>
      <trkpt lat="37.1891900997" lon="-7.5699792937">
        <ele>120.4</ele>
        <time>2011-03-23T15:24:31Z</time>
      </trkpt>
      <trkpt lat="37.1892299975" lon="-7.56995096287">
        <ele>120.4</ele>
        <time>2011-03-23T15:24:33Z</time>
      </trkpt>
      <trkpt lat="37.1892894252" lon="-7.56990737699">
        <ele>120.4</ele>
        <time>2011-03-23T15:24:36Z</time>
      </trkpt>
      <trkpt lat="37.1893297421" lon="-7.56987384939">
        <ele>120.4</ele>
        <time>2011-03-23T15:24:38Z</time>
      </trkpt>
      <trkpt lat="37.1893818775" lon="-7.56982037287">
        <ele>120.4</ele>
        <time>2011-03-23T15:24:41Z</time>
      </trkpt>
      <trkpt lat="37.1894175006" lon="-7.56978391161">
        <ele>120.4</ele>
        <time>2011-03-23T15:24:43Z</time>
      </trkpt>
      <trkpt lat="37.1894515311" lon="-7.56974560632">
        <ele>120.4</ele>
        <time>2011-03-23T15:24:45Z</time>
      </trkpt>
      <trkpt lat="37.1895013196" lon="-7.56969154307">
        <ele>120.4</ele>
        <time>2011-03-23T15:24:48Z</time>
      </trkpt>
      <trkpt lat="37.1895371942" lon="-7.56965147759">
        <ele>120.4</ele>
        <time>2011-03-23T15:24:50Z</time>
      </trkpt>
      <trkpt lat="37.1895703865" lon="-7.5696131723">
        <ele>120.4</ele>
        <time>2011-03-23T15:24:52Z</time>
      </trkpt>
      <trkpt lat="37.189622019" lon="-7.56955743267">
        <ele>120.4</ele>
        <time>2011-03-23T15:24:55Z</time>
      </trkpt>
      <trkpt lat="37.189672478" lon="-7.56949473606">
        <ele>120.4</ele>
        <time>2011-03-23T15:24:58Z</time>
      </trkpt>
      <trkpt lat="37.1897126273" lon="-7.56945332947">
        <ele>120.4</ele>
        <time>2011-03-23T15:25:00Z</time>
      </trkpt>
      <trkpt lat="37.189750765" lon="-7.56941309635">
        <ele>120.4</ele>
        <time>2011-03-23T15:25:02Z</time>
      </trkpt>
      <trkpt lat="37.1897832029" lon="-7.56937445579">
        <ele>120.4</ele>
        <time>2011-03-23T15:25:04Z</time>
      </trkpt>
      <trkpt lat="37.1898194965" lon="-7.56933497704">
        <ele>120.4</ele>
        <time>2011-03-23T15:25:06Z</time>
      </trkpt>
      <trkpt lat="37.1898774993" lon="-7.56927814776">
        <ele>120.4</ele>
        <time>2011-03-23T15:25:09Z</time>
      </trkpt>
      <trkpt lat="37.1899292994" lon="-7.56922006119">
        <ele>120.4</ele>
        <time>2011-03-23T15:25:12Z</time>
      </trkpt>
      <trkpt lat="37.1899805967" lon="-7.56916222608">
        <ele>120.4</ele>
        <time>2011-03-23T15:25:15Z</time>
      </trkpt>
      <trkpt lat="37.1900154654" lon="-7.56912442371">
        <ele>120.4</ele>
        <time>2011-03-23T15:25:17Z</time>
      </trkpt>
      <trkpt lat="37.190071205" lon="-7.56906868408">
        <ele>120.4</ele>
        <time>2011-03-23T15:25:20Z</time>
      </trkpt>
      <trkpt lat="37.1901080015" lon="-7.56903364774">
        <ele>120.4</ele>
        <time>2011-03-23T15:25:22Z</time>
      </trkpt>
      <trkpt lat="37.1901465583" lon="-7.56900062305">
        <ele>120.4</ele>
        <time>2011-03-23T15:25:24Z</time>
      </trkpt>
      <trkpt lat="37.190200873" lon="-7.56894580543">
        <ele>120.4</ele>
        <time>2011-03-23T15:25:27Z</time>
      </trkpt>
      <trkpt lat="37.1902383401" lon="-7.5689064105">
        <ele>120.4</ele>
        <time>2011-03-23T15:25:29Z</time>
      </trkpt>
      <trkpt lat="37.1902756395" lon="-7.56887145797">
        <ele>120.4</ele>
        <time>2011-03-23T15:25:31Z</time>
      </trkpt>
      <trkpt lat="37.1903153697" lon="-7.56883508053">
        <ele>120.4</ele>
        <time>2011-03-23T15:25:33Z</time>
      </trkpt>
      <trkpt lat="37.1903549323" lon="-7.56880264257">
        <ele>120.4</ele>
        <time>2011-03-23T15:25:35Z</time>
      </trkpt>
      <trkpt lat="37.1903986858" lon="-7.56877565286">
        <ele>120.4</ele>
        <time>2011-03-23T15:25:37Z</time>
      </trkpt>
      <trkpt lat="37.1904623883" lon="-7.56874380164">
        <ele>120.4</ele>
        <time>2011-03-23T15:25:40Z</time>
      </trkpt>
      <trkpt lat="37.1905252525" lon="-7.56871656046">
        <ele>120.4</ele>
        <time>2011-03-23T15:25:43Z</time>
      </trkpt>
      <trkpt lat="37.1905945708" lon="-7.56869937757">
        <ele>120.4</ele>
        <time>2011-03-23T15:25:46Z</time>
      </trkpt>
      <trkpt lat="37.1906449461" lon="-7.56869636008">
        <ele>120.4</ele>
        <time>2011-03-23T15:25:48Z</time>
      </trkpt>
      <trkpt lat="37.1907111631" lon="-7.56869275586">
        <ele>120.4</ele>
        <time>2011-03-23T15:25:51Z</time>
      </trkpt>
      <trkpt lat="37.1907589399" lon="-7.56869208531">
        <ele>120.4</ele>
        <time>2011-03-23T15:25:53Z</time>
      </trkpt>
      <trkpt lat="37.1908293479" lon="-7.56870021576">
        <ele>120.4</ele>
        <time>2011-03-23T15:25:56Z</time>
      </trkpt>
      <trkpt lat="37.1908758674" lon="-7.56869929375">
        <ele>120.4</ele>
        <time>2011-03-23T15:25:58Z</time>
      </trkpt>
      <trkpt lat="37.1909402404" lon="-7.5686946837">
        <ele>120.4</ele>
        <time>2011-03-23T15:26:01Z</time>
      </trkpt>
      <trkpt lat="37.1909883525" lon="-7.56869418079">
        <ele>120.4</ele>
        <time>2011-03-23T15:26:03Z</time>
      </trkpt>
      <trkpt lat="37.1910564973" lon="-7.56869426461">
        <ele>120.4</ele>
        <time>2011-03-23T15:26:06Z</time>
      </trkpt>
      <trkpt lat="37.1910993289" lon="-7.56869476752">
        <ele>120.4</ele>
        <time>2011-03-23T15:26:08Z</time>
      </trkpt>
      <trkpt lat="37.1911613549" lon="-7.56869309114">
        <ele>120.4</ele>
        <time>2011-03-23T15:26:11Z</time>
      </trkpt>
      <trkpt lat="37.1912052761" lon="-7.56868747527">
        <ele>120.4</ele>
        <time>2011-03-23T15:26:13Z</time>
      </trkpt>
      <trkpt lat="37.1912688109" lon="-7.56868345196">
        <ele>120.4</ele>
        <time>2011-03-23T15:26:16Z</time>
      </trkpt>
      <trkpt lat="37.1913102175" lon="-7.56868219467">
        <ele>120.4</ele>
        <time>2011-03-23T15:26:18Z</time>
      </trkpt>
      <trkpt lat="37.1913736684" lon="-7.56867842282">
        <ele>120.4</ele>
        <time>2011-03-23T15:26:21Z</time>
      </trkpt>
      <trkpt lat="37.1914384605" lon="-7.56867808754">
        <ele>120.4</ele>
        <time>2011-03-23T15:26:24Z</time>
      </trkpt>
      <trkpt lat="37.1915036717" lon="-7.56868076975">
        <ele>120.6</ele>
        <time>2011-03-23T15:26:27Z</time>
      </trkpt>
      <trkpt lat="37.1915672903" lon="-7.56867666262">
        <ele>121.2</ele>
        <time>2011-03-23T15:26:30Z</time>
      </trkpt>
      <trkpt lat="37.1916295678" lon="-7.5686765788">
        <ele>121.4</ele>
        <time>2011-03-23T15:26:33Z</time>
      </trkpt>
      <trkpt lat="37.1916903366" lon="-7.56867431568">
        <ele>121.8</ele>
        <time>2011-03-23T15:26:36Z</time>
      </trkpt>
      <trkpt lat="37.1917552963" lon="-7.56867230403">
        <ele>122</ele>
        <time>2011-03-23T15:26:39Z</time>
      </trkpt>
      <trkpt lat="37.191819837" lon="-7.56867138202">
        <ele>122</ele>
        <time>2011-03-23T15:26:42Z</time>
      </trkpt>
      <trkpt lat="37.1918847967" lon="-7.56867213639">
        <ele>122.2</ele>
        <time>2011-03-23T15:26:45Z</time>
      </trkpt>
      <trkpt lat="37.1919479124" lon="-7.5686677778">
        <ele>122.2</ele>
        <time>2011-03-23T15:26:48Z</time>
      </trkpt>
      <trkpt lat="37.1919923365" lon="-7.56866274866">
        <ele>122.4</ele>
        <time>2011-03-23T15:26:50Z</time>
      </trkpt>
      <trkpt lat="37.1920576315" lon="-7.56865428294">
        <ele>122.6</ele>
        <time>2011-03-23T15:26:53Z</time>
      </trkpt>
      <trkpt lat="37.1921214177" lon="-7.56864338647">
        <ele>123</ele>
        <time>2011-03-23T15:26:56Z</time>
      </trkpt>
      <trkpt lat="37.1921670991" lon="-7.5686360104">
        <ele>123.4</ele>
        <time>2011-03-23T15:26:58Z</time>
      </trkpt>
      <trkpt lat="37.1922331485" lon="-7.56861958188">
        <ele>123.6</ele>
        <time>2011-03-23T15:27:01Z</time>
      </trkpt>
      <trkpt lat="37.192278746" lon="-7.56860566792">
        <ele>123.8</ele>
        <time>2011-03-23T15:27:03Z</time>
      </trkpt>
      <trkpt lat="37.1923415264" lon="-7.56858161187">
        <ele>124</ele>
        <time>2011-03-23T15:27:06Z</time>
      </trkpt>
      <trkpt lat="37.1923833521" lon="-7.56856258496">
        <ele>124</ele>
        <time>2011-03-23T15:27:08Z</time>
      </trkpt>
      <trkpt lat="37.1924441209" lon="-7.56853324831">
        <ele>124.2</ele>
        <time>2011-03-23T15:27:11Z</time>
      </trkpt>
      <trkpt lat="37.1924817556" lon="-7.56850592331">
        <ele>124.2</ele>
        <time>2011-03-23T15:27:13Z</time>
      </trkpt>
      <trkpt lat="37.1925297001" lon="-7.56845227915">
        <ele>124.4</ele>
        <time>2011-03-23T15:27:16Z</time>
      </trkpt>
      <trkpt lat="37.1925671672" lon="-7.56839134274">
        <ele>124.4</ele>
        <time>2011-03-23T15:27:19Z</time>
      </trkpt>
      <trkpt lat="37.1926017844" lon="-7.5683241199">
        <ele>125</ele>
        <time>2011-03-23T15:27:22Z</time>
      </trkpt>
      <trkpt lat="37.1926379104" lon="-7.56825295757">
        <ele>125.4</ele>
        <time>2011-03-23T15:27:25Z</time>
      </trkpt>
      <trkpt lat="37.1926827536" lon="-7.56812094265">
        <ele>125.8</ele>
        <time>2011-03-23T15:27:30Z</time>
      </trkpt>
      <trkpt lat="37.1926954103" lon="-7.56806503537">
        <ele>126</ele>
        <time>2011-03-23T15:27:32Z</time>
      </trkpt>
      <trkpt lat="37.1927068935" lon="-7.56800334459">
        <ele>126</ele>
        <time>2011-03-23T15:27:34Z</time>
      </trkpt>
      <trkpt lat="37.1927124255" lon="-7.56794064798">
        <ele>126.2</ele>
        <time>2011-03-23T15:27:36Z</time>
      </trkpt>
      <trkpt lat="37.1927160297" lon="-7.56788356724">
        <ele>126.2</ele>
        <time>2011-03-23T15:27:38Z</time>
      </trkpt>
      <trkpt lat="37.1927179576" lon="-7.56781919425">
        <ele>126.4</ele>
        <time>2011-03-23T15:27:40Z</time>
      </trkpt>
      <trkpt lat="37.1927179576" lon="-7.56775725201">
        <ele>126.4</ele>
        <time>2011-03-23T15:27:42Z</time>
      </trkpt>
      <trkpt lat="37.1927110844" lon="-7.56769698614">
        <ele>126.4</ele>
        <time>2011-03-23T15:27:44Z</time>
      </trkpt>
      <trkpt lat="37.1927027025" lon="-7.56763428953">
        <ele>126.4</ele>
        <time>2011-03-23T15:27:46Z</time>
      </trkpt>
      <trkpt lat="37.1926956617" lon="-7.56757352076">
        <ele>126.4</ele>
        <time>2011-03-23T15:27:48Z</time>
      </trkpt>
      <trkpt lat="37.1926894591" lon="-7.56751250053">
        <ele>126.4</ele>
        <time>2011-03-23T15:27:50Z</time>
      </trkpt>
      <trkpt lat="37.1926832565" lon="-7.56745022301">
        <ele>126.4</ele>
        <time>2011-03-23T15:27:52Z</time>
      </trkpt>
      <trkpt lat="37.1926781435" lon="-7.56738911896">
        <ele>126.8</ele>
        <time>2011-03-23T15:27:54Z</time>
      </trkpt>
      <trkpt lat="37.1926749584" lon="-7.56732851782">
        <ele>127.2</ele>
        <time>2011-03-23T15:27:56Z</time>
      </trkpt>
      <trkpt lat="37.1926678338" lon="-7.56727143708">
        <ele>127.4</ele>
        <time>2011-03-23T15:27:58Z</time>
      </trkpt>
      <trkpt lat="37.1926585299" lon="-7.56721091976">
        <ele>127.6</ele>
        <time>2011-03-23T15:28:00Z</time>
      </trkpt>
      <trkpt lat="37.1926528302" lon="-7.56715031863">
        <ele>127.8</ele>
        <time>2011-03-23T15:28:02Z</time>
      </trkpt>
      <trkpt lat="37.1926452865" lon="-7.56709072332">
        <ele>128</ele>
        <time>2011-03-23T15:28:04Z</time>
      </trkpt>
      <trkpt lat="37.1926390001" lon="-7.56702861344">
        <ele>128</ele>
        <time>2011-03-23T15:28:06Z</time>
      </trkpt>
      <trkpt lat="37.1926317916" lon="-7.56697044305">
        <ele>128.2</ele>
        <time>2011-03-23T15:28:08Z</time>
      </trkpt>
      <trkpt lat="37.192623745" lon="-7.56691411668">
        <ele>128.2</ele>
        <time>2011-03-23T15:28:10Z</time>
      </trkpt>
      <trkpt lat="37.192614944" lon="-7.56685401846">
        <ele>128.4</ele>
        <time>2011-03-23T15:28:12Z</time>
      </trkpt>
      <trkpt lat="37.1926097472" lon="-7.56679526134">
        <ele>128.4</ele>
        <time>2011-03-23T15:28:14Z</time>
      </trkpt>
      <trkpt lat="37.1926048857" lon="-7.56673457639">
        <ele>128.4</ele>
        <time>2011-03-23T15:28:16Z</time>
      </trkpt>
      <trkpt lat="37.1926002757" lon="-7.5666750649">
        <ele>128.4</ele>
        <time>2011-03-23T15:28:18Z</time>
      </trkpt>
      <trkpt lat="37.1925925643" lon="-7.56661178155">
        <ele>128.4</ele>
        <time>2011-03-23T15:28:20Z</time>
      </trkpt>
      <trkpt lat="37.1925832604" lon="-7.56655050986">
        <ele>128.4</ele>
        <time>2011-03-23T15:28:22Z</time>
      </trkpt>
      <trkpt lat="37.1925721963" lon="-7.56645822514">
        <ele>128.6</ele>
        <time>2011-03-23T15:28:25Z</time>
      </trkpt>
      <trkpt lat="37.1925583662" lon="-7.56633107172">
        <ele>128.6</ele>
        <time>2011-03-23T15:28:29Z</time>
      </trkpt>
      <trkpt lat="37.1925556002" lon="-7.5662674531">
        <ele>128.6</ele>
        <time>2011-03-23T15:28:31Z</time>
      </trkpt>
      <trkpt lat="37.1925581147" lon="-7.56620995327">
        <ele>128.6</ele>
        <time>2011-03-23T15:28:33Z</time>
      </trkpt>
      <trkpt lat="37.1925632277" lon="-7.56614784339">
        <ele>128.6</ele>
        <time>2011-03-23T15:28:35Z</time>
      </trkpt>
      <trkpt lat="37.1925737889" lon="-7.56608648788">
        <ele>128.6</ele>
        <time>2011-03-23T15:28:37Z</time>
      </trkpt>
      <trkpt lat="37.1925864456" lon="-7.5660261382">
        <ele>128.6</ele>
        <time>2011-03-23T15:28:39Z</time>
      </trkpt>
      <trkpt lat="37.1926192188" lon="-7.56594935999">
        <ele>128.8</ele>
        <time>2011-03-23T15:28:42Z</time>
      </trkpt>
      <trkpt lat="37.192652914" lon="-7.56590317573">
        <ele>129.2</ele>
        <time>2011-03-23T15:28:44Z</time>
      </trkpt>
      <trkpt lat="37.1926865254" lon="-7.5658585002">
        <ele>129.4</ele>
        <time>2011-03-23T15:28:46Z</time>
      </trkpt>
      <trkpt lat="37.1927203045" lon="-7.56582120074">
        <ele>129.6</ele>
        <time>2011-03-23T15:28:48Z</time>
      </trkpt>
      <trkpt lat="37.1927568496" lon="-7.56578532621">
        <ele>129.8</ele>
        <time>2011-03-23T15:28:50Z</time>
      </trkpt>
      <trkpt lat="37.1927959931" lon="-7.56575909086">
        <ele>130</ele>
        <time>2011-03-23T15:28:52Z</time>
      </trkpt>
      <trkpt lat="37.1928400818" lon="-7.56573947722">
        <ele>130</ele>
        <time>2011-03-23T15:28:54Z</time>
      </trkpt>
      <trkpt lat="37.1928834163" lon="-7.56572807783">
        <ele>130.2</ele>
        <time>2011-03-23T15:28:56Z</time>
      </trkpt>
      <trkpt lat="37.1929273374" lon="-7.56572212669">
        <ele>130.2</ele>
        <time>2011-03-23T15:28:58Z</time>
      </trkpt>
      <trkpt lat="37.1929956499" lon="-7.56572204287">
        <ele>130.4</ele>
        <time>2011-03-23T15:29:01Z</time>
      </trkpt>
      <trkpt lat="37.1930406607" lon="-7.56573025713">
        <ele>130.4</ele>
        <time>2011-03-23T15:29:03Z</time>
      </trkpt>
      <trkpt lat="37.1931048661" lon="-7.5657508766">
        <ele>130.4</ele>
        <time>2011-03-23T15:29:06Z</time>
      </trkpt>
      <trkpt lat="37.1931480329" lon="-7.56577040643">
        <ele>130.4</ele>
        <time>2011-03-23T15:29:08Z</time>
      </trkpt>
      <trkpt lat="37.1931908644" lon="-7.56579127736">
        <ele>130.4</ele>
        <time>2011-03-23T15:29:10Z</time>
      </trkpt>
      <trkpt lat="37.193234115" lon="-7.56581239975">
        <ele>130.6</ele>
        <time>2011-03-23T15:29:12Z</time>
      </trkpt>
      <trkpt lat="37.193294297" lon="-7.56585330342">
        <ele>130.6</ele>
        <time>2011-03-23T15:29:15Z</time>
      </trkpt>
      <trkpt lat="37.1933352007" lon="-7.5658836459">
        <ele>130.6</ele>
        <time>2011-03-23T15:29:17Z</time>
      </trkpt>
      <trkpt lat="37.1933756853" lon="-7.56591080325">
        <ele>130.6</ele>
        <time>2011-03-23T15:29:19Z</time>
      </trkpt>
      <trkpt lat="37.1934350291" lon="-7.56595195838">
        <ele>130.6</ele>
        <time>2011-03-23T15:29:22Z</time>
      </trkpt>
      <trkpt lat="37.193496217" lon="-7.56599705301">
        <ele>130.6</ele>
        <time>2011-03-23T15:29:25Z</time>
      </trkpt>
      <trkpt lat="37.1935551417" lon="-7.56603963306">
        <ele>130.6</ele>
        <time>2011-03-23T15:29:28Z</time>
      </trkpt>
      <trkpt lat="37.1936762602" lon="-7.56611733327">
        <ele>130.6</ele>
        <time>2011-03-23T15:29:34Z</time>
      </trkpt>
      <trkpt lat="37.1937371966" lon="-7.56615639292">
        <ele>130.6</ele>
        <time>2011-03-23T15:29:37Z</time>
      </trkpt>
      <trkpt lat="37.1937975463" lon="-7.56619075871">
        <ele>130.6</ele>
        <time>2011-03-23T15:29:40Z</time>
      </trkpt>
      <trkpt lat="37.19385974" lon="-7.56621665879">
        <ele>130.6</ele>
        <time>2011-03-23T15:29:43Z</time>
      </trkpt>
      <trkpt lat="37.1939035773" lon="-7.5662308242">
        <ele>130.6</ele>
        <time>2011-03-23T15:29:45Z</time>
      </trkpt>
      <trkpt lat="37.1939698781" lon="-7.5662418883">
        <ele>130.6</ele>
        <time>2011-03-23T15:29:48Z</time>
      </trkpt>
      <trkpt lat="37.1940347541" lon="-7.56623409314">
        <ele>130.6</ele>
        <time>2011-03-23T15:29:51Z</time>
      </trkpt>
      <trkpt lat="37.1941034018" lon="-7.56621925717">
        <ele>130.6</ele>
        <time>2011-03-23T15:29:54Z</time>
      </trkpt>
      <trkpt lat="37.1941697026" lon="-7.56619738042">
        <ele>130.6</ele>
        <time>2011-03-23T15:29:57Z</time>
      </trkpt>
      <trkpt lat="37.19423022" lon="-7.56617290527">
        <ele>130.6</ele>
        <time>2011-03-23T15:30:00Z</time>
      </trkpt>
      <trkpt lat="37.1942732191" lon="-7.56615555473">
        <ele>130.6</ele>
        <time>2011-03-23T15:30:02Z</time>
      </trkpt>
      <trkpt lat="37.1943183975" lon="-7.56613870712">
        <ele>130.6</ele>
        <time>2011-03-23T15:30:04Z</time>
      </trkpt>
      <trkpt lat="37.1943800883" lon="-7.56611314232">
        <ele>130.6</ele>
        <time>2011-03-23T15:30:07Z</time>
      </trkpt>
      <trkpt lat="37.1944230037" lon="-7.56609126556">
        <ele>130.6</ele>
        <time>2011-03-23T15:30:09Z</time>
      </trkpt>
      <trkpt lat="37.1944805035" lon="-7.566052625">
        <ele>130.6</ele>
        <time>2011-03-23T15:30:12Z</time>
      </trkpt>
      <trkpt lat="37.1945391768" lon="-7.56601356535">
        <ele>130.6</ele>
        <time>2011-03-23T15:30:15Z</time>
      </trkpt>
      <trkpt lat="37.1945804996" lon="-7.56597995393">
        <ele>130.6</ele>
        <time>2011-03-23T15:30:17Z</time>
      </trkpt>
      <trkpt lat="37.1946343114" lon="-7.56592287319">
        <ele>130.6</ele>
        <time>2011-03-23T15:30:20Z</time>
      </trkpt>
      <trkpt lat="37.1946712755" lon="-7.56588020932">
        <ele>130.6</ele>
        <time>2011-03-23T15:30:22Z</time>
      </trkpt>
      <trkpt lat="37.1947169569" lon="-7.56581290266">
        <ele>130.6</ele>
        <time>2011-03-23T15:30:25Z</time>
      </trkpt>
      <trkpt lat="37.1947515741" lon="-7.56573788466">
        <ele>130.6</ele>
        <time>2011-03-23T15:30:28Z</time>
      </trkpt>
      <trkpt lat="37.1947695114" lon="-7.56568105538">
        <ele>130.6</ele>
        <time>2011-03-23T15:30:30Z</time>
      </trkpt>
      <trkpt lat="37.194788203" lon="-7.56562422609">
        <ele>130.6</ele>
        <time>2011-03-23T15:30:32Z</time>
      </trkpt>
      <trkpt lat="37.1947965849" lon="-7.56556613953">
        <ele>130.6</ele>
        <time>2011-03-23T15:30:34Z</time>
      </trkpt>
      <trkpt lat="37.1947996862" lon="-7.56550545457">
        <ele>130.6</ele>
        <time>2011-03-23T15:30:36Z</time>
      </trkpt>
      <trkpt lat="37.1947938189" lon="-7.56544451816">
        <ele>130.6</ele>
        <time>2011-03-23T15:30:38Z</time>
      </trkpt>
      <trkpt lat="37.194786359" lon="-7.56538173773">
        <ele>130.6</ele>
        <time>2011-03-23T15:30:40Z</time>
      </trkpt>
      <trkpt lat="37.1947788991" lon="-7.5653189573">
        <ele>130.6</ele>
        <time>2011-03-23T15:30:42Z</time>
      </trkpt>
      <trkpt lat="37.1947689247" lon="-7.56525567395">
        <ele>130.6</ele>
        <time>2011-03-23T15:30:44Z</time>
      </trkpt>
      <trkpt lat="37.1947596208" lon="-7.56519641392">
        <ele>130.6</ele>
        <time>2011-03-23T15:30:46Z</time>
      </trkpt>
      <trkpt lat="37.1947478861" lon="-7.56513396876">
        <ele>130.6</ele>
        <time>2011-03-23T15:30:48Z</time>
      </trkpt>
      <trkpt lat="37.1947366544" lon="-7.56507521164">
        <ele>130.6</ele>
        <time>2011-03-23T15:30:50Z</time>
      </trkpt>
      <trkpt lat="37.1947259255" lon="-7.56501553252">
        <ele>130.6</ele>
        <time>2011-03-23T15:30:52Z</time>
      </trkpt>
      <trkpt lat="37.1947170407" lon="-7.56495166244">
        <ele>130.6</ele>
        <time>2011-03-23T15:30:54Z</time>
      </trkpt>
      <trkpt lat="37.1947121792" lon="-7.56489273768">
        <ele>130.6</ele>
        <time>2011-03-23T15:30:56Z</time>
      </trkpt>
      <trkpt lat="37.1947097485" lon="-7.5648275265">
        <ele>130.6</ele>
        <time>2011-03-23T15:30:58Z</time>
      </trkpt>
      <trkpt lat="37.1947095808" lon="-7.56476642245">
        <ele>130.6</ele>
        <time>2011-03-23T15:31:00Z</time>
      </trkpt>
      <trkpt lat="37.1947137718" lon="-7.56470624041">
        <ele>130.6</ele>
        <time>2011-03-23T15:31:02Z</time>
      </trkpt>
      <trkpt lat="37.1947231595" lon="-7.56465024931">
        <ele>130.6</ele>
        <time>2011-03-23T15:31:04Z</time>
      </trkpt>
      <trkpt lat="37.1947379955" lon="-7.56459325239">
        <ele>130.6</ele>
        <time>2011-03-23T15:31:06Z</time>
      </trkpt>
      <trkpt lat="37.1947571062" lon="-7.5645390215">
        <ele>130.6</ele>
        <time>2011-03-23T15:31:08Z</time>
      </trkpt>
      <trkpt lat="37.1947814975" lon="-7.56448814337">
        <ele>130.6</ele>
        <time>2011-03-23T15:31:10Z</time>
      </trkpt>
      <trkpt lat="37.1948108342" lon="-7.56443718142">
        <ele>130.6</ele>
        <time>2011-03-23T15:31:12Z</time>
      </trkpt>
      <trkpt lat="37.1948368181" lon="-7.5643899075">
        <ele>130.6</ele>
        <time>2011-03-23T15:31:14Z</time>
      </trkpt>
      <trkpt lat="37.1948749557" lon="-7.56433936464">
        <ele>130.6</ele>
        <time>2011-03-23T15:31:16Z</time>
      </trkpt>
      <trkpt lat="37.1949182063" lon="-7.56429192309">
        <ele>130.6</ele>
        <time>2011-03-23T15:31:18Z</time>
      </trkpt>
      <trkpt lat="37.194969755" lon="-7.56423677019">
        <ele>130.6</ele>
        <time>2011-03-23T15:31:21Z</time>
      </trkpt>
      <trkpt lat="37.1950063001" lon="-7.5642019853">
        <ele>130.6</ele>
        <time>2011-03-23T15:31:23Z</time>
      </trkpt>
      <trkpt lat="37.1950430128" lon="-7.56416384766">
        <ele>130.6</ele>
        <time>2011-03-23T15:31:25Z</time>
      </trkpt>
      <trkpt lat="37.1950813181" lon="-7.56412897895">
        <ele>130.6</ele>
        <time>2011-03-23T15:31:27Z</time>
      </trkpt>
      <trkpt lat="37.1951183661" lon="-7.56409436171">
        <ele>130.6</ele>
        <time>2011-03-23T15:31:29Z</time>
      </trkpt>
      <trkpt lat="37.1951539892" lon="-7.56406091792">
        <ele>130.6</ele>
        <time>2011-03-23T15:31:31Z</time>
      </trkpt>
      <trkpt lat="37.1951926297" lon="-7.56402864761">
        <ele>130.6</ele>
        <time>2011-03-23T15:31:33Z</time>
      </trkpt>
      <trkpt lat="37.1952368023" lon="-7.56399838895">
        <ele>130.6</ele>
        <time>2011-03-23T15:31:35Z</time>
      </trkpt>
      <trkpt lat="37.1952953918" lon="-7.56395840729">
        <ele>130.6</ele>
        <time>2011-03-23T15:31:38Z</time>
      </trkpt>
      <trkpt lat="37.1953357088" lon="-7.56393150139">
        <ele>130.6</ele>
        <time>2011-03-23T15:31:40Z</time>
      </trkpt>
      <trkpt lat="37.1953969804" lon="-7.56390216474">
        <ele>130.6</ele>
        <time>2011-03-23T15:31:43Z</time>
      </trkpt>
      <trkpt lat="37.1954626945" lon="-7.5638922741">
        <ele>130.6</ele>
        <time>2011-03-23T15:31:46Z</time>
      </trkpt>
      <trkpt lat="37.1955289954" lon="-7.56388372456">
        <ele>130.6</ele>
        <time>2011-03-23T15:31:49Z</time>
      </trkpt>
      <trkpt lat="37.1955950447" lon="-7.56389110063">
        <ele>130.6</ele>
        <time>2011-03-23T15:31:52Z</time>
      </trkpt>
      <trkpt lat="37.1956626029" lon="-7.56390141037">
        <ele>130.6</ele>
        <time>2011-03-23T15:31:55Z</time>
      </trkpt>
      <trkpt lat="37.1957078651" lon="-7.56390895408">
        <ele>130.6</ele>
        <time>2011-03-23T15:31:57Z</time>
      </trkpt>
      <trkpt lat="37.195773663" lon="-7.56392337095">
        <ele>130.6</ele>
        <time>2011-03-23T15:32:00Z</time>
      </trkpt>
      <trkpt lat="37.195838036" lon="-7.56393988329">
        <ele>130.6</ele>
        <time>2011-03-23T15:32:03Z</time>
      </trkpt>
      <trkpt lat="37.1959062647" lon="-7.56395312669">
        <ele>130.6</ele>
        <time>2011-03-23T15:32:06Z</time>
      </trkpt>
      <trkpt lat="37.1959505211" lon="-7.56396477753">
        <ele>130.6</ele>
        <time>2011-03-23T15:32:08Z</time>
      </trkpt>
      <trkpt lat="37.1960137206" lon="-7.56397835621">
        <ele>130.6</ele>
        <time>2011-03-23T15:32:11Z</time>
      </trkpt>
      <trkpt lat="37.1960803567" lon="-7.56399092906">
        <ele>130.6</ele>
        <time>2011-03-23T15:32:14Z</time>
      </trkpt>
      <trkpt lat="37.1962133775" lon="-7.56399755076">
        <ele>130.6</ele>
        <time>2011-03-23T15:32:20Z</time>
      </trkpt>
      <trkpt lat="37.1962787563" lon="-7.5639955391">
        <ele>130.6</ele>
        <time>2011-03-23T15:32:23Z</time>
      </trkpt>
      <trkpt lat="37.1963456439" lon="-7.56398128987">
        <ele>130.6</ele>
        <time>2011-03-23T15:32:26Z</time>
      </trkpt>
      <trkpt lat="37.1963880563" lon="-7.56396754356">
        <ele>130.6</ele>
        <time>2011-03-23T15:32:28Z</time>
      </trkpt>
      <trkpt lat="37.1964499985" lon="-7.56393803927">
        <ele>130.6</ele>
        <time>2011-03-23T15:32:31Z</time>
      </trkpt>
      <trkpt lat="37.1964903155" lon="-7.56391155247">
        <ele>130.6</ele>
        <time>2011-03-23T15:32:33Z</time>
      </trkpt>
      <trkpt lat="37.1965308001" lon="-7.56388364074">
        <ele>130.6</ele>
        <time>2011-03-23T15:32:35Z</time>
      </trkpt>
      <trkpt lat="37.1965753079" lon="-7.56385790831">
        <ele>130.6</ele>
        <time>2011-03-23T15:32:37Z</time>
      </trkpt>
      <trkpt lat="37.1966163793" lon="-7.56383075095">
        <ele>130.6</ele>
        <time>2011-03-23T15:32:39Z</time>
      </trkpt>
      <trkpt lat="37.1966773995" lon="-7.56378615924">
        <ele>130.6</ele>
        <time>2011-03-23T15:32:42Z</time>
      </trkpt>
      <trkpt lat="37.1967355699" lon="-7.56373637076">
        <ele>130.6</ele>
        <time>2011-03-23T15:32:45Z</time>
      </trkpt>
      <trkpt lat="37.1967872862" lon="-7.56368163695">
        <ele>130.6</ele>
        <time>2011-03-23T15:32:48Z</time>
      </trkpt>
      <trkpt lat="37.1968252562" lon="-7.56364064946">
        <ele>130.6</ele>
        <time>2011-03-23T15:32:50Z</time>
      </trkpt>
      <trkpt lat="37.1968633938" lon="-7.56359739885">
        <ele>130.6</ele>
        <time>2011-03-23T15:32:52Z</time>
      </trkpt>
      <trkpt lat="37.1969007771" lon="-7.56355842302">
        <ele>130.6</ele>
        <time>2011-03-23T15:32:54Z</time>
      </trkpt>
      <trkpt lat="37.1969404235" lon="-7.56351726789">
        <ele>130.6</ele>
        <time>2011-03-23T15:32:56Z</time>
      </trkpt>
      <trkpt lat="37.196978645" lon="-7.5634776215">
        <ele>130.6</ele>
        <time>2011-03-23T15:32:58Z</time>
      </trkpt>
      <trkpt lat="37.197016615" lon="-7.56343646637">
        <ele>130.6</ele>
        <time>2011-03-23T15:33:00Z</time>
      </trkpt>
      <trkpt lat="37.1970539144" lon="-7.56339254522">
        <ele>130.6</ele>
        <time>2011-03-23T15:33:02Z</time>
      </trkpt>
      <trkpt lat="37.1970887831" lon="-7.56335088718">
        <ele>130.6</ele>
        <time>2011-03-23T15:33:04Z</time>
      </trkpt>
      <trkpt lat="37.1971271722" lon="-7.56331308481">
        <ele>130.6</ele>
        <time>2011-03-23T15:33:06Z</time>
      </trkpt>
      <trkpt lat="37.1971622086" lon="-7.5632764559">
        <ele>130.6</ele>
        <time>2011-03-23T15:33:08Z</time>
      </trkpt>
      <trkpt lat="37.1971987537" lon="-7.5632363066">
        <ele>130.6</ele>
        <time>2011-03-23T15:33:10Z</time>
      </trkpt>
      <trkpt lat="37.1972366399" lon="-7.56319548675">
        <ele>130.6</ele>
        <time>2011-03-23T15:33:12Z</time>
      </trkpt>
      <trkpt lat="37.1972744422" lon="-7.56315550509">
        <ele>130.6</ele>
        <time>2011-03-23T15:33:14Z</time>
      </trkpt>
      <trkpt lat="37.1973099815" lon="-7.56311694835">
        <ele>130.6</ele>
        <time>2011-03-23T15:33:16Z</time>
      </trkpt>
      <trkpt lat="37.1973523939" lon="-7.56307193754">
        <ele>130.6</ele>
        <time>2011-03-23T15:33:18Z</time>
      </trkpt>
      <trkpt lat="37.1973829878" lon="-7.56303757175">
        <ele>130.6</ele>
        <time>2011-03-23T15:33:20Z</time>
      </trkpt>
      <trkpt lat="37.1974191976" lon="-7.56299993702">
        <ele>130.6</ele>
        <time>2011-03-23T15:33:22Z</time>
      </trkpt>
      <trkpt lat="37.1974753564" lon="-7.56294402975">
        <ele>130.6</ele>
        <time>2011-03-23T15:33:25Z</time>
      </trkpt>
      <trkpt lat="37.1975157571" lon="-7.5629058921">
        <ele>130.6</ele>
        <time>2011-03-23T15:33:27Z</time>
      </trkpt>
      <trkpt lat="37.1975568284" lon="-7.56286666481">
        <ele>130.6</ele>
        <time>2011-03-23T15:33:29Z</time>
      </trkpt>
      <trkpt lat="37.1975949661" lon="-7.56282886244">
        <ele>130.4</ele>
        <time>2011-03-23T15:33:31Z</time>
      </trkpt>
      <trkpt lat="37.1976320979" lon="-7.56279114389">
        <ele>130</ele>
        <time>2011-03-23T15:33:33Z</time>
      </trkpt>
      <trkpt lat="37.1976684753" lon="-7.56275099459">
        <ele>129.8</ele>
        <time>2011-03-23T15:33:35Z</time>
      </trkpt>
      <trkpt lat="37.1977057748" lon="-7.56271025856">
        <ele>129.6</ele>
        <time>2011-03-23T15:33:37Z</time>
      </trkpt>
      <trkpt lat="37.1977401406" lon="-7.56266960634">
        <ele>129.4</ele>
        <time>2011-03-23T15:33:39Z</time>
      </trkpt>
      <trkpt lat="37.19777744" lon="-7.56263180397">
        <ele>129.2</ele>
        <time>2011-03-23T15:33:41Z</time>
      </trkpt>
      <trkpt lat="37.1978119735" lon="-7.5625891401">
        <ele>129</ele>
        <time>2011-03-23T15:33:43Z</time>
      </trkpt>
      <trkpt lat="37.1978481833" lon="-7.56254303965">
        <ele>129</ele>
        <time>2011-03-23T15:33:45Z</time>
      </trkpt>
      <trkpt lat="37.1978827167" lon="-7.56249853176">
        <ele>128.8</ele>
        <time>2011-03-23T15:33:47Z</time>
      </trkpt>
      <trkpt lat="37.1979206029" lon="-7.56245611935">
        <ele>128.8</ele>
        <time>2011-03-23T15:33:49Z</time>
      </trkpt>
      <trkpt lat="37.1979550525" lon="-7.56241471276">
        <ele>128.8</ele>
        <time>2011-03-23T15:33:51Z</time>
      </trkpt>
      <trkpt lat="37.1979880772" lon="-7.56237456346">
        <ele>128.8</ele>
        <time>2011-03-23T15:33:53Z</time>
      </trkpt>
      <trkpt lat="37.1980226944" lon="-7.56233541999">
        <ele>128.6</ele>
        <time>2011-03-23T15:33:55Z</time>
      </trkpt>
      <trkpt lat="37.1980590719" lon="-7.56229594124">
        <ele>128.2</ele>
        <time>2011-03-23T15:33:57Z</time>
      </trkpt>
      <trkpt lat="37.1980970419" lon="-7.56225839033">
        <ele>128</ele>
        <time>2011-03-23T15:33:59Z</time>
      </trkpt>
      <trkpt lat="37.1981324973" lon="-7.56222000123">
        <ele>127.6</ele>
        <time>2011-03-23T15:34:01Z</time>
      </trkpt>
      <trkpt lat="37.1981680366" lon="-7.5621819474">
        <ele>127.4</ele>
        <time>2011-03-23T15:34:03Z</time>
      </trkpt>
      <trkpt lat="37.1982047493" lon="-7.56214305539">
        <ele>127.2</ele>
        <time>2011-03-23T15:34:05Z</time>
      </trkpt>
      <trkpt lat="37.1982431384" lon="-7.56210542065">
        <ele>127.2</ele>
        <time>2011-03-23T15:34:07Z</time>
      </trkpt>
      <trkpt lat="37.1982789291" lon="-7.56206971376">
        <ele>127</ele>
        <time>2011-03-23T15:34:09Z</time>
      </trkpt>
      <trkpt lat="37.198330394" lon="-7.56201548287">
        <ele>126.4</ele>
        <time>2011-03-23T15:34:12Z</time>
      </trkpt>
      <trkpt lat="37.1983814398" lon="-7.56196108434">
        <ele>126</ele>
        <time>2011-03-23T15:34:15Z</time>
      </trkpt>
      <trkpt lat="37.1984340781" lon="-7.56190324923">
        <ele>125.6</ele>
        <time>2011-03-23T15:34:18Z</time>
      </trkpt>
      <trkpt lat="37.1984875546" lon="-7.56184415683">
        <ele>125.2</ele>
        <time>2011-03-23T15:34:21Z</time>
      </trkpt>
      <trkpt lat="37.1985256084" lon="-7.56180635446">
        <ele>125.2</ele>
        <time>2011-03-23T15:34:23Z</time>
      </trkpt>
      <trkpt lat="37.1985661768" lon="-7.56176980938">
        <ele>125</ele>
        <time>2011-03-23T15:34:25Z</time>
      </trkpt>
      <trkpt lat="37.1986030572" lon="-7.56173250992">
        <ele>125</ele>
        <time>2011-03-23T15:34:27Z</time>
      </trkpt>
      <trkpt lat="37.1986542706" lon="-7.56168129651">
        <ele>124.2</ele>
        <time>2011-03-23T15:34:30Z</time>
      </trkpt>
      <trkpt lat="37.1986909833" lon="-7.56164936148">
        <ele>124</ele>
        <time>2011-03-23T15:34:32Z</time>
      </trkpt>
      <trkpt lat="37.1987318032" lon="-7.56162203648">
        <ele>123.6</ele>
        <time>2011-03-23T15:34:34Z</time>
      </trkpt>
      <trkpt lat="37.1987900574" lon="-7.56157643894">
        <ele>123.4</ele>
        <time>2011-03-23T15:34:37Z</time>
      </trkpt>
      <trkpt lat="37.1988328051" lon="-7.56154995214">
        <ele>123.2</ele>
        <time>2011-03-23T15:34:39Z</time>
      </trkpt>
      <trkpt lat="37.1988932386" lon="-7.56150938375">
        <ele>123</ele>
        <time>2011-03-23T15:34:42Z</time>
      </trkpt>
      <trkpt lat="37.1989558514" lon="-7.56147401213">
        <ele>122.8</ele>
        <time>2011-03-23T15:34:45Z</time>
      </trkpt>
      <trkpt lat="37.1989999402" lon="-7.56145523667">
        <ele>122.8</ele>
        <time>2011-03-23T15:34:47Z</time>
      </trkpt>
      <trkpt lat="37.1990431908" lon="-7.56143646122">
        <ele>122.8</ele>
        <time>2011-03-23T15:34:49Z</time>
      </trkpt>
      <trkpt lat="37.1990892074" lon="-7.56142187671">
        <ele>122.6</ele>
        <time>2011-03-23T15:34:51Z</time>
      </trkpt>
      <trkpt lat="37.1991301111" lon="-7.56140326889">
        <ele>122.6</ele>
        <time>2011-03-23T15:34:53Z</time>
      </trkpt>
      <trkpt lat="37.1991765468" lon="-7.56138717564">
        <ele>122.6</ele>
        <time>2011-03-23T15:34:55Z</time>
      </trkpt>
      <trkpt lat="37.1992201327" lon="-7.56136940602">
        <ele>122.6</ele>
        <time>2011-03-23T15:34:57Z</time>
      </trkpt>
      <trkpt lat="37.1992857629" lon="-7.56134602051">
        <ele>122.6</ele>
        <time>2011-03-23T15:35:00Z</time>
      </trkpt>
      <trkpt lat="37.1993504712" lon="-7.56132556868">
        <ele>122.6</ele>
        <time>2011-03-23T15:35:03Z</time>
      </trkpt>
      <trkpt lat="37.1994192028" lon="-7.56130327282">
        <ele>122.6</ele>
        <time>2011-03-23T15:35:06Z</time>
      </trkpt>
      <trkpt lat="37.1994650518" lon="-7.56128986178">
        <ele>122.6</ele>
        <time>2011-03-23T15:35:08Z</time>
      </trkpt>
      <trkpt lat="37.1995267426" lon="-7.56126496754">
        <ele>122.6</ele>
        <time>2011-03-23T15:35:11Z</time>
      </trkpt>
      <trkpt lat="37.1995689035" lon="-7.56124962866">
        <ele>122.6</ele>
        <time>2011-03-23T15:35:13Z</time>
      </trkpt>
      <trkpt lat="37.1996319354" lon="-7.56122884155">
        <ele>122.6</ele>
        <time>2011-03-23T15:35:16Z</time>
      </trkpt>
      <trkpt lat="37.1996739287" lon="-7.56121517905">
        <ele>122.6</ele>
        <time>2011-03-23T15:35:18Z</time>
      </trkpt>
      <trkpt lat="37.1997381341" lon="-7.5611933023">
        <ele>122.6</ele>
        <time>2011-03-23T15:35:21Z</time>
      </trkpt>
      <trkpt lat="37.1997813009" lon="-7.56117678995">
        <ele>122.6</ele>
        <time>2011-03-23T15:35:23Z</time>
      </trkpt>
      <trkpt lat="37.1998465959" lon="-7.56115063843">
        <ele>122.6</ele>
        <time>2011-03-23T15:35:26Z</time>
      </trkpt>
      <trkpt lat="37.1998882539" lon="-7.56113085714">
        <ele>122.6</ele>
        <time>2011-03-23T15:35:28Z</time>
      </trkpt>
      <trkpt lat="37.199944245" lon="-7.56108961819">
        <ele>122.6</ele>
        <time>2011-03-23T15:35:31Z</time>
      </trkpt>
      <trkpt lat="37.1999983083" lon="-7.5610472896">
        <ele>122</ele>
        <time>2011-03-23T15:35:34Z</time>
      </trkpt>
      <trkpt lat="37.200055389" lon="-7.56100345226">
        <ele>121.6</ele>
        <time>2011-03-23T15:35:37Z</time>
      </trkpt>
      <trkpt lat="37.2001099552" lon="-7.56096070457">
        <ele>121.2</ele>
        <time>2011-03-23T15:35:40Z</time>
      </trkpt>
      <trkpt lat="37.200167455" lon="-7.56091745397">
        <ele>121</ele>
        <time>2011-03-23T15:35:43Z</time>
      </trkpt>
      <trkpt lat="37.2002046706" lon="-7.56088459692">
        <ele>121</ele>
        <time>2011-03-23T15:35:45Z</time>
      </trkpt>
      <trkpt lat="37.2002558841" lon="-7.56082902492">
        <ele>120.8</ele>
        <time>2011-03-23T15:35:48Z</time>
      </trkpt>
      <trkpt lat="37.2003049182" lon="-7.5607702678">
        <ele>120.6</ele>
        <time>2011-03-23T15:35:51Z</time>
      </trkpt>
      <trkpt lat="37.2003428044" lon="-7.56073238162">
        <ele>120.6</ele>
        <time>2011-03-23T15:35:53Z</time>
      </trkpt>
      <trkpt lat="37.2003922576" lon="-7.56067965946">
        <ele>120.6</ele>
        <time>2011-03-23T15:35:56Z</time>
      </trkpt>
      <trkpt lat="37.2004265395" lon="-7.56064613186">
        <ele>120.6</ele>
        <time>2011-03-23T15:35:58Z</time>
      </trkpt>
      <trkpt lat="37.2004631684" lon="-7.56060765894">
        <ele>120.6</ele>
        <time>2011-03-23T15:36:00Z</time>
      </trkpt>
      <trkpt lat="37.2005117835" lon="-7.56054940474">
        <ele>120.6</ele>
        <time>2011-03-23T15:36:03Z</time>
      </trkpt>
      <trkpt lat="37.2005484962" lon="-7.56050917162">
        <ele>120.4</ele>
        <time>2011-03-23T15:36:05Z</time>
      </trkpt>
      <trkpt lat="37.2005843707" lon="-7.56047254272">
        <ele>120.4</ele>
        <time>2011-03-23T15:36:07Z</time>
      </trkpt>
      <trkpt lat="37.2006215863" lon="-7.56043926657">
        <ele>120.4</ele>
        <time>2011-03-23T15:36:09Z</time>
      </trkpt>
      <trkpt lat="37.2006541081" lon="-7.56039685416">
        <ele>120.4</ele>
        <time>2011-03-23T15:36:11Z</time>
      </trkpt>
      <trkpt lat="37.2006878872" lon="-7.56036550585">
        <ele>120.4</ele>
        <time>2011-03-23T15:36:13Z</time>
      </trkpt>
      <trkpt lat="37.2007409446" lon="-7.56031161024">
        <ele>120.4</ele>
        <time>2011-03-23T15:36:16Z</time>
      </trkpt>
      <trkpt lat="37.2007904816" lon="-7.56025176347">
        <ele>120.4</ele>
        <time>2011-03-23T15:36:19Z</time>
      </trkpt>
      <trkpt lat="37.2008420303" lon="-7.56019711348">
        <ele>120.4</ele>
        <time>2011-03-23T15:36:22Z</time>
      </trkpt>
      <trkpt lat="37.2008953392" lon="-7.56014305023">
        <ele>120.4</ele>
        <time>2011-03-23T15:36:25Z</time>
      </trkpt>
      <trkpt lat="37.2009312976" lon="-7.56010860062">
        <ele>120.4</ele>
        <time>2011-03-23T15:36:27Z</time>
      </trkpt>
      <trkpt lat="37.2009664177" lon="-7.56007381573">
        <ele>120.4</ele>
        <time>2011-03-23T15:36:29Z</time>
      </trkpt>
      <trkpt lat="37.201001957" lon="-7.5600397014">
        <ele>120.4</ele>
        <time>2011-03-23T15:36:31Z</time>
      </trkpt>
      <trkpt lat="37.2010524998" lon="-7.55999100256">
        <ele>120.4</ele>
        <time>2011-03-23T15:36:34Z</time>
      </trkpt>
      <trkpt lat="37.2010881229" lon="-7.55995688823">
        <ele>120.4</ele>
        <time>2011-03-23T15:36:36Z</time>
      </trkpt>
      <trkpt lat="37.2011239974" lon="-7.55992780303">
        <ele>120.4</ele>
        <time>2011-03-23T15:36:38Z</time>
      </trkpt>
      <trkpt lat="37.2011783121" lon="-7.55988371424">
        <ele>120.4</ele>
        <time>2011-03-23T15:36:41Z</time>
      </trkpt>
      <trkpt lat="37.2012162822" lon="-7.55985655688">
        <ele>120.4</ele>
        <time>2011-03-23T15:36:43Z</time>
      </trkpt>
      <trkpt lat="37.2012550904" lon="-7.55982914807">
        <ele>120.4</ele>
        <time>2011-03-23T15:36:45Z</time>
      </trkpt>
      <trkpt lat="37.2013127578" lon="-7.55979344118">
        <ele>120.4</ele>
        <time>2011-03-23T15:36:48Z</time>
      </trkpt>
      <trkpt lat="37.2013544159" lon="-7.55977131296">
        <ele>120.4</ele>
        <time>2011-03-23T15:36:50Z</time>
      </trkpt>
      <trkpt lat="37.2014096526" lon="-7.55974859801">
        <ele>120.4</ele>
        <time>2011-03-23T15:36:53Z</time>
      </trkpt>
      <trkpt lat="37.2014663142" lon="-7.55972102156">
        <ele>120.4</ele>
        <time>2011-03-23T15:36:56Z</time>
      </trkpt>
      <trkpt lat="37.2015052062" lon="-7.55970467686">
        <ele>120.4</ele>
        <time>2011-03-23T15:36:58Z</time>
      </trkpt>
      <trkpt lat="37.201568322" lon="-7.55967609458">
        <ele>120.4</ele>
        <time>2011-03-23T15:37:01Z</time>
      </trkpt>
      <trkpt lat="37.2016098962" lon="-7.55965807349">
        <ele>120.4</ele>
        <time>2011-03-23T15:37:03Z</time>
      </trkpt>
      <trkpt lat="37.2016723413" lon="-7.55963058086">
        <ele>120.4</ele>
        <time>2011-03-23T15:37:06Z</time>
      </trkpt>
      <trkpt lat="37.2017147537" lon="-7.55961524198">
        <ele>120.4</ele>
        <time>2011-03-23T15:37:08Z</time>
      </trkpt>
      <trkpt lat="37.2017777856" lon="-7.55959093447">
        <ele>120.4</ele>
        <time>2011-03-23T15:37:11Z</time>
      </trkpt>
      <trkpt lat="37.2018170129" lon="-7.55957241047">
        <ele>120.4</ele>
        <time>2011-03-23T15:37:13Z</time>
      </trkpt>
      <trkpt lat="37.2018740937" lon="-7.55954801915">
        <ele>120.4</ele>
        <time>2011-03-23T15:37:16Z</time>
      </trkpt>
      <trkpt lat="37.2019332699" lon="-7.55951977214">
        <ele>120.4</ele>
        <time>2011-03-23T15:37:19Z</time>
      </trkpt>
      <trkpt lat="37.2019972238" lon="-7.559496219">
        <ele>120.4</ele>
        <time>2011-03-23T15:37:22Z</time>
      </trkpt>
      <trkpt lat="37.2020628541" lon="-7.55947241441">
        <ele>120.4</ele>
        <time>2011-03-23T15:37:25Z</time>
      </trkpt>
      <trkpt lat="37.2021251316" lon="-7.55944760398">
        <ele>120.4</ele>
        <time>2011-03-23T15:37:28Z</time>
      </trkpt>
      <trkpt lat="37.2021854813" lon="-7.55942011135">
        <ele>120.4</ele>
        <time>2011-03-23T15:37:31Z</time>
      </trkpt>
      <trkpt lat="37.2022435678" lon="-7.55939521711">
        <ele>120.4</ele>
        <time>2011-03-23T15:37:34Z</time>
      </trkpt>
      <trkpt lat="37.2023022411" lon="-7.55936579664">
        <ele>120.4</ele>
        <time>2011-03-23T15:37:37Z</time>
      </trkpt>
      <trkpt lat="37.202364351" lon="-7.55933461597">
        <ele>120.4</ele>
        <time>2011-03-23T15:37:40Z</time>
      </trkpt>
      <trkpt lat="37.2024057576" lon="-7.55931106283">
        <ele>120.4</ele>
        <time>2011-03-23T15:37:42Z</time>
      </trkpt>
      <trkpt lat="37.2024596532" lon="-7.55927225464">
        <ele>120.4</ele>
        <time>2011-03-23T15:37:45Z</time>
      </trkpt>
      <trkpt lat="37.202516231" lon="-7.55923000986">
        <ele>120.4</ele>
        <time>2011-03-23T15:37:48Z</time>
      </trkpt>
      <trkpt lat="37.2025721383" lon="-7.5591798861">
        <ele>120.4</ele>
        <time>2011-03-23T15:37:51Z</time>
      </trkpt>
      <trkpt lat="37.2026067555" lon="-7.5591445983">
        <ele>120.4</ele>
        <time>2011-03-23T15:37:53Z</time>
      </trkpt>
      <trkpt lat="37.2026526884" lon="-7.55908542208">
        <ele>120.4</ele>
        <time>2011-03-23T15:37:56Z</time>
      </trkpt>
      <trkpt lat="37.2027003814" lon="-7.55902750316">
        <ele>120.6</ele>
        <time>2011-03-23T15:37:59Z</time>
      </trkpt>
      <trkpt lat="37.2027303886" lon="-7.55898450401">
        <ele>121</ele>
        <time>2011-03-23T15:38:01Z</time>
      </trkpt>
      <trkpt lat="37.2027735554" lon="-7.55892239413">
        <ele>121.4</ele>
        <time>2011-03-23T15:38:04Z</time>
      </trkpt>
      <trkpt lat="37.2028173089" lon="-7.55885927842">
        <ele>121.6</ele>
        <time>2011-03-23T15:38:07Z</time>
      </trkpt>
      <trkpt lat="37.2028608948" lon="-7.55879465397">
        <ele>121.8</ele>
        <time>2011-03-23T15:38:10Z</time>
      </trkpt>
      <trkpt lat="37.2028919078" lon="-7.5587484697">
        <ele>122</ele>
        <time>2011-03-23T15:38:12Z</time>
      </trkpt>
      <trkpt lat="37.2029225017" lon="-7.5587016987">
        <ele>122</ele>
        <time>2011-03-23T15:38:14Z</time>
      </trkpt>
      <trkpt lat="37.2029643274" lon="-7.55863799626">
        <ele>122.2</ele>
        <time>2011-03-23T15:38:17Z</time>
      </trkpt>
      <trkpt lat="37.2030003696" lon="-7.55859734405">
        <ele>122.2</ele>
        <time>2011-03-23T15:38:19Z</time>
      </trkpt>
      <trkpt lat="37.2030479788" lon="-7.55853925748">
        <ele>122.4</ele>
        <time>2011-03-23T15:38:22Z</time>
      </trkpt>
      <trkpt lat="37.203100198" lon="-7.55848661915">
        <ele>122.4</ele>
        <time>2011-03-23T15:38:25Z</time>
      </trkpt>
      <trkpt lat="37.2031337256" lon="-7.55844881678">
        <ele>122.4</ele>
        <time>2011-03-23T15:38:27Z</time>
      </trkpt>
      <trkpt lat="37.2031848552" lon="-7.55838947293">
        <ele>122.4</ele>
        <time>2011-03-23T15:38:30Z</time>
      </trkpt>
      <trkpt lat="37.2032364877" lon="-7.55833490676">
        <ele>122.4</ele>
        <time>2011-03-23T15:38:33Z</time>
      </trkpt>
      <trkpt lat="37.2032767208" lon="-7.55827170723">
        <ele>122.4</ele>
        <time>2011-03-23T15:38:36Z</time>
      </trkpt>
      <trkpt lat="37.2037108194" lon="-7.55662969302">
        <ele>115</ele>
        <time>2011-03-23T16:19:03Z</time>
      </trkpt>
      <trkpt lat="37.2037265774" lon="-7.55658552041">
        <ele>115</ele>
        <time>2011-03-23T16:19:06Z</time>
      </trkpt>
      <trkpt lat="37.2037270803" lon="-7.55656657732">
        <ele>115</ele>
        <time>2011-03-23T16:19:07Z</time>
      </trkpt>
      <trkpt lat="37.2037192013" lon="-7.55644981745">
        <ele>115</ele>
        <time>2011-03-23T16:19:11Z</time>
      </trkpt>
      <trkpt lat="37.2037329476" lon="-7.55638217552">
        <ele>114</ele>
        <time>2011-03-23T16:19:14Z</time>
      </trkpt>
      <trkpt lat="37.203745269" lon="-7.55632249639">
        <ele>114.2</ele>
        <time>2011-03-23T16:19:16Z</time>
      </trkpt>
      <trkpt lat="37.2037550758" lon="-7.55626541565">
        <ele>114.2</ele>
        <time>2011-03-23T16:19:18Z</time>
      </trkpt>
      <trkpt lat="37.2037674811" lon="-7.5561840274">
        <ele>114.4</ele>
        <time>2011-03-23T16:19:21Z</time>
      </trkpt>
      <trkpt lat="37.2037788804" lon="-7.55611093723">
        <ele>114.4</ele>
        <time>2011-03-23T16:19:23Z</time>
      </trkpt>
      <trkpt lat="37.2037876814" lon="-7.55605226393">
        <ele>114.4</ele>
        <time>2011-03-23T16:19:26Z</time>
      </trkpt>
      <trkpt lat="37.2037979912" lon="-7.55597774884">
        <ele>114.4</ele>
        <time>2011-03-23T16:19:28Z</time>
      </trkpt>
      <trkpt lat="37.2038073789" lon="-7.55589560622">
        <ele>114.4</ele>
        <time>2011-03-23T16:19:32Z</time>
      </trkpt>
      <trkpt lat="37.2038121566" lon="-7.55584028568">
        <ele>114.4</ele>
        <time>2011-03-23T16:19:34Z</time>
      </trkpt>
      <trkpt lat="37.2038237236" lon="-7.5557618311">
        <ele>114.4</ele>
        <time>2011-03-23T16:19:37Z</time>
      </trkpt>
      <trkpt lat="37.2038391463" lon="-7.55562503849">
        <ele>114.4</ele>
        <time>2011-03-23T16:19:42Z</time>
      </trkpt>
      <trkpt lat="37.2038460195" lon="-7.55556929885">
        <ele>114.4</ele>
        <time>2011-03-23T16:19:44Z</time>
      </trkpt>
      <trkpt lat="37.2038625318" lon="-7.55540601944">
        <ele>114.4</ele>
        <time>2011-03-23T16:19:50Z</time>
      </trkpt>
      <trkpt lat="37.2038678124" lon="-7.55532446355">
        <ele>114.4</ele>
        <time>2011-03-23T16:19:53Z</time>
      </trkpt>
      <trkpt lat="37.2038785412" lon="-7.55523787853">
        <ele>114.4</ele>
        <time>2011-03-23T16:19:56Z</time>
      </trkpt>
      <trkpt lat="37.2038856658" lon="-7.55518037869">
        <ele>114.4</ele>
        <time>2011-03-23T16:19:58Z</time>
      </trkpt>
      <trkpt lat="37.2038989931" lon="-7.55510225939">
        <ele>114.4</ele>
        <time>2011-03-23T16:20:01Z</time>
      </trkpt>
      <trkpt lat="37.2039082132" lon="-7.55502514591">
        <ele>114.4</ele>
        <time>2011-03-23T16:20:04Z</time>
      </trkpt>
      <trkpt lat="37.2039160921" lon="-7.5549470266">
        <ele>114.4</ele>
        <time>2011-03-23T16:20:07Z</time>
      </trkpt>
      <trkpt lat="37.2039224624" lon="-7.55487326588">
        <ele>114.8</ele>
        <time>2011-03-23T16:20:10Z</time>
      </trkpt>
      <trkpt lat="37.2039260666" lon="-7.55481400584">
        <ele>115.2</ele>
        <time>2011-03-23T16:20:12Z</time>
      </trkpt>
      <trkpt lat="37.203929587" lon="-7.55475340471">
        <ele>115.6</ele>
        <time>2011-03-23T16:20:15Z</time>
      </trkpt>
      <trkpt lat="37.2039297546" lon="-7.55468417021">
        <ele>115.8</ele>
        <time>2011-03-23T16:20:18Z</time>
      </trkpt>
      <trkpt lat="37.2039328559" lon="-7.55461602537">
        <ele>116</ele>
        <time>2011-03-23T16:20:21Z</time>
      </trkpt>
      <trkpt lat="37.2039424113" lon="-7.5545442763">
        <ele>116.2</ele>
        <time>2011-03-23T16:20:24Z</time>
      </trkpt>
      <trkpt lat="37.2039421599" lon="-7.55447579618">
        <ele>116.2</ele>
        <time>2011-03-23T16:20:27Z</time>
      </trkpt>
      <trkpt lat="37.2039276592" lon="-7.55441108791">
        <ele>116.4</ele>
        <time>2011-03-23T16:20:30Z</time>
      </trkpt>
      <trkpt lat="37.2039160921" lon="-7.55436280817">
        <ele>116.4</ele>
        <time>2011-03-23T16:20:32Z</time>
      </trkpt>
      <trkpt lat="37.2039057824" lon="-7.55432450288">
        <ele>116.4</ele>
        <time>2011-03-23T16:20:35Z</time>
      </trkpt>
      <trkpt lat="37.2039057824" lon="-7.55431159476">
        <ele>116.6</ele>
        <time>2011-03-23T16:20:36Z</time>
      </trkpt>
      <trkpt lat="37.2039341132" lon="-7.55426390175">
        <ele>117.2</ele>
        <time>2011-03-23T16:20:40Z</time>
      </trkpt>
      <trkpt lat="37.2039460155" lon="-7.55425082598">
        <ele>117.4</ele>
        <time>2011-03-23T16:20:41Z</time>
      </trkpt>
      <trkpt lat="37.2039662997" lon="-7.55414965645">
        <ele>117.8</ele>
        <time>2011-03-23T16:20:45Z</time>
      </trkpt>
      <trkpt lat="37.2039766095" lon="-7.55407254297">
        <ele>118</ele>
        <time>2011-03-23T16:20:48Z</time>
      </trkpt>
      <trkpt lat="37.2039793755" lon="-7.55404010502">
        <ele>118.2</ele>
        <time>2011-03-23T16:20:49Z</time>
      </trkpt>
      <trkpt lat="37.2039828121" lon="-7.55395704039">
        <ele>118.2</ele>
        <time>2011-03-23T16:20:52Z</time>
      </trkpt>
      <trkpt lat="37.2040029286" lon="-7.55388168711">
        <ele>118.4</ele>
        <time>2011-03-23T16:20:56Z</time>
      </trkpt>
      <trkpt lat="37.2040171779" lon="-7.55380993804">
        <ele>118.4</ele>
        <time>2011-03-23T16:20:59Z</time>
      </trkpt>
      <trkpt lat="37.2040255598" lon="-7.55379149786">
        <ele>118.4</ele>
        <time>2011-03-23T16:21:00Z</time>
      </trkpt>
      <trkpt lat="37.2040621048" lon="-7.55372578377">
        <ele>118.4</ele>
        <time>2011-03-23T16:21:03Z</time>
      </trkpt>
      <trkpt lat="37.2040849036" lon="-7.55368563447">
        <ele>118.4</ele>
        <time>2011-03-23T16:21:05Z</time>
      </trkpt>
      <trkpt lat="37.2041325966" lon="-7.5536037433">
        <ele>118.4</ele>
        <time>2011-03-23T16:21:09Z</time>
      </trkpt>
      <trkpt lat="37.2041605922" lon="-7.55352788711">
        <ele>118.4</ele>
        <time>2011-03-23T16:21:12Z</time>
      </trkpt>
      <trkpt lat="37.2041834748" lon="-7.553470052">
        <ele>118.6</ele>
        <time>2011-03-23T16:21:15Z</time>
      </trkpt>
      <trkpt lat="37.2042087043" lon="-7.55339251942">
        <ele>118.6</ele>
        <time>2011-03-23T16:21:18Z</time>
      </trkpt>
      <trkpt lat="37.2042342691" lon="-7.55332504513">
        <ele>118.6</ele>
        <time>2011-03-23T16:21:21Z</time>
      </trkpt>
      <trkpt lat="37.204257906" lon="-7.5532574032">
        <ele>118.6</ele>
        <time>2011-03-23T16:21:24Z</time>
      </trkpt>
      <trkpt lat="37.2042781064" lon="-7.55317936771">
        <ele>118.6</ele>
        <time>2011-03-23T16:21:27Z</time>
      </trkpt>
      <trkpt lat="37.2043012404" lon="-7.55310988176">
        <ele>118.6</ele>
        <time>2011-03-23T16:21:30Z</time>
      </trkpt>
      <trkpt lat="37.2043173337" lon="-7.55305657287">
        <ele>118.6</ele>
        <time>2011-03-23T16:21:32Z</time>
      </trkpt>
      <trkpt lat="37.2043415574" lon="-7.55300837695">
        <ele>118.6</ele>
        <time>2011-03-23T16:21:35Z</time>
      </trkpt>
      <trkpt lat="37.2043737439" lon="-7.55294450687">
        <ele>118.6</ele>
        <time>2011-03-23T16:21:38Z</time>
      </trkpt>
      <trkpt lat="37.2043942795" lon="-7.5528895216">
        <ele>118.6</ele>
        <time>2011-03-23T16:21:41Z</time>
      </trkpt>
      <trkpt lat="37.2044165754" lon="-7.55284560045">
        <ele>118.6</ele>
        <time>2011-03-23T16:21:44Z</time>
      </trkpt>
      <trkpt lat="37.204430657" lon="-7.55279019609">
        <ele>118.6</ele>
        <time>2011-03-23T16:21:47Z</time>
      </trkpt>
      <trkpt lat="37.2044397094" lon="-7.55273269626">
        <ele>118.6</ele>
        <time>2011-03-23T16:21:50Z</time>
      </trkpt>
      <trkpt lat="37.2044447386" lon="-7.55267620225">
        <ele>118.6</ele>
        <time>2011-03-23T16:21:53Z</time>
      </trkpt>
      <trkpt lat="37.2044511926" lon="-7.55261752895">
        <ele>118.6</ele>
        <time>2011-03-23T16:21:56Z</time>
      </trkpt>
      <trkpt lat="37.2044551321" lon="-7.55256371715">
        <ele>118.6</ele>
        <time>2011-03-23T16:21:59Z</time>
      </trkpt>
      <trkpt lat="37.2044615024" lon="-7.55250353511">
        <ele>118.6</ele>
        <time>2011-03-23T16:22:02Z</time>
      </trkpt>
      <trkpt lat="37.2044733209" lon="-7.55244905276">
        <ele>118.6</ele>
        <time>2011-03-23T16:22:05Z</time>
      </trkpt>
      <trkpt lat="37.2044786853" lon="-7.55238870308">
        <ele>118.6</ele>
        <time>2011-03-23T16:22:08Z</time>
      </trkpt>
      <trkpt lat="37.2044836306" lon="-7.55233028124">
        <ele>118.6</ele>
        <time>2011-03-23T16:22:11Z</time>
      </trkpt>
      <trkpt lat="37.2044821219" lon="-7.55227026683">
        <ele>118.6</ele>
        <time>2011-03-23T16:22:14Z</time>
      </trkpt>
      <trkpt lat="37.2044802778" lon="-7.55221352137">
        <ele>118.6</ele>
        <time>2011-03-23T16:22:17Z</time>
      </trkpt>
      <trkpt lat="37.2044799426" lon="-7.55215962575">
        <ele>118.6</ele>
        <time>2011-03-23T16:22:20Z</time>
      </trkpt>
      <trkpt lat="37.2044790205" lon="-7.55210958581">
        <ele>118.6</ele>
        <time>2011-03-23T16:22:23Z</time>
      </trkpt>
      <trkpt lat="37.2044693814" lon="-7.55205317562">
        <ele>118.6</ele>
        <time>2011-03-23T16:22:26Z</time>
      </trkpt>
      <trkpt lat="37.2044503545" lon="-7.55199710071">
        <ele>118.6</ele>
        <time>2011-03-23T16:22:29Z</time>
      </trkpt>
      <trkpt lat="37.2044257955" lon="-7.55193348209">
        <ele>118.6</ele>
        <time>2011-03-23T16:22:32Z</time>
      </trkpt>
      <trkpt lat="37.2044092831" lon="-7.55189048294">
        <ele>118.6</ele>
        <time>2011-03-23T16:22:35Z</time>
      </trkpt>
      <trkpt lat="37.2043876578" lon="-7.55183826371">
        <ele>118.6</ele>
        <time>2011-03-23T16:22:38Z</time>
      </trkpt>
      <trkpt lat="37.2043695529" lon="-7.55178629593">
        <ele>119</ele>
        <time>2011-03-23T16:22:41Z</time>
      </trkpt>
      <trkpt lat="37.2043526215" lon="-7.55172896373">
        <ele>119.4</ele>
        <time>2011-03-23T16:22:44Z</time>
      </trkpt>
      <trkpt lat="37.2043313315" lon="-7.55167800178">
        <ele>119.8</ele>
        <time>2011-03-23T16:22:47Z</time>
      </trkpt>
      <trkpt lat="37.2043082812" lon="-7.55163776866">
        <ele>120</ele>
        <time>2011-03-23T16:22:49Z</time>
      </trkpt>
      <trkpt lat="37.2042755918" lon="-7.5515775028">
        <ele>120.2</ele>
        <time>2011-03-23T16:22:53Z</time>
      </trkpt>
      <trkpt lat="37.2042467581" lon="-7.5515254512">
        <ele>120.2</ele>
        <time>2011-03-23T16:22:56Z</time>
      </trkpt>
      <trkpt lat="37.2042248813" lon="-7.55147457307">
        <ele>120.4</ele>
        <time>2011-03-23T16:22:59Z</time>
      </trkpt>
      <trkpt lat="37.2042014958" lon="-7.55142495222">
        <ele>120.4</ele>
        <time>2011-03-23T16:23:02Z</time>
      </trkpt>
      <trkpt lat="37.2041781942" lon="-7.55137608574">
        <ele>120.4</ele>
        <time>2011-03-23T16:23:05Z</time>
      </trkpt>
      <trkpt lat="37.2041534676" lon="-7.55132353123">
        <ele>120.4</ele>
        <time>2011-03-23T16:23:08Z</time>
      </trkpt>
      <trkpt lat="37.2041251367" lon="-7.55128036444">
        <ele>120.6</ele>
        <time>2011-03-23T16:23:11Z</time>
      </trkpt>
      <trkpt lat="37.204097225" lon="-7.55123434781">
        <ele>120.6</ele>
        <time>2011-03-23T16:23:14Z</time>
      </trkpt>
      <trkpt lat="37.2040682236" lon="-7.5511879959">
        <ele>120.6</ele>
        <time>2011-03-23T16:23:17Z</time>
      </trkpt>
      <trkpt lat="37.204037965" lon="-7.55114348802">
        <ele>120.6</ele>
        <time>2011-03-23T16:23:20Z</time>
      </trkpt>
      <trkpt lat="37.2040087121" lon="-7.55109881249">
        <ele>120.6</ele>
        <time>2011-03-23T16:23:23Z</time>
      </trkpt>
      <trkpt lat="37.2039785373" lon="-7.55105103566">
        <ele>120.6</ele>
        <time>2011-03-23T16:23:26Z</time>
      </trkpt>
      <trkpt lat="37.2039486977" lon="-7.55100669541">
        <ele>120.6</ele>
        <time>2011-03-23T16:23:29Z</time>
      </trkpt>
      <trkpt lat="37.2039146672" lon="-7.55095489527">
        <ele>120.6</ele>
        <time>2011-03-23T16:23:32Z</time>
      </trkpt>
      <trkpt lat="37.2038896053" lon="-7.55092304405">
        <ele>120.6</ele>
        <time>2011-03-23T16:23:35Z</time>
      </trkpt>
      <trkpt lat="37.203882816" lon="-7.55090535824">
        <ele>120.6</ele>
        <time>2011-03-23T16:23:36Z</time>
      </trkpt>
      <trkpt lat="37.2038409065" lon="-7.55084106906">
        <ele>121</ele>
        <time>2011-03-23T16:23:39Z</time>
      </trkpt>
      <trkpt lat="37.2037961472" lon="-7.5507808032">
        <ele>121.4</ele>
        <time>2011-03-23T16:23:42Z</time>
      </trkpt>
      <trkpt lat="37.2037585124" lon="-7.55071332891">
        <ele>121.8</ele>
        <time>2011-03-23T16:23:45Z</time>
      </trkpt>
      <trkpt lat="37.2037185308" lon="-7.55064660898">
        <ele>122</ele>
        <time>2011-03-23T16:23:48Z</time>
      </trkpt>
      <trkpt lat="37.203680896" lon="-7.55057955378">
        <ele>122.2</ele>
        <time>2011-03-23T16:23:51Z</time>
      </trkpt>
      <trkpt lat="37.2036560018" lon="-7.55053387243">
        <ele>122.2</ele>
        <time>2011-03-23T16:23:53Z</time>
      </trkpt>
      <trkpt lat="37.2036226418" lon="-7.55046463793">
        <ele>122.4</ele>
        <time>2011-03-23T16:23:56Z</time>
      </trkpt>
      <trkpt lat="37.2035911259" lon="-7.55039330797">
        <ele>122.4</ele>
        <time>2011-03-23T16:23:59Z</time>
      </trkpt>
      <trkpt lat="37.2035617892" lon="-7.55031770323">
        <ele>122.4</ele>
        <time>2011-03-23T16:24:02Z</time>
      </trkpt>
      <trkpt lat="37.203542427" lon="-7.55024536743">
        <ele>122.4</ele>
        <time>2011-03-23T16:24:04Z</time>
      </trkpt>
      <trkpt lat="37.2035250765" lon="-7.55015358563">
        <ele>122.6</ele>
        <time>2011-03-23T16:24:08Z</time>
      </trkpt>
      <trkpt lat="37.2035156888" lon="-7.55009541524">
        <ele>122.6</ele>
        <time>2011-03-23T16:24:10Z</time>
      </trkpt>
      <trkpt lat="37.2035072231" lon="-7.55002425291">
        <ele>122.8</ele>
        <time>2011-03-23T16:24:12Z</time>
      </trkpt>
      <trkpt lat="37.2035021101" lon="-7.54995736535">
        <ele>123.2</ele>
        <time>2011-03-23T16:24:15Z</time>
      </trkpt>
      <trkpt lat="37.2034981706" lon="-7.54990279918">
        <ele>123.6</ele>
        <time>2011-03-23T16:24:17Z</time>
      </trkpt>
      <trkpt lat="37.2034968295" lon="-7.54984429352">
        <ele>123.8</ele>
        <time>2011-03-23T16:24:19Z</time>
      </trkpt>
      <trkpt lat="37.2035045409" lon="-7.54976516838">
        <ele>124</ele>
        <time>2011-03-23T16:24:22Z</time>
      </trkpt>
      <trkpt lat="37.2035164432" lon="-7.54970498634">
        <ele>124</ele>
        <time>2011-03-23T16:24:24Z</time>
      </trkpt>
      <trkpt lat="37.2035304409" lon="-7.54962778904">
        <ele>124.2</ele>
        <time>2011-03-23T16:24:27Z</time>
      </trkpt>
      <trkpt lat="37.203542427" lon="-7.54958009603">
        <ele>124.4</ele>
        <time>2011-03-23T16:24:29Z</time>
      </trkpt>
      <trkpt lat="37.2035681595" lon="-7.54950457511">
        <ele>124.4</ele>
        <time>2011-03-23T16:24:32Z</time>
      </trkpt>
      <trkpt lat="37.2035948977" lon="-7.54943643026">
        <ele>124.4</ele>
        <time>2011-03-23T16:24:35Z</time>
      </trkpt>
      <trkpt lat="37.2036240667" lon="-7.54937733787">
        <ele>124.6</ele>
        <time>2011-03-23T16:24:38Z</time>
      </trkpt>
      <trkpt lat="37.2036573429" lon="-7.54931145613">
        <ele>124.6</ele>
        <time>2011-03-23T16:24:41Z</time>
      </trkpt>
      <trkpt lat="37.2037317742" lon="-7.54917298714">
        <ele>124.6</ele>
        <time>2011-03-23T16:24:47Z</time>
      </trkpt>
      <trkpt lat="37.203764715" lon="-7.54910718923">
        <ele>124.2</ele>
        <time>2011-03-23T16:24:50Z</time>
      </trkpt>
      <trkpt lat="37.2037974044" lon="-7.54903694891">
        <ele>123.8</ele>
        <time>2011-03-23T16:24:53Z</time>
      </trkpt>
      <trkpt lat="37.2038409065" lon="-7.54897123481">
        <ele>123.4</ele>
        <time>2011-03-23T16:24:56Z</time>
      </trkpt>
      <trkpt lat="37.2038798823" lon="-7.54890459871">
        <ele>123.2</ele>
        <time>2011-03-23T16:24:59Z</time>
      </trkpt>
      <trkpt lat="37.203905531" lon="-7.54885640278">
        <ele>123</ele>
        <time>2011-03-23T16:25:01Z</time>
      </trkpt>
      <trkpt lat="37.2039300061" lon="-7.54880711721">
        <ele>123</ele>
        <time>2011-03-23T16:25:03Z</time>
      </trkpt>
      <trkpt lat="37.2039544812" lon="-7.54876084912">
        <ele>123</ele>
        <time>2011-03-23T16:25:05Z</time>
      </trkpt>
      <trkpt lat="37.2039875059" lon="-7.54869144699">
        <ele>122.8</ele>
        <time>2011-03-23T16:25:08Z</time>
      </trkpt>
      <trkpt lat="37.2040228776" lon="-7.54861919501">
        <ele>122.8</ele>
        <time>2011-03-23T16:25:11Z</time>
      </trkpt>
      <trkpt lat="37.2040554831" lon="-7.54854820032">
        <ele>122.6</ele>
        <time>2011-03-23T16:25:14Z</time>
      </trkpt>
      <trkpt lat="37.2040851551" lon="-7.54847712181">
        <ele>122.6</ele>
        <time>2011-03-23T16:25:17Z</time>
      </trkpt>
      <trkpt lat="37.2041158328" lon="-7.54840579184">
        <ele>122</ele>
        <time>2011-03-23T16:25:20Z</time>
      </trkpt>
      <trkpt lat="37.2041484384" lon="-7.54833320458">
        <ele>121.6</ele>
        <time>2011-03-23T16:25:23Z</time>
      </trkpt>
      <trkpt lat="37.2041665433" lon="-7.54828023098">
        <ele>121.4</ele>
        <time>2011-03-23T16:25:25Z</time>
      </trkpt>
      <trkpt lat="37.2041838938" lon="-7.54822776028">
        <ele>121.2</ele>
        <time>2011-03-23T16:25:27Z</time>
      </trkpt>
      <trkpt lat="37.2042014958" lon="-7.5481722721">
        <ele>121.2</ele>
        <time>2011-03-23T16:25:29Z</time>
      </trkpt>
      <trkpt lat="37.2042221153" lon="-7.54811737066">
        <ele>121</ele>
        <time>2011-03-23T16:25:31Z</time>
      </trkpt>
      <trkpt lat="37.2042406393" lon="-7.54806313977">
        <ele>121</ele>
        <time>2011-03-23T16:25:33Z</time>
      </trkpt>
      <trkpt lat="37.2042603368" lon="-7.54801016616">
        <ele>120.8</ele>
        <time>2011-03-23T16:25:35Z</time>
      </trkpt>
      <trkpt lat="37.2042796151" lon="-7.54795568381">
        <ele>120.8</ele>
        <time>2011-03-23T16:25:37Z</time>
      </trkpt>
      <trkpt lat="37.204299145" lon="-7.54789977653">
        <ele>120.8</ele>
        <time>2011-03-23T16:25:39Z</time>
      </trkpt>
      <trkpt lat="37.2043190939" lon="-7.54784655147">
        <ele>120.8</ele>
        <time>2011-03-23T16:25:41Z</time>
      </trkpt>
      <trkpt lat="37.2043391266" lon="-7.54779341022">
        <ele>120.6</ele>
        <time>2011-03-23T16:25:43Z</time>
      </trkpt>
      <trkpt lat="37.2043666193" lon="-7.54772811522">
        <ele>120.2</ele>
        <time>2011-03-23T16:25:46Z</time>
      </trkpt>
      <trkpt lat="37.204389418" lon="-7.54766994484">
        <ele>120</ele>
        <time>2011-03-23T16:25:48Z</time>
      </trkpt>
      <trkpt lat="37.2044199282" lon="-7.54759241226">
        <ele>119.6</ele>
        <time>2011-03-23T16:25:51Z</time>
      </trkpt>
      <trkpt lat="37.2044479237" lon="-7.54751085637">
        <ele>119.2</ele>
        <time>2011-03-23T16:25:54Z</time>
      </trkpt>
      <trkpt lat="37.2044666992" lon="-7.54745344036">
        <ele>119.2</ele>
        <time>2011-03-23T16:25:56Z</time>
      </trkpt>
      <trkpt lat="37.2044993047" lon="-7.54737506959">
        <ele>119</ele>
        <time>2011-03-23T16:25:59Z</time>
      </trkpt>
      <trkpt lat="37.2045350116" lon="-7.5473009736">
        <ele>118.8</ele>
        <time>2011-03-23T16:26:02Z</time>
      </trkpt>
      <trkpt lat="37.2045717244" lon="-7.54722503358">
        <ele>118.8</ele>
        <time>2011-03-23T16:26:05Z</time>
      </trkpt>
      <trkpt lat="37.2045924277" lon="-7.54717138942">
        <ele>118.4</ele>
        <time>2011-03-23T16:26:07Z</time>
      </trkpt>
      <trkpt lat="37.2046181601" lon="-7.54712369641">
        <ele>118.2</ele>
        <time>2011-03-23T16:26:09Z</time>
      </trkpt>
      <trkpt lat="37.2046534479" lon="-7.54707608722">
        <ele>117.8</ele>
        <time>2011-03-23T16:26:11Z</time>
      </trkpt>
      <trkpt lat="37.2046903282" lon="-7.54702713693">
        <ele>117.6</ele>
        <time>2011-03-23T16:26:13Z</time>
      </trkpt>
      <trkpt lat="37.2047244426" lon="-7.54698179085">
        <ele>117.4</ele>
        <time>2011-03-23T16:26:15Z</time>
      </trkpt>
      <trkpt lat="37.204758976" lon="-7.54694021662">
        <ele>117.2</ele>
        <time>2011-03-23T16:26:17Z</time>
      </trkpt>
      <trkpt lat="37.2047950182" lon="-7.5468986424">
        <ele>117</ele>
        <time>2011-03-23T16:26:19Z</time>
      </trkpt>
      <trkpt lat="37.2048298869" lon="-7.54685639762">
        <ele>117</ele>
        <time>2011-03-23T16:26:21Z</time>
      </trkpt>
      <trkpt lat="37.2048620734" lon="-7.54681817616">
        <ele>116.8</ele>
        <time>2011-03-23T16:26:23Z</time>
      </trkpt>
      <trkpt lat="37.2048987861" lon="-7.54678490002">
        <ele>116.8</ele>
        <time>2011-03-23T16:26:25Z</time>
      </trkpt>
      <trkpt lat="37.2049459762" lon="-7.54674181705">
        <ele>116.6</ele>
        <time>2011-03-23T16:26:28Z</time>
      </trkpt>
      <trkpt lat="37.2049876342" lon="-7.54670879236">
        <ele>116.4</ele>
        <time>2011-03-23T16:26:30Z</time>
      </trkpt>
      <trkpt lat="37.2050260233" lon="-7.5466740913">
        <ele>116</ele>
        <time>2011-03-23T16:26:32Z</time>
      </trkpt>
      <trkpt lat="37.2050881332" lon="-7.54662715266">
        <ele>115.6</ele>
        <time>2011-03-23T16:26:35Z</time>
      </trkpt>
      <trkpt lat="37.2051311324" lon="-7.54660133641">
        <ele>115.4</ele>
        <time>2011-03-23T16:26:37Z</time>
      </trkpt>
      <trkpt lat="37.2051736286" lon="-7.5465814713">
        <ele>115.2</ele>
        <time>2011-03-23T16:26:39Z</time>
      </trkpt>
      <trkpt lat="37.2052187232" lon="-7.54656060037">
        <ele>115</ele>
        <time>2011-03-23T16:26:41Z</time>
      </trkpt>
      <trkpt lat="37.2053151989" lon="-7.54649832285">
        <ele>114.8</ele>
        <time>2011-03-23T16:26:46Z</time>
      </trkpt>
      <trkpt lat="37.2053639816" lon="-7.54646789656">
        <ele>114.8</ele>
        <time>2011-03-23T16:26:48Z</time>
      </trkpt>
      <trkpt lat="37.2054093276" lon="-7.54644325377">
        <ele>114.6</ele>
        <time>2011-03-23T16:26:50Z</time>
      </trkpt>
      <trkpt lat="37.205449896" lon="-7.54641525823">
        <ele>114.6</ele>
        <time>2011-03-23T16:26:52Z</time>
      </trkpt>
      <trkpt lat="37.2054889557" lon="-7.54638885524">
        <ele>114.6</ele>
        <time>2011-03-23T16:26:54Z</time>
      </trkpt>
      <trkpt lat="37.2055282668" lon="-7.54636546974">
        <ele>114.6</ele>
        <time>2011-03-23T16:26:56Z</time>
      </trkpt>
      <trkpt lat="37.2055908796" lon="-7.54633009812">
        <ele>114.6</ele>
        <time>2011-03-23T16:26:59Z</time>
      </trkpt>
      <trkpt lat="37.2056508102" lon="-7.54628919445">
        <ele>114.6</ele>
        <time>2011-03-23T16:27:02Z</time>
      </trkpt>
      <trkpt lat="37.2057137582" lon="-7.54624669822">
        <ele>114.6</ele>
        <time>2011-03-23T16:27:05Z</time>
      </trkpt>
      <trkpt lat="37.2057543266" lon="-7.54621694247">
        <ele>114.4</ele>
        <time>2011-03-23T16:27:07Z</time>
      </trkpt>
      <trkpt lat="37.2057917099" lon="-7.54618274432">
        <ele>114.4</ele>
        <time>2011-03-23T16:27:09Z</time>
      </trkpt>
      <trkpt lat="37.2058280035" lon="-7.54614670215">
        <ele>114.4</ele>
        <time>2011-03-23T16:27:11Z</time>
      </trkpt>
      <trkpt lat="37.2058752775" lon="-7.54608928613">
        <ele>114</ele>
        <time>2011-03-23T16:27:14Z</time>
      </trkpt>
      <trkpt lat="37.2059141695" lon="-7.54600622151">
        <ele>113.6</ele>
        <time>2011-03-23T16:27:17Z</time>
      </trkpt>
      <trkpt lat="37.2059338669" lon="-7.54594712911">
        <ele>113.4</ele>
        <time>2011-03-23T16:27:19Z</time>
      </trkpt>
      <trkpt lat="37.2059517204" lon="-7.54588879109">
        <ele>113.2</ele>
        <time>2011-03-23T16:27:21Z</time>
      </trkpt>
      <trkpt lat="37.2059794645" lon="-7.54584981525">
        <ele>113</ele>
        <time>2011-03-23T16:27:23Z</time>
      </trkpt>
      <trkpt lat="37.2060163448" lon="-7.54579952385">
        <ele>113</ele>
        <time>2011-03-23T16:27:26Z</time>
      </trkpt>
      <trkpt lat="37.2060480284" lon="-7.54575836872">
        <ele>112.8</ele>
        <time>2011-03-23T16:27:29Z</time>
      </trkpt>
      <trkpt lat="37.2060761078" lon="-7.54571629158">
        <ele>112.6</ele>
        <time>2011-03-23T16:27:32Z</time>
      </trkpt>
      <trkpt lat="37.2060981522" lon="-7.54568125524">
        <ele>112.6</ele>
        <time>2011-03-23T16:27:35Z</time>
      </trkpt>
      <trkpt lat="37.2061124852" lon="-7.54564378815">
        <ele>112.6</ele>
        <time>2011-03-23T16:27:38Z</time>
      </trkpt>
      <trkpt lat="37.2061240522" lon="-7.5456029683">
        <ele>112.6</ele>
        <time>2011-03-23T16:27:41Z</time>
      </trkpt>
      <trkpt lat="37.2061346134" lon="-7.54555955005">
        <ele>112.6</ele>
        <time>2011-03-23T16:27:44Z</time>
      </trkpt>
      <trkpt lat="37.2061429953" lon="-7.5455156289">
        <ele>112.4</ele>
        <time>2011-03-23T16:27:47Z</time>
      </trkpt>
      <trkpt lat="37.2061486112" lon="-7.54546927699">
        <ele>112.4</ele>
        <time>2011-03-23T16:27:50Z</time>
      </trkpt>
      <trkpt lat="37.2061600106" lon="-7.54542719985">
        <ele>112.6</ele>
        <time>2011-03-23T16:27:53Z</time>
      </trkpt>
      <trkpt lat="37.2061638663" lon="-7.54538176996">
        <ele>113.2</ele>
        <time>2011-03-23T16:27:56Z</time>
      </trkpt>
      <trkpt lat="37.2061667161" lon="-7.54533441222">
        <ele>113.6</ele>
        <time>2011-03-23T16:27:59Z</time>
      </trkpt>
      <trkpt lat="37.206166297" lon="-7.54528378554">
        <ele>113.8</ele>
        <time>2011-03-23T16:28:02Z</time>
      </trkpt>
      <trkpt lat="37.2061683087" lon="-7.54523449997">
        <ele>114</ele>
        <time>2011-03-23T16:28:05Z</time>
      </trkpt>
      <trkpt lat="37.2061652912" lon="-7.545181694">
        <ele>114.2</ele>
        <time>2011-03-23T16:28:08Z</time>
      </trkpt>
      <trkpt lat="37.2061606811" lon="-7.54512645728">
        <ele>114.2</ele>
        <time>2011-03-23T16:28:11Z</time>
      </trkpt>
      <trkpt lat="37.206152886" lon="-7.54507675261">
        <ele>114.4</ele>
        <time>2011-03-23T16:28:14Z</time>
      </trkpt>
      <trkpt lat="37.2061447555" lon="-7.54503207709">
        <ele>115</ele>
        <time>2011-03-23T16:28:17Z</time>
      </trkpt>
      <trkpt lat="37.2061326018" lon="-7.54498287533">
        <ele>115.4</ele>
        <time>2011-03-23T16:28:20Z</time>
      </trkpt>
      <trkpt lat="37.2061187716" lon="-7.54493426031">
        <ele>115.6</ele>
        <time>2011-03-23T16:28:23Z</time>
      </trkpt>
      <trkpt lat="37.206106115" lon="-7.54488723786">
        <ele>115.8</ele>
        <time>2011-03-23T16:28:26Z</time>
      </trkpt>
      <trkpt lat="37.2060890997" lon="-7.54484172414">
        <ele>116</ele>
        <time>2011-03-23T16:28:29Z</time>
      </trkpt>
      <trkpt lat="37.2060704081" lon="-7.54479134892">
        <ele>116.2</ele>
        <time>2011-03-23T16:28:32Z</time>
      </trkpt>
      <trkpt lat="37.2060521355" lon="-7.54474658957">
        <ele>116.4</ele>
        <time>2011-03-23T16:28:35Z</time>
      </trkpt>
      <trkpt lat="37.2060291691" lon="-7.54470333897">
        <ele>117</ele>
        <time>2011-03-23T16:28:38Z</time>
      </trkpt>
      <trkpt lat="37.2060108128" lon="-7.54467031428">
        <ele>117.4</ele>
        <time>2011-03-23T16:28:40Z</time>
      </trkpt>
      <trkpt lat="37.2059804703" lon="-7.54461407173">
        <ele>117.8</ele>
        <time>2011-03-23T16:28:44Z</time>
      </trkpt>
      <trkpt lat="37.2059544864" lon="-7.54457073731">
        <ele>118</ele>
        <time>2011-03-23T16:28:47Z</time>
      </trkpt>
      <trkpt lat="37.2059274129" lon="-7.54452798962">
        <ele>118.2</ele>
        <time>2011-03-23T16:28:50Z</time>
      </trkpt>
      <trkpt lat="37.2058947235" lon="-7.54448800796">
        <ele>118.8</ele>
        <time>2011-03-23T16:28:53Z</time>
      </trkpt>
      <trkpt lat="37.2058658897" lon="-7.54444618228">
        <ele>119.2</ele>
        <time>2011-03-23T16:28:56Z</time>
      </trkpt>
      <trkpt lat="37.2058413308" lon="-7.54440226112">
        <ele>119.6</ele>
        <time>2011-03-23T16:28:59Z</time>
      </trkpt>
      <trkpt lat="37.2058135028" lon="-7.54436118981">
        <ele>120</ele>
        <time>2011-03-23T16:29:02Z</time>
      </trkpt>
      <trkpt lat="37.2057794723" lon="-7.54431802303">
        <ele>120.2</ele>
        <time>2011-03-23T16:29:05Z</time>
      </trkpt>
      <trkpt lat="37.2057469506" lon="-7.54428005302">
        <ele>120.6</ele>
        <time>2011-03-23T16:29:08Z</time>
      </trkpt>
      <trkpt lat="37.2057158537" lon="-7.5442398199">
        <ele>121.2</ele>
        <time>2011-03-23T16:29:11Z</time>
      </trkpt>
      <trkpt lat="37.205678219" lon="-7.5441864272">
        <ele>121.6</ele>
        <time>2011-03-23T16:29:14Z</time>
      </trkpt>
      <trkpt lat="37.2056329567" lon="-7.54412465259">
        <ele>122</ele>
        <time>2011-03-23T16:29:17Z</time>
      </trkpt>
      <trkpt lat="37.2056044583" lon="-7.54408374892">
        <ele>122</ele>
        <time>2011-03-23T16:29:19Z</time>
      </trkpt>
      <trkpt lat="37.2055785582" lon="-7.54403739701">
        <ele>122.2</ele>
        <time>2011-03-23T16:29:21Z</time>
      </trkpt>
      <trkpt lat="37.2055557594" lon="-7.5439883629">
        <ele>122.4</ele>
        <time>2011-03-23T16:29:23Z</time>
      </trkpt>
      <trkpt lat="37.2055205554" lon="-7.54391636238">
        <ele>122.4</ele>
        <time>2011-03-23T16:29:26Z</time>
      </trkpt>
      <trkpt lat="37.2054924761" lon="-7.54384176347">
        <ele>122.6</ele>
        <time>2011-03-23T16:29:29Z</time>
      </trkpt>
      <trkpt lat="37.2054739521" lon="-7.54378694584">
        <ele>122.6</ele>
        <time>2011-03-23T16:29:31Z</time>
      </trkpt>
      <trkpt lat="37.2054563501" lon="-7.54373237967">
        <ele>122.6</ele>
        <time>2011-03-23T16:29:33Z</time>
      </trkpt>
      <trkpt lat="37.2054421009" lon="-7.54368116626">
        <ele>122.6</ele>
        <time>2011-03-23T16:29:35Z</time>
      </trkpt>
      <trkpt lat="37.2054294442" lon="-7.54362525899">
        <ele>122.6</ele>
        <time>2011-03-23T16:29:37Z</time>
      </trkpt>
      <trkpt lat="37.2054079865" lon="-7.54351134897">
        <ele>122.6</ele>
        <time>2011-03-23T16:29:41Z</time>
      </trkpt>
      <trkpt lat="37.2053968386" lon="-7.54343088273">
        <ele>122.6</ele>
        <time>2011-03-23T16:29:44Z</time>
      </trkpt>
      <trkpt lat="37.2053894625" lon="-7.54334681227">
        <ele>122.6</ele>
        <time>2011-03-23T16:29:47Z</time>
      </trkpt>
      <trkpt lat="37.205386445" lon="-7.54329015063">
        <ele>122.6</ele>
        <time>2011-03-23T16:29:49Z</time>
      </trkpt>
      <trkpt lat="37.2053808292" lon="-7.54320582872">
        <ele>122.8</ele>
        <time>2011-03-23T16:29:52Z</time>
      </trkpt>
      <trkpt lat="37.2053785661" lon="-7.54315084345">
        <ele>122.8</ele>
        <time>2011-03-23T16:29:54Z</time>
      </trkpt>
      <trkpt lat="37.2053728664" lon="-7.54309359507">
        <ele>122.8</ele>
        <time>2011-03-23T16:29:56Z</time>
      </trkpt>
      <trkpt lat="37.2053670829" lon="-7.54301522431">
        <ele>122.8</ele>
        <time>2011-03-23T16:29:59Z</time>
      </trkpt>
      <trkpt lat="37.205360545" lon="-7.54293568008">
        <ele>122.8</ele>
        <time>2011-03-23T16:30:02Z</time>
      </trkpt>
      <trkpt lat="37.2053566055" lon="-7.54285487856">
        <ele>122.8</ele>
        <time>2011-03-23T16:30:05Z</time>
      </trkpt>
      <trkpt lat="37.205357276" lon="-7.54277273594">
        <ele>122.8</ele>
        <time>2011-03-23T16:30:08Z</time>
      </trkpt>
      <trkpt lat="37.2053550967" lon="-7.5426887493">
        <ele>122.8</ele>
        <time>2011-03-23T16:30:11Z</time>
      </trkpt>
      <trkpt lat="37.2053528336" lon="-7.54263099801">
        <ele>122.8</ele>
        <time>2011-03-23T16:30:13Z</time>
      </trkpt>
      <trkpt lat="37.2053478883" lon="-7.54255430363">
        <ele>122.8</ele>
        <time>2011-03-23T16:30:16Z</time>
      </trkpt>
      <trkpt lat="37.2053449546" lon="-7.54249378631">
        <ele>122.8</ele>
        <time>2011-03-23T16:30:18Z</time>
      </trkpt>
      <trkpt lat="37.2053400093" lon="-7.54241223042">
        <ele>122.8</ele>
        <time>2011-03-23T16:30:21Z</time>
      </trkpt>
      <trkpt lat="37.2053360698" lon="-7.54235615551">
        <ele>122.8</ele>
        <time>2011-03-23T16:30:23Z</time>
      </trkpt>
      <trkpt lat="37.2053349802" lon="-7.54229764985">
        <ele>122.8</ele>
        <time>2011-03-23T16:30:25Z</time>
      </trkpt>
      <trkpt lat="37.2053324656" lon="-7.54224031765">
        <ele>122.8</ele>
        <time>2011-03-23T16:30:27Z</time>
      </trkpt>
      <trkpt lat="37.2053296996" lon="-7.54218784696">
        <ele>122.8</ele>
        <time>2011-03-23T16:30:29Z</time>
      </trkpt>
      <trkpt lat="37.2053289452" lon="-7.54213336461">
        <ele>122.8</ele>
        <time>2011-03-23T16:30:31Z</time>
      </trkpt>
      <trkpt lat="37.205328107" lon="-7.5420605259">
        <ele>122.4</ele>
        <time>2011-03-23T16:30:34Z</time>
      </trkpt>
      <trkpt lat="37.2053267659" lon="-7.54200294225">
        <ele>122</ele>
        <time>2011-03-23T16:30:36Z</time>
      </trkpt>
      <trkpt lat="37.2053255086" lon="-7.54194762171">
        <ele>121.8</ele>
        <time>2011-03-23T16:30:38Z</time>
      </trkpt>
      <trkpt lat="37.2053233293" lon="-7.54186455708">
        <ele>121.4</ele>
        <time>2011-03-23T16:30:41Z</time>
      </trkpt>
      <trkpt lat="37.2053214015" lon="-7.54180705724">
        <ele>121.4</ele>
        <time>2011-03-23T16:30:43Z</time>
      </trkpt>
      <trkpt lat="37.205319306" lon="-7.54173564346">
        <ele>121.2</ele>
        <time>2011-03-23T16:30:46Z</time>
      </trkpt>
      <trkpt lat="37.2053205633" lon="-7.54167428795">
        <ele>121</ele>
        <time>2011-03-23T16:30:48Z</time>
      </trkpt>
      <trkpt lat="37.2053199766" lon="-7.54159256442">
        <ele>121</ele>
        <time>2011-03-23T16:30:51Z</time>
      </trkpt>
      <trkpt lat="37.20532115" lon="-7.54150941597">
        <ele>121</ele>
        <time>2011-03-23T16:30:54Z</time>
      </trkpt>
      <trkpt lat="37.2053270174" lon="-7.54142786009">
        <ele>120.8</ele>
        <time>2011-03-23T16:30:57Z</time>
      </trkpt>
      <trkpt lat="37.20533322" lon="-7.54137388065">
        <ele>120.6</ele>
        <time>2011-03-23T16:30:59Z</time>
      </trkpt>
      <trkpt lat="37.2053374109" lon="-7.54131705137">
        <ele>120.2</ele>
        <time>2011-03-23T16:31:01Z</time>
      </trkpt>
      <trkpt lat="37.2053473854" lon="-7.54124387738">
        <ele>119.8</ele>
        <time>2011-03-23T16:31:04Z</time>
      </trkpt>
      <trkpt lat="37.2053593715" lon="-7.5411835277">
        <ele>119.6</ele>
        <time>2011-03-23T16:31:06Z</time>
      </trkpt>
      <trkpt lat="37.2053685916" lon="-7.54112946445">
        <ele>119.4</ele>
        <time>2011-03-23T16:31:08Z</time>
      </trkpt>
      <trkpt lat="37.2053806615" lon="-7.54104916585">
        <ele>119.2</ele>
        <time>2011-03-23T16:31:11Z</time>
      </trkpt>
      <trkpt lat="37.2053905522" lon="-7.5409942644">
        <ele>119.2</ele>
        <time>2011-03-23T16:31:13Z</time>
      </trkpt>
      <trkpt lat="37.2054013648" lon="-7.54091949785">
        <ele>119</ele>
        <time>2011-03-23T16:31:16Z</time>
      </trkpt>
      <trkpt lat="37.2054120937" lon="-7.54085906435">
        <ele>119</ele>
        <time>2011-03-23T16:31:18Z</time>
      </trkpt>
      <trkpt lat="37.2054202241" lon="-7.54080340854">
        <ele>119</ele>
        <time>2011-03-23T16:31:20Z</time>
      </trkpt>
      <trkpt lat="37.2054323779" lon="-7.54072269084">
        <ele>118.8</ele>
        <time>2011-03-23T16:31:23Z</time>
      </trkpt>
      <trkpt lat="37.2054394187" lon="-7.54066745412">
        <ele>118.8</ele>
        <time>2011-03-23T16:31:25Z</time>
      </trkpt>
      <trkpt lat="37.2054497284" lon="-7.54059394486">
        <ele>118.8</ele>
        <time>2011-03-23T16:31:28Z</time>
      </trkpt>
      <trkpt lat="37.2054581941" lon="-7.54053267317">
        <ele>118.8</ele>
        <time>2011-03-23T16:31:30Z</time>
      </trkpt>
      <trkpt lat="37.2054712699" lon="-7.54045447004">
        <ele>118.8</ele>
        <time>2011-03-23T16:31:33Z</time>
      </trkpt>
      <trkpt lat="37.2054802385" lon="-7.54040124498">
        <ele>118.8</ele>
        <time>2011-03-23T16:31:35Z</time>
      </trkpt>
      <trkpt lat="37.2054871117" lon="-7.54034449951">
        <ele>118.8</ele>
        <time>2011-03-23T16:31:37Z</time>
      </trkpt>
      <trkpt lat="37.2054964156" lon="-7.54029144209">
        <ele>118.8</ele>
        <time>2011-03-23T16:31:39Z</time>
      </trkpt>
      <trkpt lat="37.2055050489" lon="-7.54023704355">
        <ele>118.8</ele>
        <time>2011-03-23T16:31:41Z</time>
      </trkpt>
      <trkpt lat="37.2055143528" lon="-7.54017878935">
        <ele>118.8</ele>
        <time>2011-03-23T16:31:43Z</time>
      </trkpt>
      <trkpt lat="37.2055220642" lon="-7.54012045133">
        <ele>118.8</ele>
        <time>2011-03-23T16:31:45Z</time>
      </trkpt>
      <trkpt lat="37.2055311166" lon="-7.54006228094">
        <ele>118.8</ele>
        <time>2011-03-23T16:31:47Z</time>
      </trkpt>
      <trkpt lat="37.2055405044" lon="-7.54000603839">
        <ele>118.2</ele>
        <time>2011-03-23T16:31:49Z</time>
      </trkpt>
      <trkpt lat="37.2055574358" lon="-7.53992766763">
        <ele>117.8</ele>
        <time>2011-03-23T16:31:52Z</time>
      </trkpt>
      <trkpt lat="37.2055611238" lon="-7.53985021887">
        <ele>117.6</ele>
        <time>2011-03-23T16:31:55Z</time>
      </trkpt>
      <trkpt lat="37.205572607" lon="-7.53977218338">
        <ele>117.4</ele>
        <time>2011-03-23T16:31:58Z</time>
      </trkpt>
      <trkpt lat="37.2055889517" lon="-7.53970781039">
        <ele>117.2</ele>
        <time>2011-03-23T16:32:01Z</time>
      </trkpt>
      <trkpt lat="37.2055933103" lon="-7.53969557281">
        <ele>117</ele>
        <time>2011-03-23T16:32:02Z</time>
      </trkpt>
      <trkpt lat="37.2055603695" lon="-7.53969230387">
        <ele>114.8</ele>
        <time>2011-03-23T16:33:04Z</time>
      </trkpt>
      <trkpt lat="37.205569841" lon="-7.53962658978">
        <ele>114.6</ele>
        <time>2011-03-23T16:33:08Z</time>
      </trkpt>
      <trkpt lat="37.2055809889" lon="-7.53957629838">
        <ele>114.6</ele>
        <time>2011-03-23T16:33:11Z</time>
      </trkpt>
      <trkpt lat="37.2055947353" lon="-7.53952466587">
        <ele>114.6</ele>
        <time>2011-03-23T16:33:14Z</time>
      </trkpt>
      <trkpt lat="37.2056112476" lon="-7.53947345246">
        <ele>114.6</ele>
        <time>2011-03-23T16:33:17Z</time>
      </trkpt>
      <trkpt lat="37.2056303583" lon="-7.53942651382">
        <ele>114.6</ele>
        <time>2011-03-23T16:33:20Z</time>
      </trkpt>
      <trkpt lat="37.2056443561" lon="-7.53939826682">
        <ele>114.6</ele>
        <time>2011-03-23T16:33:22Z</time>
      </trkpt>
      <trkpt lat="37.2056804821" lon="-7.53934269482">
        <ele>114.6</ele>
        <time>2011-03-23T16:33:48Z</time>
      </trkpt>
      <trkpt lat="37.2057003472" lon="-7.53930045005">
        <ele>114.6</ele>
        <time>2011-03-23T16:33:51Z</time>
      </trkpt>
      <trkpt lat="37.2057355512" lon="-7.53925627744">
        <ele>114.2</ele>
        <time>2011-03-23T16:33:54Z</time>
      </trkpt>
      <trkpt lat="37.2057677377" lon="-7.53921679869">
        <ele>113.8</ele>
        <time>2011-03-23T16:33:57Z</time>
      </trkpt>
      <trkpt lat="37.2058020196" lon="-7.53917790667">
        <ele>113.4</ele>
        <time>2011-03-23T16:34:00Z</time>
      </trkpt>
      <trkpt lat="37.2058363854" lon="-7.53913775737">
        <ele>113.2</ele>
        <time>2011-03-23T16:34:03Z</time>
      </trkpt>
      <trkpt lat="37.2058840784" lon="-7.5390884718">
        <ele>113</ele>
        <time>2011-03-23T16:34:06Z</time>
      </trkpt>
      <trkpt lat="37.205928754" lon="-7.53903809658">
        <ele>113</ele>
        <time>2011-03-23T16:34:08Z</time>
      </trkpt>
      <trkpt lat="37.2059737648" lon="-7.53898881101">
        <ele>113</ele>
        <time>2011-03-23T16:34:10Z</time>
      </trkpt>
      <trkpt lat="37.2060251458" lon="-7.5389375976">
        <ele>112.8</ele>
        <time>2011-03-23T16:34:12Z</time>
      </trkpt>
      <trkpt lat="37.2060702404" lon="-7.53888713856">
        <ele>112.8</ele>
        <time>2011-03-23T16:34:14Z</time>
      </trkpt>
      <trkpt lat="37.2061169276" lon="-7.53884078665">
        <ele>112.8</ele>
        <time>2011-03-23T16:34:16Z</time>
      </trkpt>
      <trkpt lat="37.2061642015" lon="-7.53879544057">
        <ele>112.8</ele>
        <time>2011-03-23T16:34:18Z</time>
      </trkpt>
      <trkpt lat="37.2062110564" lon="-7.53874757992">
        <ele>112.8</ele>
        <time>2011-03-23T16:34:20Z</time>
      </trkpt>
      <trkpt lat="37.2062603419" lon="-7.53870013837">
        <ele>112.8</ele>
        <time>2011-03-23T16:34:22Z</time>
      </trkpt>
      <trkpt lat="37.2063034249" lon="-7.53865202626">
        <ele>112.8</ele>
        <time>2011-03-23T16:34:24Z</time>
      </trkpt>
      <trkpt lat="37.2063435742" lon="-7.53860223778">
        <ele>112.6</ele>
        <time>2011-03-23T16:34:26Z</time>
      </trkpt>
      <trkpt lat="37.2063882497" lon="-7.53855479622">
        <ele>112.6</ele>
        <time>2011-03-23T16:34:28Z</time>
      </trkpt>
      <trkpt lat="37.2064321709" lon="-7.53850408573">
        <ele>112.6</ele>
        <time>2011-03-23T16:34:30Z</time>
      </trkpt>
      <trkpt lat="37.2064766788" lon="-7.53845236941">
        <ele>112.6</ele>
        <time>2011-03-23T16:34:32Z</time>
      </trkpt>
      <trkpt lat="37.2065203485" lon="-7.53840610132">
        <ele>112.6</ele>
        <time>2011-03-23T16:34:34Z</time>
      </trkpt>
      <trkpt lat="37.2065682929" lon="-7.53835698338">
        <ele>112.6</ele>
        <time>2011-03-23T16:34:36Z</time>
      </trkpt>
      <trkpt lat="37.2066352643" lon="-7.53828255211">
        <ele>112.6</ele>
        <time>2011-03-23T16:34:39Z</time>
      </trkpt>
      <trkpt lat="37.2066818677" lon="-7.53823720603">
        <ele>112.6</ele>
        <time>2011-03-23T16:34:41Z</time>
      </trkpt>
      <trkpt lat="37.2067278005" lon="-7.53819185995">
        <ele>112.6</ele>
        <time>2011-03-23T16:34:43Z</time>
      </trkpt>
      <trkpt lat="37.2067908324" lon="-7.53812329601">
        <ele>112.6</ele>
        <time>2011-03-23T16:34:46Z</time>
      </trkpt>
      <trkpt lat="37.2068317361" lon="-7.53807618973">
        <ele>112.6</ele>
        <time>2011-03-23T16:34:48Z</time>
      </trkpt>
      <trkpt lat="37.206874819" lon="-7.53803243622">
        <ele>112.6</ele>
        <time>2011-03-23T16:34:50Z</time>
      </trkpt>
      <trkpt lat="37.2069246075" lon="-7.53798968853">
        <ele>112.6</ele>
        <time>2011-03-23T16:34:52Z</time>
      </trkpt>
      <trkpt lat="37.2069691154" lon="-7.53794652174">
        <ele>112.6</ele>
        <time>2011-03-23T16:34:54Z</time>
      </trkpt>
      <trkpt lat="37.2070116955" lon="-7.53790519897">
        <ele>112.6</ele>
        <time>2011-03-23T16:34:56Z</time>
      </trkpt>
      <trkpt lat="37.2070569577" lon="-7.53786228365">
        <ele>112.6</ele>
        <time>2011-03-23T16:34:58Z</time>
      </trkpt>
      <trkpt lat="37.207103142" lon="-7.53781936832">
        <ele>112.6</ele>
        <time>2011-03-23T16:35:00Z</time>
      </trkpt>
      <trkpt lat="37.207146644" lon="-7.53777930284">
        <ele>112.6</ele>
        <time>2011-03-23T16:35:02Z</time>
      </trkpt>
      <trkpt lat="37.2071891403" lon="-7.53774141665">
        <ele>112.6</ele>
        <time>2011-03-23T16:35:04Z</time>
      </trkpt>
      <trkpt lat="37.2072299601" lon="-7.5377050392">
        <ele>112.6</ele>
        <time>2011-03-23T16:35:06Z</time>
      </trkpt>
      <trkpt lat="37.2072764797" lon="-7.53766832648">
        <ele>112.6</ele>
        <time>2011-03-23T16:35:08Z</time>
      </trkpt>
      <trkpt lat="37.2073481449" lon="-7.53761074283">
        <ele>112.6</ele>
        <time>2011-03-23T16:35:11Z</time>
      </trkpt>
      <trkpt lat="37.2073975143" lon="-7.53757646086">
        <ele>112.6</ele>
        <time>2011-03-23T16:35:13Z</time>
      </trkpt>
      <trkpt lat="37.2074486439" lon="-7.53754318471">
        <ele>112.6</ele>
        <time>2011-03-23T16:35:15Z</time>
      </trkpt>
      <trkpt lat="37.2074996897" lon="-7.5375122555">
        <ele>112.6</ele>
        <time>2011-03-23T16:35:17Z</time>
      </trkpt>
      <trkpt lat="37.2075518251" lon="-7.53748040428">
        <ele>112.6</ele>
        <time>2011-03-23T16:35:19Z</time>
      </trkpt>
      <trkpt lat="37.2076040443" lon="-7.53745157055">
        <ele>112.6</ele>
        <time>2011-03-23T16:35:21Z</time>
      </trkpt>
      <trkpt lat="37.2076530784" lon="-7.53742751449">
        <ele>112.6</ele>
        <time>2011-03-23T16:35:23Z</time>
      </trkpt>
      <trkpt lat="37.2077002685" lon="-7.53740186588">
        <ele>112.6</ele>
        <time>2011-03-23T16:35:25Z</time>
      </trkpt>
      <trkpt lat="37.2077466204" lon="-7.53737739073">
        <ele>112.6</ele>
        <time>2011-03-23T16:35:27Z</time>
      </trkpt>
      <trkpt lat="37.2078015219" lon="-7.53735241267">
        <ele>112.6</ele>
        <time>2011-03-23T16:35:29Z</time>
      </trkpt>
      <trkpt lat="37.2078538249" lon="-7.53733095501">
        <ele>113</ele>
        <time>2011-03-23T16:35:31Z</time>
      </trkpt>
      <trkpt lat="37.2079022723" lon="-7.53731050317">
        <ele>113.4</ele>
        <time>2011-03-23T16:35:33Z</time>
      </trkpt>
      <trkpt lat="37.2079493786" lon="-7.53728996751">
        <ele>113.6</ele>
        <time>2011-03-23T16:35:35Z</time>
      </trkpt>
      <trkpt lat="37.2079918748" lon="-7.53726566">
        <ele>113.8</ele>
        <time>2011-03-23T16:35:37Z</time>
      </trkpt>
      <trkpt lat="37.208035796" lon="-7.53724730364">
        <ele>114</ele>
        <time>2011-03-23T16:35:40Z</time>
      </trkpt>
      <trkpt lat="37.2080835728" lon="-7.53723531753">
        <ele>114.2</ele>
        <time>2011-03-23T16:35:43Z</time>
      </trkpt>
      <trkpt lat="37.2081207046" lon="-7.53722266086">
        <ele>114.4</ele>
        <time>2011-03-23T16:35:46Z</time>
      </trkpt>
      <trkpt lat="37.208164542" lon="-7.5372105071">
        <ele>114.4</ele>
        <time>2011-03-23T16:35:49Z</time>
      </trkpt>
      <trkpt lat="37.208203434" lon="-7.53719441385">
        <ele>114.6</ele>
        <time>2011-03-23T16:35:52Z</time>
      </trkpt>
      <trkpt lat="37.2082429966" lon="-7.53718234392">
        <ele>115</ele>
        <time>2011-03-23T16:35:55Z</time>
      </trkpt>
      <trkpt lat="37.2082823915" lon="-7.53716784323">
        <ele>115.4</ele>
        <time>2011-03-23T16:35:58Z</time>
      </trkpt>
      <trkpt lat="37.2083236304" lon="-7.53715543802">
        <ele>115.8</ele>
        <time>2011-03-23T16:36:01Z</time>
      </trkpt>
      <trkpt lat="37.2083682221" lon="-7.53713917713">
        <ele>116</ele>
        <time>2011-03-23T16:36:04Z</time>
      </trkpt>
      <trkpt lat="37.2084109698" lon="-7.53712274861">
        <ele>116.2</ele>
        <time>2011-03-23T16:36:07Z</time>
      </trkpt>
      <trkpt lat="37.2084531308" lon="-7.53711067867">
        <ele>116.4</ele>
        <time>2011-03-23T16:36:10Z</time>
      </trkpt>
      <trkpt lat="37.208492861" lon="-7.537098022">
        <ele>116.4</ele>
        <time>2011-03-23T16:36:13Z</time>
      </trkpt>
      <trkpt lat="37.2085309986" lon="-7.5370830184">
        <ele>116.6</ele>
        <time>2011-03-23T16:36:16Z</time>
      </trkpt>
      <trkpt lat="37.2085710641" lon="-7.53706726043">
        <ele>116.6</ele>
        <time>2011-03-23T16:36:19Z</time>
      </trkpt>
      <trkpt lat="37.2086130574" lon="-7.53704865261">
        <ele>116.6</ele>
        <time>2011-03-23T16:36:22Z</time>
      </trkpt>
      <trkpt lat="37.2086549669" lon="-7.53703029625">
        <ele>116.6</ele>
        <time>2011-03-23T16:36:25Z</time>
      </trkpt>
      <trkpt lat="37.2086980499" lon="-7.53701671757">
        <ele>116.6</ele>
        <time>2011-03-23T16:36:28Z</time>
      </trkpt>
      <trkpt lat="37.2087395403" lon="-7.53700037287">
        <ele>116.8</ele>
        <time>2011-03-23T16:36:31Z</time>
      </trkpt>
      <trkpt lat="37.2087799411" lon="-7.53698679419">
        <ele>116.8</ele>
        <time>2011-03-23T16:36:34Z</time>
      </trkpt>
      <trkpt lat="37.2088179949" lon="-7.53696701291">
        <ele>116.8</ele>
        <time>2011-03-23T16:36:37Z</time>
      </trkpt>
      <trkpt lat="37.2088583118" lon="-7.53694019083">
        <ele>116.8</ele>
        <time>2011-03-23T16:36:40Z</time>
      </trkpt>
      <trkpt lat="37.2088990479" lon="-7.53691512895">
        <ele>116.8</ele>
        <time>2011-03-23T16:36:43Z</time>
      </trkpt>
      <trkpt lat="37.208933246" lon="-7.53689434183">
        <ele>116.8</ele>
        <time>2011-03-23T16:36:46Z</time>
      </trkpt>
      <trkpt lat="37.2089618283" lon="-7.53687380618">
        <ele>116.8</ele>
        <time>2011-03-23T16:36:49Z</time>
      </trkpt>
      <trkpt lat="37.2090018938" lon="-7.53684891194">
        <ele>116.8</ele>
        <time>2011-03-23T16:36:52Z</time>
      </trkpt>
      <trkpt lat="37.2090540292" lon="-7.53680675098">
        <ele>116.8</ele>
        <time>2011-03-23T16:36:55Z</time>
      </trkpt>
      <trkpt lat="37.20909904" lon="-7.5367711279">
        <ele>116.8</ele>
        <time>2011-03-23T16:36:57Z</time>
      </trkpt>
      <trkpt lat="37.2091427097" lon="-7.53672838021">
        <ele>116.8</ele>
        <time>2011-03-23T16:36:59Z</time>
      </trkpt>
      <trkpt lat="37.2091826076" lon="-7.53668814709">
        <ele>117</ele>
        <time>2011-03-23T16:37:01Z</time>
      </trkpt>
      <trkpt lat="37.2092209967" lon="-7.5366458185">
        <ele>117.2</ele>
        <time>2011-03-23T16:37:03Z</time>
      </trkpt>
      <trkpt lat="37.2092582961" lon="-7.53660181352">
        <ele>117.6</ele>
        <time>2011-03-23T16:37:05Z</time>
      </trkpt>
      <trkpt lat="37.2092940868" lon="-7.53655831146">
        <ele>117.8</ele>
        <time>2011-03-23T16:37:07Z</time>
      </trkpt>
      <trkpt lat="37.2093434562" lon="-7.53649217827">
        <ele>118</ele>
        <time>2011-03-23T16:37:10Z</time>
      </trkpt>
      <trkpt lat="37.2093888861" lon="-7.53643576809">
        <ele>118.2</ele>
        <time>2011-03-23T16:37:13Z</time>
      </trkpt>
      <trkpt lat="37.2094225813" lon="-7.5363908411">
        <ele>118.4</ele>
        <time>2011-03-23T16:37:15Z</time>
      </trkpt>
      <trkpt lat="37.2094722022" lon="-7.53632898268">
        <ele>118.4</ele>
        <time>2011-03-23T16:37:18Z</time>
      </trkpt>
      <trkpt lat="37.2095011198" lon="-7.5362902583">
        <ele>118.6</ele>
        <time>2011-03-23T16:37:20Z</time>
      </trkpt>
      <trkpt lat="37.2095419396" lon="-7.53623225555">
        <ele>118.6</ele>
        <time>2011-03-23T16:37:23Z</time>
      </trkpt>
      <trkpt lat="37.2095778141" lon="-7.53616268578">
        <ele>118.6</ele>
        <time>2011-03-23T16:37:26Z</time>
      </trkpt>
      <trkpt lat="37.2096075699" lon="-7.53608934416">
        <ele>118.6</ele>
        <time>2011-03-23T16:37:29Z</time>
      </trkpt>
      <trkpt lat="37.2096358169" lon="-7.5360136556">
        <ele>118.8</ele>
        <time>2011-03-23T16:37:32Z</time>
      </trkpt>
      <trkpt lat="37.2096535027" lon="-7.53594023016">
        <ele>118.8</ele>
        <time>2011-03-23T16:37:35Z</time>
      </trkpt>
      <trkpt lat="37.2096637286" lon="-7.53586152412">
        <ele>118.8</ele>
        <time>2011-03-23T16:37:38Z</time>
      </trkpt>
      <trkpt lat="37.2096678357" lon="-7.53580469483">
        <ele>118.8</ele>
        <time>2011-03-23T16:37:40Z</time>
      </trkpt>
      <trkpt lat="37.2096653212" lon="-7.53572372568">
        <ele>118.8</ele>
        <time>2011-03-23T16:37:43Z</time>
      </trkpt>
      <trkpt lat="37.2096555982" lon="-7.53566304072">
        <ele>118.8</ele>
        <time>2011-03-23T16:37:45Z</time>
      </trkpt>
      <trkpt lat="37.2096410975" lon="-7.53559330332">
        <ele>118.8</ele>
        <time>2011-03-23T16:37:48Z</time>
      </trkpt>
      <trkpt lat="37.209623244" lon="-7.53551124452">
        <ele>118.8</ele>
        <time>2011-03-23T16:37:51Z</time>
      </trkpt>
      <trkpt lat="37.2095912252" lon="-7.53537671502">
        <ele>118.8</ele>
        <time>2011-03-23T16:37:56Z</time>
      </trkpt>
      <trkpt lat="37.2095795743" lon="-7.5353232385">
        <ele>118.8</ele>
        <time>2011-03-23T16:37:58Z</time>
      </trkpt>
      <trkpt lat="37.2095689293" lon="-7.53526959434">
        <ele>118.8</ele>
        <time>2011-03-23T16:38:00Z</time>
      </trkpt>
      <trkpt lat="37.2095565241" lon="-7.53521494435">
        <ele>118.8</ele>
        <time>2011-03-23T16:38:02Z</time>
      </trkpt>
      <trkpt lat="37.2095429454" lon="-7.53515819889">
        <ele>118.8</ele>
        <time>2011-03-23T16:38:04Z</time>
      </trkpt>
      <trkpt lat="37.2095276066" lon="-7.53510279453">
        <ele>118.8</ele>
        <time>2011-03-23T16:38:06Z</time>
      </trkpt>
      <trkpt lat="37.2095074062" lon="-7.53502442376">
        <ele>118.6</ele>
        <time>2011-03-23T16:38:09Z</time>
      </trkpt>
      <trkpt lat="37.209489888" lon="-7.53494437662">
        <ele>118</ele>
        <time>2011-03-23T16:38:12Z</time>
      </trkpt>
      <trkpt lat="37.2094804165" lon="-7.53489316321">
        <ele>117.8</ele>
        <time>2011-03-23T16:38:14Z</time>
      </trkpt>
      <trkpt lat="37.2094733757" lon="-7.53483893232">
        <ele>117.6</ele>
        <time>2011-03-23T16:38:16Z</time>
      </trkpt>
      <trkpt lat="37.2094606352" lon="-7.53475519714">
        <ele>117.4</ele>
        <time>2011-03-23T16:38:19Z</time>
      </trkpt>
      <trkpt lat="37.209457953" lon="-7.5346712105">
        <ele>117.2</ele>
        <time>2011-03-23T16:38:22Z</time>
      </trkpt>
      <trkpt lat="37.2094620601" lon="-7.5346160576">
        <ele>117.2</ele>
        <time>2011-03-23T16:38:24Z</time>
      </trkpt>
      <trkpt lat="37.2094700229" lon="-7.5345600665">
        <ele>117</ele>
        <time>2011-03-23T16:38:26Z</time>
      </trkpt>
      <trkpt lat="37.2094813385" lon="-7.5345031534">
        <ele>117</ele>
        <time>2011-03-23T16:38:28Z</time>
      </trkpt>
      <trkpt lat="37.209505646" lon="-7.53442503409">
        <ele>117</ele>
        <time>2011-03-23T16:38:31Z</time>
      </trkpt>
      <trkpt lat="37.2095325519" lon="-7.53435018373">
        <ele>116.8</ele>
        <time>2011-03-23T16:38:34Z</time>
      </trkpt>
      <trkpt lat="37.2095648222" lon="-7.53428061396">
        <ele>116.4</ele>
        <time>2011-03-23T16:38:37Z</time>
      </trkpt>
      <trkpt lat="37.2095870342" lon="-7.53423250185">
        <ele>116</ele>
        <time>2011-03-23T16:38:39Z</time>
      </trkpt>
      <trkpt lat="37.2095978469" lon="-7.53420811052">
        <ele>115.8</ele>
        <time>2011-03-23T16:38:40Z</time>
      </trkpt>
      <trkpt lat="37.2096284408" lon="-7.53413418216">
        <ele>115.6</ele>
        <time>2011-03-23T16:38:43Z</time>
      </trkpt>
      <trkpt lat="37.2096503176" lon="-7.53408514805">
        <ele>115.4</ele>
        <time>2011-03-23T16:38:45Z</time>
      </trkpt>
      <trkpt lat="37.2096808277" lon="-7.53402312199">
        <ele>115.2</ele>
        <time>2011-03-23T16:38:48Z</time>
      </trkpt>
      <trkpt lat="37.2097203064" lon="-7.53394810398">
        <ele>115</ele>
        <time>2011-03-23T16:38:51Z</time>
      </trkpt>
      <trkpt lat="37.2097566001" lon="-7.53388415009">
        <ele>115</ele>
        <time>2011-03-23T16:38:54Z</time>
      </trkpt>
      <trkpt lat="37.2097904629" lon="-7.53381701107">
        <ele>114.6</ele>
        <time>2011-03-23T16:38:57Z</time>
      </trkpt>
      <trkpt lat="37.2098150219" lon="-7.53376847987">
        <ele>114.2</ele>
        <time>2011-03-23T16:38:59Z</time>
      </trkpt>
      <trkpt lat="37.2098504773" lon="-7.5336971499">
        <ele>113.8</ele>
        <time>2011-03-23T16:39:02Z</time>
      </trkpt>
      <trkpt lat="37.209869169" lon="-7.53365004362">
        <ele>113.6</ele>
        <time>2011-03-23T16:39:04Z</time>
      </trkpt>
      <trkpt lat="37.2098989247" lon="-7.53357879747">
        <ele>113.4</ele>
        <time>2011-03-23T16:39:07Z</time>
      </trkpt>
      <trkpt lat="37.2099317818" lon="-7.53350947916">
        <ele>113.2</ele>
        <time>2011-03-23T16:39:10Z</time>
      </trkpt>
      <trkpt lat="37.2099638006" lon="-7.53343949029">
        <ele>113</ele>
        <time>2011-03-23T16:39:13Z</time>
      </trkpt>
      <trkpt lat="37.2099845877" lon="-7.53338769015">
        <ele>113</ele>
        <time>2011-03-23T16:39:15Z</time>
      </trkpt>
      <trkpt lat="37.2100061292" lon="-7.53333597383">
        <ele>113</ele>
        <time>2011-03-23T16:39:17Z</time>
      </trkpt>
      <trkpt lat="37.2100274193" lon="-7.53328911901">
        <ele>112.8</ele>
        <time>2011-03-23T16:39:19Z</time>
      </trkpt>
      <trkpt lat="37.2100579294" lon="-7.53322323727">
        <ele>112.8</ele>
        <time>2011-03-23T16:39:22Z</time>
      </trkpt>
      <trkpt lat="37.2100885233" lon="-7.53315836137">
        <ele>112.8</ele>
        <time>2011-03-23T16:39:25Z</time>
      </trkpt>
      <trkpt lat="37.2101202907" lon="-7.53308988124">
        <ele>112.8</ele>
        <time>2011-03-23T16:39:28Z</time>
      </trkpt>
      <trkpt lat="37.2101532316" lon="-7.53301922183">
        <ele>112.8</ele>
        <time>2011-03-23T16:39:31Z</time>
      </trkpt>
      <trkpt lat="37.2101855019" lon="-7.53294923296">
        <ele>112.8</ele>
        <time>2011-03-23T16:39:34Z</time>
      </trkpt>
      <trkpt lat="37.2102208735" lon="-7.53288284831">
        <ele>112.8</ele>
        <time>2011-03-23T16:39:37Z</time>
      </trkpt>
      <trkpt lat="37.210254904" lon="-7.53281596075">
        <ele>112.8</ele>
        <time>2011-03-23T16:39:40Z</time>
      </trkpt>
      <trkpt lat="37.2102742662" lon="-7.53277111759">
        <ele>112.8</ele>
        <time>2011-03-23T16:39:42Z</time>
      </trkpt>
      <trkpt lat="37.2102954724" lon="-7.53272652588">
        <ele>112.8</ele>
        <time>2011-03-23T16:39:44Z</time>
      </trkpt>
      <trkpt lat="37.2103177683" lon="-7.53267874905">
        <ele>112.8</ele>
        <time>2011-03-23T16:39:46Z</time>
      </trkpt>
      <trkpt lat="37.2103455962" lon="-7.53260666471">
        <ele>112.8</ele>
        <time>2011-03-23T16:39:49Z</time>
      </trkpt>
      <trkpt lat="37.2103709095" lon="-7.53253273635">
        <ele>112.8</ele>
        <time>2011-03-23T16:39:52Z</time>
      </trkpt>
      <trkpt lat="37.2103831471" lon="-7.53246786044">
        <ele>112.8</ele>
        <time>2011-03-23T16:39:55Z</time>
      </trkpt>
      <trkpt lat="37.2103843206" lon="-7.53239166897">
        <ele>112.8</ele>
        <time>2011-03-23T16:39:58Z</time>
      </trkpt>
      <trkpt lat="37.2103752681" lon="-7.5323225183">
        <ele>112.8</ele>
        <time>2011-03-23T16:40:01Z</time>
      </trkpt>
      <trkpt lat="37.2103558221" lon="-7.5322484223">
        <ele>112.8</ele>
        <time>2011-03-23T16:40:04Z</time>
      </trkpt>
      <trkpt lat="37.2103358732" lon="-7.53217943927">
        <ele>112.8</ele>
        <time>2011-03-23T16:40:07Z</time>
      </trkpt>
      <trkpt lat="37.2103187741" lon="-7.53211582064">
        <ele>112.8</ele>
        <time>2011-03-23T16:40:13Z</time>
      </trkpt>
      <trkpt lat="37.2103020941" lon="-7.53205748262">
        <ele>112.8</ele>
        <time>2011-03-23T16:40:15Z</time>
      </trkpt>
      <trkpt lat="37.2102834863" lon="-7.53199797113">
        <ele>112.8</ele>
        <time>2011-03-23T16:40:17Z</time>
      </trkpt>
      <trkpt lat="37.2102656329" lon="-7.53193988456">
        <ele>112.4</ele>
        <time>2011-03-23T16:40:19Z</time>
      </trkpt>
      <trkpt lat="37.2102445943" lon="-7.53185925069">
        <ele>111.8</ele>
        <time>2011-03-23T16:40:22Z</time>
      </trkpt>
      <trkpt lat="37.210224813" lon="-7.53179253076">
        <ele>111.6</ele>
        <time>2011-03-23T16:40:25Z</time>
      </trkpt>
      <trkpt lat="37.2102000026" lon="-7.53171809949">
        <ele>111.4</ele>
        <time>2011-03-23T16:40:28Z</time>
      </trkpt>
      <trkpt lat="37.210180808" lon="-7.53166479061">
        <ele>111.2</ele>
        <time>2011-03-23T16:40:30Z</time>
      </trkpt>
      <trkpt lat="37.2101609429" lon="-7.53161114644">
        <ele>111.2</ele>
        <time>2011-03-23T16:40:32Z</time>
      </trkpt>
      <trkpt lat="37.2101410778" lon="-7.53155750229">
        <ele>111</ele>
        <time>2011-03-23T16:40:34Z</time>
      </trkpt>
      <trkpt lat="37.2101199554" lon="-7.53150335521">
        <ele>111</ele>
        <time>2011-03-23T16:40:36Z</time>
      </trkpt>
      <trkpt lat="37.2100927143" lon="-7.5314269961">
        <ele>111</ele>
        <time>2011-03-23T16:40:39Z</time>
      </trkpt>
      <trkpt lat="37.2100845838" lon="-7.53140218568">
        <ele>110.8</ele>
        <time>2011-03-23T16:40:40Z</time>
      </trkpt>
      <trkpt lat="37.2100570074" lon="-7.53132088125">
        <ele>110.8</ele>
        <time>2011-03-23T16:40:43Z</time>
      </trkpt>
      <trkpt lat="37.2100375614" lon="-7.53126866201">
        <ele>110.8</ele>
        <time>2011-03-23T16:40:45Z</time>
      </trkpt>
      <trkpt lat="37.2100190374" lon="-7.53121635896">
        <ele>110.8</ele>
        <time>2011-03-23T16:40:47Z</time>
      </trkpt>
      <trkpt lat="37.2099897845" lon="-7.53113673091">
        <ele>110.8</ele>
        <time>2011-03-23T16:40:50Z</time>
      </trkpt>
      <trkpt lat="37.2099711767" lon="-7.53108451167">
        <ele>110.8</ele>
        <time>2011-03-23T16:40:52Z</time>
      </trkpt>
      <trkpt lat="37.2099479588" lon="-7.53103380117">
        <ele>110.8</ele>
        <time>2011-03-23T16:40:54Z</time>
      </trkpt>
      <trkpt lat="37.2099218073" lon="-7.53098040847">
        <ele>110.8</ele>
        <time>2011-03-23T16:40:56Z</time>
      </trkpt>
      <trkpt lat="37.20989465" lon="-7.5309293627">
        <ele>110.8</ele>
        <time>2011-03-23T16:40:58Z</time>
      </trkpt>
      <trkpt lat="37.2098672411" lon="-7.53087747874">
        <ele>110.8</ele>
        <time>2011-03-23T16:41:00Z</time>
      </trkpt>
      <trkpt lat="37.2098368987" lon="-7.53082819317">
        <ele>110.8</ele>
        <time>2011-03-23T16:41:02Z</time>
      </trkpt>
      <trkpt lat="37.2098063885" lon="-7.5307868704">
        <ele>110.8</ele>
        <time>2011-03-23T16:41:04Z</time>
      </trkpt>
      <trkpt lat="37.2097705978" lon="-7.53074772693">
        <ele>110.8</ele>
        <time>2011-03-23T16:41:06Z</time>
      </trkpt>
      <trkpt lat="37.2097351424" lon="-7.53070430868">
        <ele>110.8</ele>
        <time>2011-03-23T16:41:08Z</time>
      </trkpt>
      <trkpt lat="37.209700609" lon="-7.53066189627">
        <ele>110.8</ele>
        <time>2011-03-23T16:41:10Z</time>
      </trkpt>
      <trkpt lat="37.2096673328" lon="-7.53061814275">
        <ele>110.8</ele>
        <time>2011-03-23T16:41:12Z</time>
      </trkpt>
      <trkpt lat="37.2096358169" lon="-7.53057849636">
        <ele>110.8</ele>
        <time>2011-03-23T16:41:14Z</time>
      </trkpt>
      <trkpt lat="37.2096032113" lon="-7.53053776033">
        <ele>110.8</ele>
        <time>2011-03-23T16:41:16Z</time>
      </trkpt>
      <trkpt lat="37.2095564403" lon="-7.53047858412">
        <ele>110.8</ele>
        <time>2011-03-23T16:41:19Z</time>
      </trkpt>
      <trkpt lat="37.2095087473" lon="-7.53041999464">
        <ele>110.8</ele>
        <time>2011-03-23T16:41:22Z</time>
      </trkpt>
      <trkpt lat="37.2094779857" lon="-7.53038093498">
        <ele>110.8</ele>
        <time>2011-03-23T16:41:24Z</time>
      </trkpt>
      <trkpt lat="37.2094467212" lon="-7.53034003131">
        <ele>110.8</ele>
        <time>2011-03-23T16:41:26Z</time>
      </trkpt>
      <trkpt lat="37.2094166302" lon="-7.53029979819">
        <ele>110.8</ele>
        <time>2011-03-23T16:41:28Z</time>
      </trkpt>
      <trkpt lat="37.2093704459" lon="-7.53024229836">
        <ele>110.8</ele>
        <time>2011-03-23T16:41:31Z</time>
      </trkpt>
      <trkpt lat="37.2093393491" lon="-7.53020407689">
        <ele>110.8</ele>
        <time>2011-03-23T16:41:33Z</time>
      </trkpt>
      <trkpt lat="37.2092916561" lon="-7.53014573887">
        <ele>110.8</ele>
        <time>2011-03-23T16:41:36Z</time>
      </trkpt>
      <trkpt lat="37.2092592181" lon="-7.53010667921">
        <ele>110.8</ele>
        <time>2011-03-23T16:41:38Z</time>
      </trkpt>
      <trkpt lat="37.209226864" lon="-7.53006636228">
        <ele>110.8</ele>
        <time>2011-03-23T16:41:40Z</time>
      </trkpt>
      <trkpt lat="37.2091838648" lon="-7.53001011973">
        <ele>110.8</ele>
        <time>2011-03-23T16:41:43Z</time>
      </trkpt>
      <trkpt lat="37.2091514269" lon="-7.52996795877">
        <ele>110.8</ele>
        <time>2011-03-23T16:41:45Z</time>
      </trkpt>
      <trkpt lat="37.2091207491" lon="-7.52992646836">
        <ele>110.8</ele>
        <time>2011-03-23T16:41:47Z</time>
      </trkpt>
      <trkpt lat="37.2090867186" lon="-7.52988740871">
        <ele>110.8</ele>
        <time>2011-03-23T16:41:49Z</time>
      </trkpt>
      <trkpt lat="37.209055035" lon="-7.52984642122">
        <ele>110.8</ele>
        <time>2011-03-23T16:41:51Z</time>
      </trkpt>
      <trkpt lat="37.2090081802" lon="-7.52979495635">
        <ele>110.8</ele>
        <time>2011-03-23T16:41:54Z</time>
      </trkpt>
      <trkpt lat="37.2089750717" lon="-7.52975665107">
        <ele>110.8</ele>
        <time>2011-03-23T16:41:56Z</time>
      </trkpt>
      <trkpt lat="37.2089436396" lon="-7.5297206089">
        <ele>110.8</ele>
        <time>2011-03-23T16:41:58Z</time>
      </trkpt>
      <trkpt lat="37.2088991317" lon="-7.52966512072">
        <ele>110.8</ele>
        <time>2011-03-23T16:42:01Z</time>
      </trkpt>
      <trkpt lat="37.2088496785" lon="-7.52960787235">
        <ele>110.8</ele>
        <time>2011-03-23T16:42:04Z</time>
      </trkpt>
      <trkpt lat="37.2088189169" lon="-7.52956587903">
        <ele>110.8</ele>
        <time>2011-03-23T16:42:06Z</time>
      </trkpt>
      <trkpt lat="37.2087887421" lon="-7.52952673555">
        <ele>110.8</ele>
        <time>2011-03-23T16:42:08Z</time>
      </trkpt>
      <trkpt lat="37.2087542086" lon="-7.52948692153">
        <ele>110.8</ele>
        <time>2011-03-23T16:42:10Z</time>
      </trkpt>
      <trkpt lat="37.2087215192" lon="-7.52944601786">
        <ele>110.8</ele>
        <time>2011-03-23T16:42:12Z</time>
      </trkpt>
      <trkpt lat="37.2086881593" lon="-7.52940444363">
        <ele>110.8</ele>
        <time>2011-03-23T16:42:14Z</time>
      </trkpt>
      <trkpt lat="37.2086560566" lon="-7.52936211504">
        <ele>110.8</ele>
        <time>2011-03-23T16:42:16Z</time>
      </trkpt>
      <trkpt lat="37.2086240377" lon="-7.52932330684">
        <ele>110.8</ele>
        <time>2011-03-23T16:42:18Z</time>
      </trkpt>
      <trkpt lat="37.2085804519" lon="-7.52926354389">
        <ele>110.8</ele>
        <time>2011-03-23T16:42:21Z</time>
      </trkpt>
      <trkpt lat="37.2085514505" lon="-7.52922289168">
        <ele>110.8</ele>
        <time>2011-03-23T16:42:23Z</time>
      </trkpt>
      <trkpt lat="37.2085202698" lon="-7.52918291002">
        <ele>110.8</ele>
        <time>2011-03-23T16:42:25Z</time>
      </trkpt>
      <trkpt lat="37.2084893406" lon="-7.52914443709">
        <ele>110.8</ele>
        <time>2011-03-23T16:42:27Z</time>
      </trkpt>
      <trkpt lat="37.2084445813" lon="-7.52908785927">
        <ele>110.8</ele>
        <time>2011-03-23T16:42:30Z</time>
      </trkpt>
      <trkpt lat="37.2084124786" lon="-7.52904846434">
        <ele>110.8</ele>
        <time>2011-03-23T16:42:32Z</time>
      </trkpt>
      <trkpt lat="37.2083805435" lon="-7.52901317654">
        <ele>110.8</ele>
        <time>2011-03-23T16:42:34Z</time>
      </trkpt>
      <trkpt lat="37.2083496981" lon="-7.52897495508">
        <ele>110.8</ele>
        <time>2011-03-23T16:42:36Z</time>
      </trkpt>
      <trkpt lat="37.2083056094" lon="-7.52891829343">
        <ele>110.8</ele>
        <time>2011-03-23T16:42:39Z</time>
      </trkpt>
      <trkpt lat="37.2082591736" lon="-7.52886498455">
        <ele>110.8</ele>
        <time>2011-03-23T16:42:42Z</time>
      </trkpt>
      <trkpt lat="37.2082146657" lon="-7.52881477697">
        <ele>110.8</ele>
        <time>2011-03-23T16:42:45Z</time>
      </trkpt>
      <trkpt lat="37.2081855805" lon="-7.52878292575">
        <ele>110.8</ele>
        <time>2011-03-23T16:42:47Z</time>
      </trkpt>
      <trkpt lat="37.2081431681" lon="-7.52873338872">
        <ele>110.8</ele>
        <time>2011-03-23T16:42:50Z</time>
      </trkpt>
      <trkpt lat="37.2081003366" lon="-7.52868594716">
        <ele>110.8</ele>
        <time>2011-03-23T16:42:53Z</time>
      </trkpt>
      <trkpt lat="37.2080578404" lon="-7.5286375836">
        <ele>110.8</ele>
        <time>2011-03-23T16:42:56Z</time>
      </trkpt>
      <trkpt lat="37.2080291743" lon="-7.52860154143">
        <ele>110.8</ele>
        <time>2011-03-23T16:42:58Z</time>
      </trkpt>
      <trkpt lat="37.2079794696" lon="-7.52855460279">
        <ele>110.8</ele>
        <time>2011-03-23T16:43:01Z</time>
      </trkpt>
      <trkpt lat="37.2079462773" lon="-7.52851914735">
        <ele>110.8</ele>
        <time>2011-03-23T16:43:03Z</time>
      </trkpt>
      <trkpt lat="37.2079099837" lon="-7.52848310518">
        <ele>110.8</ele>
        <time>2011-03-23T16:43:05Z</time>
      </trkpt>
      <trkpt lat="37.2078635479" lon="-7.52843272997">
        <ele>110.8</ele>
        <time>2011-03-23T16:43:08Z</time>
      </trkpt>
      <trkpt lat="37.2078188724" lon="-7.52839065283">
        <ele>110.8</ele>
        <time>2011-03-23T16:43:11Z</time>
      </trkpt>
      <trkpt lat="37.2077700898" lon="-7.52835226372">
        <ele>110.8</ele>
        <time>2011-03-23T16:43:14Z</time>
      </trkpt>
      <trkpt lat="37.2077311977" lon="-7.52832661511">
        <ele>110.8</ele>
        <time>2011-03-23T16:43:16Z</time>
      </trkpt>
      <trkpt lat="37.2076813254" lon="-7.52828235868">
        <ele>110.8</ele>
        <time>2011-03-23T16:43:19Z</time>
      </trkpt>
      <trkpt lat="37.207631537" lon="-7.52824707088">
        <ele>110.8</ele>
        <time>2011-03-23T16:43:22Z</time>
      </trkpt>
      <trkpt lat="37.207578731" lon="-7.52820608339">
        <ele>110.8</ele>
        <time>2011-03-23T16:43:25Z</time>
      </trkpt>
      <trkpt lat="37.2075274338" lon="-7.52816568263">
        <ele>110.8</ele>
        <time>2011-03-23T16:43:28Z</time>
      </trkpt>
      <trkpt lat="37.2074769747" lon="-7.52812176148">
        <ele>110.8</ele>
        <time>2011-03-23T16:43:31Z</time>
      </trkpt>
      <trkpt lat="37.2074281082" lon="-7.52807666685">
        <ele>110.8</ele>
        <time>2011-03-23T16:43:34Z</time>
      </trkpt>
      <trkpt lat="37.2073784036" lon="-7.52804137905">
        <ele>110.8</ele>
        <time>2011-03-23T16:43:37Z</time>
      </trkpt>
      <trkpt lat="37.2073285313" lon="-7.52799829609">
        <ele>110.8</ele>
        <time>2011-03-23T16:43:40Z</time>
      </trkpt>
      <trkpt lat="37.2072736298" lon="-7.52795747624">
        <ele>110.8</ele>
        <time>2011-03-23T16:43:43Z</time>
      </trkpt>
      <trkpt lat="37.207217974" lon="-7.5279132198">
        <ele>110.8</ele>
        <time>2011-03-23T16:43:46Z</time>
      </trkpt>
      <trkpt lat="37.2071621506" lon="-7.52787583653">
        <ele>110.8</ele>
        <time>2011-03-23T16:43:49Z</time>
      </trkpt>
      <trkpt lat="37.2071283715" lon="-7.52785052319">
        <ele>110.8</ele>
        <time>2011-03-23T16:43:51Z</time>
      </trkpt>
      <trkpt lat="37.2070704526" lon="-7.52780702113">
        <ele>110.8</ele>
        <time>2011-03-23T16:43:54Z</time>
      </trkpt>
      <trkpt lat="37.2070155511" lon="-7.5277680453">
        <ele>110.8</ele>
        <time>2011-03-23T16:43:57Z</time>
      </trkpt>
      <trkpt lat="37.2069700374" lon="-7.52773284132">
        <ele>110.8</ele>
        <time>2011-03-23T16:44:00Z</time>
      </trkpt>
      <trkpt lat="37.2069307263" lon="-7.52769461985">
        <ele>110.8</ele>
        <time>2011-03-23T16:44:03Z</time>
      </trkpt>
      <trkpt lat="37.2068877272" lon="-7.52765874532">
        <ele>110.8</ele>
        <time>2011-03-23T16:44:05Z</time>
      </trkpt>
      <trkpt lat="37.2068469073" lon="-7.52762815138">
        <ele>110.8</ele>
        <time>2011-03-23T16:44:07Z</time>
      </trkpt>
      <trkpt lat="37.2068055845" lon="-7.52759521052">
        <ele>110.8</ele>
        <time>2011-03-23T16:44:09Z</time>
      </trkpt>
      <trkpt lat="37.2067473303" lon="-7.52755061881">
        <ele>110.6</ele>
        <time>2011-03-23T16:44:12Z</time>
      </trkpt>
      <trkpt lat="37.206709528" lon="-7.52751566629">
        <ele>110.2</ele>
        <time>2011-03-23T16:44:14Z</time>
      </trkpt>
      <trkpt lat="37.2066739887" lon="-7.5274839827">
        <ele>109.8</ele>
        <time>2011-03-23T16:44:16Z</time>
      </trkpt>
      <trkpt lat="37.206619674" lon="-7.52744291139">
        <ele>109.6</ele>
        <time>2011-03-23T16:44:19Z</time>
      </trkpt>
      <trkpt lat="37.2065819554" lon="-7.52741089254">
        <ele>109.4</ele>
        <time>2011-03-23T16:44:21Z</time>
      </trkpt>
      <trkpt lat="37.2065249585" lon="-7.52736487591">
        <ele>109.2</ele>
        <time>2011-03-23T16:44:24Z</time>
      </trkpt>
      <trkpt lat="37.2064895869" lon="-7.52733159976">
        <ele>109.2</ele>
        <time>2011-03-23T16:44:26Z</time>
      </trkpt>
      <trkpt lat="37.2064527065" lon="-7.52729706633">
        <ele>109</ele>
        <time>2011-03-23T16:44:28Z</time>
      </trkpt>
      <trkpt lat="37.2064147365" lon="-7.5272651313">
        <ele>109</ele>
        <time>2011-03-23T16:44:30Z</time>
      </trkpt>
      <trkpt lat="37.2063754254" lon="-7.52723688429">
        <ele>109</ele>
        <time>2011-03-23T16:44:32Z</time>
      </trkpt>
      <trkpt lat="37.2063387965" lon="-7.52720805056">
        <ele>108.8</ele>
        <time>2011-03-23T16:44:34Z</time>
      </trkpt>
      <trkpt lat="37.2062817996" lon="-7.52716555432">
        <ele>108.8</ele>
        <time>2011-03-23T16:44:37Z</time>
      </trkpt>
      <trkpt lat="37.2062264791" lon="-7.52711937005">
        <ele>108.8</ele>
        <time>2011-03-23T16:44:40Z</time>
      </trkpt>
      <trkpt lat="37.2061717453" lon="-7.52707201232">
        <ele>108.8</ele>
        <time>2011-03-23T16:44:43Z</time>
      </trkpt>
      <trkpt lat="37.206120448" lon="-7.52702239147">
        <ele>108.8</ele>
        <time>2011-03-23T16:44:46Z</time>
      </trkpt>
      <trkpt lat="37.2060679773" lon="-7.52697427937">
        <ele>108.8</ele>
        <time>2011-03-23T16:44:49Z</time>
      </trkpt>
      <trkpt lat="37.2060327734" lon="-7.52693966212">
        <ele>108.8</ele>
        <time>2011-03-23T16:44:51Z</time>
      </trkpt>
      <trkpt lat="37.2059827334" lon="-7.52689054418">
        <ele>108.8</ele>
        <time>2011-03-23T16:44:54Z</time>
      </trkpt>
      <trkpt lat="37.2059359624" lon="-7.52684612011">
        <ele>108.6</ele>
        <time>2011-03-23T16:44:57Z</time>
      </trkpt>
      <trkpt lat="37.2059062067" lon="-7.52680714428">
        <ele>108.6</ele>
        <time>2011-03-23T16:44:59Z</time>
      </trkpt>
      <trkpt lat="37.2058754451" lon="-7.52677219176">
        <ele>108.6</ele>
        <time>2011-03-23T16:45:01Z</time>
      </trkpt>
      <trkpt lat="37.2058380618" lon="-7.52671376991">
        <ele>108.6</ele>
        <time>2011-03-23T16:45:04Z</time>
      </trkpt>
      <trkpt lat="37.2058068811" lon="-7.52665652154">
        <ele>108.6</ele>
        <time>2011-03-23T16:45:07Z</time>
      </trkpt>
      <trkpt lat="37.2057839147" lon="-7.52661067254">
        <ele>108.6</ele>
        <time>2011-03-23T16:45:09Z</time>
      </trkpt>
      <trkpt lat="37.2057438493" lon="-7.52655007141">
        <ele>108.6</ele>
        <time>2011-03-23T16:45:12Z</time>
      </trkpt>
      <trkpt lat="37.2057133391" lon="-7.5264922363">
        <ele>108.6</ele>
        <time>2011-03-23T16:45:15Z</time>
      </trkpt>
      <trkpt lat="37.2056816556" lon="-7.52642467818">
        <ele>108.6</ele>
        <time>2011-03-23T16:45:18Z</time>
      </trkpt>
      <trkpt lat="37.2056478765" lon="-7.52635862881">
        <ele>108.6</ele>
        <time>2011-03-23T16:45:21Z</time>
      </trkpt>
      <trkpt lat="37.2056165282" lon="-7.52629140597">
        <ele>108.6</ele>
        <time>2011-03-23T16:45:24Z</time>
      </trkpt>
      <trkpt lat="37.2055914663" lon="-7.52624463497">
        <ele>108.6</ele>
        <time>2011-03-23T16:45:26Z</time>
      </trkpt>
      <trkpt lat="37.2055659015" lon="-7.52619694196">
        <ele>108.6</ele>
        <time>2011-03-23T16:45:28Z</time>
      </trkpt>
      <trkpt lat="37.2055332959" lon="-7.52612779128">
        <ele>108.6</ele>
        <time>2011-03-23T16:45:31Z</time>
      </trkpt>
      <trkpt lat="37.2054986787" lon="-7.52605654513">
        <ele>108.6</ele>
        <time>2011-03-23T16:45:34Z</time>
      </trkpt>
      <trkpt lat="37.2054625527" lon="-7.52598496371">
        <ele>108.6</ele>
        <time>2011-03-23T16:45:37Z</time>
      </trkpt>
      <trkpt lat="37.2054397539" lon="-7.52593978527">
        <ele>108.6</ele>
        <time>2011-03-23T16:45:39Z</time>
      </trkpt>
      <trkpt lat="37.205403125" lon="-7.52587356826">
        <ele>108.6</ele>
        <time>2011-03-23T16:45:42Z</time>
      </trkpt>
      <trkpt lat="37.2053794881" lon="-7.52582361213">
        <ele>108.6</ele>
        <time>2011-03-23T16:45:44Z</time>
      </trkpt>
      <trkpt lat="37.2053326332" lon="-7.52572705265">
        <ele>108.6</ele>
        <time>2011-03-23T16:45:48Z</time>
      </trkpt>
      <trkpt lat="37.2052969264" lon="-7.52565555504">
        <ele>108.6</ele>
        <time>2011-03-23T16:45:51Z</time>
      </trkpt>
      <trkpt lat="37.2052752172" lon="-7.52561029278">
        <ele>108.6</ele>
        <time>2011-03-23T16:45:53Z</time>
      </trkpt>
      <trkpt lat="37.2052495686" lon="-7.52556259977">
        <ele>108.6</ele>
        <time>2011-03-23T16:45:55Z</time>
      </trkpt>
      <trkpt lat="37.2052251773" lon="-7.52551432002">
        <ele>108.6</ele>
        <time>2011-03-23T16:45:57Z</time>
      </trkpt>
      <trkpt lat="37.2052022109" lon="-7.52546662701">
        <ele>108.6</ele>
        <time>2011-03-23T16:45:59Z</time>
      </trkpt>
      <trkpt lat="37.2051662525" lon="-7.52540309221">
        <ele>108.6</ele>
        <time>2011-03-23T16:46:02Z</time>
      </trkpt>
      <trkpt lat="37.2051427832" lon="-7.52535900342">
        <ele>108.6</ele>
        <time>2011-03-23T16:46:04Z</time>
      </trkpt>
      <trkpt lat="37.2051075792" lon="-7.52528909837">
        <ele>108.6</ele>
        <time>2011-03-23T16:46:07Z</time>
      </trkpt>
      <trkpt lat="37.2050830203" lon="-7.52524660214">
        <ele>108.6</ele>
        <time>2011-03-23T16:46:09Z</time>
      </trkpt>
      <trkpt lat="37.2050489897" lon="-7.52517912784">
        <ele>108.6</ele>
        <time>2011-03-23T16:46:12Z</time>
      </trkpt>
      <trkpt lat="37.2050157974" lon="-7.52511249174">
        <ele>108.6</ele>
        <time>2011-03-23T16:46:15Z</time>
      </trkpt>
      <trkpt lat="37.2049910708" lon="-7.52506572074">
        <ele>108.6</ele>
        <time>2011-03-23T16:46:17Z</time>
      </trkpt>
      <trkpt lat="37.2049649193" lon="-7.52502003938">
        <ele>108.2</ele>
        <time>2011-03-23T16:46:19Z</time>
      </trkpt>
      <trkpt lat="37.2049375943" lon="-7.52497326838">
        <ele>108</ele>
        <time>2011-03-23T16:46:21Z</time>
      </trkpt>
      <trkpt lat="37.2049000434" lon="-7.5249041177">
        <ele>107.6</ele>
        <time>2011-03-23T16:46:24Z</time>
      </trkpt>
      <trkpt lat="37.2048632468" lon="-7.52484326511">
        <ele>107.4</ele>
        <time>2011-03-23T16:46:27Z</time>
      </trkpt>
      <trkpt lat="37.204838185" lon="-7.52479926013">
        <ele>107.2</ele>
        <time>2011-03-23T16:46:29Z</time>
      </trkpt>
      <trkpt lat="37.2048113629" lon="-7.52475592571">
        <ele>107.2</ele>
        <time>2011-03-23T16:46:31Z</time>
      </trkpt>
      <trkpt lat="37.2047726385" lon="-7.52468845142">
        <ele>107</ele>
        <time>2011-03-23T16:46:34Z</time>
      </trkpt>
      <trkpt lat="37.2047353391" lon="-7.52462634154">
        <ele>106.8</ele>
        <time>2011-03-23T16:46:37Z</time>
      </trkpt>
      <trkpt lat="37.2047051642" lon="-7.52457353557">
        <ele>106.8</ele>
        <time>2011-03-23T16:46:40Z</time>
      </trkpt>
      <trkpt lat="37.2046734806" lon="-7.52452173543">
        <ele>106.8</ele>
        <time>2011-03-23T16:46:42Z</time>
      </trkpt>
      <trkpt lat="37.2046483349" lon="-7.52447923919">
        <ele>106.8</ele>
        <time>2011-03-23T16:46:44Z</time>
      </trkpt>
      <trkpt lat="37.2046211776" lon="-7.52443573713">
        <ele>106.8</ele>
        <time>2011-03-23T16:46:46Z</time>
      </trkpt>
      <trkpt lat="37.2045595706" lon="-7.52432668861">
        <ele>106.8</ele>
        <time>2011-03-23T16:46:51Z</time>
      </trkpt>
      <trkpt lat="37.2045220197" lon="-7.52425762176">
        <ele>106.6</ele>
        <time>2011-03-23T16:46:54Z</time>
      </trkpt>
      <trkpt lat="37.2044980475" lon="-7.52420950965">
        <ele>106.6</ele>
        <time>2011-03-23T16:46:56Z</time>
      </trkpt>
      <trkpt lat="37.2044740752" lon="-7.52415938589">
        <ele>106.6</ele>
        <time>2011-03-23T16:46:58Z</time>
      </trkpt>
      <trkpt lat="37.2044529528" lon="-7.52410766957">
        <ele>106.6</ele>
        <time>2011-03-23T16:47:00Z</time>
      </trkpt>
      <trkpt lat="37.2044321657" lon="-7.52405737817">
        <ele>106.6</ele>
        <time>2011-03-23T16:47:02Z</time>
      </trkpt>
      <trkpt lat="37.2044154019" lon="-7.52400582948">
        <ele>106.4</ele>
        <time>2011-03-23T16:47:04Z</time>
      </trkpt>
      <trkpt lat="37.2044052598" lon="-7.52395159859">
        <ele>106.2</ele>
        <time>2011-03-23T16:47:06Z</time>
      </trkpt>
      <trkpt lat="37.2043965427" lon="-7.52387331164">
        <ele>105.8</ele>
        <time>2011-03-23T16:47:09Z</time>
      </trkpt>
      <trkpt lat="37.2043952854" lon="-7.52379334832">
        <ele>105.4</ele>
        <time>2011-03-23T16:47:12Z</time>
      </trkpt>
      <trkpt lat="37.2043916811" lon="-7.52373618376">
        <ele>105.2</ele>
        <time>2011-03-23T16:47:14Z</time>
      </trkpt>
      <trkpt lat="37.2043943634" lon="-7.52367876774">
        <ele>105.2</ele>
        <time>2011-03-23T16:47:16Z</time>
      </trkpt>
      <trkpt lat="37.2044071038" lon="-7.52359813386">
        <ele>105</ele>
        <time>2011-03-23T16:47:19Z</time>
      </trkpt>
      <trkpt lat="37.2044277233" lon="-7.52352143948">
        <ele>105</ele>
        <time>2011-03-23T16:47:22Z</time>
      </trkpt>
      <trkpt lat="37.2044527014" lon="-7.52344977423">
        <ele>104.6</ele>
        <time>2011-03-23T16:47:25Z</time>
      </trkpt>
      <trkpt lat="37.2044823733" lon="-7.52338422778">
        <ele>104</ele>
        <time>2011-03-23T16:47:28Z</time>
      </trkpt>
      <trkpt lat="37.2045154818" lon="-7.52333024834">
        <ele>103.6</ele>
        <time>2011-03-23T16:47:31Z</time>
      </trkpt>
      <trkpt lat="37.2045508534" lon="-7.52328615955">
        <ele>103.4</ele>
        <time>2011-03-23T16:47:34Z</time>
      </trkpt>
      <trkpt lat="37.2045848839" lon="-7.52324475296">
        <ele>103.2</ele>
        <time>2011-03-23T16:47:37Z</time>
      </trkpt>
      <trkpt lat="37.2046066769" lon="-7.52322254093">
        <ele>103</ele>
        <time>2011-03-23T16:47:39Z</time>
      </trkpt>
      <trkpt lat="37.2046406236" lon="-7.5231747641">
        <ele>102.8</ele>
        <time>2011-03-23T16:47:43Z</time>
      </trkpt>
      <trkpt lat="37.2046708822" lon="-7.52313796755">
        <ele>102.8</ele>
        <time>2011-03-23T16:47:46Z</time>
      </trkpt>
      <trkpt lat="37.2047009733" lon="-7.52310016519">
        <ele>102.8</ele>
        <time>2011-03-23T16:47:49Z</time>
      </trkpt>
      <trkpt lat="37.2047318187" lon="-7.52305917769">
        <ele>102.6</ele>
        <time>2011-03-23T16:47:52Z</time>
      </trkpt>
      <trkpt lat="37.2047614906" lon="-7.52301475362">
        <ele>102.6</ele>
        <time>2011-03-23T16:47:55Z</time>
      </trkpt>
      <trkpt lat="37.2047922522" lon="-7.52297384995">
        <ele>102.6</ele>
        <time>2011-03-23T16:47:58Z</time>
      </trkpt>
      <trkpt lat="37.2048239357" lon="-7.52293076699">
        <ele>102.6</ele>
        <time>2011-03-23T16:48:01Z</time>
      </trkpt>
      <trkpt lat="37.2048547811" lon="-7.52288919276">
        <ele>102</ele>
        <time>2011-03-23T16:48:04Z</time>
      </trkpt>
      <trkpt lat="37.2048832796" lon="-7.52284359523">
        <ele>101.6</ele>
        <time>2011-03-23T16:48:07Z</time>
      </trkpt>
      <trkpt lat="37.2049102693" lon="-7.5227975786">
        <ele>101.4</ele>
        <time>2011-03-23T16:48:10Z</time>
      </trkpt>
      <trkpt lat="37.2049355826" lon="-7.52274871212">
        <ele>101</ele>
        <time>2011-03-23T16:48:13Z</time>
      </trkpt>
      <trkpt lat="37.2049568727" lon="-7.52270277931">
        <ele>101</ele>
        <time>2011-03-23T16:48:16Z</time>
      </trkpt>
      <trkpt lat="37.2049741394" lon="-7.52265424811">
        <ele>100.8</ele>
        <time>2011-03-23T16:48:19Z</time>
      </trkpt>
      <trkpt lat="37.204990065" lon="-7.52260362143">
        <ele>100.8</ele>
        <time>2011-03-23T16:48:22Z</time>
      </trkpt>
      <trkpt lat="37.2050041466" lon="-7.52255039636">
        <ele>100.6</ele>
        <time>2011-03-23T16:48:25Z</time>
      </trkpt>
      <trkpt lat="37.2050154621" lon="-7.5224954111">
        <ele>100.6</ele>
        <time>2011-03-23T16:48:28Z</time>
      </trkpt>
      <trkpt lat="37.2050199884" lon="-7.52244235367">
        <ele>100.6</ele>
        <time>2011-03-23T16:48:31Z</time>
      </trkpt>
      <trkpt lat="37.2050213295" lon="-7.52242341058">
        <ele>100.6</ele>
        <time>2011-03-23T16:48:32Z</time>
      </trkpt>
      <trkpt lat="37.2050258557" lon="-7.52234495599">
        <ele>100.6</ele>
        <time>2011-03-23T16:48:35Z</time>
      </trkpt>
      <trkpt lat="37.2050211618" lon="-7.52228368431">
        <ele>100.6</ele>
        <time>2011-03-23T16:48:37Z</time>
      </trkpt>
      <trkpt lat="37.2050151269" lon="-7.52220883394">
        <ele>100.6</ele>
        <time>2011-03-23T16:48:40Z</time>
      </trkpt>
      <trkpt lat="37.2050059068" lon="-7.52213641432">
        <ele>100.6</ele>
        <time>2011-03-23T16:48:42Z</time>
      </trkpt>
      <trkpt lat="37.2049986145" lon="-7.5220767352">
        <ele>100.6</ele>
        <time>2011-03-23T16:48:44Z</time>
      </trkpt>
      <trkpt lat="37.2049884724" lon="-7.52201822953">
        <ele>100.6</ele>
        <time>2011-03-23T16:48:46Z</time>
      </trkpt>
      <trkpt lat="37.2049753967" lon="-7.52196215462">
        <ele>100.6</ele>
        <time>2011-03-23T16:48:48Z</time>
      </trkpt>
      <trkpt lat="37.2049601416" lon="-7.52190532534">
        <ele>100.6</ele>
        <time>2011-03-23T16:48:50Z</time>
      </trkpt>
      <trkpt lat="37.2049447189" lon="-7.52184464038">
        <ele>100.6</ele>
        <time>2011-03-23T16:48:52Z</time>
      </trkpt>
      <trkpt lat="37.2049333195" lon="-7.52178973894">
        <ele>100.6</ele>
        <time>2011-03-23T16:48:54Z</time>
      </trkpt>
      <trkpt lat="37.2049204952" lon="-7.52173416694">
        <ele>100.6</ele>
        <time>2011-03-23T16:48:56Z</time>
      </trkpt>
      <trkpt lat="37.2049028932" lon="-7.52167566128">
        <ele>100.6</ele>
        <time>2011-03-23T16:48:58Z</time>
      </trkpt>
      <trkpt lat="37.204883531" lon="-7.5216153116">
        <ele>100.6</ele>
        <time>2011-03-23T16:49:00Z</time>
      </trkpt>
      <trkpt lat="37.2048681922" lon="-7.52155923669">
        <ele>100.4</ele>
        <time>2011-03-23T16:49:02Z</time>
      </trkpt>
      <trkpt lat="37.2048560384" lon="-7.5215010663">
        <ele>100</ele>
        <time>2011-03-23T16:49:04Z</time>
      </trkpt>
      <trkpt lat="37.2048463154" lon="-7.52144247682">
        <ele>99.6</ele>
        <time>2011-03-23T16:49:06Z</time>
      </trkpt>
      <trkpt lat="37.2048361733" lon="-7.52138497699">
        <ele>99.4</ele>
        <time>2011-03-23T16:49:08Z</time>
      </trkpt>
      <trkpt lat="37.2048250254" lon="-7.52132814771">
        <ele>99.2</ele>
        <time>2011-03-23T16:49:10Z</time>
      </trkpt>
      <trkpt lat="37.2048122011" lon="-7.52127014496">
        <ele>99</ele>
        <time>2011-03-23T16:49:12Z</time>
      </trkpt>
      <trkpt lat="37.2047996282" lon="-7.52121515969">
        <ele>99</ele>
        <time>2011-03-23T16:49:14Z</time>
      </trkpt>
      <trkpt lat="37.2047883127" lon="-7.52115623494">
        <ele>98.8</ele>
        <time>2011-03-23T16:49:16Z</time>
      </trkpt>
      <trkpt lat="37.2047783382" lon="-7.52109806455">
        <ele>98.8</ele>
        <time>2011-03-23T16:49:18Z</time>
      </trkpt>
      <trkpt lat="37.2047678608" lon="-7.52101902323">
        <ele>98.8</ele>
        <time>2011-03-23T16:49:21Z</time>
      </trkpt>
      <trkpt lat="37.2047644242" lon="-7.52095054311">
        <ele>98.2</ele>
        <time>2011-03-23T16:49:23Z</time>
      </trkpt>
      <trkpt lat="37.2047592275" lon="-7.52089212127">
        <ele>98</ele>
        <time>2011-03-23T16:49:25Z</time>
      </trkpt>
      <trkpt lat="37.2047487501" lon="-7.5208040275">
        <ele>97.6</ele>
        <time>2011-03-23T16:49:28Z</time>
      </trkpt>
      <trkpt lat="37.2047385242" lon="-7.52074443219">
        <ele>97.4</ele>
        <time>2011-03-23T16:49:30Z</time>
      </trkpt>
      <trkpt lat="37.2047339141" lon="-7.52068282523">
        <ele>97.2</ele>
        <time>2011-03-23T16:49:32Z</time>
      </trkpt>
      <trkpt lat="37.2047290526" lon="-7.52062607976">
        <ele>97</ele>
        <time>2011-03-23T16:49:34Z</time>
      </trkpt>
      <trkpt lat="37.2047235206" lon="-7.52056992103">
        <ele>96.4</ele>
        <time>2011-03-23T16:49:36Z</time>
      </trkpt>
      <trkpt lat="37.204712205" lon="-7.5205124212">
        <ele>96</ele>
        <time>2011-03-23T16:49:38Z</time>
      </trkpt>
      <trkpt lat="37.2047022305" lon="-7.5204568492">
        <ele>95.8</ele>
        <time>2011-03-23T16:49:40Z</time>
      </trkpt>
      <trkpt lat="37.2046945192" lon="-7.52039901409">
        <ele>95.4</ele>
        <time>2011-03-23T16:49:42Z</time>
      </trkpt>
      <trkpt lat="37.2046892386" lon="-7.52034210099">
        <ele>95</ele>
        <time>2011-03-23T16:49:44Z</time>
      </trkpt>
      <trkpt lat="37.2046837904" lon="-7.52028443352">
        <ele>94.6</ele>
        <time>2011-03-23T16:49:46Z</time>
      </trkpt>
      <trkpt lat="37.204678845" lon="-7.52022844243">
        <ele>94</ele>
        <time>2011-03-23T16:49:48Z</time>
      </trkpt>
      <trkpt lat="37.2046730615" lon="-7.52015937557">
        <ele>93.6</ele>
        <time>2011-03-23T16:49:51Z</time>
      </trkpt>
      <trkpt lat="37.2046601534" lon="-7.52005946332">
        <ele>92.8</ele>
        <time>2011-03-23T16:49:54Z</time>
      </trkpt>
      <trkpt lat="37.2046521068" lon="-7.51998763044">
        <ele>92</ele>
        <time>2011-03-23T16:49:57Z</time>
      </trkpt>
      <trkpt lat="37.2046457365" lon="-7.51992317363">
        <ele>91.8</ele>
        <time>2011-03-23T16:49:59Z</time>
      </trkpt>
      <trkpt lat="37.2046415456" lon="-7.51986718254">
        <ele>91.2</ele>
        <time>2011-03-23T16:50:01Z</time>
      </trkpt>
      <trkpt lat="37.2046378576" lon="-7.51977984314">
        <ele>90.4</ele>
        <time>2011-03-23T16:50:04Z</time>
      </trkpt>
      <trkpt lat="37.2046281345" lon="-7.51969292284">
        <ele>89.8</ele>
        <time>2011-03-23T16:50:07Z</time>
      </trkpt>
      <trkpt lat="37.204618663" lon="-7.51960139249">
        <ele>89</ele>
        <time>2011-03-23T16:50:10Z</time>
      </trkpt>
      <trkpt lat="37.2046130471" lon="-7.51954070753">
        <ele>88.4</ele>
        <time>2011-03-23T16:50:12Z</time>
      </trkpt>
      <trkpt lat="37.2046079342" lon="-7.51948622518">
        <ele>88</ele>
        <time>2011-03-23T16:50:14Z</time>
      </trkpt>
      <trkpt lat="37.204602905" lon="-7.51942964736">
        <ele>87.6</ele>
        <time>2011-03-23T16:50:16Z</time>
      </trkpt>
      <trkpt lat="37.2046005581" lon="-7.5193703035">
        <ele>87.2</ele>
        <time>2011-03-23T16:50:18Z</time>
      </trkpt>
      <trkpt lat="37.2045965348" lon="-7.51929721334">
        <ele>86.2</ele>
        <time>2011-03-23T16:50:21Z</time>
      </trkpt>
      <trkpt lat="37.2045887396" lon="-7.5192313316">
        <ele>85.8</ele>
        <time>2011-03-23T16:50:23Z</time>
      </trkpt>
      <trkpt lat="37.2045817826" lon="-7.51917165247">
        <ele>85.4</ele>
        <time>2011-03-23T16:50:25Z</time>
      </trkpt>
      <trkpt lat="37.2045706347" lon="-7.51907727228">
        <ele>85</ele>
        <time>2011-03-23T16:50:28Z</time>
      </trkpt>
      <trkpt lat="37.2045656894" lon="-7.51902061064">
        <ele>84.4</ele>
        <time>2011-03-23T16:50:30Z</time>
      </trkpt>
      <trkpt lat="37.2045580619" lon="-7.51896193734">
        <ele>83.8</ele>
        <time>2011-03-23T16:50:32Z</time>
      </trkpt>
      <trkpt lat="37.2045525298" lon="-7.51890879609">
        <ele>83.4</ele>
        <time>2011-03-23T16:50:34Z</time>
      </trkpt>
      <trkpt lat="37.2045447346" lon="-7.51885339173">
        <ele>83.2</ele>
        <time>2011-03-23T16:50:36Z</time>
      </trkpt>
      <trkpt lat="37.2045378615" lon="-7.5187958919">
        <ele>82.8</ele>
        <time>2011-03-23T16:50:38Z</time>
      </trkpt>
      <trkpt lat="37.2045313236" lon="-7.51873956553">
        <ele>82.2</ele>
        <time>2011-03-23T16:50:40Z</time>
      </trkpt>
      <trkpt lat="37.2045202595" lon="-7.51865692">
        <ele>81.6</ele>
        <time>2011-03-23T16:50:43Z</time>
      </trkpt>
      <trkpt lat="37.2045111232" lon="-7.5185726819">
        <ele>81</ele>
        <time>2011-03-23T16:50:46Z</time>
      </trkpt>
      <trkpt lat="37.2045040824" lon="-7.51851568498">
        <ele>80.8</ele>
        <time>2011-03-23T16:50:48Z</time>
      </trkpt>
      <trkpt lat="37.2044946947" lon="-7.51843312327">
        <ele>80</ele>
        <time>2011-03-23T16:50:51Z</time>
      </trkpt>
      <trkpt lat="37.2044858099" lon="-7.51835584215">
        <ele>79.4</ele>
        <time>2011-03-23T16:50:54Z</time>
      </trkpt>
      <trkpt lat="37.2044907552" lon="-7.5183093226">
        <ele>79</ele>
        <time>2011-03-23T16:50:57Z</time>
      </trkpt>
      <trkpt lat="37.2044962873" lon="-7.51829339699">
        <ele>77.6</ele>
        <time>2011-03-23T16:51:05Z</time>
      </trkpt>
      <trkpt lat="37.204505675" lon="-7.51826749692">
        <ele>76.8</ele>
        <time>2011-03-23T16:51:10Z</time>
      </trkpt>
      <trkpt lat="37.2045201757" lon="-7.51825299623">
        <ele>76</ele>
        <time>2011-03-23T16:51:20Z</time>
      </trkpt>
      <trkpt lat="37.2045139731" lon="-7.51829289408">
        <ele>74</ele>
        <time>2011-03-23T16:51:38Z</time>
      </trkpt>
      <trkpt lat="37.2045259592" lon="-7.51826338979">
        <ele>73.6</ele>
        <time>2011-03-23T16:52:16Z</time>
      </trkpt>
      <trkpt lat="37.2045304016" lon="-7.51821695406">
        <ele>73.6</ele>
        <time>2011-03-23T16:52:19Z</time>
      </trkpt>
      <trkpt lat="37.2045330838" lon="-7.51816976397">
        <ele>73.6</ele>
        <time>2011-03-23T16:52:22Z</time>
      </trkpt>
      <trkpt lat="37.2045340058" lon="-7.51812835738">
        <ele>73.6</ele>
        <time>2011-03-23T16:52:25Z</time>
      </trkpt>
      <trkpt lat="37.2045314912" lon="-7.5181116774">
        <ele>73.6</ele>
        <time>2011-03-23T16:52:26Z</time>
      </trkpt>
      <trkpt lat="37.2045161524" lon="-7.51807177956">
        <ele>73.6</ele>
        <time>2011-03-23T16:52:29Z</time>
      </trkpt>
      <trkpt lat="37.2045025737" lon="-7.51803288754">
        <ele>73.6</ele>
        <time>2011-03-23T16:52:32Z</time>
      </trkpt>
      <trkpt lat="37.2044817866" lon="-7.51799583954">
        <ele>73.6</ele>
        <time>2011-03-23T16:52:35Z</time>
      </trkpt>
      <trkpt lat="37.2044597422" lon="-7.51795736662">
        <ele>73.6</ele>
        <time>2011-03-23T16:52:38Z</time>
      </trkpt>
      <trkpt lat="37.2044387874" lon="-7.51791813933">
        <ele>73.6</ele>
        <time>2011-03-23T16:52:41Z</time>
      </trkpt>
      <trkpt lat="37.204421856" lon="-7.5178787444">
        <ele>73.6</ele>
        <time>2011-03-23T16:52:44Z</time>
      </trkpt>
      <trkpt lat="37.2044102051" lon="-7.51783666726">
        <ele>73.6</ele>
        <time>2011-03-23T16:52:47Z</time>
      </trkpt>
      <trkpt lat="37.2043948663" lon="-7.51777941888">
        <ele>73.6</ele>
        <time>2011-03-23T16:52:51Z</time>
      </trkpt>
      <trkpt lat="37.2043812038" lon="-7.5177331508">
        <ele>73.6</ele>
        <time>2011-03-23T16:52:54Z</time>
      </trkpt>
      <trkpt lat="37.2043729895" lon="-7.51768537397">
        <ele>73.6</ele>
        <time>2011-03-23T16:52:57Z</time>
      </trkpt>
      <trkpt lat="37.2043643562" lon="-7.51763357382">
        <ele>73.6</ele>
        <time>2011-03-23T16:53:00Z</time>
      </trkpt>
      <trkpt lat="37.2043586565" lon="-7.51757967821">
        <ele>73.6</ele>
        <time>2011-03-23T16:53:03Z</time>
      </trkpt>
      <trkpt lat="37.2043517833" lon="-7.51752586641">
        <ele>73.6</ele>
        <time>2011-03-23T16:53:06Z</time>
      </trkpt>
      <trkpt lat="37.2043485982" lon="-7.51748412455">
        <ele>73.6</ele>
        <time>2011-03-23T16:53:09Z</time>
      </trkpt>
      <trkpt lat="37.2043471733" lon="-7.51743173767">
        <ele>73.6</ele>
        <time>2011-03-23T16:53:12Z</time>
      </trkpt>
      <trkpt lat="37.2043470894" lon="-7.51738513431">
        <ele>73.6</ele>
        <time>2011-03-23T16:53:15Z</time>
      </trkpt>
      <trkpt lat="37.2043439881" lon="-7.51733358562">
        <ele>73.6</ele>
        <time>2011-03-23T16:53:18Z</time>
      </trkpt>
      <trkpt lat="37.204344994" lon="-7.51728036056">
        <ele>73.6</ele>
        <time>2011-03-23T16:53:21Z</time>
      </trkpt>
      <trkpt lat="37.2043478438" lon="-7.51722680022">
        <ele>73.6</ele>
        <time>2011-03-23T16:53:24Z</time>
      </trkpt>
      <trkpt lat="37.2043540464" lon="-7.5171729046">
        <ele>73.6</ele>
        <time>2011-03-23T16:53:27Z</time>
      </trkpt>
      <trkpt lat="37.2043639371" lon="-7.51711783552">
        <ele>73.6</ele>
        <time>2011-03-23T16:53:30Z</time>
      </trkpt>
      <trkpt lat="37.2043780187" lon="-7.5170657001">
        <ele>73.6</ele>
        <time>2011-03-23T16:53:33Z</time>
      </trkpt>
      <trkpt lat="37.2043981352" lon="-7.51701758799">
        <ele>73.6</ele>
        <time>2011-03-23T16:53:36Z</time>
      </trkpt>
      <trkpt lat="37.204415821" lon="-7.51696981116">
        <ele>73.6</ele>
        <time>2011-03-23T16:53:39Z</time>
      </trkpt>
      <trkpt lat="37.2044342612" lon="-7.51692765021">
        <ele>73.6</ele>
        <time>2011-03-23T16:53:42Z</time>
      </trkpt>
      <trkpt lat="37.2044639331" lon="-7.51688062775">
        <ele>73.6</ele>
        <time>2011-03-23T16:53:45Z</time>
      </trkpt>
      <trkpt lat="37.2044907552" lon="-7.5168460105">
        <ele>73.6</ele>
        <time>2011-03-23T16:53:48Z</time>
      </trkpt>
      <trkpt lat="37.2045187508" lon="-7.51681005215">
        <ele>73.6</ele>
        <time>2011-03-23T16:53:51Z</time>
      </trkpt>
      <trkpt lat="37.2045474169" lon="-7.51677048958">
        <ele>73.6</ele>
        <time>2011-03-23T16:53:54Z</time>
      </trkpt>
      <trkpt lat="37.20457558" lon="-7.51672841244">
        <ele>73.6</ele>
        <time>2011-03-23T16:53:57Z</time>
      </trkpt>
      <trkpt lat="37.2046039109" lon="-7.51669061007">
        <ele>73.6</ele>
        <time>2011-03-23T16:54:00Z</time>
      </trkpt>
      <trkpt lat="37.2046329961" lon="-7.51665238861">
        <ele>73.6</ele>
        <time>2011-03-23T16:54:03Z</time>
      </trkpt>
      <trkpt lat="37.2046650149" lon="-7.51661433478">
        <ele>73.6</ele>
        <time>2011-03-23T16:54:06Z</time>
      </trkpt>
      <trkpt lat="37.2046961956" lon="-7.51657359875">
        <ele>73.6</ele>
        <time>2011-03-23T16:54:09Z</time>
      </trkpt>
      <trkpt lat="37.204729807" lon="-7.51653252744">
        <ele>73.6</ele>
        <time>2011-03-23T16:54:12Z</time>
      </trkpt>
      <trkpt lat="37.204758976" lon="-7.51649547944">
        <ele>73.6</ele>
        <time>2011-03-23T16:54:15Z</time>
      </trkpt>
      <trkpt lat="37.2047894023" lon="-7.51645633597">
        <ele>73.6</ele>
        <time>2011-03-23T16:54:18Z</time>
      </trkpt>
      <trkpt lat="37.2048189904" lon="-7.51641660576">
        <ele>73.6</ele>
        <time>2011-03-23T16:54:21Z</time>
      </trkpt>
      <trkpt lat="37.2048503387" lon="-7.5163713435">
        <ele>73.6</ele>
        <time>2011-03-23T16:54:24Z</time>
      </trkpt>
      <trkpt lat="37.2048774961" lon="-7.51632867963">
        <ele>73.6</ele>
        <time>2011-03-23T16:54:27Z</time>
      </trkpt>
      <trkpt lat="37.2049134544" lon="-7.5162760413">
        <ele>73.6</ele>
        <time>2011-03-23T16:54:30Z</time>
      </trkpt>
      <trkpt lat="37.2049461438" lon="-7.51623446708">
        <ele>73.6</ele>
        <time>2011-03-23T16:54:32Z</time>
      </trkpt>
      <trkpt lat="37.2049847006" lon="-7.51617344684">
        <ele>73.6</ele>
        <time>2011-03-23T16:54:35Z</time>
      </trkpt>
      <trkpt lat="37.2050128638" lon="-7.51610773275">
        <ele>73.6</ele>
        <time>2011-03-23T16:54:38Z</time>
      </trkpt>
      <trkpt lat="37.2050366684" lon="-7.51604436558">
        <ele>73.6</ele>
        <time>2011-03-23T16:54:41Z</time>
      </trkpt>
      <trkpt lat="37.2050540189" lon="-7.51599139198">
        <ele>73.6</ele>
        <time>2011-03-23T16:54:43Z</time>
      </trkpt>
      <trkpt lat="37.2050719562" lon="-7.51591478141">
        <ele>73.6</ele>
        <time>2011-03-23T16:54:46Z</time>
      </trkpt>
      <trkpt lat="37.2050653345" lon="-7.51583850612">
        <ele>73.6</ele>
        <time>2011-03-23T16:54:49Z</time>
      </trkpt>
      <trkpt lat="37.2050529292" lon="-7.51578670598">
        <ele>73.6</ele>
        <time>2011-03-23T16:54:51Z</time>
      </trkpt>
      <trkpt lat="37.2050384286" lon="-7.51570875431">
        <ele>73.6</ele>
        <time>2011-03-23T16:54:54Z</time>
      </trkpt>
      <trkpt lat="37.2050209942" lon="-7.51562686315">
        <ele>73.6</ele>
        <time>2011-03-23T16:54:57Z</time>
      </trkpt>
      <trkpt lat="37.2050044819" lon="-7.51554455289">
        <ele>73.6</ele>
        <time>2011-03-23T16:55:00Z</time>
      </trkpt>
      <trkpt lat="37.2049947589" lon="-7.51548923235">
        <ele>73.6</ele>
        <time>2011-03-23T16:55:02Z</time>
      </trkpt>
      <trkpt lat="37.2049855388" lon="-7.51543198397">
        <ele>73.6</ele>
        <time>2011-03-23T16:55:04Z</time>
      </trkpt>
      <trkpt lat="37.2049683559" lon="-7.51534992517">
        <ele>73.6</ele>
        <time>2011-03-23T16:55:07Z</time>
      </trkpt>
      <trkpt lat="37.2049598063" lon="-7.51529351498">
        <ele>73.6</ele>
        <time>2011-03-23T16:55:09Z</time>
      </trkpt>
      <trkpt lat="37.2049491613" lon="-7.51523475786">
        <ele>73.6</ele>
        <time>2011-03-23T16:55:11Z</time>
      </trkpt>
      <trkpt lat="37.2049340739" lon="-7.51514808902">
        <ele>73.6</ele>
        <time>2011-03-23T16:55:14Z</time>
      </trkpt>
      <trkpt lat="37.2049221716" lon="-7.51509092446">
        <ele>73.6</ele>
        <time>2011-03-23T16:55:16Z</time>
      </trkpt>
      <trkpt lat="37.2049095988" lon="-7.51503392754">
        <ele>73.6</ele>
        <time>2011-03-23T16:55:18Z</time>
      </trkpt>
      <trkpt lat="37.2048981155" lon="-7.51497483514">
        <ele>73.6</ele>
        <time>2011-03-23T16:55:20Z</time>
      </trkpt>
      <trkpt lat="37.2048851236" lon="-7.51491834114">
        <ele>73.6</ele>
        <time>2011-03-23T16:55:22Z</time>
      </trkpt>
      <trkpt lat="37.2048753168" lon="-7.5148581591">
        <ele>73.6</ele>
        <time>2011-03-23T16:55:24Z</time>
      </trkpt>
      <trkpt lat="37.2048593074" lon="-7.51477668703">
        <ele>73.6</ele>
        <time>2011-03-23T16:55:27Z</time>
      </trkpt>
      <trkpt lat="37.2048489138" lon="-7.51472161795">
        <ele>73.6</ele>
        <time>2011-03-23T16:55:29Z</time>
      </trkpt>
      <trkpt lat="37.2048373468" lon="-7.51466269319">
        <ele>73.6</ele>
        <time>2011-03-23T16:55:31Z</time>
      </trkpt>
      <trkpt lat="37.2048258636" lon="-7.51460334934">
        <ele>73.6</ele>
        <time>2011-03-23T16:55:33Z</time>
      </trkpt>
      <trkpt lat="37.2048153024" lon="-7.51454534659">
        <ele>73.6</ele>
        <time>2011-03-23T16:55:35Z</time>
      </trkpt>
      <trkpt lat="37.2048037354" lon="-7.51448734384">
        <ele>73.6</ele>
        <time>2011-03-23T16:55:37Z</time>
      </trkpt>
      <trkpt lat="37.2047909949" lon="-7.51442632361">
        <ele>73.6</ele>
        <time>2011-03-23T16:55:39Z</time>
      </trkpt>
      <trkpt lat="37.2047778353" lon="-7.51433722401">
        <ele>73.6</ele>
        <time>2011-03-23T16:55:42Z</time>
      </trkpt>
      <trkpt lat="37.204767777" lon="-7.51427955654">
        <ele>73.6</ele>
        <time>2011-03-23T16:55:44Z</time>
      </trkpt>
      <trkpt lat="37.2047581378" lon="-7.51421970977">
        <ele>73.6</ele>
        <time>2011-03-23T16:55:46Z</time>
      </trkpt>
      <trkpt lat="37.2047517676" lon="-7.51418844529">
        <ele>73.6</ele>
        <time>2011-03-23T16:55:47Z</time>
      </trkpt>
      <trkpt lat="37.2047376022" lon="-7.51410144116">
        <ele>73.2</ele>
        <time>2011-03-23T16:55:50Z</time>
      </trkpt>
      <trkpt lat="37.204725197" lon="-7.51404134294">
        <ele>72.8</ele>
        <time>2011-03-23T16:55:52Z</time>
      </trkpt>
      <trkpt lat="37.2047193296" lon="-7.51398183145">
        <ele>72.6</ele>
        <time>2011-03-23T16:55:54Z</time>
      </trkpt>
      <trkpt lat="37.2047298908" lon="-7.51392366107">
        <ele>72.4</ele>
        <time>2011-03-23T16:55:56Z</time>
      </trkpt>
      <trkpt lat="37.2047547851" lon="-7.51387244766">
        <ele>72.2</ele>
        <time>2011-03-23T16:55:58Z</time>
      </trkpt>
      <trkpt lat="37.204789067" lon="-7.51383154398">
        <ele>72</ele>
        <time>2011-03-23T16:56:00Z</time>
      </trkpt>
      <trkpt lat="37.2048302222" lon="-7.51380430281">
        <ele>72</ele>
        <time>2011-03-23T16:56:02Z</time>
      </trkpt>
      <trkpt lat="37.2048744786" lon="-7.51379265197">
        <ele>71.8</ele>
        <time>2011-03-23T16:56:04Z</time>
      </trkpt>
      <trkpt lat="37.204940025" lon="-7.51378929921">
        <ele>71.4</ele>
        <time>2011-03-23T16:56:07Z</time>
      </trkpt>
      <trkpt lat="37.2049838624" lon="-7.51378996976">
        <ele>71</ele>
        <time>2011-03-23T16:56:09Z</time>
      </trkpt>
      <trkpt lat="37.2050521749" lon="-7.51378846102">
        <ele>70.4</ele>
        <time>2011-03-23T16:56:12Z</time>
      </trkpt>
      <trkpt lat="37.2050957608" lon="-7.51378058203">
        <ele>70.2</ele>
        <time>2011-03-23T16:56:14Z</time>
      </trkpt>
      <trkpt lat="37.2051601337" lon="-7.51375510106">
        <ele>70</ele>
        <time>2011-03-23T16:56:17Z</time>
      </trkpt>
      <trkpt lat="37.2052016241" lon="-7.513731045">
        <ele>69.8</ele>
        <time>2011-03-23T16:56:19Z</time>
      </trkpt>
      <trkpt lat="37.2052406" lon="-7.51370363619">
        <ele>69.8</ele>
        <time>2011-03-23T16:56:21Z</time>
      </trkpt>
      <trkpt lat="37.2053032128" lon="-7.51366181051">
        <ele>69.6</ele>
        <time>2011-03-23T16:56:24Z</time>
      </trkpt>
      <trkpt lat="37.2053427753" lon="-7.51363171949">
        <ele>69.2</ele>
        <time>2011-03-23T16:56:26Z</time>
      </trkpt>
      <trkpt lat="37.2054027059" lon="-7.51358603813">
        <ele>68.6</ele>
        <time>2011-03-23T16:56:29Z</time>
      </trkpt>
      <trkpt lat="37.2054466271" lon="-7.51355737204">
        <ele>68.4</ele>
        <time>2011-03-23T16:56:31Z</time>
      </trkpt>
      <trkpt lat="37.2054913026" lon="-7.51352904121">
        <ele>68.2</ele>
        <time>2011-03-23T16:56:33Z</time>
      </trkpt>
      <trkpt lat="37.2055347209" lon="-7.51350171622">
        <ele>68</ele>
        <time>2011-03-23T16:56:35Z</time>
      </trkpt>
      <trkpt lat="37.2055804022" lon="-7.51347556469">
        <ele>67.8</ele>
        <time>2011-03-23T16:56:37Z</time>
      </trkpt>
      <trkpt lat="37.2056207191" lon="-7.51344681477">
        <ele>67.8</ele>
        <time>2011-03-23T16:56:39Z</time>
      </trkpt>
      <trkpt lat="37.2056805659" lon="-7.51340549201">
        <ele>67.4</ele>
        <time>2011-03-23T16:56:42Z</time>
      </trkpt>
      <trkpt lat="37.205722224" lon="-7.51337799938">
        <ele>67</ele>
        <time>2011-03-23T16:56:44Z</time>
      </trkpt>
      <trkpt lat="37.2057808973" lon="-7.51333785007">
        <ele>66.6</ele>
        <time>2011-03-23T16:56:47Z</time>
      </trkpt>
      <trkpt lat="37.2058192864" lon="-7.51331035744">
        <ele>66.2</ele>
        <time>2011-03-23T16:56:49Z</time>
      </trkpt>
      <trkpt lat="37.2058602738" lon="-7.5132823619">
        <ele>66</ele>
        <time>2011-03-23T16:56:51Z</time>
      </trkpt>
      <trkpt lat="37.2059000041" lon="-7.51325436635">
        <ele>66</ele>
        <time>2011-03-23T16:56:53Z</time>
      </trkpt>
      <trkpt lat="37.2059596832" lon="-7.51321078047">
        <ele>65.8</ele>
        <time>2011-03-23T16:56:56Z</time>
      </trkpt>
      <trkpt lat="37.2060013412" lon="-7.51318110854">
        <ele>65.6</ele>
        <time>2011-03-23T16:56:58Z</time>
      </trkpt>
      <trkpt lat="37.2060451786" lon="-7.51315026315">
        <ele>65.4</ele>
        <time>2011-03-23T16:57:00Z</time>
      </trkpt>
      <trkpt lat="37.2060871719" lon="-7.51311841193">
        <ele>65</ele>
        <time>2011-03-23T16:57:02Z</time>
      </trkpt>
      <trkpt lat="37.2061295005" lon="-7.5130891591">
        <ele>64.6</ele>
        <time>2011-03-23T16:57:04Z</time>
      </trkpt>
      <trkpt lat="37.2061752657" lon="-7.51305772698">
        <ele>64.4</ele>
        <time>2011-03-23T16:57:06Z</time>
      </trkpt>
      <trkpt lat="37.2062185163" lon="-7.51302805505">
        <ele>64.2</ele>
        <time>2011-03-23T16:57:08Z</time>
      </trkpt>
      <trkpt lat="37.2062619345" lon="-7.5129987184">
        <ele>64</ele>
        <time>2011-03-23T16:57:10Z</time>
      </trkpt>
      <trkpt lat="37.2063061071" lon="-7.51297315361">
        <ele>63.8</ele>
        <time>2011-03-23T16:57:12Z</time>
      </trkpt>
      <trkpt lat="37.2063506988" lon="-7.5129501872">
        <ele>63.8</ele>
        <time>2011-03-23T16:57:14Z</time>
      </trkpt>
      <trkpt lat="37.2063960449" lon="-7.51293535124">
        <ele>63.6</ele>
        <time>2011-03-23T16:57:16Z</time>
      </trkpt>
      <trkpt lat="37.206440469" lon="-7.51291867126">
        <ele>63.4</ele>
        <time>2011-03-23T16:57:18Z</time>
      </trkpt>
      <trkpt lat="37.2065080271" lon="-7.51290073399">
        <ele>62.8</ele>
        <time>2011-03-23T16:57:21Z</time>
      </trkpt>
      <trkpt lat="37.2065530379" lon="-7.51289520194">
        <ele>62.4</ele>
        <time>2011-03-23T16:57:23Z</time>
      </trkpt>
      <trkpt lat="37.2065993898" lon="-7.51288816114">
        <ele>62.2</ele>
        <time>2011-03-23T16:57:25Z</time>
      </trkpt>
      <trkpt lat="37.2066468313" lon="-7.51288212617">
        <ele>62</ele>
        <time>2011-03-23T16:57:27Z</time>
      </trkpt>
      <trkpt lat="37.206691004" lon="-7.51287793522">
        <ele>61.8</ele>
        <time>2011-03-23T16:57:29Z</time>
      </trkpt>
      <trkpt lat="37.2067361824" lon="-7.51287332518">
        <ele>61.8</ele>
        <time>2011-03-23T16:57:31Z</time>
      </trkpt>
      <trkpt lat="37.2067830372" lon="-7.51286661966">
        <ele>61.6</ele>
        <time>2011-03-23T16:57:33Z</time>
      </trkpt>
      <trkpt lat="37.2068482484" lon="-7.51285739957">
        <ele>61.4</ele>
        <time>2011-03-23T16:57:36Z</time>
      </trkpt>
      <trkpt lat="37.2069004676" lon="-7.51285337625">
        <ele>61.4</ele>
        <time>2011-03-23T16:57:39Z</time>
      </trkpt>
      <trkpt lat="37.2069460652" lon="-7.5128447429">
        <ele>61.2</ele>
        <time>2011-03-23T16:57:42Z</time>
      </trkpt>
      <trkpt lat="37.2069935067" lon="-7.51283376261">
        <ele>60.6</ele>
        <time>2011-03-23T16:57:45Z</time>
      </trkpt>
      <trkpt lat="37.2070390204" lon="-7.51282630272">
        <ele>60.2</ele>
        <time>2011-03-23T16:57:48Z</time>
      </trkpt>
      <trkpt lat="37.2070780801" lon="-7.51282856583">
        <ele>59.8</ele>
        <time>2011-03-23T16:57:51Z</time>
      </trkpt>
      <trkpt lat="37.2071095122" lon="-7.51282253086">
        <ele>59.6</ele>
        <time>2011-03-23T16:57:54Z</time>
      </trkpt>
      <trkpt lat="37.207137843" lon="-7.51281875901">
        <ele>59.4</ele>
        <time>2011-03-23T16:57:57Z</time>
      </trkpt>
      <trkpt lat="37.2071627373" lon="-7.51280643761">
        <ele>59.4</ele>
        <time>2011-03-23T16:58:02Z</time>
      </trkpt>
      <trkpt lat="37.2071901461" lon="-7.51278598578">
        <ele>59.2</ele>
        <time>2011-03-23T16:58:05Z</time>
      </trkpt>
      <trkpt lat="37.2072254339" lon="-7.51276436048">
        <ele>59.2</ele>
        <time>2011-03-23T16:58:08Z</time>
      </trkpt>
      <trkpt lat="37.2072645774" lon="-7.51274206462">
        <ele>59.2</ele>
        <time>2011-03-23T16:58:11Z</time>
      </trkpt>
      <trkpt lat="37.2072995299" lon="-7.51272043932">
        <ele>59.2</ele>
        <time>2011-03-23T16:58:14Z</time>
      </trkpt>
      <trkpt lat="37.2073376675" lon="-7.51269546126">
        <ele>59.2</ele>
        <time>2011-03-23T16:58:17Z</time>
      </trkpt>
      <trkpt lat="37.2073774816" lon="-7.51266754953">
        <ele>59.2</ele>
        <time>2011-03-23T16:58:20Z</time>
      </trkpt>
      <trkpt lat="37.2074159545" lon="-7.51264215237">
        <ele>59.2</ele>
        <time>2011-03-23T16:58:23Z</time>
      </trkpt>
      <trkpt lat="37.2074516614" lon="-7.51261885069">
        <ele>59.2</ele>
        <time>2011-03-23T16:58:26Z</time>
      </trkpt>
      <trkpt lat="37.2074883741" lon="-7.51259068751">
        <ele>59</ele>
        <time>2011-03-23T16:58:29Z</time>
      </trkpt>
      <trkpt lat="37.2075276852" lon="-7.51256562563">
        <ele>59</ele>
        <time>2011-03-23T16:58:32Z</time>
      </trkpt>
      <trkpt lat="37.2075628054" lon="-7.51254056375">
        <ele>59</ele>
        <time>2011-03-23T16:58:35Z</time>
      </trkpt>
      <trkpt lat="37.2075991828" lon="-7.51251776498">
        <ele>59</ele>
        <time>2011-03-23T16:58:38Z</time>
      </trkpt>
      <trkpt lat="37.2076226521" lon="-7.51250326429">
        <ele>59</ele>
        <time>2011-03-23T16:58:40Z</time>
      </trkpt>
      <trkpt lat="37.2076731112" lon="-7.51247049106">
        <ele>59</ele>
        <time>2011-03-23T16:58:44Z</time>
      </trkpt>
      <trkpt lat="37.2077037889" lon="-7.5124459321">
        <ele>59</ele>
        <time>2011-03-23T16:58:47Z</time>
      </trkpt>
      <trkpt lat="37.2077565949" lon="-7.51240921937">
        <ele>59</ele>
        <time>2011-03-23T16:58:51Z</time>
      </trkpt>
      <trkpt lat="37.2077971633" lon="-7.51238256493">
        <ele>59</ele>
        <time>2011-03-23T16:58:54Z</time>
      </trkpt>
      <trkpt lat="37.2078353009" lon="-7.51235808978">
        <ele>59</ele>
        <time>2011-03-23T16:58:57Z</time>
      </trkpt>
      <trkpt lat="37.207874193" lon="-7.51233118388">
        <ele>59</ele>
        <time>2011-03-23T16:59:00Z</time>
      </trkpt>
      <trkpt lat="37.2079131688" lon="-7.51230427799">
        <ele>59</ele>
        <time>2011-03-23T16:59:03Z</time>
      </trkpt>
      <trkpt lat="37.2079518094" lon="-7.51227980284">
        <ele>59</ele>
        <time>2011-03-23T16:59:06Z</time>
      </trkpt>
      <trkpt lat="37.2079907014" lon="-7.51225541151">
        <ele>59</ele>
        <time>2011-03-23T16:59:09Z</time>
      </trkpt>
      <trkpt lat="37.208028839" lon="-7.51223135546">
        <ele>59</ele>
        <time>2011-03-23T16:59:12Z</time>
      </trkpt>
      <trkpt lat="37.2080642106" lon="-7.51220738322">
        <ele>59</ele>
        <time>2011-03-23T16:59:15Z</time>
      </trkpt>
      <trkpt lat="37.2081027674" lon="-7.5121856741">
        <ele>59.4</ele>
        <time>2011-03-23T16:59:18Z</time>
      </trkpt>
      <trkpt lat="37.2081393125" lon="-7.51216430026">
        <ele>60</ele>
        <time>2011-03-23T16:59:21Z</time>
      </trkpt>
      <trkpt lat="37.2081790427" lon="-7.5121420044">
        <ele>60.2</ele>
        <time>2011-03-23T16:59:24Z</time>
      </trkpt>
      <trkpt lat="37.2082175994" lon="-7.5121203791">
        <ele>60.4</ele>
        <time>2011-03-23T16:59:27Z</time>
      </trkpt>
      <trkpt lat="37.2082533901" lon="-7.51209908907">
        <ele>60.6</ele>
        <time>2011-03-23T16:59:30Z</time>
      </trkpt>
      <trkpt lat="37.2082934556" lon="-7.51207687704">
        <ele>60.8</ele>
        <time>2011-03-23T16:59:33Z</time>
      </trkpt>
      <trkpt lat="37.2083068666" lon="-7.5120669864">
        <ele>60.8</ele>
        <time>2011-03-23T16:59:34Z</time>
      </trkpt>
      <trkpt lat="37.2083615166" lon="-7.51204242743">
        <ele>60.8</ele>
        <time>2011-03-23T16:59:38Z</time>
      </trkpt>
      <trkpt lat="37.2084045158" lon="-7.51202172414">
        <ele>61</ele>
        <time>2011-03-23T16:59:41Z</time>
      </trkpt>
      <trkpt lat="37.2084341039" lon="-7.51200395451">
        <ele>61</ele>
        <time>2011-03-23T16:59:44Z</time>
      </trkpt>
      <trkpt lat="37.2084907655" lon="-7.51197294148">
        <ele>61</ele>
        <time>2011-03-23T16:59:47Z</time>
      </trkpt>
      <trkpt lat="37.2085320045" lon="-7.51195056181">
        <ele>61</ele>
        <time>2011-03-23T16:59:49Z</time>
      </trkpt>
      <trkpt lat="37.208566957" lon="-7.51192499701">
        <ele>61</ele>
        <time>2011-03-23T16:59:51Z</time>
      </trkpt>
      <trkpt lat="37.2086365268" lon="-7.51188090822">
        <ele>61</ele>
        <time>2011-03-23T16:59:54Z</time>
      </trkpt>
      <trkpt lat="37.2086842198" lon="-7.51185232594">
        <ele>61</ele>
        <time>2011-03-23T16:59:56Z</time>
      </trkpt>
      <trkpt lat="37.2087314937" lon="-7.51182458185">
        <ele>61</ele>
        <time>2011-03-23T16:59:58Z</time>
      </trkpt>
      <trkpt lat="37.2087743252" lon="-7.51179516138">
        <ele>61</ele>
        <time>2011-03-23T17:00:00Z</time>
      </trkpt>
      <trkpt lat="37.2088162347" lon="-7.51176247197">
        <ele>61</ele>
        <time>2011-03-23T17:00:02Z</time>
      </trkpt>
      <trkpt lat="37.208860072" lon="-7.51173053693">
        <ele>61</ele>
        <time>2011-03-23T17:00:04Z</time>
      </trkpt>
      <trkpt lat="37.2089013948" lon="-7.51169918862">
        <ele>61</ele>
        <time>2011-03-23T17:00:06Z</time>
      </trkpt>
      <trkpt lat="37.2089442263" lon="-7.51166591248">
        <ele>61</ele>
        <time>2011-03-23T17:00:08Z</time>
      </trkpt>
      <trkpt lat="37.2089861358" lon="-7.51163263634">
        <ele>60.8</ele>
        <time>2011-03-23T17:00:10Z</time>
      </trkpt>
      <trkpt lat="37.2090298055" lon="-7.5115976">
        <ele>60.6</ele>
        <time>2011-03-23T17:00:12Z</time>
      </trkpt>
      <trkpt lat="37.2090717988" lon="-7.51156440767">
        <ele>60.2</ele>
        <time>2011-03-23T17:00:14Z</time>
      </trkpt>
      <trkpt lat="37.2091126187" lon="-7.51152769495">
        <ele>60</ele>
        <time>2011-03-23T17:00:16Z</time>
      </trkpt>
      <trkpt lat="37.2091560369" lon="-7.51148653982">
        <ele>59.8</ele>
        <time>2011-03-23T17:00:18Z</time>
      </trkpt>
      <trkpt lat="37.209198617" lon="-7.51144957564">
        <ele>59.6</ele>
        <time>2011-03-23T17:00:20Z</time>
      </trkpt>
      <trkpt lat="37.2092432087" lon="-7.51141328202">
        <ele>59.6</ele>
        <time>2011-03-23T17:00:22Z</time>
      </trkpt>
      <trkpt lat="37.2092831904" lon="-7.51137665311">
        <ele>59.4</ele>
        <time>2011-03-23T17:00:24Z</time>
      </trkpt>
      <trkpt lat="37.2093225853" lon="-7.51134035949">
        <ele>59.4</ele>
        <time>2011-03-23T17:00:26Z</time>
      </trkpt>
      <trkpt lat="37.2093788278" lon="-7.51128369784">
        <ele>59.2</ele>
        <time>2011-03-23T17:00:29Z</time>
      </trkpt>
      <trkpt lat="37.2094198991" lon="-7.51124891296">
        <ele>59.2</ele>
        <time>2011-03-23T17:00:31Z</time>
      </trkpt>
      <trkpt lat="37.2094598808" lon="-7.51121094295">
        <ele>59</ele>
        <time>2011-03-23T17:00:33Z</time>
      </trkpt>
      <trkpt lat="37.2095194761" lon="-7.51115612532">
        <ele>58.6</ele>
        <time>2011-03-23T17:00:36Z</time>
      </trkpt>
      <trkpt lat="37.2095606312" lon="-7.51112083752">
        <ele>58.4</ele>
        <time>2011-03-23T17:00:38Z</time>
      </trkpt>
      <trkpt lat="37.2096011158" lon="-7.51108622028">
        <ele>58</ele>
        <time>2011-03-23T17:00:40Z</time>
      </trkpt>
      <trkpt lat="37.2096570231" lon="-7.51104489751">
        <ele>57.8</ele>
        <time>2011-03-23T17:00:43Z</time>
      </trkpt>
      <trkpt lat="37.2097050514" lon="-7.51102000327">
        <ele>57.6</ele>
        <time>2011-03-23T17:00:46Z</time>
      </trkpt>
      <trkpt lat="37.2097466256" lon="-7.51100265273">
        <ele>57.4</ele>
        <time>2011-03-23T17:00:49Z</time>
      </trkpt>
      <trkpt lat="37.2097826678" lon="-7.51098806823">
        <ele>57.4</ele>
        <time>2011-03-23T17:00:52Z</time>
      </trkpt>
      <trkpt lat="37.2098195481" lon="-7.51097440573">
        <ele>57.2</ele>
        <time>2011-03-23T17:00:55Z</time>
      </trkpt>
      <trkpt lat="37.2098460349" lon="-7.51096770021">
        <ele>57.2</ele>
        <time>2011-03-23T17:00:57Z</time>
      </trkpt>
      <trkpt lat="37.209902948" lon="-7.51096384454">
        <ele>57.2</ele>
        <time>2011-03-23T17:01:01Z</time>
      </trkpt>
      <trkpt lat="37.209933542" lon="-7.51096032414">
        <ele>57.2</ele>
        <time>2011-03-23T17:01:03Z</time>
      </trkpt>
      <trkpt lat="37.2099856774" lon="-7.51095730666">
        <ele>57.2</ele>
        <time>2011-03-23T17:01:07Z</time>
      </trkpt>
      <trkpt lat="37.2100238989" lon="-7.51095470827">
        <ele>57</ele>
        <time>2011-03-23T17:01:10Z</time>
      </trkpt>
      <trkpt lat="37.2100628747" lon="-7.51095227752">
        <ele>57</ele>
        <time>2011-03-23T17:01:13Z</time>
      </trkpt>
      <trkpt lat="37.2101056224" lon="-7.51094817038">
        <ele>57</ele>
        <time>2011-03-23T17:01:16Z</time>
      </trkpt>
      <trkpt lat="37.2101484539" lon="-7.51094842184">
        <ele>57</ele>
        <time>2011-03-23T17:01:19Z</time>
      </trkpt>
      <trkpt lat="37.210189609" lon="-7.51094959531">
        <ele>57</ele>
        <time>2011-03-23T17:01:22Z</time>
      </trkpt>
      <trkpt lat="37.2102280819" lon="-7.51095194224">
        <ele>57</ele>
        <time>2011-03-23T17:01:25Z</time>
      </trkpt>
      <trkpt lat="37.2102678121" lon="-7.51094758365">
        <ele>57</ele>
        <time>2011-03-23T17:01:28Z</time>
      </trkpt>
      <trkpt lat="37.2103107275" lon="-7.51094104577">
        <ele>57</ele>
        <time>2011-03-23T17:01:31Z</time>
      </trkpt>
      <trkpt lat="37.210353559" lon="-7.51093224477">
        <ele>57</ele>
        <time>2011-03-23T17:01:34Z</time>
      </trkpt>
      <trkpt lat="37.2103934568" lon="-7.51091757645">
        <ele>57</ele>
        <time>2011-03-23T17:01:37Z</time>
      </trkpt>
      <trkpt lat="37.2104315945" lon="-7.51090315958">
        <ele>57.4</ele>
        <time>2011-03-23T17:01:40Z</time>
      </trkpt>
      <trkpt lat="37.2104724981" lon="-7.51088237247">
        <ele>57.8</ele>
        <time>2011-03-23T17:01:43Z</time>
      </trkpt>
      <trkpt lat="37.2105062772" lon="-7.51086602776">
        <ele>58.2</ele>
        <time>2011-03-23T17:01:46Z</time>
      </trkpt>
      <trkpt lat="37.2105393857" lon="-7.51084700085">
        <ele>58.4</ele>
        <time>2011-03-23T17:01:49Z</time>
      </trkpt>
      <trkpt lat="37.2105750926" lon="-7.51081925676">
        <ele>58.6</ele>
        <time>2011-03-23T17:01:52Z</time>
      </trkpt>
      <trkpt lat="37.2106095422" lon="-7.51079872111">
        <ele>58.6</ele>
        <time>2011-03-23T17:01:55Z</time>
      </trkpt>
      <trkpt lat="37.2106443271" lon="-7.51077282104">
        <ele>58.8</ele>
        <time>2011-03-23T17:01:58Z</time>
      </trkpt>
      <trkpt lat="37.2106786929" lon="-7.51074482549">
        <ele>58.8</ele>
        <time>2011-03-23T17:02:01Z</time>
      </trkpt>
      <trkpt lat="37.2107169143" lon="-7.51072102089">
        <ele>58.8</ele>
        <time>2011-03-23T17:02:04Z</time>
      </trkpt>
      <trkpt lat="37.2107510287" lon="-7.51070434091">
        <ele>59</ele>
        <time>2011-03-23T17:02:07Z</time>
      </trkpt>
      <trkpt lat="37.2107829637" lon="-7.51067953049">
        <ele>59</ele>
        <time>2011-03-23T17:02:10Z</time>
      </trkpt>
      <trkpt lat="37.2108147311" lon="-7.51066067121">
        <ele>59</ele>
        <time>2011-03-23T17:02:13Z</time>
      </trkpt>
      <trkpt lat="37.2108495998" lon="-7.51063762099">
        <ele>59</ele>
        <time>2011-03-23T17:02:16Z</time>
      </trkpt>
      <trkpt lat="37.2108836303" lon="-7.51061197238">
        <ele>59</ele>
        <time>2011-03-23T17:02:19Z</time>
      </trkpt>
      <trkpt lat="37.2109117935" lon="-7.51058389301">
        <ele>59</ele>
        <time>2011-03-23T17:02:22Z</time>
      </trkpt>
      <trkpt lat="37.2109428904" lon="-7.51055849585">
        <ele>59</ele>
        <time>2011-03-23T17:02:25Z</time>
      </trkpt>
      <trkpt lat="37.2109783458" lon="-7.51053075176">
        <ele>59</ele>
        <time>2011-03-23T17:02:28Z</time>
      </trkpt>
      <trkpt lat="37.2110122925" lon="-7.51049864909">
        <ele>59</ele>
        <time>2011-03-23T17:02:31Z</time>
      </trkpt>
      <trkpt lat="37.2110429703" lon="-7.51047006681">
        <ele>59</ele>
        <time>2011-03-23T17:02:34Z</time>
      </trkpt>
      <trkpt lat="37.211080605" lon="-7.5104404787">
        <ele>59</ele>
        <time>2011-03-23T17:02:37Z</time>
      </trkpt>
      <trkpt lat="37.211105164" lon="-7.51042044596">
        <ele>59</ele>
        <time>2011-03-23T17:02:39Z</time>
      </trkpt>
      <trkpt lat="37.2111448942" lon="-7.51037585425">
        <ele>59.6</ele>
        <time>2011-03-23T17:02:43Z</time>
      </trkpt>
      <trkpt lat="37.2111719677" lon="-7.51034626615">
        <ele>60</ele>
        <time>2011-03-23T17:02:46Z</time>
      </trkpt>
      <trkpt lat="37.2112027293" lon="-7.51030804468">
        <ele>60.2</ele>
        <time>2011-03-23T17:02:49Z</time>
      </trkpt>
      <trkpt lat="37.2112355025" lon="-7.51027342743">
        <ele>60.4</ele>
        <time>2011-03-23T17:02:52Z</time>
      </trkpt>
      <trkpt lat="37.2112707903" lon="-7.51024333641">
        <ele>60.6</ele>
        <time>2011-03-23T17:02:55Z</time>
      </trkpt>
      <trkpt lat="37.2112978638" lon="-7.5102124072">
        <ele>60.8</ele>
        <time>2011-03-23T17:02:58Z</time>
      </trkpt>
      <trkpt lat="37.2113257756" lon="-7.51018038834">
        <ele>60.8</ele>
        <time>2011-03-23T17:03:01Z</time>
      </trkpt>
      <trkpt lat="37.2113557828" lon="-7.51014669311">
        <ele>60.8</ele>
        <time>2011-03-23T17:03:04Z</time>
      </trkpt>
      <trkpt lat="37.2113890589" lon="-7.51011350078">
        <ele>61</ele>
        <time>2011-03-23T17:03:07Z</time>
      </trkpt>
      <trkpt lat="37.2114219998" lon="-7.51008164956">
        <ele>61</ele>
        <time>2011-03-23T17:03:10Z</time>
      </trkpt>
      <trkpt lat="37.2114541863" lon="-7.51004862488">
        <ele>61</ele>
        <time>2011-03-23T17:03:13Z</time>
      </trkpt>
      <trkpt lat="37.211484864" lon="-7.51001140924">
        <ele>61</ele>
        <time>2011-03-23T17:03:16Z</time>
      </trkpt>
      <trkpt lat="37.2115174696" lon="-7.50997654054">
        <ele>61</ele>
        <time>2011-03-23T17:03:19Z</time>
      </trkpt>
      <trkpt lat="37.2115475606" lon="-7.50994653333">
        <ele>61</ele>
        <time>2011-03-23T17:03:22Z</time>
      </trkpt>
      <trkpt lat="37.2115794957" lon="-7.50991451448">
        <ele>61</ele>
        <time>2011-03-23T17:03:25Z</time>
      </trkpt>
      <trkpt lat="37.2116100058" lon="-7.50987939431">
        <ele>61</ele>
        <time>2011-03-23T17:03:28Z</time>
      </trkpt>
      <trkpt lat="37.2116351515" lon="-7.50984972239">
        <ele>61</ele>
        <time>2011-03-23T17:03:31Z</time>
      </trkpt>
      <trkpt lat="37.2116607163" lon="-7.50981141711">
        <ele>61</ele>
        <time>2011-03-23T17:03:34Z</time>
      </trkpt>
      <trkpt lat="37.2116897177" lon="-7.5097716869">
        <ele>61.4</ele>
        <time>2011-03-23T17:03:37Z</time>
      </trkpt>
      <trkpt lat="37.211717797" lon="-7.5097332978">
        <ele>61.8</ele>
        <time>2011-03-23T17:03:40Z</time>
      </trkpt>
      <trkpt lat="37.2117452058" lon="-7.50969339995">
        <ele>62.2</ele>
        <time>2011-03-23T17:03:43Z</time>
      </trkpt>
      <trkpt lat="37.2117708545" lon="-7.5096592018">
        <ele>62.4</ele>
        <time>2011-03-23T17:03:46Z</time>
      </trkpt>
      <trkpt lat="37.2117970898" lon="-7.50961461009">
        <ele>62.6</ele>
        <time>2011-03-23T17:03:49Z</time>
      </trkpt>
      <trkpt lat="37.2118239119" lon="-7.50957337115">
        <ele>63.2</ele>
        <time>2011-03-23T17:03:52Z</time>
      </trkpt>
      <trkpt lat="37.211848387" lon="-7.50953121019">
        <ele>63.6</ele>
        <time>2011-03-23T17:03:55Z</time>
      </trkpt>
      <trkpt lat="37.2118762988" lon="-7.50948879778">
        <ele>64</ele>
        <time>2011-03-23T17:03:58Z</time>
      </trkpt>
      <trkpt lat="37.2119026179" lon="-7.50944781028">
        <ele>64.4</ele>
        <time>2011-03-23T17:04:01Z</time>
      </trkpt>
      <trkpt lat="37.2119260872" lon="-7.5094046435">
        <ele>64.6</ele>
        <time>2011-03-23T17:04:04Z</time>
      </trkpt>
      <trkpt lat="37.2119512329" lon="-7.50936038707">
        <ele>65.4</ele>
        <time>2011-03-23T17:04:07Z</time>
      </trkpt>
      <trkpt lat="37.2119758757" lon="-7.5093194834">
        <ele>65.8</ele>
        <time>2011-03-23T17:04:10Z</time>
      </trkpt>
      <trkpt lat="37.211999345" lon="-7.50927665189">
        <ele>66.2</ele>
        <time>2011-03-23T17:04:13Z</time>
      </trkpt>
      <trkpt lat="37.2120222276" lon="-7.50922979707">
        <ele>66.6</ele>
        <time>2011-03-23T17:04:16Z</time>
      </trkpt>
      <trkpt lat="37.2120434338" lon="-7.50918839048">
        <ele>67.2</ele>
        <time>2011-03-23T17:04:19Z</time>
      </trkpt>
      <trkpt lat="37.2120647239" lon="-7.50915050429">
        <ele>67.8</ele>
        <time>2011-03-23T17:04:22Z</time>
      </trkpt>
      <trkpt lat="37.2120926356" lon="-7.50910532585">
        <ele>68.2</ele>
        <time>2011-03-23T17:04:25Z</time>
      </trkpt>
      <trkpt lat="37.2121156858" lon="-7.50906391926">
        <ele>68.6</ele>
        <time>2011-03-23T17:04:28Z</time>
      </trkpt>
      <trkpt lat="37.2121396581" lon="-7.50902385378">
        <ele>69</ele>
        <time>2011-03-23T17:04:31Z</time>
      </trkpt>
      <trkpt lat="37.2121640494" lon="-7.5089873087">
        <ele>69.6</ele>
        <time>2011-03-23T17:04:34Z</time>
      </trkpt>
      <trkpt lat="37.2121899495" lon="-7.50894305227">
        <ele>70</ele>
        <time>2011-03-23T17:04:37Z</time>
      </trkpt>
      <trkpt lat="37.2122155142" lon="-7.50890198096">
        <ele>70.4</ele>
        <time>2011-03-23T17:04:40Z</time>
      </trkpt>
      <trkpt lat="37.2122387321" lon="-7.50886090965">
        <ele>70.6</ele>
        <time>2011-03-23T17:04:43Z</time>
      </trkpt>
      <trkpt lat="37.2122606089" lon="-7.50882134708">
        <ele>70.8</ele>
        <time>2011-03-23T17:04:46Z</time>
      </trkpt>
      <trkpt lat="37.2122860898" lon="-7.50877583336">
        <ele>71.6</ele>
        <time>2011-03-23T17:04:49Z</time>
      </trkpt>
      <trkpt lat="37.2123126605" lon="-7.50874289249">
        <ele>72</ele>
        <time>2011-03-23T17:04:52Z</time>
      </trkpt>
      <trkpt lat="37.2123407398" lon="-7.50869897134">
        <ele>72.4</ele>
        <time>2011-03-23T17:04:55Z</time>
      </trkpt>
      <trkpt lat="37.2123673105" lon="-7.50865396054">
        <ele>72.8</ele>
        <time>2011-03-23T17:04:58Z</time>
      </trkpt>
      <trkpt lat="37.2123943002" lon="-7.50861397887">
        <ele>73</ele>
        <time>2011-03-23T17:05:01Z</time>
      </trkpt>
      <trkpt lat="37.2124248941" lon="-7.50857450012">
        <ele>73</ele>
        <time>2011-03-23T17:05:04Z</time>
      </trkpt>
      <trkpt lat="37.2124535602" lon="-7.50853653012">
        <ele>73.2</ele>
        <time>2011-03-23T17:05:07Z</time>
      </trkpt>
      <trkpt lat="37.2124854952" lon="-7.50850090704">
        <ele>73.2</ele>
        <time>2011-03-23T17:05:10Z</time>
      </trkpt>
      <trkpt lat="37.2125165921" lon="-7.5084654516">
        <ele>73.8</ele>
        <time>2011-03-23T17:05:13Z</time>
      </trkpt>
      <trkpt lat="37.2125465155" lon="-7.50842957707">
        <ele>74.4</ele>
        <time>2011-03-23T17:05:16Z</time>
      </trkpt>
      <trkpt lat="37.2125779476" lon="-7.50839579802">
        <ele>74.6</ele>
        <time>2011-03-23T17:05:19Z</time>
      </trkpt>
      <trkpt lat="37.2126076195" lon="-7.50836369534">
        <ele>74.8</ele>
        <time>2011-03-23T17:05:22Z</time>
      </trkpt>
      <trkpt lat="37.2126452543" lon="-7.50832019328">
        <ele>75</ele>
        <time>2011-03-23T17:05:25Z</time>
      </trkpt>
      <trkpt lat="37.2126805421" lon="-7.50828063071">
        <ele>75.2</ele>
        <time>2011-03-23T17:05:27Z</time>
      </trkpt>
      <trkpt lat="37.212718093" lon="-7.50823813448">
        <ele>75.2</ele>
        <time>2011-03-23T17:05:29Z</time>
      </trkpt>
      <trkpt lat="37.2127596672" lon="-7.50819664407">
        <ele>75.2</ele>
        <time>2011-03-23T17:05:31Z</time>
      </trkpt>
      <trkpt lat="37.2128020796" lon="-7.50815800351">
        <ele>75.4</ele>
        <time>2011-03-23T17:05:33Z</time>
      </trkpt>
      <trkpt lat="37.2128430671" lon="-7.50811986587">
        <ele>75.4</ele>
        <time>2011-03-23T17:05:35Z</time>
      </trkpt>
      <trkpt lat="37.2128812886" lon="-7.50808298551">
        <ele>75.4</ele>
        <time>2011-03-23T17:05:37Z</time>
      </trkpt>
      <trkpt lat="37.2129205159" lon="-7.50804250093">
        <ele>75.4</ele>
        <time>2011-03-23T17:05:39Z</time>
      </trkpt>
      <trkpt lat="37.212957983" lon="-7.50800570439">
        <ele>75.4</ele>
        <time>2011-03-23T17:05:41Z</time>
      </trkpt>
      <trkpt lat="37.2129960368" lon="-7.50796773438">
        <ele>75.4</ele>
        <time>2011-03-23T17:05:43Z</time>
      </trkpt>
      <trkpt lat="37.2130323304" lon="-7.50792884237">
        <ele>75.4</ele>
        <time>2011-03-23T17:05:45Z</time>
      </trkpt>
      <trkpt lat="37.2130742399" lon="-7.50789179437">
        <ele>75.4</ele>
        <time>2011-03-23T17:05:47Z</time>
      </trkpt>
      <trkpt lat="37.2131112879" lon="-7.5078557522">
        <ele>75.4</ele>
        <time>2011-03-23T17:05:49Z</time>
      </trkpt>
      <trkpt lat="37.213145989" lon="-7.5078200453">
        <ele>75.4</ele>
        <time>2011-03-23T17:05:51Z</time>
      </trkpt>
      <trkpt lat="37.2131838752" lon="-7.50778249439">
        <ele>75.4</ele>
        <time>2011-03-23T17:05:53Z</time>
      </trkpt>
      <trkpt lat="37.2132194144" lon="-7.50774242891">
        <ele>75.4</ele>
        <time>2011-03-23T17:05:55Z</time>
      </trkpt>
      <trkpt lat="37.213254786" lon="-7.50769917831">
        <ele>75.4</ele>
        <time>2011-03-23T17:05:57Z</time>
      </trkpt>
      <trkpt lat="37.2132893195" lon="-7.50765408368">
        <ele>75.4</ele>
        <time>2011-03-23T17:05:59Z</time>
      </trkpt>
      <trkpt lat="37.2133238529" lon="-7.5076104978">
        <ele>75.4</ele>
        <time>2011-03-23T17:06:01Z</time>
      </trkpt>
      <trkpt lat="37.2133547821" lon="-7.50756775011">
        <ele>75.6</ele>
        <time>2011-03-23T17:06:03Z</time>
      </trkpt>
      <trkpt lat="37.2133887288" lon="-7.50752106293">
        <ele>75.6</ele>
        <time>2011-03-23T17:06:05Z</time>
      </trkpt>
      <trkpt lat="37.2134191551" lon="-7.50747160972">
        <ele>75.6</ele>
        <time>2011-03-23T17:06:07Z</time>
      </trkpt>
      <trkpt lat="37.2134484079" lon="-7.50742643128">
        <ele>75.6</ele>
        <time>2011-03-23T17:06:09Z</time>
      </trkpt>
      <trkpt lat="37.2134795886" lon="-7.50737966028">
        <ele>75.6</ele>
        <time>2011-03-23T17:06:11Z</time>
      </trkpt>
      <trkpt lat="37.2135134515" lon="-7.5073312129">
        <ele>75.6</ele>
        <time>2011-03-23T17:06:13Z</time>
      </trkpt>
      <trkpt lat="37.2135524273" lon="-7.50728159205">
        <ele>75.6</ele>
        <time>2011-03-23T17:06:15Z</time>
      </trkpt>
      <trkpt lat="37.2135883018" lon="-7.50723130065">
        <ele>75.6</ele>
        <time>2011-03-23T17:06:17Z</time>
      </trkpt>
      <trkpt lat="37.2136210751" lon="-7.50718151216">
        <ele>75.6</ele>
        <time>2011-03-23T17:06:19Z</time>
      </trkpt>
      <trkpt lat="37.2136488191" lon="-7.50713591463">
        <ele>75.6</ele>
        <time>2011-03-23T17:06:21Z</time>
      </trkpt>
      <trkpt lat="37.2136832688" lon="-7.50708696433">
        <ele>75.6</ele>
        <time>2011-03-23T17:06:23Z</time>
      </trkpt>
      <trkpt lat="37.2137141141" lon="-7.50704170207">
        <ele>75.6</ele>
        <time>2011-03-23T17:06:25Z</time>
      </trkpt>
      <trkpt lat="37.2137490667" lon="-7.50699685891">
        <ele>75.6</ele>
        <time>2011-03-23T17:06:27Z</time>
      </trkpt>
      <trkpt lat="37.2137824266" lon="-7.50695117755">
        <ele>75.6</ele>
        <time>2011-03-23T17:06:29Z</time>
      </trkpt>
      <trkpt lat="37.213817463" lon="-7.50690809458">
        <ele>75.4</ele>
        <time>2011-03-23T17:06:31Z</time>
      </trkpt>
      <trkpt lat="37.213852164" lon="-7.50686937021">
        <ele>75</ele>
        <time>2011-03-23T17:06:33Z</time>
      </trkpt>
      <trkpt lat="37.2139085742" lon="-7.50681765388">
        <ele>74.6</ele>
        <time>2011-03-23T17:06:36Z</time>
      </trkpt>
      <trkpt lat="37.2139478853" lon="-7.50678739522">
        <ele>74.4</ele>
        <time>2011-03-23T17:06:38Z</time>
      </trkpt>
      <trkpt lat="37.2139876994" lon="-7.50675336471">
        <ele>74.2</ele>
        <time>2011-03-23T17:06:40Z</time>
      </trkpt>
      <trkpt lat="37.2140286869" lon="-7.50672302223">
        <ele>74</ele>
        <time>2011-03-23T17:06:42Z</time>
      </trkpt>
      <trkpt lat="37.2140693391" lon="-7.50669636779">
        <ele>74</ele>
        <time>2011-03-23T17:06:44Z</time>
      </trkpt>
      <trkpt lat="37.2141120029" lon="-7.50666870752">
        <ele>73.8</ele>
        <time>2011-03-23T17:06:46Z</time>
      </trkpt>
      <trkpt lat="37.2141554212" lon="-7.50664481911">
        <ele>73.8</ele>
        <time>2011-03-23T17:06:48Z</time>
      </trkpt>
      <trkpt lat="37.2141984203" lon="-7.5066187514">
        <ele>73.4</ele>
        <time>2011-03-23T17:06:50Z</time>
      </trkpt>
      <trkpt lat="37.2142430959" lon="-7.50659075585">
        <ele>73</ele>
        <time>2011-03-23T17:06:52Z</time>
      </trkpt>
      <trkpt lat="37.2142855921" lon="-7.50656552633">
        <ele>72.6</ele>
        <time>2011-03-23T17:06:54Z</time>
      </trkpt>
      <trkpt lat="37.2143304353" lon="-7.50654138646">
        <ele>72.4</ele>
        <time>2011-03-23T17:06:56Z</time>
      </trkpt>
      <trkpt lat="37.2143751946" lon="-7.50651322328">
        <ele>72.2</ele>
        <time>2011-03-23T17:06:58Z</time>
      </trkpt>
      <trkpt lat="37.2144192834" lon="-7.50648497627">
        <ele>72</ele>
        <time>2011-03-23T17:07:00Z</time>
      </trkpt>
      <trkpt lat="37.2144617796" lon="-7.50646117168">
        <ele>71.6</ele>
        <time>2011-03-23T17:07:02Z</time>
      </trkpt>
      <trkpt lat="37.214504192" lon="-7.50643560688">
        <ele>71</ele>
        <time>2011-03-23T17:07:04Z</time>
      </trkpt>
      <trkpt lat="37.2145466045" lon="-7.50640383948">
        <ele>70.8</ele>
        <time>2011-03-23T17:07:06Z</time>
      </trkpt>
      <trkpt lat="37.2145847421" lon="-7.50636762967">
        <ele>70.4</ele>
        <time>2011-03-23T17:07:08Z</time>
      </trkpt>
      <trkpt lat="37.2146234665" lon="-7.50632530108">
        <ele>70.2</ele>
        <time>2011-03-23T17:07:10Z</time>
      </trkpt>
      <trkpt lat="37.2146563235" lon="-7.5062812961">
        <ele>70</ele>
        <time>2011-03-23T17:07:12Z</time>
      </trkpt>
      <trkpt lat="37.2146854925" lon="-7.50623351927">
        <ele>70</ele>
        <time>2011-03-23T17:07:14Z</time>
      </trkpt>
      <trkpt lat="37.2147103868" lon="-7.50618096476">
        <ele>69.6</ele>
        <time>2011-03-23T17:07:16Z</time>
      </trkpt>
      <trkpt lat="37.2147285755" lon="-7.50612681769">
        <ele>69.2</ele>
        <time>2011-03-23T17:07:18Z</time>
      </trkpt>
      <trkpt lat="37.2147447526" lon="-7.50606571363">
        <ele>68.8</ele>
        <time>2011-03-23T17:07:20Z</time>
      </trkpt>
      <trkpt lat="37.2147587503" lon="-7.50601257239">
        <ele>68.4</ele>
        <time>2011-03-23T17:07:22Z</time>
      </trkpt>
      <trkpt lat="37.2147766038" lon="-7.50595959878">
        <ele>68.2</ele>
        <time>2011-03-23T17:07:24Z</time>
      </trkpt>
      <trkpt lat="37.2147971394" lon="-7.50587485777">
        <ele>68</ele>
        <time>2011-03-23T17:07:27Z</time>
      </trkpt>
      <trkpt lat="37.214812143" lon="-7.50581878286">
        <ele>67.8</ele>
        <time>2011-03-23T17:07:29Z</time>
      </trkpt>
      <trkpt lat="37.214826979" lon="-7.50576153448">
        <ele>67.4</ele>
        <time>2011-03-23T17:07:31Z</time>
      </trkpt>
      <trkpt lat="37.2148425693" lon="-7.50570395083">
        <ele>66.8</ele>
        <time>2011-03-23T17:07:33Z</time>
      </trkpt>
      <trkpt lat="37.2148573215" lon="-7.50564561281">
        <ele>66.6</ele>
        <time>2011-03-23T17:07:35Z</time>
      </trkpt>
      <trkpt lat="37.2148724927" lon="-7.50558719096">
        <ele>66.2</ele>
        <time>2011-03-23T17:07:37Z</time>
      </trkpt>
      <trkpt lat="37.2148890889" lon="-7.50553094841">
        <ele>66</ele>
        <time>2011-03-23T17:07:39Z</time>
      </trkpt>
      <trkpt lat="37.2149138993" lon="-7.50544327374">
        <ele>65.8</ele>
        <time>2011-03-23T17:07:42Z</time>
      </trkpt>
      <trkpt lat="37.2149328424" lon="-7.50538208587">
        <ele>65.2</ele>
        <time>2011-03-23T17:07:44Z</time>
      </trkpt>
      <trkpt lat="37.2149473431" lon="-7.50532358021">
        <ele>64.8</ele>
        <time>2011-03-23T17:07:46Z</time>
      </trkpt>
      <trkpt lat="37.2149675435" lon="-7.50526406872">
        <ele>64.4</ele>
        <time>2011-03-23T17:07:48Z</time>
      </trkpt>
      <trkpt lat="37.2149831338" lon="-7.50520422195">
        <ele>64.2</ele>
        <time>2011-03-23T17:07:50Z</time>
      </trkpt>
      <trkpt lat="37.2149972992" lon="-7.50514613538">
        <ele>64</ele>
        <time>2011-03-23T17:07:52Z</time>
      </trkpt>
      <trkpt lat="37.2150117999" lon="-7.50509064721">
        <ele>63.8</ele>
        <time>2011-03-23T17:07:54Z</time>
      </trkpt>
      <trkpt lat="37.2150286475" lon="-7.50503247682">
        <ele>63.6</ele>
        <time>2011-03-23T17:07:56Z</time>
      </trkpt>
      <trkpt lat="37.2150451599" lon="-7.50497472553">
        <ele>63</ele>
        <time>2011-03-23T17:07:58Z</time>
      </trkpt>
      <trkpt lat="37.2150591576" lon="-7.50491705806">
        <ele>62.6</ele>
        <time>2011-03-23T17:08:00Z</time>
      </trkpt>
      <trkpt lat="37.2150754185" lon="-7.50485964204">
        <ele>62.4</ele>
        <time>2011-03-23T17:08:02Z</time>
      </trkpt>
      <trkpt lat="37.2150937749" lon="-7.50480348331">
        <ele>62</ele>
        <time>2011-03-23T17:08:04Z</time>
      </trkpt>
      <trkpt lat="37.2151143105" lon="-7.50474975533">
        <ele>61.8</ele>
        <time>2011-03-23T17:08:06Z</time>
      </trkpt>
      <trkpt lat="37.2151374446" lon="-7.50469770374">
        <ele>61.6</ele>
        <time>2011-03-23T17:08:08Z</time>
      </trkpt>
      <trkpt lat="37.2151594052" lon="-7.50464263465">
        <ele>61.4</ele>
        <time>2011-03-23T17:08:10Z</time>
      </trkpt>
      <trkpt lat="37.2151830421" lon="-7.50458932577">
        <ele>61.2</ele>
        <time>2011-03-23T17:08:12Z</time>
      </trkpt>
      <trkpt lat="37.2152028234" lon="-7.50453920201">
        <ele>60.6</ele>
        <time>2011-03-23T17:08:14Z</time>
      </trkpt>
      <trkpt lat="37.2152242811" lon="-7.50448639604">
        <ele>60.4</ele>
        <time>2011-03-23T17:08:16Z</time>
      </trkpt>
      <trkpt lat="37.215249343" lon="-7.5044328357">
        <ele>60</ele>
        <time>2011-03-23T17:08:18Z</time>
      </trkpt>
      <trkpt lat="37.2152695433" lon="-7.50437826953">
        <ele>59.8</ele>
        <time>2011-03-23T17:08:20Z</time>
      </trkpt>
      <trkpt lat="37.2152939347" lon="-7.50432806195">
        <ele>59.6</ele>
        <time>2011-03-23T17:08:22Z</time>
      </trkpt>
      <trkpt lat="37.2153668572" lon="-7.50417576282">
        <ele>59.2</ele>
        <time>2011-03-23T17:08:28Z</time>
      </trkpt>
      <trkpt lat="37.2153995466" lon="-7.50410057718">
        <ele>59.2</ele>
        <time>2011-03-23T17:08:31Z</time>
      </trkpt>
      <trkpt lat="37.215419747" lon="-7.50405045342">
        <ele>59</ele>
        <time>2011-03-23T17:08:33Z</time>
      </trkpt>
      <trkpt lat="37.2154387739" lon="-7.50399932383">
        <ele>59</ele>
        <time>2011-03-23T17:08:35Z</time>
      </trkpt>
      <trkpt lat="37.2154593095" lon="-7.5039480266">
        <ele>58.6</ele>
        <time>2011-03-23T17:08:37Z</time>
      </trkpt>
      <trkpt lat="37.2154756543" lon="-7.5038946339">
        <ele>58.2</ele>
        <time>2011-03-23T17:08:39Z</time>
      </trkpt>
      <trkpt lat="37.2154948488" lon="-7.50381458675">
        <ele>57.8</ele>
        <time>2011-03-23T17:08:42Z</time>
      </trkpt>
      <trkpt lat="37.2155093495" lon="-7.50375792511">
        <ele>57.6</ele>
        <time>2011-03-23T17:08:44Z</time>
      </trkpt>
      <trkpt lat="37.2155168932" lon="-7.50370235311">
        <ele>57.4</ele>
        <time>2011-03-23T17:08:46Z</time>
      </trkpt>
      <trkpt lat="37.2155260295" lon="-7.50364787076">
        <ele>57.2</ele>
        <time>2011-03-23T17:08:48Z</time>
      </trkpt>
      <trkpt lat="37.2155429609" lon="-7.50356488995">
        <ele>57.2</ele>
        <time>2011-03-23T17:08:51Z</time>
      </trkpt>
      <trkpt lat="37.2155533545" lon="-7.50348308261">
        <ele>57</ele>
        <time>2011-03-23T17:08:54Z</time>
      </trkpt>
      <trkpt lat="37.2155640833" lon="-7.50340043707">
        <ele>57</ele>
        <time>2011-03-23T17:08:57Z</time>
      </trkpt>
      <trkpt lat="37.2155704535" lon="-7.50334486508">
        <ele>56.8</ele>
        <time>2011-03-23T17:08:59Z</time>
      </trkpt>
      <trkpt lat="37.2155774943" lon="-7.50326515321">
        <ele>56.8</ele>
        <time>2011-03-23T17:09:02Z</time>
      </trkpt>
      <trkpt lat="37.2155837808" lon="-7.50321142523">
        <ele>56.4</ele>
        <time>2011-03-23T17:09:04Z</time>
      </trkpt>
      <trkpt lat="37.2155969403" lon="-7.50313389265">
        <ele>56</ele>
        <time>2011-03-23T17:09:07Z</time>
      </trkpt>
      <trkpt lat="37.2156038973" lon="-7.50307991322">
        <ele>55.8</ele>
        <time>2011-03-23T17:09:09Z</time>
      </trkpt>
      <trkpt lat="37.2156189009" lon="-7.50299684859">
        <ele>55.4</ele>
        <time>2011-03-23T17:09:12Z</time>
      </trkpt>
      <trkpt lat="37.215629043" lon="-7.50294312061">
        <ele>55.2</ele>
        <time>2011-03-23T17:09:14Z</time>
      </trkpt>
      <trkpt lat="37.2156393528" lon="-7.50288603987">
        <ele>55.2</ele>
        <time>2011-03-23T17:09:16Z</time>
      </trkpt>
      <trkpt lat="37.2156483214" lon="-7.50283038405">
        <ele>55</ele>
        <time>2011-03-23T17:09:18Z</time>
      </trkpt>
      <trkpt lat="37.2156617324" lon="-7.50275016927">
        <ele>55</ele>
        <time>2011-03-23T17:09:21Z</time>
      </trkpt>
      <trkpt lat="37.2156722936" lon="-7.50269308853">
        <ele>55</ele>
        <time>2011-03-23T17:09:23Z</time>
      </trkpt>
      <trkpt lat="37.2156833577" lon="-7.50263760035">
        <ele>54.8</ele>
        <time>2011-03-23T17:09:25Z</time>
      </trkpt>
      <trkpt lat="37.215691572" lon="-7.50257934615">
        <ele>54.8</ele>
        <time>2011-03-23T17:09:27Z</time>
      </trkpt>
      <trkpt lat="37.2156980261" lon="-7.5025226845">
        <ele>54.8</ele>
        <time>2011-03-23T17:09:29Z</time>
      </trkpt>
      <trkpt lat="37.2157081682" lon="-7.50243769204">
        <ele>54.8</ele>
        <time>2011-03-23T17:09:32Z</time>
      </trkpt>
      <trkpt lat="37.2157221659" lon="-7.502358986">
        <ele>54.8</ele>
        <time>2011-03-23T17:09:35Z</time>
      </trkpt>
      <trkpt lat="37.2157309669" lon="-7.50230525802">
        <ele>54.8</ele>
        <time>2011-03-23T17:09:37Z</time>
      </trkpt>
      <trkpt lat="37.2157397679" lon="-7.50224926693">
        <ele>54.8</ele>
        <time>2011-03-23T17:09:39Z</time>
      </trkpt>
      <trkpt lat="37.2157460543" lon="-7.50219319202">
        <ele>54.8</ele>
        <time>2011-03-23T17:09:41Z</time>
      </trkpt>
      <trkpt lat="37.2157539333" lon="-7.50213393198">
        <ele>54.8</ele>
        <time>2011-03-23T17:09:43Z</time>
      </trkpt>
      <trkpt lat="37.2157575376" lon="-7.50210660699">
        <ele>54.4</ele>
        <time>2011-03-23T17:09:44Z</time>
      </trkpt>
      <trkpt lat="37.2157727926" lon="-7.50202102779">
        <ele>54</ele>
        <time>2011-03-23T17:09:47Z</time>
      </trkpt>
      <trkpt lat="37.2157816774" lon="-7.50196277358">
        <ele>53.8</ele>
        <time>2011-03-23T17:09:49Z</time>
      </trkpt>
      <trkpt lat="37.2157901431" lon="-7.50190301064">
        <ele>53.6</ele>
        <time>2011-03-23T17:09:51Z</time>
      </trkpt>
      <trkpt lat="37.2158007882" lon="-7.50184199041">
        <ele>53.4</ele>
        <time>2011-03-23T17:09:53Z</time>
      </trkpt>
      <trkpt lat="37.2158094215" lon="-7.50178097017">
        <ele>53.2</ele>
        <time>2011-03-23T17:09:55Z</time>
      </trkpt>
      <trkpt lat="37.215819396" lon="-7.50171743537">
        <ele>53.2</ele>
        <time>2011-03-23T17:09:57Z</time>
      </trkpt>
      <trkpt lat="37.2158268559" lon="-7.50165482258">
        <ele>53</ele>
        <time>2011-03-23T17:09:59Z</time>
      </trkpt>
      <trkpt lat="37.2158364112" lon="-7.50159363471">
        <ele>53</ele>
        <time>2011-03-23T17:10:01Z</time>
      </trkpt>
      <trkpt lat="37.2158457151" lon="-7.50153144101">
        <ele>52.6</ele>
        <time>2011-03-23T17:10:03Z</time>
      </trkpt>
      <trkpt lat="37.2158548514" lon="-7.50147016932">
        <ele>52.2</ele>
        <time>2011-03-23T17:10:05Z</time>
      </trkpt>
      <trkpt lat="37.2158639039" lon="-7.50140839472">
        <ele>52</ele>
        <time>2011-03-23T17:10:07Z</time>
      </trkpt>
      <trkpt lat="37.2158736269" lon="-7.50134888323">
        <ele>51.6</ele>
        <time>2011-03-23T17:10:09Z</time>
      </trkpt>
      <trkpt lat="37.2158804162" lon="-7.50128987465">
        <ele>51.4</ele>
        <time>2011-03-23T17:10:11Z</time>
      </trkpt>
      <trkpt lat="37.2158905583" lon="-7.50122818387">
        <ele>51.4</ele>
        <time>2011-03-23T17:10:13Z</time>
      </trkpt>
      <trkpt lat="37.2158987726" lon="-7.50116934293">
        <ele>51.2</ele>
        <time>2011-03-23T17:10:15Z</time>
      </trkpt>
      <trkpt lat="37.2159074897" lon="-7.50111134018">
        <ele>51</ele>
        <time>2011-03-23T17:10:17Z</time>
      </trkpt>
      <trkpt lat="37.2159167937" lon="-7.50105124196">
        <ele>50.8</ele>
        <time>2011-03-23T17:10:19Z</time>
      </trkpt>
      <trkpt lat="37.2159239183" lon="-7.50098955118">
        <ele>50.4</ele>
        <time>2011-03-23T17:10:21Z</time>
      </trkpt>
      <trkpt lat="37.2159353176" lon="-7.50093247044">
        <ele>50</ele>
        <time>2011-03-23T17:10:23Z</time>
      </trkpt>
      <trkpt lat="37.2159492316" lon="-7.50085317766">
        <ele>49.6</ele>
        <time>2011-03-23T17:10:26Z</time>
      </trkpt>
      <trkpt lat="37.2159628103" lon="-7.50076416188">
        <ele>49.2</ele>
        <time>2011-03-23T17:10:29Z</time>
      </trkpt>
      <trkpt lat="37.2159672527" lon="-7.50070389602">
        <ele>49.2</ele>
        <time>2011-03-23T17:10:31Z</time>
      </trkpt>
      <trkpt lat="37.2159753831" lon="-7.50064455217">
        <ele>48.6</ele>
        <time>2011-03-23T17:10:33Z</time>
      </trkpt>
      <trkpt lat="37.2159894647" lon="-7.50056215809">
        <ele>48</ele>
        <time>2011-03-23T17:10:36Z</time>
      </trkpt>
      <trkpt lat="37.216001367" lon="-7.50050465826">
        <ele>47.8</ele>
        <time>2011-03-23T17:10:38Z</time>
      </trkpt>
      <trkpt lat="37.2160098327" lon="-7.50044548205">
        <ele>47.6</ele>
        <time>2011-03-23T17:10:40Z</time>
      </trkpt>
      <trkpt lat="37.2160188014" lon="-7.50038856895">
        <ele>47.4</ele>
        <time>2011-03-23T17:10:42Z</time>
      </trkpt>
      <trkpt lat="37.216029614" lon="-7.50033048238">
        <ele>47.2</ele>
        <time>2011-03-23T17:10:44Z</time>
      </trkpt>
      <trkpt lat="37.2160395047" lon="-7.50024314298">
        <ele>46.6</ele>
        <time>2011-03-23T17:10:47Z</time>
      </trkpt>
      <trkpt lat="37.2160468807" lon="-7.50018547551">
        <ele>46.2</ele>
        <time>2011-03-23T17:10:49Z</time>
      </trkpt>
      <trkpt lat="37.2160567714" lon="-7.50013065788">
        <ele>45.8</ele>
        <time>2011-03-23T17:10:51Z</time>
      </trkpt>
      <trkpt lat="37.2160766365" lon="-7.50004943727">
        <ele>45.4</ele>
        <time>2011-03-23T17:10:54Z</time>
      </trkpt>
      <trkpt lat="37.2160873653" lon="-7.49998992578">
        <ele>45.2</ele>
        <time>2011-03-23T17:10:56Z</time>
      </trkpt>
      <trkpt lat="37.2160969207" lon="-7.49993401851">
        <ele>45</ele>
        <time>2011-03-23T17:10:58Z</time>
      </trkpt>
      <trkpt lat="37.2161075657" lon="-7.49984877459">
        <ele>45</ele>
        <time>2011-03-23T17:11:01Z</time>
      </trkpt>
      <trkpt lat="37.2161180431" lon="-7.49979102329">
        <ele>44.6</ele>
        <time>2011-03-23T17:11:03Z</time>
      </trkpt>
      <trkpt lat="37.2161317056" lon="-7.49973461311">
        <ele>44.2</ele>
        <time>2011-03-23T17:11:05Z</time>
      </trkpt>
      <trkpt lat="37.2161430211" lon="-7.49967946021">
        <ele>43.8</ele>
        <time>2011-03-23T17:11:07Z</time>
      </trkpt>
      <trkpt lat="37.216150481" lon="-7.49962103836">
        <ele>43.6</ele>
        <time>2011-03-23T17:11:09Z</time>
      </trkpt>
      <trkpt lat="37.2161616289" lon="-7.49953336369">
        <ele>43.2</ele>
        <time>2011-03-23T17:11:12Z</time>
      </trkpt>
      <trkpt lat="37.2161698432" lon="-7.49947888134">
        <ele>43</ele>
        <time>2011-03-23T17:11:14Z</time>
      </trkpt>
      <trkpt lat="37.2161803206" lon="-7.49939405651">
        <ele>43</ele>
        <time>2011-03-23T17:11:17Z</time>
      </trkpt>
      <trkpt lat="37.216185685" lon="-7.49933773014">
        <ele>42.8</ele>
        <time>2011-03-23T17:11:19Z</time>
      </trkpt>
      <trkpt lat="37.2161919714" lon="-7.49928115232">
        <ele>42.8</ele>
        <time>2011-03-23T17:11:21Z</time>
      </trkpt>
      <trkpt lat="37.2162015268" lon="-7.49922650233">
        <ele>42.6</ele>
        <time>2011-03-23T17:11:23Z</time>
      </trkpt>
      <trkpt lat="37.216209322" lon="-7.4991438568">
        <ele>42.6</ele>
        <time>2011-03-23T17:11:26Z</time>
      </trkpt>
      <trkpt lat="37.2162192964" lon="-7.49906330674">
        <ele>42.6</ele>
        <time>2011-03-23T17:11:29Z</time>
      </trkpt>
      <trkpt lat="37.2162256667" lon="-7.49900488489">
        <ele>42.6</ele>
        <time>2011-03-23T17:11:31Z</time>
      </trkpt>
      <trkpt lat="37.2162362279" lon="-7.49892324519">
        <ele>42.4</ele>
        <time>2011-03-23T17:11:34Z</time>
      </trkpt>
      <trkpt lat="37.2162450289" lon="-7.49886884666">
        <ele>42.4</ele>
        <time>2011-03-23T17:11:36Z</time>
      </trkpt>
      <trkpt lat="37.2162584399" lon="-7.49878544675">
        <ele>42.4</ele>
        <time>2011-03-23T17:11:39Z</time>
      </trkpt>
      <trkpt lat="37.2162710966" lon="-7.49871939738">
        <ele>42.4</ele>
        <time>2011-03-23T17:11:42Z</time>
      </trkpt>
      <trkpt lat="37.2162824959" lon="-7.4986572875">
        <ele>42.4</ele>
        <time>2011-03-23T17:11:45Z</time>
      </trkpt>
      <trkpt lat="37.2162906264" lon="-7.49860255369">
        <ele>42.4</ele>
        <time>2011-03-23T17:11:48Z</time>
      </trkpt>
      <trkpt lat="37.216299595" lon="-7.49854916099">
        <ele>42.4</ele>
        <time>2011-03-23T17:11:51Z</time>
      </trkpt>
      <trkpt lat="37.2163094857" lon="-7.49849392427">
        <ele>42.4</ele>
        <time>2011-03-23T17:11:54Z</time>
      </trkpt>
      <trkpt lat="37.2163196278" lon="-7.49843952574">
        <ele>42.4</ele>
        <time>2011-03-23T17:11:57Z</time>
      </trkpt>
      <trkpt lat="37.2163286802" lon="-7.49838722268">
        <ele>42.4</ele>
        <time>2011-03-23T17:12:00Z</time>
      </trkpt>
      <trkpt lat="37.2163376488" lon="-7.49833676364">
        <ele>42.4</ele>
        <time>2011-03-23T17:12:03Z</time>
      </trkpt>
      <trkpt lat="37.2163467851" lon="-7.49828529878">
        <ele>42.4</ele>
        <time>2011-03-23T17:12:06Z</time>
      </trkpt>
      <trkpt lat="37.2163560052" lon="-7.49823551029">
        <ele>42.4</ele>
        <time>2011-03-23T17:12:09Z</time>
      </trkpt>
      <trkpt lat="37.2163628784" lon="-7.49818077649">
        <ele>42.4</ele>
        <time>2011-03-23T17:12:12Z</time>
      </trkpt>
      <trkpt lat="37.2163707574" lon="-7.49812780288">
        <ele>42.4</ele>
        <time>2011-03-23T17:12:15Z</time>
      </trkpt>
      <trkpt lat="37.2163804804" lon="-7.49807432636">
        <ele>42.4</ele>
        <time>2011-03-23T17:12:18Z</time>
      </trkpt>
      <trkpt lat="37.216391293" lon="-7.49802143657">
        <ele>42.4</ele>
        <time>2011-03-23T17:12:21Z</time>
      </trkpt>
      <trkpt lat="37.2164008484" lon="-7.49797257009">
        <ele>42.4</ele>
        <time>2011-03-23T17:12:24Z</time>
      </trkpt>
      <trkpt lat="37.2164099846" lon="-7.49792018321">
        <ele>42.4</ele>
        <time>2011-03-23T17:12:27Z</time>
      </trkpt>
      <trkpt lat="37.2164201267" lon="-7.49786855071">
        <ele>42.4</ele>
        <time>2011-03-23T17:12:30Z</time>
      </trkpt>
      <trkpt lat="37.2164305203" lon="-7.49781691821">
        <ele>42.4</ele>
        <time>2011-03-23T17:12:33Z</time>
      </trkpt>
      <trkpt lat="37.216439908" lon="-7.49776637535">
        <ele>42.4</ele>
        <time>2011-03-23T17:12:36Z</time>
      </trkpt>
      <trkpt lat="37.2164508883" lon="-7.49771658686">
        <ele>42.4</ele>
        <time>2011-03-23T17:12:39Z</time>
      </trkpt>
      <trkpt lat="37.2164590188" lon="-7.49766562491">
        <ele>42.4</ele>
        <time>2011-03-23T17:12:42Z</time>
      </trkpt>
      <trkpt lat="37.2164656405" lon="-7.49761181311">
        <ele>42.4</ele>
        <time>2011-03-23T17:12:45Z</time>
      </trkpt>
      <trkpt lat="37.2164746929" lon="-7.49756110262">
        <ele>42.4</ele>
        <time>2011-03-23T17:12:48Z</time>
      </trkpt>
      <trkpt lat="37.2164856732" lon="-7.49751139795">
        <ele>42.4</ele>
        <time>2011-03-23T17:12:51Z</time>
      </trkpt>
      <trkpt lat="37.2164943904" lon="-7.49746370494">
        <ele>42.4</ele>
        <time>2011-03-23T17:12:54Z</time>
      </trkpt>
      <trkpt lat="37.2165026885" lon="-7.49741534138">
        <ele>42.4</ele>
        <time>2011-03-23T17:12:57Z</time>
      </trkpt>
      <trkpt lat="37.2165120762" lon="-7.49735960174">
        <ele>42.4</ele>
        <time>2011-03-23T17:13:00Z</time>
      </trkpt>
      <trkpt lat="37.2165259063" lon="-7.49730687959">
        <ele>42.4</ele>
        <time>2011-03-23T17:13:03Z</time>
      </trkpt>
      <trkpt lat="37.2165361322" lon="-7.49725340307">
        <ele>42.4</ele>
        <time>2011-03-23T17:13:06Z</time>
      </trkpt>
      <trkpt lat="37.2165456038" lon="-7.49720462041">
        <ele>42.4</ele>
        <time>2011-03-23T17:13:09Z</time>
      </trkpt>
      <trkpt lat="37.2165572546" lon="-7.49715357464">
        <ele>42.4</ele>
        <time>2011-03-23T17:13:12Z</time>
      </trkpt>
      <trkpt lat="37.2165689055" lon="-7.49710420525">
        <ele>42.4</ele>
        <time>2011-03-23T17:13:15Z</time>
      </trkpt>
      <trkpt lat="37.2165740184" lon="-7.49709699682">
        <ele>42.4</ele>
        <time>2011-03-23T17:13:16Z</time>
      </trkpt>
      <trkpt lat="37.2165637087" lon="-7.49707201875">
        <ele>42.4</ele>
        <time>2011-03-23T17:13:22Z</time>
      </trkpt>
      <trkpt lat="37.2165585119" lon="-7.49701066325">
        <ele>42.4</ele>
        <time>2011-03-23T17:13:26Z</time>
      </trkpt>
      <trkpt lat="37.2165648822" lon="-7.49696741264">
        <ele>42.4</ele>
        <time>2011-03-23T17:13:29Z</time>
      </trkpt>
      <trkpt lat="37.2165705819" lon="-7.49691100245">
        <ele>42.4</ele>
        <time>2011-03-23T17:13:32Z</time>
      </trkpt>
      <trkpt lat="37.2165717553" lon="-7.49689205936">
        <ele>42.4</ele>
        <time>2011-03-23T17:13:33Z</time>
      </trkpt>
      <trkpt lat="37.2165734317" lon="-7.49687294863">
        <ele>42.4</ele>
        <time>2011-03-23T17:13:34Z</time>
      </trkpt>
      <trkpt lat="37.2165937997" lon="-7.4968066478">
        <ele>42.4</ele>
        <time>2011-03-23T17:13:38Z</time>
      </trkpt>
      <trkpt lat="37.2166191131" lon="-7.49670187405">
        <ele>42.4</ele>
        <time>2011-03-23T17:13:44Z</time>
      </trkpt>
      <trkpt lat="37.2166208733" lon="-7.49664194346">
        <ele>42.4</ele>
        <time>2011-03-23T17:13:47Z</time>
      </trkpt>
      <trkpt lat="37.2166268244" lon="-7.49658201288">
        <ele>42.4</ele>
        <time>2011-03-23T17:13:50Z</time>
      </trkpt>
      <trkpt lat="37.216630261" lon="-7.49652509978">
        <ele>42.4</ele>
        <time>2011-03-23T17:13:53Z</time>
      </trkpt>
      <trkpt lat="37.2166405707" lon="-7.49647044979">
        <ele>42.4</ele>
        <time>2011-03-23T17:13:56Z</time>
      </trkpt>
      <trkpt lat="37.216650629" lon="-7.49639920364">
        <ele>42.4</ele>
        <time>2011-03-23T17:13:59Z</time>
      </trkpt>
      <trkpt lat="37.2166589271" lon="-7.49631404354">
        <ele>42.4</ele>
        <time>2011-03-23T17:14:02Z</time>
      </trkpt>
      <trkpt lat="37.2166658841" lon="-7.49623860644">
        <ele>42.4</ele>
        <time>2011-03-23T17:14:05Z</time>
      </trkpt>
      <trkpt lat="37.2166725058" lon="-7.49618077133">
        <ele>42.4</ele>
        <time>2011-03-23T17:14:07Z</time>
      </trkpt>
      <trkpt lat="37.2166803009" lon="-7.49612260094">
        <ele>42.4</ele>
        <time>2011-03-23T17:14:09Z</time>
      </trkpt>
      <trkpt lat="37.2166885152" lon="-7.49606007197">
        <ele>42.4</ele>
        <time>2011-03-23T17:14:11Z</time>
      </trkpt>
      <trkpt lat="37.2166984058" lon="-7.49597239729">
        <ele>42.4</ele>
        <time>2011-03-23T17:14:14Z</time>
      </trkpt>
      <trkpt lat="37.2167051952" lon="-7.49591313726">
        <ele>42.4</ele>
        <time>2011-03-23T17:14:16Z</time>
      </trkpt>
      <trkpt lat="37.2167124874" lon="-7.49585362577">
        <ele>42.4</ele>
        <time>2011-03-23T17:14:18Z</time>
      </trkpt>
      <trkpt lat="37.2167212046" lon="-7.49579486865">
        <ele>42.4</ele>
        <time>2011-03-23T17:14:20Z</time>
      </trkpt>
      <trkpt lat="37.2167303409" lon="-7.495737285">
        <ele>42.4</ele>
        <time>2011-03-23T17:14:22Z</time>
      </trkpt>
      <trkpt lat="37.2167405668" lon="-7.49568003662">
        <ele>42.4</ele>
        <time>2011-03-23T17:14:24Z</time>
      </trkpt>
      <trkpt lat="37.2167526367" lon="-7.49562153096">
        <ele>42.4</ele>
        <time>2011-03-23T17:14:26Z</time>
      </trkpt>
      <trkpt lat="37.2167671374" lon="-7.49556528841">
        <ele>42.4</ele>
        <time>2011-03-23T17:14:28Z</time>
      </trkpt>
      <trkpt lat="37.2167773633" lon="-7.49552606112">
        <ele>42.4</ele>
        <time>2011-03-23T17:14:31Z</time>
      </trkpt>
      <trkpt lat="37.2167880083" lon="-7.49548884548">
        <ele>42.4</ele>
        <time>2011-03-23T17:14:40Z</time>
      </trkpt>
      <trkpt lat="37.2168132379" lon="-7.49543042364">
        <ele>42.4</ele>
        <time>2011-03-23T17:14:42Z</time>
      </trkpt>
      <trkpt lat="37.2168491124" lon="-7.49537988078">
        <ele>42.4</ele>
        <time>2011-03-23T17:14:44Z</time>
      </trkpt>
      <trkpt lat="37.216885406" lon="-7.49533822274">
        <ele>42.4</ele>
        <time>2011-03-23T17:14:46Z</time>
      </trkpt>
      <trkpt lat="37.2169250524" lon="-7.4953014262">
        <ele>42.4</ele>
        <time>2011-03-23T17:14:48Z</time>
      </trkpt>
      <trkpt lat="37.2169834742" lon="-7.49526018725">
        <ele>42.4</ele>
        <time>2011-03-23T17:14:51Z</time>
      </trkpt>
      <trkpt lat="37.2170286527" lon="-7.49524074124">
        <ele>42.4</ele>
        <time>2011-03-23T17:14:53Z</time>
      </trkpt>
      <trkpt lat="37.2170898406" lon="-7.4952176072">
        <ele>42.4</ele>
        <time>2011-03-23T17:14:56Z</time>
      </trkpt>
      <trkpt lat="37.2171483462" lon="-7.49520075958">
        <ele>42.4</ele>
        <time>2011-03-23T17:14:59Z</time>
      </trkpt>
      <trkpt lat="37.2172120487" lon="-7.49518659417">
        <ele>42.4</ele>
        <time>2011-03-23T17:15:02Z</time>
      </trkpt>
      <trkpt lat="37.217275332" lon="-7.49517368604">
        <ele>42.4</ele>
        <time>2011-03-23T17:15:05Z</time>
      </trkpt>
      <trkpt lat="37.2173368551" lon="-7.49515918535">
        <ele>42.4</ele>
        <time>2011-03-23T17:15:08Z</time>
      </trkpt>
      <trkpt lat="37.2173826203" lon="-7.49514887562">
        <ele>42.4</ele>
        <time>2011-03-23T17:15:10Z</time>
      </trkpt>
      <trkpt lat="37.217446658" lon="-7.4951302678">
        <ele>42.4</ele>
        <time>2011-03-23T17:15:13Z</time>
      </trkpt>
      <trkpt lat="37.2174904954" lon="-7.49511258199">
        <ele>42.4</ele>
        <time>2011-03-23T17:15:15Z</time>
      </trkpt>
      <trkpt lat="37.2175576344" lon="-7.4950768751">
        <ele>42.4</ele>
        <time>2011-03-23T17:15:18Z</time>
      </trkpt>
      <trkpt lat="37.2176022261" lon="-7.49505063975">
        <ele>42.4</ele>
        <time>2011-03-23T17:15:20Z</time>
      </trkpt>
      <trkpt lat="37.2176424592" lon="-7.49501753124">
        <ele>42.4</ele>
        <time>2011-03-23T17:15:22Z</time>
      </trkpt>
      <trkpt lat="37.2176811836" lon="-7.49498165671">
        <ele>42.4</ele>
        <time>2011-03-23T17:15:24Z</time>
      </trkpt>
      <trkpt lat="37.2177196565" lon="-7.49494377052">
        <ele>42.4</ele>
        <time>2011-03-23T17:15:26Z</time>
      </trkpt>
      <trkpt lat="37.2177552796" lon="-7.49490378886">
        <ele>42.4</ele>
        <time>2011-03-23T17:15:28Z</time>
      </trkpt>
      <trkpt lat="37.2178090076" lon="-7.49484620521">
        <ele>42.8</ele>
        <time>2011-03-23T17:15:31Z</time>
      </trkpt>
      <trkpt lat="37.2178445468" lon="-7.49481049831">
        <ele>43</ele>
        <time>2011-03-23T17:15:33Z</time>
      </trkpt>
      <trkpt lat="37.2178968499" lon="-7.49475844672">
        <ele>43.4</ele>
        <time>2011-03-23T17:15:36Z</time>
      </trkpt>
      <trkpt lat="37.2179342332" lon="-7.49472902625">
        <ele>43.6</ele>
        <time>2011-03-23T17:15:38Z</time>
      </trkpt>
      <trkpt lat="37.2179743825" lon="-7.49470069542">
        <ele>43.8</ele>
        <time>2011-03-23T17:15:40Z</time>
      </trkpt>
      <trkpt lat="37.2180147832" lon="-7.49467739374">
        <ele>44</ele>
        <time>2011-03-23T17:15:42Z</time>
      </trkpt>
      <trkpt lat="37.218070942" lon="-7.49465174513">
        <ele>44</ele>
        <time>2011-03-23T17:15:45Z</time>
      </trkpt>
      <trkpt lat="37.218134812" lon="-7.49464252504">
        <ele>44.2</ele>
        <time>2011-03-23T17:15:48Z</time>
      </trkpt>
      <trkpt lat="37.2181968381" lon="-7.49464713508">
        <ele>44.2</ele>
        <time>2011-03-23T17:15:51Z</time>
      </trkpt>
      <trkpt lat="37.2182591994" lon="-7.49465199659">
        <ele>44.2</ele>
        <time>2011-03-23T17:15:54Z</time>
      </trkpt>
      <trkpt lat="37.2183039588" lon="-7.49465886974">
        <ele>44.2</ele>
        <time>2011-03-23T17:15:56Z</time>
      </trkpt>
      <trkpt lat="37.2183527414" lon="-7.49466473707">
        <ele>44.4</ele>
        <time>2011-03-23T17:15:58Z</time>
      </trkpt>
      <trkpt lat="37.2184006859" lon="-7.49466599436">
        <ele>44.4</ele>
        <time>2011-03-23T17:16:00Z</time>
      </trkpt>
      <trkpt lat="37.2184703395" lon="-7.49465861829">
        <ele>44.4</ele>
        <time>2011-03-23T17:16:03Z</time>
      </trkpt>
      <trkpt lat="37.2185366403" lon="-7.49463674153">
        <ele>44.4</ele>
        <time>2011-03-23T17:16:06Z</time>
      </trkpt>
      <trkpt lat="37.2185833275" lon="-7.49461419422">
        <ele>44.4</ele>
        <time>2011-03-23T17:16:08Z</time>
      </trkpt>
      <trkpt lat="37.2186288412" lon="-7.49458762359">
        <ele>44.4</ele>
        <time>2011-03-23T17:16:10Z</time>
      </trkpt>
      <trkpt lat="37.218673852" lon="-7.49454965359">
        <ele>44.4</ele>
        <time>2011-03-23T17:16:12Z</time>
      </trkpt>
      <trkpt lat="37.2187097265" lon="-7.49450397223">
        <ele>44.4</ele>
        <time>2011-03-23T17:16:14Z</time>
      </trkpt>
      <trkpt lat="37.2187383088" lon="-7.49445292646">
        <ele>44.4</ele>
        <time>2011-03-23T17:16:16Z</time>
      </trkpt>
      <trkpt lat="37.2187651309" lon="-7.49439886321">
        <ele>44.4</ele>
        <time>2011-03-23T17:16:18Z</time>
      </trkpt>
      <trkpt lat="37.218791031" lon="-7.49434220156">
        <ele>44.4</ele>
        <time>2011-03-23T17:16:20Z</time>
      </trkpt>
      <trkpt lat="37.218814165" lon="-7.49428688102">
        <ele>44.4</ele>
        <time>2011-03-23T17:16:22Z</time>
      </trkpt>
      <trkpt lat="37.2188412386" lon="-7.49423239867">
        <ele>44.4</ele>
        <time>2011-03-23T17:16:24Z</time>
      </trkpt>
      <trkpt lat="37.2188689826" lon="-7.49418043089">
        <ele>44.4</ele>
        <time>2011-03-23T17:16:26Z</time>
      </trkpt>
      <trkpt lat="37.2188944636" lon="-7.49412946894">
        <ele>44.4</ele>
        <time>2011-03-23T17:16:28Z</time>
      </trkpt>
      <trkpt lat="37.2189253928" lon="-7.49407909372">
        <ele>44.4</ele>
        <time>2011-03-23T17:16:30Z</time>
      </trkpt>
      <trkpt lat="37.2189579146" lon="-7.49403106543">
        <ele>44.4</ele>
        <time>2011-03-23T17:16:32Z</time>
      </trkpt>
      <trkpt lat="37.218986916" lon="-7.49398848538">
        <ele>44.4</ele>
        <time>2011-03-23T17:16:34Z</time>
      </trkpt>
      <trkpt lat="37.2190343575" lon="-7.49392277129">
        <ele>44.4</ele>
        <time>2011-03-23T17:16:37Z</time>
      </trkpt>
      <trkpt lat="37.2190713217" lon="-7.49387977214">
        <ele>44.4</ele>
        <time>2011-03-23T17:16:39Z</time>
      </trkpt>
      <trkpt lat="37.2191116387" lon="-7.49384196977">
        <ele>44.4</ele>
        <time>2011-03-23T17:16:41Z</time>
      </trkpt>
      <trkpt lat="37.2191544702" lon="-7.49380307775">
        <ele>44.4</ele>
        <time>2011-03-23T17:16:43Z</time>
      </trkpt>
      <trkpt lat="37.2191961282" lon="-7.49376854433">
        <ele>44.4</ele>
        <time>2011-03-23T17:16:45Z</time>
      </trkpt>
      <trkpt lat="37.2192371995" lon="-7.49373727984">
        <ele>44.4</ele>
        <time>2011-03-23T17:16:47Z</time>
      </trkpt>
      <trkpt lat="37.2192778517" lon="-7.49370593153">
        <ele>44.4</ele>
        <time>2011-03-23T17:16:49Z</time>
      </trkpt>
      <trkpt lat="37.2193209347" lon="-7.4936731583">
        <ele>44.4</ele>
        <time>2011-03-23T17:16:51Z</time>
      </trkpt>
      <trkpt lat="37.2193631795" lon="-7.49364189382">
        <ele>44.4</ele>
        <time>2011-03-23T17:16:53Z</time>
      </trkpt>
      <trkpt lat="37.2194046699" lon="-7.49361163516">
        <ele>44.4</ele>
        <time>2011-03-23T17:16:55Z</time>
      </trkpt>
      <trkpt lat="37.2194441486" lon="-7.49357902957">
        <ele>44.4</ele>
        <time>2011-03-23T17:16:57Z</time>
      </trkpt>
      <trkpt lat="37.2194852199" lon="-7.4935456696">
        <ele>44.4</ele>
        <time>2011-03-23T17:16:59Z</time>
      </trkpt>
      <trkpt lat="37.219525956" lon="-7.49351591386">
        <ele>44.4</ele>
        <time>2011-03-23T17:17:01Z</time>
      </trkpt>
      <trkpt lat="37.2195635907" lon="-7.4934860743">
        <ele>44.4</ele>
        <time>2011-03-23T17:17:03Z</time>
      </trkpt>
      <trkpt lat="37.2196035724" lon="-7.49345589946">
        <ele>44.4</ele>
        <time>2011-03-23T17:17:05Z</time>
      </trkpt>
      <trkpt lat="37.2196464877" lon="-7.49342455115">
        <ele>44</ele>
        <time>2011-03-23T17:17:07Z</time>
      </trkpt>
      <trkpt lat="37.2196873075" lon="-7.49339253229">
        <ele>43.8</ele>
        <time>2011-03-23T17:17:09Z</time>
      </trkpt>
      <trkpt lat="37.2197269539" lon="-7.49335808268">
        <ele>43.4</ele>
        <time>2011-03-23T17:17:11Z</time>
      </trkpt>
      <trkpt lat="37.2197639181" lon="-7.4933184363">
        <ele>43.2</ele>
        <time>2011-03-23T17:17:13Z</time>
      </trkpt>
      <trkpt lat="37.2197976972" lon="-7.49327443132">
        <ele>43</ele>
        <time>2011-03-23T17:17:15Z</time>
      </trkpt>
      <trkpt lat="37.2198277044" lon="-7.49322782796">
        <ele>43</ele>
        <time>2011-03-23T17:17:17Z</time>
      </trkpt>
      <trkpt lat="37.219858885" lon="-7.49317368088">
        <ele>42.8</ele>
        <time>2011-03-23T17:17:19Z</time>
      </trkpt>
      <trkpt lat="37.2198848689" lon="-7.49312464677">
        <ele>42.8</ele>
        <time>2011-03-23T17:17:21Z</time>
      </trkpt>
      <trkpt lat="37.2199136188" lon="-7.49306597347">
        <ele>42.6</ele>
        <time>2011-03-23T17:17:23Z</time>
      </trkpt>
      <trkpt lat="37.2199300474" lon="-7.49300738399">
        <ele>42.6</ele>
        <time>2011-03-23T17:17:25Z</time>
      </trkpt>
      <trkpt lat="37.2199437937" lon="-7.49295038707">
        <ele>42.6</ele>
        <time>2011-03-23T17:17:27Z</time>
      </trkpt>
      <trkpt lat="37.2199534329" lon="-7.49289213286">
        <ele>42.6</ele>
        <time>2011-03-23T17:17:29Z</time>
      </trkpt>
      <trkpt lat="37.219956618" lon="-7.49282926861">
        <ele>42.4</ele>
        <time>2011-03-23T17:17:31Z</time>
      </trkpt>
      <trkpt lat="37.2199590487" lon="-7.49276799692">
        <ele>42.4</ele>
        <time>2011-03-23T17:17:33Z</time>
      </trkpt>
      <trkpt lat="37.2199604737" lon="-7.49270706051">
        <ele>42.4</ele>
        <time>2011-03-23T17:17:35Z</time>
      </trkpt>
      <trkpt lat="37.2199649161" lon="-7.49264486681">
        <ele>42.4</ele>
        <time>2011-03-23T17:17:37Z</time>
      </trkpt>
      <trkpt lat="37.2199679336" lon="-7.49258384658">
        <ele>42.4</ele>
        <time>2011-03-23T17:17:39Z</time>
      </trkpt>
      <trkpt lat="37.2199711187" lon="-7.49252232343">
        <ele>42.4</ele>
        <time>2011-03-23T17:17:41Z</time>
      </trkpt>
      <trkpt lat="37.2199752258" lon="-7.49245904009">
        <ele>42.4</ele>
        <time>2011-03-23T17:17:43Z</time>
      </trkpt>
      <trkpt lat="37.2199786624" lon="-7.49239894187">
        <ele>42.4</ele>
        <time>2011-03-23T17:17:45Z</time>
      </trkpt>
      <trkpt lat="37.219983021" lon="-7.49230154419">
        <ele>42.2</ele>
        <time>2011-03-23T17:17:48Z</time>
      </trkpt>
      <trkpt lat="37.2199859546" lon="-7.49224085923">
        <ele>41.8</ele>
        <time>2011-03-23T17:17:50Z</time>
      </trkpt>
      <trkpt lat="37.2199883016" lon="-7.49217900081">
        <ele>41.6</ele>
        <time>2011-03-23T17:17:52Z</time>
      </trkpt>
      <trkpt lat="37.2199925763" lon="-7.4921189864">
        <ele>41.4</ele>
        <time>2011-03-23T17:17:54Z</time>
      </trkpt>
      <trkpt lat="37.2199950909" lon="-7.49205838527">
        <ele>41.2</ele>
        <time>2011-03-23T17:17:56Z</time>
      </trkpt>
      <trkpt lat="37.2199971026" lon="-7.49199644303">
        <ele>41</ele>
        <time>2011-03-23T17:17:58Z</time>
      </trkpt>
      <trkpt lat="37.2200012097" lon="-7.49193693154">
        <ele>40.8</ele>
        <time>2011-03-23T17:18:00Z</time>
      </trkpt>
      <trkpt lat="37.2200081667" lon="-7.49187884497">
        <ele>40.8</ele>
        <time>2011-03-23T17:18:02Z</time>
      </trkpt>
      <trkpt lat="37.2200170515" lon="-7.49182000403">
        <ele>40.6</ele>
        <time>2011-03-23T17:18:04Z</time>
      </trkpt>
      <trkpt lat="37.2200273612" lon="-7.49176049254">
        <ele>40.6</ele>
        <time>2011-03-23T17:18:06Z</time>
      </trkpt>
      <trkpt lat="37.2200399341" lon="-7.49170064578">
        <ele>40.6</ele>
        <time>2011-03-23T17:18:08Z</time>
      </trkpt>
      <trkpt lat="37.2200537642" lon="-7.491639877">
        <ele>40.6</ele>
        <time>2011-03-23T17:18:10Z</time>
      </trkpt>
      <trkpt lat="37.2200660856" lon="-7.49157609074">
        <ele>40.4</ele>
        <time>2011-03-23T17:18:12Z</time>
      </trkpt>
      <trkpt lat="37.2200792452" lon="-7.49152001583">
        <ele>40.4</ele>
        <time>2011-03-23T17:18:14Z</time>
      </trkpt>
      <trkpt lat="37.2200908122" lon="-7.49146092344">
        <ele>40.4</ele>
        <time>2011-03-23T17:18:16Z</time>
      </trkpt>
      <trkpt lat="37.2201031336" lon="-7.49139923265">
        <ele>40.4</ele>
        <time>2011-03-23T17:18:18Z</time>
      </trkpt>
      <trkpt lat="37.2201162932" lon="-7.49134047553">
        <ele>40</ele>
        <time>2011-03-23T17:18:20Z</time>
      </trkpt>
      <trkpt lat="37.2201295366" lon="-7.49128138314">
        <ele>39.6</ele>
        <time>2011-03-23T17:18:22Z</time>
      </trkpt>
      <trkpt lat="37.2201445402" lon="-7.49122279366">
        <ele>39.4</ele>
        <time>2011-03-23T17:18:24Z</time>
      </trkpt>
      <trkpt lat="37.2201601305" lon="-7.49116395272">
        <ele>39.2</ele>
        <time>2011-03-23T17:18:26Z</time>
      </trkpt>
      <trkpt lat="37.2201734577" lon="-7.49110494414">
        <ele>39</ele>
        <time>2011-03-23T17:18:28Z</time>
      </trkpt>
      <trkpt lat="37.220186785" lon="-7.4910461032">
        <ele>38.8</ele>
        <time>2011-03-23T17:18:30Z</time>
      </trkpt>
      <trkpt lat="37.2202051413" lon="-7.49098390951">
        <ele>38.8</ele>
        <time>2011-03-23T17:18:32Z</time>
      </trkpt>
      <trkpt lat="37.2202204802" lon="-7.49092330837">
        <ele>38.6</ele>
        <time>2011-03-23T17:18:34Z</time>
      </trkpt>
      <trkpt lat="37.2202375793" lon="-7.4908625396">
        <ele>38.6</ele>
        <time>2011-03-23T17:18:36Z</time>
      </trkpt>
      <trkpt lat="37.2202524991" lon="-7.4908034472">
        <ele>38.6</ele>
        <time>2011-03-23T17:18:38Z</time>
      </trkpt>
      <trkpt lat="37.2202597913" lon="-7.49077318854">
        <ele>38.4</ele>
        <time>2011-03-23T17:18:39Z</time>
      </trkpt>
      <trkpt lat="37.2202790697" lon="-7.49068450804">
        <ele>38.2</ele>
        <time>2011-03-23T17:18:42Z</time>
      </trkpt>
      <trkpt lat="37.2202927322" lon="-7.49062323635">
        <ele>37.8</ele>
        <time>2011-03-23T17:18:44Z</time>
      </trkpt>
      <trkpt lat="37.2203035448" lon="-7.49056456305">
        <ele>37.6</ele>
        <time>2011-03-23T17:18:46Z</time>
      </trkpt>
      <trkpt lat="37.2203165368" lon="-7.49050622503">
        <ele>37.2</ele>
        <time>2011-03-23T17:18:48Z</time>
      </trkpt>
      <trkpt lat="37.2203286905" lon="-7.49044671354">
        <ele>37</ele>
        <time>2011-03-23T17:18:50Z</time>
      </trkpt>
      <trkpt lat="37.2203416825" lon="-7.49038510657">
        <ele>36.8</ele>
        <time>2011-03-23T17:18:52Z</time>
      </trkpt>
      <trkpt lat="37.2203533333" lon="-7.49032827729">
        <ele>36.8</ele>
        <time>2011-03-23T17:18:54Z</time>
      </trkpt>
      <trkpt lat="37.220369678" lon="-7.490270526">
        <ele>36.6</ele>
        <time>2011-03-23T17:18:56Z</time>
      </trkpt>
      <trkpt lat="37.2203857713" lon="-7.49021285853">
        <ele>36.4</ele>
        <time>2011-03-23T17:18:58Z</time>
      </trkpt>
      <trkpt lat="37.2204005234" lon="-7.49015611306">
        <ele>35.8</ele>
        <time>2011-03-23T17:19:00Z</time>
      </trkpt>
      <trkpt lat="37.2204172034" lon="-7.4901024689">
        <ele>35.6</ele>
        <time>2011-03-23T17:19:02Z</time>
      </trkpt>
      <trkpt lat="37.2204298601" lon="-7.49004387942">
        <ele>35.2</ele>
        <time>2011-03-23T17:19:04Z</time>
      </trkpt>
      <trkpt lat="37.2204435226" lon="-7.48998528994">
        <ele>35</ele>
        <time>2011-03-23T17:19:06Z</time>
      </trkpt>
      <trkpt lat="37.2204572689" lon="-7.48993097523">
        <ele>34.8</ele>
        <time>2011-03-23T17:19:08Z</time>
      </trkpt>
      <trkpt lat="37.2204736974" lon="-7.48984807824">
        <ele>34.6</ele>
        <time>2011-03-23T17:19:11Z</time>
      </trkpt>
      <trkpt lat="37.2204881981" lon="-7.48978881821">
        <ele>34.6</ele>
        <time>2011-03-23T17:19:13Z</time>
      </trkpt>
      <trkpt lat="37.2205029502" lon="-7.48973022872">
        <ele>34.4</ele>
        <time>2011-03-23T17:19:15Z</time>
      </trkpt>
      <trkpt lat="37.2205207199" lon="-7.48965680328">
        <ele>34.4</ele>
        <time>2011-03-23T17:19:18Z</time>
      </trkpt>
      <trkpt lat="37.2205361426" lon="-7.48958513804">
        <ele>34</ele>
        <time>2011-03-23T17:19:21Z</time>
      </trkpt>
      <trkpt lat="37.2205568459" lon="-7.48953845085">
        <ele>33.6</ele>
        <time>2011-03-23T17:19:24Z</time>
      </trkpt>
      <trkpt lat="37.2205664012" lon="-7.4895126346">
        <ele>33.2</ele>
        <time>2011-03-23T17:19:26Z</time>
      </trkpt>
      <trkpt lat="37.2205852605" lon="-7.48944809397">
        <ele>32.8</ele>
        <time>2011-03-23T17:19:30Z</time>
      </trkpt>
      <trkpt lat="37.2205949835" lon="-7.48943594022">
        <ele>32.8</ele>
        <time>2011-03-23T17:19:31Z</time>
      </trkpt>
      <trkpt lat="37.2206180337" lon="-7.48940442427">
        <ele>32.6</ele>
        <time>2011-03-23T17:19:34Z</time>
      </trkpt>
      <trkpt lat="37.220639659" lon="-7.48937047758">
        <ele>32.4</ele>
        <time>2011-03-23T17:19:37Z</time>
      </trkpt>
      <trkpt lat="37.2206648885" lon="-7.4893370338">
        <ele>32.2</ele>
        <time>2011-03-23T17:19:40Z</time>
      </trkpt>
      <trkpt lat="37.2206925488" lon="-7.4893066075">
        <ele>32.2</ele>
        <time>2011-03-23T17:19:43Z</time>
      </trkpt>
      <trkpt lat="37.220701266" lon="-7.48929923143">
        <ele>32.2</ele>
        <time>2011-03-23T17:19:44Z</time>
      </trkpt>
      <trkpt lat="37.2207343745" lon="-7.48926662584">
        <ele>32.2</ele>
        <time>2011-03-23T17:19:49Z</time>
      </trkpt>
      <trkpt lat="37.2207635435" lon="-7.48924508435">
        <ele>32</ele>
        <time>2011-03-23T17:19:53Z</time>
      </trkpt>
      <trkpt lat="37.220772093" lon="-7.48924022285">
        <ele>32</ele>
        <time>2011-03-23T17:19:54Z</time>
      </trkpt>
      <trkpt lat="37.2208209595" lon="-7.489236451">
        <ele>32</ele>
        <time>2011-03-23T17:19:59Z</time>
      </trkpt>
      <trkpt lat="37.2208424172" lon="-7.48923485843">
        <ele>32</ele>
        <time>2011-03-23T17:20:01Z</time>
      </trkpt>
      <trkpt lat="37.2208829856" lon="-7.4892426536">
        <ele>32</ele>
        <time>2011-03-23T17:20:06Z</time>
      </trkpt>
      <trkpt lat="37.2209072093" lon="-7.48927039769">
        <ele>32</ele>
        <time>2011-03-23T17:20:21Z</time>
      </trkpt>
      <trkpt lat="37.2209145853" lon="-7.48931130136">
        <ele>32</ele>
        <time>2011-03-23T17:20:41Z</time>
      </trkpt>
      <trkpt lat="37.2209202012" lon="-7.48930367383">
        <ele>33.8</ele>
        <time>2011-03-23T17:21:48Z</time>
      </trkpt>
      <trkpt lat="37.220949454" lon="-7.48931859362">
        <ele>33.8</ele>
        <time>2011-03-23T17:21:55Z</time>
      </trkpt>
      <trkpt lat="37.2209763599" lon="-7.4893295739">
        <ele>34</ele>
        <time>2011-03-23T17:22:00Z</time>
      </trkpt>
      <trkpt lat="37.2210056128" lon="-7.48933518978">
        <ele>34</ele>
        <time>2011-03-23T17:22:03Z</time>
      </trkpt>
      <trkpt lat="37.2210431637" lon="-7.48933963218">
        <ele>34</ele>
        <time>2011-03-23T17:22:06Z</time>
      </trkpt>
      <trkpt lat="37.2210866658" lon="-7.48934306876">
        <ele>34</ele>
        <time>2011-03-23T17:22:09Z</time>
      </trkpt>
      <trkpt lat="37.2211331853" lon="-7.48935195358">
        <ele>34</ele>
        <time>2011-03-23T17:22:12Z</time>
      </trkpt>
      <trkpt lat="37.2211781961" lon="-7.48935941347">
        <ele>34</ele>
        <time>2011-03-23T17:22:15Z</time>
      </trkpt>
      <trkpt lat="37.2212201056" lon="-7.48937969767">
        <ele>34</ele>
        <time>2011-03-23T17:22:18Z</time>
      </trkpt>
      <trkpt lat="37.2212589138" lon="-7.48940224498">
        <ele>34</ele>
        <time>2011-03-23T17:22:21Z</time>
      </trkpt>
      <trkpt lat="37.2212955427" lon="-7.48942521138">
        <ele>34</ele>
        <time>2011-03-23T17:22:24Z</time>
      </trkpt>
      <trkpt lat="37.221332926" lon="-7.48943979589">
        <ele>34</ele>
        <time>2011-03-23T17:22:27Z</time>
      </trkpt>
      <trkpt lat="37.221369974" lon="-7.48945773316">
        <ele>34</ele>
        <time>2011-03-23T17:22:30Z</time>
      </trkpt>
      <trkpt lat="37.2214068543" lon="-7.48947977755">
        <ele>34</ele>
        <time>2011-03-23T17:22:33Z</time>
      </trkpt>
      <trkpt lat="37.2214348499" lon="-7.48949302095">
        <ele>34</ele>
        <time>2011-03-23T17:22:35Z</time>
      </trkpt>
      <trkpt lat="37.221485728" lon="-7.48951950776">
        <ele>34</ele>
        <time>2011-03-23T17:22:39Z</time>
      </trkpt>
      <trkpt lat="37.2215247038" lon="-7.48953928904">
        <ele>34</ele>
        <time>2011-03-23T17:22:42Z</time>
      </trkpt>
      <trkpt lat="37.221573738" lon="-7.48956133344">
        <ele>34</ele>
        <time>2011-03-23T17:22:45Z</time>
      </trkpt>
      <trkpt lat="37.2216403741" lon="-7.48958991572">
        <ele>34</ele>
        <time>2011-03-23T17:22:48Z</time>
      </trkpt>
      <trkpt lat="37.221710782" lon="-7.48961589961">
        <ele>34</ele>
        <time>2011-03-23T17:22:51Z</time>
      </trkpt>
      <trkpt lat="37.2217595647" lon="-7.48963777637">
        <ele>34</ele>
        <time>2011-03-23T17:22:53Z</time>
      </trkpt>
      <trkpt lat="37.2218113648" lon="-7.48966107805">
        <ele>34</ele>
        <time>2011-03-23T17:22:55Z</time>
      </trkpt>
      <trkpt lat="37.2218629135" lon="-7.48968245189">
        <ele>34</ele>
        <time>2011-03-23T17:22:57Z</time>
      </trkpt>
      <trkpt lat="37.2219126182" lon="-7.48970826815">
        <ele>34</ele>
        <time>2011-03-23T17:22:59Z</time>
      </trkpt>
      <trkpt lat="37.2219619876" lon="-7.48973450349">
        <ele>34</ele>
        <time>2011-03-23T17:23:01Z</time>
      </trkpt>
      <trkpt lat="37.2220121951" lon="-7.48975654789">
        <ele>34</ele>
        <time>2011-03-23T17:23:03Z</time>
      </trkpt>
      <trkpt lat="37.2220621513" lon="-7.48978077158">
        <ele>34</ele>
        <time>2011-03-23T17:23:05Z</time>
      </trkpt>
      <trkpt lat="37.2221115207" lon="-7.48980415708">
        <ele>34</ele>
        <time>2011-03-23T17:23:07Z</time>
      </trkpt>
      <trkpt lat="37.2221592137" lon="-7.48982427364">
        <ele>34</ele>
        <time>2011-03-23T17:23:09Z</time>
      </trkpt>
      <trkpt lat="37.2222064038" lon="-7.48984564749">
        <ele>33.8</ele>
        <time>2011-03-23T17:23:11Z</time>
      </trkpt>
      <trkpt lat="37.2222543482" lon="-7.48986484204">
        <ele>33.4</ele>
        <time>2011-03-23T17:23:13Z</time>
      </trkpt>
      <trkpt lat="37.2222991076" lon="-7.48988571297">
        <ele>33.2</ele>
        <time>2011-03-23T17:23:15Z</time>
      </trkpt>
      <trkpt lat="37.2223644026" lon="-7.48991706128">
        <ele>32.8</ele>
        <time>2011-03-23T17:23:18Z</time>
      </trkpt>
      <trkpt lat="37.2224080723" lon="-7.48994027914">
        <ele>32.8</ele>
        <time>2011-03-23T17:23:20Z</time>
      </trkpt>
      <trkpt lat="37.222470266" lon="-7.48997313619">
        <ele>32.6</ele>
        <time>2011-03-23T17:23:23Z</time>
      </trkpt>
      <trkpt lat="37.2225323759" lon="-7.49000381394">
        <ele>32.4</ele>
        <time>2011-03-23T17:23:26Z</time>
      </trkpt>
      <trkpt lat="37.2225905462" lon="-7.49003113893">
        <ele>32.2</ele>
        <time>2011-03-23T17:23:29Z</time>
      </trkpt>
      <trkpt lat="37.2226341321" lon="-7.490047316">
        <ele>32.2</ele>
        <time>2011-03-23T17:23:31Z</time>
      </trkpt>
      <trkpt lat="37.2226768798" lon="-7.49006584">
        <ele>32.2</ele>
        <time>2011-03-23T17:23:33Z</time>
      </trkpt>
      <trkpt lat="37.2227392412" lon="-7.49008997987">
        <ele>32.2</ele>
        <time>2011-03-23T17:23:36Z</time>
      </trkpt>
      <trkpt lat="37.222802273" lon="-7.49011914888">
        <ele>32</ele>
        <time>2011-03-23T17:23:39Z</time>
      </trkpt>
      <trkpt lat="37.2228642153" lon="-7.49015049719">
        <ele>32</ele>
        <time>2011-03-23T17:23:42Z</time>
      </trkpt>
      <trkpt lat="37.2229073821" lon="-7.49017337978">
        <ele>32</ele>
        <time>2011-03-23T17:23:44Z</time>
      </trkpt>
      <trkpt lat="37.2229499621" lon="-7.49019802256">
        <ele>32</ele>
        <time>2011-03-23T17:23:46Z</time>
      </trkpt>
      <trkpt lat="37.223009306" lon="-7.49023280745">
        <ele>32</ele>
        <time>2011-03-23T17:23:49Z</time>
      </trkpt>
      <trkpt lat="37.2230684822" lon="-7.4902767286">
        <ele>32</ele>
        <time>2011-03-23T17:23:52Z</time>
      </trkpt>
      <trkpt lat="37.2231207852" lon="-7.49032349961">
        <ele>32</ele>
        <time>2011-03-23T17:23:55Z</time>
      </trkpt>
      <trkpt lat="37.2231579171" lon="-7.49035836831">
        <ele>32</ele>
        <time>2011-03-23T17:23:57Z</time>
      </trkpt>
      <trkpt lat="37.223193121" lon="-7.49039533249">
        <ele>32</ele>
        <time>2011-03-23T17:23:59Z</time>
      </trkpt>
      <trkpt lat="37.223246849" lon="-7.49044721645">
        <ele>32</ele>
        <time>2011-03-23T17:24:02Z</time>
      </trkpt>
      <trkpt lat="37.2232991521" lon="-7.49050530302">
        <ele>32</ele>
        <time>2011-03-23T17:24:05Z</time>
      </trkpt>
      <trkpt lat="37.223335781" lon="-7.49054771543">
        <ele>32</ele>
        <time>2011-03-23T17:24:07Z</time>
      </trkpt>
      <trkpt lat="37.2233727452" lon="-7.49058887056">
        <ele>32</ele>
        <time>2011-03-23T17:24:09Z</time>
      </trkpt>
      <trkpt lat="37.2234084521" lon="-7.49063170207">
        <ele>32</ele>
        <time>2011-03-23T17:24:11Z</time>
      </trkpt>
      <trkpt lat="37.2234453324" lon="-7.4906697559">
        <ele>32</ele>
        <time>2011-03-23T17:24:13Z</time>
      </trkpt>
      <trkpt lat="37.223483051" lon="-7.49070512751">
        <ele>32</ele>
        <time>2011-03-23T17:24:15Z</time>
      </trkpt>
      <trkpt lat="37.2235364437" lon="-7.49075986132">
        <ele>32</ele>
        <time>2011-03-23T17:24:18Z</time>
      </trkpt>
      <trkpt lat="37.2235707256" lon="-7.49080177082">
        <ele>32</ele>
        <time>2011-03-23T17:24:20Z</time>
      </trkpt>
      <trkpt lat="37.2236106235" lon="-7.49083907028">
        <ele>32</ele>
        <time>2011-03-23T17:24:22Z</time>
      </trkpt>
      <trkpt lat="37.2236480068" lon="-7.49087854902">
        <ele>32</ele>
        <time>2011-03-23T17:24:24Z</time>
      </trkpt>
      <trkpt lat="37.2236871502" lon="-7.49091609994">
        <ele>32</ele>
        <time>2011-03-23T17:24:26Z</time>
      </trkpt>
      <trkpt lat="37.223725707" lon="-7.49095541105">
        <ele>32</ele>
        <time>2011-03-23T17:24:28Z</time>
      </trkpt>
      <trkpt lat="37.2237651857" lon="-7.49099304578">
        <ele>32</ele>
        <time>2011-03-23T17:24:30Z</time>
      </trkpt>
      <trkpt lat="37.2238043292" lon="-7.4910301776">
        <ele>32</ele>
        <time>2011-03-23T17:24:32Z</time>
      </trkpt>
      <trkpt lat="37.2238398684" lon="-7.49106865052">
        <ele>32</ele>
        <time>2011-03-23T17:24:34Z</time>
      </trkpt>
      <trkpt lat="37.2238786766" lon="-7.49110972183">
        <ele>32</ele>
        <time>2011-03-23T17:24:36Z</time>
      </trkpt>
      <trkpt lat="37.2239177363" lon="-7.49114651837">
        <ele>32</ele>
        <time>2011-03-23T17:24:38Z</time>
      </trkpt>
      <trkpt lat="37.2239765772" lon="-7.49119949198">
        <ele>32</ele>
        <time>2011-03-23T17:24:41Z</time>
      </trkpt>
      <trkpt lat="37.2240180676" lon="-7.49123293576">
        <ele>32</ele>
        <time>2011-03-23T17:24:43Z</time>
      </trkpt>
      <trkpt lat="37.2240599771" lon="-7.49126428406">
        <ele>32</ele>
        <time>2011-03-23T17:24:45Z</time>
      </trkpt>
      <trkpt lat="37.2241041498" lon="-7.4912909385">
        <ele>32</ele>
        <time>2011-03-23T17:24:47Z</time>
      </trkpt>
      <trkpt lat="37.2241467298" lon="-7.49131541365">
        <ele>32</ele>
        <time>2011-03-23T17:24:49Z</time>
      </trkpt>
      <trkpt lat="37.2241898966" lon="-7.49134055935">
        <ele>32</ele>
        <time>2011-03-23T17:24:51Z</time>
      </trkpt>
      <trkpt lat="37.2242493243" lon="-7.49137777499">
        <ele>32</ele>
        <time>2011-03-23T17:24:54Z</time>
      </trkpt>
      <trkpt lat="37.2243101769" lon="-7.49141876248">
        <ele>32</ele>
        <time>2011-03-23T17:24:57Z</time>
      </trkpt>
      <trkpt lat="37.2243664194" lon="-7.49146947297">
        <ele>32</ele>
        <time>2011-03-23T17:25:00Z</time>
      </trkpt>
      <trkpt lat="37.224412436" lon="-7.49152990647">
        <ele>32</ele>
        <time>2011-03-23T17:25:03Z</time>
      </trkpt>
      <trkpt lat="37.2244480591" lon="-7.49159469856">
        <ele>32</ele>
        <time>2011-03-23T17:25:06Z</time>
      </trkpt>
      <trkpt lat="37.2244817543" lon="-7.49166619617">
        <ele>32</ele>
        <time>2011-03-23T17:25:09Z</time>
      </trkpt>
      <trkpt lat="37.2245035473" lon="-7.49175043426">
        <ele>32</ele>
        <time>2011-03-23T17:25:12Z</time>
      </trkpt>
      <trkpt lat="37.2245133541" lon="-7.49180558716">
        <ele>32</ele>
        <time>2011-03-23T17:25:14Z</time>
      </trkpt>
      <trkpt lat="37.2245267651" lon="-7.49188840034">
        <ele>32</ele>
        <time>2011-03-23T17:25:17Z</time>
      </trkpt>
      <trkpt lat="37.2245341412" lon="-7.49194405615">
        <ele>32</ele>
        <time>2011-03-23T17:25:19Z</time>
      </trkpt>
      <trkpt lat="37.2245419364" lon="-7.49203114409">
        <ele>32</ele>
        <time>2011-03-23T17:25:22Z</time>
      </trkpt>
      <trkpt lat="37.2245508212" lon="-7.49210951486">
        <ele>32</ele>
        <time>2011-03-23T17:25:25Z</time>
      </trkpt>
      <trkpt lat="37.2245555151" lon="-7.49218989728">
        <ele>32</ele>
        <time>2011-03-23T17:25:28Z</time>
      </trkpt>
      <trkpt lat="37.2245614662" lon="-7.49226734604">
        <ele>32</ele>
        <time>2011-03-23T17:25:31Z</time>
      </trkpt>
      <trkpt lat="37.2245756316" lon="-7.49234487861">
        <ele>32</ele>
        <time>2011-03-23T17:25:34Z</time>
      </trkpt>
      <trkpt lat="37.2245918925" lon="-7.49239433182">
        <ele>32</ele>
        <time>2011-03-23T17:25:36Z</time>
      </trkpt>
      <trkpt lat="37.224627767" lon="-7.49245761517">
        <ele>32</ele>
        <time>2011-03-23T17:25:39Z</time>
      </trkpt>
      <trkpt lat="37.2246695927" lon="-7.49250991822">
        <ele>32</ele>
        <time>2011-03-23T17:25:42Z</time>
      </trkpt>
      <trkpt lat="37.2247028689" lon="-7.49255467757">
        <ele>32</ele>
        <time>2011-03-23T17:25:44Z</time>
      </trkpt>
      <trkpt lat="37.2247462871" lon="-7.4926152787">
        <ele>32</ele>
        <time>2011-03-23T17:25:47Z</time>
      </trkpt>
      <trkpt lat="37.2247742827" lon="-7.49265811021">
        <ele>32</ele>
        <time>2011-03-23T17:25:49Z</time>
      </trkpt>
      <trkpt lat="37.2248085646" lon="-7.4927026181">
        <ele>32</ele>
        <time>2011-03-23T17:25:51Z</time>
      </trkpt>
      <trkpt lat="37.224845445" lon="-7.49274394087">
        <ele>32</ele>
        <time>2011-03-23T17:25:53Z</time>
      </trkpt>
      <trkpt lat="37.2248807328" lon="-7.49278593419">
        <ele>32</ele>
        <time>2011-03-23T17:25:55Z</time>
      </trkpt>
      <trkpt lat="37.224914428" lon="-7.49283035826">
        <ele>32</ele>
        <time>2011-03-23T17:25:57Z</time>
      </trkpt>
      <trkpt lat="37.2249473689" lon="-7.49287436323">
        <ele>32</ele>
        <time>2011-03-23T17:25:59Z</time>
      </trkpt>
      <trkpt lat="37.2249846683" lon="-7.492915686">
        <ele>32</ele>
        <time>2011-03-23T17:26:01Z</time>
      </trkpt>
      <trkpt lat="37.2250243986" lon="-7.49295332073">
        <ele>32</ele>
        <time>2011-03-23T17:26:03Z</time>
      </trkpt>
      <trkpt lat="37.2250878495" lon="-7.49298818944">
        <ele>32</ele>
        <time>2011-03-23T17:26:06Z</time>
      </trkpt>
      <trkpt lat="37.2251528093" lon="-7.49300000791">
        <ele>32</ele>
        <time>2011-03-23T17:26:09Z</time>
      </trkpt>
      <trkpt lat="37.2252115664" lon="-7.49298056191">
        <ele>32</ele>
        <time>2011-03-23T17:26:12Z</time>
      </trkpt>
      <trkpt lat="37.2252535597" lon="-7.49296019389">
        <ele>32</ele>
        <time>2011-03-23T17:26:14Z</time>
      </trkpt>
      <trkpt lat="37.2253145799" lon="-7.49291853585">
        <ele>32</ele>
        <time>2011-03-23T17:26:17Z</time>
      </trkpt>
      <trkpt lat="37.2253569085" lon="-7.49288643317">
        <ele>32</ele>
        <time>2011-03-23T17:26:19Z</time>
      </trkpt>
      <trkpt lat="37.2253970578" lon="-7.49285206738">
        <ele>32</ele>
        <time>2011-03-23T17:26:21Z</time>
      </trkpt>
      <trkpt lat="37.2254350278" lon="-7.49281267245">
        <ele>32</ele>
        <time>2011-03-23T17:26:23Z</time>
      </trkpt>
      <trkpt lat="37.2254727464" lon="-7.49277537299">
        <ele>31.6</ele>
        <time>2011-03-23T17:26:25Z</time>
      </trkpt>
      <trkpt lat="37.2255088724" lon="-7.49273581043">
        <ele>31.4</ele>
        <time>2011-03-23T17:26:27Z</time>
      </trkpt>
      <trkpt lat="37.2255483511" lon="-7.49269675077">
        <ele>31</ele>
        <time>2011-03-23T17:26:29Z</time>
      </trkpt>
      <trkpt lat="37.2255853153" lon="-7.49265777494">
        <ele>30.8</ele>
        <time>2011-03-23T17:26:31Z</time>
      </trkpt>
      <trkpt lat="37.225627141" lon="-7.4926227386">
        <ele>30.6</ele>
        <time>2011-03-23T17:26:33Z</time>
      </trkpt>
      <trkpt lat="37.2256650272" lon="-7.49258376276">
        <ele>30.6</ele>
        <time>2011-03-23T17:26:35Z</time>
      </trkpt>
      <trkpt lat="37.2257029972" lon="-7.49254503838">
        <ele>30.4</ele>
        <time>2011-03-23T17:26:37Z</time>
      </trkpt>
      <trkpt lat="37.2257416377" lon="-7.49250698456">
        <ele>30.4</ele>
        <time>2011-03-23T17:26:39Z</time>
      </trkpt>
      <trkpt lat="37.2258368561" lon="-7.49241218527">
        <ele>29.4</ele>
        <time>2011-03-23T17:26:44Z</time>
      </trkpt>
      <trkpt lat="37.2258749099" lon="-7.49237689747">
        <ele>29</ele>
        <time>2011-03-23T17:26:46Z</time>
      </trkpt>
      <trkpt lat="37.2259256204" lon="-7.49232459441">
        <ele>28.8</ele>
        <time>2011-03-23T17:26:49Z</time>
      </trkpt>
      <trkpt lat="37.2259607406" lon="-7.49228939043">
        <ele>28.6</ele>
        <time>2011-03-23T17:26:51Z</time>
      </trkpt>
      <trkpt lat="37.2260123731" lon="-7.49223599773">
        <ele>28.4</ele>
        <time>2011-03-23T17:26:54Z</time>
      </trkpt>
      <trkpt lat="37.2260459007" lon="-7.49219811154">
        <ele>28.2</ele>
        <time>2011-03-23T17:26:56Z</time>
      </trkpt>
      <trkpt lat="37.2260831163" lon="-7.49215854897">
        <ele>28</ele>
        <time>2011-03-23T17:26:58Z</time>
      </trkpt>
      <trkpt lat="37.2261206673" lon="-7.49212091424">
        <ele>27.6</ele>
        <time>2011-03-23T17:27:00Z</time>
      </trkpt>
      <trkpt lat="37.226155536" lon="-7.49208252514">
        <ele>27.2</ele>
        <time>2011-03-23T17:27:02Z</time>
      </trkpt>
      <trkpt lat="37.2261936736" lon="-7.49204354931">
        <ele>27</ele>
        <time>2011-03-23T17:27:04Z</time>
      </trkpt>
      <trkpt lat="37.2262483236" lon="-7.49199091097">
        <ele>26.8</ele>
        <time>2011-03-23T17:27:07Z</time>
      </trkpt>
      <trkpt lat="37.2262844496" lon="-7.49195193514">
        <ele>26.6</ele>
        <time>2011-03-23T17:27:09Z</time>
      </trkpt>
      <trkpt lat="37.226321749" lon="-7.49191430041">
        <ele>26.4</ele>
        <time>2011-03-23T17:27:11Z</time>
      </trkpt>
      <trkpt lat="37.2263588809" lon="-7.4918767495">
        <ele>26.4</ele>
        <time>2011-03-23T17:27:13Z</time>
      </trkpt>
      <trkpt lat="37.2263950907" lon="-7.49183542673">
        <ele>26.2</ele>
        <time>2011-03-23T17:27:15Z</time>
      </trkpt>
      <trkpt lat="37.226433815" lon="-7.49179745672">
        <ele>26.2</ele>
        <time>2011-03-23T17:27:17Z</time>
      </trkpt>
      <trkpt lat="37.2264675103" lon="-7.49175814561">
        <ele>26.2</ele>
        <time>2011-03-23T17:27:19Z</time>
      </trkpt>
      <trkpt lat="37.2264983557" lon="-7.49171682284">
        <ele>26</ele>
        <time>2011-03-23T17:27:21Z</time>
      </trkpt>
      <trkpt lat="37.2265335596" lon="-7.49167625445">
        <ele>26</ele>
        <time>2011-03-23T17:27:23Z</time>
      </trkpt>
      <trkpt lat="37.226565327" lon="-7.49163250093">
        <ele>26</ele>
        <time>2011-03-23T17:27:25Z</time>
      </trkpt>
      <trkpt lat="37.2265895507" lon="-7.49158480792">
        <ele>26</ele>
        <time>2011-03-23T17:27:27Z</time>
      </trkpt>
      <trkpt lat="37.226606566" lon="-7.49152931974">
        <ele>26</ele>
        <time>2011-03-23T17:27:29Z</time>
      </trkpt>
      <trkpt lat="37.2266211505" lon="-7.49147500503">
        <ele>25.6</ele>
        <time>2011-03-23T17:27:31Z</time>
      </trkpt>
      <trkpt lat="37.2266359865" lon="-7.49142286961">
        <ele>25.2</ele>
        <time>2011-03-23T17:27:33Z</time>
      </trkpt>
      <trkpt lat="37.2266446198" lon="-7.49139780773">
        <ele>25.2</ele>
        <time>2011-03-23T17:27:34Z</time>
      </trkpt>
      <trkpt lat="37.2266538399" lon="-7.49130887577">
        <ele>24.8</ele>
        <time>2011-03-23T17:27:37Z</time>
      </trkpt>
      <trkpt lat="37.2266513253" lon="-7.4912459277">
        <ele>24.6</ele>
        <time>2011-03-23T17:27:39Z</time>
      </trkpt>
      <trkpt lat="37.226644536" lon="-7.49118432074">
        <ele>24.4</ele>
        <time>2011-03-23T17:27:41Z</time>
      </trkpt>
      <trkpt lat="37.2266383334" lon="-7.49112070212">
        <ele>24.4</ele>
        <time>2011-03-23T17:27:43Z</time>
      </trkpt>
      <trkpt lat="37.2266332204" lon="-7.49106395665">
        <ele>24.2</ele>
        <time>2011-03-23T17:27:45Z</time>
      </trkpt>
      <trkpt lat="37.2266240842" lon="-7.49100176295">
        <ele>24.2</ele>
        <time>2011-03-23T17:27:47Z</time>
      </trkpt>
      <trkpt lat="37.2266185521" lon="-7.49094032363">
        <ele>24.2</ele>
        <time>2011-03-23T17:27:49Z</time>
      </trkpt>
      <trkpt lat="37.2266110084" lon="-7.49088114741">
        <ele>24</ele>
        <time>2011-03-23T17:27:51Z</time>
      </trkpt>
      <trkpt lat="37.2266052249" lon="-7.4908206301">
        <ele>24</ele>
        <time>2011-03-23T17:27:53Z</time>
      </trkpt>
      <trkpt lat="37.2265991899" lon="-7.49075935841">
        <ele>24</ele>
        <time>2011-03-23T17:27:55Z</time>
      </trkpt>
      <trkpt lat="37.2265937417" lon="-7.49070177475">
        <ele>24</ele>
        <time>2011-03-23T17:27:57Z</time>
      </trkpt>
      <trkpt lat="37.2265881258" lon="-7.49064444256">
        <ele>24</ele>
        <time>2011-03-23T17:27:59Z</time>
      </trkpt>
      <trkpt lat="37.2265817556" lon="-7.49058467961">
        <ele>24</ele>
        <time>2011-03-23T17:28:01Z</time>
      </trkpt>
      <trkpt lat="37.2265776484" lon="-7.49052516812">
        <ele>24.2</ele>
        <time>2011-03-23T17:28:03Z</time>
      </trkpt>
      <trkpt lat="37.2265723678" lon="-7.49043900219">
        <ele>24.6</ele>
        <time>2011-03-23T17:28:06Z</time>
      </trkpt>
      <trkpt lat="37.2265706915" lon="-7.490382592">
        <ele>24.8</ele>
        <time>2011-03-23T17:28:08Z</time>
      </trkpt>
      <trkpt lat="37.2265631478" lon="-7.49030003029">
        <ele>25.2</ele>
        <time>2011-03-23T17:28:11Z</time>
      </trkpt>
      <trkpt lat="37.2265567775" lon="-7.49022107279">
        <ele>25.4</ele>
        <time>2011-03-23T17:28:14Z</time>
      </trkpt>
      <trkpt lat="37.2265471383" lon="-7.49014496514">
        <ele>25.6</ele>
        <time>2011-03-23T17:28:17Z</time>
      </trkpt>
      <trkpt lat="37.2265334758" lon="-7.49008880641">
        <ele>25.6</ele>
        <time>2011-03-23T17:28:19Z</time>
      </trkpt>
      <trkpt lat="37.2265197295" lon="-7.4900336535">
        <ele>25.6</ele>
        <time>2011-03-23T17:28:21Z</time>
      </trkpt>
      <trkpt lat="37.2265089169" lon="-7.4899789197">
        <ele>26</ele>
        <time>2011-03-23T17:28:23Z</time>
      </trkpt>
      <trkpt lat="37.2264950029" lon="-7.48992309624">
        <ele>26.2</ele>
        <time>2011-03-23T17:28:25Z</time>
      </trkpt>
      <trkpt lat="37.2264818433" lon="-7.4898677757">
        <ele>26.6</ele>
        <time>2011-03-23T17:28:27Z</time>
      </trkpt>
      <trkpt lat="37.2264609724" lon="-7.48978806383">
        <ele>27</ele>
        <time>2011-03-23T17:28:30Z</time>
      </trkpt>
      <trkpt lat="37.2264427837" lon="-7.48973609605">
        <ele>27.2</ele>
        <time>2011-03-23T17:28:32Z</time>
      </trkpt>
      <trkpt lat="37.2264239244" lon="-7.48968681048">
        <ele>27.4</ele>
        <time>2011-03-23T17:28:34Z</time>
      </trkpt>
      <trkpt lat="37.2264039755" lon="-7.48963551325">
        <ele>27.4</ele>
        <time>2011-03-23T17:28:36Z</time>
      </trkpt>
      <trkpt lat="37.2263814282" lon="-7.48958530567">
        <ele>27.8</ele>
        <time>2011-03-23T17:28:38Z</time>
      </trkpt>
      <trkpt lat="37.2263601381" lon="-7.48953459518">
        <ele>28.2</ele>
        <time>2011-03-23T17:28:40Z</time>
      </trkpt>
      <trkpt lat="37.2263245151" lon="-7.48946175647">
        <ele>28.8</ele>
        <time>2011-03-23T17:28:43Z</time>
      </trkpt>
      <trkpt lat="37.2263003752" lon="-7.48941607511">
        <ele>29</ele>
        <time>2011-03-23T17:28:45Z</time>
      </trkpt>
      <trkpt lat="37.2262787499" lon="-7.48936905265">
        <ele>29.2</ele>
        <time>2011-03-23T17:28:47Z</time>
      </trkpt>
      <trkpt lat="37.226256454" lon="-7.48932261693">
        <ele>29.4</ele>
        <time>2011-03-23T17:28:49Z</time>
      </trkpt>
      <trkpt lat="37.2262347449" lon="-7.48927400191">
        <ele>29.6</ele>
        <time>2011-03-23T17:28:51Z</time>
      </trkpt>
      <trkpt lat="37.2262101021" lon="-7.48922530307">
        <ele>29.6</ele>
        <time>2011-03-23T17:28:53Z</time>
      </trkpt>
      <trkpt lat="37.2261878901" lon="-7.48917551458">
        <ele>29.8</ele>
        <time>2011-03-23T17:28:55Z</time>
      </trkpt>
      <trkpt lat="37.2261656781" lon="-7.489125307">
        <ele>29.8</ele>
        <time>2011-03-23T17:28:57Z</time>
      </trkpt>
      <trkpt lat="37.226136509" lon="-7.48907694344">
        <ele>29.8</ele>
        <time>2011-03-23T17:28:59Z</time>
      </trkpt>
      <trkpt lat="37.2261004669" lon="-7.48902464038">
        <ele>30</ele>
        <time>2011-03-23T17:29:02Z</time>
      </trkpt>
      <trkpt lat="37.2260784225" lon="-7.48897703119">
        <ele>30</ele>
        <time>2011-03-23T17:29:04Z</time>
      </trkpt>
      <trkpt lat="37.2260547855" lon="-7.48892405758">
        <ele>30</ele>
        <time>2011-03-23T17:29:06Z</time>
      </trkpt>
      <trkpt lat="37.226032322" lon="-7.48887703512">
        <ele>30</ele>
        <time>2011-03-23T17:29:08Z</time>
      </trkpt>
      <trkpt lat="37.226015223" lon="-7.48882489971">
        <ele>30</ele>
        <time>2011-03-23T17:29:10Z</time>
      </trkpt>
      <trkpt lat="37.225994352" lon="-7.48877033354">
        <ele>30</ele>
        <time>2011-03-23T17:29:12Z</time>
      </trkpt>
      <trkpt lat="37.2259742355" lon="-7.48872088033">
        <ele>30</ele>
        <time>2011-03-23T17:29:14Z</time>
      </trkpt>
      <trkpt lat="37.2259521911" lon="-7.48866807436">
        <ele>30.4</ele>
        <time>2011-03-23T17:29:16Z</time>
      </trkpt>
      <trkpt lat="37.2259288894" lon="-7.48861811823">
        <ele>30.8</ele>
        <time>2011-03-23T17:29:18Z</time>
      </trkpt>
      <trkpt lat="37.2258972896" lon="-7.48854418987">
        <ele>31.2</ele>
        <time>2011-03-23T17:29:21Z</time>
      </trkpt>
      <trkpt lat="37.2258715572" lon="-7.48849096481">
        <ele>31.4</ele>
        <time>2011-03-23T17:29:23Z</time>
      </trkpt>
      <trkpt lat="37.225847082" lon="-7.48844335562">
        <ele>31.4</ele>
        <time>2011-03-23T17:29:25Z</time>
      </trkpt>
      <trkpt lat="37.2258227745" lon="-7.48839096874">
        <ele>31.6</ele>
        <time>2011-03-23T17:29:27Z</time>
      </trkpt>
      <trkpt lat="37.2258033285" lon="-7.4883343071">
        <ele>31.8</ele>
        <time>2011-03-23T17:29:29Z</time>
      </trkpt>
      <trkpt lat="37.2257862294" lon="-7.48827479561">
        <ele>31.8</ele>
        <time>2011-03-23T17:29:31Z</time>
      </trkpt>
      <trkpt lat="37.2257724831" lon="-7.48822249255">
        <ele>31.8</ele>
        <time>2011-03-23T17:29:33Z</time>
      </trkpt>
      <trkpt lat="37.2257545459" lon="-7.48817220115">
        <ele>32</ele>
        <time>2011-03-23T17:29:35Z</time>
      </trkpt>
      <trkpt lat="37.2257404643" lon="-7.48811704825">
        <ele>32</ele>
        <time>2011-03-23T17:29:37Z</time>
      </trkpt>
      <trkpt lat="37.2257258798" lon="-7.48806424228">
        <ele>32</ele>
        <time>2011-03-23T17:29:39Z</time>
      </trkpt>
      <trkpt lat="37.2257154024" lon="-7.48801202304">
        <ele>32</ele>
        <time>2011-03-23T17:29:41Z</time>
      </trkpt>
      <trkpt lat="37.2256983871" lon="-7.48790347744">
        <ele>32</ele>
        <time>2011-03-23T17:29:45Z</time>
      </trkpt>
      <trkpt lat="37.225693358" lon="-7.48784497178">
        <ele>32</ele>
        <time>2011-03-23T17:29:47Z</time>
      </trkpt>
      <trkpt lat="37.2256963755" lon="-7.48779090852">
        <ele>32</ele>
        <time>2011-03-23T17:29:49Z</time>
      </trkpt>
      <trkpt lat="37.2256977166" lon="-7.48773307341">
        <ele>32</ele>
        <time>2011-03-23T17:29:51Z</time>
      </trkpt>
      <trkpt lat="37.2256919331" lon="-7.48767465157">
        <ele>32</ele>
        <time>2011-03-23T17:29:53Z</time>
      </trkpt>
      <trkpt lat="37.2256919331" lon="-7.48761849284">
        <ele>32.2</ele>
        <time>2011-03-23T17:29:55Z</time>
      </trkpt>
      <trkpt lat="37.2256867363" lon="-7.48755914899">
        <ele>32.2</ele>
        <time>2011-03-23T17:29:57Z</time>
      </trkpt>
      <trkpt lat="37.2256838864" lon="-7.48750030805">
        <ele>32.2</ele>
        <time>2011-03-23T17:29:59Z</time>
      </trkpt>
      <trkpt lat="37.2256796117" lon="-7.48743979073">
        <ele>32.2</ele>
        <time>2011-03-23T17:30:01Z</time>
      </trkpt>
      <trkpt lat="37.2256771809" lon="-7.48738111743">
        <ele>32.2</ele>
        <time>2011-03-23T17:30:03Z</time>
      </trkpt>
      <trkpt lat="37.225676678" lon="-7.48731749881">
        <ele>32.2</ele>
        <time>2011-03-23T17:30:05Z</time>
      </trkpt>
      <trkpt lat="37.2256738282" lon="-7.48725186853">
        <ele>32.2</ele>
        <time>2011-03-23T17:30:07Z</time>
      </trkpt>
      <trkpt lat="37.2256750016" lon="-7.48718841755">
        <ele>32.2</ele>
        <time>2011-03-23T17:30:09Z</time>
      </trkpt>
      <trkpt lat="37.225674834" lon="-7.4871273135">
        <ele>32.2</ele>
        <time>2011-03-23T17:30:11Z</time>
      </trkpt>
      <trkpt lat="37.2256703916" lon="-7.48706755055">
        <ele>32.2</ele>
        <time>2011-03-23T17:30:13Z</time>
      </trkpt>
      <trkpt lat="37.2256629317" lon="-7.48700837434">
        <ele>32.2</ele>
        <time>2011-03-23T17:30:15Z</time>
      </trkpt>
      <trkpt lat="37.225657232" lon="-7.48694475572">
        <ele>32.2</ele>
        <time>2011-03-23T17:30:17Z</time>
      </trkpt>
      <trkpt lat="37.225647509" lon="-7.48688348403">
        <ele>32.2</ele>
        <time>2011-03-23T17:30:19Z</time>
      </trkpt>
      <trkpt lat="37.2256422284" lon="-7.48683134861">
        <ele>32.2</ele>
        <time>2011-03-23T17:30:21Z</time>
      </trkpt>
      <trkpt lat="37.2256306614" lon="-7.4867585099">
        <ele>32.2</ele>
        <time>2011-03-23T17:30:24Z</time>
      </trkpt>
      <trkpt lat="37.2256171665" lon="-7.48670151298">
        <ele>32.2</ele>
        <time>2011-03-23T17:30:26Z</time>
      </trkpt>
      <trkpt lat="37.2255973852" lon="-7.48662163347">
        <ele>32.2</ele>
        <time>2011-03-23T17:30:29Z</time>
      </trkpt>
      <trkpt lat="37.22558498" lon="-7.48655994269">
        <ele>32.6</ele>
        <time>2011-03-23T17:30:32Z</time>
      </trkpt>
      <trkpt lat="37.225578526" lon="-7.4865185361">
        <ele>33</ele>
        <time>2011-03-23T17:30:35Z</time>
      </trkpt>
      <trkpt lat="37.2255632709" lon="-7.48647813534">
        <ele>33.4</ele>
        <time>2011-03-23T17:30:38Z</time>
      </trkpt>
      <trkpt lat="37.2255537994" lon="-7.48644117116">
        <ele>33.6</ele>
        <time>2011-03-23T17:30:41Z</time>
      </trkpt>
      <trkpt lat="37.2255327608" lon="-7.48639473544">
        <ele>33.8</ele>
        <time>2011-03-23T17:30:44Z</time>
      </trkpt>
      <trkpt lat="37.2255103811" lon="-7.48634511459">
        <ele>33.8</ele>
        <time>2011-03-23T17:30:47Z</time>
      </trkpt>
      <trkpt lat="37.2254846487" lon="-7.48629976851">
        <ele>34</ele>
        <time>2011-03-23T17:30:50Z</time>
      </trkpt>
      <trkpt lat="37.2254615985" lon="-7.48624889038">
        <ele>34</ele>
        <time>2011-03-23T17:30:53Z</time>
      </trkpt>
      <trkpt lat="37.2254440803" lon="-7.48621670388">
        <ele>34</ele>
        <time>2011-03-23T17:30:55Z</time>
      </trkpt>
      <trkpt lat="37.2254174258" lon="-7.48615350436">
        <ele>34</ele>
        <time>2011-03-23T17:30:59Z</time>
      </trkpt>
      <trkpt lat="37.2254104689" lon="-7.48613581855">
        <ele>34</ele>
        <time>2011-03-23T17:31:00Z</time>
      </trkpt>
      <trkpt lat="37.225393286" lon="-7.48608955046">
        <ele>34.2</ele>
        <time>2011-03-23T17:31:03Z</time>
      </trkpt>
      <trkpt lat="37.2253698167" lon="-7.48603707977">
        <ele>34.2</ele>
        <time>2011-03-23T17:31:06Z</time>
      </trkpt>
      <trkpt lat="37.2253497001" lon="-7.48598930294">
        <ele>34.2</ele>
        <time>2011-03-23T17:31:09Z</time>
      </trkpt>
      <trkpt lat="37.2253310923" lon="-7.48594169374">
        <ele>34.2</ele>
        <time>2011-03-23T17:31:12Z</time>
      </trkpt>
      <trkpt lat="37.2253144123" lon="-7.48589668294">
        <ele>34.2</ele>
        <time>2011-03-23T17:31:15Z</time>
      </trkpt>
      <trkpt lat="37.2252903562" lon="-7.48585267797">
        <ele>34.2</ele>
        <time>2011-03-23T17:31:18Z</time>
      </trkpt>
      <trkpt lat="37.2252749335" lon="-7.48580875681">
        <ele>34.2</ele>
        <time>2011-03-23T17:31:21Z</time>
      </trkpt>
      <trkpt lat="37.2252690662" lon="-7.4857924121">
        <ele>34.2</ele>
        <time>2011-03-23T17:31:22Z</time>
      </trkpt>
      <trkpt lat="37.2252346166" lon="-7.48572862585">
        <ele>34.2</ele>
        <time>2011-03-23T17:31:25Z</time>
      </trkpt>
      <trkpt lat="37.2252250612" lon="-7.48570775491">
        <ele>34.2</ele>
        <time>2011-03-23T17:31:26Z</time>
      </trkpt>
      <trkpt lat="37.2251979877" lon="-7.4856552004">
        <ele>34.2</ele>
        <time>2011-03-23T17:31:29Z</time>
      </trkpt>
      <trkpt lat="37.22519321" lon="-7.48564145409">
        <ele>34.2</ele>
        <time>2011-03-23T17:31:30Z</time>
      </trkpt>
      <trkpt lat="37.2251557429" lon="-7.48557674582">
        <ele>34.2</ele>
        <time>2011-03-23T17:31:33Z</time>
      </trkpt>
      <trkpt lat="37.2251250652" lon="-7.48552041945">
        <ele>34.2</ele>
        <time>2011-03-23T17:31:35Z</time>
      </trkpt>
      <trkpt lat="37.225099668" lon="-7.48546182997">
        <ele>34.2</ele>
        <time>2011-03-23T17:31:37Z</time>
      </trkpt>
      <trkpt lat="37.2250747738" lon="-7.48540248612">
        <ele>34.2</ele>
        <time>2011-03-23T17:31:39Z</time>
      </trkpt>
      <trkpt lat="37.2250514721" lon="-7.48534465101">
        <ele>34.2</ele>
        <time>2011-03-23T17:31:41Z</time>
      </trkpt>
      <trkpt lat="37.2250285057" lon="-7.48529209649">
        <ele>34.2</ele>
        <time>2011-03-23T17:31:43Z</time>
      </trkpt>
      <trkpt lat="37.2250046173" lon="-7.48524163746">
        <ele>34.2</ele>
        <time>2011-03-23T17:31:45Z</time>
      </trkpt>
      <trkpt lat="37.2249868476" lon="-7.48522587948">
        <ele>34.2</ele>
        <time>2011-03-23T17:31:46Z</time>
      </trkpt>
      <trkpt lat="37.2249715926" lon="-7.48518162305">
        <ele>34.2</ele>
        <time>2011-03-23T17:31:49Z</time>
      </trkpt>
      <trkpt lat="37.2249758674" lon="-7.48517424698">
        <ele>34.2</ele>
        <time>2011-03-23T17:31:50Z</time>
      </trkpt>
      <trkpt lat="37.2249460278" lon="-7.48514524561">
        <ele>34.2</ele>
        <time>2011-03-23T17:32:14Z</time>
      </trkpt>
      <trkpt lat="37.2249240672" lon="-7.48510928725">
        <ele>34.2</ele>
        <time>2011-03-23T17:32:17Z</time>
      </trkpt>
      <trkpt lat="37.224906549" lon="-7.48506586901">
        <ele>34.2</ele>
        <time>2011-03-23T17:32:20Z</time>
      </trkpt>
      <trkpt lat="37.2248841694" lon="-7.48501390123">
        <ele>34.2</ele>
        <time>2011-03-23T17:32:22Z</time>
      </trkpt>
      <trkpt lat="37.2248516476" lon="-7.4849493606">
        <ele>34.2</ele>
        <time>2011-03-23T17:32:24Z</time>
      </trkpt>
      <trkpt lat="37.2248145996" lon="-7.48488909474">
        <ele>34.2</ele>
        <time>2011-03-23T17:32:26Z</time>
      </trkpt>
      <trkpt lat="37.2247776354" lon="-7.4848271525">
        <ele>34.2</ele>
        <time>2011-03-23T17:32:28Z</time>
      </trkpt>
      <trkpt lat="37.2247355583" lon="-7.48476076785">
        <ele>34.2</ele>
        <time>2011-03-23T17:32:30Z</time>
      </trkpt>
      <trkpt lat="37.2246932297" lon="-7.48469320974">
        <ele>34.2</ele>
        <time>2011-03-23T17:32:32Z</time>
      </trkpt>
      <trkpt lat="37.224648638" lon="-7.48463327915">
        <ele>34.2</ele>
        <time>2011-03-23T17:32:34Z</time>
      </trkpt>
      <trkpt lat="37.2245996877" lon="-7.48457016345">
        <ele>34.2</ele>
        <time>2011-03-23T17:32:36Z</time>
      </trkpt>
      <trkpt lat="37.2245514918" lon="-7.48450478463">
        <ele>34.2</ele>
        <time>2011-03-23T17:32:38Z</time>
      </trkpt>
      <trkpt lat="37.2245017871" lon="-7.48444192038">
        <ele>34.2</ele>
        <time>2011-03-23T17:32:40Z</time>
      </trkpt>
      <trkpt lat="37.2244519148" lon="-7.48437461372">
        <ele>34.2</ele>
        <time>2011-03-23T17:32:42Z</time>
      </trkpt>
      <trkpt lat="37.2244042218" lon="-7.4843140964">
        <ele>34.2</ele>
        <time>2011-03-23T17:32:44Z</time>
      </trkpt>
      <trkpt lat="37.2243561097" lon="-7.48425215416">
        <ele>34.2</ele>
        <time>2011-03-23T17:32:46Z</time>
      </trkpt>
      <trkpt lat="37.2243083328" lon="-7.48418962519">
        <ele>34.2</ele>
        <time>2011-03-23T17:32:48Z</time>
      </trkpt>
      <trkpt lat="37.2242600531" lon="-7.48412927551">
        <ele>34.2</ele>
        <time>2011-03-23T17:32:50Z</time>
      </trkpt>
      <trkpt lat="37.224237422" lon="-7.48410052559">
        <ele>34.2</ele>
        <time>2011-03-23T17:32:51Z</time>
      </trkpt>
      <trkpt lat="37.2242126115" lon="-7.48406934492">
        <ele>34.2</ele>
        <time>2011-03-23T17:32:52Z</time>
      </trkpt>
      <trkpt lat="37.2241703668" lon="-7.48401268328">
        <ele>34.2</ele>
        <time>2011-03-23T17:32:54Z</time>
      </trkpt>
      <trkpt lat="37.224122087" lon="-7.48395509962">
        <ele>34.2</ele>
        <time>2011-03-23T17:32:56Z</time>
      </trkpt>
      <trkpt lat="37.2240800937" lon="-7.48389701306">
        <ele>34.2</ele>
        <time>2011-03-23T17:32:58Z</time>
      </trkpt>
      <trkpt lat="37.2240330712" lon="-7.48383917795">
        <ele>34.2</ele>
        <time>2011-03-23T17:33:00Z</time>
      </trkpt>
      <trkpt lat="37.2239886472" lon="-7.48378310304">
        <ele>34.2</ele>
        <time>2011-03-23T17:33:02Z</time>
      </trkpt>
      <trkpt lat="37.2239441393" lon="-7.48372694431">
        <ele>34.2</ele>
        <time>2011-03-23T17:33:04Z</time>
      </trkpt>
      <trkpt lat="37.2238963624" lon="-7.48366760045">
        <ele>34.2</ele>
        <time>2011-03-23T17:33:06Z</time>
      </trkpt>
      <trkpt lat="37.2238522737" lon="-7.48361085499">
        <ele>34.2</ele>
        <time>2011-03-23T17:33:08Z</time>
      </trkpt>
      <trkpt lat="37.2238075143" lon="-7.4835517626">
        <ele>34.2</ele>
        <time>2011-03-23T17:33:10Z</time>
      </trkpt>
      <trkpt lat="37.2237607433" lon="-7.48348705433">
        <ele>34.2</ele>
        <time>2011-03-23T17:33:12Z</time>
      </trkpt>
      <trkpt lat="37.2237192529" lon="-7.48342829721">
        <ele>34.2</ele>
        <time>2011-03-23T17:33:14Z</time>
      </trkpt>
      <trkpt lat="37.2236777625" lon="-7.48335881126">
        <ele>34.2</ele>
        <time>2011-03-23T17:33:16Z</time>
      </trkpt>
      <trkpt lat="37.2236380323" lon="-7.48328873857">
        <ele>34.2</ele>
        <time>2011-03-23T17:33:18Z</time>
      </trkpt>
      <trkpt lat="37.2235952846" lon="-7.48321858207">
        <ele>34.2</ele>
        <time>2011-03-23T17:33:20Z</time>
      </trkpt>
      <trkpt lat="37.2235544647" lon="-7.48315043722">
        <ele>34.2</ele>
        <time>2011-03-23T17:33:22Z</time>
      </trkpt>
      <trkpt lat="37.2235142316" lon="-7.48308279529">
        <ele>34.2</ele>
        <time>2011-03-23T17:33:24Z</time>
      </trkpt>
      <trkpt lat="37.2234754234" lon="-7.48301096241">
        <ele>34.2</ele>
        <time>2011-03-23T17:33:26Z</time>
      </trkpt>
      <trkpt lat="37.2234392136" lon="-7.48294197937">
        <ele>34.2</ele>
        <time>2011-03-23T17:33:28Z</time>
      </trkpt>
      <trkpt lat="37.2234061051" lon="-7.48287232578">
        <ele>34.2</ele>
        <time>2011-03-23T17:33:30Z</time>
      </trkpt>
      <trkpt lat="37.2233736672" lon="-7.48280853952">
        <ele>34.2</ele>
        <time>2011-03-23T17:33:32Z</time>
      </trkpt>
      <trkpt lat="37.2233408101" lon="-7.4827449209">
        <ele>34.2</ele>
        <time>2011-03-23T17:33:34Z</time>
      </trkpt>
      <trkpt lat="37.2233056061" lon="-7.48268113464">
        <ele>34.2</ele>
        <time>2011-03-23T17:33:36Z</time>
      </trkpt>
      <trkpt lat="37.2232751798" lon="-7.48262430536">
        <ele>34.2</ele>
        <time>2011-03-23T17:33:38Z</time>
      </trkpt>
      <trkpt lat="37.2232529678" lon="-7.48257267286">
        <ele>34.2</ele>
        <time>2011-03-23T17:33:40Z</time>
      </trkpt>
      <trkpt lat="37.2232261457" lon="-7.48250352218">
        <ele>34.2</ele>
        <time>2011-03-23T17:33:43Z</time>
      </trkpt>
      <trkpt lat="37.2231935401" lon="-7.48244602235">
        <ele>34.2</ele>
        <time>2011-03-23T17:33:46Z</time>
      </trkpt>
      <trkpt lat="37.2231568274" lon="-7.48238885779">
        <ele>34.2</ele>
        <time>2011-03-23T17:33:48Z</time>
      </trkpt>
      <trkpt lat="37.2231291671" lon="-7.48233965604">
        <ele>34.2</ele>
        <time>2011-03-23T17:33:50Z</time>
      </trkpt>
      <trkpt lat="37.2231005849" lon="-7.48228852645">
        <ele>34.2</ele>
        <time>2011-03-23T17:33:52Z</time>
      </trkpt>
      <trkpt lat="37.2230720864" lon="-7.48223898942">
        <ele>34.2</ele>
        <time>2011-03-23T17:33:54Z</time>
      </trkpt>
      <trkpt lat="37.2230435879" lon="-7.48218702164">
        <ele>34.2</ele>
        <time>2011-03-23T17:33:56Z</time>
      </trkpt>
      <trkpt lat="37.2230177717" lon="-7.48213689788">
        <ele>34.2</ele>
        <time>2011-03-23T17:33:58Z</time>
      </trkpt>
      <trkpt lat="37.2229915363" lon="-7.48208526537">
        <ele>34.2</ele>
        <time>2011-03-23T17:34:00Z</time>
      </trkpt>
      <trkpt lat="37.2229646304" lon="-7.48203329759">
        <ele>34.2</ele>
        <time>2011-03-23T17:34:02Z</time>
      </trkpt>
      <trkpt lat="37.2229427537" lon="-7.48198376056">
        <ele>34.2</ele>
        <time>2011-03-23T17:34:04Z</time>
      </trkpt>
      <trkpt lat="37.2229175242" lon="-7.48193455881">
        <ele>34.2</ele>
        <time>2011-03-23T17:34:06Z</time>
      </trkpt>
      <trkpt lat="37.2228924623" lon="-7.481888626">
        <ele>34.4</ele>
        <time>2011-03-23T17:34:08Z</time>
      </trkpt>
      <trkpt lat="37.2228655564" lon="-7.48183623912">
        <ele>34.8</ele>
        <time>2011-03-23T17:34:10Z</time>
      </trkpt>
      <trkpt lat="37.2228397401" lon="-7.48178251114">
        <ele>35</ele>
        <time>2011-03-23T17:34:12Z</time>
      </trkpt>
      <trkpt lat="37.2228159355" lon="-7.48173180065">
        <ele>35.2</ele>
        <time>2011-03-23T17:34:14Z</time>
      </trkpt>
      <trkpt lat="37.2227881076" lon="-7.48168092252">
        <ele>35.4</ele>
        <time>2011-03-23T17:34:16Z</time>
      </trkpt>
      <trkpt lat="37.222762459" lon="-7.48163063112">
        <ele>35.6</ele>
        <time>2011-03-23T17:34:18Z</time>
      </trkpt>
      <trkpt lat="37.2227383191" lon="-7.48158209992">
        <ele>35.8</ele>
        <time>2011-03-23T17:34:20Z</time>
      </trkpt>
      <trkpt lat="37.2227151851" lon="-7.4815344069">
        <ele>35.8</ele>
        <time>2011-03-23T17:34:22Z</time>
      </trkpt>
      <trkpt lat="37.2226905423" lon="-7.48148704917">
        <ele>35.8</ele>
        <time>2011-03-23T17:34:24Z</time>
      </trkpt>
      <trkpt lat="37.2226627144" lon="-7.48143508139">
        <ele>36.4</ele>
        <time>2011-03-23T17:34:26Z</time>
      </trkpt>
      <trkpt lat="37.2226363114" lon="-7.48138478999">
        <ele>36.8</ele>
        <time>2011-03-23T17:34:28Z</time>
      </trkpt>
      <trkpt lat="37.2226097408" lon="-7.4813354206">
        <ele>37</ele>
        <time>2011-03-23T17:34:30Z</time>
      </trkpt>
      <trkpt lat="37.2225831702" lon="-7.48128445865">
        <ele>37.2</ele>
        <time>2011-03-23T17:34:32Z</time>
      </trkpt>
      <trkpt lat="37.2225558452" lon="-7.48123810674">
        <ele>37.4</ele>
        <time>2011-03-23T17:34:34Z</time>
      </trkpt>
      <trkpt lat="37.222529526" lon="-7.48118689333">
        <ele>37.6</ele>
        <time>2011-03-23T17:34:36Z</time>
      </trkpt>
      <trkpt lat="37.2225006923" lon="-7.48113903268">
        <ele>37.8</ele>
        <time>2011-03-23T17:34:38Z</time>
      </trkpt>
      <trkpt lat="37.2224745408" lon="-7.48108941183">
        <ele>37.8</ele>
        <time>2011-03-23T17:34:40Z</time>
      </trkpt>
      <trkpt lat="37.2224424381" lon="-7.4810398748">
        <ele>37.8</ele>
        <time>2011-03-23T17:34:42Z</time>
      </trkpt>
      <trkpt lat="37.2224163704" lon="-7.48099687566">
        <ele>38</ele>
        <time>2011-03-23T17:34:44Z</time>
      </trkpt>
      <trkpt lat="37.2223913085" lon="-7.48095186485">
        <ele>38</ele>
        <time>2011-03-23T17:34:46Z</time>
      </trkpt>
      <trkpt lat="37.2223671686" lon="-7.48090626732">
        <ele>38</ele>
        <time>2011-03-23T17:34:48Z</time>
      </trkpt>
      <trkpt lat="37.2223423582" lon="-7.4808576523">
        <ele>38</ele>
        <time>2011-03-23T17:34:50Z</time>
      </trkpt>
      <trkpt lat="37.2223032985" lon="-7.48078774725">
        <ele>38.2</ele>
        <time>2011-03-23T17:34:53Z</time>
      </trkpt>
      <trkpt lat="37.2222634845" lon="-7.48071599819">
        <ele>38.8</ele>
        <time>2011-03-23T17:34:56Z</time>
      </trkpt>
      <trkpt lat="37.2222255983" lon="-7.480649865">
        <ele>39.2</ele>
        <time>2011-03-23T17:34:59Z</time>
      </trkpt>
      <trkpt lat="37.2221968484" lon="-7.48060049561">
        <ele>39.4</ele>
        <time>2011-03-23T17:35:01Z</time>
      </trkpt>
      <trkpt lat="37.2221694396" lon="-7.48055154531">
        <ele>39.6</ele>
        <time>2011-03-23T17:35:03Z</time>
      </trkpt>
      <trkpt lat="37.2221263566" lon="-7.48048122117">
        <ele>39.8</ele>
        <time>2011-03-23T17:35:06Z</time>
      </trkpt>
      <trkpt lat="37.2220974391" lon="-7.4804332767">
        <ele>39.8</ele>
        <time>2011-03-23T17:35:08Z</time>
      </trkpt>
      <trkpt lat="37.2220566192" lon="-7.48036990954">
        <ele>40</ele>
        <time>2011-03-23T17:35:11Z</time>
      </trkpt>
      <trkpt lat="37.2220269473" lon="-7.48031844467">
        <ele>40</ele>
        <time>2011-03-23T17:35:13Z</time>
      </trkpt>
      <trkpt lat="37.221996521" lon="-7.48026664453">
        <ele>40</ele>
        <time>2011-03-23T17:35:15Z</time>
      </trkpt>
      <trkpt lat="37.2219660947" lon="-7.48022154991">
        <ele>40</ele>
        <time>2011-03-23T17:35:17Z</time>
      </trkpt>
      <trkpt lat="37.2219360875" lon="-7.4801782993">
        <ele>40.2</ele>
        <time>2011-03-23T17:35:19Z</time>
      </trkpt>
      <trkpt lat="37.2219056612" lon="-7.48013144448">
        <ele>40.2</ele>
        <time>2011-03-23T17:35:21Z</time>
      </trkpt>
      <trkpt lat="37.2218775818" lon="-7.48008458966">
        <ele>40.2</ele>
        <time>2011-03-23T17:35:23Z</time>
      </trkpt>
      <trkpt lat="37.2218474908" lon="-7.48003329243">
        <ele>40.2</ele>
        <time>2011-03-23T17:35:25Z</time>
      </trkpt>
      <trkpt lat="37.2218184894" lon="-7.47999113148">
        <ele>40.2</ele>
        <time>2011-03-23T17:35:27Z</time>
      </trkpt>
      <trkpt lat="37.2217904939" lon="-7.47994679123">
        <ele>40.2</ele>
        <time>2011-03-23T17:35:29Z</time>
      </trkpt>
      <trkpt lat="37.2217631689" lon="-7.47989918203">
        <ele>40.2</ele>
        <time>2011-03-23T17:35:31Z</time>
      </trkpt>
      <trkpt lat="37.2217236063" lon="-7.47983229447">
        <ele>40.2</ele>
        <time>2011-03-23T17:35:34Z</time>
      </trkpt>
      <trkpt lat="37.2216842114" lon="-7.4797596234">
        <ele>40.2</ele>
        <time>2011-03-23T17:35:37Z</time>
      </trkpt>
      <trkpt lat="37.2216582275" lon="-7.47970782326">
        <ele>40.2</ele>
        <time>2011-03-23T17:35:39Z</time>
      </trkpt>
      <trkpt lat="37.2216336685" lon="-7.47965040724">
        <ele>40.2</ele>
        <time>2011-03-23T17:35:41Z</time>
      </trkpt>
      <trkpt lat="37.2216143064" lon="-7.47959106339">
        <ele>40.2</ele>
        <time>2011-03-23T17:35:44Z</time>
      </trkpt>
      <trkpt lat="37.2215994704" lon="-7.47953540757">
        <ele>40.2</ele>
        <time>2011-03-23T17:35:48Z</time>
      </trkpt>
      <trkpt lat="37.2215883225" lon="-7.47949861103">
        <ele>40.2</ele>
        <time>2011-03-23T17:35:50Z</time>
      </trkpt>
      <trkpt lat="37.2215885739" lon="-7.47945653389">
        <ele>40.2</ele>
        <time>2011-03-23T17:35:53Z</time>
      </trkpt>
      <trkpt lat="37.2215764202" lon="-7.479411104">
        <ele>40.2</ele>
        <time>2011-03-23T17:35:56Z</time>
      </trkpt>
      <trkpt lat="37.2215587344" lon="-7.47936290807">
        <ele>40.2</ele>
        <time>2011-03-23T17:35:59Z</time>
      </trkpt>
      <trkpt lat="37.2215455748" lon="-7.47931253285">
        <ele>40.2</ele>
        <time>2011-03-23T17:36:02Z</time>
      </trkpt>
      <trkpt lat="37.2215366061" lon="-7.47926592949">
        <ele>40.2</ele>
        <time>2011-03-23T17:36:05Z</time>
      </trkpt>
      <trkpt lat="37.221522776" lon="-7.47921203387">
        <ele>39.8</ele>
        <time>2011-03-23T17:36:08Z</time>
      </trkpt>
      <trkpt lat="37.2215066828" lon="-7.47915855735">
        <ele>39.4</ele>
        <time>2011-03-23T17:36:11Z</time>
      </trkpt>
      <trkpt lat="37.2214957863" lon="-7.47910910414">
        <ele>39</ele>
        <time>2011-03-23T17:36:14Z</time>
      </trkpt>
      <trkpt lat="37.2214906733" lon="-7.47906090821">
        <ele>38.8</ele>
        <time>2011-03-23T17:36:17Z</time>
      </trkpt>
      <trkpt lat="37.2214828782" lon="-7.47902746443">
        <ele>38.8</ele>
        <time>2011-03-23T17:36:19Z</time>
      </trkpt>
      <trkpt lat="37.2214623425" lon="-7.47896267235">
        <ele>38.6</ele>
        <time>2011-03-23T17:36:23Z</time>
      </trkpt>
      <trkpt lat="37.2214495182" lon="-7.47891581753">
        <ele>38.4</ele>
        <time>2011-03-23T17:36:26Z</time>
      </trkpt>
      <trkpt lat="37.2214346822" lon="-7.47886661577">
        <ele>38.4</ele>
        <time>2011-03-23T17:36:29Z</time>
      </trkpt>
      <trkpt lat="37.221418589" lon="-7.47881607292">
        <ele>37.8</ele>
        <time>2011-03-23T17:36:32Z</time>
      </trkpt>
      <trkpt lat="37.2214054294" lon="-7.4787683799">
        <ele>37.4</ele>
        <time>2011-03-23T17:36:35Z</time>
      </trkpt>
      <trkpt lat="37.2213902582" lon="-7.47871473574">
        <ele>37</ele>
        <time>2011-03-23T17:36:39Z</time>
      </trkpt>
      <trkpt lat="37.2213754222" lon="-7.47866561781">
        <ele>36.6</ele>
        <time>2011-03-23T17:36:42Z</time>
      </trkpt>
      <trkpt lat="37.2213563115" lon="-7.47862027173">
        <ele>36.6</ele>
        <time>2011-03-23T17:36:45Z</time>
      </trkpt>
      <trkpt lat="37.2213387095" lon="-7.4785777755">
        <ele>36.4</ele>
        <time>2011-03-23T17:36:48Z</time>
      </trkpt>
      <trkpt lat="37.2213155754" lon="-7.47853025012">
        <ele>36</ele>
        <time>2011-03-23T17:36:51Z</time>
      </trkpt>
      <trkpt lat="37.2212942016" lon="-7.47848171892">
        <ele>35.4</ele>
        <time>2011-03-23T17:36:54Z</time>
      </trkpt>
      <trkpt lat="37.2212793656" lon="-7.47843494792">
        <ele>35</ele>
        <time>2011-03-23T17:36:57Z</time>
      </trkpt>
      <trkpt lat="37.2212740012" lon="-7.4784185194">
        <ele>35</ele>
        <time>2011-03-23T17:36:58Z</time>
      </trkpt>
      <trkpt lat="37.2212464248" lon="-7.47836713835">
        <ele>34.6</ele>
        <time>2011-03-23T17:37:01Z</time>
      </trkpt>
      <trkpt lat="37.2212177587" lon="-7.47831466766">
        <ele>34.6</ele>
        <time>2011-03-23T17:37:04Z</time>
      </trkpt>
      <trkpt lat="37.2211921101" lon="-7.47826404098">
        <ele>34.4</ele>
        <time>2011-03-23T17:37:07Z</time>
      </trkpt>
      <trkpt lat="37.2211667129" lon="-7.47821358194">
        <ele>34.2</ele>
        <time>2011-03-23T17:37:10Z</time>
      </trkpt>
      <trkpt lat="37.2211248872" lon="-7.47814107851">
        <ele>34.2</ele>
        <time>2011-03-23T17:37:13Z</time>
      </trkpt>
      <trkpt lat="37.2210918625" lon="-7.47809246349">
        <ele>34.2</ele>
        <time>2011-03-23T17:37:15Z</time>
      </trkpt>
      <trkpt lat="37.2210590055" lon="-7.47804510575">
        <ele>34.2</ele>
        <time>2011-03-23T17:37:17Z</time>
      </trkpt>
      <trkpt lat="37.2210263999" lon="-7.47799565254">
        <ele>34.2</ele>
        <time>2011-03-23T17:37:19Z</time>
      </trkpt>
      <trkpt lat="37.2209956383" lon="-7.47794376858">
        <ele>34.2</ele>
        <time>2011-03-23T17:37:21Z</time>
      </trkpt>
      <trkpt lat="37.2209655473" lon="-7.47788978915">
        <ele>34</ele>
        <time>2011-03-23T17:37:23Z</time>
      </trkpt>
      <trkpt lat="37.2209341152" lon="-7.47784075503">
        <ele>34</ele>
        <time>2011-03-23T17:37:25Z</time>
      </trkpt>
      <trkpt lat="37.2209043594" lon="-7.47778752997">
        <ele>34</ele>
        <time>2011-03-23T17:37:27Z</time>
      </trkpt>
      <trkpt lat="37.2208751066" lon="-7.47773363435">
        <ele>34</ele>
        <time>2011-03-23T17:37:29Z</time>
      </trkpt>
      <trkpt lat="37.2208421657" lon="-7.47767931964">
        <ele>34</ele>
        <time>2011-03-23T17:37:31Z</time>
      </trkpt>
      <trkpt lat="37.2208039443" lon="-7.47760513982">
        <ele>34</ele>
        <time>2011-03-23T17:37:34Z</time>
      </trkpt>
      <trkpt lat="37.2207745238" lon="-7.47755384259">
        <ele>34</ele>
        <time>2011-03-23T17:37:36Z</time>
      </trkpt>
      <trkpt lat="37.2207458577" lon="-7.4775044732">
        <ele>34</ele>
        <time>2011-03-23T17:37:38Z</time>
      </trkpt>
      <trkpt lat="37.2207044511" lon="-7.4774290361">
        <ele>34</ele>
        <time>2011-03-23T17:37:41Z</time>
      </trkpt>
      <trkpt lat="37.2206663973" lon="-7.47735351518">
        <ele>34</ele>
        <time>2011-03-23T17:37:44Z</time>
      </trkpt>
      <trkpt lat="37.2206293493" lon="-7.47727774281">
        <ele>34</ele>
        <time>2011-03-23T17:37:47Z</time>
      </trkpt>
      <trkpt lat="37.2206012699" lon="-7.47722418247">
        <ele>34</ele>
        <time>2011-03-23T17:37:49Z</time>
      </trkpt>
      <trkpt lat="37.220569754" lon="-7.47717028685">
        <ele>34</ele>
        <time>2011-03-23T17:37:51Z</time>
      </trkpt>
      <trkpt lat="37.2205426804" lon="-7.47711312229">
        <ele>34</ele>
        <time>2011-03-23T17:37:53Z</time>
      </trkpt>
      <trkpt lat="37.2205161936" lon="-7.47705176678">
        <ele>34</ele>
        <time>2011-03-23T17:37:55Z</time>
      </trkpt>
      <trkpt lat="37.2205003518" lon="-7.47699057891">
        <ele>34</ele>
        <time>2011-03-23T17:37:57Z</time>
      </trkpt>
      <trkpt lat="37.2204838395" lon="-7.47692813376">
        <ele>34</ele>
        <time>2011-03-23T17:37:59Z</time>
      </trkpt>
      <trkpt lat="37.2204669919" lon="-7.4768643475">
        <ele>34</ele>
        <time>2011-03-23T17:38:01Z</time>
      </trkpt>
      <trkpt lat="37.2204536647" lon="-7.47680248908">
        <ele>34</ele>
        <time>2011-03-23T17:38:03Z</time>
      </trkpt>
      <trkpt lat="37.2204405889" lon="-7.47673970865">
        <ele>34</ele>
        <time>2011-03-23T17:38:05Z</time>
      </trkpt>
      <trkpt lat="37.2204317879" lon="-7.47667952661">
        <ele>34</ele>
        <time>2011-03-23T17:38:07Z</time>
      </trkpt>
      <trkpt lat="37.2204258368" lon="-7.47662353551">
        <ele>34</ele>
        <time>2011-03-23T17:38:09Z</time>
      </trkpt>
      <trkpt lat="37.2204184607" lon="-7.47656352111">
        <ele>34</ele>
        <time>2011-03-23T17:38:11Z</time>
      </trkpt>
      <trkpt lat="37.2204105817" lon="-7.4765039258">
        <ele>34</ele>
        <time>2011-03-23T17:38:13Z</time>
      </trkpt>
      <trkpt lat="37.2204070613" lon="-7.47644625833">
        <ele>34</ele>
        <time>2011-03-23T17:38:15Z</time>
      </trkpt>
      <trkpt lat="37.220400272" lon="-7.47638557337">
        <ele>34</ele>
        <time>2011-03-23T17:38:17Z</time>
      </trkpt>
      <trkpt lat="37.2203948237" lon="-7.47632748681">
        <ele>34</ele>
        <time>2011-03-23T17:38:19Z</time>
      </trkpt>
      <trkpt lat="37.2203884535" lon="-7.47626805913">
        <ele>34</ele>
        <time>2011-03-23T17:38:21Z</time>
      </trkpt>
      <trkpt lat="37.2203762159" lon="-7.47620661981">
        <ele>34</ele>
        <time>2011-03-23T17:38:23Z</time>
      </trkpt>
      <trkpt lat="37.2203664929" lon="-7.47614694068">
        <ele>34</ele>
        <time>2011-03-23T17:38:25Z</time>
      </trkpt>
      <trkpt lat="37.2203611285" lon="-7.47608784828">
        <ele>34</ele>
        <time>2011-03-23T17:38:27Z</time>
      </trkpt>
      <trkpt lat="37.2203560993" lon="-7.47602707951">
        <ele>34</ele>
        <time>2011-03-23T17:38:29Z</time>
      </trkpt>
      <trkpt lat="37.2203519922" lon="-7.47596740038">
        <ele>34</ele>
        <time>2011-03-23T17:38:31Z</time>
      </trkpt>
      <trkpt lat="37.2203484718" lon="-7.47590906236">
        <ele>34</ele>
        <time>2011-03-23T17:38:33Z</time>
      </trkpt>
      <trkpt lat="37.2203433589" lon="-7.47585089197">
        <ele>34</ele>
        <time>2011-03-23T17:38:35Z</time>
      </trkpt>
      <trkpt lat="37.2203351446" lon="-7.4757932245">
        <ele>34</ele>
        <time>2011-03-23T17:38:37Z</time>
      </trkpt>
      <trkpt lat="37.2203305346" lon="-7.47573404829">
        <ele>34</ele>
        <time>2011-03-23T17:38:39Z</time>
      </trkpt>
      <trkpt lat="37.2203255054" lon="-7.47566791509">
        <ele>34</ele>
        <time>2011-03-23T17:38:41Z</time>
      </trkpt>
      <trkpt lat="37.2203212306" lon="-7.47560940943">
        <ele>34</ele>
        <time>2011-03-23T17:38:43Z</time>
      </trkpt>
      <trkpt lat="37.2203157824" lon="-7.47554947885">
        <ele>34</ele>
        <time>2011-03-23T17:38:45Z</time>
      </trkpt>
      <trkpt lat="37.2203075681" lon="-7.47548938062">
        <ele>34</ele>
        <time>2011-03-23T17:38:47Z</time>
      </trkpt>
      <trkpt lat="37.2202976775" lon="-7.47539818555">
        <ele>34</ele>
        <time>2011-03-23T17:38:50Z</time>
      </trkpt>
      <trkpt lat="37.2202910558" lon="-7.47533766823">
        <ele>34</ele>
        <time>2011-03-23T17:38:52Z</time>
      </trkpt>
      <trkpt lat="37.2202844341" lon="-7.47528041986">
        <ele>34</ele>
        <time>2011-03-23T17:38:54Z</time>
      </trkpt>
      <trkpt lat="37.2202804946" lon="-7.47522166274">
        <ele>34</ele>
        <time>2011-03-23T17:38:56Z</time>
      </trkpt>
      <trkpt lat="37.2202778962" lon="-7.47516298944">
        <ele>34</ele>
        <time>2011-03-23T17:38:58Z</time>
      </trkpt>
      <trkpt lat="37.2202700172" lon="-7.47510507051">
        <ele>34</ele>
        <time>2011-03-23T17:39:00Z</time>
      </trkpt>
      <trkpt lat="37.2202622221" lon="-7.4750234308">
        <ele>34</ele>
        <time>2011-03-23T17:39:03Z</time>
      </trkpt>
      <trkpt lat="37.2202568577" lon="-7.47496391931">
        <ele>33.8</ele>
        <time>2011-03-23T17:39:05Z</time>
      </trkpt>
      <trkpt lat="37.2202501521" lon="-7.47487674755">
        <ele>33.4</ele>
        <time>2011-03-23T17:39:08Z</time>
      </trkpt>
      <trkpt lat="37.2202465479" lon="-7.47481975063">
        <ele>33</ele>
        <time>2011-03-23T17:39:10Z</time>
      </trkpt>
      <trkpt lat="37.2202421893" lon="-7.47475856276">
        <ele>32.8</ele>
        <time>2011-03-23T17:39:12Z</time>
      </trkpt>
      <trkpt lat="37.2202361544" lon="-7.47470433187">
        <ele>32.6</ele>
        <time>2011-03-23T17:39:14Z</time>
      </trkpt>
      <trkpt lat="37.2202327178" lon="-7.47464532329">
        <ele>32.6</ele>
        <time>2011-03-23T17:39:16Z</time>
      </trkpt>
      <trkpt lat="37.220226599" lon="-7.47458589562">
        <ele>32.4</ele>
        <time>2011-03-23T17:39:18Z</time>
      </trkpt>
      <trkpt lat="37.2202200611" lon="-7.47450048406">
        <ele>32.4</ele>
        <time>2011-03-23T17:39:21Z</time>
      </trkpt>
      <trkpt lat="37.2202140261" lon="-7.47443854182">
        <ele>32.2</ele>
        <time>2011-03-23T17:39:23Z</time>
      </trkpt>
      <trkpt lat="37.220204387" lon="-7.47437944943">
        <ele>32.2</ele>
        <time>2011-03-23T17:39:25Z</time>
      </trkpt>
      <trkpt lat="37.2201949154" lon="-7.47432186577">
        <ele>32.2</ele>
        <time>2011-03-23T17:39:27Z</time>
      </trkpt>
      <trkpt lat="37.2201851924" lon="-7.47426101318">
        <ele>32.2</ele>
        <time>2011-03-23T17:39:29Z</time>
      </trkpt>
      <trkpt lat="37.2201829293" lon="-7.47420116641">
        <ele>32.2</ele>
        <time>2011-03-23T17:39:31Z</time>
      </trkpt>
      <trkpt lat="37.2201768105" lon="-7.47414442095">
        <ele>32</ele>
        <time>2011-03-23T17:39:33Z</time>
      </trkpt>
      <trkpt lat="37.2201694344" lon="-7.47408650202">
        <ele>31.8</ele>
        <time>2011-03-23T17:39:35Z</time>
      </trkpt>
      <trkpt lat="37.2201651597" lon="-7.47402757726">
        <ele>31.4</ele>
        <time>2011-03-23T17:39:37Z</time>
      </trkpt>
      <trkpt lat="37.2201624775" lon="-7.47396714377">
        <ele>31.2</ele>
        <time>2011-03-23T17:39:39Z</time>
      </trkpt>
      <trkpt lat="37.2201530059" lon="-7.4738821513">
        <ele>30.8</ele>
        <time>2011-03-23T17:39:42Z</time>
      </trkpt>
      <trkpt lat="37.2201476415" lon="-7.47382548966">
        <ele>30.6</ele>
        <time>2011-03-23T17:39:44Z</time>
      </trkpt>
      <trkpt lat="37.22014278" lon="-7.47376388269">
        <ele>30.6</ele>
        <time>2011-03-23T17:39:46Z</time>
      </trkpt>
      <trkpt lat="37.2201337275" lon="-7.47367914168">
        <ele>30.4</ele>
        <time>2011-03-23T17:39:49Z</time>
      </trkpt>
      <trkpt lat="37.2201297042" lon="-7.47362273149">
        <ele>30.4</ele>
        <time>2011-03-23T17:39:51Z</time>
      </trkpt>
      <trkpt lat="37.2201218252" lon="-7.47353975068">
        <ele>30.2</ele>
        <time>2011-03-23T17:39:54Z</time>
      </trkpt>
      <trkpt lat="37.2201140301" lon="-7.47347931719">
        <ele>30.2</ele>
        <time>2011-03-23T17:39:56Z</time>
      </trkpt>
      <trkpt lat="37.2201079113" lon="-7.47341025033">
        <ele>30.2</ele>
        <time>2011-03-23T17:39:59Z</time>
      </trkpt>
      <trkpt lat="37.220100619" lon="-7.47333648961">
        <ele>30</ele>
        <time>2011-03-23T17:40:02Z</time>
      </trkpt>
      <trkpt lat="37.2200924048" lon="-7.4732632318">
        <ele>29.4</ele>
        <time>2011-03-23T17:40:05Z</time>
      </trkpt>
      <trkpt lat="37.2200837714" lon="-7.47319382967">
        <ele>29</ele>
        <time>2011-03-23T17:40:08Z</time>
      </trkpt>
      <trkpt lat="37.2200763115" lon="-7.47310825047">
        <ele>28.8</ele>
        <time>2011-03-23T17:40:11Z</time>
      </trkpt>
      <trkpt lat="37.220073294" lon="-7.47302493439">
        <ele>28.6</ele>
        <time>2011-03-23T17:40:14Z</time>
      </trkpt>
      <trkpt lat="37.2200719529" lon="-7.472966764">
        <ele>28.4</ele>
        <time>2011-03-23T17:40:16Z</time>
      </trkpt>
      <trkpt lat="37.2200741322" lon="-7.47287959224">
        <ele>28.2</ele>
        <time>2011-03-23T17:40:19Z</time>
      </trkpt>
      <trkpt lat="37.2200763953" lon="-7.47282200859">
        <ele>27.8</ele>
        <time>2011-03-23T17:40:21Z</time>
      </trkpt>
      <trkpt lat="37.2200772335" lon="-7.47276476021">
        <ele>27.4</ele>
        <time>2011-03-23T17:40:23Z</time>
      </trkpt>
      <trkpt lat="37.2200789937" lon="-7.47270524872">
        <ele>27.2</ele>
        <time>2011-03-23T17:40:25Z</time>
      </trkpt>
      <trkpt lat="37.2200782394" lon="-7.47264464758">
        <ele>27</ele>
        <time>2011-03-23T17:40:27Z</time>
      </trkpt>
      <trkpt lat="37.2200810054" lon="-7.47256359461">
        <ele>26.6</ele>
        <time>2011-03-23T17:40:30Z</time>
      </trkpt>
      <trkpt lat="37.2200812568" lon="-7.47254984829">
        <ele>26.6</ele>
        <time>2011-03-23T17:40:31Z</time>
      </trkpt>
      <trkpt lat="37.2200674267" lon="-7.47249612032">
        <ele>24.6</ele>
        <time>2011-03-23T17:40:47Z</time>
      </trkpt>
      <trkpt lat="37.220072372" lon="-7.472472651">
        <ele>24.6</ele>
        <time>2011-03-23T17:40:49Z</time>
      </trkpt>
      <trkpt lat="37.220076563" lon="-7.47240861328">
        <ele>24.2</ele>
        <time>2011-03-23T17:40:53Z</time>
      </trkpt>
      <trkpt lat="37.2200798319" lon="-7.47237642678">
        <ele>24.2</ele>
        <time>2011-03-23T17:40:55Z</time>
      </trkpt>
      <trkpt lat="37.2200787423" lon="-7.47234440793">
        <ele>24</ele>
        <time>2011-03-23T17:40:57Z</time>
      </trkpt>
      <trkpt lat="37.2200920695" lon="-7.47229034467">
        <ele>23.4</ele>
        <time>2011-03-23T17:41:01Z</time>
      </trkpt>
      <trkpt lat="37.2200988588" lon="-7.47224734552">
        <ele>23</ele>
        <time>2011-03-23T17:41:04Z</time>
      </trkpt>
      <trkpt lat="37.2201090009" lon="-7.47220619039">
        <ele>22.6</ele>
        <time>2011-03-23T17:41:07Z</time>
      </trkpt>
      <trkpt lat="37.2201223282" lon="-7.47216369416">
        <ele>22.4</ele>
        <time>2011-03-23T17:41:10Z</time>
      </trkpt>
      <trkpt lat="37.2201271058" lon="-7.47214936111">
        <ele>22.2</ele>
        <time>2011-03-23T17:41:11Z</time>
      </trkpt>
      <trkpt lat="37.2201459651" lon="-7.47209286711">
        <ele>22</ele>
        <time>2011-03-23T17:41:15Z</time>
      </trkpt>
      <trkpt lat="37.2201580351" lon="-7.472044755">
        <ele>21.8</ele>
        <time>2011-03-23T17:41:18Z</time>
      </trkpt>
      <trkpt lat="37.2201637347" lon="-7.47200267786">
        <ele>21.2</ele>
        <time>2011-03-23T17:41:21Z</time>
      </trkpt>
      <trkpt lat="37.2201647406" lon="-7.47198641698">
        <ele>21</ele>
        <time>2011-03-23T17:41:22Z</time>
      </trkpt>
      <trkpt lat="37.2201665846" lon="-7.47193914306">
        <ele>20.6</ele>
        <time>2011-03-23T17:41:25Z</time>
      </trkpt>
      <trkpt lat="37.2201648244" lon="-7.4718872591">
        <ele>20.4</ele>
        <time>2011-03-23T17:41:28Z</time>
      </trkpt>
      <trkpt lat="37.2201696859" lon="-7.47183369876">
        <ele>20.2</ele>
        <time>2011-03-23T17:41:31Z</time>
      </trkpt>
      <trkpt lat="37.2201711108" lon="-7.47175909985">
        <ele>20</ele>
        <time>2011-03-23T17:41:34Z</time>
      </trkpt>
      <trkpt lat="37.2201701888" lon="-7.4716975767">
        <ele>20</ele>
        <time>2011-03-23T17:41:36Z</time>
      </trkpt>
      <trkpt lat="37.2201716137" lon="-7.471634461">
        <ele>19.8</ele>
        <time>2011-03-23T17:41:38Z</time>
      </trkpt>
      <trkpt lat="37.2201718652" lon="-7.47157369222">
        <ele>19.8</ele>
        <time>2011-03-23T17:41:40Z</time>
      </trkpt>
      <trkpt lat="37.2201727034" lon="-7.47151208526">
        <ele>19.8</ele>
        <time>2011-03-23T17:41:42Z</time>
      </trkpt>
      <trkpt lat="37.2201718652" lon="-7.47143262484">
        <ele>19.8</ele>
        <time>2011-03-23T17:41:45Z</time>
      </trkpt>
      <trkpt lat="37.2201714461" lon="-7.471374203">
        <ele>19.8</ele>
        <time>2011-03-23T17:41:47Z</time>
      </trkpt>
      <trkpt lat="37.2201753018" lon="-7.47131569734">
        <ele>19.8</ele>
        <time>2011-03-23T17:41:49Z</time>
      </trkpt>
      <trkpt lat="37.2201780678" lon="-7.47125534766">
        <ele>19.8</ele>
        <time>2011-03-23T17:41:51Z</time>
      </trkpt>
      <trkpt lat="37.2201776487" lon="-7.4711946627">
        <ele>19.6</ele>
        <time>2011-03-23T17:41:53Z</time>
      </trkpt>
      <trkpt lat="37.2201758885" lon="-7.47113364247">
        <ele>19.6</ele>
        <time>2011-03-23T17:41:55Z</time>
      </trkpt>
      <trkpt lat="37.2201714461" lon="-7.47107396334">
        <ele>19.6</ele>
        <time>2011-03-23T17:41:57Z</time>
      </trkpt>
      <trkpt lat="37.2201707755" lon="-7.47101713406">
        <ele>19.6</ele>
        <time>2011-03-23T17:41:59Z</time>
      </trkpt>
      <trkpt lat="37.2201685124" lon="-7.47092811828">
        <ele>19.6</ele>
        <time>2011-03-23T17:42:02Z</time>
      </trkpt>
      <trkpt lat="37.2201675904" lon="-7.470871289">
        <ele>19.6</ele>
        <time>2011-03-23T17:42:04Z</time>
      </trkpt>
      <trkpt lat="37.2201654949" lon="-7.47078193795">
        <ele>19.4</ele>
        <time>2011-03-23T17:42:07Z</time>
      </trkpt>
      <trkpt lat="37.2201627289" lon="-7.47072603067">
        <ele>19.2</ele>
        <time>2011-03-23T17:42:09Z</time>
      </trkpt>
      <trkpt lat="37.2201582865" lon="-7.47063768545">
        <ele>18.8</ele>
        <time>2011-03-23T17:42:12Z</time>
      </trkpt>
      <trkpt lat="37.2201539279" lon="-7.4705541179">
        <ele>18.4</ele>
        <time>2011-03-23T17:42:15Z</time>
      </trkpt>
      <trkpt lat="37.2201518324" lon="-7.47049435496">
        <ele>18.2</ele>
        <time>2011-03-23T17:42:17Z</time>
      </trkpt>
      <trkpt lat="37.2201471386" lon="-7.4704354302">
        <ele>18.2</ele>
        <time>2011-03-23T17:42:19Z</time>
      </trkpt>
      <trkpt lat="37.2201406007" lon="-7.47037466143">
        <ele>18</ele>
        <time>2011-03-23T17:42:21Z</time>
      </trkpt>
      <trkpt lat="37.2201325541" lon="-7.47031691013">
        <ele>18</ele>
        <time>2011-03-23T17:42:23Z</time>
      </trkpt>
      <trkpt lat="37.2201240045" lon="-7.47025865593">
        <ele>17.8</ele>
        <time>2011-03-23T17:42:25Z</time>
      </trkpt>
      <trkpt lat="37.2201135272" lon="-7.47017743532">
        <ele>17.8</ele>
        <time>2011-03-23T17:42:28Z</time>
      </trkpt>
      <trkpt lat="37.2201045585" lon="-7.47011851056">
        <ele>17.8</ele>
        <time>2011-03-23T17:42:30Z</time>
      </trkpt>
      <trkpt lat="37.2200939973" lon="-7.47006017254">
        <ele>17.8</ele>
        <time>2011-03-23T17:42:32Z</time>
      </trkpt>
      <trkpt lat="37.2200778203" lon="-7.46997635354">
        <ele>17.8</ele>
        <time>2011-03-23T17:42:35Z</time>
      </trkpt>
      <trkpt lat="37.2200633196" lon="-7.46992094918">
        <ele>17.6</ele>
        <time>2011-03-23T17:42:37Z</time>
      </trkpt>
      <trkpt lat="37.2200470587" lon="-7.46986688592">
        <ele>17.6</ele>
        <time>2011-03-23T17:42:39Z</time>
      </trkpt>
      <trkpt lat="37.2200307978" lon="-7.46981173302">
        <ele>17.6</ele>
        <time>2011-03-23T17:42:41Z</time>
      </trkpt>
      <trkpt lat="37.2200111842" lon="-7.4697564963">
        <ele>17.6</ele>
        <time>2011-03-23T17:42:43Z</time>
      </trkpt>
      <trkpt lat="37.2199784948" lon="-7.46968047247">
        <ele>17.6</ele>
        <time>2011-03-23T17:42:46Z</time>
      </trkpt>
      <trkpt lat="37.219951505" lon="-7.46962640921">
        <ele>17.6</ele>
        <time>2011-03-23T17:42:48Z</time>
      </trkpt>
      <trkpt lat="37.2199233418" lon="-7.46957402234">
        <ele>17.6</ele>
        <time>2011-03-23T17:42:50Z</time>
      </trkpt>
      <trkpt lat="37.2198956816" lon="-7.46952574259">
        <ele>17.6</ele>
        <time>2011-03-23T17:42:52Z</time>
      </trkpt>
      <trkpt lat="37.2198676022" lon="-7.46947838486">
        <ele>17.6</ele>
        <time>2011-03-23T17:42:54Z</time>
      </trkpt>
      <trkpt lat="37.2198344099" lon="-7.46943169768">
        <ele>17.6</ele>
        <time>2011-03-23T17:42:56Z</time>
      </trkpt>
      <trkpt lat="37.2197866331" lon="-7.46937168327">
        <ele>17.6</ele>
        <time>2011-03-23T17:42:59Z</time>
      </trkpt>
      <trkpt lat="37.2197503394" lon="-7.46932524755">
        <ele>17.6</ele>
        <time>2011-03-23T17:43:01Z</time>
      </trkpt>
      <trkpt lat="37.2197191588" lon="-7.46928258367">
        <ele>17.6</ele>
        <time>2011-03-23T17:43:03Z</time>
      </trkpt>
      <trkpt lat="37.219671801" lon="-7.46922231781">
        <ele>17.6</ele>
        <time>2011-03-23T17:43:06Z</time>
      </trkpt>
      <trkpt lat="37.2196272931" lon="-7.46916406361">
        <ele>17.6</ele>
        <time>2011-03-23T17:43:09Z</time>
      </trkpt>
      <trkpt lat="37.2195811089" lon="-7.46910597704">
        <ele>17.6</ele>
        <time>2011-03-23T17:43:12Z</time>
      </trkpt>
      <trkpt lat="37.2195380259" lon="-7.46905635619">
        <ele>17.6</ele>
        <time>2011-03-23T17:43:15Z</time>
      </trkpt>
      <trkpt lat="37.2194948591" lon="-7.4690140276">
        <ele>18.2</ele>
        <time>2011-03-23T17:43:18Z</time>
      </trkpt>
      <trkpt lat="37.2194553804" lon="-7.46895250445">
        <ele>18.6</ele>
        <time>2011-03-23T17:43:21Z</time>
      </trkpt>
      <trkpt lat="37.2194241997" lon="-7.46890950531">
        <ele>18.8</ele>
        <time>2011-03-23T17:43:23Z</time>
      </trkpt>
      <trkpt lat="37.2193955336" lon="-7.4688680149">
        <ele>19</ele>
        <time>2011-03-23T17:43:25Z</time>
      </trkpt>
      <trkpt lat="37.2193655264" lon="-7.46881973516">
        <ele>19</ele>
        <time>2011-03-23T17:43:27Z</time>
      </trkpt>
      <trkpt lat="37.2193233654" lon="-7.46875435634">
        <ele>19.2</ele>
        <time>2011-03-23T17:43:30Z</time>
      </trkpt>
      <trkpt lat="37.2192988065" lon="-7.46870364584">
        <ele>19.4</ele>
        <time>2011-03-23T17:43:32Z</time>
      </trkpt>
      <trkpt lat="37.219278187" lon="-7.46864966641">
        <ele>19.8</ele>
        <time>2011-03-23T17:43:34Z</time>
      </trkpt>
      <trkpt lat="37.2192620938" lon="-7.46859384295">
        <ele>20.2</ele>
        <time>2011-03-23T17:43:36Z</time>
      </trkpt>
      <trkpt lat="37.2192461681" lon="-7.46853961206">
        <ele>20.4</ele>
        <time>2011-03-23T17:43:38Z</time>
      </trkpt>
      <trkpt lat="37.2192306616" lon="-7.4684859679">
        <ele>20.8</ele>
        <time>2011-03-23T17:43:40Z</time>
      </trkpt>
      <trkpt lat="37.2192066894" lon="-7.46840281945">
        <ele>21</ele>
        <time>2011-03-23T17:43:43Z</time>
      </trkpt>
      <trkpt lat="37.2191895903" lon="-7.46834884001">
        <ele>21.2</ele>
        <time>2011-03-23T17:43:45Z</time>
      </trkpt>
      <trkpt lat="37.2191474294" lon="-7.4682093652">
        <ele>22</ele>
        <time>2011-03-23T17:43:50Z</time>
      </trkpt>
      <trkpt lat="37.2191330125" lon="-7.46815463139">
        <ele>22.4</ele>
        <time>2011-03-23T17:43:52Z</time>
      </trkpt>
      <trkpt lat="37.2191159972" lon="-7.46810383708">
        <ele>22.6</ele>
        <time>2011-03-23T17:43:54Z</time>
      </trkpt>
      <trkpt lat="37.2190981438" lon="-7.46804474468">
        <ele>22.8</ele>
        <time>2011-03-23T17:43:56Z</time>
      </trkpt>
      <trkpt lat="37.2190830564" lon="-7.46799076525">
        <ele>23</ele>
        <time>2011-03-23T17:43:58Z</time>
      </trkpt>
      <trkpt lat="37.2190688071" lon="-7.46793519325">
        <ele>23.2</ele>
        <time>2011-03-23T17:44:00Z</time>
      </trkpt>
      <trkpt lat="37.2190481877" lon="-7.46786235454">
        <ele>23.4</ele>
        <time>2011-03-23T17:44:03Z</time>
      </trkpt>
      <trkpt lat="37.2190213656" lon="-7.46777635624">
        <ele>23.6</ele>
        <time>2011-03-23T17:44:06Z</time>
      </trkpt>
      <trkpt lat="37.2190005785" lon="-7.4677196946">
        <ele>23.6</ele>
        <time>2011-03-23T17:44:08Z</time>
      </trkpt>
      <trkpt lat="37.2189863292" lon="-7.46766328441">
        <ele>23.6</ele>
        <time>2011-03-23T17:44:10Z</time>
      </trkpt>
      <trkpt lat="37.218977193" lon="-7.46760301855">
        <ele>23.6</ele>
        <time>2011-03-23T17:44:12Z</time>
      </trkpt>
      <trkpt lat="37.2189654583" lon="-7.46754845238">
        <ele>24</ele>
        <time>2011-03-23T17:44:14Z</time>
      </trkpt>
      <trkpt lat="37.2189543104" lon="-7.46749195838">
        <ele>24.4</ele>
        <time>2011-03-23T17:44:16Z</time>
      </trkpt>
      <trkpt lat="37.2189417375" lon="-7.46743236307">
        <ele>24.8</ele>
        <time>2011-03-23T17:44:18Z</time>
      </trkpt>
      <trkpt lat="37.2189314278" lon="-7.46737829981">
        <ele>25</ele>
        <time>2011-03-23T17:44:20Z</time>
      </trkpt>
      <trkpt lat="37.2189210342" lon="-7.46732256018">
        <ele>25.2</ele>
        <time>2011-03-23T17:44:22Z</time>
      </trkpt>
      <trkpt lat="37.2189152507" lon="-7.46726715582">
        <ele>25.2</ele>
        <time>2011-03-23T17:44:24Z</time>
      </trkpt>
      <trkpt lat="37.2189098863" lon="-7.46721007508">
        <ele>25.4</ele>
        <time>2011-03-23T17:44:26Z</time>
      </trkpt>
      <trkpt lat="37.2188994089" lon="-7.46713463798">
        <ele>25.6</ele>
        <time>2011-03-23T17:44:29Z</time>
      </trkpt>
      <trkpt lat="37.2188946313" lon="-7.46705459084">
        <ele>25.6</ele>
        <time>2011-03-23T17:44:32Z</time>
      </trkpt>
      <trkpt lat="37.2188875066" lon="-7.46697982429">
        <ele>25.6</ele>
        <time>2011-03-23T17:44:35Z</time>
      </trkpt>
      <trkpt lat="37.2188875905" lon="-7.46690069915">
        <ele>25.8</ele>
        <time>2011-03-23T17:44:38Z</time>
      </trkpt>
      <trkpt lat="37.2188857464" lon="-7.4668179698">
        <ele>25.8</ele>
        <time>2011-03-23T17:44:41Z</time>
      </trkpt>
      <trkpt lat="37.2188818908" lon="-7.4667575363">
        <ele>25.8</ele>
        <time>2011-03-23T17:44:43Z</time>
      </trkpt>
      <trkpt lat="37.2188795438" lon="-7.46667463931">
        <ele>25.8</ele>
        <time>2011-03-23T17:44:46Z</time>
      </trkpt>
      <trkpt lat="37.2188782866" lon="-7.46660875757">
        <ele>25.8</ele>
        <time>2011-03-23T17:44:49Z</time>
      </trkpt>
      <trkpt lat="37.2188758558" lon="-7.46655025191">
        <ele>25.8</ele>
        <time>2011-03-23T17:44:51Z</time>
      </trkpt>
      <trkpt lat="37.2188732574" lon="-7.46649568574">
        <ele>25.8</ele>
        <time>2011-03-23T17:44:53Z</time>
      </trkpt>
      <trkpt lat="37.2188683959" lon="-7.46643776681">
        <ele>25.8</ele>
        <time>2011-03-23T17:44:55Z</time>
      </trkpt>
      <trkpt lat="37.2188674739" lon="-7.46637942879">
        <ele>25.8</ele>
        <time>2011-03-23T17:44:57Z</time>
      </trkpt>
      <trkpt lat="37.2188664681" lon="-7.46632218041">
        <ele>25.8</ele>
        <time>2011-03-23T17:44:59Z</time>
      </trkpt>
      <trkpt lat="37.2188657975" lon="-7.46626342329">
        <ele>25.8</ele>
        <time>2011-03-23T17:45:01Z</time>
      </trkpt>
      <trkpt lat="37.2188645402" lon="-7.46620776748">
        <ele>25.8</ele>
        <time>2011-03-23T17:45:03Z</time>
      </trkpt>
      <trkpt lat="37.21886278" lon="-7.46614833981">
        <ele>25.8</ele>
        <time>2011-03-23T17:45:05Z</time>
      </trkpt>
      <trkpt lat="37.2188617742" lon="-7.46609058852">
        <ele>25.8</ele>
        <time>2011-03-23T17:45:07Z</time>
      </trkpt>
      <trkpt lat="37.2188677254" lon="-7.46603602235">
        <ele>25.8</ele>
        <time>2011-03-23T17:45:09Z</time>
      </trkpt>
      <trkpt lat="37.2188684797" lon="-7.46597827106">
        <ele>25.8</ele>
        <time>2011-03-23T17:45:11Z</time>
      </trkpt>
      <trkpt lat="37.2188642888" lon="-7.46591959776">
        <ele>25.8</ele>
        <time>2011-03-23T17:45:13Z</time>
      </trkpt>
      <trkpt lat="37.2188600978" lon="-7.46586452867">
        <ele>25.8</ele>
        <time>2011-03-23T17:45:15Z</time>
      </trkpt>
      <trkpt lat="37.2188574994" lon="-7.46580627447">
        <ele>25.8</ele>
        <time>2011-03-23T17:45:17Z</time>
      </trkpt>
      <trkpt lat="37.2188552363" lon="-7.4657517083">
        <ele>25.8</ele>
        <time>2011-03-23T17:45:19Z</time>
      </trkpt>
      <trkpt lat="37.2188605169" lon="-7.46567233171">
        <ele>25.8</ele>
        <time>2011-03-23T17:45:22Z</time>
      </trkpt>
      <trkpt lat="37.2188623609" lon="-7.46561726262">
        <ele>25.8</ele>
        <time>2011-03-23T17:45:24Z</time>
      </trkpt>
      <trkpt lat="37.2188626962" lon="-7.46553159961">
        <ele>25.8</ele>
        <time>2011-03-23T17:45:27Z</time>
      </trkpt>
      <trkpt lat="37.2188606846" lon="-7.46547728489">
        <ele>25.8</ele>
        <time>2011-03-23T17:45:29Z</time>
      </trkpt>
      <trkpt lat="37.218860014" lon="-7.46541651612">
        <ele>25.8</ele>
        <time>2011-03-23T17:45:31Z</time>
      </trkpt>
      <trkpt lat="37.2188620257" lon="-7.46533512787">
        <ele>25.8</ele>
        <time>2011-03-23T17:45:34Z</time>
      </trkpt>
      <trkpt lat="37.2188647917" lon="-7.46527394">
        <ele>25.8</ele>
        <time>2011-03-23T17:45:36Z</time>
      </trkpt>
      <trkpt lat="37.2188614389" lon="-7.46521409323">
        <ele>25.8</ele>
        <time>2011-03-23T17:45:38Z</time>
      </trkpt>
      <trkpt lat="37.2188611875" lon="-7.46515994616">
        <ele>25.8</ele>
        <time>2011-03-23T17:45:40Z</time>
      </trkpt>
      <trkpt lat="37.2188623609" lon="-7.46509959648">
        <ele>25.8</ele>
        <time>2011-03-23T17:45:42Z</time>
      </trkpt>
      <trkpt lat="37.2188583376" lon="-7.46501560984">
        <ele>25.8</ele>
        <time>2011-03-23T17:45:45Z</time>
      </trkpt>
      <trkpt lat="37.2188610198" lon="-7.46495417051">
        <ele>25.6</ele>
        <time>2011-03-23T17:45:47Z</time>
      </trkpt>
      <trkpt lat="37.2188598464" lon="-7.46490044254">
        <ele>25.4</ele>
        <time>2011-03-23T17:45:49Z</time>
      </trkpt>
      <trkpt lat="37.2188583376" lon="-7.46485668902">
        <ele>25</ele>
        <time>2011-03-23T17:45:51Z</time>
      </trkpt>
      <trkpt lat="37.2188608522" lon="-7.46475551948">
        <ele>24.8</ele>
        <time>2011-03-23T17:45:54Z</time>
      </trkpt>
      <trkpt lat="37.218861858" lon="-7.46469399634">
        <ele>24.6</ele>
        <time>2011-03-23T17:45:56Z</time>
      </trkpt>
      <trkpt lat="37.2188639535" lon="-7.46463951399">
        <ele>24.4</ele>
        <time>2011-03-23T17:45:58Z</time>
      </trkpt>
      <trkpt lat="37.2188646241" lon="-7.46458092451">
        <ele>24.4</ele>
        <time>2011-03-23T17:46:00Z</time>
      </trkpt>
      <trkpt lat="37.2188667195" lon="-7.46452401141">
        <ele>24.2</ele>
        <time>2011-03-23T17:46:02Z</time>
      </trkpt>
      <trkpt lat="37.2188690665" lon="-7.46446944524">
        <ele>24.2</ele>
        <time>2011-03-23T17:46:04Z</time>
      </trkpt>
      <trkpt lat="37.2188680606" lon="-7.46441144249">
        <ele>24</ele>
        <time>2011-03-23T17:46:06Z</time>
      </trkpt>
      <trkpt lat="37.2188684797" lon="-7.46433508338">
        <ele>24</ele>
        <time>2011-03-23T17:46:09Z</time>
      </trkpt>
      <trkpt lat="37.2188726707" lon="-7.4642782541">
        <ele>24</ele>
        <time>2011-03-23T17:46:11Z</time>
      </trkpt>
      <trkpt lat="37.2188787895" lon="-7.46422033517">
        <ele>24</ele>
        <time>2011-03-23T17:46:13Z</time>
      </trkpt>
      <trkpt lat="37.2188808011" lon="-7.46416358971">
        <ele>24</ele>
        <time>2011-03-23T17:46:15Z</time>
      </trkpt>
      <trkpt lat="37.2188816393" lon="-7.46410717952">
        <ele>24</ele>
        <time>2011-03-23T17:46:17Z</time>
      </trkpt>
      <trkpt lat="37.218881807" lon="-7.46402436635">
        <ele>23.8</ele>
        <time>2011-03-23T17:46:20Z</time>
      </trkpt>
      <trkpt lat="37.2188865846" lon="-7.46394188845">
        <ele>23.8</ele>
        <time>2011-03-23T17:46:23Z</time>
      </trkpt>
      <trkpt lat="37.2188903565" lon="-7.46388447244">
        <ele>23.8</ele>
        <time>2011-03-23T17:46:25Z</time>
      </trkpt>
      <trkpt lat="37.2188927872" lon="-7.46382722406">
        <ele>23.8</ele>
        <time>2011-03-23T17:46:27Z</time>
      </trkpt>
      <trkpt lat="37.2188976487" lon="-7.46374441089">
        <ele>23.8</ele>
        <time>2011-03-23T17:46:30Z</time>
      </trkpt>
      <trkpt lat="37.2189015882" lon="-7.46368774924">
        <ele>23.8</ele>
        <time>2011-03-23T17:46:32Z</time>
      </trkpt>
      <trkpt lat="37.2189004148" lon="-7.46363335071">
        <ele>23.8</ele>
        <time>2011-03-23T17:46:34Z</time>
      </trkpt>
      <trkpt lat="37.2189010015" lon="-7.46357543178">
        <ele>23.8</ele>
        <time>2011-03-23T17:46:36Z</time>
      </trkpt>
      <trkpt lat="37.218899828" lon="-7.46349496554">
        <ele>23.8</ele>
        <time>2011-03-23T17:46:39Z</time>
      </trkpt>
      <trkpt lat="37.2188994928" lon="-7.46343687898">
        <ele>23.8</ele>
        <time>2011-03-23T17:46:41Z</time>
      </trkpt>
      <trkpt lat="37.2188999119" lon="-7.46338382155">
        <ele>23.8</ele>
        <time>2011-03-23T17:46:43Z</time>
      </trkpt>
      <trkpt lat="37.2188984031" lon="-7.46330184657">
        <ele>23.8</ele>
        <time>2011-03-23T17:46:46Z</time>
      </trkpt>
      <trkpt lat="37.2188976487" lon="-7.46322339198">
        <ele>23.8</ele>
        <time>2011-03-23T17:46:49Z</time>
      </trkpt>
      <trkpt lat="37.2188927872" lon="-7.46313823188">
        <ele>23.4</ele>
        <time>2011-03-23T17:46:52Z</time>
      </trkpt>
      <trkpt lat="37.2188904403" lon="-7.4630606993">
        <ele>23</ele>
        <time>2011-03-23T17:46:55Z</time>
      </trkpt>
      <trkpt lat="37.2188897698" lon="-7.46298962079">
        <ele>22.6</ele>
        <time>2011-03-23T17:46:58Z</time>
      </trkpt>
      <trkpt lat="37.2188856626" lon="-7.46292457725">
        <ele>22.4</ele>
        <time>2011-03-23T17:47:01Z</time>
      </trkpt>
      <trkpt lat="37.218882729" lon="-7.46285760587">
        <ele>22.2</ele>
        <time>2011-03-23T17:47:04Z</time>
      </trkpt>
      <trkpt lat="37.2188805497" lon="-7.46277797782">
        <ele>22.2</ele>
        <time>2011-03-23T17:47:07Z</time>
      </trkpt>
      <trkpt lat="37.2188806335" lon="-7.46271109026">
        <ele>22</ele>
        <time>2011-03-23T17:47:10Z</time>
      </trkpt>
      <trkpt lat="37.2188853274" lon="-7.46268912968">
        <ele>22</ele>
        <time>2011-03-23T17:47:11Z</time>
      </trkpt>
      <trkpt lat="37.2188913623" lon="-7.46261578805">
        <ele>22</ele>
        <time>2011-03-23T17:47:14Z</time>
      </trkpt>
      <trkpt lat="37.2188976487" lon="-7.46254177588">
        <ele>22</ele>
        <time>2011-03-23T17:47:17Z</time>
      </trkpt>
      <trkpt lat="37.2189013368" lon="-7.46251537289">
        <ele>22</ele>
        <time>2011-03-23T17:47:18Z</time>
      </trkpt>
      <trkpt lat="37.2188854112" lon="-7.46243314645">
        <ele>21.8</ele>
        <time>2011-03-23T17:47:21Z</time>
      </trkpt>
      <trkpt lat="37.218883651" lon="-7.46235863136">
        <ele>21.8</ele>
        <time>2011-03-23T17:47:24Z</time>
      </trkpt>
      <trkpt lat="37.2188815555" lon="-7.46233172546">
        <ele>21.8</ele>
        <time>2011-03-23T17:47:25Z</time>
      </trkpt>
      <trkpt lat="37.2188826451" lon="-7.46223742909">
        <ele>21.8</ele>
        <time>2011-03-23T17:47:29Z</time>
      </trkpt>
      <trkpt lat="37.2188823099" lon="-7.46215847159">
        <ele>21.8</ele>
        <time>2011-03-23T17:47:32Z</time>
      </trkpt>
      <trkpt lat="37.218876694" lon="-7.46207666424">
        <ele>21.8</ele>
        <time>2011-03-23T17:47:35Z</time>
      </trkpt>
      <trkpt lat="37.2188679768" lon="-7.46199929931">
        <ele>21.8</ele>
        <time>2011-03-23T17:47:38Z</time>
      </trkpt>
      <trkpt lat="37.2188595111" lon="-7.46192084472">
        <ele>21.8</ele>
        <time>2011-03-23T17:47:41Z</time>
      </trkpt>
      <trkpt lat="37.2188541467" lon="-7.46185999213">
        <ele>21.8</ele>
        <time>2011-03-23T17:47:44Z</time>
      </trkpt>
      <trkpt lat="37.2188512968" lon="-7.46180861108">
        <ele>21.8</ele>
        <time>2011-03-23T17:47:47Z</time>
      </trkpt>
      <trkpt lat="37.2188415738" lon="-7.46174247789">
        <ele>21.8</ele>
        <time>2011-03-23T17:47:50Z</time>
      </trkpt>
      <trkpt lat="37.2188380534" lon="-7.46171699692">
        <ele>21.8</ele>
        <time>2011-03-23T17:47:51Z</time>
      </trkpt>
      <trkpt lat="37.2188052802" lon="-7.46160912186">
        <ele>21.8</ele>
        <time>2011-03-23T17:47:55Z</time>
      </trkpt>
      <trkpt lat="37.2187953057" lon="-7.46158162923">
        <ele>21.8</ele>
        <time>2011-03-23T17:47:56Z</time>
      </trkpt>
      <trkpt lat="37.2187666396" lon="-7.46147593347">
        <ele>21.8</ele>
        <time>2011-03-23T17:48:00Z</time>
      </trkpt>
      <trkpt lat="37.218749792" lon="-7.46139571869">
        <ele>21.8</ele>
        <time>2011-03-23T17:48:03Z</time>
      </trkpt>
      <trkpt lat="37.2187304298" lon="-7.46131265406">
        <ele>21.8</ele>
        <time>2011-03-23T17:48:06Z</time>
      </trkpt>
      <trkpt lat="37.2187105647" lon="-7.46123579204">
        <ele>21.8</ele>
        <time>2011-03-23T17:48:09Z</time>
      </trkpt>
      <trkpt lat="37.2186920407" lon="-7.46115716981">
        <ele>21.8</ele>
        <time>2011-03-23T17:48:12Z</time>
      </trkpt>
      <trkpt lat="37.2186763666" lon="-7.46107930196">
        <ele>21.8</ele>
        <time>2011-03-23T17:48:15Z</time>
      </trkpt>
      <trkpt lat="37.2186634585" lon="-7.4610194552">
        <ele>21.8</ele>
        <time>2011-03-23T17:48:17Z</time>
      </trkpt>
      <trkpt lat="37.2186517238" lon="-7.46096153627">
        <ele>21.8</ele>
        <time>2011-03-23T17:48:19Z</time>
      </trkpt>
      <trkpt lat="37.2186420846" lon="-7.4609016895">
        <ele>21.8</ele>
        <time>2011-03-23T17:48:21Z</time>
      </trkpt>
      <trkpt lat="37.218636804" lon="-7.46084259711">
        <ele>21.8</ele>
        <time>2011-03-23T17:48:23Z</time>
      </trkpt>
      <trkpt lat="37.2186385642" lon="-7.46081351191">
        <ele>21.8</ele>
        <time>2011-03-23T17:48:24Z</time>
      </trkpt>
      <trkpt lat="37.21863957" lon="-7.46072692689">
        <ele>21.8</ele>
        <time>2011-03-23T17:48:27Z</time>
      </trkpt>
      <trkpt lat="37.2186332836" lon="-7.46067210926">
        <ele>21.8</ele>
        <time>2011-03-23T17:48:29Z</time>
      </trkpt>
      <trkpt lat="37.218629847" lon="-7.46064235352">
        <ele>21.8</ele>
        <time>2011-03-23T17:48:30Z</time>
      </trkpt>
      <trkpt lat="37.2186269134" lon="-7.46055811542">
        <ele>21.8</ele>
        <time>2011-03-23T17:48:33Z</time>
      </trkpt>
      <trkpt lat="37.2186240635" lon="-7.46050145378">
        <ele>21.8</ele>
        <time>2011-03-23T17:48:35Z</time>
      </trkpt>
      <trkpt lat="37.2186139214" lon="-7.46042685487">
        <ele>21.8</ele>
        <time>2011-03-23T17:48:38Z</time>
      </trkpt>
      <trkpt lat="37.2186058748" lon="-7.4603837719">
        <ele>21.8</ele>
        <time>2011-03-23T17:48:40Z</time>
      </trkpt>
      <trkpt lat="37.2185970738" lon="-7.46030674224">
        <ele>21.8</ele>
        <time>2011-03-23T17:48:43Z</time>
      </trkpt>
      <trkpt lat="37.2185910388" lon="-7.46022912585">
        <ele>21.8</ele>
        <time>2011-03-23T17:48:46Z</time>
      </trkpt>
      <trkpt lat="37.2185823217" lon="-7.46015117418">
        <ele>21.8</ele>
        <time>2011-03-23T17:48:49Z</time>
      </trkpt>
      <trkpt lat="37.2185735207" lon="-7.46006894774">
        <ele>21.8</ele>
        <time>2011-03-23T17:48:52Z</time>
      </trkpt>
      <trkpt lat="37.2185684077" lon="-7.46001278901">
        <ele>21.8</ele>
        <time>2011-03-23T17:48:54Z</time>
      </trkpt>
      <trkpt lat="37.2185586009" lon="-7.4599258687">
        <ele>21.8</ele>
        <time>2011-03-23T17:48:57Z</time>
      </trkpt>
      <trkpt lat="37.2185540747" lon="-7.4598671954">
        <ele>21.8</ele>
        <time>2011-03-23T17:48:59Z</time>
      </trkpt>
      <trkpt lat="37.2185443517" lon="-7.45980324151">
        <ele>21.8</ele>
        <time>2011-03-23T17:49:01Z</time>
      </trkpt>
      <trkpt lat="37.2185435973" lon="-7.45973057043">
        <ele>21.8</ele>
        <time>2011-03-23T17:49:04Z</time>
      </trkpt>
      <trkpt lat="37.2185389034" lon="-7.45965052329">
        <ele>21.8</ele>
        <time>2011-03-23T17:49:07Z</time>
      </trkpt>
      <trkpt lat="37.2185339581" lon="-7.45956863213">
        <ele>21.8</ele>
        <time>2011-03-23T17:49:10Z</time>
      </trkpt>
      <trkpt lat="37.2185279231" lon="-7.45948598659">
        <ele>21.8</ele>
        <time>2011-03-23T17:49:13Z</time>
      </trkpt>
      <trkpt lat="37.2185199603" lon="-7.45940434689">
        <ele>21.8</ele>
        <time>2011-03-23T17:49:16Z</time>
      </trkpt>
      <trkpt lat="37.218513171" lon="-7.45934609268">
        <ele>21.8</ele>
        <time>2011-03-23T17:49:18Z</time>
      </trkpt>
      <trkpt lat="37.2185093153" lon="-7.45928389898">
        <ele>21.8</ele>
        <time>2011-03-23T17:49:20Z</time>
      </trkpt>
      <trkpt lat="37.2185019392" lon="-7.45920175636">
        <ele>21.8</ele>
        <time>2011-03-23T17:49:23Z</time>
      </trkpt>
      <trkpt lat="37.2184959043" lon="-7.45914258015">
        <ele>21.8</ele>
        <time>2011-03-23T17:49:25Z</time>
      </trkpt>
      <trkpt lat="37.2184881929" lon="-7.45905876115">
        <ele>21.8</ele>
        <time>2011-03-23T17:49:28Z</time>
      </trkpt>
      <trkpt lat="37.2184796434" lon="-7.45897586416">
        <ele>21.2</ele>
        <time>2011-03-23T17:49:31Z</time>
      </trkpt>
      <trkpt lat="37.218471932" lon="-7.45889564938">
        <ele>20.8</ele>
        <time>2011-03-23T17:49:34Z</time>
      </trkpt>
      <trkpt lat="37.218467322" lon="-7.45881040545">
        <ele>20.6</ele>
        <time>2011-03-23T17:49:37Z</time>
      </trkpt>
      <trkpt lat="37.2184626281" lon="-7.45873345961">
        <ele>20.2</ele>
        <time>2011-03-23T17:49:40Z</time>
      </trkpt>
      <trkpt lat="37.2184574314" lon="-7.45867285847">
        <ele>20.2</ele>
        <time>2011-03-23T17:49:42Z</time>
      </trkpt>
      <trkpt lat="37.2184399132" lon="-7.4585953259">
        <ele>20</ele>
        <time>2011-03-23T17:49:45Z</time>
      </trkpt>
      <trkpt lat="37.2184333753" lon="-7.45851879915">
        <ele>19.4</ele>
        <time>2011-03-23T17:49:48Z</time>
      </trkpt>
      <trkpt lat="37.2184305255" lon="-7.45843422578">
        <ele>19</ele>
        <time>2011-03-23T17:49:51Z</time>
      </trkpt>
      <trkpt lat="37.2184299387" lon="-7.45835384336">
        <ele>18.6</ele>
        <time>2011-03-23T17:49:54Z</time>
      </trkpt>
      <trkpt lat="37.2184254125" lon="-7.45827128164">
        <ele>18.4</ele>
        <time>2011-03-23T17:49:57Z</time>
      </trkpt>
      <trkpt lat="37.2184172821" lon="-7.45818838465">
        <ele>18.2</ele>
        <time>2011-03-23T17:50:00Z</time>
      </trkpt>
      <trkpt lat="37.2184116662" lon="-7.45810967861">
        <ele>18</ele>
        <time>2011-03-23T17:50:03Z</time>
      </trkpt>
      <trkpt lat="37.2184073076" lon="-7.45805955485">
        <ele>18</ele>
        <time>2011-03-23T17:50:05Z</time>
      </trkpt>
      <trkpt lat="37.2184041225" lon="-7.45798294428">
        <ele>17.8</ele>
        <time>2011-03-23T17:50:08Z</time>
      </trkpt>
      <trkpt lat="37.2183964111" lon="-7.45791471562">
        <ele>17.4</ele>
        <time>2011-03-23T17:50:11Z</time>
      </trkpt>
      <trkpt lat="37.2183902923" lon="-7.45784346947">
        <ele>17</ele>
        <time>2011-03-23T17:50:14Z</time>
      </trkpt>
      <trkpt lat="37.2183847603" lon="-7.45778840039">
        <ele>16.6</ele>
        <time>2011-03-23T17:50:16Z</time>
      </trkpt>
      <trkpt lat="37.2183726904" lon="-7.45773182256">
        <ele>16.4</ele>
        <time>2011-03-23T17:50:18Z</time>
      </trkpt>
      <trkpt lat="37.2183574353" lon="-7.45767750785">
        <ele>16.4</ele>
        <time>2011-03-23T17:50:20Z</time>
      </trkpt>
      <trkpt lat="37.2183554236" lon="-7.45765412235">
        <ele>16.2</ele>
        <time>2011-03-23T17:50:21Z</time>
      </trkpt>
      <trkpt lat="37.2183421802" lon="-7.45759989145">
        <ele>16.2</ele>
        <time>2011-03-23T17:50:23Z</time>
      </trkpt>
      <trkpt lat="37.2183255841" lon="-7.45754130197">
        <ele>16</ele>
        <time>2011-03-23T17:50:25Z</time>
      </trkpt>
      <trkpt lat="37.2183063895" lon="-7.45748237722">
        <ele>16</ele>
        <time>2011-03-23T17:50:27Z</time>
      </trkpt>
      <trkpt lat="37.2182849319" lon="-7.45742470974">
        <ele>15.8</ele>
        <time>2011-03-23T17:50:29Z</time>
      </trkpt>
      <trkpt lat="37.2182647315" lon="-7.45737559181">
        <ele>15.8</ele>
        <time>2011-03-23T17:50:31Z</time>
      </trkpt>
      <trkpt lat="37.2182279349" lon="-7.4573097939">
        <ele>15.8</ele>
        <time>2011-03-23T17:50:34Z</time>
      </trkpt>
      <trkpt lat="37.2182021187" lon="-7.45725212642">
        <ele>15.8</ele>
        <time>2011-03-23T17:50:36Z</time>
      </trkpt>
      <trkpt lat="37.2181808287" lon="-7.4572017512">
        <ele>15.8</ele>
        <time>2011-03-23T17:50:38Z</time>
      </trkpt>
      <trkpt lat="37.2181571079" lon="-7.45715179508">
        <ele>15.8</ele>
        <time>2011-03-23T17:50:40Z</time>
      </trkpt>
      <trkpt lat="37.2181341415" lon="-7.45709890529">
        <ele>15.6</ele>
        <time>2011-03-23T17:50:42Z</time>
      </trkpt>
      <trkpt lat="37.2181200599" lon="-7.4570460155">
        <ele>15.6</ele>
        <time>2011-03-23T17:50:44Z</time>
      </trkpt>
      <trkpt lat="37.218094998" lon="-7.45699069496">
        <ele>15.4</ele>
        <time>2011-03-23T17:50:46Z</time>
      </trkpt>
      <trkpt lat="37.2180680083" lon="-7.4569405712">
        <ele>15.2</ele>
        <time>2011-03-23T17:50:48Z</time>
      </trkpt>
      <trkpt lat="37.2180388393" lon="-7.45689614713">
        <ele>14.8</ele>
        <time>2011-03-23T17:50:50Z</time>
      </trkpt>
      <trkpt lat="37.2180149509" lon="-7.45685096869">
        <ele>14.6</ele>
        <time>2011-03-23T17:50:52Z</time>
      </trkpt>
      <trkpt lat="37.2179725384" lon="-7.45678776916">
        <ele>14.4</ele>
        <time>2011-03-23T17:50:55Z</time>
      </trkpt>
      <trkpt lat="37.2179369992" lon="-7.45672800622">
        <ele>14.2</ele>
        <time>2011-03-23T17:50:58Z</time>
      </trkpt>
      <trkpt lat="37.2179047289" lon="-7.45665810117">
        <ele>14</ele>
        <time>2011-03-23T17:51:01Z</time>
      </trkpt>
      <trkpt lat="37.2178720395" lon="-7.45659439873">
        <ele>13.8</ele>
        <time>2011-03-23T17:51:04Z</time>
      </trkpt>
      <trkpt lat="37.2178403559" lon="-7.45652901991">
        <ele>13.8</ele>
        <time>2011-03-23T17:51:07Z</time>
      </trkpt>
      <trkpt lat="37.2178167189" lon="-7.45647981816">
        <ele>13.8</ele>
        <time>2011-03-23T17:51:09Z</time>
      </trkpt>
      <trkpt lat="37.2177926629" lon="-7.45642533581">
        <ele>13.8</ele>
        <time>2011-03-23T17:51:11Z</time>
      </trkpt>
      <trkpt lat="37.2177729654" lon="-7.4563710211">
        <ele>13.8</ele>
        <time>2011-03-23T17:51:13Z</time>
      </trkpt>
      <trkpt lat="37.2177559501" lon="-7.45631729312">
        <ele>13.6</ele>
        <time>2011-03-23T17:51:15Z</time>
      </trkpt>
      <trkpt lat="37.21772544" lon="-7.45624051491">
        <ele>13.6</ele>
        <time>2011-03-23T17:51:18Z</time>
      </trkpt>
      <trkpt lat="37.2177068322" lon="-7.45618385327">
        <ele>13.6</ele>
        <time>2011-03-23T17:51:20Z</time>
      </trkpt>
      <trkpt lat="37.2176918286" lon="-7.45611168511">
        <ele>13.6</ele>
        <time>2011-03-23T17:51:23Z</time>
      </trkpt>
      <trkpt lat="37.2176797587" lon="-7.45603339816">
        <ele>13.6</ele>
        <time>2011-03-23T17:51:26Z</time>
      </trkpt>
      <trkpt lat="37.2176695328" lon="-7.45595469212">
        <ele>13.6</ele>
        <time>2011-03-23T17:51:29Z</time>
      </trkpt>
      <trkpt lat="37.2176613185" lon="-7.45589761138">
        <ele>13.6</ele>
        <time>2011-03-23T17:51:31Z</time>
      </trkpt>
      <trkpt lat="37.2176548644" lon="-7.45581680987">
        <ele>13.6</ele>
        <time>2011-03-23T17:51:34Z</time>
      </trkpt>
      <trkpt lat="37.2176530204" lon="-7.45573064394">
        <ele>13.6</ele>
        <time>2011-03-23T17:51:37Z</time>
      </trkpt>
      <trkpt lat="37.2176570437" lon="-7.45565185408">
        <ele>13.6</ele>
        <time>2011-03-23T17:51:40Z</time>
      </trkpt>
      <trkpt lat="37.2176647551" lon="-7.45559326459">
        <ele>13.6</ele>
        <time>2011-03-23T17:51:42Z</time>
      </trkpt>
      <trkpt lat="37.2176685269" lon="-7.45554163209">
        <ele>13.6</ele>
        <time>2011-03-23T17:51:44Z</time>
      </trkpt>
      <trkpt lat="37.2176804292" lon="-7.4554622555">
        <ele>13.6</ele>
        <time>2011-03-23T17:51:47Z</time>
      </trkpt>
      <trkpt lat="37.2176842011" lon="-7.45538212453">
        <ele>13.6</ele>
        <time>2011-03-23T17:51:50Z</time>
      </trkpt>
      <trkpt lat="37.2176893979" lon="-7.45530325085">
        <ele>13.6</ele>
        <time>2011-03-23T17:51:53Z</time>
      </trkpt>
      <trkpt lat="37.2177007134" lon="-7.45522152733">
        <ele>13.6</ele>
        <time>2011-03-23T17:51:56Z</time>
      </trkpt>
      <trkpt lat="37.2177040662" lon="-7.45514307275">
        <ele>13.6</ele>
        <time>2011-03-23T17:51:59Z</time>
      </trkpt>
      <trkpt lat="37.2177012163" lon="-7.45506587545">
        <ele>13.6</ele>
        <time>2011-03-23T17:52:02Z</time>
      </trkpt>
      <trkpt lat="37.2176999591" lon="-7.45501499731">
        <ele>13.6</ele>
        <time>2011-03-23T17:52:04Z</time>
      </trkpt>
      <trkpt lat="37.2177044015" lon="-7.45495246834">
        <ele>13.6</ele>
        <time>2011-03-23T17:52:06Z</time>
      </trkpt>
      <trkpt lat="37.2177079219" lon="-7.45489471705">
        <ele>13.6</ele>
        <time>2011-03-23T17:52:08Z</time>
      </trkpt>
      <trkpt lat="37.2177124481" lon="-7.45484140816">
        <ele>13.6</ele>
        <time>2011-03-23T17:52:10Z</time>
      </trkpt>
      <trkpt lat="37.217717561" lon="-7.45478357305">
        <ele>13.6</ele>
        <time>2011-03-23T17:52:12Z</time>
      </trkpt>
      <trkpt lat="37.217722674" lon="-7.45473093472">
        <ele>13.6</ele>
        <time>2011-03-23T17:52:14Z</time>
      </trkpt>
      <trkpt lat="37.2177250209" lon="-7.45467511127">
        <ele>13.4</ele>
        <time>2011-03-23T17:52:16Z</time>
      </trkpt>
      <trkpt lat="37.2177293795" lon="-7.45461962309">
        <ele>13</ele>
        <time>2011-03-23T17:52:18Z</time>
      </trkpt>
      <trkpt lat="37.2177340734" lon="-7.45456262617">
        <ele>12.8</ele>
        <time>2011-03-23T17:52:20Z</time>
      </trkpt>
      <trkpt lat="37.2177397731" lon="-7.45450780854">
        <ele>12.6</ele>
        <time>2011-03-23T17:52:22Z</time>
      </trkpt>
      <trkpt lat="37.2177404436" lon="-7.45445064399">
        <ele>12.4</ele>
        <time>2011-03-23T17:52:24Z</time>
      </trkpt>
      <trkpt lat="37.217743964" lon="-7.45439347943">
        <ele>12.2</ele>
        <time>2011-03-23T17:52:26Z</time>
      </trkpt>
      <trkpt lat="37.21774212" lon="-7.45433966763">
        <ele>12</ele>
        <time>2011-03-23T17:52:28Z</time>
      </trkpt>
      <trkpt lat="37.2177468139" lon="-7.45428241925">
        <ele>12</ele>
        <time>2011-03-23T17:52:30Z</time>
      </trkpt>
      <trkpt lat="37.2177506696" lon="-7.45422290776">
        <ele>11.8</ele>
        <time>2011-03-23T17:52:32Z</time>
      </trkpt>
      <trkpt lat="37.2177520107" lon="-7.45416700049">
        <ele>11.8</ele>
        <time>2011-03-23T17:52:34Z</time>
      </trkpt>
      <trkpt lat="37.2177503343" lon="-7.45407773326">
        <ele>11.8</ele>
        <time>2011-03-23T17:52:37Z</time>
      </trkpt>
      <trkpt lat="37.2177523459" lon="-7.45402241272">
        <ele>11.8</ele>
        <time>2011-03-23T17:52:39Z</time>
      </trkpt>
      <trkpt lat="37.2177531841" lon="-7.45396139248">
        <ele>11.6</ele>
        <time>2011-03-23T17:52:41Z</time>
      </trkpt>
      <trkpt lat="37.2177539385" lon="-7.453902803">
        <ele>11.6</ele>
        <time>2011-03-23T17:52:43Z</time>
      </trkpt>
      <trkpt lat="37.2177586324" lon="-7.45384865593">
        <ele>11.6</ele>
        <time>2011-03-23T17:52:45Z</time>
      </trkpt>
      <trkpt lat="37.2177556149" lon="-7.45376466929">
        <ele>11.6</ele>
        <time>2011-03-23T17:52:48Z</time>
      </trkpt>
      <trkpt lat="37.2177550281" lon="-7.45367766517">
        <ele>11.2</ele>
        <time>2011-03-23T17:52:51Z</time>
      </trkpt>
      <trkpt lat="37.217761566" lon="-7.45361848895">
        <ele>10.8</ele>
        <time>2011-03-23T17:52:53Z</time>
      </trkpt>
      <trkpt lat="37.2177660084" lon="-7.45356023475">
        <ele>10.6</ele>
        <time>2011-03-23T17:52:55Z</time>
      </trkpt>
      <trkpt lat="37.2177686068" lon="-7.45350164527">
        <ele>10.4</ele>
        <time>2011-03-23T17:52:57Z</time>
      </trkpt>
      <trkpt lat="37.2177673495" lon="-7.45344288815">
        <ele>10.2</ele>
        <time>2011-03-23T17:52:59Z</time>
      </trkpt>
      <trkpt lat="37.2177704508" lon="-7.45338337666">
        <ele>10.2</ele>
        <time>2011-03-23T17:53:01Z</time>
      </trkpt>
      <trkpt lat="37.2177772402" lon="-7.45330307806">
        <ele>10</ele>
        <time>2011-03-23T17:53:04Z</time>
      </trkpt>
      <trkpt lat="37.2177851192" lon="-7.45321490047">
        <ele>9.8</ele>
        <time>2011-03-23T17:53:07Z</time>
      </trkpt>
      <trkpt lat="37.2177882205" lon="-7.45313124911">
        <ele>9.8</ele>
        <time>2011-03-23T17:53:10Z</time>
      </trkpt>
      <trkpt lat="37.2177906512" lon="-7.45306972596">
        <ele>9.6</ele>
        <time>2011-03-23T17:53:12Z</time>
      </trkpt>
      <trkpt lat="37.2177925791" lon="-7.45298548787">
        <ele>9.6</ele>
        <time>2011-03-23T17:53:15Z</time>
      </trkpt>
      <trkpt lat="37.2177997037" lon="-7.45290736856">
        <ele>9.6</ele>
        <time>2011-03-23T17:53:18Z</time>
      </trkpt>
      <trkpt lat="37.217805571" lon="-7.45285238329">
        <ele>9.6</ele>
        <time>2011-03-23T17:53:20Z</time>
      </trkpt>
      <trkpt lat="37.2178115221" lon="-7.45279723039">
        <ele>9.6</ele>
        <time>2011-03-23T17:53:22Z</time>
      </trkpt>
      <trkpt lat="37.2178203231" lon="-7.45271148356">
        <ele>9.6</ele>
        <time>2011-03-23T17:53:25Z</time>
      </trkpt>
      <trkpt lat="37.2178230053" lon="-7.452654319">
        <ele>9.6</ele>
        <time>2011-03-23T17:53:27Z</time>
      </trkpt>
      <trkpt lat="37.2178194011" lon="-7.45259497515">
        <ele>9.6</ele>
        <time>2011-03-23T17:53:29Z</time>
      </trkpt>
      <trkpt lat="37.2178161322" lon="-7.45253437401">
        <ele>9.6</ele>
        <time>2011-03-23T17:53:31Z</time>
      </trkpt>
      <trkpt lat="37.2178174733" lon="-7.4524509741">
        <ele>9.6</ele>
        <time>2011-03-23T17:53:34Z</time>
      </trkpt>
      <trkpt lat="37.2178230053" lon="-7.45236606546">
        <ele>9.6</ele>
        <time>2011-03-23T17:53:37Z</time>
      </trkpt>
      <trkpt lat="37.2178235921" lon="-7.45231225366">
        <ele>9.6</ele>
        <time>2011-03-23T17:53:39Z</time>
      </trkpt>
      <trkpt lat="37.2178278669" lon="-7.4522286023">
        <ele>9</ele>
        <time>2011-03-23T17:53:42Z</time>
      </trkpt>
      <trkpt lat="37.2178364164" lon="-7.45217504196">
        <ele>8.6</ele>
        <time>2011-03-23T17:53:44Z</time>
      </trkpt>
      <trkpt lat="37.2178355782" lon="-7.45211645247">
        <ele>8.4</ele>
        <time>2011-03-23T17:53:46Z</time>
      </trkpt>
      <trkpt lat="37.2178417808" lon="-7.45203690824">
        <ele>8.2</ele>
        <time>2011-03-23T17:53:49Z</time>
      </trkpt>
      <trkpt lat="37.2178433734" lon="-7.45195619055">
        <ele>8</ele>
        <time>2011-03-23T17:53:52Z</time>
      </trkpt>
      <trkpt lat="37.2178447145" lon="-7.45187103044">
        <ele>8</ele>
        <time>2011-03-23T17:53:55Z</time>
      </trkpt>
      <trkpt lat="37.2178465585" lon="-7.45178813345">
        <ele>7.8</ele>
        <time>2011-03-23T17:53:58Z</time>
      </trkpt>
      <trkpt lat="37.2178465585" lon="-7.45173004688">
        <ele>7.8</ele>
        <time>2011-03-23T17:54:00Z</time>
      </trkpt>
      <trkpt lat="37.217841697" lon="-7.45167221177">
        <ele>7.6</ele>
        <time>2011-03-23T17:54:02Z</time>
      </trkpt>
      <trkpt lat="37.2178423675" lon="-7.45158646494">
        <ele>7.6</ele>
        <time>2011-03-23T17:54:05Z</time>
      </trkpt>
      <trkpt lat="37.2178465585" lon="-7.45150482523">
        <ele>7.6</ele>
        <time>2011-03-23T17:54:08Z</time>
      </trkpt>
      <trkpt lat="37.2178545213" lon="-7.451425281">
        <ele>7.6</ele>
        <time>2011-03-23T17:54:11Z</time>
      </trkpt>
      <trkpt lat="37.2178581255" lon="-7.45134716169">
        <ele>7.6</ele>
        <time>2011-03-23T17:54:14Z</time>
      </trkpt>
      <trkpt lat="37.2178598019" lon="-7.45126183395">
        <ele>7.6</ele>
        <time>2011-03-23T17:54:17Z</time>
      </trkpt>
      <trkpt lat="37.2178673456" lon="-7.45117885314">
        <ele>7.6</ele>
        <time>2011-03-23T17:54:20Z</time>
      </trkpt>
      <trkpt lat="37.2178709498" lon="-7.45112286205">
        <ele>7.6</ele>
        <time>2011-03-23T17:54:22Z</time>
      </trkpt>
      <trkpt lat="37.2178734644" lon="-7.45103820486">
        <ele>7.6</ele>
        <time>2011-03-23T17:54:25Z</time>
      </trkpt>
      <trkpt lat="37.2178748893" lon="-7.4509810403">
        <ele>7.6</ele>
        <time>2011-03-23T17:54:27Z</time>
      </trkpt>
      <trkpt lat="37.2178750569" lon="-7.45089252744">
        <ele>7.6</ele>
        <time>2011-03-23T17:54:30Z</time>
      </trkpt>
      <trkpt lat="37.217881511" lon="-7.45083402177">
        <ele>7.4</ele>
        <time>2011-03-23T17:54:32Z</time>
      </trkpt>
      <trkpt lat="37.2178856181" lon="-7.4507798747">
        <ele>7.4</ele>
        <time>2011-03-23T17:54:34Z</time>
      </trkpt>
      <trkpt lat="37.2178933295" lon="-7.45071407679">
        <ele>7.4</ele>
        <time>2011-03-23T17:54:36Z</time>
      </trkpt>
      <trkpt lat="37.2178970175" lon="-7.45065381092">
        <ele>7.4</ele>
        <time>2011-03-23T17:54:38Z</time>
      </trkpt>
      <trkpt lat="37.2178984424" lon="-7.45059647873">
        <ele>7.4</ele>
        <time>2011-03-23T17:54:40Z</time>
      </trkpt>
      <trkpt lat="37.217897269" lon="-7.45047879685">
        <ele>7.4</ele>
        <time>2011-03-23T17:54:44Z</time>
      </trkpt>
      <trkpt lat="37.2178965146" lon="-7.45039070308">
        <ele>7.4</ele>
        <time>2011-03-23T17:54:47Z</time>
      </trkpt>
      <trkpt lat="37.2178872107" lon="-7.45033731038">
        <ele>7.4</ele>
        <time>2011-03-23T17:54:49Z</time>
      </trkpt>
      <trkpt lat="37.2178939162" lon="-7.45025466485">
        <ele>7.4</ele>
        <time>2011-03-23T17:54:52Z</time>
      </trkpt>
      <trkpt lat="37.2178995321" lon="-7.4502028647">
        <ele>7.4</ele>
        <time>2011-03-23T17:54:54Z</time>
      </trkpt>
      <trkpt lat="37.217905148" lon="-7.45011695023">
        <ele>7.4</ele>
        <time>2011-03-23T17:54:57Z</time>
      </trkpt>
      <trkpt lat="37.2179094227" lon="-7.45006288697">
        <ele>7.4</ele>
        <time>2011-03-23T17:54:59Z</time>
      </trkpt>
      <trkpt lat="37.2179118535" lon="-7.45000278875">
        <ele>7.4</ele>
        <time>2011-03-23T17:55:01Z</time>
      </trkpt>
      <trkpt lat="37.2179171341" lon="-7.44994771967">
        <ele>7.4</ele>
        <time>2011-03-23T17:55:03Z</time>
      </trkpt>
      <trkpt lat="37.2179200678" lon="-7.44986825926">
        <ele>7.4</ele>
        <time>2011-03-23T17:55:06Z</time>
      </trkpt>
      <trkpt lat="37.2179262704" lon="-7.44978955322">
        <ele>7.4</ele>
        <time>2011-03-23T17:55:09Z</time>
      </trkpt>
      <trkpt lat="37.2179377536" lon="-7.44972945499">
        <ele>7.4</ele>
        <time>2011-03-23T17:55:11Z</time>
      </trkpt>
      <trkpt lat="37.2179490691" lon="-7.4496447978">
        <ele>7.4</ele>
        <time>2011-03-23T17:55:14Z</time>
      </trkpt>
      <trkpt lat="37.2179503264" lon="-7.44958545395">
        <ele>7.4</ele>
        <time>2011-03-23T17:55:16Z</time>
      </trkpt>
      <trkpt lat="37.2179461355" lon="-7.44950565826">
        <ele>7.4</ele>
        <time>2011-03-23T17:55:19Z</time>
      </trkpt>
      <trkpt lat="37.2179465546" lon="-7.44942452147">
        <ele>7.2</ele>
        <time>2011-03-23T17:55:22Z</time>
      </trkpt>
      <trkpt lat="37.2179494882" lon="-7.4493346675">
        <ele>6.6</ele>
        <time>2011-03-23T17:55:25Z</time>
      </trkpt>
      <trkpt lat="37.2179470575" lon="-7.44925118378">
        <ele>6.4</ele>
        <time>2011-03-23T17:55:28Z</time>
      </trkpt>
      <trkpt lat="37.2179435371" lon="-7.44922226622">
        <ele>6.2</ele>
        <time>2011-03-23T17:55:29Z</time>
      </trkpt>
      <trkpt lat="37.2179533439" lon="-7.44913777667">
        <ele>6</ele>
        <time>2011-03-23T17:55:32Z</time>
      </trkpt>
      <trkpt lat="37.2179547688" lon="-7.44908312668">
        <ele>6</ele>
        <time>2011-03-23T17:55:34Z</time>
      </trkpt>
      <trkpt lat="37.2179561937" lon="-7.44905840008">
        <ele>5.8</ele>
        <time>2011-03-23T17:55:35Z</time>
      </trkpt>
      <trkpt lat="37.2179557746" lon="-7.44897349143">
        <ele>5.8</ele>
        <time>2011-03-23T17:55:38Z</time>
      </trkpt>
      <trkpt lat="37.217957451" lon="-7.44889503685">
        <ele>5.8</ele>
        <time>2011-03-23T17:55:41Z</time>
      </trkpt>
      <trkpt lat="37.2179613067" lon="-7.44881482206">
        <ele>5.6</ele>
        <time>2011-03-23T17:55:44Z</time>
      </trkpt>
      <trkpt lat="37.2179611391" lon="-7.44873125452">
        <ele>5.6</ele>
        <time>2011-03-23T17:55:47Z</time>
      </trkpt>
      <trkpt lat="37.2179563614" lon="-7.44864986627">
        <ele>5.6</ele>
        <time>2011-03-23T17:55:50Z</time>
      </trkpt>
      <trkpt lat="37.2179491529" lon="-7.44859437809">
        <ele>5.6</ele>
        <time>2011-03-23T17:55:52Z</time>
      </trkpt>
      <trkpt lat="37.2179409387" lon="-7.44851173256">
        <ele>5.6</ele>
        <time>2011-03-23T17:55:55Z</time>
      </trkpt>
      <trkpt lat="37.2179344008" lon="-7.44842992522">
        <ele>5.6</ele>
        <time>2011-03-23T17:55:58Z</time>
      </trkpt>
      <trkpt lat="37.2179269409" lon="-7.44836622278">
        <ele>5.6</ele>
        <time>2011-03-23T17:56:00Z</time>
      </trkpt>
      <trkpt lat="37.2179162959" lon="-7.44828827111">
        <ele>5.6</ele>
        <time>2011-03-23T17:56:03Z</time>
      </trkpt>
      <trkpt lat="37.2179032201" lon="-7.44821417511">
        <ele>5.4</ele>
        <time>2011-03-23T17:56:06Z</time>
      </trkpt>
      <trkpt lat="37.217885702" lon="-7.44813882183">
        <ele>5.4</ele>
        <time>2011-03-23T17:56:09Z</time>
      </trkpt>
      <trkpt lat="37.2178714527" lon="-7.44806480965">
        <ele>5.4</ele>
        <time>2011-03-23T17:56:12Z</time>
      </trkpt>
      <trkpt lat="37.2178668427" lon="-7.44798878582">
        <ele>5.4</ele>
        <time>2011-03-23T17:56:15Z</time>
      </trkpt>
      <trkpt lat="37.2178557786" lon="-7.4479286876">
        <ele>5.4</ele>
        <time>2011-03-23T17:56:17Z</time>
      </trkpt>
      <trkpt lat="37.2178452174" lon="-7.44787202595">
        <ele>5.4</ele>
        <time>2011-03-23T17:56:19Z</time>
      </trkpt>
      <trkpt lat="37.217833818" lon="-7.44778854223">
        <ele>5.4</ele>
        <time>2011-03-23T17:56:22Z</time>
      </trkpt>
      <trkpt lat="37.2178214128" lon="-7.44770162193">
        <ele>5.4</ele>
        <time>2011-03-23T17:56:25Z</time>
      </trkpt>
      <trkpt lat="37.2178082532" lon="-7.4476401826">
        <ele>5.4</ele>
        <time>2011-03-23T17:56:27Z</time>
      </trkpt>
      <trkpt lat="37.2177997037" lon="-7.44757933">
        <ele>5.8</ele>
        <time>2011-03-23T17:56:29Z</time>
      </trkpt>
      <trkpt lat="37.2177883881" lon="-7.44749215824">
        <ele>6.4</ele>
        <time>2011-03-23T17:56:32Z</time>
      </trkpt>
      <trkpt lat="37.2177670143" lon="-7.44741353602">
        <ele>6.6</ele>
        <time>2011-03-23T17:56:35Z</time>
      </trkpt>
      <trkpt lat="37.2177515916" lon="-7.44732879501">
        <ele>6.8</ele>
        <time>2011-03-23T17:56:38Z</time>
      </trkpt>
      <trkpt lat="37.2177423715" lon="-7.44724422164">
        <ele>7</ele>
        <time>2011-03-23T17:56:41Z</time>
      </trkpt>
      <trkpt lat="37.2177335705" lon="-7.44718429106">
        <ele>7.2</ele>
        <time>2011-03-23T17:56:43Z</time>
      </trkpt>
      <trkpt lat="37.2177188183" lon="-7.44707608073">
        <ele>7.2</ele>
        <time>2011-03-23T17:56:47Z</time>
      </trkpt>
      <trkpt lat="37.2177064969" lon="-7.44702897445">
        <ele>7.4</ele>
        <time>2011-03-23T17:56:49Z</time>
      </trkpt>
      <trkpt lat="37.2176917448" lon="-7.44697256426">
        <ele>7.4</ele>
        <time>2011-03-23T17:56:52Z</time>
      </trkpt>
      <trkpt lat="37.2176820218" lon="-7.44691682463">
        <ele>7.6</ele>
        <time>2011-03-23T17:56:54Z</time>
      </trkpt>
      <trkpt lat="37.2176701195" lon="-7.44684599757">
        <ele>8.2</ele>
        <time>2011-03-23T17:56:57Z</time>
      </trkpt>
      <trkpt lat="37.217663414" lon="-7.446759664">
        <ele>8.6</ele>
        <time>2011-03-23T17:57:00Z</time>
      </trkpt>
      <trkpt lat="37.2176512602" lon="-7.44667165405">
        <ele>8.8</ele>
        <time>2011-03-23T17:57:03Z</time>
      </trkpt>
      <trkpt lat="37.2176412019" lon="-7.44660786779">
        <ele>9</ele>
        <time>2011-03-23T17:57:05Z</time>
      </trkpt>
      <trkpt lat="37.2176297187" lon="-7.44652647955">
        <ele>9.2</ele>
        <time>2011-03-23T17:57:08Z</time>
      </trkpt>
      <trkpt lat="37.21761153" lon="-7.4464446722">
        <ele>9.2</ele>
        <time>2011-03-23T17:57:11Z</time>
      </trkpt>
      <trkpt lat="37.2175915811" lon="-7.44636470888">
        <ele>9.4</ele>
        <time>2011-03-23T17:57:14Z</time>
      </trkpt>
      <trkpt lat="37.2175801817" lon="-7.44630905306">
        <ele>9.4</ele>
        <time>2011-03-23T17:57:16Z</time>
      </trkpt>
      <trkpt lat="37.2175658487" lon="-7.44622925737">
        <ele>9.4</ele>
        <time>2011-03-23T17:57:19Z</time>
      </trkpt>
      <trkpt lat="37.2175536949" lon="-7.44615155716">
        <ele>9.4</ele>
        <time>2011-03-23T17:57:22Z</time>
      </trkpt>
      <trkpt lat="37.2175355062" lon="-7.44606673233">
        <ele>9.6</ele>
        <time>2011-03-23T17:57:25Z</time>
      </trkpt>
      <trkpt lat="37.2175260346" lon="-7.44600780757">
        <ele>9.6</ele>
        <time>2011-03-23T17:57:27Z</time>
      </trkpt>
      <trkpt lat="37.2175247773" lon="-7.44598668519">
        <ele>9.6</ele>
        <time>2011-03-23T17:57:28Z</time>
      </trkpt>
      <trkpt lat="37.217530477" lon="-7.44596095275">
        <ele>9.6</ele>
        <time>2011-03-23T17:57:30Z</time>
      </trkpt>
      <trkpt lat="37.217368874" lon="-7.44482218782">
        <ele>14.8</ele>
        <time>2011-03-23T18:19:06Z</time>
      </trkpt>
      <trkpt lat="37.2173680358" lon="-7.44476628055">
        <ele>14.8</ele>
        <time>2011-03-23T18:19:09Z</time>
      </trkpt>
      <trkpt lat="37.2173698798" lon="-7.44470727197">
        <ele>14.8</ele>
        <time>2011-03-23T18:19:12Z</time>
      </trkpt>
      <trkpt lat="37.2173658565" lon="-7.44465186761">
        <ele>14.8</ele>
        <time>2011-03-23T18:19:15Z</time>
      </trkpt>
      <trkpt lat="37.2173712209" lon="-7.4446346009">
        <ele>14.8</ele>
        <time>2011-03-23T18:19:16Z</time>
      </trkpt>
      <trkpt lat="37.2173768368" lon="-7.4445772687">
        <ele>14.8</ele>
        <time>2011-03-23T18:19:19Z</time>
      </trkpt>
      <trkpt lat="37.2173768368" lon="-7.44455715214">
        <ele>14.8</ele>
        <time>2011-03-23T18:19:20Z</time>
      </trkpt>
      <trkpt lat="37.2173821174" lon="-7.44447467424">
        <ele>14.8</ele>
        <time>2011-03-23T18:19:24Z</time>
      </trkpt>
      <trkpt lat="37.2173889067" lon="-7.44441415693">
        <ele>14.8</ele>
        <time>2011-03-23T18:19:27Z</time>
      </trkpt>
      <trkpt lat="37.2173918404" lon="-7.4443509574">
        <ele>14.8</ele>
        <time>2011-03-23T18:19:30Z</time>
      </trkpt>
      <trkpt lat="37.2173995518" lon="-7.44429739706">
        <ele>14.8</ele>
        <time>2011-03-23T18:19:33Z</time>
      </trkpt>
      <trkpt lat="37.2173997194" lon="-7.44424324998">
        <ele>14.8</ele>
        <time>2011-03-23T18:19:36Z</time>
      </trkpt>
      <trkpt lat="37.2174012281" lon="-7.44419245567">
        <ele>14.8</ele>
        <time>2011-03-23T18:19:39Z</time>
      </trkpt>
      <trkpt lat="37.2174004738" lon="-7.44414300246">
        <ele>14.8</ele>
        <time>2011-03-23T18:19:42Z</time>
      </trkpt>
      <trkpt lat="37.2173935168" lon="-7.44409002885">
        <ele>14.8</ele>
        <time>2011-03-23T18:19:45Z</time>
      </trkpt>
      <trkpt lat="37.2173899126" lon="-7.44404342549">
        <ele>15</ele>
        <time>2011-03-23T18:19:48Z</time>
      </trkpt>
      <trkpt lat="37.2173868951" lon="-7.44400738332">
        <ele>15.4</ele>
        <time>2011-03-23T18:19:50Z</time>
      </trkpt>
      <trkpt lat="37.2173917566" lon="-7.44394259123">
        <ele>15.8</ele>
        <time>2011-03-23T18:19:54Z</time>
      </trkpt>
      <trkpt lat="37.2173920081" lon="-7.44389590405">
        <ele>16.2</ele>
        <time>2011-03-23T18:19:57Z</time>
      </trkpt>
      <trkpt lat="37.2173937682" lon="-7.44385634148">
        <ele>16.2</ele>
        <time>2011-03-23T18:19:59Z</time>
      </trkpt>
      <trkpt lat="37.2173938521" lon="-7.4437876099">
        <ele>16.4</ele>
        <time>2011-03-23T18:20:03Z</time>
      </trkpt>
      <trkpt lat="37.2173957799" lon="-7.44372684113">
        <ele>16.6</ele>
        <time>2011-03-23T18:20:06Z</time>
      </trkpt>
      <trkpt lat="37.2173993841" lon="-7.44366414451">
        <ele>16.6</ele>
        <time>2011-03-23T18:20:09Z</time>
      </trkpt>
      <trkpt lat="37.2174029883" lon="-7.44360421393">
        <ele>16.6</ele>
        <time>2011-03-23T18:20:12Z</time>
      </trkpt>
      <trkpt lat="37.2174050838" lon="-7.44354889339">
        <ele>16.8</ele>
        <time>2011-03-23T18:20:15Z</time>
      </trkpt>
      <trkpt lat="37.2173998032" lon="-7.4435158687">
        <ele>16.8</ele>
        <time>2011-03-23T18:20:17Z</time>
      </trkpt>
      <trkpt lat="37.2174036589" lon="-7.44344981933">
        <ele>16.8</ele>
        <time>2011-03-23T18:20:21Z</time>
      </trkpt>
      <trkpt lat="37.2174018149" lon="-7.44339106221">
        <ele>16.8</ele>
        <time>2011-03-23T18:20:24Z</time>
      </trkpt>
      <trkpt lat="37.2173996356" lon="-7.44336993982">
        <ele>16.8</ele>
        <time>2011-03-23T18:20:25Z</time>
      </trkpt>
      <trkpt lat="37.2173994679" lon="-7.4433186426">
        <ele>16.8</ele>
        <time>2011-03-23T18:20:28Z</time>
      </trkpt>
      <trkpt lat="37.2173903317" lon="-7.44326600426">
        <ele>16.8</ele>
        <time>2011-03-23T18:20:31Z</time>
      </trkpt>
      <trkpt lat="37.2173879009" lon="-7.44321319829">
        <ele>16.8</ele>
        <time>2011-03-23T18:20:34Z</time>
      </trkpt>
      <trkpt lat="37.2173909184" lon="-7.44315687193">
        <ele>16.8</ele>
        <time>2011-03-23T18:20:37Z</time>
      </trkpt>
      <trkpt lat="37.2173852187" lon="-7.44309937209">
        <ele>16.8</ele>
        <time>2011-03-23T18:20:40Z</time>
      </trkpt>
      <trkpt lat="37.2173853025" lon="-7.44304061497">
        <ele>16.8</ele>
        <time>2011-03-23T18:20:43Z</time>
      </trkpt>
      <trkpt lat="37.217389242" lon="-7.44302410263">
        <ele>16.8</ele>
        <time>2011-03-23T18:20:44Z</time>
      </trkpt>
      <trkpt lat="37.2173876495" lon="-7.44295436522">
        <ele>16.8</ele>
        <time>2011-03-23T18:20:48Z</time>
      </trkpt>
      <trkpt lat="37.2173916728" lon="-7.44292318455">
        <ele>16.8</ele>
        <time>2011-03-23T18:20:50Z</time>
      </trkpt>
      <trkpt lat="37.2173706342" lon="-7.44286509799">
        <ele>16.8</ele>
        <time>2011-03-23T18:20:54Z</time>
      </trkpt>
      <trkpt lat="37.2173686225" lon="-7.44284682545">
        <ele>16.8</ele>
        <time>2011-03-23T18:20:55Z</time>
      </trkpt>
      <trkpt lat="37.217362839" lon="-7.4428174888">
        <ele>16.8</ele>
        <time>2011-03-23T18:20:57Z</time>
      </trkpt>
      <trkpt lat="37.2173615818" lon="-7.44278622431">
        <ele>16.8</ele>
        <time>2011-03-23T18:20:59Z</time>
      </trkpt>
      <trkpt lat="37.2173649345" lon="-7.44269762763">
        <ele>16.8</ele>
        <time>2011-03-23T18:21:04Z</time>
      </trkpt>
      <trkpt lat="37.217366108" lon="-7.44264004397">
        <ele>16.8</ele>
        <time>2011-03-23T18:21:07Z</time>
      </trkpt>
      <trkpt lat="37.217365186" lon="-7.44261992741">
        <ele>16.8</ele>
        <time>2011-03-23T18:21:08Z</time>
      </trkpt>
      <trkpt lat="37.2173702989" lon="-7.44254801071">
        <ele>16.8</ele>
        <time>2011-03-23T18:21:12Z</time>
      </trkpt>
      <trkpt lat="37.2173612465" lon="-7.44249998242">
        <ele>16.8</ele>
        <time>2011-03-23T18:21:15Z</time>
      </trkpt>
      <trkpt lat="37.2173603245" lon="-7.44248430827">
        <ele>16.8</ele>
        <time>2011-03-23T18:21:16Z</time>
      </trkpt>
      <trkpt lat="37.217358229" lon="-7.44242328804">
        <ele>16.8</ele>
        <time>2011-03-23T18:21:20Z</time>
      </trkpt>
      <trkpt lat="37.2173552953" lon="-7.4424112181">
        <ele>16.8</ele>
        <time>2011-03-23T18:21:21Z</time>
      </trkpt>
      <trkpt lat="37.2173483384" lon="-7.44234391145">
        <ele>16.8</ele>
        <time>2011-03-23T18:21:25Z</time>
      </trkpt>
      <trkpt lat="37.2173459914" lon="-7.44228976437">
        <ele>16.8</ele>
        <time>2011-03-23T18:21:28Z</time>
      </trkpt>
      <trkpt lat="37.2173606597" lon="-7.44222924705">
        <ele>16.8</ele>
        <time>2011-03-23T18:21:31Z</time>
      </trkpt>
      <trkpt lat="37.2173692093" lon="-7.44220569391">
        <ele>16.8</ele>
        <time>2011-03-23T18:21:32Z</time>
      </trkpt>
      <trkpt lat="37.2173665271" lon="-7.44212221019">
        <ele>16.8</ele>
        <time>2011-03-23T18:21:36Z</time>
      </trkpt>
      <trkpt lat="37.217357307" lon="-7.44206286634">
        <ele>16.8</ele>
        <time>2011-03-23T18:21:39Z</time>
      </trkpt>
      <trkpt lat="37.2173548762" lon="-7.44204618636">
        <ele>16.8</ele>
        <time>2011-03-23T18:21:40Z</time>
      </trkpt>
      <trkpt lat="37.2173481707" lon="-7.44198784833">
        <ele>16.8</ele>
        <time>2011-03-23T18:21:43Z</time>
      </trkpt>
      <trkpt lat="37.2173469134" lon="-7.4419285883">
        <ele>16.8</ele>
        <time>2011-03-23T18:21:46Z</time>
      </trkpt>
      <trkpt lat="37.2173505176" lon="-7.44187821308">
        <ele>16.8</ele>
        <time>2011-03-23T18:21:49Z</time>
      </trkpt>
      <trkpt lat="37.2173607436" lon="-7.44182850841">
        <ele>16.8</ele>
        <time>2011-03-23T18:21:52Z</time>
      </trkpt>
      <trkpt lat="37.2173635934" lon="-7.44181140934">
        <ele>16.8</ele>
        <time>2011-03-23T18:21:53Z</time>
      </trkpt>
      <trkpt lat="37.2173658565" lon="-7.44175843573">
        <ele>16.8</ele>
        <time>2011-03-23T18:21:56Z</time>
      </trkpt>
      <trkpt lat="37.2173666947" lon="-7.44170831197">
        <ele>16.8</ele>
        <time>2011-03-23T18:21:59Z</time>
      </trkpt>
      <trkpt lat="37.2173724782" lon="-7.44164653737">
        <ele>17.2</ele>
        <time>2011-03-23T18:22:02Z</time>
      </trkpt>
      <trkpt lat="37.2173802734" lon="-7.44158778025">
        <ele>17.6</ele>
        <time>2011-03-23T18:22:05Z</time>
      </trkpt>
      <trkpt lat="37.2173906669" lon="-7.44153086715">
        <ele>18</ele>
        <time>2011-03-23T18:22:08Z</time>
      </trkpt>
      <trkpt lat="37.2174001385" lon="-7.44147563042">
        <ele>18.2</ele>
        <time>2011-03-23T18:22:11Z</time>
      </trkpt>
      <trkpt lat="37.2174071793" lon="-7.44141997461">
        <ele>18.4</ele>
        <time>2011-03-23T18:22:14Z</time>
      </trkpt>
      <trkpt lat="37.2174135495" lon="-7.44135442815">
        <ele>19</ele>
        <time>2011-03-23T18:22:17Z</time>
      </trkpt>
      <trkpt lat="37.2174262062" lon="-7.44127228553">
        <ele>19.6</ele>
        <time>2011-03-23T18:22:20Z</time>
      </trkpt>
      <trkpt lat="37.2174339176" lon="-7.44119366331">
        <ele>20</ele>
        <time>2011-03-23T18:22:23Z</time>
      </trkpt>
      <trkpt lat="37.2174169023" lon="-7.44111328089">
        <ele>20.2</ele>
        <time>2011-03-23T18:22:26Z</time>
      </trkpt>
      <trkpt lat="37.2174006414" lon="-7.4410670128">
        <ele>20.4</ele>
        <time>2011-03-23T18:22:28Z</time>
      </trkpt>
      <trkpt lat="37.2173675329" lon="-7.44099450936">
        <ele>20.6</ele>
        <time>2011-03-23T18:22:31Z</time>
      </trkpt>
      <trkpt lat="37.2173243661" lon="-7.44094178721">
        <ele>20.6</ele>
        <time>2011-03-23T18:22:34Z</time>
      </trkpt>
      <trkpt lat="37.2172879887" lon="-7.44090825961">
        <ele>20.8</ele>
        <time>2011-03-23T18:22:36Z</time>
      </trkpt>
      <trkpt lat="37.2172516112" lon="-7.4408755702">
        <ele>20.8</ele>
        <time>2011-03-23T18:22:38Z</time>
      </trkpt>
      <trkpt lat="37.217201236" lon="-7.44083089468">
        <ele>20.8</ele>
        <time>2011-03-23T18:22:41Z</time>
      </trkpt>
      <trkpt lat="37.2171434847" lon="-7.44078445895">
        <ele>21.2</ele>
        <time>2011-03-23T18:22:44Z</time>
      </trkpt>
      <trkpt lat="37.2170989768" lon="-7.44076375566">
        <ele>21.6</ele>
        <time>2011-03-23T18:22:46Z</time>
      </trkpt>
      <trkpt lat="37.2170315864" lon="-7.44073919669">
        <ele>22</ele>
        <time>2011-03-23T18:22:49Z</time>
      </trkpt>
      <trkpt lat="37.2169842286" lon="-7.44074456111">
        <ele>22.2</ele>
        <time>2011-03-23T18:22:51Z</time>
      </trkpt>
      <trkpt lat="37.2169327637" lon="-7.44075679868">
        <ele>22.4</ele>
        <time>2011-03-23T18:22:53Z</time>
      </trkpt>
      <trkpt lat="37.2168843164" lon="-7.44076568349">
        <ele>22.4</ele>
        <time>2011-03-23T18:22:55Z</time>
      </trkpt>
      <trkpt lat="37.2168153333" lon="-7.44077180228">
        <ele>22.6</ele>
        <time>2011-03-23T18:22:58Z</time>
      </trkpt>
      <trkpt lat="37.2167620244" lon="-7.44078320166">
        <ele>22.6</ele>
        <time>2011-03-23T18:23:00Z</time>
      </trkpt>
      <trkpt lat="37.2167142476" lon="-7.44079661271">
        <ele>22.8</ele>
        <time>2011-03-23T18:23:02Z</time>
      </trkpt>
      <trkpt lat="37.2166453484" lon="-7.4408106943">
        <ele>22.8</ele>
        <time>2011-03-23T18:23:05Z</time>
      </trkpt>
      <trkpt lat="37.2166008405" lon="-7.44082427298">
        <ele>23</ele>
        <time>2011-03-23T18:23:07Z</time>
      </trkpt>
      <trkpt lat="37.2165560812" lon="-7.44084128823">
        <ele>23.4</ele>
        <time>2011-03-23T18:23:09Z</time>
      </trkpt>
      <trkpt lat="37.2164901994" lon="-7.44086006369">
        <ele>23.8</ele>
        <time>2011-03-23T18:23:12Z</time>
      </trkpt>
      <trkpt lat="37.2164233957" lon="-7.44088026407">
        <ele>24.2</ele>
        <time>2011-03-23T18:23:15Z</time>
      </trkpt>
      <trkpt lat="37.2163544965" lon="-7.44088596376">
        <ele>24.4</ele>
        <time>2011-03-23T18:23:18Z</time>
      </trkpt>
      <trkpt lat="37.2162903749" lon="-7.44087959352">
        <ele>24.6</ele>
        <time>2011-03-23T18:23:21Z</time>
      </trkpt>
      <trkpt lat="37.2162145187" lon="-7.44086794267">
        <ele>24.8</ele>
        <time>2011-03-23T18:23:24Z</time>
      </trkpt>
      <trkpt lat="37.2161730283" lon="-7.44084212642">
        <ele>24.8</ele>
        <time>2011-03-23T18:23:26Z</time>
      </trkpt>
      <trkpt lat="37.2161369862" lon="-7.44077004208">
        <ele>24.8</ele>
        <time>2011-03-23T18:23:29Z</time>
      </trkpt>
      <trkpt lat="37.2160730323" lon="-7.44073743649">
        <ele>25</ele>
        <time>2011-03-23T18:23:32Z</time>
      </trkpt>
      <trkpt lat="37.2160536701" lon="-7.44072612093">
        <ele>25</ele>
        <time>2011-03-23T18:23:33Z</time>
      </trkpt>
      <trkpt lat="37.2160053903" lon="-7.44068823474">
        <ele>25</ele>
        <time>2011-03-23T18:23:35Z</time>
      </trkpt>
      <trkpt lat="37.2159622235" lon="-7.44066325668">
        <ele>25</ele>
        <time>2011-03-23T18:23:37Z</time>
      </trkpt>
      <trkpt lat="37.2159188053" lon="-7.44063450676">
        <ele>25</ele>
        <time>2011-03-23T18:23:39Z</time>
      </trkpt>
      <trkpt lat="37.2158723696" lon="-7.44060726558">
        <ele>25</ele>
        <time>2011-03-23T18:23:41Z</time>
      </trkpt>
      <trkpt lat="37.2158104273" lon="-7.44057130723">
        <ele>25</ele>
        <time>2011-03-23T18:23:44Z</time>
      </trkpt>
      <trkpt lat="37.2157523408" lon="-7.44053476215">
        <ele>25</ele>
        <time>2011-03-23T18:23:47Z</time>
      </trkpt>
      <trkpt lat="37.2157129458" lon="-7.44050534168">
        <ele>25</ele>
        <time>2011-03-23T18:23:49Z</time>
      </trkpt>
      <trkpt lat="37.2156610619" lon="-7.44045748103">
        <ele>25</ele>
        <time>2011-03-23T18:23:52Z</time>
      </trkpt>
      <trkpt lat="37.215617476" lon="-7.44039553879">
        <ele>25</ele>
        <time>2011-03-23T18:23:56Z</time>
      </trkpt>
      <trkpt lat="37.215579506" lon="-7.44031473727">
        <ele>25</ele>
        <time>2011-03-23T18:23:59Z</time>
      </trkpt>
      <trkpt lat="37.2155608144" lon="-7.44024709534">
        <ele>25</ele>
        <time>2011-03-23T18:24:02Z</time>
      </trkpt>
      <trkpt lat="37.2155539412" lon="-7.44017241261">
        <ele>25</ele>
        <time>2011-03-23T18:24:05Z</time>
      </trkpt>
      <trkpt lat="37.2155463137" lon="-7.44009881953">
        <ele>25</ele>
        <time>2011-03-23T18:24:08Z</time>
      </trkpt>
      <trkpt lat="37.2155469004" lon="-7.44007074017">
        <ele>25</ele>
        <time>2011-03-23T18:24:09Z</time>
      </trkpt>
      <trkpt lat="37.2155384347" lon="-7.4399954707">
        <ele>25</ele>
        <time>2011-03-23T18:24:12Z</time>
      </trkpt>
      <trkpt lat="37.2155075055" lon="-7.43993025952">
        <ele>25</ele>
        <time>2011-03-23T18:24:15Z</time>
      </trkpt>
      <trkpt lat="37.2154931724" lon="-7.43991508828">
        <ele>25</ele>
        <time>2011-03-23T18:24:16Z</time>
      </trkpt>
      <trkpt lat="37.2154847905" lon="-7.43982271974">
        <ele>25</ele>
        <time>2011-03-23T18:24:20Z</time>
      </trkpt>
      <trkpt lat="37.21548412" lon="-7.43979740641">
        <ele>25</ele>
        <time>2011-03-23T18:24:21Z</time>
      </trkpt>
      <trkpt lat="37.2154801805" lon="-7.43971937092">
        <ele>25</ele>
        <time>2011-03-23T18:24:24Z</time>
      </trkpt>
      <trkpt lat="37.2154849582" lon="-7.43969598542">
        <ele>25</ele>
        <time>2011-03-23T18:24:25Z</time>
      </trkpt>
      <trkpt lat="37.2155156359" lon="-7.43963471373">
        <ele>25</ele>
        <time>2011-03-23T18:24:28Z</time>
      </trkpt>
      <trkpt lat="37.2155215871" lon="-7.43956405431">
        <ele>25</ele>
        <time>2011-03-23T18:24:31Z</time>
      </trkpt>
      <trkpt lat="37.2155153845" lon="-7.4394828337">
        <ele>24.6</ele>
        <time>2011-03-23T18:24:34Z</time>
      </trkpt>
      <trkpt lat="37.2155057453" lon="-7.43945475433">
        <ele>24.4</ele>
        <time>2011-03-23T18:24:35Z</time>
      </trkpt>
      <trkpt lat="37.2154726368" lon="-7.43940840243">
        <ele>24.2</ele>
        <time>2011-03-23T18:24:37Z</time>
      </trkpt>
      <trkpt lat="37.2154567112" lon="-7.43939130335">
        <ele>24</ele>
        <time>2011-03-23T18:24:38Z</time>
      </trkpt>
      <trkpt lat="37.2153945175" lon="-7.43930471832">
        <ele>23.6</ele>
        <time>2011-03-23T18:24:42Z</time>
      </trkpt>
      <trkpt lat="37.2153693718" lon="-7.43925157708">
        <ele>23.6</ele>
        <time>2011-03-23T18:24:44Z</time>
      </trkpt>
      <trkpt lat="37.215351686" lon="-7.43919516689">
        <ele>23.4</ele>
        <time>2011-03-23T18:24:46Z</time>
      </trkpt>
      <trkpt lat="37.2153396998" lon="-7.43914454022">
        <ele>23.4</ele>
        <time>2011-03-23T18:24:48Z</time>
      </trkpt>
      <trkpt lat="37.2153264564" lon="-7.43908444199">
        <ele>23.4</ele>
        <time>2011-03-23T18:24:50Z</time>
      </trkpt>
      <trkpt lat="37.2153176554" lon="-7.43902736125">
        <ele>23.2</ele>
        <time>2011-03-23T18:24:52Z</time>
      </trkpt>
      <trkpt lat="37.2153081839" lon="-7.43897036433">
        <ele>23.2</ele>
        <time>2011-03-23T18:24:54Z</time>
      </trkpt>
      <trkpt lat="37.2152623349" lon="-7.43882979987">
        <ele>22.4</ele>
        <time>2011-03-23T18:24:59Z</time>
      </trkpt>
      <trkpt lat="37.215236351" lon="-7.43877632335">
        <ele>22.2</ele>
        <time>2011-03-23T18:25:01Z</time>
      </trkpt>
      <trkpt lat="37.2152086907" lon="-7.43872854652">
        <ele>22</ele>
        <time>2011-03-23T18:25:03Z</time>
      </trkpt>
      <trkpt lat="37.2151731515" lon="-7.43868026677">
        <ele>21.8</ele>
        <time>2011-03-23T18:25:05Z</time>
      </trkpt>
      <trkpt lat="37.2151185853" lon="-7.43862461096">
        <ele>21.6</ele>
        <time>2011-03-23T18:25:08Z</time>
      </trkpt>
      <trkpt lat="37.2150713952" lon="-7.43858932316">
        <ele>21.4</ele>
        <time>2011-03-23T18:25:10Z</time>
      </trkpt>
      <trkpt lat="37.2150245404" lon="-7.43856719494">
        <ele>21.4</ele>
        <time>2011-03-23T18:25:12Z</time>
      </trkpt>
      <trkpt lat="37.2149792781" lon="-7.43855277808">
        <ele>21.2</ele>
        <time>2011-03-23T18:25:14Z</time>
      </trkpt>
      <trkpt lat="37.2149323395" lon="-7.43853911558">
        <ele>21.2</ele>
        <time>2011-03-23T18:25:16Z</time>
      </trkpt>
      <trkpt lat="37.2148627697" lon="-7.43852855438">
        <ele>21.2</ele>
        <time>2011-03-23T18:25:19Z</time>
      </trkpt>
      <trkpt lat="37.2148158311" lon="-7.4385220165">
        <ele>21</ele>
        <time>2011-03-23T18:25:21Z</time>
      </trkpt>
      <trkpt lat="37.2147672161" lon="-7.4385153948">
        <ele>21</ele>
        <time>2011-03-23T18:25:23Z</time>
      </trkpt>
      <trkpt lat="37.214714913" lon="-7.43850718054">
        <ele>21</ele>
        <time>2011-03-23T18:25:25Z</time>
      </trkpt>
      <trkpt lat="37.2146497856" lon="-7.4385008103">
        <ele>21</ele>
        <time>2011-03-23T18:25:28Z</time>
      </trkpt>
      <trkpt lat="37.2145818923" lon="-7.4384933504">
        <ele>21</ele>
        <time>2011-03-23T18:25:31Z</time>
      </trkpt>
      <trkpt lat="37.2145345345" lon="-7.43848656106">
        <ele>21</ele>
        <time>2011-03-23T18:25:33Z</time>
      </trkpt>
      <trkpt lat="37.2144860871" lon="-7.43848102901">
        <ele>21</ele>
        <time>2011-03-23T18:25:35Z</time>
      </trkpt>
      <trkpt lat="37.2144250669" lon="-7.43846803707">
        <ele>21</ele>
        <time>2011-03-23T18:25:38Z</time>
      </trkpt>
      <trkpt lat="37.2143789665" lon="-7.43845454221">
        <ele>21</ele>
        <time>2011-03-23T18:25:40Z</time>
      </trkpt>
      <trkpt lat="37.2143274178" lon="-7.43841296798">
        <ele>21</ele>
        <time>2011-03-23T18:25:43Z</time>
      </trkpt>
      <trkpt lat="37.2142828261" lon="-7.43838136822">
        <ele>21</ele>
        <time>2011-03-23T18:25:45Z</time>
      </trkpt>
      <trkpt lat="37.214234714" lon="-7.43836024583">
        <ele>21</ele>
        <time>2011-03-23T18:25:47Z</time>
      </trkpt>
      <trkpt lat="37.2141873562" lon="-7.43834750534">
        <ele>21</ele>
        <time>2011-03-23T18:25:49Z</time>
      </trkpt>
      <trkpt lat="37.2141423454" lon="-7.43833493249">
        <ele>21</ele>
        <time>2011-03-23T18:25:51Z</time>
      </trkpt>
      <trkpt lat="37.2140978375" lon="-7.43832839461">
        <ele>21</ele>
        <time>2011-03-23T18:25:53Z</time>
      </trkpt>
      <trkpt lat="37.2140273458" lon="-7.43832512567">
        <ele>21</ele>
        <time>2011-03-23T18:25:56Z</time>
      </trkpt>
      <trkpt lat="37.2139584465" lon="-7.43831984507">
        <ele>21</ele>
        <time>2011-03-23T18:25:59Z</time>
      </trkpt>
      <trkpt lat="37.2138969234" lon="-7.438312469">
        <ele>21</ele>
        <time>2011-03-23T18:26:02Z</time>
      </trkpt>
      <trkpt lat="37.2138442851" lon="-7.43830299746">
        <ele>21</ele>
        <time>2011-03-23T18:26:04Z</time>
      </trkpt>
      <trkpt lat="37.213793826" lon="-7.4382943641">
        <ele>21</ele>
        <time>2011-03-23T18:26:06Z</time>
      </trkpt>
      <trkpt lat="37.2137485638" lon="-7.43828581456">
        <ele>21</ele>
        <time>2011-03-23T18:26:08Z</time>
      </trkpt>
      <trkpt lat="37.213701206" lon="-7.43827575628">
        <ele>21</ele>
        <time>2011-03-23T18:26:10Z</time>
      </trkpt>
      <trkpt lat="37.2136563629" lon="-7.43826829639">
        <ele>21</ele>
        <time>2011-03-23T18:26:12Z</time>
      </trkpt>
      <trkpt lat="37.2136095919" lon="-7.43825924394">
        <ele>21</ele>
        <time>2011-03-23T18:26:14Z</time>
      </trkpt>
      <trkpt lat="37.2135416985" lon="-7.43825136495">
        <ele>21</ele>
        <time>2011-03-23T18:26:17Z</time>
      </trkpt>
      <trkpt lat="37.2134764873" lon="-7.43824046848">
        <ele>21</ele>
        <time>2011-03-23T18:26:20Z</time>
      </trkpt>
      <trkpt lat="37.2134300516" lon="-7.43823510407">
        <ele>21</ele>
        <time>2011-03-23T18:26:22Z</time>
      </trkpt>
      <trkpt lat="37.2133604818" lon="-7.43822412378">
        <ele>21</ele>
        <time>2011-03-23T18:26:25Z</time>
      </trkpt>
      <trkpt lat="37.2133153872" lon="-7.43821632861">
        <ele>21</ele>
        <time>2011-03-23T18:26:27Z</time>
      </trkpt>
      <trkpt lat="37.21325202" lon="-7.43820786289">
        <ele>21</ele>
        <time>2011-03-23T18:26:30Z</time>
      </trkpt>
      <trkpt lat="37.2132137985" lon="-7.43819244019">
        <ele>21</ele>
        <time>2011-03-23T18:26:32Z</time>
      </trkpt>
      <trkpt lat="37.2131272135" lon="-7.43818590231">
        <ele>20.8</ele>
        <time>2011-03-23T18:26:36Z</time>
      </trkpt>
      <trkpt lat="37.2130635111" lon="-7.43817441911">
        <ele>20.2</ele>
        <time>2011-03-23T18:26:39Z</time>
      </trkpt>
      <trkpt lat="37.2130039158" lon="-7.43816628867">
        <ele>20</ele>
        <time>2011-03-23T18:26:42Z</time>
      </trkpt>
      <trkpt lat="37.212944069" lon="-7.43815312908">
        <ele>19.6</ele>
        <time>2011-03-23T18:26:45Z</time>
      </trkpt>
      <trkpt lat="37.2128856472" lon="-7.43814633974">
        <ele>19.4</ele>
        <time>2011-03-23T18:26:48Z</time>
      </trkpt>
      <trkpt lat="37.2128234535" lon="-7.4381364491">
        <ele>19.4</ele>
        <time>2011-03-23T18:26:51Z</time>
      </trkpt>
      <trkpt lat="37.212743993" lon="-7.43812228369">
        <ele>19.2</ele>
        <time>2011-03-23T18:26:55Z</time>
      </trkpt>
      <trkpt lat="37.2126949589" lon="-7.43811549435">
        <ele>19.2</ele>
        <time>2011-03-23T18:26:57Z</time>
      </trkpt>
      <trkpt lat="37.2126497805" lon="-7.43810535225">
        <ele>19</ele>
        <time>2011-03-23T18:26:59Z</time>
      </trkpt>
      <trkpt lat="37.2125854913" lon="-7.43809604834">
        <ele>19</ele>
        <time>2011-03-23T18:27:02Z</time>
      </trkpt>
      <trkpt lat="37.2125219565" lon="-7.4380848166">
        <ele>19</ele>
        <time>2011-03-23T18:27:05Z</time>
      </trkpt>
      <trkpt lat="37.2124785383" lon="-7.43807392013">
        <ele>19</ele>
        <time>2011-03-23T18:27:07Z</time>
      </trkpt>
      <trkpt lat="37.2124126565" lon="-7.43806327512">
        <ele>19</ele>
        <time>2011-03-23T18:27:10Z</time>
      </trkpt>
      <trkpt lat="37.2123484512" lon="-7.43804542167">
        <ele>19</ele>
        <time>2011-03-23T18:27:13Z</time>
      </trkpt>
      <trkpt lat="37.2122959805" lon="-7.43803108862">
        <ele>19</ele>
        <time>2011-03-23T18:27:16Z</time>
      </trkpt>
      <trkpt lat="37.2122482875" lon="-7.43802287436">
        <ele>19</ele>
        <time>2011-03-23T18:27:18Z</time>
      </trkpt>
      <trkpt lat="37.2121812323" lon="-7.43801365427">
        <ele>19</ele>
        <time>2011-03-23T18:27:21Z</time>
      </trkpt>
      <trkpt lat="37.2121171107" lon="-7.43800468563">
        <ele>19</ele>
        <time>2011-03-23T18:27:24Z</time>
      </trkpt>
      <trkpt lat="37.2120817391" lon="-7.4379904364">
        <ele>19</ele>
        <time>2011-03-23T18:27:26Z</time>
      </trkpt>
      <trkpt lat="37.2120527377" lon="-7.43793947445">
        <ele>19</ele>
        <time>2011-03-23T18:27:30Z</time>
      </trkpt>
      <trkpt lat="37.2120164441" lon="-7.43796822437">
        <ele>17.6</ele>
        <time>2011-03-23T18:27:51Z</time>
      </trkpt>
      <trkpt lat="37.2120038713" lon="-7.43796981693">
        <ele>17.6</ele>
        <time>2011-03-23T18:27:52Z</time>
      </trkpt>
      <trkpt lat="37.2119405879" lon="-7.4379727506">
        <ele>17.4</ele>
        <time>2011-03-23T18:27:55Z</time>
      </trkpt>
      <trkpt lat="37.2118958286" lon="-7.43796763764">
        <ele>17.4</ele>
        <time>2011-03-23T18:27:57Z</time>
      </trkpt>
      <trkpt lat="37.2118478841" lon="-7.43795766318">
        <ele>17.2</ele>
        <time>2011-03-23T18:27:59Z</time>
      </trkpt>
      <trkpt lat="37.211801616" lon="-7.43794726962">
        <ele>17.2</ele>
        <time>2011-03-23T18:28:01Z</time>
      </trkpt>
      <trkpt lat="37.2117576111" lon="-7.4379357026">
        <ele>17.2</ele>
        <time>2011-03-23T18:28:03Z</time>
      </trkpt>
      <trkpt lat="37.2117074035" lon="-7.43792396794">
        <ele>17</ele>
        <time>2011-03-23T18:28:05Z</time>
      </trkpt>
      <trkpt lat="37.2116581179" lon="-7.43791726242">
        <ele>17</ele>
        <time>2011-03-23T18:28:07Z</time>
      </trkpt>
      <trkpt lat="37.2116079103" lon="-7.43791097599">
        <ele>17</ele>
        <time>2011-03-23T18:28:09Z</time>
      </trkpt>
      <trkpt lat="37.2115618099" lon="-7.43790267791">
        <ele>17</ele>
        <time>2011-03-23T18:28:11Z</time>
      </trkpt>
      <trkpt lat="37.2115138654" lon="-7.43789211672">
        <ele>17</ele>
        <time>2011-03-23T18:28:13Z</time>
      </trkpt>
      <trkpt lat="37.2114639093" lon="-7.43788138789">
        <ele>17</ele>
        <time>2011-03-23T18:28:15Z</time>
      </trkpt>
      <trkpt lat="37.2114148752" lon="-7.43787149724">
        <ele>17</ele>
        <time>2011-03-23T18:28:17Z</time>
      </trkpt>
      <trkpt lat="37.2113680203" lon="-7.43785925967">
        <ele>17</ele>
        <time>2011-03-23T18:28:19Z</time>
      </trkpt>
      <trkpt lat="37.2113222552" lon="-7.43784777647">
        <ele>17</ele>
        <time>2011-03-23T18:28:21Z</time>
      </trkpt>
      <trkpt lat="37.2112758194" lon="-7.43783604181">
        <ele>17</ele>
        <time>2011-03-23T18:28:23Z</time>
      </trkpt>
      <trkpt lat="37.2112281264" lon="-7.43781760163">
        <ele>17</ele>
        <time>2011-03-23T18:28:25Z</time>
      </trkpt>
      <trkpt lat="37.2111850435" lon="-7.43780209511">
        <ele>17</ele>
        <time>2011-03-23T18:28:27Z</time>
      </trkpt>
      <trkpt lat="37.2111436369" lon="-7.43778055363">
        <ele>17</ele>
        <time>2011-03-23T18:28:29Z</time>
      </trkpt>
      <trkpt lat="37.2110859694" lon="-7.43774543347">
        <ele>17</ele>
        <time>2011-03-23T18:28:32Z</time>
      </trkpt>
      <trkpt lat="37.2110438923" lon="-7.43772028777">
        <ele>17</ele>
        <time>2011-03-23T18:28:34Z</time>
      </trkpt>
      <trkpt lat="37.2110016475" lon="-7.43769229222">
        <ele>17</ele>
        <time>2011-03-23T18:28:36Z</time>
      </trkpt>
      <trkpt lat="37.2109617496" lon="-7.43766555396">
        <ele>17</ele>
        <time>2011-03-23T18:28:38Z</time>
      </trkpt>
      <trkpt lat="37.2109201754" lon="-7.43763722314">
        <ele>17</ele>
        <time>2011-03-23T18:28:40Z</time>
      </trkpt>
      <trkpt lat="37.2108784336" lon="-7.43760595865">
        <ele>17</ele>
        <time>2011-03-23T18:28:42Z</time>
      </trkpt>
      <trkpt lat="37.2108183353" lon="-7.43756463588">
        <ele>17</ele>
        <time>2011-03-23T18:28:45Z</time>
      </trkpt>
      <trkpt lat="37.2107765097" lon="-7.43753638888">
        <ele>17</ele>
        <time>2011-03-23T18:28:47Z</time>
      </trkpt>
      <trkpt lat="37.2107359413" lon="-7.4375095668">
        <ele>17</ele>
        <time>2011-03-23T18:28:49Z</time>
      </trkpt>
      <trkpt lat="37.2106959596" lon="-7.43748542693">
        <ele>17</ele>
        <time>2011-03-23T18:28:51Z</time>
      </trkpt>
      <trkpt lat="37.2106539663" lon="-7.43746028123">
        <ele>17</ele>
        <time>2011-03-23T18:28:53Z</time>
      </trkpt>
      <trkpt lat="37.2106112186" lon="-7.43743161513">
        <ele>17</ele>
        <time>2011-03-23T18:28:55Z</time>
      </trkpt>
      <trkpt lat="37.210576769" lon="-7.43740864873">
        <ele>17</ele>
        <time>2011-03-23T18:28:57Z</time>
      </trkpt>
      <trkpt lat="37.2104919442" lon="-7.43735609421">
        <ele>17</ele>
        <time>2011-03-23T18:29:01Z</time>
      </trkpt>
      <trkpt lat="37.2104227935" lon="-7.43731384944">
        <ele>17</ele>
        <time>2011-03-23T18:29:04Z</time>
      </trkpt>
      <trkpt lat="37.2103804649" lon="-7.43728627299">
        <ele>17</ele>
        <time>2011-03-23T18:29:06Z</time>
      </trkpt>
      <trkpt lat="37.2103384716" lon="-7.43726221693">
        <ele>17</ele>
        <time>2011-03-23T18:29:08Z</time>
      </trkpt>
      <trkpt lat="37.2102992443" lon="-7.4372395858">
        <ele>17</ele>
        <time>2011-03-23T18:29:10Z</time>
      </trkpt>
      <trkpt lat="37.2102516351" lon="-7.43721234463">
        <ele>17</ele>
        <time>2011-03-23T18:29:12Z</time>
      </trkpt>
      <trkpt lat="37.210209055" lon="-7.43718602546">
        <ele>17</ele>
        <time>2011-03-23T18:29:14Z</time>
      </trkpt>
      <trkpt lat="37.2101663912" lon="-7.43715601826">
        <ele>17</ele>
        <time>2011-03-23T18:29:16Z</time>
      </trkpt>
      <trkpt lat="37.2101238949" lon="-7.43712919618">
        <ele>17</ele>
        <time>2011-03-23T18:29:18Z</time>
      </trkpt>
      <trkpt lat="37.2100809796" lon="-7.43710086536">
        <ele>17</ele>
        <time>2011-03-23T18:29:20Z</time>
      </trkpt>
      <trkpt lat="37.2100379804" lon="-7.43707530056">
        <ele>17</ele>
        <time>2011-03-23T18:29:22Z</time>
      </trkpt>
      <trkpt lat="37.2099954004" lon="-7.43705007104">
        <ele>17</ele>
        <time>2011-03-23T18:29:24Z</time>
      </trkpt>
      <trkpt lat="37.2099352184" lon="-7.43700765863">
        <ele>17</ele>
        <time>2011-03-23T18:29:27Z</time>
      </trkpt>
      <trkpt lat="37.2098920516" lon="-7.43697647796">
        <ele>17</ele>
        <time>2011-03-23T18:29:29Z</time>
      </trkpt>
      <trkpt lat="37.2098498068" lon="-7.4369514999">
        <ele>17</ele>
        <time>2011-03-23T18:29:31Z</time>
      </trkpt>
      <trkpt lat="37.2098082326" lon="-7.43692928786">
        <ele>17</ele>
        <time>2011-03-23T18:29:33Z</time>
      </trkpt>
      <trkpt lat="37.2097648981" lon="-7.43690581854">
        <ele>17.2</ele>
        <time>2011-03-23T18:29:35Z</time>
      </trkpt>
      <trkpt lat="37.2097233239" lon="-7.43687857737">
        <ele>17.4</ele>
        <time>2011-03-23T18:29:37Z</time>
      </trkpt>
      <trkpt lat="37.2096824202" lon="-7.43685359931">
        <ele>17.8</ele>
        <time>2011-03-23T18:29:39Z</time>
      </trkpt>
      <trkpt lat="37.209640846" lon="-7.43682962707">
        <ele>18</ele>
        <time>2011-03-23T18:29:41Z</time>
      </trkpt>
      <trkpt lat="37.2095996071" lon="-7.43680565484">
        <ele>18.2</ele>
        <time>2011-03-23T18:29:43Z</time>
      </trkpt>
      <trkpt lat="37.2095581167" lon="-7.43677950331">
        <ele>18.4</ele>
        <time>2011-03-23T18:29:45Z</time>
      </trkpt>
      <trkpt lat="37.2095193085" lon="-7.43675184304">
        <ele>18.4</ele>
        <time>2011-03-23T18:29:47Z</time>
      </trkpt>
      <trkpt lat="37.2094790754" lon="-7.43672720026">
        <ele>18.6</ele>
        <time>2011-03-23T18:29:49Z</time>
      </trkpt>
      <trkpt lat="37.2094383393" lon="-7.43670104873">
        <ele>18.6</ele>
        <time>2011-03-23T18:29:51Z</time>
      </trkpt>
      <trkpt lat="37.2093943343" lon="-7.4366762383">
        <ele>18.6</ele>
        <time>2011-03-23T18:29:53Z</time>
      </trkpt>
      <trkpt lat="37.2093506646" lon="-7.43665050587">
        <ele>18.8</ele>
        <time>2011-03-23T18:29:55Z</time>
      </trkpt>
      <trkpt lat="37.2093132814" lon="-7.43662569545">
        <ele>18.8</ele>
        <time>2011-03-23T18:29:57Z</time>
      </trkpt>
      <trkpt lat="37.2092695279" lon="-7.43659644262">
        <ele>18.8</ele>
        <time>2011-03-23T18:29:59Z</time>
      </trkpt>
      <trkpt lat="37.2092261096" lon="-7.4365690338">
        <ele>18.8</ele>
        <time>2011-03-23T18:30:01Z</time>
      </trkpt>
      <trkpt lat="37.2091848707" lon="-7.43653961333">
        <ele>18.8</ele>
        <time>2011-03-23T18:30:03Z</time>
      </trkpt>
      <trkpt lat="37.2091229284" lon="-7.43648940575">
        <ele>18.8</ele>
        <time>2011-03-23T18:30:06Z</time>
      </trkpt>
      <trkpt lat="37.209083282" lon="-7.43646057202">
        <ele>18.8</ele>
        <time>2011-03-23T18:30:08Z</time>
      </trkpt>
      <trkpt lat="37.2090439709" lon="-7.43643039718">
        <ele>18.8</ele>
        <time>2011-03-23T18:30:10Z</time>
      </trkpt>
      <trkpt lat="37.2089936795" lon="-7.43638999642">
        <ele>19</ele>
        <time>2011-03-23T18:30:13Z</time>
      </trkpt>
      <trkpt lat="37.2089553742" lon="-7.43635630118">
        <ele>19</ele>
        <time>2011-03-23T18:30:15Z</time>
      </trkpt>
      <trkpt lat="37.2089151411" lon="-7.43632403087">
        <ele>19</ele>
        <time>2011-03-23T18:30:17Z</time>
      </trkpt>
      <trkpt lat="37.2088744051" lon="-7.43628941362">
        <ele>19</ele>
        <time>2011-03-23T18:30:19Z</time>
      </trkpt>
      <trkpt lat="37.2088345911" lon="-7.43625672421">
        <ele>19</ele>
        <time>2011-03-23T18:30:21Z</time>
      </trkpt>
      <trkpt lat="37.2087988842" lon="-7.43622654937">
        <ele>19</ele>
        <time>2011-03-23T18:30:23Z</time>
      </trkpt>
      <trkpt lat="37.2087589025" lon="-7.43619251885">
        <ele>19</ele>
        <time>2011-03-23T18:30:25Z</time>
      </trkpt>
      <trkpt lat="37.2087243691" lon="-7.43615848834">
        <ele>19</ele>
        <time>2011-03-23T18:30:27Z</time>
      </trkpt>
      <trkpt lat="37.2086877402" lon="-7.4361247931">
        <ele>19</ele>
        <time>2011-03-23T18:30:29Z</time>
      </trkpt>
      <trkpt lat="37.2086496864" lon="-7.43609369625">
        <ele>19</ele>
        <time>2011-03-23T18:30:31Z</time>
      </trkpt>
      <trkpt lat="37.2086081121" lon="-7.43606586835">
        <ele>19</ele>
        <time>2011-03-23T18:30:33Z</time>
      </trkpt>
      <trkpt lat="37.2085664541" lon="-7.43603334657">
        <ele>19</ele>
        <time>2011-03-23T18:30:35Z</time>
      </trkpt>
      <trkpt lat="37.2085291546" lon="-7.43599923224">
        <ele>19</ele>
        <time>2011-03-23T18:30:37Z</time>
      </trkpt>
      <trkpt lat="37.2084918552" lon="-7.43596645901">
        <ele>19</ele>
        <time>2011-03-23T18:30:39Z</time>
      </trkpt>
      <trkpt lat="37.2084522926" lon="-7.43593343433">
        <ele>19</ele>
        <time>2011-03-23T18:30:41Z</time>
      </trkpt>
      <trkpt lat="37.2084142388" lon="-7.43590049346">
        <ele>19</ele>
        <time>2011-03-23T18:30:43Z</time>
      </trkpt>
      <trkpt lat="37.2083783642" lon="-7.4358614338">
        <ele>19</ele>
        <time>2011-03-23T18:30:45Z</time>
      </trkpt>
      <trkpt lat="37.2083414001" lon="-7.43582949876">
        <ele>19</ele>
        <time>2011-03-23T18:30:47Z</time>
      </trkpt>
      <trkpt lat="37.208302089" lon="-7.43579605498">
        <ele>19</ele>
        <time>2011-03-23T18:30:49Z</time>
      </trkpt>
      <trkpt lat="37.2082639513" lon="-7.43576152156">
        <ele>19</ele>
        <time>2011-03-23T18:30:51Z</time>
      </trkpt>
      <trkpt lat="37.2082261489" lon="-7.43572992179">
        <ele>19</ele>
        <time>2011-03-23T18:30:53Z</time>
      </trkpt>
      <trkpt lat="37.2081852453" lon="-7.43569362817">
        <ele>19</ele>
        <time>2011-03-23T18:30:55Z</time>
      </trkpt>
      <trkpt lat="37.2081474429" lon="-7.4356589271">
        <ele>19</ele>
        <time>2011-03-23T18:30:57Z</time>
      </trkpt>
      <trkpt lat="37.2081057849" lon="-7.43562171146">
        <ele>19</ele>
        <time>2011-03-23T18:30:59Z</time>
      </trkpt>
      <trkpt lat="37.2080669767" lon="-7.43558793241">
        <ele>19</ele>
        <time>2011-03-23T18:31:01Z</time>
      </trkpt>
      <trkpt lat="37.2080305154" lon="-7.43555406953">
        <ele>19</ele>
        <time>2011-03-23T18:31:03Z</time>
      </trkpt>
      <trkpt lat="37.2079699143" lon="-7.43550134738">
        <ele>19</ele>
        <time>2011-03-23T18:31:06Z</time>
      </trkpt>
      <trkpt lat="37.2079313575" lon="-7.43547360329">
        <ele>19</ele>
        <time>2011-03-23T18:31:08Z</time>
      </trkpt>
      <trkpt lat="37.2078905377" lon="-7.43544074624">
        <ele>19</ele>
        <time>2011-03-23T18:31:10Z</time>
      </trkpt>
      <trkpt lat="37.2078498855" lon="-7.43541040377">
        <ele>19</ele>
        <time>2011-03-23T18:31:12Z</time>
      </trkpt>
      <trkpt lat="37.2078095685" lon="-7.43537813345">
        <ele>19</ele>
        <time>2011-03-23T18:31:14Z</time>
      </trkpt>
      <trkpt lat="37.2077710956" lon="-7.43534904826">
        <ele>19</ele>
        <time>2011-03-23T18:31:16Z</time>
      </trkpt>
      <trkpt lat="37.207732455" lon="-7.4353183705">
        <ele>19</ele>
        <time>2011-03-23T18:31:18Z</time>
      </trkpt>
      <trkpt lat="37.2076927248" lon="-7.43528450763">
        <ele>19</ele>
        <time>2011-03-23T18:31:20Z</time>
      </trkpt>
      <trkpt lat="37.2076382425" lon="-7.43523689844">
        <ele>19</ele>
        <time>2011-03-23T18:31:23Z</time>
      </trkpt>
      <trkpt lat="37.2075970035" lon="-7.43520412521">
        <ele>19</ele>
        <time>2011-03-23T18:31:25Z</time>
      </trkpt>
      <trkpt lat="37.2075433594" lon="-7.43515928204">
        <ele>19</ele>
        <time>2011-03-23T18:31:28Z</time>
      </trkpt>
      <trkpt lat="37.2075030424" lon="-7.43512391042">
        <ele>19</ele>
        <time>2011-03-23T18:31:30Z</time>
      </trkpt>
      <trkpt lat="37.2074649886" lon="-7.43509314885">
        <ele>19</ele>
        <time>2011-03-23T18:31:32Z</time>
      </trkpt>
      <trkpt lat="37.2074276053" lon="-7.43506305783">
        <ele>19</ele>
        <time>2011-03-23T18:31:34Z</time>
      </trkpt>
      <trkpt lat="37.2073871208" lon="-7.43502533928">
        <ele>19</ele>
        <time>2011-03-23T18:31:37Z</time>
      </trkpt>
      <trkpt lat="37.2073509109" lon="-7.43499566735">
        <ele>19</ele>
        <time>2011-03-23T18:31:39Z</time>
      </trkpt>
      <trkpt lat="37.2073128571" lon="-7.43496063101">
        <ele>19</ele>
        <time>2011-03-23T18:31:41Z</time>
      </trkpt>
      <trkpt lat="37.2072780722" lon="-7.43492433738">
        <ele>19</ele>
        <time>2011-03-23T18:31:43Z</time>
      </trkpt>
      <trkpt lat="37.2072409404" lon="-7.4348860321">
        <ele>19</ele>
        <time>2011-03-23T18:31:45Z</time>
      </trkpt>
      <trkpt lat="37.2071870448" lon="-7.43484563134">
        <ele>19</ele>
        <time>2011-03-23T18:31:48Z</time>
      </trkpt>
      <trkpt lat="37.2071489072" lon="-7.43481336103">
        <ele>19</ele>
        <time>2011-03-23T18:31:50Z</time>
      </trkpt>
      <trkpt lat="37.2071103504" lon="-7.43478159363">
        <ele>19</ele>
        <time>2011-03-23T18:31:52Z</time>
      </trkpt>
      <trkpt lat="37.2070702011" lon="-7.43474638965">
        <ele>19</ele>
        <time>2011-03-23T18:31:54Z</time>
      </trkpt>
      <trkpt lat="37.2070333208" lon="-7.4347086711">
        <ele>19</ele>
        <time>2011-03-23T18:31:56Z</time>
      </trkpt>
      <trkpt lat="37.2069979491" lon="-7.43467715515">
        <ele>19</ele>
        <time>2011-03-23T18:31:58Z</time>
      </trkpt>
      <trkpt lat="37.2069584704" lon="-7.4346433761">
        <ele>19</ele>
        <time>2011-03-23T18:32:00Z</time>
      </trkpt>
      <trkpt lat="37.2069180696" lon="-7.43461186015">
        <ele>19</ele>
        <time>2011-03-23T18:32:02Z</time>
      </trkpt>
      <trkpt lat="37.2068767469" lon="-7.43457741054">
        <ele>19</ele>
        <time>2011-03-23T18:32:04Z</time>
      </trkpt>
      <trkpt lat="37.206835927" lon="-7.43454078164">
        <ele>19</ele>
        <time>2011-03-23T18:32:06Z</time>
      </trkpt>
      <trkpt lat="37.20680307" lon="-7.43451345665">
        <ele>19</ele>
        <time>2011-03-23T18:32:08Z</time>
      </trkpt>
      <trkpt lat="37.2067340869" lon="-7.4344536937">
        <ele>19</ele>
        <time>2011-03-23T18:32:11Z</time>
      </trkpt>
      <trkpt lat="37.2066941053" lon="-7.4344250276">
        <ele>19</ele>
        <time>2011-03-23T18:32:13Z</time>
      </trkpt>
      <trkpt lat="37.206652531" lon="-7.43439359548">
        <ele>19</ele>
        <time>2011-03-23T18:32:15Z</time>
      </trkpt>
      <trkpt lat="37.2066100348" lon="-7.43435713421">
        <ele>19</ele>
        <time>2011-03-23T18:32:17Z</time>
      </trkpt>
      <trkpt lat="37.2065686282" lon="-7.43432494771">
        <ele>19</ele>
        <time>2011-03-23T18:32:19Z</time>
      </trkpt>
      <trkpt lat="37.2065142297" lon="-7.43427658415">
        <ele>19</ele>
        <time>2011-03-23T18:32:22Z</time>
      </trkpt>
      <trkpt lat="37.2064726555" lon="-7.43424364329">
        <ele>19</ele>
        <time>2011-03-23T18:32:24Z</time>
      </trkpt>
      <trkpt lat="37.2064334282" lon="-7.43421070242">
        <ele>19</ele>
        <time>2011-03-23T18:32:26Z</time>
      </trkpt>
      <trkpt lat="37.2063985595" lon="-7.43417985703">
        <ele>19</ele>
        <time>2011-03-23T18:32:28Z</time>
      </trkpt>
      <trkpt lat="37.2063571529" lon="-7.4341453236">
        <ele>19</ele>
        <time>2011-03-23T18:32:30Z</time>
      </trkpt>
      <trkpt lat="37.2063198534" lon="-7.43411322092">
        <ele>19</ele>
        <time>2011-03-23T18:32:32Z</time>
      </trkpt>
      <trkpt lat="37.2062804585" lon="-7.43408128588">
        <ele>19</ele>
        <time>2011-03-23T18:32:34Z</time>
      </trkpt>
      <trkpt lat="37.2062423209" lon="-7.43404683627">
        <ele>19</ele>
        <time>2011-03-23T18:32:36Z</time>
      </trkpt>
      <trkpt lat="37.2062059434" lon="-7.43401532033">
        <ele>19</ele>
        <time>2011-03-23T18:32:38Z</time>
      </trkpt>
      <trkpt lat="37.2061682249" lon="-7.43398355293">
        <ele>19</ele>
        <time>2011-03-23T18:32:40Z</time>
      </trkpt>
      <trkpt lat="37.2061323503" lon="-7.43395178553">
        <ele>19</ele>
        <time>2011-03-23T18:32:42Z</time>
      </trkpt>
      <trkpt lat="37.2060787062" lon="-7.43390065594">
        <ele>19</ele>
        <time>2011-03-23T18:32:45Z</time>
      </trkpt>
      <trkpt lat="37.2060402332" lon="-7.43387207366">
        <ele>19</ele>
        <time>2011-03-23T18:32:47Z</time>
      </trkpt>
      <trkpt lat="37.2059865891" lon="-7.43382957743">
        <ele>19</ele>
        <time>2011-03-23T18:32:50Z</time>
      </trkpt>
      <trkpt lat="37.2059471103" lon="-7.43380133042">
        <ele>19</ele>
        <time>2011-03-23T18:32:52Z</time>
      </trkpt>
      <trkpt lat="37.2058965675" lon="-7.43376176785">
        <ele>19</ele>
        <time>2011-03-23T18:32:55Z</time>
      </trkpt>
      <trkpt lat="37.2058518081" lon="-7.43372396549">
        <ele>19</ele>
        <time>2011-03-23T18:32:58Z</time>
      </trkpt>
      <trkpt lat="37.2058197055" lon="-7.4336958023">
        <ele>19</ele>
        <time>2011-03-23T18:33:01Z</time>
      </trkpt>
      <trkpt lat="37.2057792209" lon="-7.43366428636">
        <ele>19</ele>
        <time>2011-03-23T18:33:04Z</time>
      </trkpt>
      <trkpt lat="37.2057420891" lon="-7.43363494971">
        <ele>19</ele>
        <time>2011-03-23T18:33:06Z</time>
      </trkpt>
      <trkpt lat="37.2056970783" lon="-7.43359270493">
        <ele>19</ele>
        <time>2011-03-23T18:33:09Z</time>
      </trkpt>
      <trkpt lat="37.2056507263" lon="-7.43354869996">
        <ele>19</ele>
        <time>2011-03-23T18:33:12Z</time>
      </trkpt>
      <trkpt lat="37.2056009379" lon="-7.43350259951">
        <ele>19</ele>
        <time>2011-03-23T18:33:15Z</time>
      </trkpt>
      <trkpt lat="37.2055465393" lon="-7.43345373303">
        <ele>19</ele>
        <time>2011-03-23T18:33:18Z</time>
      </trkpt>
      <trkpt lat="37.2054926437" lon="-7.43341115298">
        <ele>19</ele>
        <time>2011-03-23T18:33:21Z</time>
      </trkpt>
      <trkpt lat="37.2054535841" lon="-7.43337938558">
        <ele>19</ele>
        <time>2011-03-23T18:33:23Z</time>
      </trkpt>
      <trkpt lat="37.2054117584" lon="-7.43334661235">
        <ele>19</ele>
        <time>2011-03-23T18:33:25Z</time>
      </trkpt>
      <trkpt lat="37.2053592039" lon="-7.43330067954">
        <ele>19</ele>
        <time>2011-03-23T18:33:28Z</time>
      </trkpt>
      <trkpt lat="37.2053184678" lon="-7.43326589465">
        <ele>18.6</ele>
        <time>2011-03-23T18:33:30Z</time>
      </trkpt>
      <trkpt lat="37.205260046" lon="-7.4332197942">
        <ele>18</ele>
        <time>2011-03-23T18:33:33Z</time>
      </trkpt>
      <trkpt lat="37.2052183879" lon="-7.43318777534">
        <ele>17.8</ele>
        <time>2011-03-23T18:33:35Z</time>
      </trkpt>
      <trkpt lat="37.2051628998" lon="-7.43313924414">
        <ele>17.6</ele>
        <time>2011-03-23T18:33:38Z</time>
      </trkpt>
      <trkpt lat="37.2051196492" lon="-7.43310512981">
        <ele>17.4</ele>
        <time>2011-03-23T18:33:40Z</time>
      </trkpt>
      <trkpt lat="37.2050601377" lon="-7.43306045428">
        <ele>17.4</ele>
        <time>2011-03-23T18:33:43Z</time>
      </trkpt>
      <trkpt lat="37.2050185635" lon="-7.43302684286">
        <ele>17.2</ele>
        <time>2011-03-23T18:33:45Z</time>
      </trkpt>
      <trkpt lat="37.2049634105" lon="-7.43298283789">
        <ele>17.2</ele>
        <time>2011-03-23T18:33:48Z</time>
      </trkpt>
      <trkpt lat="37.2049211658" lon="-7.43294537079">
        <ele>17</ele>
        <time>2011-03-23T18:33:50Z</time>
      </trkpt>
      <trkpt lat="37.204879843" lon="-7.43291092118">
        <ele>17</ele>
        <time>2011-03-23T18:33:52Z</time>
      </trkpt>
      <trkpt lat="37.2048401128" lon="-7.43287420846">
        <ele>17</ele>
        <time>2011-03-23T18:33:54Z</time>
      </trkpt>
      <trkpt lat="37.2047806851" lon="-7.43282483907">
        <ele>17</ele>
        <time>2011-03-23T18:33:57Z</time>
      </trkpt>
      <trkpt lat="37.204742296" lon="-7.43278913218">
        <ele>17</ele>
        <time>2011-03-23T18:33:59Z</time>
      </trkpt>
      <trkpt lat="37.2047025658" lon="-7.43275912498">
        <ele>17</ele>
        <time>2011-03-23T18:34:01Z</time>
      </trkpt>
      <trkpt lat="37.2046631709" lon="-7.43273003978">
        <ele>17</ele>
        <time>2011-03-23T18:34:03Z</time>
      </trkpt>
      <trkpt lat="37.2046206747" lon="-7.4326921536">
        <ele>17</ele>
        <time>2011-03-23T18:34:05Z</time>
      </trkpt>
      <trkpt lat="37.2045791843" lon="-7.43265803926">
        <ele>17</ele>
        <time>2011-03-23T18:34:07Z</time>
      </trkpt>
      <trkpt lat="37.2045604088" lon="-7.43264244893">
        <ele>17</ele>
        <time>2011-03-23T18:34:08Z</time>
      </trkpt>
    </trkseg>
  </trk>
</gpx>